<?xml version="1.0" encoding="UTF-8" standalone="no" ?>
<gpx xmlns="http://www.topografix.com/GPX/1/1" xmlns:xsi="http://www.w3.org/2001/XMLSchema-instance" xsi:schemaLocation="http://www.topografix.com/GPX/1/1 http://www.topografix.com/GPX/1/1/gpx.xsd" version="1.1" creator="VisuGPX - https://www.visugpx.com">
  <metadata>
    <name>2018-03-14 Bike ride-Georges de Reneins O v47k</name>
    <desc><![CDATA[2018-03-14 Bike ride-Georges de Reneins O v47k]]></desc>
  </metadata>
  <wpt lat="45.92456" lon="4.73725">
    <ele>174</ele>
    <name><![CDATA[2018-03-14 10:20 (Start)]]></name>
  </wpt>
  <wpt lat="45.92458" lon="4.73715">
    <ele>174</ele>
    <name><![CDATA[2018-03-14 10:20 (End)]]></name>
  </wpt>
  <trk>
    <name><![CDATA[2018-03-14 10:20]]></name>
    <trkseg>
      <trkpt lat="45.92456" lon="4.73725">
        <ele>174</ele>
        <time>2018-03-14T09:20:33.856Z</time>
      </trkpt>
      <trkpt lat="45.92458" lon="4.73713">
        <ele>174</ele>
        <time>2018-03-14T09:20:51Z</time>
      </trkpt>
      <trkpt lat="45.9246" lon="4.73712">
        <ele>174</ele>
        <time>2018-03-14T09:20:52Z</time>
      </trkpt>
      <trkpt lat="45.92464" lon="4.73704">
        <ele>174</ele>
        <time>2018-03-14T09:20:56Z</time>
      </trkpt>
      <trkpt lat="45.92465" lon="4.73701">
        <ele>174</ele>
        <time>2018-03-14T09:20:57Z</time>
      </trkpt>
      <trkpt lat="45.92466" lon="4.7369">
        <ele>174</ele>
        <time>2018-03-14T09:21:00Z</time>
      </trkpt>
      <trkpt lat="45.92466" lon="4.73686">
        <ele>174</ele>
        <time>2018-03-14T09:21:01Z</time>
      </trkpt>
      <trkpt lat="45.92466" lon="4.73677">
        <ele>174</ele>
        <time>2018-03-14T09:21:03Z</time>
      </trkpt>
      <trkpt lat="45.92467" lon="4.73672">
        <ele>174</ele>
        <time>2018-03-14T09:21:04Z</time>
      </trkpt>
      <trkpt lat="45.92467" lon="4.73666">
        <ele>174</ele>
        <time>2018-03-14T09:21:05Z</time>
      </trkpt>
      <trkpt lat="45.92469" lon="4.73652">
        <ele>174</ele>
        <time>2018-03-14T09:21:06Z</time>
      </trkpt>
      <trkpt lat="45.9247" lon="4.7364">
        <ele>174</ele>
        <time>2018-03-14T09:21:08Z</time>
      </trkpt>
      <trkpt lat="45.92471" lon="4.73635">
        <ele>174</ele>
        <time>2018-03-14T09:21:09Z</time>
      </trkpt>
      <trkpt lat="45.92471" lon="4.73622">
        <ele>174</ele>
        <time>2018-03-14T09:21:11Z</time>
      </trkpt>
      <trkpt lat="45.92471" lon="4.73616">
        <ele>174</ele>
        <time>2018-03-14T09:21:12Z</time>
      </trkpt>
      <trkpt lat="45.92471" lon="4.73604">
        <ele>174</ele>
        <time>2018-03-14T09:21:14Z</time>
      </trkpt>
      <trkpt lat="45.92471" lon="4.73598">
        <ele>174</ele>
        <time>2018-03-14T09:21:15Z</time>
      </trkpt>
      <trkpt lat="45.9247" lon="4.73586">
        <ele>174</ele>
        <time>2018-03-14T09:21:17Z</time>
      </trkpt>
      <trkpt lat="45.92469" lon="4.7358">
        <ele>173</ele>
        <time>2018-03-14T09:21:18Z</time>
      </trkpt>
      <trkpt lat="45.92468" lon="4.73568">
        <ele>173</ele>
        <time>2018-03-14T09:21:20Z</time>
      </trkpt>
      <trkpt lat="45.92468" lon="4.73562">
        <ele>173</ele>
        <time>2018-03-14T09:21:21Z</time>
      </trkpt>
      <trkpt lat="45.92468" lon="4.73551">
        <ele>173</ele>
        <time>2018-03-14T09:21:24Z</time>
      </trkpt>
      <trkpt lat="45.92468" lon="4.73548">
        <ele>173</ele>
        <time>2018-03-14T09:21:25Z</time>
      </trkpt>
      <trkpt lat="45.92468" lon="4.73536">
        <ele>174</ele>
        <time>2018-03-14T09:21:26Z</time>
      </trkpt>
      <trkpt lat="45.92468" lon="4.7353">
        <ele>174</ele>
        <time>2018-03-14T09:21:27Z</time>
      </trkpt>
      <trkpt lat="45.92468" lon="4.73523">
        <ele>174</ele>
        <time>2018-03-14T09:21:28Z</time>
      </trkpt>
      <trkpt lat="45.92468" lon="4.73517">
        <ele>174</ele>
        <time>2018-03-14T09:21:29Z</time>
      </trkpt>
      <trkpt lat="45.92468" lon="4.7351">
        <ele>174</ele>
        <time>2018-03-14T09:21:30Z</time>
      </trkpt>
      <trkpt lat="45.92467" lon="4.73504">
        <ele>174</ele>
        <time>2018-03-14T09:21:31Z</time>
      </trkpt>
      <trkpt lat="45.92468" lon="4.73496">
        <ele>173</ele>
        <time>2018-03-14T09:21:32Z</time>
      </trkpt>
      <trkpt lat="45.92468" lon="4.73488">
        <ele>173</ele>
        <time>2018-03-14T09:21:33Z</time>
      </trkpt>
      <trkpt lat="45.92469" lon="4.7348">
        <ele>173</ele>
        <time>2018-03-14T09:21:34Z</time>
      </trkpt>
      <trkpt lat="45.92469" lon="4.73473">
        <ele>173</ele>
        <time>2018-03-14T09:21:35Z</time>
      </trkpt>
      <trkpt lat="45.92469" lon="4.73465">
        <ele>173</ele>
        <time>2018-03-14T09:21:36Z</time>
      </trkpt>
      <trkpt lat="45.92468" lon="4.73456">
        <ele>173</ele>
        <time>2018-03-14T09:21:37Z</time>
      </trkpt>
      <trkpt lat="45.92467" lon="4.73449">
        <ele>173</ele>
        <time>2018-03-14T09:21:38Z</time>
      </trkpt>
      <trkpt lat="45.92465" lon="4.73443">
        <ele>173</ele>
        <time>2018-03-14T09:21:39Z</time>
      </trkpt>
      <trkpt lat="45.92463" lon="4.73435">
        <ele>173</ele>
        <time>2018-03-14T09:21:40Z</time>
      </trkpt>
      <trkpt lat="45.9246" lon="4.73429">
        <ele>173</ele>
        <time>2018-03-14T09:21:41Z</time>
      </trkpt>
      <trkpt lat="45.92455" lon="4.73424">
        <ele>173</ele>
        <time>2018-03-14T09:21:42Z</time>
      </trkpt>
      <trkpt lat="45.92451" lon="4.7342">
        <ele>173</ele>
        <time>2018-03-14T09:21:43Z</time>
      </trkpt>
      <trkpt lat="45.92447" lon="4.73417">
        <ele>173</ele>
        <time>2018-03-14T09:21:44Z</time>
      </trkpt>
      <trkpt lat="45.92442" lon="4.73415">
        <ele>172</ele>
        <time>2018-03-14T09:21:45Z</time>
      </trkpt>
      <trkpt lat="45.92437" lon="4.73411">
        <ele>172</ele>
        <time>2018-03-14T09:21:46Z</time>
      </trkpt>
      <trkpt lat="45.92434" lon="4.73407">
        <ele>172</ele>
        <time>2018-03-14T09:21:47Z</time>
      </trkpt>
      <trkpt lat="45.9243" lon="4.73402">
        <ele>172</ele>
        <time>2018-03-14T09:21:48Z</time>
      </trkpt>
      <trkpt lat="45.92428" lon="4.73396">
        <ele>172</ele>
        <time>2018-03-14T09:21:49Z</time>
      </trkpt>
      <trkpt lat="45.92427" lon="4.73389">
        <ele>172</ele>
        <time>2018-03-14T09:21:50Z</time>
      </trkpt>
      <trkpt lat="45.92424" lon="4.73382">
        <ele>172</ele>
        <time>2018-03-14T09:21:51Z</time>
      </trkpt>
      <trkpt lat="45.92423" lon="4.73373">
        <ele>172</ele>
        <time>2018-03-14T09:21:52Z</time>
      </trkpt>
      <trkpt lat="45.92422" lon="4.73365">
        <ele>172</ele>
        <time>2018-03-14T09:21:53Z</time>
      </trkpt>
      <trkpt lat="45.9242" lon="4.73358">
        <ele>171</ele>
        <time>2018-03-14T09:21:54Z</time>
      </trkpt>
      <trkpt lat="45.92419" lon="4.7335">
        <ele>171</ele>
        <time>2018-03-14T09:21:55Z</time>
      </trkpt>
      <trkpt lat="45.92417" lon="4.73343">
        <ele>171</ele>
        <time>2018-03-14T09:21:56Z</time>
      </trkpt>
      <trkpt lat="45.92416" lon="4.73336">
        <ele>171</ele>
        <time>2018-03-14T09:21:57Z</time>
      </trkpt>
      <trkpt lat="45.92416" lon="4.73327">
        <ele>171</ele>
        <time>2018-03-14T09:21:58Z</time>
      </trkpt>
      <trkpt lat="45.92415" lon="4.7332">
        <ele>171</ele>
        <time>2018-03-14T09:21:59Z</time>
      </trkpt>
      <trkpt lat="45.92414" lon="4.73312">
        <ele>171</ele>
        <time>2018-03-14T09:22:00Z</time>
      </trkpt>
      <trkpt lat="45.92414" lon="4.73304">
        <ele>171</ele>
        <time>2018-03-14T09:22:01Z</time>
      </trkpt>
      <trkpt lat="45.92413" lon="4.73297">
        <ele>171</ele>
        <time>2018-03-14T09:22:02Z</time>
      </trkpt>
      <trkpt lat="45.92412" lon="4.73289">
        <ele>171</ele>
        <time>2018-03-14T09:22:03Z</time>
      </trkpt>
      <trkpt lat="45.92412" lon="4.73281">
        <ele>171</ele>
        <time>2018-03-14T09:22:04Z</time>
      </trkpt>
      <trkpt lat="45.92412" lon="4.73273">
        <ele>171</ele>
        <time>2018-03-14T09:22:05Z</time>
      </trkpt>
      <trkpt lat="45.92411" lon="4.73265">
        <ele>171</ele>
        <time>2018-03-14T09:22:06Z</time>
      </trkpt>
      <trkpt lat="45.92411" lon="4.73256">
        <ele>171</ele>
        <time>2018-03-14T09:22:07Z</time>
      </trkpt>
      <trkpt lat="45.9241" lon="4.73248">
        <ele>171</ele>
        <time>2018-03-14T09:22:08Z</time>
      </trkpt>
      <trkpt lat="45.9241" lon="4.7324">
        <ele>171</ele>
        <time>2018-03-14T09:22:09Z</time>
      </trkpt>
      <trkpt lat="45.9241" lon="4.73232">
        <ele>171</ele>
        <time>2018-03-14T09:22:10Z</time>
      </trkpt>
      <trkpt lat="45.92409" lon="4.73224">
        <ele>171</ele>
        <time>2018-03-14T09:22:11Z</time>
      </trkpt>
      <trkpt lat="45.92409" lon="4.73216">
        <ele>171</ele>
        <time>2018-03-14T09:22:12Z</time>
      </trkpt>
      <trkpt lat="45.92408" lon="4.73208">
        <ele>171</ele>
        <time>2018-03-14T09:22:13Z</time>
      </trkpt>
      <trkpt lat="45.92408" lon="4.73201">
        <ele>171</ele>
        <time>2018-03-14T09:22:14Z</time>
      </trkpt>
      <trkpt lat="45.92408" lon="4.73193">
        <ele>171</ele>
        <time>2018-03-14T09:22:15Z</time>
      </trkpt>
      <trkpt lat="45.92407" lon="4.73185">
        <ele>171</ele>
        <time>2018-03-14T09:22:16Z</time>
      </trkpt>
      <trkpt lat="45.92407" lon="4.73177">
        <ele>171</ele>
        <time>2018-03-14T09:22:17Z</time>
      </trkpt>
      <trkpt lat="45.92407" lon="4.7317">
        <ele>170</ele>
        <time>2018-03-14T09:22:18Z</time>
      </trkpt>
      <trkpt lat="45.92407" lon="4.73163">
        <ele>170</ele>
        <time>2018-03-14T09:22:19Z</time>
      </trkpt>
      <trkpt lat="45.92407" lon="4.73155">
        <ele>170</ele>
        <time>2018-03-14T09:22:20Z</time>
      </trkpt>
      <trkpt lat="45.92406" lon="4.73148">
        <ele>171</ele>
        <time>2018-03-14T09:22:21Z</time>
      </trkpt>
      <trkpt lat="45.92406" lon="4.7314">
        <ele>171</ele>
        <time>2018-03-14T09:22:22Z</time>
      </trkpt>
      <trkpt lat="45.92407" lon="4.73132">
        <ele>171</ele>
        <time>2018-03-14T09:22:23Z</time>
      </trkpt>
      <trkpt lat="45.92408" lon="4.73124">
        <ele>171</ele>
        <time>2018-03-14T09:22:24Z</time>
      </trkpt>
      <trkpt lat="45.92411" lon="4.73118">
        <ele>171</ele>
        <time>2018-03-14T09:22:25Z</time>
      </trkpt>
      <trkpt lat="45.92415" lon="4.73112">
        <ele>171</ele>
        <time>2018-03-14T09:22:26Z</time>
      </trkpt>
      <trkpt lat="45.92419" lon="4.73108">
        <ele>171</ele>
        <time>2018-03-14T09:22:27Z</time>
      </trkpt>
      <trkpt lat="45.92424" lon="4.73103">
        <ele>171</ele>
        <time>2018-03-14T09:22:28Z</time>
      </trkpt>
      <trkpt lat="45.92428" lon="4.731">
        <ele>171</ele>
        <time>2018-03-14T09:22:29Z</time>
      </trkpt>
      <trkpt lat="45.92433" lon="4.73097">
        <ele>171</ele>
        <time>2018-03-14T09:22:30Z</time>
      </trkpt>
      <trkpt lat="45.92438" lon="4.73093">
        <ele>171</ele>
        <time>2018-03-14T09:22:31Z</time>
      </trkpt>
      <trkpt lat="45.92443" lon="4.73089">
        <ele>170</ele>
        <time>2018-03-14T09:22:32Z</time>
      </trkpt>
      <trkpt lat="45.92448" lon="4.73085">
        <ele>170</ele>
        <time>2018-03-14T09:22:33Z</time>
      </trkpt>
      <trkpt lat="45.92454" lon="4.7308">
        <ele>170</ele>
        <time>2018-03-14T09:22:34Z</time>
      </trkpt>
      <trkpt lat="45.92459" lon="4.73076">
        <ele>170</ele>
        <time>2018-03-14T09:22:35Z</time>
      </trkpt>
      <trkpt lat="45.92464" lon="4.73069">
        <ele>170</ele>
        <time>2018-03-14T09:22:36Z</time>
      </trkpt>
      <trkpt lat="45.92469" lon="4.73066">
        <ele>170</ele>
        <time>2018-03-14T09:22:37Z</time>
      </trkpt>
      <trkpt lat="45.92473" lon="4.73062">
        <ele>170</ele>
        <time>2018-03-14T09:22:38Z</time>
      </trkpt>
      <trkpt lat="45.92478" lon="4.73057">
        <ele>170</ele>
        <time>2018-03-14T09:22:39Z</time>
      </trkpt>
      <trkpt lat="45.92483" lon="4.73053">
        <ele>170</ele>
        <time>2018-03-14T09:22:40Z</time>
      </trkpt>
      <trkpt lat="45.92488" lon="4.73049">
        <ele>170</ele>
        <time>2018-03-14T09:22:41Z</time>
      </trkpt>
      <trkpt lat="45.92492" lon="4.73045">
        <ele>170</ele>
        <time>2018-03-14T09:22:42Z</time>
      </trkpt>
      <trkpt lat="45.92497" lon="4.73039">
        <ele>170</ele>
        <time>2018-03-14T09:22:43Z</time>
      </trkpt>
      <trkpt lat="45.92503" lon="4.73036">
        <ele>169</ele>
        <time>2018-03-14T09:22:44Z</time>
      </trkpt>
      <trkpt lat="45.92507" lon="4.73032">
        <ele>169</ele>
        <time>2018-03-14T09:22:45Z</time>
      </trkpt>
      <trkpt lat="45.92513" lon="4.73028">
        <ele>169</ele>
        <time>2018-03-14T09:22:46Z</time>
      </trkpt>
      <trkpt lat="45.92517" lon="4.73023">
        <ele>169</ele>
        <time>2018-03-14T09:22:47Z</time>
      </trkpt>
      <trkpt lat="45.92523" lon="4.73018">
        <ele>169</ele>
        <time>2018-03-14T09:22:48Z</time>
      </trkpt>
      <trkpt lat="45.92528" lon="4.73014">
        <ele>169</ele>
        <time>2018-03-14T09:22:49Z</time>
      </trkpt>
      <trkpt lat="45.92533" lon="4.73009">
        <ele>169</ele>
        <time>2018-03-14T09:22:50Z</time>
      </trkpt>
      <trkpt lat="45.92538" lon="4.73004">
        <ele>169</ele>
        <time>2018-03-14T09:22:51Z</time>
      </trkpt>
      <trkpt lat="45.92543" lon="4.73">
        <ele>169</ele>
        <time>2018-03-14T09:22:52Z</time>
      </trkpt>
      <trkpt lat="45.92548" lon="4.72996">
        <ele>169</ele>
        <time>2018-03-14T09:22:53Z</time>
      </trkpt>
      <trkpt lat="45.92553" lon="4.72992">
        <ele>169</ele>
        <time>2018-03-14T09:22:54Z</time>
      </trkpt>
      <trkpt lat="45.92558" lon="4.72987">
        <ele>169</ele>
        <time>2018-03-14T09:22:55Z</time>
      </trkpt>
      <trkpt lat="45.92563" lon="4.72982">
        <ele>169</ele>
        <time>2018-03-14T09:22:56Z</time>
      </trkpt>
      <trkpt lat="45.92568" lon="4.72977">
        <ele>169</ele>
        <time>2018-03-14T09:22:57Z</time>
      </trkpt>
      <trkpt lat="45.92572" lon="4.72971">
        <ele>169</ele>
        <time>2018-03-14T09:22:58Z</time>
      </trkpt>
      <trkpt lat="45.92577" lon="4.72965">
        <ele>169</ele>
        <time>2018-03-14T09:22:59Z</time>
      </trkpt>
      <trkpt lat="45.92582" lon="4.7296">
        <ele>169</ele>
        <time>2018-03-14T09:23:00Z</time>
      </trkpt>
      <trkpt lat="45.92587" lon="4.72954">
        <ele>169</ele>
        <time>2018-03-14T09:23:01Z</time>
      </trkpt>
      <trkpt lat="45.92592" lon="4.7295">
        <ele>169</ele>
        <time>2018-03-14T09:23:02Z</time>
      </trkpt>
      <trkpt lat="45.92596" lon="4.72944">
        <ele>169</ele>
        <time>2018-03-14T09:23:03Z</time>
      </trkpt>
      <trkpt lat="45.92601" lon="4.72939">
        <ele>169</ele>
        <time>2018-03-14T09:23:04Z</time>
      </trkpt>
      <trkpt lat="45.92605" lon="4.72933">
        <ele>169</ele>
        <time>2018-03-14T09:23:05Z</time>
      </trkpt>
      <trkpt lat="45.9261" lon="4.72928">
        <ele>169</ele>
        <time>2018-03-14T09:23:06Z</time>
      </trkpt>
      <trkpt lat="45.92614" lon="4.72923">
        <ele>169</ele>
        <time>2018-03-14T09:23:07Z</time>
      </trkpt>
      <trkpt lat="45.92618" lon="4.72919">
        <ele>169</ele>
        <time>2018-03-14T09:23:08Z</time>
      </trkpt>
      <trkpt lat="45.92623" lon="4.72914">
        <ele>169</ele>
        <time>2018-03-14T09:23:09Z</time>
      </trkpt>
      <trkpt lat="45.92627" lon="4.7291">
        <ele>169</ele>
        <time>2018-03-14T09:23:10Z</time>
      </trkpt>
      <trkpt lat="45.92632" lon="4.72906">
        <ele>169</ele>
        <time>2018-03-14T09:23:11Z</time>
      </trkpt>
      <trkpt lat="45.92637" lon="4.72902">
        <ele>169</ele>
        <time>2018-03-14T09:23:12Z</time>
      </trkpt>
      <trkpt lat="45.92642" lon="4.72899">
        <ele>169</ele>
        <time>2018-03-14T09:23:13Z</time>
      </trkpt>
      <trkpt lat="45.92647" lon="4.72895">
        <ele>169</ele>
        <time>2018-03-14T09:23:14Z</time>
      </trkpt>
      <trkpt lat="45.92653" lon="4.72891">
        <ele>169</ele>
        <time>2018-03-14T09:23:15Z</time>
      </trkpt>
      <trkpt lat="45.92657" lon="4.72887">
        <ele>169</ele>
        <time>2018-03-14T09:23:16Z</time>
      </trkpt>
      <trkpt lat="45.92662" lon="4.72882">
        <ele>169</ele>
        <time>2018-03-14T09:23:17Z</time>
      </trkpt>
      <trkpt lat="45.92668" lon="4.72879">
        <ele>170</ele>
        <time>2018-03-14T09:23:18Z</time>
      </trkpt>
      <trkpt lat="45.92673" lon="4.72876">
        <ele>170</ele>
        <time>2018-03-14T09:23:19Z</time>
      </trkpt>
      <trkpt lat="45.92679" lon="4.72873">
        <ele>169</ele>
        <time>2018-03-14T09:23:20Z</time>
      </trkpt>
      <trkpt lat="45.92684" lon="4.72869">
        <ele>169</ele>
        <time>2018-03-14T09:23:21Z</time>
      </trkpt>
      <trkpt lat="45.92689" lon="4.72866">
        <ele>169</ele>
        <time>2018-03-14T09:23:22Z</time>
      </trkpt>
      <trkpt lat="45.92695" lon="4.72861">
        <ele>169</ele>
        <time>2018-03-14T09:23:23Z</time>
      </trkpt>
      <trkpt lat="45.92701" lon="4.72855">
        <ele>169</ele>
        <time>2018-03-14T09:23:24Z</time>
      </trkpt>
      <trkpt lat="45.92706" lon="4.72851">
        <ele>169</ele>
        <time>2018-03-14T09:23:25Z</time>
      </trkpt>
      <trkpt lat="45.92712" lon="4.72847">
        <ele>169</ele>
        <time>2018-03-14T09:23:26Z</time>
      </trkpt>
      <trkpt lat="45.92717" lon="4.72843">
        <ele>169</ele>
        <time>2018-03-14T09:23:27Z</time>
      </trkpt>
      <trkpt lat="45.92722" lon="4.72839">
        <ele>169</ele>
        <time>2018-03-14T09:23:28Z</time>
      </trkpt>
      <trkpt lat="45.92728" lon="4.72835">
        <ele>169</ele>
        <time>2018-03-14T09:23:29Z</time>
      </trkpt>
      <trkpt lat="45.92734" lon="4.7283">
        <ele>169</ele>
        <time>2018-03-14T09:23:30Z</time>
      </trkpt>
      <trkpt lat="45.92739" lon="4.72825">
        <ele>169</ele>
        <time>2018-03-14T09:23:31Z</time>
      </trkpt>
      <trkpt lat="45.92745" lon="4.72821">
        <ele>169</ele>
        <time>2018-03-14T09:23:32Z</time>
      </trkpt>
      <trkpt lat="45.9275" lon="4.72817">
        <ele>170</ele>
        <time>2018-03-14T09:23:33Z</time>
      </trkpt>
      <trkpt lat="45.92756" lon="4.72814">
        <ele>170</ele>
        <time>2018-03-14T09:23:34Z</time>
      </trkpt>
      <trkpt lat="45.92762" lon="4.7281">
        <ele>170</ele>
        <time>2018-03-14T09:23:35Z</time>
      </trkpt>
      <trkpt lat="45.92767" lon="4.72807">
        <ele>170</ele>
        <time>2018-03-14T09:23:36Z</time>
      </trkpt>
      <trkpt lat="45.92772" lon="4.72803">
        <ele>170</ele>
        <time>2018-03-14T09:23:37Z</time>
      </trkpt>
      <trkpt lat="45.92777" lon="4.72799">
        <ele>170</ele>
        <time>2018-03-14T09:23:38Z</time>
      </trkpt>
      <trkpt lat="45.92782" lon="4.72795">
        <ele>170</ele>
        <time>2018-03-14T09:23:39Z</time>
      </trkpt>
      <trkpt lat="45.92786" lon="4.72791">
        <ele>170</ele>
        <time>2018-03-14T09:23:40Z</time>
      </trkpt>
      <trkpt lat="45.92791" lon="4.72789">
        <ele>171</ele>
        <time>2018-03-14T09:23:41Z</time>
      </trkpt>
      <trkpt lat="45.92795" lon="4.72787">
        <ele>171</ele>
        <time>2018-03-14T09:23:42Z</time>
      </trkpt>
      <trkpt lat="45.928" lon="4.72787">
        <ele>171</ele>
        <time>2018-03-14T09:23:43Z</time>
      </trkpt>
      <trkpt lat="45.92805" lon="4.72794">
        <ele>171</ele>
        <time>2018-03-14T09:23:45Z</time>
      </trkpt>
      <trkpt lat="45.92806" lon="4.728">
        <ele>171</ele>
        <time>2018-03-14T09:23:46Z</time>
      </trkpt>
      <trkpt lat="45.92807" lon="4.72807">
        <ele>171</ele>
        <time>2018-03-14T09:23:47Z</time>
      </trkpt>
      <trkpt lat="45.92808" lon="4.72814">
        <ele>171</ele>
        <time>2018-03-14T09:23:48Z</time>
      </trkpt>
      <trkpt lat="45.92809" lon="4.72821">
        <ele>171</ele>
        <time>2018-03-14T09:23:49Z</time>
      </trkpt>
      <trkpt lat="45.9281" lon="4.72828">
        <ele>171</ele>
        <time>2018-03-14T09:23:50Z</time>
      </trkpt>
      <trkpt lat="45.92811" lon="4.72835">
        <ele>170</ele>
        <time>2018-03-14T09:23:51Z</time>
      </trkpt>
      <trkpt lat="45.92812" lon="4.72842">
        <ele>170</ele>
        <time>2018-03-14T09:23:52Z</time>
      </trkpt>
      <trkpt lat="45.92813" lon="4.72849">
        <ele>170</ele>
        <time>2018-03-14T09:23:53Z</time>
      </trkpt>
      <trkpt lat="45.92814" lon="4.72856">
        <ele>170</ele>
        <time>2018-03-14T09:23:54Z</time>
      </trkpt>
      <trkpt lat="45.92815" lon="4.72863">
        <ele>170</ele>
        <time>2018-03-14T09:23:55Z</time>
      </trkpt>
      <trkpt lat="45.92817" lon="4.7287">
        <ele>170</ele>
        <time>2018-03-14T09:23:56Z</time>
      </trkpt>
      <trkpt lat="45.92818" lon="4.72876">
        <ele>170</ele>
        <time>2018-03-14T09:23:57Z</time>
      </trkpt>
      <trkpt lat="45.9282" lon="4.72884">
        <ele>170</ele>
        <time>2018-03-14T09:23:58Z</time>
      </trkpt>
      <trkpt lat="45.92821" lon="4.72891">
        <ele>170</ele>
        <time>2018-03-14T09:23:59Z</time>
      </trkpt>
      <trkpt lat="45.92822" lon="4.729">
        <ele>170</ele>
        <time>2018-03-14T09:24:00Z</time>
      </trkpt>
      <trkpt lat="45.92822" lon="4.72907">
        <ele>170</ele>
        <time>2018-03-14T09:24:01Z</time>
      </trkpt>
      <trkpt lat="45.92823" lon="4.72916">
        <ele>170</ele>
        <time>2018-03-14T09:24:02Z</time>
      </trkpt>
      <trkpt lat="45.92825" lon="4.72925">
        <ele>170</ele>
        <time>2018-03-14T09:24:03Z</time>
      </trkpt>
      <trkpt lat="45.92827" lon="4.72932">
        <ele>170</ele>
        <time>2018-03-14T09:24:04Z</time>
      </trkpt>
      <trkpt lat="45.92827" lon="4.72941">
        <ele>170</ele>
        <time>2018-03-14T09:24:05Z</time>
      </trkpt>
      <trkpt lat="45.92828" lon="4.72949">
        <ele>170</ele>
        <time>2018-03-14T09:24:06Z</time>
      </trkpt>
      <trkpt lat="45.92829" lon="4.72957">
        <ele>170</ele>
        <time>2018-03-14T09:24:07Z</time>
      </trkpt>
      <trkpt lat="45.92829" lon="4.72965">
        <ele>170</ele>
        <time>2018-03-14T09:24:08Z</time>
      </trkpt>
      <trkpt lat="45.92831" lon="4.72973">
        <ele>170</ele>
        <time>2018-03-14T09:24:09Z</time>
      </trkpt>
      <trkpt lat="45.92831" lon="4.72981">
        <ele>170</ele>
        <time>2018-03-14T09:24:10Z</time>
      </trkpt>
      <trkpt lat="45.92832" lon="4.7299">
        <ele>170</ele>
        <time>2018-03-14T09:24:11Z</time>
      </trkpt>
      <trkpt lat="45.92832" lon="4.72998">
        <ele>170</ele>
        <time>2018-03-14T09:24:12Z</time>
      </trkpt>
      <trkpt lat="45.92834" lon="4.73005">
        <ele>170</ele>
        <time>2018-03-14T09:24:13Z</time>
      </trkpt>
      <trkpt lat="45.92835" lon="4.73012">
        <ele>171</ele>
        <time>2018-03-14T09:24:14Z</time>
      </trkpt>
      <trkpt lat="45.92836" lon="4.7302">
        <ele>171</ele>
        <time>2018-03-14T09:24:15Z</time>
      </trkpt>
      <trkpt lat="45.92837" lon="4.73028">
        <ele>171</ele>
        <time>2018-03-14T09:24:16Z</time>
      </trkpt>
      <trkpt lat="45.92839" lon="4.73035">
        <ele>171</ele>
        <time>2018-03-14T09:24:17Z</time>
      </trkpt>
      <trkpt lat="45.9284" lon="4.73042">
        <ele>171</ele>
        <time>2018-03-14T09:24:18Z</time>
      </trkpt>
      <trkpt lat="45.92841" lon="4.73051">
        <ele>171</ele>
        <time>2018-03-14T09:24:19Z</time>
      </trkpt>
      <trkpt lat="45.92843" lon="4.73058">
        <ele>171</ele>
        <time>2018-03-14T09:24:20Z</time>
      </trkpt>
      <trkpt lat="45.92844" lon="4.73066">
        <ele>171</ele>
        <time>2018-03-14T09:24:21Z</time>
      </trkpt>
      <trkpt lat="45.92845" lon="4.73074">
        <ele>171</ele>
        <time>2018-03-14T09:24:22Z</time>
      </trkpt>
      <trkpt lat="45.92846" lon="4.73081">
        <ele>171</ele>
        <time>2018-03-14T09:24:23Z</time>
      </trkpt>
      <trkpt lat="45.92848" lon="4.73089">
        <ele>171</ele>
        <time>2018-03-14T09:24:24Z</time>
      </trkpt>
      <trkpt lat="45.9285" lon="4.73095">
        <ele>171</ele>
        <time>2018-03-14T09:24:25Z</time>
      </trkpt>
      <trkpt lat="45.92854" lon="4.73099">
        <ele>171</ele>
        <time>2018-03-14T09:24:26Z</time>
      </trkpt>
      <trkpt lat="45.92861" lon="4.731">
        <ele>171</ele>
        <time>2018-03-14T09:24:28Z</time>
      </trkpt>
      <trkpt lat="45.92865" lon="4.73097">
        <ele>171</ele>
        <time>2018-03-14T09:24:29Z</time>
      </trkpt>
      <trkpt lat="45.92872" lon="4.7309">
        <ele>172</ele>
        <time>2018-03-14T09:24:31Z</time>
      </trkpt>
      <trkpt lat="45.92875" lon="4.73088">
        <ele>172</ele>
        <time>2018-03-14T09:24:32Z</time>
      </trkpt>
      <trkpt lat="45.92881" lon="4.7308">
        <ele>172</ele>
        <time>2018-03-14T09:24:34Z</time>
      </trkpt>
      <trkpt lat="45.92885" lon="4.73077">
        <ele>172</ele>
        <time>2018-03-14T09:24:35Z</time>
      </trkpt>
      <trkpt lat="45.92892" lon="4.73071">
        <ele>172</ele>
        <time>2018-03-14T09:24:37Z</time>
      </trkpt>
      <trkpt lat="45.92895" lon="4.73066">
        <ele>172</ele>
        <time>2018-03-14T09:24:38Z</time>
      </trkpt>
      <trkpt lat="45.92899" lon="4.73061">
        <ele>172</ele>
        <time>2018-03-14T09:24:39Z</time>
      </trkpt>
      <trkpt lat="45.92903" lon="4.73054">
        <ele>172</ele>
        <time>2018-03-14T09:24:40Z</time>
      </trkpt>
      <trkpt lat="45.92906" lon="4.73049">
        <ele>172</ele>
        <time>2018-03-14T09:24:41Z</time>
      </trkpt>
      <trkpt lat="45.92909" lon="4.73043">
        <ele>172</ele>
        <time>2018-03-14T09:24:42Z</time>
      </trkpt>
      <trkpt lat="45.92913" lon="4.73037">
        <ele>172</ele>
        <time>2018-03-14T09:24:43Z</time>
      </trkpt>
      <trkpt lat="45.92917" lon="4.73031">
        <ele>172</ele>
        <time>2018-03-14T09:24:44Z</time>
      </trkpt>
      <trkpt lat="45.92921" lon="4.73026">
        <ele>171</ele>
        <time>2018-03-14T09:24:45Z</time>
      </trkpt>
      <trkpt lat="45.92926" lon="4.7302">
        <ele>171</ele>
        <time>2018-03-14T09:24:46Z</time>
      </trkpt>
      <trkpt lat="45.9293" lon="4.73016">
        <ele>171</ele>
        <time>2018-03-14T09:24:47Z</time>
      </trkpt>
      <trkpt lat="45.92934" lon="4.73011">
        <ele>171</ele>
        <time>2018-03-14T09:24:48Z</time>
      </trkpt>
      <trkpt lat="45.92938" lon="4.73006">
        <ele>171</ele>
        <time>2018-03-14T09:24:49Z</time>
      </trkpt>
      <trkpt lat="45.92942" lon="4.73001">
        <ele>171</ele>
        <time>2018-03-14T09:24:50Z</time>
      </trkpt>
      <trkpt lat="45.92947" lon="4.72996">
        <ele>171</ele>
        <time>2018-03-14T09:24:51Z</time>
      </trkpt>
      <trkpt lat="45.92952" lon="4.7299">
        <ele>171</ele>
        <time>2018-03-14T09:24:52Z</time>
      </trkpt>
      <trkpt lat="45.92955" lon="4.72984">
        <ele>171</ele>
        <time>2018-03-14T09:24:53Z</time>
      </trkpt>
      <trkpt lat="45.9296" lon="4.72978">
        <ele>171</ele>
        <time>2018-03-14T09:24:54Z</time>
      </trkpt>
      <trkpt lat="45.92965" lon="4.72973">
        <ele>171</ele>
        <time>2018-03-14T09:24:55Z</time>
      </trkpt>
      <trkpt lat="45.9297" lon="4.72967">
        <ele>171</ele>
        <time>2018-03-14T09:24:56Z</time>
      </trkpt>
      <trkpt lat="45.92975" lon="4.72961">
        <ele>171</ele>
        <time>2018-03-14T09:24:57Z</time>
      </trkpt>
      <trkpt lat="45.92979" lon="4.72956">
        <ele>171</ele>
        <time>2018-03-14T09:24:58Z</time>
      </trkpt>
      <trkpt lat="45.92984" lon="4.7295">
        <ele>171</ele>
        <time>2018-03-14T09:24:59Z</time>
      </trkpt>
      <trkpt lat="45.92989" lon="4.72945">
        <ele>171</ele>
        <time>2018-03-14T09:25:00Z</time>
      </trkpt>
      <trkpt lat="45.92994" lon="4.72939">
        <ele>171</ele>
        <time>2018-03-14T09:25:01Z</time>
      </trkpt>
      <trkpt lat="45.92999" lon="4.72933">
        <ele>171</ele>
        <time>2018-03-14T09:25:02Z</time>
      </trkpt>
      <trkpt lat="45.93004" lon="4.72927">
        <ele>170</ele>
        <time>2018-03-14T09:25:03Z</time>
      </trkpt>
      <trkpt lat="45.93008" lon="4.72921">
        <ele>170</ele>
        <time>2018-03-14T09:25:04Z</time>
      </trkpt>
      <trkpt lat="45.93013" lon="4.72916">
        <ele>171</ele>
        <time>2018-03-14T09:25:05Z</time>
      </trkpt>
      <trkpt lat="45.93016" lon="4.72911">
        <ele>171</ele>
        <time>2018-03-14T09:25:06Z</time>
      </trkpt>
      <trkpt lat="45.93021" lon="4.72906">
        <ele>172</ele>
        <time>2018-03-14T09:25:07Z</time>
      </trkpt>
      <trkpt lat="45.93026" lon="4.729">
        <ele>172</ele>
        <time>2018-03-14T09:25:08Z</time>
      </trkpt>
      <trkpt lat="45.93031" lon="4.72894">
        <ele>172</ele>
        <time>2018-03-14T09:25:09Z</time>
      </trkpt>
      <trkpt lat="45.93036" lon="4.72889">
        <ele>172</ele>
        <time>2018-03-14T09:25:10Z</time>
      </trkpt>
      <trkpt lat="45.93041" lon="4.72884">
        <ele>172</ele>
        <time>2018-03-14T09:25:11Z</time>
      </trkpt>
      <trkpt lat="45.93046" lon="4.72877">
        <ele>172</ele>
        <time>2018-03-14T09:25:12Z</time>
      </trkpt>
      <trkpt lat="45.9305" lon="4.72872">
        <ele>172</ele>
        <time>2018-03-14T09:25:13Z</time>
      </trkpt>
      <trkpt lat="45.93055" lon="4.72866">
        <ele>172</ele>
        <time>2018-03-14T09:25:14Z</time>
      </trkpt>
      <trkpt lat="45.9306" lon="4.72861">
        <ele>172</ele>
        <time>2018-03-14T09:25:15Z</time>
      </trkpt>
      <trkpt lat="45.93064" lon="4.72855">
        <ele>172</ele>
        <time>2018-03-14T09:25:16Z</time>
      </trkpt>
      <trkpt lat="45.93069" lon="4.7285">
        <ele>172</ele>
        <time>2018-03-14T09:25:17Z</time>
      </trkpt>
      <trkpt lat="45.93087" lon="4.72831">
        <ele>173</ele>
        <time>2018-03-14T09:25:21Z</time>
      </trkpt>
      <trkpt lat="45.9309" lon="4.72828">
        <ele>172</ele>
        <time>2018-03-14T09:25:22Z</time>
      </trkpt>
      <trkpt lat="45.93097" lon="4.72825">
        <ele>172</ele>
        <time>2018-03-14T09:25:23Z</time>
      </trkpt>
      <trkpt lat="45.93099" lon="4.72814">
        <ele>172</ele>
        <time>2018-03-14T09:25:24Z</time>
      </trkpt>
      <trkpt lat="45.93105" lon="4.7281">
        <ele>171</ele>
        <time>2018-03-14T09:25:25Z</time>
      </trkpt>
      <trkpt lat="45.93111" lon="4.72804">
        <ele>171</ele>
        <time>2018-03-14T09:25:26Z</time>
      </trkpt>
      <trkpt lat="45.93116" lon="4.72798">
        <ele>171</ele>
        <time>2018-03-14T09:25:27Z</time>
      </trkpt>
      <trkpt lat="45.9312" lon="4.72792">
        <ele>171</ele>
        <time>2018-03-14T09:25:28Z</time>
      </trkpt>
      <trkpt lat="45.93126" lon="4.72787">
        <ele>171</ele>
        <time>2018-03-14T09:25:29Z</time>
      </trkpt>
      <trkpt lat="45.9313" lon="4.72781">
        <ele>171</ele>
        <time>2018-03-14T09:25:30Z</time>
      </trkpt>
      <trkpt lat="45.93134" lon="4.72776">
        <ele>171</ele>
        <time>2018-03-14T09:25:31Z</time>
      </trkpt>
      <trkpt lat="45.9314" lon="4.72772">
        <ele>171</ele>
        <time>2018-03-14T09:25:32Z</time>
      </trkpt>
      <trkpt lat="45.93145" lon="4.72766">
        <ele>171</ele>
        <time>2018-03-14T09:25:33Z</time>
      </trkpt>
      <trkpt lat="45.9315" lon="4.7276">
        <ele>170</ele>
        <time>2018-03-14T09:25:34Z</time>
      </trkpt>
      <trkpt lat="45.93155" lon="4.72754">
        <ele>170</ele>
        <time>2018-03-14T09:25:35Z</time>
      </trkpt>
      <trkpt lat="45.9316" lon="4.72747">
        <ele>170</ele>
        <time>2018-03-14T09:25:36Z</time>
      </trkpt>
      <trkpt lat="45.93165" lon="4.72741">
        <ele>170</ele>
        <time>2018-03-14T09:25:37Z</time>
      </trkpt>
      <trkpt lat="45.9317" lon="4.72734">
        <ele>170</ele>
        <time>2018-03-14T09:25:38Z</time>
      </trkpt>
      <trkpt lat="45.93174" lon="4.72727">
        <ele>170</ele>
        <time>2018-03-14T09:25:39Z</time>
      </trkpt>
      <trkpt lat="45.93178" lon="4.72722">
        <ele>170</ele>
        <time>2018-03-14T09:25:40Z</time>
      </trkpt>
      <trkpt lat="45.93183" lon="4.72716">
        <ele>169</ele>
        <time>2018-03-14T09:25:41Z</time>
      </trkpt>
      <trkpt lat="45.93188" lon="4.72711">
        <ele>169</ele>
        <time>2018-03-14T09:25:42Z</time>
      </trkpt>
      <trkpt lat="45.93192" lon="4.72706">
        <ele>169</ele>
        <time>2018-03-14T09:25:43Z</time>
      </trkpt>
      <trkpt lat="45.93196" lon="4.72701">
        <ele>169</ele>
        <time>2018-03-14T09:25:44Z</time>
      </trkpt>
      <trkpt lat="45.932" lon="4.72696">
        <ele>169</ele>
        <time>2018-03-14T09:25:45Z</time>
      </trkpt>
      <trkpt lat="45.93205" lon="4.72691">
        <ele>169</ele>
        <time>2018-03-14T09:25:46Z</time>
      </trkpt>
      <trkpt lat="45.9321" lon="4.72685">
        <ele>169</ele>
        <time>2018-03-14T09:25:47Z</time>
      </trkpt>
      <trkpt lat="45.93214" lon="4.7268">
        <ele>169</ele>
        <time>2018-03-14T09:25:48Z</time>
      </trkpt>
      <trkpt lat="45.93219" lon="4.72674">
        <ele>169</ele>
        <time>2018-03-14T09:25:49Z</time>
      </trkpt>
      <trkpt lat="45.93224" lon="4.72669">
        <ele>169</ele>
        <time>2018-03-14T09:25:50Z</time>
      </trkpt>
      <trkpt lat="45.93228" lon="4.72663">
        <ele>169</ele>
        <time>2018-03-14T09:25:51Z</time>
      </trkpt>
      <trkpt lat="45.93233" lon="4.72658">
        <ele>169</ele>
        <time>2018-03-14T09:25:52Z</time>
      </trkpt>
      <trkpt lat="45.93238" lon="4.72653">
        <ele>169</ele>
        <time>2018-03-14T09:25:53Z</time>
      </trkpt>
      <trkpt lat="45.93243" lon="4.72646">
        <ele>170</ele>
        <time>2018-03-14T09:25:54Z</time>
      </trkpt>
      <trkpt lat="45.93248" lon="4.72641">
        <ele>170</ele>
        <time>2018-03-14T09:25:55Z</time>
      </trkpt>
      <trkpt lat="45.93252" lon="4.72635">
        <ele>170</ele>
        <time>2018-03-14T09:25:56Z</time>
      </trkpt>
      <trkpt lat="45.93258" lon="4.72628">
        <ele>170</ele>
        <time>2018-03-14T09:25:57Z</time>
      </trkpt>
      <trkpt lat="45.93262" lon="4.72623">
        <ele>170</ele>
        <time>2018-03-14T09:25:58Z</time>
      </trkpt>
      <trkpt lat="45.93267" lon="4.72617">
        <ele>170</ele>
        <time>2018-03-14T09:25:59Z</time>
      </trkpt>
      <trkpt lat="45.93272" lon="4.72611">
        <ele>170</ele>
        <time>2018-03-14T09:26:00Z</time>
      </trkpt>
      <trkpt lat="45.93276" lon="4.72606">
        <ele>170</ele>
        <time>2018-03-14T09:26:01Z</time>
      </trkpt>
      <trkpt lat="45.93281" lon="4.726">
        <ele>170</ele>
        <time>2018-03-14T09:26:02Z</time>
      </trkpt>
      <trkpt lat="45.93286" lon="4.72595">
        <ele>170</ele>
        <time>2018-03-14T09:26:03Z</time>
      </trkpt>
      <trkpt lat="45.9329" lon="4.72589">
        <ele>170</ele>
        <time>2018-03-14T09:26:04Z</time>
      </trkpt>
      <trkpt lat="45.93295" lon="4.72583">
        <ele>170</ele>
        <time>2018-03-14T09:26:05Z</time>
      </trkpt>
      <trkpt lat="45.933" lon="4.72579">
        <ele>171</ele>
        <time>2018-03-14T09:26:06Z</time>
      </trkpt>
      <trkpt lat="45.93304" lon="4.72575">
        <ele>171</ele>
        <time>2018-03-14T09:26:07Z</time>
      </trkpt>
      <trkpt lat="45.93309" lon="4.72569">
        <ele>171</ele>
        <time>2018-03-14T09:26:08Z</time>
      </trkpt>
      <trkpt lat="45.93313" lon="4.72564">
        <ele>171</ele>
        <time>2018-03-14T09:26:09Z</time>
      </trkpt>
      <trkpt lat="45.93318" lon="4.72558">
        <ele>171</ele>
        <time>2018-03-14T09:26:10Z</time>
      </trkpt>
      <trkpt lat="45.93323" lon="4.72553">
        <ele>172</ele>
        <time>2018-03-14T09:26:11Z</time>
      </trkpt>
      <trkpt lat="45.93328" lon="4.72546">
        <ele>172</ele>
        <time>2018-03-14T09:26:12Z</time>
      </trkpt>
      <trkpt lat="45.93333" lon="4.72541">
        <ele>172</ele>
        <time>2018-03-14T09:26:13Z</time>
      </trkpt>
      <trkpt lat="45.93337" lon="4.72537">
        <ele>171</ele>
        <time>2018-03-14T09:26:14Z</time>
      </trkpt>
      <trkpt lat="45.93341" lon="4.72532">
        <ele>172</ele>
        <time>2018-03-14T09:26:15Z</time>
      </trkpt>
      <trkpt lat="45.93346" lon="4.72525">
        <ele>172</ele>
        <time>2018-03-14T09:26:16Z</time>
      </trkpt>
      <trkpt lat="45.93352" lon="4.7252">
        <ele>172</ele>
        <time>2018-03-14T09:26:17Z</time>
      </trkpt>
      <trkpt lat="45.93356" lon="4.72516">
        <ele>172</ele>
        <time>2018-03-14T09:26:18Z</time>
      </trkpt>
      <trkpt lat="45.93361" lon="4.72511">
        <ele>172</ele>
        <time>2018-03-14T09:26:19Z</time>
      </trkpt>
      <trkpt lat="45.93365" lon="4.72506">
        <ele>172</ele>
        <time>2018-03-14T09:26:20Z</time>
      </trkpt>
      <trkpt lat="45.93369" lon="4.72501">
        <ele>172</ele>
        <time>2018-03-14T09:26:21Z</time>
      </trkpt>
      <trkpt lat="45.93374" lon="4.72495">
        <ele>173</ele>
        <time>2018-03-14T09:26:22Z</time>
      </trkpt>
      <trkpt lat="45.9338" lon="4.7249">
        <ele>173</ele>
        <time>2018-03-14T09:26:23Z</time>
      </trkpt>
      <trkpt lat="45.93384" lon="4.72484">
        <ele>173</ele>
        <time>2018-03-14T09:26:24Z</time>
      </trkpt>
      <trkpt lat="45.93389" lon="4.72478">
        <ele>173</ele>
        <time>2018-03-14T09:26:25Z</time>
      </trkpt>
      <trkpt lat="45.93392" lon="4.72472">
        <ele>173</ele>
        <time>2018-03-14T09:26:26Z</time>
      </trkpt>
      <trkpt lat="45.93395" lon="4.72466">
        <ele>173</ele>
        <time>2018-03-14T09:26:27Z</time>
      </trkpt>
      <trkpt lat="45.93398" lon="4.72457">
        <ele>173</ele>
        <time>2018-03-14T09:26:28Z</time>
      </trkpt>
      <trkpt lat="45.934" lon="4.72449">
        <ele>173</ele>
        <time>2018-03-14T09:26:29Z</time>
      </trkpt>
      <trkpt lat="45.93401" lon="4.72442">
        <ele>173</ele>
        <time>2018-03-14T09:26:30Z</time>
      </trkpt>
      <trkpt lat="45.93405" lon="4.72435">
        <ele>173</ele>
        <time>2018-03-14T09:26:31Z</time>
      </trkpt>
      <trkpt lat="45.93409" lon="4.72429">
        <ele>174</ele>
        <time>2018-03-14T09:26:32Z</time>
      </trkpt>
      <trkpt lat="45.93414" lon="4.72424">
        <ele>174</ele>
        <time>2018-03-14T09:26:33Z</time>
      </trkpt>
      <trkpt lat="45.93419" lon="4.72421">
        <ele>174</ele>
        <time>2018-03-14T09:26:34Z</time>
      </trkpt>
      <trkpt lat="45.93425" lon="4.72419">
        <ele>174</ele>
        <time>2018-03-14T09:26:35Z</time>
      </trkpt>
      <trkpt lat="45.93431" lon="4.72416">
        <ele>174</ele>
        <time>2018-03-14T09:26:36Z</time>
      </trkpt>
      <trkpt lat="45.93436" lon="4.72412">
        <ele>174</ele>
        <time>2018-03-14T09:26:37Z</time>
      </trkpt>
      <trkpt lat="45.93442" lon="4.72408">
        <ele>173</ele>
        <time>2018-03-14T09:26:38Z</time>
      </trkpt>
      <trkpt lat="45.93448" lon="4.72404">
        <ele>173</ele>
        <time>2018-03-14T09:26:39Z</time>
      </trkpt>
      <trkpt lat="45.93453" lon="4.72399">
        <ele>173</ele>
        <time>2018-03-14T09:26:40Z</time>
      </trkpt>
      <trkpt lat="45.93458" lon="4.72393">
        <ele>173</ele>
        <time>2018-03-14T09:26:41Z</time>
      </trkpt>
      <trkpt lat="45.93463" lon="4.72387">
        <ele>173</ele>
        <time>2018-03-14T09:26:42Z</time>
      </trkpt>
      <trkpt lat="45.93468" lon="4.72381">
        <ele>173</ele>
        <time>2018-03-14T09:26:43Z</time>
      </trkpt>
      <trkpt lat="45.93472" lon="4.72374">
        <ele>173</ele>
        <time>2018-03-14T09:26:44Z</time>
      </trkpt>
      <trkpt lat="45.93476" lon="4.72368">
        <ele>173</ele>
        <time>2018-03-14T09:26:45Z</time>
      </trkpt>
      <trkpt lat="45.93481" lon="4.72362">
        <ele>173</ele>
        <time>2018-03-14T09:26:46Z</time>
      </trkpt>
      <trkpt lat="45.93486" lon="4.72357">
        <ele>173</ele>
        <time>2018-03-14T09:26:47Z</time>
      </trkpt>
      <trkpt lat="45.93489" lon="4.7235">
        <ele>173</ele>
        <time>2018-03-14T09:26:48Z</time>
      </trkpt>
      <trkpt lat="45.93493" lon="4.72344">
        <ele>173</ele>
        <time>2018-03-14T09:26:49Z</time>
      </trkpt>
      <trkpt lat="45.93499" lon="4.72338">
        <ele>173</ele>
        <time>2018-03-14T09:26:50Z</time>
      </trkpt>
      <trkpt lat="45.93503" lon="4.72332">
        <ele>173</ele>
        <time>2018-03-14T09:26:51Z</time>
      </trkpt>
      <trkpt lat="45.93508" lon="4.72327">
        <ele>173</ele>
        <time>2018-03-14T09:26:52Z</time>
      </trkpt>
      <trkpt lat="45.93512" lon="4.7232">
        <ele>173</ele>
        <time>2018-03-14T09:26:53Z</time>
      </trkpt>
      <trkpt lat="45.93516" lon="4.72314">
        <ele>173</ele>
        <time>2018-03-14T09:26:54Z</time>
      </trkpt>
      <trkpt lat="45.9352" lon="4.72308">
        <ele>173</ele>
        <time>2018-03-14T09:26:55Z</time>
      </trkpt>
      <trkpt lat="45.93523" lon="4.72301">
        <ele>172</ele>
        <time>2018-03-14T09:26:56Z</time>
      </trkpt>
      <trkpt lat="45.93526" lon="4.72293">
        <ele>172</ele>
        <time>2018-03-14T09:26:57Z</time>
      </trkpt>
      <trkpt lat="45.9353" lon="4.72286">
        <ele>172</ele>
        <time>2018-03-14T09:26:58Z</time>
      </trkpt>
      <trkpt lat="45.93532" lon="4.7228">
        <ele>172</ele>
        <time>2018-03-14T09:26:59Z</time>
      </trkpt>
      <trkpt lat="45.93533" lon="4.72273">
        <ele>172</ele>
        <time>2018-03-14T09:27:00Z</time>
      </trkpt>
      <trkpt lat="45.93537" lon="4.72266">
        <ele>172</ele>
        <time>2018-03-14T09:27:01Z</time>
      </trkpt>
      <trkpt lat="45.93539" lon="4.7226">
        <ele>172</ele>
        <time>2018-03-14T09:27:02Z</time>
      </trkpt>
      <trkpt lat="45.93542" lon="4.72253">
        <ele>172</ele>
        <time>2018-03-14T09:27:03Z</time>
      </trkpt>
      <trkpt lat="45.93546" lon="4.72244">
        <ele>172</ele>
        <time>2018-03-14T09:27:04Z</time>
      </trkpt>
      <trkpt lat="45.9355" lon="4.72238">
        <ele>172</ele>
        <time>2018-03-14T09:27:05Z</time>
      </trkpt>
      <trkpt lat="45.93554" lon="4.72232">
        <ele>173</ele>
        <time>2018-03-14T09:27:06Z</time>
      </trkpt>
      <trkpt lat="45.93558" lon="4.72225">
        <ele>173</ele>
        <time>2018-03-14T09:27:07Z</time>
      </trkpt>
      <trkpt lat="45.93564" lon="4.72218">
        <ele>173</ele>
        <time>2018-03-14T09:27:08Z</time>
      </trkpt>
      <trkpt lat="45.93569" lon="4.72212">
        <ele>173</ele>
        <time>2018-03-14T09:27:09Z</time>
      </trkpt>
      <trkpt lat="45.93574" lon="4.72207">
        <ele>173</ele>
        <time>2018-03-14T09:27:10Z</time>
      </trkpt>
      <trkpt lat="45.9358" lon="4.72201">
        <ele>173</ele>
        <time>2018-03-14T09:27:11Z</time>
      </trkpt>
      <trkpt lat="45.93585" lon="4.72195">
        <ele>173</ele>
        <time>2018-03-14T09:27:12Z</time>
      </trkpt>
      <trkpt lat="45.93591" lon="4.72193">
        <ele>173</ele>
        <time>2018-03-14T09:27:13Z</time>
      </trkpt>
      <trkpt lat="45.93596" lon="4.72189">
        <ele>173</ele>
        <time>2018-03-14T09:27:14Z</time>
      </trkpt>
      <trkpt lat="45.93603" lon="4.72184">
        <ele>173</ele>
        <time>2018-03-14T09:27:15Z</time>
      </trkpt>
      <trkpt lat="45.93608" lon="4.7218">
        <ele>173</ele>
        <time>2018-03-14T09:27:16Z</time>
      </trkpt>
      <trkpt lat="45.93613" lon="4.72174">
        <ele>173</ele>
        <time>2018-03-14T09:27:17Z</time>
      </trkpt>
      <trkpt lat="45.93619" lon="4.72166">
        <ele>173</ele>
        <time>2018-03-14T09:27:18Z</time>
      </trkpt>
      <trkpt lat="45.93622" lon="4.72165">
        <ele>173</ele>
        <time>2018-03-14T09:27:19Z</time>
      </trkpt>
      <trkpt lat="45.93628" lon="4.72154">
        <ele>173</ele>
        <time>2018-03-14T09:27:20Z</time>
      </trkpt>
      <trkpt lat="45.93632" lon="4.72148">
        <ele>173</ele>
        <time>2018-03-14T09:27:21Z</time>
      </trkpt>
      <trkpt lat="45.93637" lon="4.7214">
        <ele>173</ele>
        <time>2018-03-14T09:27:22Z</time>
      </trkpt>
      <trkpt lat="45.93642" lon="4.72133">
        <ele>173</ele>
        <time>2018-03-14T09:27:24Z</time>
      </trkpt>
      <trkpt lat="45.93646" lon="4.72125">
        <ele>173</ele>
        <time>2018-03-14T09:27:25Z</time>
      </trkpt>
      <trkpt lat="45.93649" lon="4.72119">
        <ele>173</ele>
        <time>2018-03-14T09:27:26Z</time>
      </trkpt>
      <trkpt lat="45.93652" lon="4.72113">
        <ele>173</ele>
        <time>2018-03-14T09:27:27Z</time>
      </trkpt>
      <trkpt lat="45.93655" lon="4.72108">
        <ele>173</ele>
        <time>2018-03-14T09:27:28Z</time>
      </trkpt>
      <trkpt lat="45.93659" lon="4.72101">
        <ele>173</ele>
        <time>2018-03-14T09:27:29Z</time>
      </trkpt>
      <trkpt lat="45.93663" lon="4.72094">
        <ele>172</ele>
        <time>2018-03-14T09:27:30Z</time>
      </trkpt>
      <trkpt lat="45.93667" lon="4.72087">
        <ele>172</ele>
        <time>2018-03-14T09:27:31Z</time>
      </trkpt>
      <trkpt lat="45.93672" lon="4.72078">
        <ele>172</ele>
        <time>2018-03-14T09:27:32Z</time>
      </trkpt>
      <trkpt lat="45.93676" lon="4.72071">
        <ele>172</ele>
        <time>2018-03-14T09:27:33Z</time>
      </trkpt>
      <trkpt lat="45.9368" lon="4.72065">
        <ele>172</ele>
        <time>2018-03-14T09:27:34Z</time>
      </trkpt>
      <trkpt lat="45.93683" lon="4.72058">
        <ele>172</ele>
        <time>2018-03-14T09:27:35Z</time>
      </trkpt>
      <trkpt lat="45.93688" lon="4.72051">
        <ele>172</ele>
        <time>2018-03-14T09:27:36Z</time>
      </trkpt>
      <trkpt lat="45.93692" lon="4.72045">
        <ele>172</ele>
        <time>2018-03-14T09:27:37Z</time>
      </trkpt>
      <trkpt lat="45.93696" lon="4.72039">
        <ele>172</ele>
        <time>2018-03-14T09:27:38Z</time>
      </trkpt>
      <trkpt lat="45.937" lon="4.72031">
        <ele>172</ele>
        <time>2018-03-14T09:27:39Z</time>
      </trkpt>
      <trkpt lat="45.93705" lon="4.72024">
        <ele>172</ele>
        <time>2018-03-14T09:27:40Z</time>
      </trkpt>
      <trkpt lat="45.93708" lon="4.72018">
        <ele>172</ele>
        <time>2018-03-14T09:27:41Z</time>
      </trkpt>
      <trkpt lat="45.93711" lon="4.72012">
        <ele>172</ele>
        <time>2018-03-14T09:27:42Z</time>
      </trkpt>
      <trkpt lat="45.93716" lon="4.72003">
        <ele>172</ele>
        <time>2018-03-14T09:27:43Z</time>
      </trkpt>
      <trkpt lat="45.93719" lon="4.71997">
        <ele>172</ele>
        <time>2018-03-14T09:27:44Z</time>
      </trkpt>
      <trkpt lat="45.93723" lon="4.7199">
        <ele>172</ele>
        <time>2018-03-14T09:27:45Z</time>
      </trkpt>
      <trkpt lat="45.93726" lon="4.71984">
        <ele>172</ele>
        <time>2018-03-14T09:27:46Z</time>
      </trkpt>
      <trkpt lat="45.93731" lon="4.71978">
        <ele>172</ele>
        <time>2018-03-14T09:27:47Z</time>
      </trkpt>
      <trkpt lat="45.93738" lon="4.71971">
        <ele>172</ele>
        <time>2018-03-14T09:27:48Z</time>
      </trkpt>
      <trkpt lat="45.93742" lon="4.7197">
        <ele>172</ele>
        <time>2018-03-14T09:27:49Z</time>
      </trkpt>
      <trkpt lat="45.9375" lon="4.71965">
        <ele>172</ele>
        <time>2018-03-14T09:27:51Z</time>
      </trkpt>
      <trkpt lat="45.93751" lon="4.71963">
        <ele>171</ele>
        <time>2018-03-14T09:27:52Z</time>
      </trkpt>
      <trkpt lat="45.93755" lon="4.71958">
        <ele>171</ele>
        <time>2018-03-14T09:27:53Z</time>
      </trkpt>
      <trkpt lat="45.93758" lon="4.71955">
        <ele>171</ele>
        <time>2018-03-14T09:27:54Z</time>
      </trkpt>
      <trkpt lat="45.93765" lon="4.71946">
        <ele>171</ele>
        <time>2018-03-14T09:27:56Z</time>
      </trkpt>
      <trkpt lat="45.93767" lon="4.71942">
        <ele>171</ele>
        <time>2018-03-14T09:27:57Z</time>
      </trkpt>
      <trkpt lat="45.93772" lon="4.71933">
        <ele>171</ele>
        <time>2018-03-14T09:27:59Z</time>
      </trkpt>
      <trkpt lat="45.93776" lon="4.71927">
        <ele>171</ele>
        <time>2018-03-14T09:28:00Z</time>
      </trkpt>
      <trkpt lat="45.93778" lon="4.7192">
        <ele>171</ele>
        <time>2018-03-14T09:28:01Z</time>
      </trkpt>
      <trkpt lat="45.93779" lon="4.71913">
        <ele>172</ele>
        <time>2018-03-14T09:28:02Z</time>
      </trkpt>
      <trkpt lat="45.93779" lon="4.71903">
        <ele>172</ele>
        <time>2018-03-14T09:28:04Z</time>
      </trkpt>
      <trkpt lat="45.93779" lon="4.71897">
        <ele>172</ele>
        <time>2018-03-14T09:28:05Z</time>
      </trkpt>
      <trkpt lat="45.9378" lon="4.71889">
        <ele>172</ele>
        <time>2018-03-14T09:28:06Z</time>
      </trkpt>
      <trkpt lat="45.93785" lon="4.71881">
        <ele>172</ele>
        <time>2018-03-14T09:28:07Z</time>
      </trkpt>
      <trkpt lat="45.9379" lon="4.71874">
        <ele>172</ele>
        <time>2018-03-14T09:28:08Z</time>
      </trkpt>
      <trkpt lat="45.93794" lon="4.71868">
        <ele>172</ele>
        <time>2018-03-14T09:28:09Z</time>
      </trkpt>
      <trkpt lat="45.93798" lon="4.7186">
        <ele>172</ele>
        <time>2018-03-14T09:28:10Z</time>
      </trkpt>
      <trkpt lat="45.93801" lon="4.71853">
        <ele>172</ele>
        <time>2018-03-14T09:28:11Z</time>
      </trkpt>
      <trkpt lat="45.93804" lon="4.71846">
        <ele>172</ele>
        <time>2018-03-14T09:28:12Z</time>
      </trkpt>
      <trkpt lat="45.93809" lon="4.71837">
        <ele>172</ele>
        <time>2018-03-14T09:28:13Z</time>
      </trkpt>
      <trkpt lat="45.93814" lon="4.71828">
        <ele>173</ele>
        <time>2018-03-14T09:28:14Z</time>
      </trkpt>
      <trkpt lat="45.93819" lon="4.7182">
        <ele>173</ele>
        <time>2018-03-14T09:28:15Z</time>
      </trkpt>
      <trkpt lat="45.93821" lon="4.71815">
        <ele>173</ele>
        <time>2018-03-14T09:28:16Z</time>
      </trkpt>
      <trkpt lat="45.93825" lon="4.71809">
        <ele>173</ele>
        <time>2018-03-14T09:28:17Z</time>
      </trkpt>
      <trkpt lat="45.93829" lon="4.71802">
        <ele>174</ele>
        <time>2018-03-14T09:28:18Z</time>
      </trkpt>
      <trkpt lat="45.93834" lon="4.71794">
        <ele>173</ele>
        <time>2018-03-14T09:28:19Z</time>
      </trkpt>
      <trkpt lat="45.93838" lon="4.71789">
        <ele>173</ele>
        <time>2018-03-14T09:28:20Z</time>
      </trkpt>
      <trkpt lat="45.93843" lon="4.71783">
        <ele>173</ele>
        <time>2018-03-14T09:28:21Z</time>
      </trkpt>
      <trkpt lat="45.93847" lon="4.71777">
        <ele>173</ele>
        <time>2018-03-14T09:28:22Z</time>
      </trkpt>
      <trkpt lat="45.93851" lon="4.71771">
        <ele>173</ele>
        <time>2018-03-14T09:28:23Z</time>
      </trkpt>
      <trkpt lat="45.93856" lon="4.71765">
        <ele>173</ele>
        <time>2018-03-14T09:28:24Z</time>
      </trkpt>
      <trkpt lat="45.93859" lon="4.7176">
        <ele>173</ele>
        <time>2018-03-14T09:28:25Z</time>
      </trkpt>
      <trkpt lat="45.93864" lon="4.71754">
        <ele>173</ele>
        <time>2018-03-14T09:28:26Z</time>
      </trkpt>
      <trkpt lat="45.93869" lon="4.71749">
        <ele>174</ele>
        <time>2018-03-14T09:28:27Z</time>
      </trkpt>
      <trkpt lat="45.93874" lon="4.71744">
        <ele>174</ele>
        <time>2018-03-14T09:28:28Z</time>
      </trkpt>
      <trkpt lat="45.9388" lon="4.71739">
        <ele>174</ele>
        <time>2018-03-14T09:28:29Z</time>
      </trkpt>
      <trkpt lat="45.93884" lon="4.71734">
        <ele>174</ele>
        <time>2018-03-14T09:28:30Z</time>
      </trkpt>
      <trkpt lat="45.93889" lon="4.7173">
        <ele>174</ele>
        <time>2018-03-14T09:28:31Z</time>
      </trkpt>
      <trkpt lat="45.93894" lon="4.71726">
        <ele>174</ele>
        <time>2018-03-14T09:28:32Z</time>
      </trkpt>
      <trkpt lat="45.93898" lon="4.71721">
        <ele>174</ele>
        <time>2018-03-14T09:28:33Z</time>
      </trkpt>
      <trkpt lat="45.93902" lon="4.71715">
        <ele>174</ele>
        <time>2018-03-14T09:28:34Z</time>
      </trkpt>
      <trkpt lat="45.93906" lon="4.7171">
        <ele>174</ele>
        <time>2018-03-14T09:28:35Z</time>
      </trkpt>
      <trkpt lat="45.93912" lon="4.71707">
        <ele>174</ele>
        <time>2018-03-14T09:28:36Z</time>
      </trkpt>
      <trkpt lat="45.93918" lon="4.71704">
        <ele>174</ele>
        <time>2018-03-14T09:28:37Z</time>
      </trkpt>
      <trkpt lat="45.93922" lon="4.71702">
        <ele>174</ele>
        <time>2018-03-14T09:28:38Z</time>
      </trkpt>
      <trkpt lat="45.93928" lon="4.71698">
        <ele>174</ele>
        <time>2018-03-14T09:28:39Z</time>
      </trkpt>
      <trkpt lat="45.93934" lon="4.71696">
        <ele>174</ele>
        <time>2018-03-14T09:28:40Z</time>
      </trkpt>
      <trkpt lat="45.9394" lon="4.71693">
        <ele>175</ele>
        <time>2018-03-14T09:28:41Z</time>
      </trkpt>
      <trkpt lat="45.93947" lon="4.7169">
        <ele>175</ele>
        <time>2018-03-14T09:28:42Z</time>
      </trkpt>
      <trkpt lat="45.93952" lon="4.71688">
        <ele>175</ele>
        <time>2018-03-14T09:28:43Z</time>
      </trkpt>
      <trkpt lat="45.93957" lon="4.71685">
        <ele>175</ele>
        <time>2018-03-14T09:28:44Z</time>
      </trkpt>
      <trkpt lat="45.93962" lon="4.71682">
        <ele>175</ele>
        <time>2018-03-14T09:28:45Z</time>
      </trkpt>
      <trkpt lat="45.93968" lon="4.7168">
        <ele>175</ele>
        <time>2018-03-14T09:28:46Z</time>
      </trkpt>
      <trkpt lat="45.93974" lon="4.71677">
        <ele>175</ele>
        <time>2018-03-14T09:28:47Z</time>
      </trkpt>
      <trkpt lat="45.93979" lon="4.71675">
        <ele>176</ele>
        <time>2018-03-14T09:28:48Z</time>
      </trkpt>
      <trkpt lat="45.93984" lon="4.71674">
        <ele>176</ele>
        <time>2018-03-14T09:28:49Z</time>
      </trkpt>
      <trkpt lat="45.93993" lon="4.71677">
        <ele>176</ele>
        <time>2018-03-14T09:28:51Z</time>
      </trkpt>
      <trkpt lat="45.93996" lon="4.71681">
        <ele>176</ele>
        <time>2018-03-14T09:28:52Z</time>
      </trkpt>
      <trkpt lat="45.94" lon="4.71686">
        <ele>176</ele>
        <time>2018-03-14T09:28:53Z</time>
      </trkpt>
      <trkpt lat="45.94004" lon="4.71687">
        <ele>175</ele>
        <time>2018-03-14T09:28:54Z</time>
      </trkpt>
      <trkpt lat="45.94009" lon="4.71686">
        <ele>175</ele>
        <time>2018-03-14T09:28:55Z</time>
      </trkpt>
      <trkpt lat="45.94013" lon="4.71683">
        <ele>175</ele>
        <time>2018-03-14T09:28:56Z</time>
      </trkpt>
      <trkpt lat="45.94019" lon="4.71674">
        <ele>175</ele>
        <time>2018-03-14T09:28:58Z</time>
      </trkpt>
      <trkpt lat="45.94019" lon="4.71672">
        <ele>175</ele>
        <time>2018-03-14T09:28:59Z</time>
      </trkpt>
      <trkpt lat="45.94022" lon="4.71665">
        <ele>176</ele>
        <time>2018-03-14T09:29:00Z</time>
      </trkpt>
      <trkpt lat="45.94024" lon="4.71661">
        <ele>175</ele>
        <time>2018-03-14T09:29:01Z</time>
      </trkpt>
      <trkpt lat="45.94031" lon="4.71654">
        <ele>175</ele>
        <time>2018-03-14T09:29:03Z</time>
      </trkpt>
      <trkpt lat="45.94036" lon="4.71652">
        <ele>175</ele>
        <time>2018-03-14T09:29:04Z</time>
      </trkpt>
      <trkpt lat="45.94041" lon="4.71651">
        <ele>175</ele>
        <time>2018-03-14T09:29:05Z</time>
      </trkpt>
      <trkpt lat="45.94046" lon="4.7165">
        <ele>175</ele>
        <time>2018-03-14T09:29:06Z</time>
      </trkpt>
      <trkpt lat="45.94051" lon="4.71648">
        <ele>175</ele>
        <time>2018-03-14T09:29:07Z</time>
      </trkpt>
      <trkpt lat="45.94056" lon="4.71646">
        <ele>174</ele>
        <time>2018-03-14T09:29:08Z</time>
      </trkpt>
      <trkpt lat="45.94062" lon="4.71642">
        <ele>174</ele>
        <time>2018-03-14T09:29:09Z</time>
      </trkpt>
      <trkpt lat="45.94067" lon="4.7164">
        <ele>174</ele>
        <time>2018-03-14T09:29:10Z</time>
      </trkpt>
      <trkpt lat="45.94073" lon="4.71637">
        <ele>174</ele>
        <time>2018-03-14T09:29:11Z</time>
      </trkpt>
      <trkpt lat="45.94079" lon="4.71634">
        <ele>174</ele>
        <time>2018-03-14T09:29:12Z</time>
      </trkpt>
      <trkpt lat="45.94084" lon="4.71632">
        <ele>173</ele>
        <time>2018-03-14T09:29:13Z</time>
      </trkpt>
      <trkpt lat="45.9409" lon="4.71631">
        <ele>173</ele>
        <time>2018-03-14T09:29:14Z</time>
      </trkpt>
      <trkpt lat="45.94096" lon="4.71629">
        <ele>173</ele>
        <time>2018-03-14T09:29:15Z</time>
      </trkpt>
      <trkpt lat="45.94102" lon="4.71627">
        <ele>173</ele>
        <time>2018-03-14T09:29:16Z</time>
      </trkpt>
      <trkpt lat="45.94107" lon="4.71625">
        <ele>173</ele>
        <time>2018-03-14T09:29:17Z</time>
      </trkpt>
      <trkpt lat="45.94113" lon="4.71623">
        <ele>173</ele>
        <time>2018-03-14T09:29:18Z</time>
      </trkpt>
      <trkpt lat="45.94119" lon="4.71621">
        <ele>173</ele>
        <time>2018-03-14T09:29:19Z</time>
      </trkpt>
      <trkpt lat="45.94126" lon="4.71619">
        <ele>173</ele>
        <time>2018-03-14T09:29:20Z</time>
      </trkpt>
      <trkpt lat="45.94131" lon="4.71618">
        <ele>173</ele>
        <time>2018-03-14T09:29:21Z</time>
      </trkpt>
      <trkpt lat="45.94137" lon="4.71616">
        <ele>173</ele>
        <time>2018-03-14T09:29:22Z</time>
      </trkpt>
      <trkpt lat="45.94143" lon="4.71613">
        <ele>173</ele>
        <time>2018-03-14T09:29:23Z</time>
      </trkpt>
      <trkpt lat="45.94148" lon="4.71611">
        <ele>173</ele>
        <time>2018-03-14T09:29:24Z</time>
      </trkpt>
      <trkpt lat="45.94153" lon="4.71609">
        <ele>173</ele>
        <time>2018-03-14T09:29:25Z</time>
      </trkpt>
      <trkpt lat="45.94158" lon="4.71607">
        <ele>173</ele>
        <time>2018-03-14T09:29:26Z</time>
      </trkpt>
      <trkpt lat="45.94164" lon="4.71603">
        <ele>173</ele>
        <time>2018-03-14T09:29:27Z</time>
      </trkpt>
      <trkpt lat="45.9417" lon="4.71601">
        <ele>173</ele>
        <time>2018-03-14T09:29:28Z</time>
      </trkpt>
      <trkpt lat="45.94176" lon="4.71599">
        <ele>173</ele>
        <time>2018-03-14T09:29:29Z</time>
      </trkpt>
      <trkpt lat="45.94182" lon="4.71597">
        <ele>173</ele>
        <time>2018-03-14T09:29:30Z</time>
      </trkpt>
      <trkpt lat="45.94187" lon="4.71594">
        <ele>173</ele>
        <time>2018-03-14T09:29:31Z</time>
      </trkpt>
      <trkpt lat="45.94193" lon="4.71592">
        <ele>173</ele>
        <time>2018-03-14T09:29:32Z</time>
      </trkpt>
      <trkpt lat="45.94199" lon="4.71589">
        <ele>173</ele>
        <time>2018-03-14T09:29:33Z</time>
      </trkpt>
      <trkpt lat="45.94205" lon="4.71587">
        <ele>173</ele>
        <time>2018-03-14T09:29:34Z</time>
      </trkpt>
      <trkpt lat="45.94211" lon="4.71585">
        <ele>173</ele>
        <time>2018-03-14T09:29:35Z</time>
      </trkpt>
      <trkpt lat="45.94216" lon="4.71584">
        <ele>173</ele>
        <time>2018-03-14T09:29:36Z</time>
      </trkpt>
      <trkpt lat="45.94221" lon="4.71581">
        <ele>174</ele>
        <time>2018-03-14T09:29:37Z</time>
      </trkpt>
      <trkpt lat="45.94225" lon="4.7158">
        <ele>174</ele>
        <time>2018-03-14T09:29:38Z</time>
      </trkpt>
      <trkpt lat="45.94231" lon="4.71578">
        <ele>174</ele>
        <time>2018-03-14T09:29:39Z</time>
      </trkpt>
      <trkpt lat="45.94237" lon="4.71574">
        <ele>174</ele>
        <time>2018-03-14T09:29:40Z</time>
      </trkpt>
      <trkpt lat="45.94242" lon="4.71573">
        <ele>174</ele>
        <time>2018-03-14T09:29:41Z</time>
      </trkpt>
      <trkpt lat="45.94247" lon="4.7157">
        <ele>174</ele>
        <time>2018-03-14T09:29:42Z</time>
      </trkpt>
      <trkpt lat="45.94254" lon="4.71568">
        <ele>175</ele>
        <time>2018-03-14T09:29:43Z</time>
      </trkpt>
      <trkpt lat="45.94259" lon="4.71565">
        <ele>175</ele>
        <time>2018-03-14T09:29:44Z</time>
      </trkpt>
      <trkpt lat="45.94264" lon="4.71563">
        <ele>175</ele>
        <time>2018-03-14T09:29:45Z</time>
      </trkpt>
      <trkpt lat="45.9427" lon="4.71561">
        <ele>175</ele>
        <time>2018-03-14T09:29:46Z</time>
      </trkpt>
      <trkpt lat="45.94274" lon="4.7156">
        <ele>175</ele>
        <time>2018-03-14T09:29:47Z</time>
      </trkpt>
      <trkpt lat="45.94279" lon="4.71558">
        <ele>175</ele>
        <time>2018-03-14T09:29:48Z</time>
      </trkpt>
      <trkpt lat="45.94284" lon="4.71557">
        <ele>175</ele>
        <time>2018-03-14T09:29:49Z</time>
      </trkpt>
      <trkpt lat="45.9429" lon="4.71555">
        <ele>175</ele>
        <time>2018-03-14T09:29:50Z</time>
      </trkpt>
      <trkpt lat="45.94295" lon="4.71553">
        <ele>175</ele>
        <time>2018-03-14T09:29:51Z</time>
      </trkpt>
      <trkpt lat="45.943" lon="4.71551">
        <ele>175</ele>
        <time>2018-03-14T09:29:52Z</time>
      </trkpt>
      <trkpt lat="45.94305" lon="4.71548">
        <ele>175</ele>
        <time>2018-03-14T09:29:53Z</time>
      </trkpt>
      <trkpt lat="45.9431" lon="4.71546">
        <ele>175</ele>
        <time>2018-03-14T09:29:54Z</time>
      </trkpt>
      <trkpt lat="45.94315" lon="4.71543">
        <ele>175</ele>
        <time>2018-03-14T09:29:55Z</time>
      </trkpt>
      <trkpt lat="45.9432" lon="4.71542">
        <ele>175</ele>
        <time>2018-03-14T09:29:56Z</time>
      </trkpt>
      <trkpt lat="45.94325" lon="4.7154">
        <ele>176</ele>
        <time>2018-03-14T09:29:57Z</time>
      </trkpt>
      <trkpt lat="45.9433" lon="4.71538">
        <ele>176</ele>
        <time>2018-03-14T09:29:58Z</time>
      </trkpt>
      <trkpt lat="45.94334" lon="4.71536">
        <ele>176</ele>
        <time>2018-03-14T09:29:59Z</time>
      </trkpt>
      <trkpt lat="45.94339" lon="4.71534">
        <ele>176</ele>
        <time>2018-03-14T09:30:00Z</time>
      </trkpt>
      <trkpt lat="45.94344" lon="4.71533">
        <ele>176</ele>
        <time>2018-03-14T09:30:01Z</time>
      </trkpt>
      <trkpt lat="45.9435" lon="4.7153">
        <ele>176</ele>
        <time>2018-03-14T09:30:02Z</time>
      </trkpt>
      <trkpt lat="45.94356" lon="4.71527">
        <ele>176</ele>
        <time>2018-03-14T09:30:03Z</time>
      </trkpt>
      <trkpt lat="45.94361" lon="4.71525">
        <ele>176</ele>
        <time>2018-03-14T09:30:04Z</time>
      </trkpt>
      <trkpt lat="45.94366" lon="4.71523">
        <ele>176</ele>
        <time>2018-03-14T09:30:05Z</time>
      </trkpt>
      <trkpt lat="45.94371" lon="4.71521">
        <ele>176</ele>
        <time>2018-03-14T09:30:06Z</time>
      </trkpt>
      <trkpt lat="45.94376" lon="4.7152">
        <ele>176</ele>
        <time>2018-03-14T09:30:07Z</time>
      </trkpt>
      <trkpt lat="45.94381" lon="4.71519">
        <ele>177</ele>
        <time>2018-03-14T09:30:08Z</time>
      </trkpt>
      <trkpt lat="45.94386" lon="4.71517">
        <ele>177</ele>
        <time>2018-03-14T09:30:09Z</time>
      </trkpt>
      <trkpt lat="45.94391" lon="4.71515">
        <ele>177</ele>
        <time>2018-03-14T09:30:10Z</time>
      </trkpt>
      <trkpt lat="45.94396" lon="4.71513">
        <ele>177</ele>
        <time>2018-03-14T09:30:11Z</time>
      </trkpt>
      <trkpt lat="45.94401" lon="4.71512">
        <ele>177</ele>
        <time>2018-03-14T09:30:12Z</time>
      </trkpt>
      <trkpt lat="45.94406" lon="4.7151">
        <ele>177</ele>
        <time>2018-03-14T09:30:13Z</time>
      </trkpt>
      <trkpt lat="45.94411" lon="4.71508">
        <ele>177</ele>
        <time>2018-03-14T09:30:14Z</time>
      </trkpt>
      <trkpt lat="45.94415" lon="4.71508">
        <ele>177</ele>
        <time>2018-03-14T09:30:15Z</time>
      </trkpt>
      <trkpt lat="45.94419" lon="4.71506">
        <ele>178</ele>
        <time>2018-03-14T09:30:16Z</time>
      </trkpt>
      <trkpt lat="45.94424" lon="4.71505">
        <ele>177</ele>
        <time>2018-03-14T09:30:17Z</time>
      </trkpt>
      <trkpt lat="45.94429" lon="4.71503">
        <ele>177</ele>
        <time>2018-03-14T09:30:18Z</time>
      </trkpt>
      <trkpt lat="45.94436" lon="4.715">
        <ele>177</ele>
        <time>2018-03-14T09:30:21Z</time>
      </trkpt>
      <trkpt lat="45.94438" lon="4.71499">
        <ele>178</ele>
        <time>2018-03-14T09:30:22Z</time>
      </trkpt>
      <trkpt lat="45.94445" lon="4.71492">
        <ele>179</ele>
        <time>2018-03-14T09:30:39Z</time>
      </trkpt>
      <trkpt lat="45.94447" lon="4.71491">
        <ele>179</ele>
        <time>2018-03-14T09:30:40Z</time>
      </trkpt>
      <trkpt lat="45.94454" lon="4.71488">
        <ele>179</ele>
        <time>2018-03-14T09:30:44Z</time>
      </trkpt>
      <trkpt lat="45.94457" lon="4.71487">
        <ele>179</ele>
        <time>2018-03-14T09:30:45Z</time>
      </trkpt>
      <trkpt lat="45.94464" lon="4.71484">
        <ele>179</ele>
        <time>2018-03-14T09:30:48Z</time>
      </trkpt>
      <trkpt lat="45.94467" lon="4.71483">
        <ele>179</ele>
        <time>2018-03-14T09:30:49Z</time>
      </trkpt>
      <trkpt lat="45.94473" lon="4.71481">
        <ele>179</ele>
        <time>2018-03-14T09:30:51Z</time>
      </trkpt>
      <trkpt lat="45.94476" lon="4.7148">
        <ele>179</ele>
        <time>2018-03-14T09:30:52Z</time>
      </trkpt>
      <trkpt lat="45.94482" lon="4.71478">
        <ele>179</ele>
        <time>2018-03-14T09:30:54Z</time>
      </trkpt>
      <trkpt lat="45.94491" lon="4.71474">
        <ele>179</ele>
        <time>2018-03-14T09:30:55Z</time>
      </trkpt>
      <trkpt lat="45.94497" lon="4.71471">
        <ele>179</ele>
        <time>2018-03-14T09:30:58Z</time>
      </trkpt>
      <trkpt lat="45.94499" lon="4.7147">
        <ele>179</ele>
        <time>2018-03-14T09:30:59Z</time>
      </trkpt>
      <trkpt lat="45.94505" lon="4.71468">
        <ele>179</ele>
        <time>2018-03-14T09:31:01Z</time>
      </trkpt>
      <trkpt lat="45.94514" lon="4.71464">
        <ele>180</ele>
        <time>2018-03-14T09:31:02Z</time>
      </trkpt>
      <trkpt lat="45.94521" lon="4.7146">
        <ele>180</ele>
        <time>2018-03-14T09:31:05Z</time>
      </trkpt>
      <trkpt lat="45.94527" lon="4.71457">
        <ele>180</ele>
        <time>2018-03-14T09:31:06Z</time>
      </trkpt>
      <trkpt lat="45.94535" lon="4.71453">
        <ele>180</ele>
        <time>2018-03-14T09:31:08Z</time>
      </trkpt>
      <trkpt lat="45.94539" lon="4.71451">
        <ele>180</ele>
        <time>2018-03-14T09:31:09Z</time>
      </trkpt>
      <trkpt lat="45.94547" lon="4.71448">
        <ele>180</ele>
        <time>2018-03-14T09:31:11Z</time>
      </trkpt>
      <trkpt lat="45.94552" lon="4.71447">
        <ele>181</ele>
        <time>2018-03-14T09:31:12Z</time>
      </trkpt>
      <trkpt lat="45.9456" lon="4.71445">
        <ele>181</ele>
        <time>2018-03-14T09:31:14Z</time>
      </trkpt>
      <trkpt lat="45.94564" lon="4.71444">
        <ele>181</ele>
        <time>2018-03-14T09:31:15Z</time>
      </trkpt>
      <trkpt lat="45.94572" lon="4.71444">
        <ele>181</ele>
        <time>2018-03-14T09:31:17Z</time>
      </trkpt>
      <trkpt lat="45.94576" lon="4.71444">
        <ele>181</ele>
        <time>2018-03-14T09:31:18Z</time>
      </trkpt>
      <trkpt lat="45.94584" lon="4.71444">
        <ele>182</ele>
        <time>2018-03-14T09:31:20Z</time>
      </trkpt>
      <trkpt lat="45.94588" lon="4.71444">
        <ele>182</ele>
        <time>2018-03-14T09:31:21Z</time>
      </trkpt>
      <trkpt lat="45.94597" lon="4.71444">
        <ele>182</ele>
        <time>2018-03-14T09:31:23Z</time>
      </trkpt>
      <trkpt lat="45.94601" lon="4.71445">
        <ele>181</ele>
        <time>2018-03-14T09:31:24Z</time>
      </trkpt>
      <trkpt lat="45.94609" lon="4.71446">
        <ele>181</ele>
        <time>2018-03-14T09:31:26Z</time>
      </trkpt>
      <trkpt lat="45.94614" lon="4.71446">
        <ele>181</ele>
        <time>2018-03-14T09:31:27Z</time>
      </trkpt>
      <trkpt lat="45.94618" lon="4.71447">
        <ele>181</ele>
        <time>2018-03-14T09:31:28Z</time>
      </trkpt>
      <trkpt lat="45.94623" lon="4.71447">
        <ele>181</ele>
        <time>2018-03-14T09:31:29Z</time>
      </trkpt>
      <trkpt lat="45.94628" lon="4.71448">
        <ele>181</ele>
        <time>2018-03-14T09:31:30Z</time>
      </trkpt>
      <trkpt lat="45.94633" lon="4.71449">
        <ele>181</ele>
        <time>2018-03-14T09:31:31Z</time>
      </trkpt>
      <trkpt lat="45.94638" lon="4.7145">
        <ele>181</ele>
        <time>2018-03-14T09:31:32Z</time>
      </trkpt>
      <trkpt lat="45.94642" lon="4.71449">
        <ele>181</ele>
        <time>2018-03-14T09:31:33Z</time>
      </trkpt>
      <trkpt lat="45.94648" lon="4.71449">
        <ele>181</ele>
        <time>2018-03-14T09:31:34Z</time>
      </trkpt>
      <trkpt lat="45.94653" lon="4.71449">
        <ele>181</ele>
        <time>2018-03-14T09:31:35Z</time>
      </trkpt>
      <trkpt lat="45.94657" lon="4.7145">
        <ele>181</ele>
        <time>2018-03-14T09:31:36Z</time>
      </trkpt>
      <trkpt lat="45.94662" lon="4.71451">
        <ele>181</ele>
        <time>2018-03-14T09:31:37Z</time>
      </trkpt>
      <trkpt lat="45.94667" lon="4.71451">
        <ele>182</ele>
        <time>2018-03-14T09:31:38Z</time>
      </trkpt>
      <trkpt lat="45.94672" lon="4.71453">
        <ele>181</ele>
        <time>2018-03-14T09:31:39Z</time>
      </trkpt>
      <trkpt lat="45.94677" lon="4.71453">
        <ele>181</ele>
        <time>2018-03-14T09:31:40Z</time>
      </trkpt>
      <trkpt lat="45.94682" lon="4.71454">
        <ele>181</ele>
        <time>2018-03-14T09:31:41Z</time>
      </trkpt>
      <trkpt lat="45.94687" lon="4.71455">
        <ele>181</ele>
        <time>2018-03-14T09:31:42Z</time>
      </trkpt>
      <trkpt lat="45.94692" lon="4.71454">
        <ele>181</ele>
        <time>2018-03-14T09:31:43Z</time>
      </trkpt>
      <trkpt lat="45.94697" lon="4.71454">
        <ele>182</ele>
        <time>2018-03-14T09:31:44Z</time>
      </trkpt>
      <trkpt lat="45.94702" lon="4.71455">
        <ele>182</ele>
        <time>2018-03-14T09:31:45Z</time>
      </trkpt>
      <trkpt lat="45.94707" lon="4.71456">
        <ele>182</ele>
        <time>2018-03-14T09:31:46Z</time>
      </trkpt>
      <trkpt lat="45.94712" lon="4.71456">
        <ele>182</ele>
        <time>2018-03-14T09:31:47Z</time>
      </trkpt>
      <trkpt lat="45.94716" lon="4.71456">
        <ele>182</ele>
        <time>2018-03-14T09:31:48Z</time>
      </trkpt>
      <trkpt lat="45.94722" lon="4.71455">
        <ele>182</ele>
        <time>2018-03-14T09:31:49Z</time>
      </trkpt>
      <trkpt lat="45.94726" lon="4.71456">
        <ele>182</ele>
        <time>2018-03-14T09:31:50Z</time>
      </trkpt>
      <trkpt lat="45.94731" lon="4.71456">
        <ele>182</ele>
        <time>2018-03-14T09:31:51Z</time>
      </trkpt>
      <trkpt lat="45.94737" lon="4.71456">
        <ele>182</ele>
        <time>2018-03-14T09:31:52Z</time>
      </trkpt>
      <trkpt lat="45.94742" lon="4.71457">
        <ele>182</ele>
        <time>2018-03-14T09:31:53Z</time>
      </trkpt>
      <trkpt lat="45.94748" lon="4.71457">
        <ele>182</ele>
        <time>2018-03-14T09:31:54Z</time>
      </trkpt>
      <trkpt lat="45.94753" lon="4.71457">
        <ele>183</ele>
        <time>2018-03-14T09:31:55Z</time>
      </trkpt>
      <trkpt lat="45.94758" lon="4.71458">
        <ele>183</ele>
        <time>2018-03-14T09:31:56Z</time>
      </trkpt>
      <trkpt lat="45.94764" lon="4.71459">
        <ele>183</ele>
        <time>2018-03-14T09:31:57Z</time>
      </trkpt>
      <trkpt lat="45.94771" lon="4.7146">
        <ele>183</ele>
        <time>2018-03-14T09:31:58Z</time>
      </trkpt>
      <trkpt lat="45.94777" lon="4.7146">
        <ele>183</ele>
        <time>2018-03-14T09:31:59Z</time>
      </trkpt>
      <trkpt lat="45.94783" lon="4.7146">
        <ele>183</ele>
        <time>2018-03-14T09:32:00Z</time>
      </trkpt>
      <trkpt lat="45.94789" lon="4.71461">
        <ele>183</ele>
        <time>2018-03-14T09:32:01Z</time>
      </trkpt>
      <trkpt lat="45.94796" lon="4.71462">
        <ele>183</ele>
        <time>2018-03-14T09:32:02Z</time>
      </trkpt>
      <trkpt lat="45.94801" lon="4.71463">
        <ele>183</ele>
        <time>2018-03-14T09:32:03Z</time>
      </trkpt>
      <trkpt lat="45.94808" lon="4.71464">
        <ele>183</ele>
        <time>2018-03-14T09:32:04Z</time>
      </trkpt>
      <trkpt lat="45.94814" lon="4.71463">
        <ele>183</ele>
        <time>2018-03-14T09:32:05Z</time>
      </trkpt>
      <trkpt lat="45.9482" lon="4.71463">
        <ele>183</ele>
        <time>2018-03-14T09:32:06Z</time>
      </trkpt>
      <trkpt lat="45.94826" lon="4.71463">
        <ele>183</ele>
        <time>2018-03-14T09:32:07Z</time>
      </trkpt>
      <trkpt lat="45.94833" lon="4.71464">
        <ele>183</ele>
        <time>2018-03-14T09:32:08Z</time>
      </trkpt>
      <trkpt lat="45.9484" lon="4.71465">
        <ele>183</ele>
        <time>2018-03-14T09:32:09Z</time>
      </trkpt>
      <trkpt lat="45.94846" lon="4.71467">
        <ele>183</ele>
        <time>2018-03-14T09:32:10Z</time>
      </trkpt>
      <trkpt lat="45.94852" lon="4.71467">
        <ele>183</ele>
        <time>2018-03-14T09:32:11Z</time>
      </trkpt>
      <trkpt lat="45.94857" lon="4.71468">
        <ele>183</ele>
        <time>2018-03-14T09:32:12Z</time>
      </trkpt>
      <trkpt lat="45.94864" lon="4.71469">
        <ele>183</ele>
        <time>2018-03-14T09:32:13Z</time>
      </trkpt>
      <trkpt lat="45.9487" lon="4.7147">
        <ele>183</ele>
        <time>2018-03-14T09:32:14Z</time>
      </trkpt>
      <trkpt lat="45.94876" lon="4.7147">
        <ele>183</ele>
        <time>2018-03-14T09:32:15Z</time>
      </trkpt>
      <trkpt lat="45.94883" lon="4.7147">
        <ele>183</ele>
        <time>2018-03-14T09:32:16Z</time>
      </trkpt>
      <trkpt lat="45.94889" lon="4.71471">
        <ele>183</ele>
        <time>2018-03-14T09:32:17Z</time>
      </trkpt>
      <trkpt lat="45.94895" lon="4.71472">
        <ele>183</ele>
        <time>2018-03-14T09:32:18Z</time>
      </trkpt>
      <trkpt lat="45.949" lon="4.71474">
        <ele>183</ele>
        <time>2018-03-14T09:32:19Z</time>
      </trkpt>
      <trkpt lat="45.94906" lon="4.71475">
        <ele>182</ele>
        <time>2018-03-14T09:32:20Z</time>
      </trkpt>
      <trkpt lat="45.94912" lon="4.71476">
        <ele>182</ele>
        <time>2018-03-14T09:32:21Z</time>
      </trkpt>
      <trkpt lat="45.94918" lon="4.71477">
        <ele>182</ele>
        <time>2018-03-14T09:32:22Z</time>
      </trkpt>
      <trkpt lat="45.94923" lon="4.71476">
        <ele>182</ele>
        <time>2018-03-14T09:32:23Z</time>
      </trkpt>
      <trkpt lat="45.94928" lon="4.71475">
        <ele>183</ele>
        <time>2018-03-14T09:32:24Z</time>
      </trkpt>
      <trkpt lat="45.94934" lon="4.71475">
        <ele>183</ele>
        <time>2018-03-14T09:32:25Z</time>
      </trkpt>
      <trkpt lat="45.94943" lon="4.71477">
        <ele>183</ele>
        <time>2018-03-14T09:32:29Z</time>
      </trkpt>
      <trkpt lat="45.94944" lon="4.71477">
        <ele>183</ele>
        <time>2018-03-14T09:32:30Z</time>
      </trkpt>
      <trkpt lat="45.94946" lon="4.71479">
        <ele>183</ele>
        <time>2018-03-14T09:32:31Z</time>
      </trkpt>
      <trkpt lat="45.94953" lon="4.71484">
        <ele>182</ele>
        <time>2018-03-14T09:32:32Z</time>
      </trkpt>
      <trkpt lat="45.94959" lon="4.71492">
        <ele>182</ele>
        <time>2018-03-14T09:32:34Z</time>
      </trkpt>
      <trkpt lat="45.94963" lon="4.71494">
        <ele>182</ele>
        <time>2018-03-14T09:32:35Z</time>
      </trkpt>
      <trkpt lat="45.94968" lon="4.71494">
        <ele>182</ele>
        <time>2018-03-14T09:32:36Z</time>
      </trkpt>
      <trkpt lat="45.94973" lon="4.71493">
        <ele>182</ele>
        <time>2018-03-14T09:32:37Z</time>
      </trkpt>
      <trkpt lat="45.94981" lon="4.71487">
        <ele>182</ele>
        <time>2018-03-14T09:32:39Z</time>
      </trkpt>
      <trkpt lat="45.94985" lon="4.71485">
        <ele>182</ele>
        <time>2018-03-14T09:32:40Z</time>
      </trkpt>
      <trkpt lat="45.9499" lon="4.71483">
        <ele>182</ele>
        <time>2018-03-14T09:32:41Z</time>
      </trkpt>
      <trkpt lat="45.94995" lon="4.71482">
        <ele>182</ele>
        <time>2018-03-14T09:32:42Z</time>
      </trkpt>
      <trkpt lat="45.95" lon="4.71481">
        <ele>181</ele>
        <time>2018-03-14T09:32:43Z</time>
      </trkpt>
      <trkpt lat="45.95006" lon="4.71482">
        <ele>181</ele>
        <time>2018-03-14T09:32:44Z</time>
      </trkpt>
      <trkpt lat="45.95012" lon="4.71482">
        <ele>181</ele>
        <time>2018-03-14T09:32:45Z</time>
      </trkpt>
      <trkpt lat="45.95018" lon="4.71482">
        <ele>181</ele>
        <time>2018-03-14T09:32:46Z</time>
      </trkpt>
      <trkpt lat="45.95025" lon="4.71482">
        <ele>181</ele>
        <time>2018-03-14T09:32:47Z</time>
      </trkpt>
      <trkpt lat="45.95031" lon="4.71482">
        <ele>181</ele>
        <time>2018-03-14T09:32:48Z</time>
      </trkpt>
      <trkpt lat="45.95037" lon="4.71482">
        <ele>181</ele>
        <time>2018-03-14T09:32:49Z</time>
      </trkpt>
      <trkpt lat="45.95045" lon="4.71482">
        <ele>181</ele>
        <time>2018-03-14T09:32:50Z</time>
      </trkpt>
      <trkpt lat="45.95052" lon="4.71483">
        <ele>181</ele>
        <time>2018-03-14T09:32:51Z</time>
      </trkpt>
      <trkpt lat="45.95059" lon="4.71483">
        <ele>181</ele>
        <time>2018-03-14T09:32:52Z</time>
      </trkpt>
      <trkpt lat="45.95067" lon="4.71484">
        <ele>181</ele>
        <time>2018-03-14T09:32:53Z</time>
      </trkpt>
      <trkpt lat="45.95075" lon="4.71483">
        <ele>180</ele>
        <time>2018-03-14T09:32:54Z</time>
      </trkpt>
      <trkpt lat="45.95083" lon="4.71483">
        <ele>180</ele>
        <time>2018-03-14T09:32:55Z</time>
      </trkpt>
      <trkpt lat="45.95091" lon="4.71482">
        <ele>179</ele>
        <time>2018-03-14T09:32:56Z</time>
      </trkpt>
      <trkpt lat="45.95098" lon="4.71483">
        <ele>179</ele>
        <time>2018-03-14T09:32:57Z</time>
      </trkpt>
      <trkpt lat="45.95107" lon="4.71483">
        <ele>179</ele>
        <time>2018-03-14T09:32:58Z</time>
      </trkpt>
      <trkpt lat="45.95114" lon="4.71483">
        <ele>179</ele>
        <time>2018-03-14T09:32:59Z</time>
      </trkpt>
      <trkpt lat="45.95122" lon="4.71484">
        <ele>178</ele>
        <time>2018-03-14T09:33:00Z</time>
      </trkpt>
      <trkpt lat="45.95131" lon="4.71484">
        <ele>178</ele>
        <time>2018-03-14T09:33:01Z</time>
      </trkpt>
      <trkpt lat="45.95138" lon="4.71483">
        <ele>178</ele>
        <time>2018-03-14T09:33:02Z</time>
      </trkpt>
      <trkpt lat="45.95147" lon="4.71484">
        <ele>178</ele>
        <time>2018-03-14T09:33:03Z</time>
      </trkpt>
      <trkpt lat="45.95155" lon="4.71484">
        <ele>178</ele>
        <time>2018-03-14T09:33:04Z</time>
      </trkpt>
      <trkpt lat="45.95163" lon="4.71485">
        <ele>178</ele>
        <time>2018-03-14T09:33:05Z</time>
      </trkpt>
      <trkpt lat="45.95171" lon="4.71485">
        <ele>177</ele>
        <time>2018-03-14T09:33:06Z</time>
      </trkpt>
      <trkpt lat="45.95179" lon="4.71487">
        <ele>177</ele>
        <time>2018-03-14T09:33:07Z</time>
      </trkpt>
      <trkpt lat="45.95187" lon="4.71489">
        <ele>177</ele>
        <time>2018-03-14T09:33:08Z</time>
      </trkpt>
      <trkpt lat="45.95195" lon="4.71489">
        <ele>177</ele>
        <time>2018-03-14T09:33:09Z</time>
      </trkpt>
      <trkpt lat="45.95204" lon="4.71489">
        <ele>177</ele>
        <time>2018-03-14T09:33:10Z</time>
      </trkpt>
      <trkpt lat="45.95211" lon="4.7149">
        <ele>177</ele>
        <time>2018-03-14T09:33:11Z</time>
      </trkpt>
      <trkpt lat="45.95219" lon="4.71491">
        <ele>177</ele>
        <time>2018-03-14T09:33:12Z</time>
      </trkpt>
      <trkpt lat="45.95227" lon="4.71492">
        <ele>177</ele>
        <time>2018-03-14T09:33:13Z</time>
      </trkpt>
      <trkpt lat="45.95236" lon="4.71492">
        <ele>177</ele>
        <time>2018-03-14T09:33:14Z</time>
      </trkpt>
      <trkpt lat="45.95244" lon="4.71493">
        <ele>177</ele>
        <time>2018-03-14T09:33:15Z</time>
      </trkpt>
      <trkpt lat="45.95251" lon="4.71493">
        <ele>177</ele>
        <time>2018-03-14T09:33:16Z</time>
      </trkpt>
      <trkpt lat="45.95258" lon="4.71494">
        <ele>177</ele>
        <time>2018-03-14T09:33:17Z</time>
      </trkpt>
      <trkpt lat="45.95265" lon="4.71494">
        <ele>176</ele>
        <time>2018-03-14T09:33:18Z</time>
      </trkpt>
      <trkpt lat="45.95272" lon="4.71495">
        <ele>176</ele>
        <time>2018-03-14T09:33:19Z</time>
      </trkpt>
      <trkpt lat="45.9528" lon="4.71496">
        <ele>176</ele>
        <time>2018-03-14T09:33:20Z</time>
      </trkpt>
      <trkpt lat="45.95287" lon="4.71497">
        <ele>176</ele>
        <time>2018-03-14T09:33:21Z</time>
      </trkpt>
      <trkpt lat="45.95295" lon="4.71499">
        <ele>176</ele>
        <time>2018-03-14T09:33:22Z</time>
      </trkpt>
      <trkpt lat="45.95302" lon="4.71499">
        <ele>175</ele>
        <time>2018-03-14T09:33:23Z</time>
      </trkpt>
      <trkpt lat="45.95308" lon="4.71498">
        <ele>175</ele>
        <time>2018-03-14T09:33:24Z</time>
      </trkpt>
      <trkpt lat="45.95316" lon="4.71499">
        <ele>175</ele>
        <time>2018-03-14T09:33:25Z</time>
      </trkpt>
      <trkpt lat="45.95323" lon="4.71499">
        <ele>175</ele>
        <time>2018-03-14T09:33:26Z</time>
      </trkpt>
      <trkpt lat="45.95329" lon="4.715">
        <ele>174</ele>
        <time>2018-03-14T09:33:27Z</time>
      </trkpt>
      <trkpt lat="45.95336" lon="4.715">
        <ele>174</ele>
        <time>2018-03-14T09:33:28Z</time>
      </trkpt>
      <trkpt lat="45.95343" lon="4.71499">
        <ele>174</ele>
        <time>2018-03-14T09:33:29Z</time>
      </trkpt>
      <trkpt lat="45.95349" lon="4.71499">
        <ele>175</ele>
        <time>2018-03-14T09:33:30Z</time>
      </trkpt>
      <trkpt lat="45.95355" lon="4.71498">
        <ele>175</ele>
        <time>2018-03-14T09:33:31Z</time>
      </trkpt>
      <trkpt lat="45.95361" lon="4.71498">
        <ele>175</ele>
        <time>2018-03-14T09:33:32Z</time>
      </trkpt>
      <trkpt lat="45.95368" lon="4.71499">
        <ele>175</ele>
        <time>2018-03-14T09:33:33Z</time>
      </trkpt>
      <trkpt lat="45.95374" lon="4.715">
        <ele>175</ele>
        <time>2018-03-14T09:33:34Z</time>
      </trkpt>
      <trkpt lat="45.95381" lon="4.71502">
        <ele>174</ele>
        <time>2018-03-14T09:33:35Z</time>
      </trkpt>
      <trkpt lat="45.95387" lon="4.71502">
        <ele>174</ele>
        <time>2018-03-14T09:33:36Z</time>
      </trkpt>
      <trkpt lat="45.95394" lon="4.71502">
        <ele>174</ele>
        <time>2018-03-14T09:33:37Z</time>
      </trkpt>
      <trkpt lat="45.95399" lon="4.71502">
        <ele>174</ele>
        <time>2018-03-14T09:33:38Z</time>
      </trkpt>
      <trkpt lat="45.95406" lon="4.71502">
        <ele>174</ele>
        <time>2018-03-14T09:33:39Z</time>
      </trkpt>
      <trkpt lat="45.95412" lon="4.71503">
        <ele>174</ele>
        <time>2018-03-14T09:33:40Z</time>
      </trkpt>
      <trkpt lat="45.95419" lon="4.71503">
        <ele>174</ele>
        <time>2018-03-14T09:33:41Z</time>
      </trkpt>
      <trkpt lat="45.95424" lon="4.71503">
        <ele>174</ele>
        <time>2018-03-14T09:33:42Z</time>
      </trkpt>
      <trkpt lat="45.9543" lon="4.71503">
        <ele>174</ele>
        <time>2018-03-14T09:33:43Z</time>
      </trkpt>
      <trkpt lat="45.95436" lon="4.71504">
        <ele>175</ele>
        <time>2018-03-14T09:33:44Z</time>
      </trkpt>
      <trkpt lat="45.95442" lon="4.71504">
        <ele>175</ele>
        <time>2018-03-14T09:33:45Z</time>
      </trkpt>
      <trkpt lat="45.95448" lon="4.71505">
        <ele>175</ele>
        <time>2018-03-14T09:33:46Z</time>
      </trkpt>
      <trkpt lat="45.95454" lon="4.71506">
        <ele>175</ele>
        <time>2018-03-14T09:33:47Z</time>
      </trkpt>
      <trkpt lat="45.9546" lon="4.71508">
        <ele>175</ele>
        <time>2018-03-14T09:33:48Z</time>
      </trkpt>
      <trkpt lat="45.95466" lon="4.71509">
        <ele>175</ele>
        <time>2018-03-14T09:33:49Z</time>
      </trkpt>
      <trkpt lat="45.95473" lon="4.7151">
        <ele>176</ele>
        <time>2018-03-14T09:33:50Z</time>
      </trkpt>
      <trkpt lat="45.95479" lon="4.7151">
        <ele>176</ele>
        <time>2018-03-14T09:33:51Z</time>
      </trkpt>
      <trkpt lat="45.95485" lon="4.7151">
        <ele>176</ele>
        <time>2018-03-14T09:33:52Z</time>
      </trkpt>
      <trkpt lat="45.9549" lon="4.71512">
        <ele>176</ele>
        <time>2018-03-14T09:33:53Z</time>
      </trkpt>
      <trkpt lat="45.95496" lon="4.71512">
        <ele>176</ele>
        <time>2018-03-14T09:33:54Z</time>
      </trkpt>
      <trkpt lat="45.95501" lon="4.71512">
        <ele>177</ele>
        <time>2018-03-14T09:33:55Z</time>
      </trkpt>
      <trkpt lat="45.95507" lon="4.71512">
        <ele>177</ele>
        <time>2018-03-14T09:33:56Z</time>
      </trkpt>
      <trkpt lat="45.95513" lon="4.71511">
        <ele>177</ele>
        <time>2018-03-14T09:33:57Z</time>
      </trkpt>
      <trkpt lat="45.95519" lon="4.71511">
        <ele>177</ele>
        <time>2018-03-14T09:33:58Z</time>
      </trkpt>
      <trkpt lat="45.95524" lon="4.71512">
        <ele>177</ele>
        <time>2018-03-14T09:33:59Z</time>
      </trkpt>
      <trkpt lat="45.95529" lon="4.71514">
        <ele>177</ele>
        <time>2018-03-14T09:34:00Z</time>
      </trkpt>
      <trkpt lat="45.95534" lon="4.71514">
        <ele>177</ele>
        <time>2018-03-14T09:34:01Z</time>
      </trkpt>
      <trkpt lat="45.9554" lon="4.71514">
        <ele>177</ele>
        <time>2018-03-14T09:34:02Z</time>
      </trkpt>
      <trkpt lat="45.95546" lon="4.71514">
        <ele>178</ele>
        <time>2018-03-14T09:34:03Z</time>
      </trkpt>
      <trkpt lat="45.95552" lon="4.71514">
        <ele>178</ele>
        <time>2018-03-14T09:34:04Z</time>
      </trkpt>
      <trkpt lat="45.95557" lon="4.71514">
        <ele>178</ele>
        <time>2018-03-14T09:34:05Z</time>
      </trkpt>
      <trkpt lat="45.95563" lon="4.71514">
        <ele>178</ele>
        <time>2018-03-14T09:34:06Z</time>
      </trkpt>
      <trkpt lat="45.95567" lon="4.71513">
        <ele>178</ele>
        <time>2018-03-14T09:34:07Z</time>
      </trkpt>
      <trkpt lat="45.95573" lon="4.71513">
        <ele>179</ele>
        <time>2018-03-14T09:34:08Z</time>
      </trkpt>
      <trkpt lat="45.95579" lon="4.71514">
        <ele>179</ele>
        <time>2018-03-14T09:34:09Z</time>
      </trkpt>
      <trkpt lat="45.95584" lon="4.71514">
        <ele>179</ele>
        <time>2018-03-14T09:34:10Z</time>
      </trkpt>
      <trkpt lat="45.95589" lon="4.71515">
        <ele>179</ele>
        <time>2018-03-14T09:34:11Z</time>
      </trkpt>
      <trkpt lat="45.95594" lon="4.71516">
        <ele>179</ele>
        <time>2018-03-14T09:34:12Z</time>
      </trkpt>
      <trkpt lat="45.95599" lon="4.71517">
        <ele>179</ele>
        <time>2018-03-14T09:34:13Z</time>
      </trkpt>
      <trkpt lat="45.95605" lon="4.71518">
        <ele>179</ele>
        <time>2018-03-14T09:34:14Z</time>
      </trkpt>
      <trkpt lat="45.9561" lon="4.71517">
        <ele>179</ele>
        <time>2018-03-14T09:34:15Z</time>
      </trkpt>
      <trkpt lat="45.95615" lon="4.71517">
        <ele>179</ele>
        <time>2018-03-14T09:34:16Z</time>
      </trkpt>
      <trkpt lat="45.9562" lon="4.71517">
        <ele>179</ele>
        <time>2018-03-14T09:34:17Z</time>
      </trkpt>
      <trkpt lat="45.95625" lon="4.71518">
        <ele>179</ele>
        <time>2018-03-14T09:34:18Z</time>
      </trkpt>
      <trkpt lat="45.9563" lon="4.71518">
        <ele>179</ele>
        <time>2018-03-14T09:34:19Z</time>
      </trkpt>
      <trkpt lat="45.95635" lon="4.71517">
        <ele>180</ele>
        <time>2018-03-14T09:34:20Z</time>
      </trkpt>
      <trkpt lat="45.9564" lon="4.71517">
        <ele>180</ele>
        <time>2018-03-14T09:34:21Z</time>
      </trkpt>
      <trkpt lat="45.95645" lon="4.71518">
        <ele>180</ele>
        <time>2018-03-14T09:34:22Z</time>
      </trkpt>
      <trkpt lat="45.9565" lon="4.71518">
        <ele>180</ele>
        <time>2018-03-14T09:34:23Z</time>
      </trkpt>
      <trkpt lat="45.95655" lon="4.71518">
        <ele>180</ele>
        <time>2018-03-14T09:34:24Z</time>
      </trkpt>
      <trkpt lat="45.9566" lon="4.71518">
        <ele>180</ele>
        <time>2018-03-14T09:34:25Z</time>
      </trkpt>
      <trkpt lat="45.95665" lon="4.71517">
        <ele>180</ele>
        <time>2018-03-14T09:34:26Z</time>
      </trkpt>
      <trkpt lat="45.95671" lon="4.71518">
        <ele>181</ele>
        <time>2018-03-14T09:34:27Z</time>
      </trkpt>
      <trkpt lat="45.95675" lon="4.71519">
        <ele>181</ele>
        <time>2018-03-14T09:34:28Z</time>
      </trkpt>
      <trkpt lat="45.9568" lon="4.71519">
        <ele>180</ele>
        <time>2018-03-14T09:34:29Z</time>
      </trkpt>
      <trkpt lat="45.95685" lon="4.71518">
        <ele>180</ele>
        <time>2018-03-14T09:34:30Z</time>
      </trkpt>
      <trkpt lat="45.9569" lon="4.7152">
        <ele>180</ele>
        <time>2018-03-14T09:34:31Z</time>
      </trkpt>
      <trkpt lat="45.95695" lon="4.7152">
        <ele>180</ele>
        <time>2018-03-14T09:34:32Z</time>
      </trkpt>
      <trkpt lat="45.957" lon="4.71521">
        <ele>180</ele>
        <time>2018-03-14T09:34:33Z</time>
      </trkpt>
      <trkpt lat="45.95705" lon="4.71523">
        <ele>180</ele>
        <time>2018-03-14T09:34:34Z</time>
      </trkpt>
      <trkpt lat="45.9571" lon="4.71523">
        <ele>180</ele>
        <time>2018-03-14T09:34:35Z</time>
      </trkpt>
      <trkpt lat="45.95715" lon="4.71524">
        <ele>180</ele>
        <time>2018-03-14T09:34:36Z</time>
      </trkpt>
      <trkpt lat="45.9572" lon="4.71525">
        <ele>180</ele>
        <time>2018-03-14T09:34:37Z</time>
      </trkpt>
      <trkpt lat="45.95724" lon="4.71525">
        <ele>180</ele>
        <time>2018-03-14T09:34:38Z</time>
      </trkpt>
      <trkpt lat="45.95729" lon="4.71525">
        <ele>180</ele>
        <time>2018-03-14T09:34:39Z</time>
      </trkpt>
      <trkpt lat="45.95734" lon="4.71525">
        <ele>180</ele>
        <time>2018-03-14T09:34:40Z</time>
      </trkpt>
      <trkpt lat="45.95738" lon="4.71526">
        <ele>180</ele>
        <time>2018-03-14T09:34:41Z</time>
      </trkpt>
      <trkpt lat="45.95743" lon="4.71526">
        <ele>180</ele>
        <time>2018-03-14T09:34:42Z</time>
      </trkpt>
      <trkpt lat="45.95748" lon="4.71527">
        <ele>180</ele>
        <time>2018-03-14T09:34:43Z</time>
      </trkpt>
      <trkpt lat="45.95753" lon="4.71527">
        <ele>181</ele>
        <time>2018-03-14T09:34:44Z</time>
      </trkpt>
      <trkpt lat="45.95758" lon="4.71527">
        <ele>181</ele>
        <time>2018-03-14T09:34:45Z</time>
      </trkpt>
      <trkpt lat="45.95763" lon="4.71527">
        <ele>181</ele>
        <time>2018-03-14T09:34:46Z</time>
      </trkpt>
      <trkpt lat="45.95769" lon="4.71527">
        <ele>181</ele>
        <time>2018-03-14T09:34:47Z</time>
      </trkpt>
      <trkpt lat="45.95773" lon="4.71529">
        <ele>181</ele>
        <time>2018-03-14T09:34:48Z</time>
      </trkpt>
      <trkpt lat="45.95778" lon="4.71529">
        <ele>181</ele>
        <time>2018-03-14T09:34:49Z</time>
      </trkpt>
      <trkpt lat="45.95783" lon="4.71528">
        <ele>181</ele>
        <time>2018-03-14T09:34:50Z</time>
      </trkpt>
      <trkpt lat="45.95787" lon="4.71528">
        <ele>181</ele>
        <time>2018-03-14T09:34:51Z</time>
      </trkpt>
      <trkpt lat="45.95792" lon="4.71528">
        <ele>181</ele>
        <time>2018-03-14T09:34:52Z</time>
      </trkpt>
      <trkpt lat="45.95796" lon="4.71529">
        <ele>181</ele>
        <time>2018-03-14T09:34:53Z</time>
      </trkpt>
      <trkpt lat="45.95801" lon="4.71529">
        <ele>181</ele>
        <time>2018-03-14T09:34:54Z</time>
      </trkpt>
      <trkpt lat="45.95806" lon="4.7153">
        <ele>181</ele>
        <time>2018-03-14T09:34:55Z</time>
      </trkpt>
      <trkpt lat="45.9581" lon="4.71531">
        <ele>181</ele>
        <time>2018-03-14T09:34:56Z</time>
      </trkpt>
      <trkpt lat="45.95815" lon="4.71531">
        <ele>181</ele>
        <time>2018-03-14T09:34:57Z</time>
      </trkpt>
      <trkpt lat="45.9582" lon="4.71532">
        <ele>181</ele>
        <time>2018-03-14T09:34:58Z</time>
      </trkpt>
      <trkpt lat="45.95825" lon="4.71532">
        <ele>181</ele>
        <time>2018-03-14T09:34:59Z</time>
      </trkpt>
      <trkpt lat="45.9583" lon="4.71533">
        <ele>181</ele>
        <time>2018-03-14T09:35:00Z</time>
      </trkpt>
      <trkpt lat="45.95835" lon="4.71534">
        <ele>182</ele>
        <time>2018-03-14T09:35:01Z</time>
      </trkpt>
      <trkpt lat="45.9584" lon="4.71534">
        <ele>182</ele>
        <time>2018-03-14T09:35:02Z</time>
      </trkpt>
      <trkpt lat="45.95845" lon="4.71535">
        <ele>182</ele>
        <time>2018-03-14T09:35:03Z</time>
      </trkpt>
      <trkpt lat="45.95849" lon="4.71535">
        <ele>182</ele>
        <time>2018-03-14T09:35:04Z</time>
      </trkpt>
      <trkpt lat="45.95858" lon="4.71537">
        <ele>181</ele>
        <time>2018-03-14T09:35:06Z</time>
      </trkpt>
      <trkpt lat="45.95863" lon="4.71536">
        <ele>181</ele>
        <time>2018-03-14T09:35:07Z</time>
      </trkpt>
      <trkpt lat="45.95867" lon="4.71536">
        <ele>181</ele>
        <time>2018-03-14T09:35:08Z</time>
      </trkpt>
      <trkpt lat="45.95872" lon="4.71537">
        <ele>181</ele>
        <time>2018-03-14T09:35:09Z</time>
      </trkpt>
      <trkpt lat="45.95877" lon="4.71538">
        <ele>181</ele>
        <time>2018-03-14T09:35:10Z</time>
      </trkpt>
      <trkpt lat="45.95881" lon="4.71539">
        <ele>181</ele>
        <time>2018-03-14T09:35:11Z</time>
      </trkpt>
      <trkpt lat="45.95886" lon="4.71539">
        <ele>181</ele>
        <time>2018-03-14T09:35:12Z</time>
      </trkpt>
      <trkpt lat="45.9589" lon="4.71539">
        <ele>181</ele>
        <time>2018-03-14T09:35:13Z</time>
      </trkpt>
      <trkpt lat="45.95899" lon="4.7154">
        <ele>181</ele>
        <time>2018-03-14T09:35:15Z</time>
      </trkpt>
      <trkpt lat="45.95903" lon="4.7154">
        <ele>181</ele>
        <time>2018-03-14T09:35:16Z</time>
      </trkpt>
      <trkpt lat="45.95912" lon="4.71541">
        <ele>181</ele>
        <time>2018-03-14T09:35:18Z</time>
      </trkpt>
      <trkpt lat="45.95916" lon="4.71542">
        <ele>181</ele>
        <time>2018-03-14T09:35:19Z</time>
      </trkpt>
      <trkpt lat="45.95924" lon="4.71543">
        <ele>183</ele>
        <time>2018-03-14T09:35:21Z</time>
      </trkpt>
      <trkpt lat="45.95929" lon="4.71543">
        <ele>183</ele>
        <time>2018-03-14T09:35:22Z</time>
      </trkpt>
      <trkpt lat="45.95933" lon="4.71543">
        <ele>183</ele>
        <time>2018-03-14T09:35:23Z</time>
      </trkpt>
      <trkpt lat="45.95938" lon="4.71543">
        <ele>183</ele>
        <time>2018-03-14T09:35:24Z</time>
      </trkpt>
      <trkpt lat="45.95945" lon="4.71543">
        <ele>183</ele>
        <time>2018-03-14T09:35:26Z</time>
      </trkpt>
      <trkpt lat="45.95948" lon="4.71542">
        <ele>183</ele>
        <time>2018-03-14T09:35:27Z</time>
      </trkpt>
      <trkpt lat="45.95957" lon="4.71543">
        <ele>183</ele>
        <time>2018-03-14T09:35:29Z</time>
      </trkpt>
      <trkpt lat="45.95961" lon="4.71544">
        <ele>183</ele>
        <time>2018-03-14T09:35:30Z</time>
      </trkpt>
      <trkpt lat="45.95969" lon="4.71548">
        <ele>183</ele>
        <time>2018-03-14T09:35:32Z</time>
      </trkpt>
      <trkpt lat="45.95973" lon="4.7155">
        <ele>183</ele>
        <time>2018-03-14T09:35:33Z</time>
      </trkpt>
      <trkpt lat="45.9598" lon="4.71554">
        <ele>183</ele>
        <time>2018-03-14T09:35:35Z</time>
      </trkpt>
      <trkpt lat="45.95984" lon="4.71555">
        <ele>183</ele>
        <time>2018-03-14T09:35:36Z</time>
      </trkpt>
      <trkpt lat="45.95992" lon="4.71554">
        <ele>183</ele>
        <time>2018-03-14T09:35:38Z</time>
      </trkpt>
      <trkpt lat="45.95995" lon="4.71553">
        <ele>183</ele>
        <time>2018-03-14T09:35:39Z</time>
      </trkpt>
      <trkpt lat="45.96003" lon="4.71549">
        <ele>185</ele>
        <time>2018-03-14T09:35:41Z</time>
      </trkpt>
      <trkpt lat="45.96008" lon="4.71547">
        <ele>185</ele>
        <time>2018-03-14T09:35:42Z</time>
      </trkpt>
      <trkpt lat="45.96012" lon="4.71546">
        <ele>185</ele>
        <time>2018-03-14T09:35:43Z</time>
      </trkpt>
      <trkpt lat="45.96017" lon="4.71546">
        <ele>185</ele>
        <time>2018-03-14T09:35:44Z</time>
      </trkpt>
      <trkpt lat="45.96021" lon="4.71546">
        <ele>185</ele>
        <time>2018-03-14T09:35:45Z</time>
      </trkpt>
      <trkpt lat="45.96026" lon="4.71546">
        <ele>185</ele>
        <time>2018-03-14T09:35:46Z</time>
      </trkpt>
      <trkpt lat="45.96031" lon="4.71546">
        <ele>185</ele>
        <time>2018-03-14T09:35:47Z</time>
      </trkpt>
      <trkpt lat="45.96036" lon="4.71547">
        <ele>185</ele>
        <time>2018-03-14T09:35:48Z</time>
      </trkpt>
      <trkpt lat="45.96041" lon="4.71548">
        <ele>185</ele>
        <time>2018-03-14T09:35:49Z</time>
      </trkpt>
      <trkpt lat="45.96046" lon="4.71549">
        <ele>185</ele>
        <time>2018-03-14T09:35:50Z</time>
      </trkpt>
      <trkpt lat="45.96051" lon="4.71551">
        <ele>185</ele>
        <time>2018-03-14T09:35:51Z</time>
      </trkpt>
      <trkpt lat="45.96056" lon="4.71552">
        <ele>185</ele>
        <time>2018-03-14T09:35:52Z</time>
      </trkpt>
      <trkpt lat="45.96063" lon="4.71552">
        <ele>185</ele>
        <time>2018-03-14T09:35:53Z</time>
      </trkpt>
      <trkpt lat="45.96069" lon="4.7155">
        <ele>185</ele>
        <time>2018-03-14T09:35:54Z</time>
      </trkpt>
      <trkpt lat="45.96075" lon="4.71553">
        <ele>185</ele>
        <time>2018-03-14T09:35:55Z</time>
      </trkpt>
      <trkpt lat="45.96079" lon="4.71556">
        <ele>185</ele>
        <time>2018-03-14T09:35:56Z</time>
      </trkpt>
      <trkpt lat="45.96084" lon="4.71557">
        <ele>184</ele>
        <time>2018-03-14T09:35:57Z</time>
      </trkpt>
      <trkpt lat="45.9609" lon="4.71557">
        <ele>184</ele>
        <time>2018-03-14T09:35:58Z</time>
      </trkpt>
      <trkpt lat="45.96095" lon="4.71558">
        <ele>184</ele>
        <time>2018-03-14T09:35:59Z</time>
      </trkpt>
      <trkpt lat="45.96101" lon="4.71559">
        <ele>184</ele>
        <time>2018-03-14T09:36:00Z</time>
      </trkpt>
      <trkpt lat="45.96106" lon="4.71559">
        <ele>184</ele>
        <time>2018-03-14T09:36:01Z</time>
      </trkpt>
      <trkpt lat="45.96112" lon="4.71559">
        <ele>184</ele>
        <time>2018-03-14T09:36:02Z</time>
      </trkpt>
      <trkpt lat="45.96118" lon="4.71561">
        <ele>184</ele>
        <time>2018-03-14T09:36:03Z</time>
      </trkpt>
      <trkpt lat="45.96123" lon="4.71562">
        <ele>184</ele>
        <time>2018-03-14T09:36:04Z</time>
      </trkpt>
      <trkpt lat="45.96129" lon="4.71563">
        <ele>184</ele>
        <time>2018-03-14T09:36:05Z</time>
      </trkpt>
      <trkpt lat="45.96135" lon="4.71564">
        <ele>184</ele>
        <time>2018-03-14T09:36:06Z</time>
      </trkpt>
      <trkpt lat="45.96141" lon="4.71564">
        <ele>184</ele>
        <time>2018-03-14T09:36:07Z</time>
      </trkpt>
      <trkpt lat="45.96147" lon="4.71565">
        <ele>183</ele>
        <time>2018-03-14T09:36:08Z</time>
      </trkpt>
      <trkpt lat="45.96152" lon="4.71566">
        <ele>183</ele>
        <time>2018-03-14T09:36:09Z</time>
      </trkpt>
      <trkpt lat="45.96159" lon="4.71567">
        <ele>183</ele>
        <time>2018-03-14T09:36:10Z</time>
      </trkpt>
      <trkpt lat="45.96166" lon="4.71567">
        <ele>182</ele>
        <time>2018-03-14T09:36:11Z</time>
      </trkpt>
      <trkpt lat="45.96172" lon="4.71568">
        <ele>182</ele>
        <time>2018-03-14T09:36:12Z</time>
      </trkpt>
      <trkpt lat="45.96177" lon="4.71569">
        <ele>182</ele>
        <time>2018-03-14T09:36:13Z</time>
      </trkpt>
      <trkpt lat="45.96183" lon="4.7157">
        <ele>182</ele>
        <time>2018-03-14T09:36:14Z</time>
      </trkpt>
      <trkpt lat="45.96189" lon="4.7157">
        <ele>183</ele>
        <time>2018-03-14T09:36:15Z</time>
      </trkpt>
      <trkpt lat="45.96196" lon="4.71571">
        <ele>183</ele>
        <time>2018-03-14T09:36:16Z</time>
      </trkpt>
      <trkpt lat="45.96201" lon="4.71571">
        <ele>183</ele>
        <time>2018-03-14T09:36:17Z</time>
      </trkpt>
      <trkpt lat="45.96207" lon="4.71572">
        <ele>183</ele>
        <time>2018-03-14T09:36:18Z</time>
      </trkpt>
      <trkpt lat="45.96213" lon="4.71572">
        <ele>183</ele>
        <time>2018-03-14T09:36:19Z</time>
      </trkpt>
      <trkpt lat="45.96219" lon="4.71573">
        <ele>183</ele>
        <time>2018-03-14T09:36:20Z</time>
      </trkpt>
      <trkpt lat="45.96225" lon="4.71573">
        <ele>183</ele>
        <time>2018-03-14T09:36:21Z</time>
      </trkpt>
      <trkpt lat="45.96231" lon="4.71574">
        <ele>183</ele>
        <time>2018-03-14T09:36:22Z</time>
      </trkpt>
      <trkpt lat="45.96237" lon="4.71576">
        <ele>182</ele>
        <time>2018-03-14T09:36:23Z</time>
      </trkpt>
      <trkpt lat="45.96243" lon="4.71577">
        <ele>182</ele>
        <time>2018-03-14T09:36:24Z</time>
      </trkpt>
      <trkpt lat="45.9625" lon="4.71578">
        <ele>182</ele>
        <time>2018-03-14T09:36:25Z</time>
      </trkpt>
      <trkpt lat="45.96256" lon="4.7158">
        <ele>182</ele>
        <time>2018-03-14T09:36:26Z</time>
      </trkpt>
      <trkpt lat="45.96263" lon="4.71581">
        <ele>183</ele>
        <time>2018-03-14T09:36:27Z</time>
      </trkpt>
      <trkpt lat="45.96268" lon="4.71582">
        <ele>183</ele>
        <time>2018-03-14T09:36:28Z</time>
      </trkpt>
      <trkpt lat="45.96274" lon="4.71583">
        <ele>183</ele>
        <time>2018-03-14T09:36:29Z</time>
      </trkpt>
      <trkpt lat="45.9628" lon="4.71584">
        <ele>180</ele>
        <time>2018-03-14T09:36:30Z</time>
      </trkpt>
      <trkpt lat="45.96286" lon="4.71585">
        <ele>181</ele>
        <time>2018-03-14T09:36:31Z</time>
      </trkpt>
      <trkpt lat="45.96291" lon="4.71586">
        <ele>181</ele>
        <time>2018-03-14T09:36:32Z</time>
      </trkpt>
      <trkpt lat="45.96297" lon="4.71587">
        <ele>181</ele>
        <time>2018-03-14T09:36:33Z</time>
      </trkpt>
      <trkpt lat="45.96303" lon="4.71588">
        <ele>181</ele>
        <time>2018-03-14T09:36:34Z</time>
      </trkpt>
      <trkpt lat="45.9631" lon="4.71589">
        <ele>181</ele>
        <time>2018-03-14T09:36:35Z</time>
      </trkpt>
      <trkpt lat="45.96315" lon="4.7159">
        <ele>181</ele>
        <time>2018-03-14T09:36:36Z</time>
      </trkpt>
      <trkpt lat="45.96321" lon="4.71591">
        <ele>182</ele>
        <time>2018-03-14T09:36:37Z</time>
      </trkpt>
      <trkpt lat="45.96327" lon="4.71593">
        <ele>182</ele>
        <time>2018-03-14T09:36:38Z</time>
      </trkpt>
      <trkpt lat="45.96333" lon="4.71594">
        <ele>182</ele>
        <time>2018-03-14T09:36:39Z</time>
      </trkpt>
      <trkpt lat="45.96339" lon="4.71594">
        <ele>182</ele>
        <time>2018-03-14T09:36:40Z</time>
      </trkpt>
      <trkpt lat="45.96345" lon="4.71595">
        <ele>182</ele>
        <time>2018-03-14T09:36:41Z</time>
      </trkpt>
      <trkpt lat="45.9635" lon="4.71596">
        <ele>182</ele>
        <time>2018-03-14T09:36:42Z</time>
      </trkpt>
      <trkpt lat="45.96357" lon="4.71597">
        <ele>182</ele>
        <time>2018-03-14T09:36:43Z</time>
      </trkpt>
      <trkpt lat="45.96363" lon="4.71598">
        <ele>182</ele>
        <time>2018-03-14T09:36:44Z</time>
      </trkpt>
      <trkpt lat="45.96369" lon="4.71599">
        <ele>182</ele>
        <time>2018-03-14T09:36:45Z</time>
      </trkpt>
      <trkpt lat="45.96375" lon="4.716">
        <ele>182</ele>
        <time>2018-03-14T09:36:46Z</time>
      </trkpt>
      <trkpt lat="45.9638" lon="4.71601">
        <ele>182</ele>
        <time>2018-03-14T09:36:47Z</time>
      </trkpt>
      <trkpt lat="45.96386" lon="4.71602">
        <ele>182</ele>
        <time>2018-03-14T09:36:48Z</time>
      </trkpt>
      <trkpt lat="45.96392" lon="4.71604">
        <ele>182</ele>
        <time>2018-03-14T09:36:49Z</time>
      </trkpt>
      <trkpt lat="45.96398" lon="4.71605">
        <ele>183</ele>
        <time>2018-03-14T09:36:50Z</time>
      </trkpt>
      <trkpt lat="45.96404" lon="4.71606">
        <ele>183</ele>
        <time>2018-03-14T09:36:51Z</time>
      </trkpt>
      <trkpt lat="45.96411" lon="4.71606">
        <ele>183</ele>
        <time>2018-03-14T09:36:52Z</time>
      </trkpt>
      <trkpt lat="45.96417" lon="4.71607">
        <ele>183</ele>
        <time>2018-03-14T09:36:53Z</time>
      </trkpt>
      <trkpt lat="45.96423" lon="4.71608">
        <ele>183</ele>
        <time>2018-03-14T09:36:54Z</time>
      </trkpt>
      <trkpt lat="45.96429" lon="4.71609">
        <ele>183</ele>
        <time>2018-03-14T09:36:55Z</time>
      </trkpt>
      <trkpt lat="45.96435" lon="4.71609">
        <ele>183</ele>
        <time>2018-03-14T09:36:56Z</time>
      </trkpt>
      <trkpt lat="45.96441" lon="4.7161">
        <ele>183</ele>
        <time>2018-03-14T09:36:57Z</time>
      </trkpt>
      <trkpt lat="45.96448" lon="4.71611">
        <ele>183</ele>
        <time>2018-03-14T09:36:58Z</time>
      </trkpt>
      <trkpt lat="45.96454" lon="4.71612">
        <ele>183</ele>
        <time>2018-03-14T09:36:59Z</time>
      </trkpt>
      <trkpt lat="45.9646" lon="4.71613">
        <ele>183</ele>
        <time>2018-03-14T09:37:00Z</time>
      </trkpt>
      <trkpt lat="45.96466" lon="4.71614">
        <ele>183</ele>
        <time>2018-03-14T09:37:01Z</time>
      </trkpt>
      <trkpt lat="45.96472" lon="4.71615">
        <ele>183</ele>
        <time>2018-03-14T09:37:02Z</time>
      </trkpt>
      <trkpt lat="45.96478" lon="4.71616">
        <ele>183</ele>
        <time>2018-03-14T09:37:03Z</time>
      </trkpt>
      <trkpt lat="45.96485" lon="4.71618">
        <ele>183</ele>
        <time>2018-03-14T09:37:04Z</time>
      </trkpt>
      <trkpt lat="45.9649" lon="4.71618">
        <ele>183</ele>
        <time>2018-03-14T09:37:05Z</time>
      </trkpt>
      <trkpt lat="45.96496" lon="4.71619">
        <ele>183</ele>
        <time>2018-03-14T09:37:06Z</time>
      </trkpt>
      <trkpt lat="45.96502" lon="4.71621">
        <ele>184</ele>
        <time>2018-03-14T09:37:07Z</time>
      </trkpt>
      <trkpt lat="45.96507" lon="4.71622">
        <ele>184</ele>
        <time>2018-03-14T09:37:08Z</time>
      </trkpt>
      <trkpt lat="45.96512" lon="4.71627">
        <ele>184</ele>
        <time>2018-03-14T09:37:09Z</time>
      </trkpt>
      <trkpt lat="45.96516" lon="4.71632">
        <ele>183</ele>
        <time>2018-03-14T09:37:10Z</time>
      </trkpt>
      <trkpt lat="45.9652" lon="4.71637">
        <ele>183</ele>
        <time>2018-03-14T09:37:11Z</time>
      </trkpt>
      <trkpt lat="45.96525" lon="4.71641">
        <ele>183</ele>
        <time>2018-03-14T09:37:12Z</time>
      </trkpt>
      <trkpt lat="45.9653" lon="4.71643">
        <ele>183</ele>
        <time>2018-03-14T09:37:13Z</time>
      </trkpt>
      <trkpt lat="45.96535" lon="4.71642">
        <ele>184</ele>
        <time>2018-03-14T09:37:14Z</time>
      </trkpt>
      <trkpt lat="45.9654" lon="4.71641">
        <ele>184</ele>
        <time>2018-03-14T09:37:15Z</time>
      </trkpt>
      <trkpt lat="45.96545" lon="4.71638">
        <ele>184</ele>
        <time>2018-03-14T09:37:16Z</time>
      </trkpt>
      <trkpt lat="45.96549" lon="4.71634">
        <ele>184</ele>
        <time>2018-03-14T09:37:17Z</time>
      </trkpt>
      <trkpt lat="45.96553" lon="4.71631">
        <ele>184</ele>
        <time>2018-03-14T09:37:18Z</time>
      </trkpt>
      <trkpt lat="45.96557" lon="4.71629">
        <ele>184</ele>
        <time>2018-03-14T09:37:19Z</time>
      </trkpt>
      <trkpt lat="45.96563" lon="4.71628">
        <ele>185</ele>
        <time>2018-03-14T09:37:20Z</time>
      </trkpt>
      <trkpt lat="45.96568" lon="4.71629">
        <ele>185</ele>
        <time>2018-03-14T09:37:21Z</time>
      </trkpt>
      <trkpt lat="45.96572" lon="4.71631">
        <ele>185</ele>
        <time>2018-03-14T09:37:22Z</time>
      </trkpt>
      <trkpt lat="45.96577" lon="4.71632">
        <ele>185</ele>
        <time>2018-03-14T09:37:23Z</time>
      </trkpt>
      <trkpt lat="45.96582" lon="4.71633">
        <ele>185</ele>
        <time>2018-03-14T09:37:24Z</time>
      </trkpt>
      <trkpt lat="45.96586" lon="4.71634">
        <ele>187</ele>
        <time>2018-03-14T09:37:25Z</time>
      </trkpt>
      <trkpt lat="45.96591" lon="4.71634">
        <ele>187</ele>
        <time>2018-03-14T09:37:26Z</time>
      </trkpt>
      <trkpt lat="45.96597" lon="4.71635">
        <ele>187</ele>
        <time>2018-03-14T09:37:27Z</time>
      </trkpt>
      <trkpt lat="45.96602" lon="4.71635">
        <ele>187</ele>
        <time>2018-03-14T09:37:28Z</time>
      </trkpt>
      <trkpt lat="45.96607" lon="4.71636">
        <ele>187</ele>
        <time>2018-03-14T09:37:29Z</time>
      </trkpt>
      <trkpt lat="45.96611" lon="4.71637">
        <ele>187</ele>
        <time>2018-03-14T09:37:30Z</time>
      </trkpt>
      <trkpt lat="45.96617" lon="4.71638">
        <ele>187</ele>
        <time>2018-03-14T09:37:31Z</time>
      </trkpt>
      <trkpt lat="45.96621" lon="4.71639">
        <ele>187</ele>
        <time>2018-03-14T09:37:32Z</time>
      </trkpt>
      <trkpt lat="45.96626" lon="4.7164">
        <ele>187</ele>
        <time>2018-03-14T09:37:33Z</time>
      </trkpt>
      <trkpt lat="45.96631" lon="4.71641">
        <ele>187</ele>
        <time>2018-03-14T09:37:34Z</time>
      </trkpt>
      <trkpt lat="45.96636" lon="4.71641">
        <ele>187</ele>
        <time>2018-03-14T09:37:35Z</time>
      </trkpt>
      <trkpt lat="45.96642" lon="4.71642">
        <ele>188</ele>
        <time>2018-03-14T09:37:36Z</time>
      </trkpt>
      <trkpt lat="45.96647" lon="4.71644">
        <ele>188</ele>
        <time>2018-03-14T09:37:37Z</time>
      </trkpt>
      <trkpt lat="45.96652" lon="4.71645">
        <ele>188</ele>
        <time>2018-03-14T09:37:38Z</time>
      </trkpt>
      <trkpt lat="45.96657" lon="4.71646">
        <ele>188</ele>
        <time>2018-03-14T09:37:39Z</time>
      </trkpt>
      <trkpt lat="45.96662" lon="4.71647">
        <ele>188</ele>
        <time>2018-03-14T09:37:40Z</time>
      </trkpt>
      <trkpt lat="45.96667" lon="4.71648">
        <ele>189</ele>
        <time>2018-03-14T09:37:41Z</time>
      </trkpt>
      <trkpt lat="45.96672" lon="4.71649">
        <ele>189</ele>
        <time>2018-03-14T09:37:42Z</time>
      </trkpt>
      <trkpt lat="45.96678" lon="4.71649">
        <ele>189</ele>
        <time>2018-03-14T09:37:43Z</time>
      </trkpt>
      <trkpt lat="45.96683" lon="4.71649">
        <ele>189</ele>
        <time>2018-03-14T09:37:44Z</time>
      </trkpt>
      <trkpt lat="45.96687" lon="4.7165">
        <ele>189</ele>
        <time>2018-03-14T09:37:45Z</time>
      </trkpt>
      <trkpt lat="45.96692" lon="4.71651">
        <ele>189</ele>
        <time>2018-03-14T09:37:46Z</time>
      </trkpt>
      <trkpt lat="45.96696" lon="4.71651">
        <ele>190</ele>
        <time>2018-03-14T09:37:47Z</time>
      </trkpt>
      <trkpt lat="45.96701" lon="4.71651">
        <ele>190</ele>
        <time>2018-03-14T09:37:48Z</time>
      </trkpt>
      <trkpt lat="45.96706" lon="4.71652">
        <ele>190</ele>
        <time>2018-03-14T09:37:49Z</time>
      </trkpt>
      <trkpt lat="45.96711" lon="4.71653">
        <ele>190</ele>
        <time>2018-03-14T09:37:50Z</time>
      </trkpt>
      <trkpt lat="45.96716" lon="4.71655">
        <ele>190</ele>
        <time>2018-03-14T09:37:51Z</time>
      </trkpt>
      <trkpt lat="45.9672" lon="4.71655">
        <ele>190</ele>
        <time>2018-03-14T09:37:52Z</time>
      </trkpt>
      <trkpt lat="45.96725" lon="4.71656">
        <ele>190</ele>
        <time>2018-03-14T09:37:53Z</time>
      </trkpt>
      <trkpt lat="45.9673" lon="4.71657">
        <ele>190</ele>
        <time>2018-03-14T09:37:54Z</time>
      </trkpt>
      <trkpt lat="45.96734" lon="4.71658">
        <ele>190</ele>
        <time>2018-03-14T09:37:55Z</time>
      </trkpt>
      <trkpt lat="45.96739" lon="4.71659">
        <ele>190</ele>
        <time>2018-03-14T09:37:56Z</time>
      </trkpt>
      <trkpt lat="45.96744" lon="4.7166">
        <ele>189</ele>
        <time>2018-03-14T09:37:57Z</time>
      </trkpt>
      <trkpt lat="45.96749" lon="4.7166">
        <ele>189</ele>
        <time>2018-03-14T09:37:58Z</time>
      </trkpt>
      <trkpt lat="45.96758" lon="4.71661">
        <ele>190</ele>
        <time>2018-03-14T09:38:00Z</time>
      </trkpt>
      <trkpt lat="45.96762" lon="4.71663">
        <ele>191</ele>
        <time>2018-03-14T09:38:01Z</time>
      </trkpt>
      <trkpt lat="45.96767" lon="4.71663">
        <ele>191</ele>
        <time>2018-03-14T09:38:02Z</time>
      </trkpt>
      <trkpt lat="45.96771" lon="4.71663">
        <ele>191</ele>
        <time>2018-03-14T09:38:03Z</time>
      </trkpt>
      <trkpt lat="45.96776" lon="4.71665">
        <ele>192</ele>
        <time>2018-03-14T09:38:04Z</time>
      </trkpt>
      <trkpt lat="45.9678" lon="4.71666">
        <ele>192</ele>
        <time>2018-03-14T09:38:05Z</time>
      </trkpt>
      <trkpt lat="45.96784" lon="4.71667">
        <ele>192</ele>
        <time>2018-03-14T09:38:06Z</time>
      </trkpt>
      <trkpt lat="45.96789" lon="4.71667">
        <ele>188</ele>
        <time>2018-03-14T09:38:07Z</time>
      </trkpt>
      <trkpt lat="45.96798" lon="4.7167">
        <ele>188</ele>
        <time>2018-03-14T09:38:09Z</time>
      </trkpt>
      <trkpt lat="45.96803" lon="4.71671">
        <ele>189</ele>
        <time>2018-03-14T09:38:10Z</time>
      </trkpt>
      <trkpt lat="45.96807" lon="4.71671">
        <ele>189</ele>
        <time>2018-03-14T09:38:11Z</time>
      </trkpt>
      <trkpt lat="45.96812" lon="4.71672">
        <ele>189</ele>
        <time>2018-03-14T09:38:12Z</time>
      </trkpt>
      <trkpt lat="45.96817" lon="4.71673">
        <ele>189</ele>
        <time>2018-03-14T09:38:13Z</time>
      </trkpt>
      <trkpt lat="45.96822" lon="4.71674">
        <ele>190</ele>
        <time>2018-03-14T09:38:14Z</time>
      </trkpt>
      <trkpt lat="45.96827" lon="4.71675">
        <ele>190</ele>
        <time>2018-03-14T09:38:15Z</time>
      </trkpt>
      <trkpt lat="45.96831" lon="4.71675">
        <ele>190</ele>
        <time>2018-03-14T09:38:16Z</time>
      </trkpt>
      <trkpt lat="45.96839" lon="4.71674">
        <ele>191</ele>
        <time>2018-03-14T09:38:18Z</time>
      </trkpt>
      <trkpt lat="45.96844" lon="4.71675">
        <ele>191</ele>
        <time>2018-03-14T09:38:19Z</time>
      </trkpt>
      <trkpt lat="45.9685" lon="4.71677">
        <ele>190</ele>
        <time>2018-03-14T09:38:20Z</time>
      </trkpt>
      <trkpt lat="45.96855" lon="4.71677">
        <ele>190</ele>
        <time>2018-03-14T09:38:21Z</time>
      </trkpt>
      <trkpt lat="45.9686" lon="4.71677">
        <ele>190</ele>
        <time>2018-03-14T09:38:22Z</time>
      </trkpt>
      <trkpt lat="45.96865" lon="4.71677">
        <ele>190</ele>
        <time>2018-03-14T09:38:23Z</time>
      </trkpt>
      <trkpt lat="45.96869" lon="4.71679">
        <ele>190</ele>
        <time>2018-03-14T09:38:24Z</time>
      </trkpt>
      <trkpt lat="45.96875" lon="4.7168">
        <ele>190</ele>
        <time>2018-03-14T09:38:25Z</time>
      </trkpt>
      <trkpt lat="45.9688" lon="4.71679">
        <ele>190</ele>
        <time>2018-03-14T09:38:26Z</time>
      </trkpt>
      <trkpt lat="45.96885" lon="4.7168">
        <ele>191</ele>
        <time>2018-03-14T09:38:27Z</time>
      </trkpt>
      <trkpt lat="45.96891" lon="4.7168">
        <ele>191</ele>
        <time>2018-03-14T09:38:28Z</time>
      </trkpt>
      <trkpt lat="45.96895" lon="4.7168">
        <ele>191</ele>
        <time>2018-03-14T09:38:29Z</time>
      </trkpt>
      <trkpt lat="45.96901" lon="4.71681">
        <ele>191</ele>
        <time>2018-03-14T09:38:30Z</time>
      </trkpt>
      <trkpt lat="45.96906" lon="4.71682">
        <ele>192</ele>
        <time>2018-03-14T09:38:31Z</time>
      </trkpt>
      <trkpt lat="45.96912" lon="4.71683">
        <ele>192</ele>
        <time>2018-03-14T09:38:32Z</time>
      </trkpt>
      <trkpt lat="45.96917" lon="4.71682">
        <ele>193</ele>
        <time>2018-03-14T09:38:33Z</time>
      </trkpt>
      <trkpt lat="45.96922" lon="4.71683">
        <ele>193</ele>
        <time>2018-03-14T09:38:34Z</time>
      </trkpt>
      <trkpt lat="45.96928" lon="4.71684">
        <ele>192</ele>
        <time>2018-03-14T09:38:35Z</time>
      </trkpt>
      <trkpt lat="45.96934" lon="4.71685">
        <ele>192</ele>
        <time>2018-03-14T09:38:36Z</time>
      </trkpt>
      <trkpt lat="45.96939" lon="4.71685">
        <ele>192</ele>
        <time>2018-03-14T09:38:37Z</time>
      </trkpt>
      <trkpt lat="45.96945" lon="4.71686">
        <ele>192</ele>
        <time>2018-03-14T09:38:38Z</time>
      </trkpt>
      <trkpt lat="45.9695" lon="4.71686">
        <ele>192</ele>
        <time>2018-03-14T09:38:39Z</time>
      </trkpt>
      <trkpt lat="45.96956" lon="4.71687">
        <ele>191</ele>
        <time>2018-03-14T09:38:40Z</time>
      </trkpt>
      <trkpt lat="45.9696" lon="4.71687">
        <ele>191</ele>
        <time>2018-03-14T09:38:41Z</time>
      </trkpt>
      <trkpt lat="45.96966" lon="4.71686">
        <ele>192</ele>
        <time>2018-03-14T09:38:42Z</time>
      </trkpt>
      <trkpt lat="45.96971" lon="4.71686">
        <ele>192</ele>
        <time>2018-03-14T09:38:43Z</time>
      </trkpt>
      <trkpt lat="45.96976" lon="4.71688">
        <ele>192</ele>
        <time>2018-03-14T09:38:44Z</time>
      </trkpt>
      <trkpt lat="45.9698" lon="4.71689">
        <ele>192</ele>
        <time>2018-03-14T09:38:45Z</time>
      </trkpt>
      <trkpt lat="45.96988" lon="4.71689">
        <ele>192</ele>
        <time>2018-03-14T09:38:47Z</time>
      </trkpt>
      <trkpt lat="45.96993" lon="4.7169">
        <ele>192</ele>
        <time>2018-03-14T09:38:48Z</time>
      </trkpt>
      <trkpt lat="45.96998" lon="4.7169">
        <ele>192</ele>
        <time>2018-03-14T09:38:49Z</time>
      </trkpt>
      <trkpt lat="45.97003" lon="4.7169">
        <ele>193</ele>
        <time>2018-03-14T09:38:50Z</time>
      </trkpt>
      <trkpt lat="45.97009" lon="4.7169">
        <ele>193</ele>
        <time>2018-03-14T09:38:51Z</time>
      </trkpt>
      <trkpt lat="45.97013" lon="4.71691">
        <ele>193</ele>
        <time>2018-03-14T09:38:52Z</time>
      </trkpt>
      <trkpt lat="45.97019" lon="4.71691">
        <ele>193</ele>
        <time>2018-03-14T09:38:53Z</time>
      </trkpt>
      <trkpt lat="45.97024" lon="4.71692">
        <ele>192</ele>
        <time>2018-03-14T09:38:54Z</time>
      </trkpt>
      <trkpt lat="45.97029" lon="4.71692">
        <ele>192</ele>
        <time>2018-03-14T09:38:55Z</time>
      </trkpt>
      <trkpt lat="45.97034" lon="4.7169">
        <ele>192</ele>
        <time>2018-03-14T09:38:56Z</time>
      </trkpt>
      <trkpt lat="45.97039" lon="4.71691">
        <ele>192</ele>
        <time>2018-03-14T09:38:57Z</time>
      </trkpt>
      <trkpt lat="45.97044" lon="4.71692">
        <ele>193</ele>
        <time>2018-03-14T09:38:58Z</time>
      </trkpt>
      <trkpt lat="45.9705" lon="4.71692">
        <ele>193</ele>
        <time>2018-03-14T09:38:59Z</time>
      </trkpt>
      <trkpt lat="45.97056" lon="4.71694">
        <ele>193</ele>
        <time>2018-03-14T09:39:00Z</time>
      </trkpt>
      <trkpt lat="45.97061" lon="4.71695">
        <ele>193</ele>
        <time>2018-03-14T09:39:01Z</time>
      </trkpt>
      <trkpt lat="45.97066" lon="4.71696">
        <ele>193</ele>
        <time>2018-03-14T09:39:02Z</time>
      </trkpt>
      <trkpt lat="45.97071" lon="4.71696">
        <ele>193</ele>
        <time>2018-03-14T09:39:03Z</time>
      </trkpt>
      <trkpt lat="45.97076" lon="4.71696">
        <ele>193</ele>
        <time>2018-03-14T09:39:04Z</time>
      </trkpt>
      <trkpt lat="45.97081" lon="4.71696">
        <ele>193</ele>
        <time>2018-03-14T09:39:05Z</time>
      </trkpt>
      <trkpt lat="45.97087" lon="4.71697">
        <ele>194</ele>
        <time>2018-03-14T09:39:06Z</time>
      </trkpt>
      <trkpt lat="45.97093" lon="4.71698">
        <ele>194</ele>
        <time>2018-03-14T09:39:07Z</time>
      </trkpt>
      <trkpt lat="45.97098" lon="4.71699">
        <ele>194</ele>
        <time>2018-03-14T09:39:08Z</time>
      </trkpt>
      <trkpt lat="45.97103" lon="4.71699">
        <ele>194</ele>
        <time>2018-03-14T09:39:09Z</time>
      </trkpt>
      <trkpt lat="45.97108" lon="4.717">
        <ele>194</ele>
        <time>2018-03-14T09:39:10Z</time>
      </trkpt>
      <trkpt lat="45.97113" lon="4.717">
        <ele>194</ele>
        <time>2018-03-14T09:39:11Z</time>
      </trkpt>
      <trkpt lat="45.97118" lon="4.71699">
        <ele>194</ele>
        <time>2018-03-14T09:39:12Z</time>
      </trkpt>
      <trkpt lat="45.97123" lon="4.717">
        <ele>194</ele>
        <time>2018-03-14T09:39:13Z</time>
      </trkpt>
      <trkpt lat="45.97128" lon="4.717">
        <ele>194</ele>
        <time>2018-03-14T09:39:14Z</time>
      </trkpt>
      <trkpt lat="45.97133" lon="4.717">
        <ele>194</ele>
        <time>2018-03-14T09:39:15Z</time>
      </trkpt>
      <trkpt lat="45.97137" lon="4.71701">
        <ele>194</ele>
        <time>2018-03-14T09:39:16Z</time>
      </trkpt>
      <trkpt lat="45.97142" lon="4.71701">
        <ele>195</ele>
        <time>2018-03-14T09:39:17Z</time>
      </trkpt>
      <trkpt lat="45.97147" lon="4.71702">
        <ele>195</ele>
        <time>2018-03-14T09:39:18Z</time>
      </trkpt>
      <trkpt lat="45.97152" lon="4.71702">
        <ele>195</ele>
        <time>2018-03-14T09:39:19Z</time>
      </trkpt>
      <trkpt lat="45.97157" lon="4.71703">
        <ele>195</ele>
        <time>2018-03-14T09:39:20Z</time>
      </trkpt>
      <trkpt lat="45.97162" lon="4.71704">
        <ele>195</ele>
        <time>2018-03-14T09:39:21Z</time>
      </trkpt>
      <trkpt lat="45.97168" lon="4.71705">
        <ele>196</ele>
        <time>2018-03-14T09:39:22Z</time>
      </trkpt>
      <trkpt lat="45.97174" lon="4.71706">
        <ele>196</ele>
        <time>2018-03-14T09:39:23Z</time>
      </trkpt>
      <trkpt lat="45.97179" lon="4.71707">
        <ele>196</ele>
        <time>2018-03-14T09:39:24Z</time>
      </trkpt>
      <trkpt lat="45.97184" lon="4.71707">
        <ele>196</ele>
        <time>2018-03-14T09:39:25Z</time>
      </trkpt>
      <trkpt lat="45.97189" lon="4.71707">
        <ele>196</ele>
        <time>2018-03-14T09:39:26Z</time>
      </trkpt>
      <trkpt lat="45.97193" lon="4.71708">
        <ele>196</ele>
        <time>2018-03-14T09:39:27Z</time>
      </trkpt>
      <trkpt lat="45.97198" lon="4.71708">
        <ele>196</ele>
        <time>2018-03-14T09:39:28Z</time>
      </trkpt>
      <trkpt lat="45.97203" lon="4.71709">
        <ele>196</ele>
        <time>2018-03-14T09:39:29Z</time>
      </trkpt>
      <trkpt lat="45.97208" lon="4.71709">
        <ele>196</ele>
        <time>2018-03-14T09:39:30Z</time>
      </trkpt>
      <trkpt lat="45.97213" lon="4.71709">
        <ele>196</ele>
        <time>2018-03-14T09:39:31Z</time>
      </trkpt>
      <trkpt lat="45.97218" lon="4.71709">
        <ele>196</ele>
        <time>2018-03-14T09:39:32Z</time>
      </trkpt>
      <trkpt lat="45.97222" lon="4.7171">
        <ele>196</ele>
        <time>2018-03-14T09:39:33Z</time>
      </trkpt>
      <trkpt lat="45.97228" lon="4.71712">
        <ele>196</ele>
        <time>2018-03-14T09:39:34Z</time>
      </trkpt>
      <trkpt lat="45.97233" lon="4.71712">
        <ele>196</ele>
        <time>2018-03-14T09:39:35Z</time>
      </trkpt>
      <trkpt lat="45.97239" lon="4.71712">
        <ele>196</ele>
        <time>2018-03-14T09:39:36Z</time>
      </trkpt>
      <trkpt lat="45.97244" lon="4.71713">
        <ele>196</ele>
        <time>2018-03-14T09:39:37Z</time>
      </trkpt>
      <trkpt lat="45.9725" lon="4.71713">
        <ele>196</ele>
        <time>2018-03-14T09:39:38Z</time>
      </trkpt>
      <trkpt lat="45.97254" lon="4.71714">
        <ele>196</ele>
        <time>2018-03-14T09:39:39Z</time>
      </trkpt>
      <trkpt lat="45.97259" lon="4.71715">
        <ele>196</ele>
        <time>2018-03-14T09:39:40Z</time>
      </trkpt>
      <trkpt lat="45.97263" lon="4.71716">
        <ele>196</ele>
        <time>2018-03-14T09:39:41Z</time>
      </trkpt>
      <trkpt lat="45.97269" lon="4.71717">
        <ele>196</ele>
        <time>2018-03-14T09:39:42Z</time>
      </trkpt>
      <trkpt lat="45.97274" lon="4.71718">
        <ele>196</ele>
        <time>2018-03-14T09:39:43Z</time>
      </trkpt>
      <trkpt lat="45.97278" lon="4.71719">
        <ele>196</ele>
        <time>2018-03-14T09:39:44Z</time>
      </trkpt>
      <trkpt lat="45.97284" lon="4.71721">
        <ele>196</ele>
        <time>2018-03-14T09:39:45Z</time>
      </trkpt>
      <trkpt lat="45.97288" lon="4.71724">
        <ele>196</ele>
        <time>2018-03-14T09:39:46Z</time>
      </trkpt>
      <trkpt lat="45.97291" lon="4.7173">
        <ele>196</ele>
        <time>2018-03-14T09:39:47Z</time>
      </trkpt>
      <trkpt lat="45.97295" lon="4.71734">
        <ele>196</ele>
        <time>2018-03-14T09:39:48Z</time>
      </trkpt>
      <trkpt lat="45.973" lon="4.71737">
        <ele>196</ele>
        <time>2018-03-14T09:39:49Z</time>
      </trkpt>
      <trkpt lat="45.97304" lon="4.71739">
        <ele>196</ele>
        <time>2018-03-14T09:39:50Z</time>
      </trkpt>
      <trkpt lat="45.97309" lon="4.71739">
        <ele>195</ele>
        <time>2018-03-14T09:39:51Z</time>
      </trkpt>
      <trkpt lat="45.97314" lon="4.71737">
        <ele>195</ele>
        <time>2018-03-14T09:39:52Z</time>
      </trkpt>
      <trkpt lat="45.97319" lon="4.71734">
        <ele>195</ele>
        <time>2018-03-14T09:39:53Z</time>
      </trkpt>
      <trkpt lat="45.97323" lon="4.7173">
        <ele>195</ele>
        <time>2018-03-14T09:39:54Z</time>
      </trkpt>
      <trkpt lat="45.97328" lon="4.71725">
        <ele>195</ele>
        <time>2018-03-14T09:39:55Z</time>
      </trkpt>
      <trkpt lat="45.97332" lon="4.71722">
        <ele>196</ele>
        <time>2018-03-14T09:39:56Z</time>
      </trkpt>
      <trkpt lat="45.9734" lon="4.71721">
        <ele>195</ele>
        <time>2018-03-14T09:39:58Z</time>
      </trkpt>
      <trkpt lat="45.97344" lon="4.71722">
        <ele>195</ele>
        <time>2018-03-14T09:39:59Z</time>
      </trkpt>
      <trkpt lat="45.97349" lon="4.71723">
        <ele>195</ele>
        <time>2018-03-14T09:40:00Z</time>
      </trkpt>
      <trkpt lat="45.97354" lon="4.71723">
        <ele>195</ele>
        <time>2018-03-14T09:40:01Z</time>
      </trkpt>
      <trkpt lat="45.97358" lon="4.71723">
        <ele>195</ele>
        <time>2018-03-14T09:40:02Z</time>
      </trkpt>
      <trkpt lat="45.97363" lon="4.71724">
        <ele>195</ele>
        <time>2018-03-14T09:40:03Z</time>
      </trkpt>
      <trkpt lat="45.97367" lon="4.71724">
        <ele>195</ele>
        <time>2018-03-14T09:40:04Z</time>
      </trkpt>
      <trkpt lat="45.97373" lon="4.71724">
        <ele>195</ele>
        <time>2018-03-14T09:40:05Z</time>
      </trkpt>
      <trkpt lat="45.97378" lon="4.71724">
        <ele>195</ele>
        <time>2018-03-14T09:40:06Z</time>
      </trkpt>
      <trkpt lat="45.97383" lon="4.71725">
        <ele>195</ele>
        <time>2018-03-14T09:40:07Z</time>
      </trkpt>
      <trkpt lat="45.97388" lon="4.71725">
        <ele>195</ele>
        <time>2018-03-14T09:40:08Z</time>
      </trkpt>
      <trkpt lat="45.97392" lon="4.71726">
        <ele>195</ele>
        <time>2018-03-14T09:40:09Z</time>
      </trkpt>
      <trkpt lat="45.97398" lon="4.71726">
        <ele>195</ele>
        <time>2018-03-14T09:40:10Z</time>
      </trkpt>
      <trkpt lat="45.97403" lon="4.71726">
        <ele>195</ele>
        <time>2018-03-14T09:40:11Z</time>
      </trkpt>
      <trkpt lat="45.97408" lon="4.71727">
        <ele>195</ele>
        <time>2018-03-14T09:40:12Z</time>
      </trkpt>
      <trkpt lat="45.97413" lon="4.71727">
        <ele>194</ele>
        <time>2018-03-14T09:40:13Z</time>
      </trkpt>
      <trkpt lat="45.97418" lon="4.71727">
        <ele>195</ele>
        <time>2018-03-14T09:40:14Z</time>
      </trkpt>
      <trkpt lat="45.97423" lon="4.71727">
        <ele>196</ele>
        <time>2018-03-14T09:40:15Z</time>
      </trkpt>
      <trkpt lat="45.97427" lon="4.71728">
        <ele>196</ele>
        <time>2018-03-14T09:40:16Z</time>
      </trkpt>
      <trkpt lat="45.97432" lon="4.71728">
        <ele>196</ele>
        <time>2018-03-14T09:40:17Z</time>
      </trkpt>
      <trkpt lat="45.9744" lon="4.71729">
        <ele>196</ele>
        <time>2018-03-14T09:40:19Z</time>
      </trkpt>
      <trkpt lat="45.97445" lon="4.71728">
        <ele>196</ele>
        <time>2018-03-14T09:40:20Z</time>
      </trkpt>
      <trkpt lat="45.9745" lon="4.71729">
        <ele>196</ele>
        <time>2018-03-14T09:40:21Z</time>
      </trkpt>
      <trkpt lat="45.97455" lon="4.71729">
        <ele>197</ele>
        <time>2018-03-14T09:40:22Z</time>
      </trkpt>
      <trkpt lat="45.9746" lon="4.71729">
        <ele>197</ele>
        <time>2018-03-14T09:40:23Z</time>
      </trkpt>
      <trkpt lat="45.97466" lon="4.7173">
        <ele>197</ele>
        <time>2018-03-14T09:40:24Z</time>
      </trkpt>
      <trkpt lat="45.97471" lon="4.7173">
        <ele>197</ele>
        <time>2018-03-14T09:40:25Z</time>
      </trkpt>
      <trkpt lat="45.97477" lon="4.7173">
        <ele>197</ele>
        <time>2018-03-14T09:40:26Z</time>
      </trkpt>
      <trkpt lat="45.97482" lon="4.71731">
        <ele>197</ele>
        <time>2018-03-14T09:40:27Z</time>
      </trkpt>
      <trkpt lat="45.97487" lon="4.71732">
        <ele>197</ele>
        <time>2018-03-14T09:40:28Z</time>
      </trkpt>
      <trkpt lat="45.97492" lon="4.71732">
        <ele>197</ele>
        <time>2018-03-14T09:40:29Z</time>
      </trkpt>
      <trkpt lat="45.97498" lon="4.71732">
        <ele>197</ele>
        <time>2018-03-14T09:40:30Z</time>
      </trkpt>
      <trkpt lat="45.97503" lon="4.71732">
        <ele>197</ele>
        <time>2018-03-14T09:40:31Z</time>
      </trkpt>
      <trkpt lat="45.97508" lon="4.71733">
        <ele>197</ele>
        <time>2018-03-14T09:40:32Z</time>
      </trkpt>
      <trkpt lat="45.97513" lon="4.71733">
        <ele>198</ele>
        <time>2018-03-14T09:40:33Z</time>
      </trkpt>
      <trkpt lat="45.97519" lon="4.71734">
        <ele>198</ele>
        <time>2018-03-14T09:40:34Z</time>
      </trkpt>
      <trkpt lat="45.97525" lon="4.71734">
        <ele>198</ele>
        <time>2018-03-14T09:40:35Z</time>
      </trkpt>
      <trkpt lat="45.97531" lon="4.71735">
        <ele>198</ele>
        <time>2018-03-14T09:40:36Z</time>
      </trkpt>
      <trkpt lat="45.97537" lon="4.71735">
        <ele>198</ele>
        <time>2018-03-14T09:40:37Z</time>
      </trkpt>
      <trkpt lat="45.97542" lon="4.71735">
        <ele>198</ele>
        <time>2018-03-14T09:40:38Z</time>
      </trkpt>
      <trkpt lat="45.97548" lon="4.71735">
        <ele>198</ele>
        <time>2018-03-14T09:40:39Z</time>
      </trkpt>
      <trkpt lat="45.97554" lon="4.71736">
        <ele>197</ele>
        <time>2018-03-14T09:40:40Z</time>
      </trkpt>
      <trkpt lat="45.97559" lon="4.71736">
        <ele>197</ele>
        <time>2018-03-14T09:40:41Z</time>
      </trkpt>
      <trkpt lat="45.97563" lon="4.71737">
        <ele>197</ele>
        <time>2018-03-14T09:40:42Z</time>
      </trkpt>
      <trkpt lat="45.9757" lon="4.71739">
        <ele>197</ele>
        <time>2018-03-14T09:40:43Z</time>
      </trkpt>
      <trkpt lat="45.97576" lon="4.71739">
        <ele>196</ele>
        <time>2018-03-14T09:40:44Z</time>
      </trkpt>
      <trkpt lat="45.97582" lon="4.71739">
        <ele>196</ele>
        <time>2018-03-14T09:40:45Z</time>
      </trkpt>
      <trkpt lat="45.97587" lon="4.71739">
        <ele>196</ele>
        <time>2018-03-14T09:40:46Z</time>
      </trkpt>
      <trkpt lat="45.97592" lon="4.71741">
        <ele>196</ele>
        <time>2018-03-14T09:40:47Z</time>
      </trkpt>
      <trkpt lat="45.97596" lon="4.71745">
        <ele>196</ele>
        <time>2018-03-14T09:40:48Z</time>
      </trkpt>
      <trkpt lat="45.976" lon="4.7175">
        <ele>196</ele>
        <time>2018-03-14T09:40:49Z</time>
      </trkpt>
      <trkpt lat="45.97605" lon="4.71754">
        <ele>194</ele>
        <time>2018-03-14T09:40:50Z</time>
      </trkpt>
      <trkpt lat="45.97609" lon="4.71758">
        <ele>194</ele>
        <time>2018-03-14T09:40:51Z</time>
      </trkpt>
      <trkpt lat="45.97614" lon="4.7176">
        <ele>194</ele>
        <time>2018-03-14T09:40:52Z</time>
      </trkpt>
      <trkpt lat="45.97621" lon="4.71759">
        <ele>194</ele>
        <time>2018-03-14T09:40:53Z</time>
      </trkpt>
      <trkpt lat="45.97626" lon="4.71758">
        <ele>194</ele>
        <time>2018-03-14T09:40:54Z</time>
      </trkpt>
      <trkpt lat="45.97633" lon="4.71753">
        <ele>194</ele>
        <time>2018-03-14T09:40:56Z</time>
      </trkpt>
      <trkpt lat="45.97636" lon="4.71751">
        <ele>194</ele>
        <time>2018-03-14T09:40:57Z</time>
      </trkpt>
      <trkpt lat="45.97645" lon="4.71748">
        <ele>196</ele>
        <time>2018-03-14T09:40:59Z</time>
      </trkpt>
      <trkpt lat="45.97648" lon="4.71749">
        <ele>195</ele>
        <time>2018-03-14T09:41:00Z</time>
      </trkpt>
      <trkpt lat="45.97654" lon="4.7175">
        <ele>195</ele>
        <time>2018-03-14T09:41:01Z</time>
      </trkpt>
      <trkpt lat="45.97658" lon="4.7175">
        <ele>195</ele>
        <time>2018-03-14T09:41:02Z</time>
      </trkpt>
      <trkpt lat="45.97664" lon="4.7175">
        <ele>194</ele>
        <time>2018-03-14T09:41:03Z</time>
      </trkpt>
      <trkpt lat="45.9767" lon="4.7175">
        <ele>194</ele>
        <time>2018-03-14T09:41:04Z</time>
      </trkpt>
      <trkpt lat="45.97675" lon="4.71752">
        <ele>194</ele>
        <time>2018-03-14T09:41:05Z</time>
      </trkpt>
      <trkpt lat="45.9768" lon="4.71751">
        <ele>194</ele>
        <time>2018-03-14T09:41:06Z</time>
      </trkpt>
      <trkpt lat="45.97685" lon="4.71751">
        <ele>194</ele>
        <time>2018-03-14T09:41:07Z</time>
      </trkpt>
      <trkpt lat="45.97691" lon="4.71752">
        <ele>195</ele>
        <time>2018-03-14T09:41:08Z</time>
      </trkpt>
      <trkpt lat="45.97697" lon="4.71752">
        <ele>195</ele>
        <time>2018-03-14T09:41:09Z</time>
      </trkpt>
      <trkpt lat="45.97704" lon="4.71753">
        <ele>195</ele>
        <time>2018-03-14T09:41:10Z</time>
      </trkpt>
      <trkpt lat="45.9771" lon="4.71754">
        <ele>195</ele>
        <time>2018-03-14T09:41:11Z</time>
      </trkpt>
      <trkpt lat="45.97715" lon="4.71753">
        <ele>195</ele>
        <time>2018-03-14T09:41:12Z</time>
      </trkpt>
      <trkpt lat="45.9772" lon="4.71754">
        <ele>195</ele>
        <time>2018-03-14T09:41:13Z</time>
      </trkpt>
      <trkpt lat="45.97724" lon="4.71754">
        <ele>195</ele>
        <time>2018-03-14T09:41:14Z</time>
      </trkpt>
      <trkpt lat="45.97729" lon="4.71755">
        <ele>195</ele>
        <time>2018-03-14T09:41:15Z</time>
      </trkpt>
      <trkpt lat="45.97736" lon="4.71757">
        <ele>195</ele>
        <time>2018-03-14T09:41:16Z</time>
      </trkpt>
      <trkpt lat="45.97741" lon="4.71756">
        <ele>196</ele>
        <time>2018-03-14T09:41:17Z</time>
      </trkpt>
      <trkpt lat="45.97746" lon="4.71755">
        <ele>196</ele>
        <time>2018-03-14T09:41:18Z</time>
      </trkpt>
      <trkpt lat="45.97753" lon="4.71757">
        <ele>196</ele>
        <time>2018-03-14T09:41:19Z</time>
      </trkpt>
      <trkpt lat="45.97759" lon="4.71758">
        <ele>196</ele>
        <time>2018-03-14T09:41:20Z</time>
      </trkpt>
      <trkpt lat="45.97766" lon="4.71759">
        <ele>195</ele>
        <time>2018-03-14T09:41:21Z</time>
      </trkpt>
      <trkpt lat="45.97772" lon="4.7176">
        <ele>195</ele>
        <time>2018-03-14T09:41:22Z</time>
      </trkpt>
      <trkpt lat="45.97778" lon="4.7176">
        <ele>195</ele>
        <time>2018-03-14T09:41:23Z</time>
      </trkpt>
      <trkpt lat="45.97782" lon="4.71762">
        <ele>195</ele>
        <time>2018-03-14T09:41:24Z</time>
      </trkpt>
      <trkpt lat="45.97789" lon="4.71763">
        <ele>195</ele>
        <time>2018-03-14T09:41:25Z</time>
      </trkpt>
      <trkpt lat="45.97795" lon="4.71763">
        <ele>195</ele>
        <time>2018-03-14T09:41:26Z</time>
      </trkpt>
      <trkpt lat="45.978" lon="4.71763">
        <ele>195</ele>
        <time>2018-03-14T09:41:27Z</time>
      </trkpt>
      <trkpt lat="45.97806" lon="4.71764">
        <ele>195</ele>
        <time>2018-03-14T09:41:28Z</time>
      </trkpt>
      <trkpt lat="45.97812" lon="4.71765">
        <ele>195</ele>
        <time>2018-03-14T09:41:29Z</time>
      </trkpt>
      <trkpt lat="45.97818" lon="4.71764">
        <ele>195</ele>
        <time>2018-03-14T09:41:30Z</time>
      </trkpt>
      <trkpt lat="45.97823" lon="4.71765">
        <ele>195</ele>
        <time>2018-03-14T09:41:31Z</time>
      </trkpt>
      <trkpt lat="45.97828" lon="4.71766">
        <ele>195</ele>
        <time>2018-03-14T09:41:32Z</time>
      </trkpt>
      <trkpt lat="45.97834" lon="4.71765">
        <ele>195</ele>
        <time>2018-03-14T09:41:33Z</time>
      </trkpt>
      <trkpt lat="45.97839" lon="4.71765">
        <ele>195</ele>
        <time>2018-03-14T09:41:34Z</time>
      </trkpt>
      <trkpt lat="45.97847" lon="4.71766">
        <ele>195</ele>
        <time>2018-03-14T09:41:36Z</time>
      </trkpt>
      <trkpt lat="45.97849" lon="4.71766">
        <ele>195</ele>
        <time>2018-03-14T09:41:37Z</time>
      </trkpt>
      <trkpt lat="45.97855" lon="4.71772">
        <ele>194</ele>
        <time>2018-03-14T09:41:41Z</time>
      </trkpt>
      <trkpt lat="45.97861" lon="4.71779">
        <ele>194</ele>
        <time>2018-03-14T09:41:42Z</time>
      </trkpt>
      <trkpt lat="45.97867" lon="4.71784">
        <ele>194</ele>
        <time>2018-03-14T09:41:44Z</time>
      </trkpt>
      <trkpt lat="45.97871" lon="4.71786">
        <ele>194</ele>
        <time>2018-03-14T09:41:45Z</time>
      </trkpt>
      <trkpt lat="45.9788" lon="4.71788">
        <ele>194</ele>
        <time>2018-03-14T09:41:47Z</time>
      </trkpt>
      <trkpt lat="45.97884" lon="4.71787">
        <ele>194</ele>
        <time>2018-03-14T09:41:48Z</time>
      </trkpt>
      <trkpt lat="45.97889" lon="4.71783">
        <ele>194</ele>
        <time>2018-03-14T09:41:49Z</time>
      </trkpt>
      <trkpt lat="45.97893" lon="4.71778">
        <ele>194</ele>
        <time>2018-03-14T09:41:50Z</time>
      </trkpt>
      <trkpt lat="45.97896" lon="4.71773">
        <ele>194</ele>
        <time>2018-03-14T09:41:51Z</time>
      </trkpt>
      <trkpt lat="45.97899" lon="4.71768">
        <ele>195</ele>
        <time>2018-03-14T09:41:52Z</time>
      </trkpt>
      <trkpt lat="45.97902" lon="4.71761">
        <ele>195</ele>
        <time>2018-03-14T09:41:53Z</time>
      </trkpt>
      <trkpt lat="45.97902" lon="4.71752">
        <ele>195</ele>
        <time>2018-03-14T09:41:54Z</time>
      </trkpt>
      <trkpt lat="45.97904" lon="4.71745">
        <ele>195</ele>
        <time>2018-03-14T09:41:55Z</time>
      </trkpt>
      <trkpt lat="45.97904" lon="4.71738">
        <ele>196</ele>
        <time>2018-03-14T09:41:56Z</time>
      </trkpt>
      <trkpt lat="45.97903" lon="4.71731">
        <ele>196</ele>
        <time>2018-03-14T09:41:57Z</time>
      </trkpt>
      <trkpt lat="45.97904" lon="4.71723">
        <ele>196</ele>
        <time>2018-03-14T09:41:58Z</time>
      </trkpt>
      <trkpt lat="45.97905" lon="4.71717">
        <ele>196</ele>
        <time>2018-03-14T09:41:59Z</time>
      </trkpt>
      <trkpt lat="45.97906" lon="4.7171">
        <ele>196</ele>
        <time>2018-03-14T09:42:00Z</time>
      </trkpt>
      <trkpt lat="45.97909" lon="4.71704">
        <ele>196</ele>
        <time>2018-03-14T09:42:01Z</time>
      </trkpt>
      <trkpt lat="45.97912" lon="4.71699">
        <ele>196</ele>
        <time>2018-03-14T09:42:02Z</time>
      </trkpt>
      <trkpt lat="45.97915" lon="4.71694">
        <ele>196</ele>
        <time>2018-03-14T09:42:03Z</time>
      </trkpt>
      <trkpt lat="45.9792" lon="4.7169">
        <ele>196</ele>
        <time>2018-03-14T09:42:04Z</time>
      </trkpt>
      <trkpt lat="45.97924" lon="4.71686">
        <ele>196</ele>
        <time>2018-03-14T09:42:05Z</time>
      </trkpt>
      <trkpt lat="45.97929" lon="4.71682">
        <ele>196</ele>
        <time>2018-03-14T09:42:06Z</time>
      </trkpt>
      <trkpt lat="45.97933" lon="4.71679">
        <ele>197</ele>
        <time>2018-03-14T09:42:07Z</time>
      </trkpt>
      <trkpt lat="45.97938" lon="4.71675">
        <ele>197</ele>
        <time>2018-03-14T09:42:08Z</time>
      </trkpt>
      <trkpt lat="45.97942" lon="4.71671">
        <ele>197</ele>
        <time>2018-03-14T09:42:09Z</time>
      </trkpt>
      <trkpt lat="45.97947" lon="4.71668">
        <ele>197</ele>
        <time>2018-03-14T09:42:10Z</time>
      </trkpt>
      <trkpt lat="45.97952" lon="4.71664">
        <ele>197</ele>
        <time>2018-03-14T09:42:11Z</time>
      </trkpt>
      <trkpt lat="45.97957" lon="4.7166">
        <ele>197</ele>
        <time>2018-03-14T09:42:12Z</time>
      </trkpt>
      <trkpt lat="45.97961" lon="4.71656">
        <ele>197</ele>
        <time>2018-03-14T09:42:13Z</time>
      </trkpt>
      <trkpt lat="45.97966" lon="4.71652">
        <ele>197</ele>
        <time>2018-03-14T09:42:14Z</time>
      </trkpt>
      <trkpt lat="45.97971" lon="4.71648">
        <ele>197</ele>
        <time>2018-03-14T09:42:15Z</time>
      </trkpt>
      <trkpt lat="45.97975" lon="4.71645">
        <ele>197</ele>
        <time>2018-03-14T09:42:16Z</time>
      </trkpt>
      <trkpt lat="45.9798" lon="4.71641">
        <ele>197</ele>
        <time>2018-03-14T09:42:17Z</time>
      </trkpt>
      <trkpt lat="45.97983" lon="4.71639">
        <ele>197</ele>
        <time>2018-03-14T09:42:18Z</time>
      </trkpt>
      <trkpt lat="45.97988" lon="4.71635">
        <ele>198</ele>
        <time>2018-03-14T09:42:19Z</time>
      </trkpt>
      <trkpt lat="45.97992" lon="4.71631">
        <ele>198</ele>
        <time>2018-03-14T09:42:20Z</time>
      </trkpt>
      <trkpt lat="45.97996" lon="4.71628">
        <ele>198</ele>
        <time>2018-03-14T09:42:21Z</time>
      </trkpt>
      <trkpt lat="45.98" lon="4.71625">
        <ele>198</ele>
        <time>2018-03-14T09:42:22Z</time>
      </trkpt>
      <trkpt lat="45.98008" lon="4.71619">
        <ele>198</ele>
        <time>2018-03-14T09:42:24Z</time>
      </trkpt>
      <trkpt lat="45.98012" lon="4.71616">
        <ele>198</ele>
        <time>2018-03-14T09:42:25Z</time>
      </trkpt>
      <trkpt lat="45.98018" lon="4.71613">
        <ele>198</ele>
        <time>2018-03-14T09:42:27Z</time>
      </trkpt>
      <trkpt lat="45.98022" lon="4.7161">
        <ele>198</ele>
        <time>2018-03-14T09:42:28Z</time>
      </trkpt>
      <trkpt lat="45.9803" lon="4.71604">
        <ele>198</ele>
        <time>2018-03-14T09:42:30Z</time>
      </trkpt>
      <trkpt lat="45.98034" lon="4.71601">
        <ele>198</ele>
        <time>2018-03-14T09:42:31Z</time>
      </trkpt>
      <trkpt lat="45.98041" lon="4.71595">
        <ele>198</ele>
        <time>2018-03-14T09:42:33Z</time>
      </trkpt>
      <trkpt lat="45.98042" lon="4.71594">
        <ele>198</ele>
        <time>2018-03-14T09:42:34Z</time>
      </trkpt>
      <trkpt lat="45.98049" lon="4.71588">
        <ele>198</ele>
        <time>2018-03-14T09:42:38Z</time>
      </trkpt>
      <trkpt lat="45.98051" lon="4.71586">
        <ele>198</ele>
        <time>2018-03-14T09:42:39Z</time>
      </trkpt>
      <trkpt lat="45.98057" lon="4.71579">
        <ele>198</ele>
        <time>2018-03-14T09:42:42Z</time>
      </trkpt>
      <trkpt lat="45.98059" lon="4.71577">
        <ele>198</ele>
        <time>2018-03-14T09:42:43Z</time>
      </trkpt>
      <trkpt lat="45.98066" lon="4.71573">
        <ele>198</ele>
        <time>2018-03-14T09:42:46Z</time>
      </trkpt>
      <trkpt lat="45.98068" lon="4.71573">
        <ele>198</ele>
        <time>2018-03-14T09:42:47Z</time>
      </trkpt>
      <trkpt lat="45.98074" lon="4.71569">
        <ele>198</ele>
        <time>2018-03-14T09:42:50Z</time>
      </trkpt>
      <trkpt lat="45.98076" lon="4.71567">
        <ele>198</ele>
        <time>2018-03-14T09:42:51Z</time>
      </trkpt>
      <trkpt lat="45.98084" lon="4.71561">
        <ele>198</ele>
        <time>2018-03-14T09:42:52Z</time>
      </trkpt>
      <trkpt lat="45.98092" lon="4.71555">
        <ele>198</ele>
        <time>2018-03-14T09:42:54Z</time>
      </trkpt>
      <trkpt lat="45.98095" lon="4.71552">
        <ele>197</ele>
        <time>2018-03-14T09:42:55Z</time>
      </trkpt>
      <trkpt lat="45.98098" lon="4.71548">
        <ele>197</ele>
        <time>2018-03-14T09:42:56Z</time>
      </trkpt>
      <trkpt lat="45.98101" lon="4.71542">
        <ele>197</ele>
        <time>2018-03-14T09:42:57Z</time>
      </trkpt>
      <trkpt lat="45.98106" lon="4.71541">
        <ele>197</ele>
        <time>2018-03-14T09:42:58Z</time>
      </trkpt>
      <trkpt lat="45.98111" lon="4.71541">
        <ele>197</ele>
        <time>2018-03-14T09:42:59Z</time>
      </trkpt>
      <trkpt lat="45.98118" lon="4.71538">
        <ele>197</ele>
        <time>2018-03-14T09:43:00Z</time>
      </trkpt>
      <trkpt lat="45.98125" lon="4.71534">
        <ele>197</ele>
        <time>2018-03-14T09:43:01Z</time>
      </trkpt>
      <trkpt lat="45.9813" lon="4.71531">
        <ele>197</ele>
        <time>2018-03-14T09:43:02Z</time>
      </trkpt>
      <trkpt lat="45.98136" lon="4.71529">
        <ele>197</ele>
        <time>2018-03-14T09:43:03Z</time>
      </trkpt>
      <trkpt lat="45.98142" lon="4.71525">
        <ele>197</ele>
        <time>2018-03-14T09:43:04Z</time>
      </trkpt>
      <trkpt lat="45.98148" lon="4.71521">
        <ele>197</ele>
        <time>2018-03-14T09:43:05Z</time>
      </trkpt>
      <trkpt lat="45.98154" lon="4.71517">
        <ele>197</ele>
        <time>2018-03-14T09:43:06Z</time>
      </trkpt>
      <trkpt lat="45.9816" lon="4.71514">
        <ele>197</ele>
        <time>2018-03-14T09:43:07Z</time>
      </trkpt>
      <trkpt lat="45.98166" lon="4.71511">
        <ele>197</ele>
        <time>2018-03-14T09:43:08Z</time>
      </trkpt>
      <trkpt lat="45.98172" lon="4.71509">
        <ele>197</ele>
        <time>2018-03-14T09:43:09Z</time>
      </trkpt>
      <trkpt lat="45.98178" lon="4.71507">
        <ele>197</ele>
        <time>2018-03-14T09:43:10Z</time>
      </trkpt>
      <trkpt lat="45.98184" lon="4.71507">
        <ele>197</ele>
        <time>2018-03-14T09:43:11Z</time>
      </trkpt>
      <trkpt lat="45.98191" lon="4.71507">
        <ele>197</ele>
        <time>2018-03-14T09:43:12Z</time>
      </trkpt>
      <trkpt lat="45.98197" lon="4.71508">
        <ele>197</ele>
        <time>2018-03-14T09:43:13Z</time>
      </trkpt>
      <trkpt lat="45.98203" lon="4.71509">
        <ele>197</ele>
        <time>2018-03-14T09:43:14Z</time>
      </trkpt>
      <trkpt lat="45.9821" lon="4.7151">
        <ele>196</ele>
        <time>2018-03-14T09:43:15Z</time>
      </trkpt>
      <trkpt lat="45.98215" lon="4.71513">
        <ele>196</ele>
        <time>2018-03-14T09:43:16Z</time>
      </trkpt>
      <trkpt lat="45.9822" lon="4.71516">
        <ele>196</ele>
        <time>2018-03-14T09:43:17Z</time>
      </trkpt>
      <trkpt lat="45.98226" lon="4.71519">
        <ele>196</ele>
        <time>2018-03-14T09:43:18Z</time>
      </trkpt>
      <trkpt lat="45.98232" lon="4.71521">
        <ele>196</ele>
        <time>2018-03-14T09:43:19Z</time>
      </trkpt>
      <trkpt lat="45.98237" lon="4.71525">
        <ele>196</ele>
        <time>2018-03-14T09:43:20Z</time>
      </trkpt>
      <trkpt lat="45.98243" lon="4.71528">
        <ele>196</ele>
        <time>2018-03-14T09:43:21Z</time>
      </trkpt>
      <trkpt lat="45.98249" lon="4.71533">
        <ele>196</ele>
        <time>2018-03-14T09:43:22Z</time>
      </trkpt>
      <trkpt lat="45.98255" lon="4.71537">
        <ele>197</ele>
        <time>2018-03-14T09:43:23Z</time>
      </trkpt>
      <trkpt lat="45.9826" lon="4.71537">
        <ele>197</ele>
        <time>2018-03-14T09:43:24Z</time>
      </trkpt>
      <trkpt lat="45.98265" lon="4.71541">
        <ele>197</ele>
        <time>2018-03-14T09:43:25Z</time>
      </trkpt>
      <trkpt lat="45.98271" lon="4.71545">
        <ele>197</ele>
        <time>2018-03-14T09:43:26Z</time>
      </trkpt>
      <trkpt lat="45.98277" lon="4.71549">
        <ele>198</ele>
        <time>2018-03-14T09:43:27Z</time>
      </trkpt>
      <trkpt lat="45.98282" lon="4.71552">
        <ele>198</ele>
        <time>2018-03-14T09:43:28Z</time>
      </trkpt>
      <trkpt lat="45.98286" lon="4.71554">
        <ele>198</ele>
        <time>2018-03-14T09:43:29Z</time>
      </trkpt>
      <trkpt lat="45.98292" lon="4.71558">
        <ele>198</ele>
        <time>2018-03-14T09:43:30Z</time>
      </trkpt>
      <trkpt lat="45.98298" lon="4.71562">
        <ele>198</ele>
        <time>2018-03-14T09:43:31Z</time>
      </trkpt>
      <trkpt lat="45.98303" lon="4.71566">
        <ele>198</ele>
        <time>2018-03-14T09:43:32Z</time>
      </trkpt>
      <trkpt lat="45.98307" lon="4.71567">
        <ele>198</ele>
        <time>2018-03-14T09:43:33Z</time>
      </trkpt>
      <trkpt lat="45.98312" lon="4.7157">
        <ele>198</ele>
        <time>2018-03-14T09:43:34Z</time>
      </trkpt>
      <trkpt lat="45.98318" lon="4.71573">
        <ele>198</ele>
        <time>2018-03-14T09:43:35Z</time>
      </trkpt>
      <trkpt lat="45.98323" lon="4.71577">
        <ele>199</ele>
        <time>2018-03-14T09:43:36Z</time>
      </trkpt>
      <trkpt lat="45.98329" lon="4.71582">
        <ele>199</ele>
        <time>2018-03-14T09:43:37Z</time>
      </trkpt>
      <trkpt lat="45.98334" lon="4.71584">
        <ele>199</ele>
        <time>2018-03-14T09:43:38Z</time>
      </trkpt>
      <trkpt lat="45.98339" lon="4.71588">
        <ele>199</ele>
        <time>2018-03-14T09:43:39Z</time>
      </trkpt>
      <trkpt lat="45.98343" lon="4.71592">
        <ele>198</ele>
        <time>2018-03-14T09:43:40Z</time>
      </trkpt>
      <trkpt lat="45.98348" lon="4.71595">
        <ele>198</ele>
        <time>2018-03-14T09:43:41Z</time>
      </trkpt>
      <trkpt lat="45.98353" lon="4.71598">
        <ele>198</ele>
        <time>2018-03-14T09:43:42Z</time>
      </trkpt>
      <trkpt lat="45.98357" lon="4.71601">
        <ele>198</ele>
        <time>2018-03-14T09:43:43Z</time>
      </trkpt>
      <trkpt lat="45.98362" lon="4.71603">
        <ele>198</ele>
        <time>2018-03-14T09:43:44Z</time>
      </trkpt>
      <trkpt lat="45.98366" lon="4.71605">
        <ele>198</ele>
        <time>2018-03-14T09:43:45Z</time>
      </trkpt>
      <trkpt lat="45.98374" lon="4.71607">
        <ele>198</ele>
        <time>2018-03-14T09:43:47Z</time>
      </trkpt>
      <trkpt lat="45.98378" lon="4.71606">
        <ele>198</ele>
        <time>2018-03-14T09:43:48Z</time>
      </trkpt>
      <trkpt lat="45.98387" lon="4.71603">
        <ele>198</ele>
        <time>2018-03-14T09:43:50Z</time>
      </trkpt>
      <trkpt lat="45.9839" lon="4.716">
        <ele>198</ele>
        <time>2018-03-14T09:43:51Z</time>
      </trkpt>
      <trkpt lat="45.98395" lon="4.71597">
        <ele>198</ele>
        <time>2018-03-14T09:43:52Z</time>
      </trkpt>
      <trkpt lat="45.98399" lon="4.71593">
        <ele>197</ele>
        <time>2018-03-14T09:43:53Z</time>
      </trkpt>
      <trkpt lat="45.98402" lon="4.7159">
        <ele>197</ele>
        <time>2018-03-14T09:43:54Z</time>
      </trkpt>
      <trkpt lat="45.98406" lon="4.71585">
        <ele>197</ele>
        <time>2018-03-14T09:43:55Z</time>
      </trkpt>
      <trkpt lat="45.9841" lon="4.71581">
        <ele>197</ele>
        <time>2018-03-14T09:43:56Z</time>
      </trkpt>
      <trkpt lat="45.98414" lon="4.71576">
        <ele>197</ele>
        <time>2018-03-14T09:43:57Z</time>
      </trkpt>
      <trkpt lat="45.98418" lon="4.71572">
        <ele>197</ele>
        <time>2018-03-14T09:43:58Z</time>
      </trkpt>
      <trkpt lat="45.98422" lon="4.71567">
        <ele>197</ele>
        <time>2018-03-14T09:43:59Z</time>
      </trkpt>
      <trkpt lat="45.98425" lon="4.71563">
        <ele>197</ele>
        <time>2018-03-14T09:44:00Z</time>
      </trkpt>
      <trkpt lat="45.98429" lon="4.71557">
        <ele>197</ele>
        <time>2018-03-14T09:44:01Z</time>
      </trkpt>
      <trkpt lat="45.98434" lon="4.71552">
        <ele>197</ele>
        <time>2018-03-14T09:44:02Z</time>
      </trkpt>
      <trkpt lat="45.98439" lon="4.71548">
        <ele>197</ele>
        <time>2018-03-14T09:44:03Z</time>
      </trkpt>
      <trkpt lat="45.98445" lon="4.71544">
        <ele>197</ele>
        <time>2018-03-14T09:44:04Z</time>
      </trkpt>
      <trkpt lat="45.98449" lon="4.71542">
        <ele>197</ele>
        <time>2018-03-14T09:44:05Z</time>
      </trkpt>
      <trkpt lat="45.98455" lon="4.71539">
        <ele>197</ele>
        <time>2018-03-14T09:44:06Z</time>
      </trkpt>
      <trkpt lat="45.98459" lon="4.71539">
        <ele>197</ele>
        <time>2018-03-14T09:44:07Z</time>
      </trkpt>
      <trkpt lat="45.98467" lon="4.71537">
        <ele>197</ele>
        <time>2018-03-14T09:44:10Z</time>
      </trkpt>
      <trkpt lat="45.98469" lon="4.71536">
        <ele>197</ele>
        <time>2018-03-14T09:44:11Z</time>
      </trkpt>
      <trkpt lat="45.98477" lon="4.71534">
        <ele>196</ele>
        <time>2018-03-14T09:44:27Z</time>
      </trkpt>
      <trkpt lat="45.98478" lon="4.71533">
        <ele>196</ele>
        <time>2018-03-14T09:44:28Z</time>
      </trkpt>
      <trkpt lat="45.98481" lon="4.71532">
        <ele>196</ele>
        <time>2018-03-14T09:44:29Z</time>
      </trkpt>
      <trkpt lat="45.98489" lon="4.71529">
        <ele>196</ele>
        <time>2018-03-14T09:44:30Z</time>
      </trkpt>
      <trkpt lat="45.98491" lon="4.71528">
        <ele>196</ele>
        <time>2018-03-14T09:44:31Z</time>
      </trkpt>
      <trkpt lat="45.98499" lon="4.71528">
        <ele>196</ele>
        <time>2018-03-14T09:44:32Z</time>
      </trkpt>
      <trkpt lat="45.98505" lon="4.71527">
        <ele>195</ele>
        <time>2018-03-14T09:44:33Z</time>
      </trkpt>
      <trkpt lat="45.9851" lon="4.71526">
        <ele>195</ele>
        <time>2018-03-14T09:44:34Z</time>
      </trkpt>
      <trkpt lat="45.98515" lon="4.71525">
        <ele>195</ele>
        <time>2018-03-14T09:44:35Z</time>
      </trkpt>
      <trkpt lat="45.98521" lon="4.71523">
        <ele>194</ele>
        <time>2018-03-14T09:44:36Z</time>
      </trkpt>
      <trkpt lat="45.98526" lon="4.71522">
        <ele>194</ele>
        <time>2018-03-14T09:44:37Z</time>
      </trkpt>
      <trkpt lat="45.98533" lon="4.7152">
        <ele>194</ele>
        <time>2018-03-14T09:44:38Z</time>
      </trkpt>
      <trkpt lat="45.9854" lon="4.71518">
        <ele>194</ele>
        <time>2018-03-14T09:44:39Z</time>
      </trkpt>
      <trkpt lat="45.98546" lon="4.71517">
        <ele>194</ele>
        <time>2018-03-14T09:44:40Z</time>
      </trkpt>
      <trkpt lat="45.98552" lon="4.71515">
        <ele>194</ele>
        <time>2018-03-14T09:44:41Z</time>
      </trkpt>
      <trkpt lat="45.98559" lon="4.71514">
        <ele>194</ele>
        <time>2018-03-14T09:44:42Z</time>
      </trkpt>
      <trkpt lat="45.98567" lon="4.71513">
        <ele>193</ele>
        <time>2018-03-14T09:44:43Z</time>
      </trkpt>
      <trkpt lat="45.98574" lon="4.71512">
        <ele>193</ele>
        <time>2018-03-14T09:44:44Z</time>
      </trkpt>
      <trkpt lat="45.98581" lon="4.7151">
        <ele>193</ele>
        <time>2018-03-14T09:44:45Z</time>
      </trkpt>
      <trkpt lat="45.98587" lon="4.7151">
        <ele>192</ele>
        <time>2018-03-14T09:44:46Z</time>
      </trkpt>
      <trkpt lat="45.98594" lon="4.7151">
        <ele>192</ele>
        <time>2018-03-14T09:44:47Z</time>
      </trkpt>
      <trkpt lat="45.98602" lon="4.71506">
        <ele>192</ele>
        <time>2018-03-14T09:44:48Z</time>
      </trkpt>
      <trkpt lat="45.9861" lon="4.71504">
        <ele>191</ele>
        <time>2018-03-14T09:44:49Z</time>
      </trkpt>
      <trkpt lat="45.98617" lon="4.71504">
        <ele>191</ele>
        <time>2018-03-14T09:44:50Z</time>
      </trkpt>
      <trkpt lat="45.98624" lon="4.71502">
        <ele>191</ele>
        <time>2018-03-14T09:44:51Z</time>
      </trkpt>
      <trkpt lat="45.98631" lon="4.71501">
        <ele>191</ele>
        <time>2018-03-14T09:44:52Z</time>
      </trkpt>
      <trkpt lat="45.98639" lon="4.71494">
        <ele>190</ele>
        <time>2018-03-14T09:44:53Z</time>
      </trkpt>
      <trkpt lat="45.98648" lon="4.71493">
        <ele>190</ele>
        <time>2018-03-14T09:44:54Z</time>
      </trkpt>
      <trkpt lat="45.98656" lon="4.71492">
        <ele>190</ele>
        <time>2018-03-14T09:44:55Z</time>
      </trkpt>
      <trkpt lat="45.98665" lon="4.71491">
        <ele>189</ele>
        <time>2018-03-14T09:44:56Z</time>
      </trkpt>
      <trkpt lat="45.98673" lon="4.71492">
        <ele>188</ele>
        <time>2018-03-14T09:44:57Z</time>
      </trkpt>
      <trkpt lat="45.98681" lon="4.71493">
        <ele>188</ele>
        <time>2018-03-14T09:44:58Z</time>
      </trkpt>
      <trkpt lat="45.9869" lon="4.71493">
        <ele>187</ele>
        <time>2018-03-14T09:44:59Z</time>
      </trkpt>
      <trkpt lat="45.98697" lon="4.71494">
        <ele>187</ele>
        <time>2018-03-14T09:45:00Z</time>
      </trkpt>
      <trkpt lat="45.98706" lon="4.71495">
        <ele>187</ele>
        <time>2018-03-14T09:45:01Z</time>
      </trkpt>
      <trkpt lat="45.98715" lon="4.71497">
        <ele>186</ele>
        <time>2018-03-14T09:45:02Z</time>
      </trkpt>
      <trkpt lat="45.98724" lon="4.71497">
        <ele>186</ele>
        <time>2018-03-14T09:45:03Z</time>
      </trkpt>
      <trkpt lat="45.98733" lon="4.71497">
        <ele>185</ele>
        <time>2018-03-14T09:45:04Z</time>
      </trkpt>
      <trkpt lat="45.98742" lon="4.71499">
        <ele>185</ele>
        <time>2018-03-14T09:45:05Z</time>
      </trkpt>
      <trkpt lat="45.9875" lon="4.71501">
        <ele>184</ele>
        <time>2018-03-14T09:45:06Z</time>
      </trkpt>
      <trkpt lat="45.98759" lon="4.71502">
        <ele>184</ele>
        <time>2018-03-14T09:45:07Z</time>
      </trkpt>
      <trkpt lat="45.98767" lon="4.71503">
        <ele>184</ele>
        <time>2018-03-14T09:45:08Z</time>
      </trkpt>
      <trkpt lat="45.98775" lon="4.71505">
        <ele>184</ele>
        <time>2018-03-14T09:45:09Z</time>
      </trkpt>
      <trkpt lat="45.98783" lon="4.71506">
        <ele>184</ele>
        <time>2018-03-14T09:45:10Z</time>
      </trkpt>
      <trkpt lat="45.98791" lon="4.71506">
        <ele>184</ele>
        <time>2018-03-14T09:45:11Z</time>
      </trkpt>
      <trkpt lat="45.98799" lon="4.71506">
        <ele>184</ele>
        <time>2018-03-14T09:45:12Z</time>
      </trkpt>
      <trkpt lat="45.98807" lon="4.71507">
        <ele>184</ele>
        <time>2018-03-14T09:45:13Z</time>
      </trkpt>
      <trkpt lat="45.98814" lon="4.71507">
        <ele>184</ele>
        <time>2018-03-14T09:45:14Z</time>
      </trkpt>
      <trkpt lat="45.98822" lon="4.71508">
        <ele>184</ele>
        <time>2018-03-14T09:45:15Z</time>
      </trkpt>
      <trkpt lat="45.98829" lon="4.71508">
        <ele>184</ele>
        <time>2018-03-14T09:45:16Z</time>
      </trkpt>
      <trkpt lat="45.98835" lon="4.71508">
        <ele>184</ele>
        <time>2018-03-14T09:45:17Z</time>
      </trkpt>
      <trkpt lat="45.98843" lon="4.71509">
        <ele>184</ele>
        <time>2018-03-14T09:45:18Z</time>
      </trkpt>
      <trkpt lat="45.9885" lon="4.7151">
        <ele>185</ele>
        <time>2018-03-14T09:45:19Z</time>
      </trkpt>
      <trkpt lat="45.98857" lon="4.7151">
        <ele>185</ele>
        <time>2018-03-14T09:45:20Z</time>
      </trkpt>
      <trkpt lat="45.98865" lon="4.71512">
        <ele>185</ele>
        <time>2018-03-14T09:45:21Z</time>
      </trkpt>
      <trkpt lat="45.98872" lon="4.71513">
        <ele>185</ele>
        <time>2018-03-14T09:45:22Z</time>
      </trkpt>
      <trkpt lat="45.98878" lon="4.71514">
        <ele>185</ele>
        <time>2018-03-14T09:45:23Z</time>
      </trkpt>
      <trkpt lat="45.98885" lon="4.71514">
        <ele>185</ele>
        <time>2018-03-14T09:45:24Z</time>
      </trkpt>
      <trkpt lat="45.98892" lon="4.71514">
        <ele>185</ele>
        <time>2018-03-14T09:45:25Z</time>
      </trkpt>
      <trkpt lat="45.98898" lon="4.71512">
        <ele>185</ele>
        <time>2018-03-14T09:45:26Z</time>
      </trkpt>
      <trkpt lat="45.98905" lon="4.71512">
        <ele>185</ele>
        <time>2018-03-14T09:45:27Z</time>
      </trkpt>
      <trkpt lat="45.98912" lon="4.71514">
        <ele>185</ele>
        <time>2018-03-14T09:45:28Z</time>
      </trkpt>
      <trkpt lat="45.98919" lon="4.71515">
        <ele>185</ele>
        <time>2018-03-14T09:45:29Z</time>
      </trkpt>
      <trkpt lat="45.98927" lon="4.71516">
        <ele>186</ele>
        <time>2018-03-14T09:45:30Z</time>
      </trkpt>
      <trkpt lat="45.98933" lon="4.71516">
        <ele>186</ele>
        <time>2018-03-14T09:45:31Z</time>
      </trkpt>
      <trkpt lat="45.9894" lon="4.71517">
        <ele>186</ele>
        <time>2018-03-14T09:45:32Z</time>
      </trkpt>
      <trkpt lat="45.98948" lon="4.71518">
        <ele>186</ele>
        <time>2018-03-14T09:45:33Z</time>
      </trkpt>
      <trkpt lat="45.98953" lon="4.71519">
        <ele>186</ele>
        <time>2018-03-14T09:45:34Z</time>
      </trkpt>
      <trkpt lat="45.9896" lon="4.7152">
        <ele>186</ele>
        <time>2018-03-14T09:45:35Z</time>
      </trkpt>
      <trkpt lat="45.98967" lon="4.7152">
        <ele>186</ele>
        <time>2018-03-14T09:45:36Z</time>
      </trkpt>
      <trkpt lat="45.98973" lon="4.71519">
        <ele>186</ele>
        <time>2018-03-14T09:45:37Z</time>
      </trkpt>
      <trkpt lat="45.9898" lon="4.71519">
        <ele>186</ele>
        <time>2018-03-14T09:45:38Z</time>
      </trkpt>
      <trkpt lat="45.98986" lon="4.71519">
        <ele>186</ele>
        <time>2018-03-14T09:45:39Z</time>
      </trkpt>
      <trkpt lat="45.98992" lon="4.71517">
        <ele>186</ele>
        <time>2018-03-14T09:45:40Z</time>
      </trkpt>
      <trkpt lat="45.98996" lon="4.71516">
        <ele>187</ele>
        <time>2018-03-14T09:45:41Z</time>
      </trkpt>
      <trkpt lat="45.99" lon="4.71511">
        <ele>187</ele>
        <time>2018-03-14T09:45:42Z</time>
      </trkpt>
      <trkpt lat="45.99005" lon="4.71508">
        <ele>187</ele>
        <time>2018-03-14T09:45:43Z</time>
      </trkpt>
      <trkpt lat="45.9901" lon="4.71504">
        <ele>188</ele>
        <time>2018-03-14T09:45:44Z</time>
      </trkpt>
      <trkpt lat="45.99016" lon="4.71503">
        <ele>188</ele>
        <time>2018-03-14T09:45:45Z</time>
      </trkpt>
      <trkpt lat="45.99024" lon="4.71504">
        <ele>188</ele>
        <time>2018-03-14T09:45:47Z</time>
      </trkpt>
      <trkpt lat="45.99029" lon="4.71506">
        <ele>188</ele>
        <time>2018-03-14T09:45:48Z</time>
      </trkpt>
      <trkpt lat="45.99037" lon="4.71506">
        <ele>188</ele>
        <time>2018-03-14T09:45:50Z</time>
      </trkpt>
      <trkpt lat="45.9904" lon="4.71504">
        <ele>188</ele>
        <time>2018-03-14T09:45:51Z</time>
      </trkpt>
      <trkpt lat="45.99046" lon="4.71506">
        <ele>189</ele>
        <time>2018-03-14T09:45:52Z</time>
      </trkpt>
      <trkpt lat="45.99052" lon="4.71507">
        <ele>189</ele>
        <time>2018-03-14T09:45:53Z</time>
      </trkpt>
      <trkpt lat="45.99059" lon="4.71507">
        <ele>189</ele>
        <time>2018-03-14T09:45:56Z</time>
      </trkpt>
      <trkpt lat="45.99068" lon="4.71507">
        <ele>189</ele>
        <time>2018-03-14T09:45:57Z</time>
      </trkpt>
      <trkpt lat="45.99076" lon="4.71508">
        <ele>190</ele>
        <time>2018-03-14T09:46:00Z</time>
      </trkpt>
      <trkpt lat="45.99078" lon="4.71508">
        <ele>190</ele>
        <time>2018-03-14T09:46:01Z</time>
      </trkpt>
      <trkpt lat="45.99087" lon="4.71507">
        <ele>190</ele>
        <time>2018-03-14T09:46:06Z</time>
      </trkpt>
      <trkpt lat="45.99088" lon="4.71506">
        <ele>190</ele>
        <time>2018-03-14T09:46:07Z</time>
      </trkpt>
      <trkpt lat="45.99097" lon="4.71502">
        <ele>191</ele>
        <time>2018-03-14T09:46:12Z</time>
      </trkpt>
      <trkpt lat="45.99099" lon="4.71501">
        <ele>191</ele>
        <time>2018-03-14T09:46:13Z</time>
      </trkpt>
      <trkpt lat="45.99106" lon="4.71499">
        <ele>191</ele>
        <time>2018-03-14T09:46:16Z</time>
      </trkpt>
      <trkpt lat="45.99109" lon="4.715">
        <ele>191</ele>
        <time>2018-03-14T09:46:17Z</time>
      </trkpt>
      <trkpt lat="45.99117" lon="4.715">
        <ele>191</ele>
        <time>2018-03-14T09:46:20Z</time>
      </trkpt>
      <trkpt lat="45.99119" lon="4.71499">
        <ele>191</ele>
        <time>2018-03-14T09:46:21Z</time>
      </trkpt>
      <trkpt lat="45.99126" lon="4.71497">
        <ele>191</ele>
        <time>2018-03-14T09:46:24Z</time>
      </trkpt>
      <trkpt lat="45.99134" lon="4.71497">
        <ele>191</ele>
        <time>2018-03-14T09:46:25Z</time>
      </trkpt>
      <trkpt lat="45.99143" lon="4.71496">
        <ele>192</ele>
        <time>2018-03-14T09:46:30Z</time>
      </trkpt>
      <trkpt lat="45.99145" lon="4.71495">
        <ele>192</ele>
        <time>2018-03-14T09:46:31Z</time>
      </trkpt>
      <trkpt lat="45.99154" lon="4.71494">
        <ele>192</ele>
        <time>2018-03-14T09:46:32Z</time>
      </trkpt>
      <trkpt lat="45.99159" lon="4.71496">
        <ele>192</ele>
        <time>2018-03-14T09:46:33Z</time>
      </trkpt>
      <trkpt lat="45.99164" lon="4.71499">
        <ele>193</ele>
        <time>2018-03-14T09:46:34Z</time>
      </trkpt>
      <trkpt lat="45.99169" lon="4.71501">
        <ele>193</ele>
        <time>2018-03-14T09:46:36Z</time>
      </trkpt>
      <trkpt lat="45.99176" lon="4.71503">
        <ele>194</ele>
        <time>2018-03-14T09:46:37Z</time>
      </trkpt>
      <trkpt lat="45.99181" lon="4.71504">
        <ele>194</ele>
        <time>2018-03-14T09:46:39Z</time>
      </trkpt>
      <trkpt lat="45.99188" lon="4.71505">
        <ele>194</ele>
        <time>2018-03-14T09:46:40Z</time>
      </trkpt>
      <trkpt lat="45.99196" lon="4.71506">
        <ele>195</ele>
        <time>2018-03-14T09:46:42Z</time>
      </trkpt>
      <trkpt lat="45.99198" lon="4.71506">
        <ele>195</ele>
        <time>2018-03-14T09:46:43Z</time>
      </trkpt>
      <trkpt lat="45.99206" lon="4.71507">
        <ele>195</ele>
        <time>2018-03-14T09:46:45Z</time>
      </trkpt>
      <trkpt lat="45.99209" lon="4.71508">
        <ele>195</ele>
        <time>2018-03-14T09:46:46Z</time>
      </trkpt>
      <trkpt lat="45.99215" lon="4.71509">
        <ele>195</ele>
        <time>2018-03-14T09:46:47Z</time>
      </trkpt>
      <trkpt lat="45.99219" lon="4.71509">
        <ele>195</ele>
        <time>2018-03-14T09:46:48Z</time>
      </trkpt>
      <trkpt lat="45.99228" lon="4.71509">
        <ele>196</ele>
        <time>2018-03-14T09:46:52Z</time>
      </trkpt>
      <trkpt lat="45.99231" lon="4.71508">
        <ele>196</ele>
        <time>2018-03-14T09:46:53Z</time>
      </trkpt>
      <trkpt lat="45.99238" lon="4.71506">
        <ele>196</ele>
        <time>2018-03-14T09:46:55Z</time>
      </trkpt>
      <trkpt lat="45.99241" lon="4.71505">
        <ele>196</ele>
        <time>2018-03-14T09:46:56Z</time>
      </trkpt>
      <trkpt lat="45.99244" lon="4.71503">
        <ele>196</ele>
        <time>2018-03-14T09:46:57Z</time>
      </trkpt>
      <trkpt lat="45.99253" lon="4.71497">
        <ele>196</ele>
        <time>2018-03-14T09:46:58Z</time>
      </trkpt>
      <trkpt lat="45.99256" lon="4.71495">
        <ele>196</ele>
        <time>2018-03-14T09:47:00Z</time>
      </trkpt>
      <trkpt lat="45.99263" lon="4.71494">
        <ele>197</ele>
        <time>2018-03-14T09:47:01Z</time>
      </trkpt>
      <trkpt lat="45.99271" lon="4.71497">
        <ele>197</ele>
        <time>2018-03-14T09:47:03Z</time>
      </trkpt>
      <trkpt lat="45.99282" lon="4.71509">
        <ele>198</ele>
        <time>2018-03-14T09:47:04Z</time>
      </trkpt>
      <trkpt lat="45.9929" lon="4.7151">
        <ele>199</ele>
        <time>2018-03-14T09:47:06Z</time>
      </trkpt>
      <trkpt lat="45.99294" lon="4.7151">
        <ele>199</ele>
        <time>2018-03-14T09:47:07Z</time>
      </trkpt>
      <trkpt lat="45.993" lon="4.71511">
        <ele>199</ele>
        <time>2018-03-14T09:47:09Z</time>
      </trkpt>
      <trkpt lat="45.99306" lon="4.71512">
        <ele>199</ele>
        <time>2018-03-14T09:47:10Z</time>
      </trkpt>
      <trkpt lat="45.99313" lon="4.71514">
        <ele>199</ele>
        <time>2018-03-14T09:47:12Z</time>
      </trkpt>
      <trkpt lat="45.99317" lon="4.71515">
        <ele>200</ele>
        <time>2018-03-14T09:47:13Z</time>
      </trkpt>
      <trkpt lat="45.99324" lon="4.71514">
        <ele>200</ele>
        <time>2018-03-14T09:47:15Z</time>
      </trkpt>
      <trkpt lat="45.99328" lon="4.71514">
        <ele>200</ele>
        <time>2018-03-14T09:47:16Z</time>
      </trkpt>
      <trkpt lat="45.99336" lon="4.71513">
        <ele>200</ele>
        <time>2018-03-14T09:47:18Z</time>
      </trkpt>
      <trkpt lat="45.99341" lon="4.71513">
        <ele>200</ele>
        <time>2018-03-14T09:47:19Z</time>
      </trkpt>
      <trkpt lat="45.99349" lon="4.71514">
        <ele>200</ele>
        <time>2018-03-14T09:47:21Z</time>
      </trkpt>
      <trkpt lat="45.9935" lon="4.71514">
        <ele>200</ele>
        <time>2018-03-14T09:47:22Z</time>
      </trkpt>
      <trkpt lat="45.99357" lon="4.71513">
        <ele>200</ele>
        <time>2018-03-14T09:47:24Z</time>
      </trkpt>
      <trkpt lat="45.99359" lon="4.71513">
        <ele>200</ele>
        <time>2018-03-14T09:47:25Z</time>
      </trkpt>
      <trkpt lat="45.99366" lon="4.71512">
        <ele>200</ele>
        <time>2018-03-14T09:47:26Z</time>
      </trkpt>
      <trkpt lat="45.9937" lon="4.7151">
        <ele>200</ele>
        <time>2018-03-14T09:47:27Z</time>
      </trkpt>
      <trkpt lat="45.99377" lon="4.71511">
        <ele>200</ele>
        <time>2018-03-14T09:47:29Z</time>
      </trkpt>
      <trkpt lat="45.99381" lon="4.71512">
        <ele>200</ele>
        <time>2018-03-14T09:47:30Z</time>
      </trkpt>
      <trkpt lat="45.99389" lon="4.71512">
        <ele>200</ele>
        <time>2018-03-14T09:47:32Z</time>
      </trkpt>
      <trkpt lat="45.9939" lon="4.71512">
        <ele>200</ele>
        <time>2018-03-14T09:47:33Z</time>
      </trkpt>
      <trkpt lat="45.99397" lon="4.71511">
        <ele>200</ele>
        <time>2018-03-14T09:47:35Z</time>
      </trkpt>
      <trkpt lat="45.99399" lon="4.71511">
        <ele>200</ele>
        <time>2018-03-14T09:47:36Z</time>
      </trkpt>
      <trkpt lat="45.99406" lon="4.7151">
        <ele>200</ele>
        <time>2018-03-14T09:47:37Z</time>
      </trkpt>
      <trkpt lat="45.99409" lon="4.71509">
        <ele>199</ele>
        <time>2018-03-14T09:47:38Z</time>
      </trkpt>
      <trkpt lat="45.99417" lon="4.71509">
        <ele>199</ele>
        <time>2018-03-14T09:47:40Z</time>
      </trkpt>
      <trkpt lat="45.99419" lon="4.71509">
        <ele>199</ele>
        <time>2018-03-14T09:47:41Z</time>
      </trkpt>
      <trkpt lat="45.99424" lon="4.71509">
        <ele>199</ele>
        <time>2018-03-14T09:47:42Z</time>
      </trkpt>
      <trkpt lat="45.9943" lon="4.7151">
        <ele>199</ele>
        <time>2018-03-14T09:47:43Z</time>
      </trkpt>
      <trkpt lat="45.99435" lon="4.71512">
        <ele>199</ele>
        <time>2018-03-14T09:47:44Z</time>
      </trkpt>
      <trkpt lat="45.9944" lon="4.71511">
        <ele>199</ele>
        <time>2018-03-14T09:47:45Z</time>
      </trkpt>
      <trkpt lat="45.99447" lon="4.71513">
        <ele>199</ele>
        <time>2018-03-14T09:47:47Z</time>
      </trkpt>
      <trkpt lat="45.99453" lon="4.71512">
        <ele>199</ele>
        <time>2018-03-14T09:47:48Z</time>
      </trkpt>
      <trkpt lat="45.99457" lon="4.71512">
        <ele>199</ele>
        <time>2018-03-14T09:47:50Z</time>
      </trkpt>
      <trkpt lat="45.99465" lon="4.71513">
        <ele>199</ele>
        <time>2018-03-14T09:47:51Z</time>
      </trkpt>
      <trkpt lat="45.99471" lon="4.71513">
        <ele>199</ele>
        <time>2018-03-14T09:47:53Z</time>
      </trkpt>
      <trkpt lat="45.99475" lon="4.71512">
        <ele>199</ele>
        <time>2018-03-14T09:47:54Z</time>
      </trkpt>
      <trkpt lat="45.99483" lon="4.71512">
        <ele>199</ele>
        <time>2018-03-14T09:47:56Z</time>
      </trkpt>
      <trkpt lat="45.99484" lon="4.71512">
        <ele>199</ele>
        <time>2018-03-14T09:47:57Z</time>
      </trkpt>
      <trkpt lat="45.9949" lon="4.71512">
        <ele>199</ele>
        <time>2018-03-14T09:47:58Z</time>
      </trkpt>
      <trkpt lat="45.99494" lon="4.71511">
        <ele>199</ele>
        <time>2018-03-14T09:47:59Z</time>
      </trkpt>
      <trkpt lat="45.99498" lon="4.71511">
        <ele>199</ele>
        <time>2018-03-14T09:48:01Z</time>
      </trkpt>
      <trkpt lat="45.99505" lon="4.71511">
        <ele>199</ele>
        <time>2018-03-14T09:48:02Z</time>
      </trkpt>
      <trkpt lat="45.99509" lon="4.71511">
        <ele>199</ele>
        <time>2018-03-14T09:48:04Z</time>
      </trkpt>
      <trkpt lat="45.99516" lon="4.71511">
        <ele>199</ele>
        <time>2018-03-14T09:48:05Z</time>
      </trkpt>
      <trkpt lat="45.99522" lon="4.7151">
        <ele>198</ele>
        <time>2018-03-14T09:48:07Z</time>
      </trkpt>
      <trkpt lat="45.99527" lon="4.7151">
        <ele>198</ele>
        <time>2018-03-14T09:48:08Z</time>
      </trkpt>
      <trkpt lat="45.99535" lon="4.7151">
        <ele>198</ele>
        <time>2018-03-14T09:48:10Z</time>
      </trkpt>
      <trkpt lat="45.99539" lon="4.71511">
        <ele>198</ele>
        <time>2018-03-14T09:48:11Z</time>
      </trkpt>
      <trkpt lat="45.99544" lon="4.71509">
        <ele>198</ele>
        <time>2018-03-14T09:48:12Z</time>
      </trkpt>
      <trkpt lat="45.99549" lon="4.71509">
        <ele>198</ele>
        <time>2018-03-14T09:48:13Z</time>
      </trkpt>
      <trkpt lat="45.99558" lon="4.71509">
        <ele>198</ele>
        <time>2018-03-14T09:48:15Z</time>
      </trkpt>
      <trkpt lat="45.99563" lon="4.7151">
        <ele>197</ele>
        <time>2018-03-14T09:48:16Z</time>
      </trkpt>
      <trkpt lat="45.99571" lon="4.7151">
        <ele>197</ele>
        <time>2018-03-14T09:48:18Z</time>
      </trkpt>
      <trkpt lat="45.99575" lon="4.71511">
        <ele>197</ele>
        <time>2018-03-14T09:48:19Z</time>
      </trkpt>
      <trkpt lat="45.99583" lon="4.71518">
        <ele>197</ele>
        <time>2018-03-14T09:48:25Z</time>
      </trkpt>
      <trkpt lat="45.99583" lon="4.71521">
        <ele>197</ele>
        <time>2018-03-14T09:48:26Z</time>
      </trkpt>
      <trkpt lat="45.99586" lon="4.71529">
        <ele>197</ele>
        <time>2018-03-14T09:48:29Z</time>
      </trkpt>
      <trkpt lat="45.99588" lon="4.71532">
        <ele>197</ele>
        <time>2018-03-14T09:48:30Z</time>
      </trkpt>
      <trkpt lat="45.9959" lon="4.71534">
        <ele>197</ele>
        <time>2018-03-14T09:48:31Z</time>
      </trkpt>
      <trkpt lat="45.99598" lon="4.71541">
        <ele>198</ele>
        <time>2018-03-14T09:48:32Z</time>
      </trkpt>
      <trkpt lat="45.99606" lon="4.71541">
        <ele>198</ele>
        <time>2018-03-14T09:48:34Z</time>
      </trkpt>
      <trkpt lat="45.9961" lon="4.71535">
        <ele>198</ele>
        <time>2018-03-14T09:48:35Z</time>
      </trkpt>
      <trkpt lat="45.99615" lon="4.71525">
        <ele>197</ele>
        <time>2018-03-14T09:48:37Z</time>
      </trkpt>
      <trkpt lat="45.99616" lon="4.71519">
        <ele>197</ele>
        <time>2018-03-14T09:48:38Z</time>
      </trkpt>
      <trkpt lat="45.99617" lon="4.71512">
        <ele>197</ele>
        <time>2018-03-14T09:48:39Z</time>
      </trkpt>
      <trkpt lat="45.99616" lon="4.71506">
        <ele>197</ele>
        <time>2018-03-14T09:48:40Z</time>
      </trkpt>
      <trkpt lat="45.99615" lon="4.715">
        <ele>197</ele>
        <time>2018-03-14T09:48:41Z</time>
      </trkpt>
      <trkpt lat="45.99614" lon="4.71493">
        <ele>197</ele>
        <time>2018-03-14T09:48:42Z</time>
      </trkpt>
      <trkpt lat="45.99614" lon="4.71486">
        <ele>197</ele>
        <time>2018-03-14T09:48:43Z</time>
      </trkpt>
      <trkpt lat="45.99615" lon="4.71479">
        <ele>197</ele>
        <time>2018-03-14T09:48:44Z</time>
      </trkpt>
      <trkpt lat="45.99617" lon="4.71473">
        <ele>197</ele>
        <time>2018-03-14T09:48:45Z</time>
      </trkpt>
      <trkpt lat="45.99619" lon="4.71467">
        <ele>197</ele>
        <time>2018-03-14T09:48:46Z</time>
      </trkpt>
      <trkpt lat="45.99623" lon="4.71458">
        <ele>197</ele>
        <time>2018-03-14T09:48:48Z</time>
      </trkpt>
      <trkpt lat="45.99626" lon="4.71452">
        <ele>197</ele>
        <time>2018-03-14T09:48:49Z</time>
      </trkpt>
      <trkpt lat="45.9963" lon="4.71442">
        <ele>197</ele>
        <time>2018-03-14T09:48:51Z</time>
      </trkpt>
      <trkpt lat="45.99634" lon="4.71436">
        <ele>197</ele>
        <time>2018-03-14T09:48:52Z</time>
      </trkpt>
      <trkpt lat="45.99637" lon="4.71429">
        <ele>197</ele>
        <time>2018-03-14T09:48:53Z</time>
      </trkpt>
      <trkpt lat="45.99642" lon="4.7142">
        <ele>197</ele>
        <time>2018-03-14T09:48:54Z</time>
      </trkpt>
      <trkpt lat="45.99644" lon="4.71415">
        <ele>198</ele>
        <time>2018-03-14T09:48:55Z</time>
      </trkpt>
      <trkpt lat="45.99647" lon="4.7141">
        <ele>198</ele>
        <time>2018-03-14T09:48:56Z</time>
      </trkpt>
      <trkpt lat="45.99652" lon="4.714">
        <ele>198</ele>
        <time>2018-03-14T09:48:58Z</time>
      </trkpt>
      <trkpt lat="45.99655" lon="4.71395">
        <ele>198</ele>
        <time>2018-03-14T09:48:59Z</time>
      </trkpt>
      <trkpt lat="45.99658" lon="4.7139">
        <ele>198</ele>
        <time>2018-03-14T09:49:00Z</time>
      </trkpt>
      <trkpt lat="45.9966" lon="4.71384">
        <ele>198</ele>
        <time>2018-03-14T09:49:01Z</time>
      </trkpt>
      <trkpt lat="45.99665" lon="4.71374">
        <ele>197</ele>
        <time>2018-03-14T09:49:03Z</time>
      </trkpt>
      <trkpt lat="45.99669" lon="4.71367">
        <ele>197</ele>
        <time>2018-03-14T09:49:04Z</time>
      </trkpt>
      <trkpt lat="45.99672" lon="4.71361">
        <ele>197</ele>
        <time>2018-03-14T09:49:05Z</time>
      </trkpt>
      <trkpt lat="45.99674" lon="4.71355">
        <ele>197</ele>
        <time>2018-03-14T09:49:06Z</time>
      </trkpt>
      <trkpt lat="45.99678" lon="4.71349">
        <ele>197</ele>
        <time>2018-03-14T09:49:07Z</time>
      </trkpt>
      <trkpt lat="45.99682" lon="4.71342">
        <ele>197</ele>
        <time>2018-03-14T09:49:08Z</time>
      </trkpt>
      <trkpt lat="45.99687" lon="4.71334">
        <ele>197</ele>
        <time>2018-03-14T09:49:09Z</time>
      </trkpt>
      <trkpt lat="45.9969" lon="4.71328">
        <ele>197</ele>
        <time>2018-03-14T09:49:10Z</time>
      </trkpt>
      <trkpt lat="45.99695" lon="4.71321">
        <ele>198</ele>
        <time>2018-03-14T09:49:11Z</time>
      </trkpt>
      <trkpt lat="45.99698" lon="4.71315">
        <ele>198</ele>
        <time>2018-03-14T09:49:12Z</time>
      </trkpt>
      <trkpt lat="45.99701" lon="4.71308">
        <ele>198</ele>
        <time>2018-03-14T09:49:13Z</time>
      </trkpt>
      <trkpt lat="45.99704" lon="4.71303">
        <ele>198</ele>
        <time>2018-03-14T09:49:14Z</time>
      </trkpt>
      <trkpt lat="45.99707" lon="4.71298">
        <ele>198</ele>
        <time>2018-03-14T09:49:15Z</time>
      </trkpt>
      <trkpt lat="45.99709" lon="4.71292">
        <ele>198</ele>
        <time>2018-03-14T09:49:16Z</time>
      </trkpt>
      <trkpt lat="45.99713" lon="4.71286">
        <ele>198</ele>
        <time>2018-03-14T09:49:17Z</time>
      </trkpt>
      <trkpt lat="45.99715" lon="4.7128">
        <ele>198</ele>
        <time>2018-03-14T09:49:18Z</time>
      </trkpt>
      <trkpt lat="45.99718" lon="4.71275">
        <ele>198</ele>
        <time>2018-03-14T09:49:19Z</time>
      </trkpt>
      <trkpt lat="45.99721" lon="4.71269">
        <ele>198</ele>
        <time>2018-03-14T09:49:20Z</time>
      </trkpt>
      <trkpt lat="45.99723" lon="4.71262">
        <ele>198</ele>
        <time>2018-03-14T09:49:21Z</time>
      </trkpt>
      <trkpt lat="45.99726" lon="4.71257">
        <ele>198</ele>
        <time>2018-03-14T09:49:22Z</time>
      </trkpt>
      <trkpt lat="45.9973" lon="4.7125">
        <ele>198</ele>
        <time>2018-03-14T09:49:23Z</time>
      </trkpt>
      <trkpt lat="45.99733" lon="4.71244">
        <ele>198</ele>
        <time>2018-03-14T09:49:24Z</time>
      </trkpt>
      <trkpt lat="45.99737" lon="4.71238">
        <ele>198</ele>
        <time>2018-03-14T09:49:29Z</time>
      </trkpt>
      <trkpt lat="45.99742" lon="4.71227">
        <ele>198</ele>
        <time>2018-03-14T09:49:30Z</time>
      </trkpt>
      <trkpt lat="45.99746" lon="4.71219">
        <ele>198</ele>
        <time>2018-03-14T09:49:32Z</time>
      </trkpt>
      <trkpt lat="45.9975" lon="4.71211">
        <ele>198</ele>
        <time>2018-03-14T09:49:33Z</time>
      </trkpt>
      <trkpt lat="45.99753" lon="4.71204">
        <ele>198</ele>
        <time>2018-03-14T09:49:34Z</time>
      </trkpt>
      <trkpt lat="45.99757" lon="4.71198">
        <ele>198</ele>
        <time>2018-03-14T09:49:35Z</time>
      </trkpt>
      <trkpt lat="45.99762" lon="4.7119">
        <ele>198</ele>
        <time>2018-03-14T09:49:36Z</time>
      </trkpt>
      <trkpt lat="45.99767" lon="4.71183">
        <ele>198</ele>
        <time>2018-03-14T09:49:37Z</time>
      </trkpt>
      <trkpt lat="45.99771" lon="4.71175">
        <ele>198</ele>
        <time>2018-03-14T09:49:38Z</time>
      </trkpt>
      <trkpt lat="45.99775" lon="4.71168">
        <ele>198</ele>
        <time>2018-03-14T09:49:39Z</time>
      </trkpt>
      <trkpt lat="45.99779" lon="4.7116">
        <ele>198</ele>
        <time>2018-03-14T09:49:40Z</time>
      </trkpt>
      <trkpt lat="45.99783" lon="4.71153">
        <ele>198</ele>
        <time>2018-03-14T09:49:41Z</time>
      </trkpt>
      <trkpt lat="45.99784" lon="4.7115">
        <ele>198</ele>
        <time>2018-03-14T09:49:42Z</time>
      </trkpt>
      <trkpt lat="45.99789" lon="4.71141">
        <ele>198</ele>
        <time>2018-03-14T09:49:43Z</time>
      </trkpt>
      <trkpt lat="45.99792" lon="4.71135">
        <ele>198</ele>
        <time>2018-03-14T09:49:44Z</time>
      </trkpt>
      <trkpt lat="45.99796" lon="4.71123">
        <ele>198</ele>
        <time>2018-03-14T09:49:45Z</time>
      </trkpt>
      <trkpt lat="45.99798" lon="4.71114">
        <ele>198</ele>
        <time>2018-03-14T09:49:46Z</time>
      </trkpt>
      <trkpt lat="45.99801" lon="4.71105">
        <ele>198</ele>
        <time>2018-03-14T09:49:47Z</time>
      </trkpt>
      <trkpt lat="45.99801" lon="4.71098">
        <ele>198</ele>
        <time>2018-03-14T09:49:48Z</time>
      </trkpt>
      <trkpt lat="45.99802" lon="4.71091">
        <ele>198</ele>
        <time>2018-03-14T09:49:49Z</time>
      </trkpt>
      <trkpt lat="45.99804" lon="4.71083">
        <ele>199</ele>
        <time>2018-03-14T09:49:50Z</time>
      </trkpt>
      <trkpt lat="45.99806" lon="4.71075">
        <ele>199</ele>
        <time>2018-03-14T09:49:51Z</time>
      </trkpt>
      <trkpt lat="45.99809" lon="4.71064">
        <ele>199</ele>
        <time>2018-03-14T09:49:52Z</time>
      </trkpt>
      <trkpt lat="45.99809" lon="4.71057">
        <ele>199</ele>
        <time>2018-03-14T09:49:53Z</time>
      </trkpt>
      <trkpt lat="45.9981" lon="4.7105">
        <ele>199</ele>
        <time>2018-03-14T09:49:54Z</time>
      </trkpt>
      <trkpt lat="45.99812" lon="4.71044">
        <ele>199</ele>
        <time>2018-03-14T09:49:55Z</time>
      </trkpt>
      <trkpt lat="45.99813" lon="4.71037">
        <ele>199</ele>
        <time>2018-03-14T09:49:56Z</time>
      </trkpt>
      <trkpt lat="45.99815" lon="4.7103">
        <ele>199</ele>
        <time>2018-03-14T09:49:57Z</time>
      </trkpt>
      <trkpt lat="45.99817" lon="4.71023">
        <ele>199</ele>
        <time>2018-03-14T09:49:58Z</time>
      </trkpt>
      <trkpt lat="45.99819" lon="4.71015">
        <ele>200</ele>
        <time>2018-03-14T09:49:59Z</time>
      </trkpt>
      <trkpt lat="45.9982" lon="4.71003">
        <ele>200</ele>
        <time>2018-03-14T09:50:01Z</time>
      </trkpt>
      <trkpt lat="45.99821" lon="4.70997">
        <ele>200</ele>
        <time>2018-03-14T09:50:02Z</time>
      </trkpt>
      <trkpt lat="45.99822" lon="4.70991">
        <ele>200</ele>
        <time>2018-03-14T09:50:03Z</time>
      </trkpt>
      <trkpt lat="45.99823" lon="4.70984">
        <ele>200</ele>
        <time>2018-03-14T09:50:04Z</time>
      </trkpt>
      <trkpt lat="45.99824" lon="4.70978">
        <ele>200</ele>
        <time>2018-03-14T09:50:05Z</time>
      </trkpt>
      <trkpt lat="45.99826" lon="4.7097">
        <ele>200</ele>
        <time>2018-03-14T09:50:06Z</time>
      </trkpt>
      <trkpt lat="45.99828" lon="4.70963">
        <ele>200</ele>
        <time>2018-03-14T09:50:07Z</time>
      </trkpt>
      <trkpt lat="45.99828" lon="4.70955">
        <ele>199</ele>
        <time>2018-03-14T09:50:08Z</time>
      </trkpt>
      <trkpt lat="45.9983" lon="4.70948">
        <ele>199</ele>
        <time>2018-03-14T09:50:09Z</time>
      </trkpt>
      <trkpt lat="45.99831" lon="4.70941">
        <ele>199</ele>
        <time>2018-03-14T09:50:10Z</time>
      </trkpt>
      <trkpt lat="45.99832" lon="4.70934">
        <ele>199</ele>
        <time>2018-03-14T09:50:11Z</time>
      </trkpt>
      <trkpt lat="45.99834" lon="4.70928">
        <ele>199</ele>
        <time>2018-03-14T09:50:12Z</time>
      </trkpt>
      <trkpt lat="45.99835" lon="4.70916">
        <ele>199</ele>
        <time>2018-03-14T09:50:14Z</time>
      </trkpt>
      <trkpt lat="45.99835" lon="4.7091">
        <ele>199</ele>
        <time>2018-03-14T09:50:15Z</time>
      </trkpt>
      <trkpt lat="45.99838" lon="4.70901">
        <ele>199</ele>
        <time>2018-03-14T09:50:16Z</time>
      </trkpt>
      <trkpt lat="45.99839" lon="4.70893">
        <ele>199</ele>
        <time>2018-03-14T09:50:17Z</time>
      </trkpt>
      <trkpt lat="45.9984" lon="4.70881">
        <ele>200</ele>
        <time>2018-03-14T09:50:19Z</time>
      </trkpt>
      <trkpt lat="45.9984" lon="4.70878">
        <ele>200</ele>
        <time>2018-03-14T09:50:20Z</time>
      </trkpt>
      <trkpt lat="45.99842" lon="4.70867">
        <ele>200</ele>
        <time>2018-03-14T09:50:21Z</time>
      </trkpt>
      <trkpt lat="45.99843" lon="4.70861">
        <ele>200</ele>
        <time>2018-03-14T09:50:22Z</time>
      </trkpt>
      <trkpt lat="45.99845" lon="4.70853">
        <ele>200</ele>
        <time>2018-03-14T09:50:23Z</time>
      </trkpt>
      <trkpt lat="45.99846" lon="4.70846">
        <ele>201</ele>
        <time>2018-03-14T09:50:24Z</time>
      </trkpt>
      <trkpt lat="45.99848" lon="4.70839">
        <ele>201</ele>
        <time>2018-03-14T09:50:25Z</time>
      </trkpt>
      <trkpt lat="45.99849" lon="4.70833">
        <ele>201</ele>
        <time>2018-03-14T09:50:26Z</time>
      </trkpt>
      <trkpt lat="45.99851" lon="4.70824">
        <ele>201</ele>
        <time>2018-03-14T09:50:27Z</time>
      </trkpt>
      <trkpt lat="45.99851" lon="4.70819">
        <ele>201</ele>
        <time>2018-03-14T09:50:28Z</time>
      </trkpt>
      <trkpt lat="45.99852" lon="4.70811">
        <ele>201</ele>
        <time>2018-03-14T09:50:29Z</time>
      </trkpt>
      <trkpt lat="45.99854" lon="4.70803">
        <ele>201</ele>
        <time>2018-03-14T09:50:30Z</time>
      </trkpt>
      <trkpt lat="45.99855" lon="4.70797">
        <ele>201</ele>
        <time>2018-03-14T09:50:31Z</time>
      </trkpt>
      <trkpt lat="45.99856" lon="4.7079">
        <ele>201</ele>
        <time>2018-03-14T09:50:32Z</time>
      </trkpt>
      <trkpt lat="45.99858" lon="4.70781">
        <ele>200</ele>
        <time>2018-03-14T09:50:33Z</time>
      </trkpt>
      <trkpt lat="45.9986" lon="4.70773">
        <ele>200</ele>
        <time>2018-03-14T09:50:34Z</time>
      </trkpt>
      <trkpt lat="45.99862" lon="4.70765">
        <ele>200</ele>
        <time>2018-03-14T09:50:35Z</time>
      </trkpt>
      <trkpt lat="45.99863" lon="4.70757">
        <ele>200</ele>
        <time>2018-03-14T09:50:36Z</time>
      </trkpt>
      <trkpt lat="45.99865" lon="4.7075">
        <ele>200</ele>
        <time>2018-03-14T09:50:37Z</time>
      </trkpt>
      <trkpt lat="45.99866" lon="4.70742">
        <ele>200</ele>
        <time>2018-03-14T09:50:38Z</time>
      </trkpt>
      <trkpt lat="45.99867" lon="4.70734">
        <ele>200</ele>
        <time>2018-03-14T09:50:39Z</time>
      </trkpt>
      <trkpt lat="45.99868" lon="4.70727">
        <ele>200</ele>
        <time>2018-03-14T09:50:40Z</time>
      </trkpt>
      <trkpt lat="45.99869" lon="4.7072">
        <ele>200</ele>
        <time>2018-03-14T09:50:41Z</time>
      </trkpt>
      <trkpt lat="45.9987" lon="4.70713">
        <ele>200</ele>
        <time>2018-03-14T09:50:42Z</time>
      </trkpt>
      <trkpt lat="45.99871" lon="4.70705">
        <ele>200</ele>
        <time>2018-03-14T09:50:43Z</time>
      </trkpt>
      <trkpt lat="45.99872" lon="4.70699">
        <ele>200</ele>
        <time>2018-03-14T09:50:44Z</time>
      </trkpt>
      <trkpt lat="45.99873" lon="4.70691">
        <ele>200</ele>
        <time>2018-03-14T09:50:45Z</time>
      </trkpt>
      <trkpt lat="45.99874" lon="4.70684">
        <ele>200</ele>
        <time>2018-03-14T09:50:46Z</time>
      </trkpt>
      <trkpt lat="45.99877" lon="4.70674">
        <ele>200</ele>
        <time>2018-03-14T09:50:48Z</time>
      </trkpt>
      <trkpt lat="45.99878" lon="4.70671">
        <ele>200</ele>
        <time>2018-03-14T09:50:49Z</time>
      </trkpt>
      <trkpt lat="45.9988" lon="4.70663">
        <ele>200</ele>
        <time>2018-03-14T09:50:52Z</time>
      </trkpt>
      <trkpt lat="45.99887" lon="4.70656">
        <ele>200</ele>
        <time>2018-03-14T09:50:53Z</time>
      </trkpt>
      <trkpt lat="45.99895" lon="4.70653">
        <ele>200</ele>
        <time>2018-03-14T09:50:55Z</time>
      </trkpt>
      <trkpt lat="45.999" lon="4.70653">
        <ele>200</ele>
        <time>2018-03-14T09:50:56Z</time>
      </trkpt>
      <trkpt lat="45.99905" lon="4.70651">
        <ele>200</ele>
        <time>2018-03-14T09:50:57Z</time>
      </trkpt>
      <trkpt lat="45.99911" lon="4.70648">
        <ele>200</ele>
        <time>2018-03-14T09:50:58Z</time>
      </trkpt>
      <trkpt lat="45.99917" lon="4.70646">
        <ele>199</ele>
        <time>2018-03-14T09:50:59Z</time>
      </trkpt>
      <trkpt lat="45.99923" lon="4.70645">
        <ele>199</ele>
        <time>2018-03-14T09:51:00Z</time>
      </trkpt>
      <trkpt lat="45.99928" lon="4.70642">
        <ele>199</ele>
        <time>2018-03-14T09:51:01Z</time>
      </trkpt>
      <trkpt lat="45.99934" lon="4.70641">
        <ele>199</ele>
        <time>2018-03-14T09:51:02Z</time>
      </trkpt>
      <trkpt lat="45.9994" lon="4.7064">
        <ele>199</ele>
        <time>2018-03-14T09:51:03Z</time>
      </trkpt>
      <trkpt lat="45.99945" lon="4.70641">
        <ele>199</ele>
        <time>2018-03-14T09:51:04Z</time>
      </trkpt>
      <trkpt lat="45.99951" lon="4.70638">
        <ele>199</ele>
        <time>2018-03-14T09:51:05Z</time>
      </trkpt>
      <trkpt lat="45.99956" lon="4.70636">
        <ele>199</ele>
        <time>2018-03-14T09:51:06Z</time>
      </trkpt>
      <trkpt lat="45.99963" lon="4.70634">
        <ele>199</ele>
        <time>2018-03-14T09:51:08Z</time>
      </trkpt>
      <trkpt lat="45.99971" lon="4.70633">
        <ele>199</ele>
        <time>2018-03-14T09:51:09Z</time>
      </trkpt>
      <trkpt lat="45.99976" lon="4.70631">
        <ele>199</ele>
        <time>2018-03-14T09:51:10Z</time>
      </trkpt>
      <trkpt lat="45.99982" lon="4.70629">
        <ele>199</ele>
        <time>2018-03-14T09:51:11Z</time>
      </trkpt>
      <trkpt lat="45.99987" lon="4.70628">
        <ele>199</ele>
        <time>2018-03-14T09:51:12Z</time>
      </trkpt>
      <trkpt lat="45.99993" lon="4.70627">
        <ele>199</ele>
        <time>2018-03-14T09:51:13Z</time>
      </trkpt>
      <trkpt lat="45.99999" lon="4.70625">
        <ele>199</ele>
        <time>2018-03-14T09:51:14Z</time>
      </trkpt>
      <trkpt lat="46.00004" lon="4.70625">
        <ele>198</ele>
        <time>2018-03-14T09:51:15Z</time>
      </trkpt>
      <trkpt lat="46.00009" lon="4.70624">
        <ele>199</ele>
        <time>2018-03-14T09:51:16Z</time>
      </trkpt>
      <trkpt lat="46.00016" lon="4.70623">
        <ele>199</ele>
        <time>2018-03-14T09:51:17Z</time>
      </trkpt>
      <trkpt lat="46.00024" lon="4.70622">
        <ele>199</ele>
        <time>2018-03-14T09:51:19Z</time>
      </trkpt>
      <trkpt lat="46.00029" lon="4.7062">
        <ele>199</ele>
        <time>2018-03-14T09:51:20Z</time>
      </trkpt>
      <trkpt lat="46.00035" lon="4.70619">
        <ele>199</ele>
        <time>2018-03-14T09:51:21Z</time>
      </trkpt>
      <trkpt lat="46.00042" lon="4.70617">
        <ele>199</ele>
        <time>2018-03-14T09:51:22Z</time>
      </trkpt>
      <trkpt lat="46.00047" lon="4.70617">
        <ele>198</ele>
        <time>2018-03-14T09:51:24Z</time>
      </trkpt>
      <trkpt lat="46.00055" lon="4.70614">
        <ele>198</ele>
        <time>2018-03-14T09:51:25Z</time>
      </trkpt>
      <trkpt lat="46.00059" lon="4.70613">
        <ele>198</ele>
        <time>2018-03-14T09:51:26Z</time>
      </trkpt>
      <trkpt lat="46.00064" lon="4.70612">
        <ele>198</ele>
        <time>2018-03-14T09:51:27Z</time>
      </trkpt>
      <trkpt lat="46.0007" lon="4.7061">
        <ele>198</ele>
        <time>2018-03-14T09:51:28Z</time>
      </trkpt>
      <trkpt lat="46.00074" lon="4.70609">
        <ele>198</ele>
        <time>2018-03-14T09:51:29Z</time>
      </trkpt>
      <trkpt lat="46.0008" lon="4.70607">
        <ele>198</ele>
        <time>2018-03-14T09:51:30Z</time>
      </trkpt>
      <trkpt lat="46.00085" lon="4.70605">
        <ele>198</ele>
        <time>2018-03-14T09:51:31Z</time>
      </trkpt>
      <trkpt lat="46.00089" lon="4.70603">
        <ele>198</ele>
        <time>2018-03-14T09:51:32Z</time>
      </trkpt>
      <trkpt lat="46.00094" lon="4.706">
        <ele>198</ele>
        <time>2018-03-14T09:51:33Z</time>
      </trkpt>
      <trkpt lat="46.00099" lon="4.70597">
        <ele>198</ele>
        <time>2018-03-14T09:51:34Z</time>
      </trkpt>
      <trkpt lat="46.00105" lon="4.70594">
        <ele>198</ele>
        <time>2018-03-14T09:51:35Z</time>
      </trkpt>
      <trkpt lat="46.0011" lon="4.70591">
        <ele>198</ele>
        <time>2018-03-14T09:51:36Z</time>
      </trkpt>
      <trkpt lat="46.00114" lon="4.70587">
        <ele>198</ele>
        <time>2018-03-14T09:51:37Z</time>
      </trkpt>
      <trkpt lat="46.00119" lon="4.70583">
        <ele>198</ele>
        <time>2018-03-14T09:51:38Z</time>
      </trkpt>
      <trkpt lat="46.00123" lon="4.70579">
        <ele>198</ele>
        <time>2018-03-14T09:51:39Z</time>
      </trkpt>
      <trkpt lat="46.00127" lon="4.70576">
        <ele>198</ele>
        <time>2018-03-14T09:51:40Z</time>
      </trkpt>
      <trkpt lat="46.00131" lon="4.70572">
        <ele>198</ele>
        <time>2018-03-14T09:51:41Z</time>
      </trkpt>
      <trkpt lat="46.00135" lon="4.70568">
        <ele>198</ele>
        <time>2018-03-14T09:51:42Z</time>
      </trkpt>
      <trkpt lat="46.00139" lon="4.70566">
        <ele>198</ele>
        <time>2018-03-14T09:51:43Z</time>
      </trkpt>
      <trkpt lat="46.00144" lon="4.70564">
        <ele>198</ele>
        <time>2018-03-14T09:51:44Z</time>
      </trkpt>
      <trkpt lat="46.00149" lon="4.70563">
        <ele>198</ele>
        <time>2018-03-14T09:51:45Z</time>
      </trkpt>
      <trkpt lat="46.00153" lon="4.70562">
        <ele>198</ele>
        <time>2018-03-14T09:51:46Z</time>
      </trkpt>
      <trkpt lat="46.00158" lon="4.7056">
        <ele>198</ele>
        <time>2018-03-14T09:51:47Z</time>
      </trkpt>
      <trkpt lat="46.00162" lon="4.70556">
        <ele>198</ele>
        <time>2018-03-14T09:51:48Z</time>
      </trkpt>
      <trkpt lat="46.00166" lon="4.70552">
        <ele>198</ele>
        <time>2018-03-14T09:51:49Z</time>
      </trkpt>
      <trkpt lat="46.00169" lon="4.70548">
        <ele>198</ele>
        <time>2018-03-14T09:51:50Z</time>
      </trkpt>
      <trkpt lat="46.00174" lon="4.70545">
        <ele>198</ele>
        <time>2018-03-14T09:51:51Z</time>
      </trkpt>
      <trkpt lat="46.0018" lon="4.70541">
        <ele>198</ele>
        <time>2018-03-14T09:51:52Z</time>
      </trkpt>
      <trkpt lat="46.00185" lon="4.7054">
        <ele>198</ele>
        <time>2018-03-14T09:51:53Z</time>
      </trkpt>
      <trkpt lat="46.0019" lon="4.7054">
        <ele>198</ele>
        <time>2018-03-14T09:51:54Z</time>
      </trkpt>
      <trkpt lat="46.00195" lon="4.70539">
        <ele>198</ele>
        <time>2018-03-14T09:51:55Z</time>
      </trkpt>
      <trkpt lat="46.002" lon="4.70539">
        <ele>198</ele>
        <time>2018-03-14T09:51:56Z</time>
      </trkpt>
      <trkpt lat="46.00205" lon="4.70537">
        <ele>198</ele>
        <time>2018-03-14T09:51:57Z</time>
      </trkpt>
      <trkpt lat="46.00211" lon="4.70536">
        <ele>198</ele>
        <time>2018-03-14T09:51:58Z</time>
      </trkpt>
      <trkpt lat="46.00216" lon="4.70534">
        <ele>198</ele>
        <time>2018-03-14T09:51:59Z</time>
      </trkpt>
      <trkpt lat="46.00221" lon="4.70532">
        <ele>198</ele>
        <time>2018-03-14T09:52:00Z</time>
      </trkpt>
      <trkpt lat="46.00225" lon="4.7053">
        <ele>198</ele>
        <time>2018-03-14T09:52:01Z</time>
      </trkpt>
      <trkpt lat="46.0023" lon="4.70529">
        <ele>198</ele>
        <time>2018-03-14T09:52:02Z</time>
      </trkpt>
      <trkpt lat="46.00235" lon="4.70527">
        <ele>198</ele>
        <time>2018-03-14T09:52:03Z</time>
      </trkpt>
      <trkpt lat="46.0024" lon="4.70526">
        <ele>198</ele>
        <time>2018-03-14T09:52:04Z</time>
      </trkpt>
      <trkpt lat="46.00244" lon="4.70524">
        <ele>198</ele>
        <time>2018-03-14T09:52:05Z</time>
      </trkpt>
      <trkpt lat="46.0025" lon="4.70522">
        <ele>198</ele>
        <time>2018-03-14T09:52:06Z</time>
      </trkpt>
      <trkpt lat="46.00255" lon="4.7052">
        <ele>197</ele>
        <time>2018-03-14T09:52:07Z</time>
      </trkpt>
      <trkpt lat="46.0026" lon="4.70518">
        <ele>197</ele>
        <time>2018-03-14T09:52:08Z</time>
      </trkpt>
      <trkpt lat="46.00266" lon="4.70518">
        <ele>197</ele>
        <time>2018-03-14T09:52:09Z</time>
      </trkpt>
      <trkpt lat="46.00271" lon="4.70517">
        <ele>197</ele>
        <time>2018-03-14T09:52:10Z</time>
      </trkpt>
      <trkpt lat="46.00275" lon="4.70516">
        <ele>197</ele>
        <time>2018-03-14T09:52:11Z</time>
      </trkpt>
      <trkpt lat="46.0028" lon="4.70515">
        <ele>197</ele>
        <time>2018-03-14T09:52:12Z</time>
      </trkpt>
      <trkpt lat="46.00285" lon="4.70513">
        <ele>197</ele>
        <time>2018-03-14T09:52:13Z</time>
      </trkpt>
      <trkpt lat="46.00289" lon="4.70512">
        <ele>197</ele>
        <time>2018-03-14T09:52:14Z</time>
      </trkpt>
      <trkpt lat="46.00294" lon="4.70511">
        <ele>197</ele>
        <time>2018-03-14T09:52:15Z</time>
      </trkpt>
      <trkpt lat="46.003" lon="4.70511">
        <ele>197</ele>
        <time>2018-03-14T09:52:16Z</time>
      </trkpt>
      <trkpt lat="46.00305" lon="4.70509">
        <ele>197</ele>
        <time>2018-03-14T09:52:17Z</time>
      </trkpt>
      <trkpt lat="46.00311" lon="4.70508">
        <ele>197</ele>
        <time>2018-03-14T09:52:18Z</time>
      </trkpt>
      <trkpt lat="46.00315" lon="4.70508">
        <ele>197</ele>
        <time>2018-03-14T09:52:19Z</time>
      </trkpt>
      <trkpt lat="46.00321" lon="4.70507">
        <ele>198</ele>
        <time>2018-03-14T09:52:20Z</time>
      </trkpt>
      <trkpt lat="46.00327" lon="4.70506">
        <ele>198</ele>
        <time>2018-03-14T09:52:21Z</time>
      </trkpt>
      <trkpt lat="46.00332" lon="4.70506">
        <ele>198</ele>
        <time>2018-03-14T09:52:22Z</time>
      </trkpt>
      <trkpt lat="46.00338" lon="4.70505">
        <ele>198</ele>
        <time>2018-03-14T09:52:23Z</time>
      </trkpt>
      <trkpt lat="46.00343" lon="4.70504">
        <ele>198</ele>
        <time>2018-03-14T09:52:24Z</time>
      </trkpt>
      <trkpt lat="46.00349" lon="4.70502">
        <ele>198</ele>
        <time>2018-03-14T09:52:25Z</time>
      </trkpt>
      <trkpt lat="46.00354" lon="4.70501">
        <ele>198</ele>
        <time>2018-03-14T09:52:26Z</time>
      </trkpt>
      <trkpt lat="46.00359" lon="4.705">
        <ele>198</ele>
        <time>2018-03-14T09:52:27Z</time>
      </trkpt>
      <trkpt lat="46.00365" lon="4.70499">
        <ele>200</ele>
        <time>2018-03-14T09:52:28Z</time>
      </trkpt>
      <trkpt lat="46.0037" lon="4.70498">
        <ele>200</ele>
        <time>2018-03-14T09:52:29Z</time>
      </trkpt>
      <trkpt lat="46.00376" lon="4.70497">
        <ele>200</ele>
        <time>2018-03-14T09:52:30Z</time>
      </trkpt>
      <trkpt lat="46.00382" lon="4.70496">
        <ele>200</ele>
        <time>2018-03-14T09:52:31Z</time>
      </trkpt>
      <trkpt lat="46.00387" lon="4.70495">
        <ele>200</ele>
        <time>2018-03-14T09:52:32Z</time>
      </trkpt>
      <trkpt lat="46.00393" lon="4.70494">
        <ele>200</ele>
        <time>2018-03-14T09:52:33Z</time>
      </trkpt>
      <trkpt lat="46.00398" lon="4.70494">
        <ele>200</ele>
        <time>2018-03-14T09:52:34Z</time>
      </trkpt>
      <trkpt lat="46.00403" lon="4.70495">
        <ele>200</ele>
        <time>2018-03-14T09:52:35Z</time>
      </trkpt>
      <trkpt lat="46.00409" lon="4.70494">
        <ele>200</ele>
        <time>2018-03-14T09:52:36Z</time>
      </trkpt>
      <trkpt lat="46.00414" lon="4.70494">
        <ele>200</ele>
        <time>2018-03-14T09:52:37Z</time>
      </trkpt>
      <trkpt lat="46.0042" lon="4.70495">
        <ele>201</ele>
        <time>2018-03-14T09:52:38Z</time>
      </trkpt>
      <trkpt lat="46.00425" lon="4.70496">
        <ele>201</ele>
        <time>2018-03-14T09:52:39Z</time>
      </trkpt>
      <trkpt lat="46.00431" lon="4.70496">
        <ele>201</ele>
        <time>2018-03-14T09:52:40Z</time>
      </trkpt>
      <trkpt lat="46.00435" lon="4.70498">
        <ele>202</ele>
        <time>2018-03-14T09:52:41Z</time>
      </trkpt>
      <trkpt lat="46.0044" lon="4.70499">
        <ele>202</ele>
        <time>2018-03-14T09:52:42Z</time>
      </trkpt>
      <trkpt lat="46.00445" lon="4.705">
        <ele>201</ele>
        <time>2018-03-14T09:52:43Z</time>
      </trkpt>
      <trkpt lat="46.00449" lon="4.70502">
        <ele>201</ele>
        <time>2018-03-14T09:52:44Z</time>
      </trkpt>
      <trkpt lat="46.00454" lon="4.70504">
        <ele>201</ele>
        <time>2018-03-14T09:52:45Z</time>
      </trkpt>
      <trkpt lat="46.00461" lon="4.70509">
        <ele>201</ele>
        <time>2018-03-14T09:52:47Z</time>
      </trkpt>
      <trkpt lat="46.00462" lon="4.70511">
        <ele>201</ele>
        <time>2018-03-14T09:52:48Z</time>
      </trkpt>
      <trkpt lat="46.00467" lon="4.7052">
        <ele>201</ele>
        <time>2018-03-14T09:52:50Z</time>
      </trkpt>
      <trkpt lat="46.00467" lon="4.70526">
        <ele>201</ele>
        <time>2018-03-14T09:52:51Z</time>
      </trkpt>
      <trkpt lat="46.00469" lon="4.70534">
        <ele>201</ele>
        <time>2018-03-14T09:52:53Z</time>
      </trkpt>
      <trkpt lat="46.00472" lon="4.70541">
        <ele>201</ele>
        <time>2018-03-14T09:52:54Z</time>
      </trkpt>
      <trkpt lat="46.00479" lon="4.70548">
        <ele>200</ele>
        <time>2018-03-14T09:52:56Z</time>
      </trkpt>
      <trkpt lat="46.00484" lon="4.7055">
        <ele>201</ele>
        <time>2018-03-14T09:52:57Z</time>
      </trkpt>
      <trkpt lat="46.00492" lon="4.70548">
        <ele>201</ele>
        <time>2018-03-14T09:52:59Z</time>
      </trkpt>
      <trkpt lat="46.00496" lon="4.70545">
        <ele>201</ele>
        <time>2018-03-14T09:53:00Z</time>
      </trkpt>
      <trkpt lat="46.00502" lon="4.70537">
        <ele>203</ele>
        <time>2018-03-14T09:53:02Z</time>
      </trkpt>
      <trkpt lat="46.00504" lon="4.70531">
        <ele>203</ele>
        <time>2018-03-14T09:53:03Z</time>
      </trkpt>
      <trkpt lat="46.00508" lon="4.70521">
        <ele>203</ele>
        <time>2018-03-14T09:53:05Z</time>
      </trkpt>
      <trkpt lat="46.00511" lon="4.70518">
        <ele>204</ele>
        <time>2018-03-14T09:53:06Z</time>
      </trkpt>
      <trkpt lat="46.00519" lon="4.70514">
        <ele>204</ele>
        <time>2018-03-14T09:53:08Z</time>
      </trkpt>
      <trkpt lat="46.00524" lon="4.70514">
        <ele>204</ele>
        <time>2018-03-14T09:53:09Z</time>
      </trkpt>
      <trkpt lat="46.00532" lon="4.70515">
        <ele>204</ele>
        <time>2018-03-14T09:53:11Z</time>
      </trkpt>
      <trkpt lat="46.00536" lon="4.70515">
        <ele>204</ele>
        <time>2018-03-14T09:53:12Z</time>
      </trkpt>
      <trkpt lat="46.00544" lon="4.70517">
        <ele>204</ele>
        <time>2018-03-14T09:53:14Z</time>
      </trkpt>
      <trkpt lat="46.00548" lon="4.70517">
        <ele>204</ele>
        <time>2018-03-14T09:53:15Z</time>
      </trkpt>
      <trkpt lat="46.00557" lon="4.70518">
        <ele>204</ele>
        <time>2018-03-14T09:53:17Z</time>
      </trkpt>
      <trkpt lat="46.00558" lon="4.70518">
        <ele>204</ele>
        <time>2018-03-14T09:53:18Z</time>
      </trkpt>
      <trkpt lat="46.0056" lon="4.70517">
        <ele>204</ele>
        <time>2018-03-14T09:53:19Z</time>
      </trkpt>
      <trkpt lat="46.00567" lon="4.70515">
        <ele>205</ele>
        <time>2018-03-14T09:53:20Z</time>
      </trkpt>
      <trkpt lat="46.00576" lon="4.70513">
        <ele>205</ele>
        <time>2018-03-14T09:53:22Z</time>
      </trkpt>
      <trkpt lat="46.0058" lon="4.70513">
        <ele>205</ele>
        <time>2018-03-14T09:53:23Z</time>
      </trkpt>
      <trkpt lat="46.00589" lon="4.70511">
        <ele>207</ele>
        <time>2018-03-14T09:53:25Z</time>
      </trkpt>
      <trkpt lat="46.00593" lon="4.7051">
        <ele>207</ele>
        <time>2018-03-14T09:53:26Z</time>
      </trkpt>
      <trkpt lat="46.00601" lon="4.70508">
        <ele>207</ele>
        <time>2018-03-14T09:53:28Z</time>
      </trkpt>
      <trkpt lat="46.00606" lon="4.70507">
        <ele>207</ele>
        <time>2018-03-14T09:53:29Z</time>
      </trkpt>
      <trkpt lat="46.00614" lon="4.70508">
        <ele>207</ele>
        <time>2018-03-14T09:53:31Z</time>
      </trkpt>
      <trkpt lat="46.00619" lon="4.70507">
        <ele>207</ele>
        <time>2018-03-14T09:53:32Z</time>
      </trkpt>
      <trkpt lat="46.00623" lon="4.70508">
        <ele>207</ele>
        <time>2018-03-14T09:53:33Z</time>
      </trkpt>
      <trkpt lat="46.00628" lon="4.70509">
        <ele>207</ele>
        <time>2018-03-14T09:53:34Z</time>
      </trkpt>
      <trkpt lat="46.00631" lon="4.70503">
        <ele>208</ele>
        <time>2018-03-14T09:53:35Z</time>
      </trkpt>
      <trkpt lat="46.00636" lon="4.70503">
        <ele>208</ele>
        <time>2018-03-14T09:53:36Z</time>
      </trkpt>
      <trkpt lat="46.0064" lon="4.70502">
        <ele>208</ele>
        <time>2018-03-14T09:53:37Z</time>
      </trkpt>
      <trkpt lat="46.00645" lon="4.705">
        <ele>209</ele>
        <time>2018-03-14T09:53:38Z</time>
      </trkpt>
      <trkpt lat="46.00653" lon="4.705">
        <ele>212</ele>
        <time>2018-03-14T09:53:40Z</time>
      </trkpt>
      <trkpt lat="46.00658" lon="4.705">
        <ele>212</ele>
        <time>2018-03-14T09:53:41Z</time>
      </trkpt>
      <trkpt lat="46.00662" lon="4.705">
        <ele>212</ele>
        <time>2018-03-14T09:53:42Z</time>
      </trkpt>
      <trkpt lat="46.00667" lon="4.705">
        <ele>212</ele>
        <time>2018-03-14T09:53:43Z</time>
      </trkpt>
      <trkpt lat="46.00676" lon="4.70501">
        <ele>210</ele>
        <time>2018-03-14T09:53:45Z</time>
      </trkpt>
      <trkpt lat="46.00682" lon="4.70501">
        <ele>209</ele>
        <time>2018-03-14T09:53:46Z</time>
      </trkpt>
      <trkpt lat="46.00687" lon="4.70502">
        <ele>209</ele>
        <time>2018-03-14T09:53:47Z</time>
      </trkpt>
      <trkpt lat="46.00691" lon="4.70503">
        <ele>208</ele>
        <time>2018-03-14T09:53:48Z</time>
      </trkpt>
      <trkpt lat="46.00697" lon="4.70503">
        <ele>208</ele>
        <time>2018-03-14T09:53:49Z</time>
      </trkpt>
      <trkpt lat="46.00701" lon="4.70504">
        <ele>208</ele>
        <time>2018-03-14T09:53:50Z</time>
      </trkpt>
      <trkpt lat="46.00706" lon="4.70506">
        <ele>207</ele>
        <time>2018-03-14T09:53:51Z</time>
      </trkpt>
      <trkpt lat="46.00712" lon="4.70506">
        <ele>207</ele>
        <time>2018-03-14T09:53:52Z</time>
      </trkpt>
      <trkpt lat="46.00718" lon="4.70508">
        <ele>207</ele>
        <time>2018-03-14T09:53:53Z</time>
      </trkpt>
      <trkpt lat="46.00724" lon="4.70509">
        <ele>207</ele>
        <time>2018-03-14T09:53:54Z</time>
      </trkpt>
      <trkpt lat="46.0073" lon="4.7051">
        <ele>207</ele>
        <time>2018-03-14T09:53:55Z</time>
      </trkpt>
      <trkpt lat="46.00737" lon="4.70511">
        <ele>207</ele>
        <time>2018-03-14T09:53:56Z</time>
      </trkpt>
      <trkpt lat="46.00742" lon="4.70513">
        <ele>207</ele>
        <time>2018-03-14T09:53:57Z</time>
      </trkpt>
      <trkpt lat="46.00748" lon="4.70516">
        <ele>207</ele>
        <time>2018-03-14T09:53:58Z</time>
      </trkpt>
      <trkpt lat="46.00754" lon="4.70518">
        <ele>206</ele>
        <time>2018-03-14T09:53:59Z</time>
      </trkpt>
      <trkpt lat="46.00761" lon="4.7052">
        <ele>205</ele>
        <time>2018-03-14T09:54:00Z</time>
      </trkpt>
      <trkpt lat="46.00767" lon="4.70522">
        <ele>205</ele>
        <time>2018-03-14T09:54:01Z</time>
      </trkpt>
      <trkpt lat="46.00774" lon="4.70524">
        <ele>205</ele>
        <time>2018-03-14T09:54:02Z</time>
      </trkpt>
      <trkpt lat="46.0078" lon="4.70526">
        <ele>204</ele>
        <time>2018-03-14T09:54:03Z</time>
      </trkpt>
      <trkpt lat="46.00787" lon="4.70529">
        <ele>204</ele>
        <time>2018-03-14T09:54:04Z</time>
      </trkpt>
      <trkpt lat="46.00794" lon="4.70532">
        <ele>204</ele>
        <time>2018-03-14T09:54:05Z</time>
      </trkpt>
      <trkpt lat="46.00801" lon="4.70535">
        <ele>204</ele>
        <time>2018-03-14T09:54:06Z</time>
      </trkpt>
      <trkpt lat="46.00808" lon="4.70538">
        <ele>203</ele>
        <time>2018-03-14T09:54:07Z</time>
      </trkpt>
      <trkpt lat="46.00815" lon="4.70541">
        <ele>203</ele>
        <time>2018-03-14T09:54:08Z</time>
      </trkpt>
      <trkpt lat="46.00821" lon="4.70544">
        <ele>203</ele>
        <time>2018-03-14T09:54:09Z</time>
      </trkpt>
      <trkpt lat="46.00828" lon="4.70547">
        <ele>203</ele>
        <time>2018-03-14T09:54:10Z</time>
      </trkpt>
      <trkpt lat="46.00835" lon="4.70549">
        <ele>201</ele>
        <time>2018-03-14T09:54:11Z</time>
      </trkpt>
      <trkpt lat="46.00841" lon="4.70553">
        <ele>201</ele>
        <time>2018-03-14T09:54:12Z</time>
      </trkpt>
      <trkpt lat="46.00848" lon="4.70555">
        <ele>201</ele>
        <time>2018-03-14T09:54:13Z</time>
      </trkpt>
      <trkpt lat="46.00856" lon="4.70559">
        <ele>201</ele>
        <time>2018-03-14T09:54:14Z</time>
      </trkpt>
      <trkpt lat="46.00862" lon="4.70562">
        <ele>201</ele>
        <time>2018-03-14T09:54:15Z</time>
      </trkpt>
      <trkpt lat="46.00869" lon="4.70565">
        <ele>201</ele>
        <time>2018-03-14T09:54:16Z</time>
      </trkpt>
      <trkpt lat="46.00876" lon="4.70568">
        <ele>200</ele>
        <time>2018-03-14T09:54:17Z</time>
      </trkpt>
      <trkpt lat="46.00883" lon="4.70571">
        <ele>200</ele>
        <time>2018-03-14T09:54:18Z</time>
      </trkpt>
      <trkpt lat="46.0089" lon="4.70574">
        <ele>200</ele>
        <time>2018-03-14T09:54:19Z</time>
      </trkpt>
      <trkpt lat="46.00897" lon="4.70577">
        <ele>200</ele>
        <time>2018-03-14T09:54:20Z</time>
      </trkpt>
      <trkpt lat="46.00904" lon="4.7058">
        <ele>199</ele>
        <time>2018-03-14T09:54:21Z</time>
      </trkpt>
      <trkpt lat="46.00911" lon="4.70583">
        <ele>199</ele>
        <time>2018-03-14T09:54:22Z</time>
      </trkpt>
      <trkpt lat="46.00917" lon="4.70586">
        <ele>198</ele>
        <time>2018-03-14T09:54:23Z</time>
      </trkpt>
      <trkpt lat="46.00924" lon="4.70589">
        <ele>198</ele>
        <time>2018-03-14T09:54:24Z</time>
      </trkpt>
      <trkpt lat="46.00932" lon="4.70592">
        <ele>198</ele>
        <time>2018-03-14T09:54:25Z</time>
      </trkpt>
      <trkpt lat="46.00939" lon="4.70596">
        <ele>198</ele>
        <time>2018-03-14T09:54:26Z</time>
      </trkpt>
      <trkpt lat="46.00946" lon="4.70599">
        <ele>197</ele>
        <time>2018-03-14T09:54:27Z</time>
      </trkpt>
      <trkpt lat="46.00953" lon="4.70603">
        <ele>197</ele>
        <time>2018-03-14T09:54:28Z</time>
      </trkpt>
      <trkpt lat="46.00961" lon="4.70606">
        <ele>197</ele>
        <time>2018-03-14T09:54:29Z</time>
      </trkpt>
      <trkpt lat="46.00968" lon="4.7061">
        <ele>197</ele>
        <time>2018-03-14T09:54:30Z</time>
      </trkpt>
      <trkpt lat="46.00975" lon="4.70614">
        <ele>197</ele>
        <time>2018-03-14T09:54:31Z</time>
      </trkpt>
      <trkpt lat="46.00983" lon="4.70617">
        <ele>197</ele>
        <time>2018-03-14T09:54:32Z</time>
      </trkpt>
      <trkpt lat="46.00989" lon="4.70621">
        <ele>197</ele>
        <time>2018-03-14T09:54:33Z</time>
      </trkpt>
      <trkpt lat="46.00997" lon="4.70624">
        <ele>197</ele>
        <time>2018-03-14T09:54:34Z</time>
      </trkpt>
      <trkpt lat="46.01004" lon="4.70627">
        <ele>196</ele>
        <time>2018-03-14T09:54:35Z</time>
      </trkpt>
      <trkpt lat="46.01011" lon="4.7063">
        <ele>196</ele>
        <time>2018-03-14T09:54:36Z</time>
      </trkpt>
      <trkpt lat="46.01018" lon="4.70633">
        <ele>196</ele>
        <time>2018-03-14T09:54:37Z</time>
      </trkpt>
      <trkpt lat="46.01025" lon="4.70636">
        <ele>196</ele>
        <time>2018-03-14T09:54:38Z</time>
      </trkpt>
      <trkpt lat="46.01032" lon="4.70639">
        <ele>196</ele>
        <time>2018-03-14T09:54:39Z</time>
      </trkpt>
      <trkpt lat="46.0104" lon="4.70642">
        <ele>196</ele>
        <time>2018-03-14T09:54:40Z</time>
      </trkpt>
      <trkpt lat="46.01046" lon="4.70646">
        <ele>195</ele>
        <time>2018-03-14T09:54:41Z</time>
      </trkpt>
      <trkpt lat="46.01053" lon="4.7065">
        <ele>195</ele>
        <time>2018-03-14T09:54:42Z</time>
      </trkpt>
      <trkpt lat="46.0106" lon="4.70652">
        <ele>195</ele>
        <time>2018-03-14T09:54:43Z</time>
      </trkpt>
      <trkpt lat="46.01067" lon="4.70655">
        <ele>195</ele>
        <time>2018-03-14T09:54:44Z</time>
      </trkpt>
      <trkpt lat="46.01074" lon="4.70657">
        <ele>195</ele>
        <time>2018-03-14T09:54:45Z</time>
      </trkpt>
      <trkpt lat="46.0108" lon="4.7066">
        <ele>195</ele>
        <time>2018-03-14T09:54:46Z</time>
      </trkpt>
      <trkpt lat="46.01087" lon="4.70663">
        <ele>195</ele>
        <time>2018-03-14T09:54:47Z</time>
      </trkpt>
      <trkpt lat="46.01094" lon="4.70666">
        <ele>195</ele>
        <time>2018-03-14T09:54:48Z</time>
      </trkpt>
      <trkpt lat="46.011" lon="4.70668">
        <ele>195</ele>
        <time>2018-03-14T09:54:49Z</time>
      </trkpt>
      <trkpt lat="46.01107" lon="4.70671">
        <ele>195</ele>
        <time>2018-03-14T09:54:50Z</time>
      </trkpt>
      <trkpt lat="46.01113" lon="4.70674">
        <ele>195</ele>
        <time>2018-03-14T09:54:51Z</time>
      </trkpt>
      <trkpt lat="46.01121" lon="4.70677">
        <ele>195</ele>
        <time>2018-03-14T09:54:52Z</time>
      </trkpt>
      <trkpt lat="46.01126" lon="4.7068">
        <ele>194</ele>
        <time>2018-03-14T09:54:53Z</time>
      </trkpt>
      <trkpt lat="46.01134" lon="4.70682">
        <ele>194</ele>
        <time>2018-03-14T09:54:54Z</time>
      </trkpt>
      <trkpt lat="46.0114" lon="4.70685">
        <ele>194</ele>
        <time>2018-03-14T09:54:55Z</time>
      </trkpt>
      <trkpt lat="46.01147" lon="4.70688">
        <ele>194</ele>
        <time>2018-03-14T09:54:56Z</time>
      </trkpt>
      <trkpt lat="46.01153" lon="4.70691">
        <ele>194</ele>
        <time>2018-03-14T09:54:57Z</time>
      </trkpt>
      <trkpt lat="46.01159" lon="4.70693">
        <ele>194</ele>
        <time>2018-03-14T09:54:58Z</time>
      </trkpt>
      <trkpt lat="46.01165" lon="4.70695">
        <ele>194</ele>
        <time>2018-03-14T09:54:59Z</time>
      </trkpt>
      <trkpt lat="46.0117" lon="4.70698">
        <ele>194</ele>
        <time>2018-03-14T09:55:00Z</time>
      </trkpt>
      <trkpt lat="46.01175" lon="4.70701">
        <ele>194</ele>
        <time>2018-03-14T09:55:01Z</time>
      </trkpt>
      <trkpt lat="46.01182" lon="4.70704">
        <ele>194</ele>
        <time>2018-03-14T09:55:02Z</time>
      </trkpt>
      <trkpt lat="46.01188" lon="4.70706">
        <ele>194</ele>
        <time>2018-03-14T09:55:03Z</time>
      </trkpt>
      <trkpt lat="46.01194" lon="4.70709">
        <ele>194</ele>
        <time>2018-03-14T09:55:04Z</time>
      </trkpt>
      <trkpt lat="46.012" lon="4.70711">
        <ele>194</ele>
        <time>2018-03-14T09:55:05Z</time>
      </trkpt>
      <trkpt lat="46.01205" lon="4.70715">
        <ele>194</ele>
        <time>2018-03-14T09:55:06Z</time>
      </trkpt>
      <trkpt lat="46.01211" lon="4.70717">
        <ele>194</ele>
        <time>2018-03-14T09:55:07Z</time>
      </trkpt>
      <trkpt lat="46.01217" lon="4.7072">
        <ele>194</ele>
        <time>2018-03-14T09:55:08Z</time>
      </trkpt>
      <trkpt lat="46.01223" lon="4.70724">
        <ele>194</ele>
        <time>2018-03-14T09:55:09Z</time>
      </trkpt>
      <trkpt lat="46.01229" lon="4.70726">
        <ele>194</ele>
        <time>2018-03-14T09:55:10Z</time>
      </trkpt>
      <trkpt lat="46.01235" lon="4.70728">
        <ele>193</ele>
        <time>2018-03-14T09:55:11Z</time>
      </trkpt>
      <trkpt lat="46.01241" lon="4.70729">
        <ele>193</ele>
        <time>2018-03-14T09:55:12Z</time>
      </trkpt>
      <trkpt lat="46.01247" lon="4.70731">
        <ele>193</ele>
        <time>2018-03-14T09:55:13Z</time>
      </trkpt>
      <trkpt lat="46.01253" lon="4.70732">
        <ele>192</ele>
        <time>2018-03-14T09:55:14Z</time>
      </trkpt>
      <trkpt lat="46.01258" lon="4.70735">
        <ele>192</ele>
        <time>2018-03-14T09:55:15Z</time>
      </trkpt>
      <trkpt lat="46.01265" lon="4.70737">
        <ele>192</ele>
        <time>2018-03-14T09:55:16Z</time>
      </trkpt>
      <trkpt lat="46.01272" lon="4.70739">
        <ele>192</ele>
        <time>2018-03-14T09:55:17Z</time>
      </trkpt>
      <trkpt lat="46.01279" lon="4.70741">
        <ele>192</ele>
        <time>2018-03-14T09:55:18Z</time>
      </trkpt>
      <trkpt lat="46.01285" lon="4.70742">
        <ele>191</ele>
        <time>2018-03-14T09:55:19Z</time>
      </trkpt>
      <trkpt lat="46.01292" lon="4.70743">
        <ele>191</ele>
        <time>2018-03-14T09:55:20Z</time>
      </trkpt>
      <trkpt lat="46.01297" lon="4.70745">
        <ele>191</ele>
        <time>2018-03-14T09:55:21Z</time>
      </trkpt>
      <trkpt lat="46.01305" lon="4.70746">
        <ele>191</ele>
        <time>2018-03-14T09:55:22Z</time>
      </trkpt>
      <trkpt lat="46.01312" lon="4.70746">
        <ele>190</ele>
        <time>2018-03-14T09:55:23Z</time>
      </trkpt>
      <trkpt lat="46.01318" lon="4.70748">
        <ele>190</ele>
        <time>2018-03-14T09:55:24Z</time>
      </trkpt>
      <trkpt lat="46.01325" lon="4.70749">
        <ele>190</ele>
        <time>2018-03-14T09:55:25Z</time>
      </trkpt>
      <trkpt lat="46.01331" lon="4.70749">
        <ele>189</ele>
        <time>2018-03-14T09:55:26Z</time>
      </trkpt>
      <trkpt lat="46.01339" lon="4.7075">
        <ele>189</ele>
        <time>2018-03-14T09:55:27Z</time>
      </trkpt>
      <trkpt lat="46.01346" lon="4.70751">
        <ele>189</ele>
        <time>2018-03-14T09:55:28Z</time>
      </trkpt>
      <trkpt lat="46.01352" lon="4.70751">
        <ele>189</ele>
        <time>2018-03-14T09:55:29Z</time>
      </trkpt>
      <trkpt lat="46.01359" lon="4.70752">
        <ele>189</ele>
        <time>2018-03-14T09:55:30Z</time>
      </trkpt>
      <trkpt lat="46.01365" lon="4.70752">
        <ele>189</ele>
        <time>2018-03-14T09:55:31Z</time>
      </trkpt>
      <trkpt lat="46.01372" lon="4.70751">
        <ele>189</ele>
        <time>2018-03-14T09:55:32Z</time>
      </trkpt>
      <trkpt lat="46.01379" lon="4.7075">
        <ele>189</ele>
        <time>2018-03-14T09:55:33Z</time>
      </trkpt>
      <trkpt lat="46.01387" lon="4.7075">
        <ele>189</ele>
        <time>2018-03-14T09:55:34Z</time>
      </trkpt>
      <trkpt lat="46.01394" lon="4.70749">
        <ele>189</ele>
        <time>2018-03-14T09:55:35Z</time>
      </trkpt>
      <trkpt lat="46.014" lon="4.70749">
        <ele>189</ele>
        <time>2018-03-14T09:55:36Z</time>
      </trkpt>
      <trkpt lat="46.01407" lon="4.70748">
        <ele>189</ele>
        <time>2018-03-14T09:55:37Z</time>
      </trkpt>
      <trkpt lat="46.01414" lon="4.70747">
        <ele>189</ele>
        <time>2018-03-14T09:55:38Z</time>
      </trkpt>
      <trkpt lat="46.0142" lon="4.70746">
        <ele>189</ele>
        <time>2018-03-14T09:55:39Z</time>
      </trkpt>
      <trkpt lat="46.01428" lon="4.70745">
        <ele>189</ele>
        <time>2018-03-14T09:55:40Z</time>
      </trkpt>
      <trkpt lat="46.01435" lon="4.70744">
        <ele>189</ele>
        <time>2018-03-14T09:55:41Z</time>
      </trkpt>
      <trkpt lat="46.01442" lon="4.70743">
        <ele>189</ele>
        <time>2018-03-14T09:55:42Z</time>
      </trkpt>
      <trkpt lat="46.01449" lon="4.70742">
        <ele>189</ele>
        <time>2018-03-14T09:55:43Z</time>
      </trkpt>
      <trkpt lat="46.01455" lon="4.70741">
        <ele>189</ele>
        <time>2018-03-14T09:55:44Z</time>
      </trkpt>
      <trkpt lat="46.01462" lon="4.70741">
        <ele>190</ele>
        <time>2018-03-14T09:55:45Z</time>
      </trkpt>
      <trkpt lat="46.01468" lon="4.7074">
        <ele>190</ele>
        <time>2018-03-14T09:55:46Z</time>
      </trkpt>
      <trkpt lat="46.01475" lon="4.70739">
        <ele>190</ele>
        <time>2018-03-14T09:55:47Z</time>
      </trkpt>
      <trkpt lat="46.01482" lon="4.70738">
        <ele>190</ele>
        <time>2018-03-14T09:55:48Z</time>
      </trkpt>
      <trkpt lat="46.01489" lon="4.70737">
        <ele>190</ele>
        <time>2018-03-14T09:55:49Z</time>
      </trkpt>
      <trkpt lat="46.01496" lon="4.70737">
        <ele>190</ele>
        <time>2018-03-14T09:55:50Z</time>
      </trkpt>
      <trkpt lat="46.01504" lon="4.70736">
        <ele>190</ele>
        <time>2018-03-14T09:55:51Z</time>
      </trkpt>
      <trkpt lat="46.01511" lon="4.70735">
        <ele>190</ele>
        <time>2018-03-14T09:55:52Z</time>
      </trkpt>
      <trkpt lat="46.01519" lon="4.70734">
        <ele>190</ele>
        <time>2018-03-14T09:55:53Z</time>
      </trkpt>
      <trkpt lat="46.01526" lon="4.70733">
        <ele>190</ele>
        <time>2018-03-14T09:55:54Z</time>
      </trkpt>
      <trkpt lat="46.01534" lon="4.70732">
        <ele>190</ele>
        <time>2018-03-14T09:55:55Z</time>
      </trkpt>
      <trkpt lat="46.0154" lon="4.70731">
        <ele>190</ele>
        <time>2018-03-14T09:55:56Z</time>
      </trkpt>
      <trkpt lat="46.01547" lon="4.70731">
        <ele>190</ele>
        <time>2018-03-14T09:55:57Z</time>
      </trkpt>
      <trkpt lat="46.01554" lon="4.7073">
        <ele>190</ele>
        <time>2018-03-14T09:55:58Z</time>
      </trkpt>
      <trkpt lat="46.01561" lon="4.70729">
        <ele>190</ele>
        <time>2018-03-14T09:55:59Z</time>
      </trkpt>
      <trkpt lat="46.01569" lon="4.70729">
        <ele>190</ele>
        <time>2018-03-14T09:56:00Z</time>
      </trkpt>
      <trkpt lat="46.01576" lon="4.70728">
        <ele>190</ele>
        <time>2018-03-14T09:56:01Z</time>
      </trkpt>
      <trkpt lat="46.01583" lon="4.70728">
        <ele>190</ele>
        <time>2018-03-14T09:56:02Z</time>
      </trkpt>
      <trkpt lat="46.0159" lon="4.70726">
        <ele>190</ele>
        <time>2018-03-14T09:56:03Z</time>
      </trkpt>
      <trkpt lat="46.01597" lon="4.70726">
        <ele>190</ele>
        <time>2018-03-14T09:56:04Z</time>
      </trkpt>
      <trkpt lat="46.01604" lon="4.70725">
        <ele>190</ele>
        <time>2018-03-14T09:56:05Z</time>
      </trkpt>
      <trkpt lat="46.0161" lon="4.70725">
        <ele>190</ele>
        <time>2018-03-14T09:56:06Z</time>
      </trkpt>
      <trkpt lat="46.01617" lon="4.70724">
        <ele>190</ele>
        <time>2018-03-14T09:56:07Z</time>
      </trkpt>
      <trkpt lat="46.01625" lon="4.70723">
        <ele>190</ele>
        <time>2018-03-14T09:56:08Z</time>
      </trkpt>
      <trkpt lat="46.01631" lon="4.70722">
        <ele>190</ele>
        <time>2018-03-14T09:56:09Z</time>
      </trkpt>
      <trkpt lat="46.01638" lon="4.70721">
        <ele>190</ele>
        <time>2018-03-14T09:56:10Z</time>
      </trkpt>
      <trkpt lat="46.01645" lon="4.70722">
        <ele>190</ele>
        <time>2018-03-14T09:56:11Z</time>
      </trkpt>
      <trkpt lat="46.01652" lon="4.70721">
        <ele>190</ele>
        <time>2018-03-14T09:56:12Z</time>
      </trkpt>
      <trkpt lat="46.0166" lon="4.70721">
        <ele>190</ele>
        <time>2018-03-14T09:56:13Z</time>
      </trkpt>
      <trkpt lat="46.01667" lon="4.7072">
        <ele>189</ele>
        <time>2018-03-14T09:56:14Z</time>
      </trkpt>
      <trkpt lat="46.01674" lon="4.70718">
        <ele>189</ele>
        <time>2018-03-14T09:56:15Z</time>
      </trkpt>
      <trkpt lat="46.01678" lon="4.70716">
        <ele>189</ele>
        <time>2018-03-14T09:56:16Z</time>
      </trkpt>
      <trkpt lat="46.01685" lon="4.70716">
        <ele>189</ele>
        <time>2018-03-14T09:56:17Z</time>
      </trkpt>
      <trkpt lat="46.01692" lon="4.70715">
        <ele>189</ele>
        <time>2018-03-14T09:56:18Z</time>
      </trkpt>
      <trkpt lat="46.01699" lon="4.70715">
        <ele>189</ele>
        <time>2018-03-14T09:56:19Z</time>
      </trkpt>
      <trkpt lat="46.01706" lon="4.70715">
        <ele>189</ele>
        <time>2018-03-14T09:56:20Z</time>
      </trkpt>
      <trkpt lat="46.01713" lon="4.70713">
        <ele>188</ele>
        <time>2018-03-14T09:56:21Z</time>
      </trkpt>
      <trkpt lat="46.0172" lon="4.70713">
        <ele>188</ele>
        <time>2018-03-14T09:56:22Z</time>
      </trkpt>
      <trkpt lat="46.01727" lon="4.70713">
        <ele>188</ele>
        <time>2018-03-14T09:56:23Z</time>
      </trkpt>
      <trkpt lat="46.01735" lon="4.70712">
        <ele>188</ele>
        <time>2018-03-14T09:56:24Z</time>
      </trkpt>
      <trkpt lat="46.01742" lon="4.70711">
        <ele>188</ele>
        <time>2018-03-14T09:56:25Z</time>
      </trkpt>
      <trkpt lat="46.01749" lon="4.7071">
        <ele>188</ele>
        <time>2018-03-14T09:56:26Z</time>
      </trkpt>
      <trkpt lat="46.01757" lon="4.70709">
        <ele>187</ele>
        <time>2018-03-14T09:56:27Z</time>
      </trkpt>
      <trkpt lat="46.01763" lon="4.70709">
        <ele>187</ele>
        <time>2018-03-14T09:56:28Z</time>
      </trkpt>
      <trkpt lat="46.01771" lon="4.70708">
        <ele>187</ele>
        <time>2018-03-14T09:56:29Z</time>
      </trkpt>
      <trkpt lat="46.01779" lon="4.70707">
        <ele>187</ele>
        <time>2018-03-14T09:56:30Z</time>
      </trkpt>
      <trkpt lat="46.01786" lon="4.70706">
        <ele>187</ele>
        <time>2018-03-14T09:56:31Z</time>
      </trkpt>
      <trkpt lat="46.01794" lon="4.70705">
        <ele>187</ele>
        <time>2018-03-14T09:56:32Z</time>
      </trkpt>
      <trkpt lat="46.01802" lon="4.70703">
        <ele>187</ele>
        <time>2018-03-14T09:56:33Z</time>
      </trkpt>
      <trkpt lat="46.0181" lon="4.70702">
        <ele>187</ele>
        <time>2018-03-14T09:56:34Z</time>
      </trkpt>
      <trkpt lat="46.01814" lon="4.70701">
        <ele>187</ele>
        <time>2018-03-14T09:56:35Z</time>
      </trkpt>
      <trkpt lat="46.01822" lon="4.70701">
        <ele>187</ele>
        <time>2018-03-14T09:56:36Z</time>
      </trkpt>
      <trkpt lat="46.01829" lon="4.707">
        <ele>187</ele>
        <time>2018-03-14T09:56:37Z</time>
      </trkpt>
      <trkpt lat="46.01836" lon="4.70699">
        <ele>185</ele>
        <time>2018-03-14T09:56:38Z</time>
      </trkpt>
      <trkpt lat="46.01844" lon="4.70698">
        <ele>185</ele>
        <time>2018-03-14T09:56:39Z</time>
      </trkpt>
      <trkpt lat="46.01852" lon="4.70698">
        <ele>185</ele>
        <time>2018-03-14T09:56:40Z</time>
      </trkpt>
      <trkpt lat="46.01859" lon="4.70697">
        <ele>185</ele>
        <time>2018-03-14T09:56:41Z</time>
      </trkpt>
      <trkpt lat="46.01867" lon="4.70697">
        <ele>185</ele>
        <time>2018-03-14T09:56:42Z</time>
      </trkpt>
      <trkpt lat="46.01875" lon="4.70697">
        <ele>185</ele>
        <time>2018-03-14T09:56:43Z</time>
      </trkpt>
      <trkpt lat="46.01881" lon="4.70696">
        <ele>185</ele>
        <time>2018-03-14T09:56:44Z</time>
      </trkpt>
      <trkpt lat="46.01889" lon="4.70696">
        <ele>184</ele>
        <time>2018-03-14T09:56:45Z</time>
      </trkpt>
      <trkpt lat="46.01896" lon="4.70696">
        <ele>184</ele>
        <time>2018-03-14T09:56:46Z</time>
      </trkpt>
      <trkpt lat="46.01903" lon="4.70696">
        <ele>184</ele>
        <time>2018-03-14T09:56:47Z</time>
      </trkpt>
      <trkpt lat="46.01911" lon="4.70697">
        <ele>184</ele>
        <time>2018-03-14T09:56:48Z</time>
      </trkpt>
      <trkpt lat="46.01918" lon="4.70698">
        <ele>182</ele>
        <time>2018-03-14T09:56:49Z</time>
      </trkpt>
      <trkpt lat="46.01925" lon="4.707">
        <ele>182</ele>
        <time>2018-03-14T09:56:50Z</time>
      </trkpt>
      <trkpt lat="46.01932" lon="4.70702">
        <ele>182</ele>
        <time>2018-03-14T09:56:51Z</time>
      </trkpt>
      <trkpt lat="46.0194" lon="4.70703">
        <ele>182</ele>
        <time>2018-03-14T09:56:52Z</time>
      </trkpt>
      <trkpt lat="46.01947" lon="4.70704">
        <ele>182</ele>
        <time>2018-03-14T09:56:53Z</time>
      </trkpt>
      <trkpt lat="46.01955" lon="4.70705">
        <ele>181</ele>
        <time>2018-03-14T09:56:54Z</time>
      </trkpt>
      <trkpt lat="46.01963" lon="4.70706">
        <ele>181</ele>
        <time>2018-03-14T09:56:55Z</time>
      </trkpt>
      <trkpt lat="46.01971" lon="4.70708">
        <ele>181</ele>
        <time>2018-03-14T09:56:56Z</time>
      </trkpt>
      <trkpt lat="46.01979" lon="4.7071">
        <ele>181</ele>
        <time>2018-03-14T09:56:57Z</time>
      </trkpt>
      <trkpt lat="46.01986" lon="4.70712">
        <ele>181</ele>
        <time>2018-03-14T09:56:58Z</time>
      </trkpt>
      <trkpt lat="46.01995" lon="4.70713">
        <ele>181</ele>
        <time>2018-03-14T09:56:59Z</time>
      </trkpt>
      <trkpt lat="46.02002" lon="4.70715">
        <ele>179</ele>
        <time>2018-03-14T09:57:00Z</time>
      </trkpt>
      <trkpt lat="46.0201" lon="4.70716">
        <ele>179</ele>
        <time>2018-03-14T09:57:01Z</time>
      </trkpt>
      <trkpt lat="46.02019" lon="4.70718">
        <ele>179</ele>
        <time>2018-03-14T09:57:02Z</time>
      </trkpt>
      <trkpt lat="46.02026" lon="4.70719">
        <ele>179</ele>
        <time>2018-03-14T09:57:03Z</time>
      </trkpt>
      <trkpt lat="46.02033" lon="4.70721">
        <ele>179</ele>
        <time>2018-03-14T09:57:04Z</time>
      </trkpt>
      <trkpt lat="46.02041" lon="4.70722">
        <ele>179</ele>
        <time>2018-03-14T09:57:05Z</time>
      </trkpt>
      <trkpt lat="46.02048" lon="4.70723">
        <ele>179</ele>
        <time>2018-03-14T09:57:06Z</time>
      </trkpt>
      <trkpt lat="46.02056" lon="4.70724">
        <ele>179</ele>
        <time>2018-03-14T09:57:07Z</time>
      </trkpt>
      <trkpt lat="46.02063" lon="4.70725">
        <ele>179</ele>
        <time>2018-03-14T09:57:08Z</time>
      </trkpt>
      <trkpt lat="46.02071" lon="4.70727">
        <ele>178</ele>
        <time>2018-03-14T09:57:09Z</time>
      </trkpt>
      <trkpt lat="46.02079" lon="4.70728">
        <ele>178</ele>
        <time>2018-03-14T09:57:10Z</time>
      </trkpt>
      <trkpt lat="46.02086" lon="4.7073">
        <ele>178</ele>
        <time>2018-03-14T09:57:11Z</time>
      </trkpt>
      <trkpt lat="46.02093" lon="4.70731">
        <ele>178</ele>
        <time>2018-03-14T09:57:12Z</time>
      </trkpt>
      <trkpt lat="46.021" lon="4.70732">
        <ele>178</ele>
        <time>2018-03-14T09:57:13Z</time>
      </trkpt>
      <trkpt lat="46.02107" lon="4.70733">
        <ele>178</ele>
        <time>2018-03-14T09:57:14Z</time>
      </trkpt>
      <trkpt lat="46.02115" lon="4.70734">
        <ele>179</ele>
        <time>2018-03-14T09:57:15Z</time>
      </trkpt>
      <trkpt lat="46.02121" lon="4.70736">
        <ele>179</ele>
        <time>2018-03-14T09:57:16Z</time>
      </trkpt>
      <trkpt lat="46.02128" lon="4.70737">
        <ele>179</ele>
        <time>2018-03-14T09:57:17Z</time>
      </trkpt>
      <trkpt lat="46.02134" lon="4.70738">
        <ele>179</ele>
        <time>2018-03-14T09:57:18Z</time>
      </trkpt>
      <trkpt lat="46.0214" lon="4.70739">
        <ele>179</ele>
        <time>2018-03-14T09:57:19Z</time>
      </trkpt>
      <trkpt lat="46.02145" lon="4.7074">
        <ele>179</ele>
        <time>2018-03-14T09:57:20Z</time>
      </trkpt>
      <trkpt lat="46.02152" lon="4.70741">
        <ele>179</ele>
        <time>2018-03-14T09:57:21Z</time>
      </trkpt>
      <trkpt lat="46.02159" lon="4.70742">
        <ele>179</ele>
        <time>2018-03-14T09:57:22Z</time>
      </trkpt>
      <trkpt lat="46.02165" lon="4.70743">
        <ele>179</ele>
        <time>2018-03-14T09:57:23Z</time>
      </trkpt>
      <trkpt lat="46.02172" lon="4.70744">
        <ele>179</ele>
        <time>2018-03-14T09:57:24Z</time>
      </trkpt>
      <trkpt lat="46.02179" lon="4.70745">
        <ele>180</ele>
        <time>2018-03-14T09:57:25Z</time>
      </trkpt>
      <trkpt lat="46.02185" lon="4.70747">
        <ele>180</ele>
        <time>2018-03-14T09:57:26Z</time>
      </trkpt>
      <trkpt lat="46.02192" lon="4.70749">
        <ele>180</ele>
        <time>2018-03-14T09:57:27Z</time>
      </trkpt>
      <trkpt lat="46.02198" lon="4.7075">
        <ele>179</ele>
        <time>2018-03-14T09:57:28Z</time>
      </trkpt>
      <trkpt lat="46.02204" lon="4.70751">
        <ele>179</ele>
        <time>2018-03-14T09:57:29Z</time>
      </trkpt>
      <trkpt lat="46.02211" lon="4.70753">
        <ele>180</ele>
        <time>2018-03-14T09:57:30Z</time>
      </trkpt>
      <trkpt lat="46.02217" lon="4.70754">
        <ele>180</ele>
        <time>2018-03-14T09:57:31Z</time>
      </trkpt>
      <trkpt lat="46.02223" lon="4.70755">
        <ele>180</ele>
        <time>2018-03-14T09:57:32Z</time>
      </trkpt>
      <trkpt lat="46.0223" lon="4.70757">
        <ele>180</ele>
        <time>2018-03-14T09:57:33Z</time>
      </trkpt>
      <trkpt lat="46.02236" lon="4.70757">
        <ele>180</ele>
        <time>2018-03-14T09:57:34Z</time>
      </trkpt>
      <trkpt lat="46.02242" lon="4.70758">
        <ele>180</ele>
        <time>2018-03-14T09:57:35Z</time>
      </trkpt>
      <trkpt lat="46.02248" lon="4.70759">
        <ele>180</ele>
        <time>2018-03-14T09:57:36Z</time>
      </trkpt>
      <trkpt lat="46.02253" lon="4.7076">
        <ele>181</ele>
        <time>2018-03-14T09:57:37Z</time>
      </trkpt>
      <trkpt lat="46.02259" lon="4.70762">
        <ele>181</ele>
        <time>2018-03-14T09:57:38Z</time>
      </trkpt>
      <trkpt lat="46.02265" lon="4.70763">
        <ele>181</ele>
        <time>2018-03-14T09:57:39Z</time>
      </trkpt>
      <trkpt lat="46.02271" lon="4.70764">
        <ele>181</ele>
        <time>2018-03-14T09:57:40Z</time>
      </trkpt>
      <trkpt lat="46.02277" lon="4.70765">
        <ele>181</ele>
        <time>2018-03-14T09:57:41Z</time>
      </trkpt>
      <trkpt lat="46.02282" lon="4.70766">
        <ele>181</ele>
        <time>2018-03-14T09:57:42Z</time>
      </trkpt>
      <trkpt lat="46.02288" lon="4.70767">
        <ele>181</ele>
        <time>2018-03-14T09:57:43Z</time>
      </trkpt>
      <trkpt lat="46.02294" lon="4.70768">
        <ele>180</ele>
        <time>2018-03-14T09:57:44Z</time>
      </trkpt>
      <trkpt lat="46.02299" lon="4.7077">
        <ele>180</ele>
        <time>2018-03-14T09:57:45Z</time>
      </trkpt>
      <trkpt lat="46.02305" lon="4.70771">
        <ele>180</ele>
        <time>2018-03-14T09:57:46Z</time>
      </trkpt>
      <trkpt lat="46.0231" lon="4.70772">
        <ele>180</ele>
        <time>2018-03-14T09:57:47Z</time>
      </trkpt>
      <trkpt lat="46.02315" lon="4.70773">
        <ele>180</ele>
        <time>2018-03-14T09:57:48Z</time>
      </trkpt>
      <trkpt lat="46.0232" lon="4.70775">
        <ele>180</ele>
        <time>2018-03-14T09:57:49Z</time>
      </trkpt>
      <trkpt lat="46.02324" lon="4.70776">
        <ele>180</ele>
        <time>2018-03-14T09:57:50Z</time>
      </trkpt>
      <trkpt lat="46.02329" lon="4.70777">
        <ele>180</ele>
        <time>2018-03-14T09:57:51Z</time>
      </trkpt>
      <trkpt lat="46.02333" lon="4.70778">
        <ele>182</ele>
        <time>2018-03-14T09:57:52Z</time>
      </trkpt>
      <trkpt lat="46.02341" lon="4.7078">
        <ele>182</ele>
        <time>2018-03-14T09:57:54Z</time>
      </trkpt>
      <trkpt lat="46.02346" lon="4.70781">
        <ele>183</ele>
        <time>2018-03-14T09:57:55Z</time>
      </trkpt>
      <trkpt lat="46.0235" lon="4.70783">
        <ele>183</ele>
        <time>2018-03-14T09:57:56Z</time>
      </trkpt>
      <trkpt lat="46.02355" lon="4.70784">
        <ele>183</ele>
        <time>2018-03-14T09:57:57Z</time>
      </trkpt>
      <trkpt lat="46.0236" lon="4.70785">
        <ele>183</ele>
        <time>2018-03-14T09:57:58Z</time>
      </trkpt>
      <trkpt lat="46.02364" lon="4.70785">
        <ele>183</ele>
        <time>2018-03-14T09:57:59Z</time>
      </trkpt>
      <trkpt lat="46.02373" lon="4.70787">
        <ele>184</ele>
        <time>2018-03-14T09:58:01Z</time>
      </trkpt>
      <trkpt lat="46.02377" lon="4.70787">
        <ele>184</ele>
        <time>2018-03-14T09:58:02Z</time>
      </trkpt>
      <trkpt lat="46.02386" lon="4.70788">
        <ele>184</ele>
        <time>2018-03-14T09:58:04Z</time>
      </trkpt>
      <trkpt lat="46.02389" lon="4.70788">
        <ele>184</ele>
        <time>2018-03-14T09:58:05Z</time>
      </trkpt>
      <trkpt lat="46.02398" lon="4.70789">
        <ele>185</ele>
        <time>2018-03-14T09:58:07Z</time>
      </trkpt>
      <trkpt lat="46.02401" lon="4.70788">
        <ele>185</ele>
        <time>2018-03-14T09:58:08Z</time>
      </trkpt>
      <trkpt lat="46.0241" lon="4.70787">
        <ele>185</ele>
        <time>2018-03-14T09:58:11Z</time>
      </trkpt>
      <trkpt lat="46.02412" lon="4.70786">
        <ele>185</ele>
        <time>2018-03-14T09:58:12Z</time>
      </trkpt>
      <trkpt lat="46.02419" lon="4.70784">
        <ele>189</ele>
        <time>2018-03-14T09:58:16Z</time>
      </trkpt>
      <trkpt lat="46.02421" lon="4.70784">
        <ele>189</ele>
        <time>2018-03-14T09:58:17Z</time>
      </trkpt>
      <trkpt lat="46.0243" lon="4.70785">
        <ele>189</ele>
        <time>2018-03-14T09:58:21Z</time>
      </trkpt>
      <trkpt lat="46.02432" lon="4.70784">
        <ele>189</ele>
        <time>2018-03-14T09:58:22Z</time>
      </trkpt>
      <trkpt lat="46.02437" lon="4.70775">
        <ele>189</ele>
        <time>2018-03-14T09:58:25Z</time>
      </trkpt>
      <trkpt lat="46.02438" lon="4.70771">
        <ele>189</ele>
        <time>2018-03-14T09:58:26Z</time>
      </trkpt>
      <trkpt lat="46.02439" lon="4.70767">
        <ele>189</ele>
        <time>2018-03-14T09:58:27Z</time>
      </trkpt>
      <trkpt lat="46.02443" lon="4.70754">
        <ele>189</ele>
        <time>2018-03-14T09:58:28Z</time>
      </trkpt>
      <trkpt lat="46.02446" lon="4.70747">
        <ele>190</ele>
        <time>2018-03-14T09:58:30Z</time>
      </trkpt>
      <trkpt lat="46.0245" lon="4.7074">
        <ele>190</ele>
        <time>2018-03-14T09:58:31Z</time>
      </trkpt>
      <trkpt lat="46.02453" lon="4.70729">
        <ele>190</ele>
        <time>2018-03-14T09:58:33Z</time>
      </trkpt>
      <trkpt lat="46.02455" lon="4.70724">
        <ele>190</ele>
        <time>2018-03-14T09:58:34Z</time>
      </trkpt>
      <trkpt lat="46.02458" lon="4.70712">
        <ele>190</ele>
        <time>2018-03-14T09:58:36Z</time>
      </trkpt>
      <trkpt lat="46.02461" lon="4.70704">
        <ele>190</ele>
        <time>2018-03-14T09:58:37Z</time>
      </trkpt>
      <trkpt lat="46.02463" lon="4.70692">
        <ele>190</ele>
        <time>2018-03-14T09:58:39Z</time>
      </trkpt>
      <trkpt lat="46.02465" lon="4.70687">
        <ele>190</ele>
        <time>2018-03-14T09:58:40Z</time>
      </trkpt>
      <trkpt lat="46.02468" lon="4.70675">
        <ele>190</ele>
        <time>2018-03-14T09:58:42Z</time>
      </trkpt>
      <trkpt lat="46.0247" lon="4.70668">
        <ele>190</ele>
        <time>2018-03-14T09:58:43Z</time>
      </trkpt>
      <trkpt lat="46.02471" lon="4.70662">
        <ele>189</ele>
        <time>2018-03-14T09:58:44Z</time>
      </trkpt>
      <trkpt lat="46.02473" lon="4.70655">
        <ele>189</ele>
        <time>2018-03-14T09:58:45Z</time>
      </trkpt>
      <trkpt lat="46.02475" lon="4.70648">
        <ele>189</ele>
        <time>2018-03-14T09:58:46Z</time>
      </trkpt>
      <trkpt lat="46.02476" lon="4.70642">
        <ele>189</ele>
        <time>2018-03-14T09:58:47Z</time>
      </trkpt>
      <trkpt lat="46.02478" lon="4.70631">
        <ele>188</ele>
        <time>2018-03-14T09:58:49Z</time>
      </trkpt>
      <trkpt lat="46.0248" lon="4.70626">
        <ele>188</ele>
        <time>2018-03-14T09:58:50Z</time>
      </trkpt>
      <trkpt lat="46.02484" lon="4.70624">
        <ele>188</ele>
        <time>2018-03-14T09:58:51Z</time>
      </trkpt>
      <trkpt lat="46.02489" lon="4.70622">
        <ele>188</ele>
        <time>2018-03-14T09:58:52Z</time>
      </trkpt>
      <trkpt lat="46.02493" lon="4.70622">
        <ele>188</ele>
        <time>2018-03-14T09:58:53Z</time>
      </trkpt>
      <trkpt lat="46.02498" lon="4.70623">
        <ele>188</ele>
        <time>2018-03-14T09:58:54Z</time>
      </trkpt>
      <trkpt lat="46.02503" lon="4.70625">
        <ele>189</ele>
        <time>2018-03-14T09:58:55Z</time>
      </trkpt>
      <trkpt lat="46.02507" lon="4.70626">
        <ele>189</ele>
        <time>2018-03-14T09:58:56Z</time>
      </trkpt>
      <trkpt lat="46.02512" lon="4.70629">
        <ele>189</ele>
        <time>2018-03-14T09:58:57Z</time>
      </trkpt>
      <trkpt lat="46.02518" lon="4.7063">
        <ele>189</ele>
        <time>2018-03-14T09:58:58Z</time>
      </trkpt>
      <trkpt lat="46.02522" lon="4.70632">
        <ele>189</ele>
        <time>2018-03-14T09:58:59Z</time>
      </trkpt>
      <trkpt lat="46.02527" lon="4.70634">
        <ele>189</ele>
        <time>2018-03-14T09:59:00Z</time>
      </trkpt>
      <trkpt lat="46.02532" lon="4.70635">
        <ele>189</ele>
        <time>2018-03-14T09:59:01Z</time>
      </trkpt>
      <trkpt lat="46.02536" lon="4.70636">
        <ele>189</ele>
        <time>2018-03-14T09:59:02Z</time>
      </trkpt>
      <trkpt lat="46.02541" lon="4.70636">
        <ele>189</ele>
        <time>2018-03-14T09:59:03Z</time>
      </trkpt>
      <trkpt lat="46.02545" lon="4.70637">
        <ele>189</ele>
        <time>2018-03-14T09:59:04Z</time>
      </trkpt>
      <trkpt lat="46.02553" lon="4.70641">
        <ele>189</ele>
        <time>2018-03-14T09:59:06Z</time>
      </trkpt>
      <trkpt lat="46.02558" lon="4.70641">
        <ele>189</ele>
        <time>2018-03-14T09:59:07Z</time>
      </trkpt>
      <trkpt lat="46.02563" lon="4.70641">
        <ele>189</ele>
        <time>2018-03-14T09:59:08Z</time>
      </trkpt>
      <trkpt lat="46.02567" lon="4.70642">
        <ele>189</ele>
        <time>2018-03-14T09:59:09Z</time>
      </trkpt>
      <trkpt lat="46.02576" lon="4.70644">
        <ele>190</ele>
        <time>2018-03-14T09:59:11Z</time>
      </trkpt>
      <trkpt lat="46.02581" lon="4.70645">
        <ele>190</ele>
        <time>2018-03-14T09:59:12Z</time>
      </trkpt>
      <trkpt lat="46.02589" lon="4.70647">
        <ele>190</ele>
        <time>2018-03-14T09:59:14Z</time>
      </trkpt>
      <trkpt lat="46.02594" lon="4.70648">
        <ele>190</ele>
        <time>2018-03-14T09:59:15Z</time>
      </trkpt>
      <trkpt lat="46.02602" lon="4.70651">
        <ele>190</ele>
        <time>2018-03-14T09:59:17Z</time>
      </trkpt>
      <trkpt lat="46.02607" lon="4.70653">
        <ele>190</ele>
        <time>2018-03-14T09:59:18Z</time>
      </trkpt>
      <trkpt lat="46.02611" lon="4.70654">
        <ele>190</ele>
        <time>2018-03-14T09:59:19Z</time>
      </trkpt>
      <trkpt lat="46.02616" lon="4.70654">
        <ele>190</ele>
        <time>2018-03-14T09:59:20Z</time>
      </trkpt>
      <trkpt lat="46.02622" lon="4.70654">
        <ele>190</ele>
        <time>2018-03-14T09:59:21Z</time>
      </trkpt>
      <trkpt lat="46.02628" lon="4.70655">
        <ele>190</ele>
        <time>2018-03-14T09:59:22Z</time>
      </trkpt>
      <trkpt lat="46.02632" lon="4.70655">
        <ele>190</ele>
        <time>2018-03-14T09:59:23Z</time>
      </trkpt>
      <trkpt lat="46.02638" lon="4.70655">
        <ele>190</ele>
        <time>2018-03-14T09:59:24Z</time>
      </trkpt>
      <trkpt lat="46.02646" lon="4.70655">
        <ele>190</ele>
        <time>2018-03-14T09:59:26Z</time>
      </trkpt>
      <trkpt lat="46.02651" lon="4.70655">
        <ele>190</ele>
        <time>2018-03-14T09:59:27Z</time>
      </trkpt>
      <trkpt lat="46.02655" lon="4.70656">
        <ele>190</ele>
        <time>2018-03-14T09:59:28Z</time>
      </trkpt>
      <trkpt lat="46.0266" lon="4.70657">
        <ele>190</ele>
        <time>2018-03-14T09:59:29Z</time>
      </trkpt>
      <trkpt lat="46.02665" lon="4.70657">
        <ele>190</ele>
        <time>2018-03-14T09:59:30Z</time>
      </trkpt>
      <trkpt lat="46.0267" lon="4.70659">
        <ele>190</ele>
        <time>2018-03-14T09:59:31Z</time>
      </trkpt>
      <trkpt lat="46.02674" lon="4.7066">
        <ele>190</ele>
        <time>2018-03-14T09:59:32Z</time>
      </trkpt>
      <trkpt lat="46.02679" lon="4.7066">
        <ele>190</ele>
        <time>2018-03-14T09:59:33Z</time>
      </trkpt>
      <trkpt lat="46.02684" lon="4.70661">
        <ele>190</ele>
        <time>2018-03-14T09:59:34Z</time>
      </trkpt>
      <trkpt lat="46.02689" lon="4.70661">
        <ele>190</ele>
        <time>2018-03-14T09:59:35Z</time>
      </trkpt>
      <trkpt lat="46.02694" lon="4.70661">
        <ele>189</ele>
        <time>2018-03-14T09:59:36Z</time>
      </trkpt>
      <trkpt lat="46.02699" lon="4.70662">
        <ele>189</ele>
        <time>2018-03-14T09:59:37Z</time>
      </trkpt>
      <trkpt lat="46.02708" lon="4.70664">
        <ele>189</ele>
        <time>2018-03-14T09:59:39Z</time>
      </trkpt>
      <trkpt lat="46.02713" lon="4.70665">
        <ele>189</ele>
        <time>2018-03-14T09:59:40Z</time>
      </trkpt>
      <trkpt lat="46.02717" lon="4.70665">
        <ele>189</ele>
        <time>2018-03-14T09:59:41Z</time>
      </trkpt>
      <trkpt lat="46.02722" lon="4.70666">
        <ele>189</ele>
        <time>2018-03-14T09:59:42Z</time>
      </trkpt>
      <trkpt lat="46.02727" lon="4.70667">
        <ele>189</ele>
        <time>2018-03-14T09:59:43Z</time>
      </trkpt>
      <trkpt lat="46.02731" lon="4.70668">
        <ele>189</ele>
        <time>2018-03-14T09:59:44Z</time>
      </trkpt>
      <trkpt lat="46.02736" lon="4.70669">
        <ele>189</ele>
        <time>2018-03-14T09:59:45Z</time>
      </trkpt>
      <trkpt lat="46.0274" lon="4.7067">
        <ele>189</ele>
        <time>2018-03-14T09:59:46Z</time>
      </trkpt>
      <trkpt lat="46.02749" lon="4.7067">
        <ele>189</ele>
        <time>2018-03-14T09:59:48Z</time>
      </trkpt>
      <trkpt lat="46.02754" lon="4.70669">
        <ele>189</ele>
        <time>2018-03-14T09:59:49Z</time>
      </trkpt>
      <trkpt lat="46.02758" lon="4.7067">
        <ele>189</ele>
        <time>2018-03-14T09:59:50Z</time>
      </trkpt>
      <trkpt lat="46.02763" lon="4.70671">
        <ele>189</ele>
        <time>2018-03-14T09:59:51Z</time>
      </trkpt>
      <trkpt lat="46.02768" lon="4.70673">
        <ele>189</ele>
        <time>2018-03-14T09:59:52Z</time>
      </trkpt>
      <trkpt lat="46.02774" lon="4.70675">
        <ele>189</ele>
        <time>2018-03-14T09:59:53Z</time>
      </trkpt>
      <trkpt lat="46.02779" lon="4.70675">
        <ele>189</ele>
        <time>2018-03-14T09:59:54Z</time>
      </trkpt>
      <trkpt lat="46.02784" lon="4.70675">
        <ele>189</ele>
        <time>2018-03-14T09:59:55Z</time>
      </trkpt>
      <trkpt lat="46.02789" lon="4.70675">
        <ele>189</ele>
        <time>2018-03-14T09:59:56Z</time>
      </trkpt>
      <trkpt lat="46.02795" lon="4.70675">
        <ele>189</ele>
        <time>2018-03-14T09:59:57Z</time>
      </trkpt>
      <trkpt lat="46.028" lon="4.70674">
        <ele>189</ele>
        <time>2018-03-14T09:59:58Z</time>
      </trkpt>
      <trkpt lat="46.02805" lon="4.70674">
        <ele>189</ele>
        <time>2018-03-14T09:59:59Z</time>
      </trkpt>
      <trkpt lat="46.0281" lon="4.70674">
        <ele>189</ele>
        <time>2018-03-14T10:00:00Z</time>
      </trkpt>
      <trkpt lat="46.02815" lon="4.70673">
        <ele>189</ele>
        <time>2018-03-14T10:00:01Z</time>
      </trkpt>
      <trkpt lat="46.02821" lon="4.70673">
        <ele>189</ele>
        <time>2018-03-14T10:00:02Z</time>
      </trkpt>
      <trkpt lat="46.02826" lon="4.70671">
        <ele>189</ele>
        <time>2018-03-14T10:00:03Z</time>
      </trkpt>
      <trkpt lat="46.02834" lon="4.7067">
        <ele>189</ele>
        <time>2018-03-14T10:00:05Z</time>
      </trkpt>
      <trkpt lat="46.02838" lon="4.70669">
        <ele>189</ele>
        <time>2018-03-14T10:00:06Z</time>
      </trkpt>
      <trkpt lat="46.02843" lon="4.70668">
        <ele>189</ele>
        <time>2018-03-14T10:00:07Z</time>
      </trkpt>
      <trkpt lat="46.02847" lon="4.70667">
        <ele>189</ele>
        <time>2018-03-14T10:00:08Z</time>
      </trkpt>
      <trkpt lat="46.02852" lon="4.70667">
        <ele>190</ele>
        <time>2018-03-14T10:00:09Z</time>
      </trkpt>
      <trkpt lat="46.02856" lon="4.70665">
        <ele>190</ele>
        <time>2018-03-14T10:00:10Z</time>
      </trkpt>
      <trkpt lat="46.02862" lon="4.70665">
        <ele>190</ele>
        <time>2018-03-14T10:00:11Z</time>
      </trkpt>
      <trkpt lat="46.02866" lon="4.70665">
        <ele>190</ele>
        <time>2018-03-14T10:00:12Z</time>
      </trkpt>
      <trkpt lat="46.02872" lon="4.70665">
        <ele>190</ele>
        <time>2018-03-14T10:00:13Z</time>
      </trkpt>
      <trkpt lat="46.02877" lon="4.70665">
        <ele>190</ele>
        <time>2018-03-14T10:00:14Z</time>
      </trkpt>
      <trkpt lat="46.02882" lon="4.70664">
        <ele>190</ele>
        <time>2018-03-14T10:00:15Z</time>
      </trkpt>
      <trkpt lat="46.02886" lon="4.70665">
        <ele>190</ele>
        <time>2018-03-14T10:00:16Z</time>
      </trkpt>
      <trkpt lat="46.0289" lon="4.70664">
        <ele>190</ele>
        <time>2018-03-14T10:00:17Z</time>
      </trkpt>
      <trkpt lat="46.02895" lon="4.70664">
        <ele>190</ele>
        <time>2018-03-14T10:00:18Z</time>
      </trkpt>
      <trkpt lat="46.02901" lon="4.70664">
        <ele>191</ele>
        <time>2018-03-14T10:00:19Z</time>
      </trkpt>
      <trkpt lat="46.02906" lon="4.70664">
        <ele>191</ele>
        <time>2018-03-14T10:00:20Z</time>
      </trkpt>
      <trkpt lat="46.02911" lon="4.70663">
        <ele>191</ele>
        <time>2018-03-14T10:00:21Z</time>
      </trkpt>
      <trkpt lat="46.02915" lon="4.70661">
        <ele>191</ele>
        <time>2018-03-14T10:00:22Z</time>
      </trkpt>
      <trkpt lat="46.02918" lon="4.70658">
        <ele>191</ele>
        <time>2018-03-14T10:00:23Z</time>
      </trkpt>
      <trkpt lat="46.02923" lon="4.70654">
        <ele>191</ele>
        <time>2018-03-14T10:00:24Z</time>
      </trkpt>
      <trkpt lat="46.02925" lon="4.70648">
        <ele>192</ele>
        <time>2018-03-14T10:00:25Z</time>
      </trkpt>
      <trkpt lat="46.02928" lon="4.70642">
        <ele>192</ele>
        <time>2018-03-14T10:00:26Z</time>
      </trkpt>
      <trkpt lat="46.02931" lon="4.70631">
        <ele>192</ele>
        <time>2018-03-14T10:00:28Z</time>
      </trkpt>
      <trkpt lat="46.02933" lon="4.70624">
        <ele>192</ele>
        <time>2018-03-14T10:00:29Z</time>
      </trkpt>
      <trkpt lat="46.02935" lon="4.70618">
        <ele>192</ele>
        <time>2018-03-14T10:00:30Z</time>
      </trkpt>
      <trkpt lat="46.02936" lon="4.70611">
        <ele>192</ele>
        <time>2018-03-14T10:00:31Z</time>
      </trkpt>
      <trkpt lat="46.02938" lon="4.70605">
        <ele>192</ele>
        <time>2018-03-14T10:00:32Z</time>
      </trkpt>
      <trkpt lat="46.0294" lon="4.70599">
        <ele>192</ele>
        <time>2018-03-14T10:00:33Z</time>
      </trkpt>
      <trkpt lat="46.02944" lon="4.70588">
        <ele>192</ele>
        <time>2018-03-14T10:00:35Z</time>
      </trkpt>
      <trkpt lat="46.02946" lon="4.70582">
        <ele>191</ele>
        <time>2018-03-14T10:00:36Z</time>
      </trkpt>
      <trkpt lat="46.02947" lon="4.70576">
        <ele>191</ele>
        <time>2018-03-14T10:00:37Z</time>
      </trkpt>
      <trkpt lat="46.0295" lon="4.7057">
        <ele>191</ele>
        <time>2018-03-14T10:00:38Z</time>
      </trkpt>
      <trkpt lat="46.02953" lon="4.70565">
        <ele>191</ele>
        <time>2018-03-14T10:00:39Z</time>
      </trkpt>
      <trkpt lat="46.02956" lon="4.70561">
        <ele>191</ele>
        <time>2018-03-14T10:00:40Z</time>
      </trkpt>
      <trkpt lat="46.02959" lon="4.70556">
        <ele>191</ele>
        <time>2018-03-14T10:00:41Z</time>
      </trkpt>
      <trkpt lat="46.02963" lon="4.70552">
        <ele>191</ele>
        <time>2018-03-14T10:00:42Z</time>
      </trkpt>
      <trkpt lat="46.02969" lon="4.70544">
        <ele>191</ele>
        <time>2018-03-14T10:00:44Z</time>
      </trkpt>
      <trkpt lat="46.02975" lon="4.7054">
        <ele>191</ele>
        <time>2018-03-14T10:00:45Z</time>
      </trkpt>
      <trkpt lat="46.02979" lon="4.70537">
        <ele>191</ele>
        <time>2018-03-14T10:00:46Z</time>
      </trkpt>
      <trkpt lat="46.02983" lon="4.70532">
        <ele>191</ele>
        <time>2018-03-14T10:00:47Z</time>
      </trkpt>
      <trkpt lat="46.02987" lon="4.70529">
        <ele>191</ele>
        <time>2018-03-14T10:00:48Z</time>
      </trkpt>
      <trkpt lat="46.02991" lon="4.70525">
        <ele>191</ele>
        <time>2018-03-14T10:00:49Z</time>
      </trkpt>
      <trkpt lat="46.02998" lon="4.70518">
        <ele>191</ele>
        <time>2018-03-14T10:00:51Z</time>
      </trkpt>
      <trkpt lat="46.03001" lon="4.70515">
        <ele>191</ele>
        <time>2018-03-14T10:00:52Z</time>
      </trkpt>
      <trkpt lat="46.03005" lon="4.70511">
        <ele>191</ele>
        <time>2018-03-14T10:00:53Z</time>
      </trkpt>
      <trkpt lat="46.0301" lon="4.70507">
        <ele>191</ele>
        <time>2018-03-14T10:00:54Z</time>
      </trkpt>
      <trkpt lat="46.03017" lon="4.705">
        <ele>191</ele>
        <time>2018-03-14T10:00:56Z</time>
      </trkpt>
      <trkpt lat="46.0302" lon="4.70497">
        <ele>191</ele>
        <time>2018-03-14T10:00:57Z</time>
      </trkpt>
      <trkpt lat="46.03026" lon="4.70491">
        <ele>191</ele>
        <time>2018-03-14T10:00:59Z</time>
      </trkpt>
      <trkpt lat="46.0303" lon="4.70488">
        <ele>191</ele>
        <time>2018-03-14T10:01:00Z</time>
      </trkpt>
      <trkpt lat="46.03037" lon="4.70481">
        <ele>191</ele>
        <time>2018-03-14T10:01:02Z</time>
      </trkpt>
      <trkpt lat="46.03041" lon="4.70478">
        <ele>191</ele>
        <time>2018-03-14T10:01:03Z</time>
      </trkpt>
      <trkpt lat="46.03048" lon="4.70471">
        <ele>191</ele>
        <time>2018-03-14T10:01:05Z</time>
      </trkpt>
      <trkpt lat="46.03052" lon="4.70467">
        <ele>191</ele>
        <time>2018-03-14T10:01:06Z</time>
      </trkpt>
      <trkpt lat="46.0306" lon="4.70461">
        <ele>191</ele>
        <time>2018-03-14T10:01:08Z</time>
      </trkpt>
      <trkpt lat="46.03063" lon="4.70458">
        <ele>191</ele>
        <time>2018-03-14T10:01:09Z</time>
      </trkpt>
      <trkpt lat="46.03068" lon="4.70455">
        <ele>191</ele>
        <time>2018-03-14T10:01:10Z</time>
      </trkpt>
      <trkpt lat="46.03072" lon="4.70451">
        <ele>191</ele>
        <time>2018-03-14T10:01:11Z</time>
      </trkpt>
      <trkpt lat="46.0308" lon="4.70447">
        <ele>191</ele>
        <time>2018-03-14T10:01:13Z</time>
      </trkpt>
      <trkpt lat="46.03084" lon="4.70444">
        <ele>192</ele>
        <time>2018-03-14T10:01:14Z</time>
      </trkpt>
      <trkpt lat="46.03093" lon="4.7044">
        <ele>192</ele>
        <time>2018-03-14T10:01:16Z</time>
      </trkpt>
      <trkpt lat="46.03097" lon="4.70438">
        <ele>192</ele>
        <time>2018-03-14T10:01:17Z</time>
      </trkpt>
      <trkpt lat="46.03101" lon="4.70435">
        <ele>192</ele>
        <time>2018-03-14T10:01:18Z</time>
      </trkpt>
      <trkpt lat="46.03106" lon="4.70433">
        <ele>192</ele>
        <time>2018-03-14T10:01:19Z</time>
      </trkpt>
      <trkpt lat="46.0311" lon="4.70431">
        <ele>192</ele>
        <time>2018-03-14T10:01:20Z</time>
      </trkpt>
      <trkpt lat="46.03115" lon="4.70429">
        <ele>192</ele>
        <time>2018-03-14T10:01:21Z</time>
      </trkpt>
      <trkpt lat="46.03119" lon="4.70428">
        <ele>192</ele>
        <time>2018-03-14T10:01:22Z</time>
      </trkpt>
      <trkpt lat="46.03124" lon="4.70426">
        <ele>192</ele>
        <time>2018-03-14T10:01:23Z</time>
      </trkpt>
      <trkpt lat="46.03128" lon="4.70422">
        <ele>192</ele>
        <time>2018-03-14T10:01:24Z</time>
      </trkpt>
      <trkpt lat="46.03133" lon="4.7042">
        <ele>192</ele>
        <time>2018-03-14T10:01:25Z</time>
      </trkpt>
      <trkpt lat="46.03138" lon="4.70418">
        <ele>192</ele>
        <time>2018-03-14T10:01:26Z</time>
      </trkpt>
      <trkpt lat="46.03142" lon="4.70416">
        <ele>192</ele>
        <time>2018-03-14T10:01:27Z</time>
      </trkpt>
      <trkpt lat="46.03146" lon="4.70414">
        <ele>192</ele>
        <time>2018-03-14T10:01:28Z</time>
      </trkpt>
      <trkpt lat="46.03151" lon="4.70412">
        <ele>192</ele>
        <time>2018-03-14T10:01:29Z</time>
      </trkpt>
      <trkpt lat="46.03156" lon="4.7041">
        <ele>192</ele>
        <time>2018-03-14T10:01:30Z</time>
      </trkpt>
      <trkpt lat="46.03162" lon="4.70407">
        <ele>192</ele>
        <time>2018-03-14T10:01:31Z</time>
      </trkpt>
      <trkpt lat="46.03167" lon="4.70405">
        <ele>192</ele>
        <time>2018-03-14T10:01:32Z</time>
      </trkpt>
      <trkpt lat="46.03172" lon="4.70402">
        <ele>192</ele>
        <time>2018-03-14T10:01:33Z</time>
      </trkpt>
      <trkpt lat="46.03177" lon="4.704">
        <ele>192</ele>
        <time>2018-03-14T10:01:34Z</time>
      </trkpt>
      <trkpt lat="46.03182" lon="4.70398">
        <ele>192</ele>
        <time>2018-03-14T10:01:35Z</time>
      </trkpt>
      <trkpt lat="46.03187" lon="4.70395">
        <ele>192</ele>
        <time>2018-03-14T10:01:36Z</time>
      </trkpt>
      <trkpt lat="46.03191" lon="4.70392">
        <ele>192</ele>
        <time>2018-03-14T10:01:37Z</time>
      </trkpt>
      <trkpt lat="46.03196" lon="4.7039">
        <ele>192</ele>
        <time>2018-03-14T10:01:38Z</time>
      </trkpt>
      <trkpt lat="46.03201" lon="4.70387">
        <ele>192</ele>
        <time>2018-03-14T10:01:39Z</time>
      </trkpt>
      <trkpt lat="46.03205" lon="4.70385">
        <ele>192</ele>
        <time>2018-03-14T10:01:40Z</time>
      </trkpt>
      <trkpt lat="46.0321" lon="4.70383">
        <ele>192</ele>
        <time>2018-03-14T10:01:41Z</time>
      </trkpt>
      <trkpt lat="46.03216" lon="4.7038">
        <ele>192</ele>
        <time>2018-03-14T10:01:42Z</time>
      </trkpt>
      <trkpt lat="46.03222" lon="4.70375">
        <ele>192</ele>
        <time>2018-03-14T10:01:43Z</time>
      </trkpt>
      <trkpt lat="46.03227" lon="4.70373">
        <ele>192</ele>
        <time>2018-03-14T10:01:44Z</time>
      </trkpt>
      <trkpt lat="46.03232" lon="4.70371">
        <ele>192</ele>
        <time>2018-03-14T10:01:45Z</time>
      </trkpt>
      <trkpt lat="46.03237" lon="4.70369">
        <ele>192</ele>
        <time>2018-03-14T10:01:46Z</time>
      </trkpt>
      <trkpt lat="46.03242" lon="4.70366">
        <ele>192</ele>
        <time>2018-03-14T10:01:47Z</time>
      </trkpt>
      <trkpt lat="46.03247" lon="4.70364">
        <ele>192</ele>
        <time>2018-03-14T10:01:48Z</time>
      </trkpt>
      <trkpt lat="46.03253" lon="4.70362">
        <ele>191</ele>
        <time>2018-03-14T10:01:49Z</time>
      </trkpt>
      <trkpt lat="46.03258" lon="4.7036">
        <ele>191</ele>
        <time>2018-03-14T10:01:50Z</time>
      </trkpt>
      <trkpt lat="46.03263" lon="4.70358">
        <ele>191</ele>
        <time>2018-03-14T10:01:51Z</time>
      </trkpt>
      <trkpt lat="46.03268" lon="4.70356">
        <ele>191</ele>
        <time>2018-03-14T10:01:52Z</time>
      </trkpt>
      <trkpt lat="46.03273" lon="4.70354">
        <ele>191</ele>
        <time>2018-03-14T10:01:53Z</time>
      </trkpt>
      <trkpt lat="46.03278" lon="4.70352">
        <ele>191</ele>
        <time>2018-03-14T10:01:54Z</time>
      </trkpt>
      <trkpt lat="46.03283" lon="4.7035">
        <ele>191</ele>
        <time>2018-03-14T10:01:55Z</time>
      </trkpt>
      <trkpt lat="46.03288" lon="4.70347">
        <ele>191</ele>
        <time>2018-03-14T10:01:56Z</time>
      </trkpt>
      <trkpt lat="46.03293" lon="4.70345">
        <ele>191</ele>
        <time>2018-03-14T10:01:57Z</time>
      </trkpt>
      <trkpt lat="46.03299" lon="4.70343">
        <ele>191</ele>
        <time>2018-03-14T10:01:58Z</time>
      </trkpt>
      <trkpt lat="46.03305" lon="4.70341">
        <ele>191</ele>
        <time>2018-03-14T10:01:59Z</time>
      </trkpt>
      <trkpt lat="46.03311" lon="4.7034">
        <ele>191</ele>
        <time>2018-03-14T10:02:00Z</time>
      </trkpt>
      <trkpt lat="46.03318" lon="4.70337">
        <ele>191</ele>
        <time>2018-03-14T10:02:01Z</time>
      </trkpt>
      <trkpt lat="46.03324" lon="4.70335">
        <ele>191</ele>
        <time>2018-03-14T10:02:02Z</time>
      </trkpt>
      <trkpt lat="46.03331" lon="4.70333">
        <ele>191</ele>
        <time>2018-03-14T10:02:03Z</time>
      </trkpt>
      <trkpt lat="46.03337" lon="4.7033">
        <ele>191</ele>
        <time>2018-03-14T10:02:04Z</time>
      </trkpt>
      <trkpt lat="46.03344" lon="4.70328">
        <ele>191</ele>
        <time>2018-03-14T10:02:05Z</time>
      </trkpt>
      <trkpt lat="46.0335" lon="4.70325">
        <ele>191</ele>
        <time>2018-03-14T10:02:06Z</time>
      </trkpt>
      <trkpt lat="46.03358" lon="4.70322">
        <ele>191</ele>
        <time>2018-03-14T10:02:07Z</time>
      </trkpt>
      <trkpt lat="46.03365" lon="4.70319">
        <ele>191</ele>
        <time>2018-03-14T10:02:08Z</time>
      </trkpt>
      <trkpt lat="46.03373" lon="4.70317">
        <ele>191</ele>
        <time>2018-03-14T10:02:09Z</time>
      </trkpt>
      <trkpt lat="46.0338" lon="4.70315">
        <ele>191</ele>
        <time>2018-03-14T10:02:10Z</time>
      </trkpt>
      <trkpt lat="46.03388" lon="4.70312">
        <ele>191</ele>
        <time>2018-03-14T10:02:11Z</time>
      </trkpt>
      <trkpt lat="46.03395" lon="4.70309">
        <ele>190</ele>
        <time>2018-03-14T10:02:12Z</time>
      </trkpt>
      <trkpt lat="46.03403" lon="4.70306">
        <ele>190</ele>
        <time>2018-03-14T10:02:13Z</time>
      </trkpt>
      <trkpt lat="46.0341" lon="4.70303">
        <ele>190</ele>
        <time>2018-03-14T10:02:14Z</time>
      </trkpt>
      <trkpt lat="46.03418" lon="4.703">
        <ele>188</ele>
        <time>2018-03-14T10:02:15Z</time>
      </trkpt>
      <trkpt lat="46.03426" lon="4.70296">
        <ele>188</ele>
        <time>2018-03-14T10:02:16Z</time>
      </trkpt>
      <trkpt lat="46.03435" lon="4.70293">
        <ele>188</ele>
        <time>2018-03-14T10:02:17Z</time>
      </trkpt>
      <trkpt lat="46.03443" lon="4.70289">
        <ele>188</ele>
        <time>2018-03-14T10:02:18Z</time>
      </trkpt>
      <trkpt lat="46.03451" lon="4.70287">
        <ele>188</ele>
        <time>2018-03-14T10:02:19Z</time>
      </trkpt>
      <trkpt lat="46.03458" lon="4.70284">
        <ele>188</ele>
        <time>2018-03-14T10:02:20Z</time>
      </trkpt>
      <trkpt lat="46.03466" lon="4.70281">
        <ele>188</ele>
        <time>2018-03-14T10:02:21Z</time>
      </trkpt>
      <trkpt lat="46.03473" lon="4.70278">
        <ele>188</ele>
        <time>2018-03-14T10:02:22Z</time>
      </trkpt>
      <trkpt lat="46.03481" lon="4.70274">
        <ele>188</ele>
        <time>2018-03-14T10:02:23Z</time>
      </trkpt>
      <trkpt lat="46.03488" lon="4.70271">
        <ele>188</ele>
        <time>2018-03-14T10:02:24Z</time>
      </trkpt>
      <trkpt lat="46.03495" lon="4.70268">
        <ele>187</ele>
        <time>2018-03-14T10:02:25Z</time>
      </trkpt>
      <trkpt lat="46.03502" lon="4.70266">
        <ele>187</ele>
        <time>2018-03-14T10:02:26Z</time>
      </trkpt>
      <trkpt lat="46.03508" lon="4.70265">
        <ele>187</ele>
        <time>2018-03-14T10:02:27Z</time>
      </trkpt>
      <trkpt lat="46.03515" lon="4.70263">
        <ele>187</ele>
        <time>2018-03-14T10:02:28Z</time>
      </trkpt>
      <trkpt lat="46.03521" lon="4.7026">
        <ele>187</ele>
        <time>2018-03-14T10:02:29Z</time>
      </trkpt>
      <trkpt lat="46.03528" lon="4.7026">
        <ele>187</ele>
        <time>2018-03-14T10:02:30Z</time>
      </trkpt>
      <trkpt lat="46.03533" lon="4.70258">
        <ele>187</ele>
        <time>2018-03-14T10:02:31Z</time>
      </trkpt>
      <trkpt lat="46.03539" lon="4.70257">
        <ele>188</ele>
        <time>2018-03-14T10:02:32Z</time>
      </trkpt>
      <trkpt lat="46.03544" lon="4.70254">
        <ele>188</ele>
        <time>2018-03-14T10:02:33Z</time>
      </trkpt>
      <trkpt lat="46.03549" lon="4.70252">
        <ele>188</ele>
        <time>2018-03-14T10:02:34Z</time>
      </trkpt>
      <trkpt lat="46.03554" lon="4.70251">
        <ele>188</ele>
        <time>2018-03-14T10:02:35Z</time>
      </trkpt>
      <trkpt lat="46.0356" lon="4.70249">
        <ele>190</ele>
        <time>2018-03-14T10:02:36Z</time>
      </trkpt>
      <trkpt lat="46.03565" lon="4.70247">
        <ele>190</ele>
        <time>2018-03-14T10:02:37Z</time>
      </trkpt>
      <trkpt lat="46.0357" lon="4.70244">
        <ele>190</ele>
        <time>2018-03-14T10:02:38Z</time>
      </trkpt>
      <trkpt lat="46.03576" lon="4.70241">
        <ele>190</ele>
        <time>2018-03-14T10:02:39Z</time>
      </trkpt>
      <trkpt lat="46.03581" lon="4.70239">
        <ele>190</ele>
        <time>2018-03-14T10:02:40Z</time>
      </trkpt>
      <trkpt lat="46.03586" lon="4.70238">
        <ele>190</ele>
        <time>2018-03-14T10:02:41Z</time>
      </trkpt>
      <trkpt lat="46.03592" lon="4.70236">
        <ele>190</ele>
        <time>2018-03-14T10:02:42Z</time>
      </trkpt>
      <trkpt lat="46.03597" lon="4.70234">
        <ele>190</ele>
        <time>2018-03-14T10:02:43Z</time>
      </trkpt>
      <trkpt lat="46.03602" lon="4.70233">
        <ele>190</ele>
        <time>2018-03-14T10:02:44Z</time>
      </trkpt>
      <trkpt lat="46.03607" lon="4.70232">
        <ele>190</ele>
        <time>2018-03-14T10:02:45Z</time>
      </trkpt>
      <trkpt lat="46.03611" lon="4.70228">
        <ele>190</ele>
        <time>2018-03-14T10:02:46Z</time>
      </trkpt>
      <trkpt lat="46.03616" lon="4.70224">
        <ele>190</ele>
        <time>2018-03-14T10:02:47Z</time>
      </trkpt>
      <trkpt lat="46.03621" lon="4.70225">
        <ele>190</ele>
        <time>2018-03-14T10:02:48Z</time>
      </trkpt>
      <trkpt lat="46.03626" lon="4.70224">
        <ele>190</ele>
        <time>2018-03-14T10:02:49Z</time>
      </trkpt>
      <trkpt lat="46.03633" lon="4.7022">
        <ele>190</ele>
        <time>2018-03-14T10:02:50Z</time>
      </trkpt>
      <trkpt lat="46.03638" lon="4.70215">
        <ele>190</ele>
        <time>2018-03-14T10:02:51Z</time>
      </trkpt>
      <trkpt lat="46.03644" lon="4.70212">
        <ele>190</ele>
        <time>2018-03-14T10:02:52Z</time>
      </trkpt>
      <trkpt lat="46.0365" lon="4.7021">
        <ele>190</ele>
        <time>2018-03-14T10:02:53Z</time>
      </trkpt>
      <trkpt lat="46.03656" lon="4.7021">
        <ele>190</ele>
        <time>2018-03-14T10:02:54Z</time>
      </trkpt>
      <trkpt lat="46.03663" lon="4.70206">
        <ele>190</ele>
        <time>2018-03-14T10:02:55Z</time>
      </trkpt>
      <trkpt lat="46.03669" lon="4.70204">
        <ele>189</ele>
        <time>2018-03-14T10:02:56Z</time>
      </trkpt>
      <trkpt lat="46.03677" lon="4.702">
        <ele>189</ele>
        <time>2018-03-14T10:02:57Z</time>
      </trkpt>
      <trkpt lat="46.03683" lon="4.702">
        <ele>189</ele>
        <time>2018-03-14T10:02:58Z</time>
      </trkpt>
      <trkpt lat="46.0369" lon="4.70198">
        <ele>189</ele>
        <time>2018-03-14T10:02:59Z</time>
      </trkpt>
      <trkpt lat="46.03698" lon="4.70198">
        <ele>189</ele>
        <time>2018-03-14T10:03:00Z</time>
      </trkpt>
      <trkpt lat="46.03705" lon="4.70196">
        <ele>188</ele>
        <time>2018-03-14T10:03:01Z</time>
      </trkpt>
      <trkpt lat="46.03712" lon="4.70194">
        <ele>188</ele>
        <time>2018-03-14T10:03:02Z</time>
      </trkpt>
      <trkpt lat="46.03717" lon="4.70192">
        <ele>188</ele>
        <time>2018-03-14T10:03:03Z</time>
      </trkpt>
      <trkpt lat="46.03723" lon="4.7019">
        <ele>188</ele>
        <time>2018-03-14T10:03:04Z</time>
      </trkpt>
      <trkpt lat="46.03728" lon="4.70187">
        <ele>188</ele>
        <time>2018-03-14T10:03:05Z</time>
      </trkpt>
      <trkpt lat="46.03735" lon="4.70184">
        <ele>188</ele>
        <time>2018-03-14T10:03:06Z</time>
      </trkpt>
      <trkpt lat="46.0374" lon="4.70181">
        <ele>188</ele>
        <time>2018-03-14T10:03:07Z</time>
      </trkpt>
      <trkpt lat="46.03746" lon="4.70178">
        <ele>187</ele>
        <time>2018-03-14T10:03:08Z</time>
      </trkpt>
      <trkpt lat="46.03753" lon="4.70176">
        <ele>188</ele>
        <time>2018-03-14T10:03:09Z</time>
      </trkpt>
      <trkpt lat="46.03757" lon="4.70174">
        <ele>188</ele>
        <time>2018-03-14T10:03:10Z</time>
      </trkpt>
      <trkpt lat="46.03764" lon="4.70173">
        <ele>188</ele>
        <time>2018-03-14T10:03:11Z</time>
      </trkpt>
      <trkpt lat="46.03769" lon="4.70173">
        <ele>188</ele>
        <time>2018-03-14T10:03:12Z</time>
      </trkpt>
      <trkpt lat="46.03774" lon="4.70172">
        <ele>189</ele>
        <time>2018-03-14T10:03:13Z</time>
      </trkpt>
      <trkpt lat="46.03781" lon="4.7017">
        <ele>189</ele>
        <time>2018-03-14T10:03:14Z</time>
      </trkpt>
      <trkpt lat="46.03787" lon="4.70168">
        <ele>189</ele>
        <time>2018-03-14T10:03:15Z</time>
      </trkpt>
      <trkpt lat="46.03792" lon="4.70169">
        <ele>189</ele>
        <time>2018-03-14T10:03:16Z</time>
      </trkpt>
      <trkpt lat="46.03797" lon="4.70167">
        <ele>190</ele>
        <time>2018-03-14T10:03:17Z</time>
      </trkpt>
      <trkpt lat="46.03803" lon="4.70164">
        <ele>190</ele>
        <time>2018-03-14T10:03:18Z</time>
      </trkpt>
      <trkpt lat="46.03808" lon="4.70161">
        <ele>190</ele>
        <time>2018-03-14T10:03:19Z</time>
      </trkpt>
      <trkpt lat="46.03814" lon="4.70159">
        <ele>190</ele>
        <time>2018-03-14T10:03:20Z</time>
      </trkpt>
      <trkpt lat="46.03821" lon="4.70156">
        <ele>191</ele>
        <time>2018-03-14T10:03:21Z</time>
      </trkpt>
      <trkpt lat="46.03829" lon="4.70152">
        <ele>191</ele>
        <time>2018-03-14T10:03:23Z</time>
      </trkpt>
      <trkpt lat="46.03833" lon="4.7015">
        <ele>191</ele>
        <time>2018-03-14T10:03:24Z</time>
      </trkpt>
      <trkpt lat="46.03837" lon="4.70149">
        <ele>192</ele>
        <time>2018-03-14T10:03:25Z</time>
      </trkpt>
      <trkpt lat="46.03842" lon="4.70148">
        <ele>192</ele>
        <time>2018-03-14T10:03:26Z</time>
      </trkpt>
      <trkpt lat="46.03851" lon="4.70149">
        <ele>193</ele>
        <time>2018-03-14T10:03:28Z</time>
      </trkpt>
      <trkpt lat="46.03856" lon="4.70147">
        <ele>193</ele>
        <time>2018-03-14T10:03:29Z</time>
      </trkpt>
      <trkpt lat="46.0386" lon="4.70146">
        <ele>193</ele>
        <time>2018-03-14T10:03:31Z</time>
      </trkpt>
      <trkpt lat="46.03869" lon="4.70143">
        <ele>193</ele>
        <time>2018-03-14T10:03:32Z</time>
      </trkpt>
      <trkpt lat="46.03877" lon="4.70141">
        <ele>193</ele>
        <time>2018-03-14T10:03:34Z</time>
      </trkpt>
      <trkpt lat="46.03885" lon="4.70136">
        <ele>193</ele>
        <time>2018-03-14T10:03:35Z</time>
      </trkpt>
      <trkpt lat="46.03887" lon="4.70133">
        <ele>193</ele>
        <time>2018-03-14T10:03:38Z</time>
      </trkpt>
      <trkpt lat="46.03892" lon="4.70127">
        <ele>194</ele>
        <time>2018-03-14T10:03:39Z</time>
      </trkpt>
      <trkpt lat="46.03899" lon="4.70123">
        <ele>194</ele>
        <time>2018-03-14T10:03:40Z</time>
      </trkpt>
      <trkpt lat="46.03906" lon="4.7012">
        <ele>194</ele>
        <time>2018-03-14T10:03:41Z</time>
      </trkpt>
      <trkpt lat="46.03914" lon="4.7012">
        <ele>194</ele>
        <time>2018-03-14T10:03:44Z</time>
      </trkpt>
      <trkpt lat="46.03917" lon="4.7012">
        <ele>196</ele>
        <time>2018-03-14T10:03:45Z</time>
      </trkpt>
      <trkpt lat="46.03924" lon="4.70118">
        <ele>196</ele>
        <time>2018-03-14T10:03:47Z</time>
      </trkpt>
      <trkpt lat="46.03928" lon="4.70117">
        <ele>196</ele>
        <time>2018-03-14T10:03:48Z</time>
      </trkpt>
      <trkpt lat="46.03936" lon="4.70114">
        <ele>196</ele>
        <time>2018-03-14T10:03:50Z</time>
      </trkpt>
      <trkpt lat="46.03938" lon="4.70113">
        <ele>196</ele>
        <time>2018-03-14T10:03:51Z</time>
      </trkpt>
      <trkpt lat="46.03946" lon="4.7011">
        <ele>196</ele>
        <time>2018-03-14T10:03:53Z</time>
      </trkpt>
      <trkpt lat="46.03957" lon="4.7011">
        <ele>196</ele>
        <time>2018-03-14T10:03:54Z</time>
      </trkpt>
      <trkpt lat="46.03959" lon="4.7011">
        <ele>196</ele>
        <time>2018-03-14T10:03:55Z</time>
      </trkpt>
      <trkpt lat="46.0397" lon="4.70105">
        <ele>196</ele>
        <time>2018-03-14T10:03:56Z</time>
      </trkpt>
      <trkpt lat="46.03978" lon="4.70102">
        <ele>196</ele>
        <time>2018-03-14T10:03:58Z</time>
      </trkpt>
      <trkpt lat="46.03984" lon="4.70101">
        <ele>196</ele>
        <time>2018-03-14T10:03:59Z</time>
      </trkpt>
      <trkpt lat="46.0399" lon="4.70101">
        <ele>196</ele>
        <time>2018-03-14T10:04:00Z</time>
      </trkpt>
      <trkpt lat="46.03995" lon="4.70101">
        <ele>196</ele>
        <time>2018-03-14T10:04:01Z</time>
      </trkpt>
      <trkpt lat="46.03999" lon="4.701">
        <ele>196</ele>
        <time>2018-03-14T10:04:02Z</time>
      </trkpt>
      <trkpt lat="46.04004" lon="4.70098">
        <ele>196</ele>
        <time>2018-03-14T10:04:03Z</time>
      </trkpt>
      <trkpt lat="46.04008" lon="4.70098">
        <ele>196</ele>
        <time>2018-03-14T10:04:04Z</time>
      </trkpt>
      <trkpt lat="46.04014" lon="4.70098">
        <ele>195</ele>
        <time>2018-03-14T10:04:05Z</time>
      </trkpt>
      <trkpt lat="46.04018" lon="4.70098">
        <ele>195</ele>
        <time>2018-03-14T10:04:06Z</time>
      </trkpt>
      <trkpt lat="46.04025" lon="4.70096">
        <ele>195</ele>
        <time>2018-03-14T10:04:07Z</time>
      </trkpt>
      <trkpt lat="46.0403" lon="4.70095">
        <ele>195</ele>
        <time>2018-03-14T10:04:09Z</time>
      </trkpt>
      <trkpt lat="46.04037" lon="4.70094">
        <ele>195</ele>
        <time>2018-03-14T10:04:10Z</time>
      </trkpt>
      <trkpt lat="46.04043" lon="4.70093">
        <ele>195</ele>
        <time>2018-03-14T10:04:11Z</time>
      </trkpt>
      <trkpt lat="46.04049" lon="4.70094">
        <ele>195</ele>
        <time>2018-03-14T10:04:12Z</time>
      </trkpt>
      <trkpt lat="46.04055" lon="4.70093">
        <ele>195</ele>
        <time>2018-03-14T10:04:13Z</time>
      </trkpt>
      <trkpt lat="46.04061" lon="4.70093">
        <ele>195</ele>
        <time>2018-03-14T10:04:14Z</time>
      </trkpt>
      <trkpt lat="46.04066" lon="4.70093">
        <ele>195</ele>
        <time>2018-03-14T10:04:15Z</time>
      </trkpt>
      <trkpt lat="46.04071" lon="4.70093">
        <ele>194</ele>
        <time>2018-03-14T10:04:16Z</time>
      </trkpt>
      <trkpt lat="46.04076" lon="4.70092">
        <ele>194</ele>
        <time>2018-03-14T10:04:17Z</time>
      </trkpt>
      <trkpt lat="46.04082" lon="4.70091">
        <ele>194</ele>
        <time>2018-03-14T10:04:18Z</time>
      </trkpt>
      <trkpt lat="46.04087" lon="4.7009">
        <ele>193</ele>
        <time>2018-03-14T10:04:19Z</time>
      </trkpt>
      <trkpt lat="46.04092" lon="4.70088">
        <ele>193</ele>
        <time>2018-03-14T10:04:20Z</time>
      </trkpt>
      <trkpt lat="46.04098" lon="4.70086">
        <ele>193</ele>
        <time>2018-03-14T10:04:21Z</time>
      </trkpt>
      <trkpt lat="46.04102" lon="4.70085">
        <ele>193</ele>
        <time>2018-03-14T10:04:22Z</time>
      </trkpt>
      <trkpt lat="46.04108" lon="4.70085">
        <ele>192</ele>
        <time>2018-03-14T10:04:23Z</time>
      </trkpt>
      <trkpt lat="46.04114" lon="4.70081">
        <ele>192</ele>
        <time>2018-03-14T10:04:24Z</time>
      </trkpt>
      <trkpt lat="46.04122" lon="4.70082">
        <ele>192</ele>
        <time>2018-03-14T10:04:26Z</time>
      </trkpt>
      <trkpt lat="46.04124" lon="4.70082">
        <ele>192</ele>
        <time>2018-03-14T10:04:27Z</time>
      </trkpt>
      <trkpt lat="46.0413" lon="4.7008">
        <ele>192</ele>
        <time>2018-03-14T10:04:28Z</time>
      </trkpt>
      <trkpt lat="46.04134" lon="4.70076">
        <ele>192</ele>
        <time>2018-03-14T10:04:29Z</time>
      </trkpt>
      <trkpt lat="46.04139" lon="4.70071">
        <ele>192</ele>
        <time>2018-03-14T10:04:30Z</time>
      </trkpt>
      <trkpt lat="46.04144" lon="4.70067">
        <ele>191</ele>
        <time>2018-03-14T10:04:31Z</time>
      </trkpt>
      <trkpt lat="46.04149" lon="4.70062">
        <ele>191</ele>
        <time>2018-03-14T10:04:33Z</time>
      </trkpt>
      <trkpt lat="46.04157" lon="4.70053">
        <ele>191</ele>
        <time>2018-03-14T10:04:34Z</time>
      </trkpt>
      <trkpt lat="46.04162" lon="4.70047">
        <ele>191</ele>
        <time>2018-03-14T10:04:35Z</time>
      </trkpt>
      <trkpt lat="46.04166" lon="4.70044">
        <ele>191</ele>
        <time>2018-03-14T10:04:36Z</time>
      </trkpt>
      <trkpt lat="46.04174" lon="4.70037">
        <ele>189</ele>
        <time>2018-03-14T10:04:37Z</time>
      </trkpt>
      <trkpt lat="46.04175" lon="4.70036">
        <ele>189</ele>
        <time>2018-03-14T10:04:38Z</time>
      </trkpt>
      <trkpt lat="46.04182" lon="4.70032">
        <ele>189</ele>
        <time>2018-03-14T10:04:39Z</time>
      </trkpt>
      <trkpt lat="46.04188" lon="4.70028">
        <ele>188</ele>
        <time>2018-03-14T10:04:40Z</time>
      </trkpt>
      <trkpt lat="46.04194" lon="4.70024">
        <ele>188</ele>
        <time>2018-03-14T10:04:41Z</time>
      </trkpt>
      <trkpt lat="46.04198" lon="4.7002">
        <ele>188</ele>
        <time>2018-03-14T10:04:42Z</time>
      </trkpt>
      <trkpt lat="46.04205" lon="4.70013">
        <ele>188</ele>
        <time>2018-03-14T10:04:44Z</time>
      </trkpt>
      <trkpt lat="46.04209" lon="4.7001">
        <ele>188</ele>
        <time>2018-03-14T10:04:45Z</time>
      </trkpt>
      <trkpt lat="46.04213" lon="4.70006">
        <ele>188</ele>
        <time>2018-03-14T10:04:46Z</time>
      </trkpt>
      <trkpt lat="46.04216" lon="4.70002">
        <ele>188</ele>
        <time>2018-03-14T10:04:47Z</time>
      </trkpt>
      <trkpt lat="46.04223" lon="4.69996">
        <ele>188</ele>
        <time>2018-03-14T10:04:49Z</time>
      </trkpt>
      <trkpt lat="46.04226" lon="4.69993">
        <ele>188</ele>
        <time>2018-03-14T10:04:50Z</time>
      </trkpt>
      <trkpt lat="46.04233" lon="4.69986">
        <ele>188</ele>
        <time>2018-03-14T10:04:52Z</time>
      </trkpt>
      <trkpt lat="46.04236" lon="4.69983">
        <ele>188</ele>
        <time>2018-03-14T10:04:53Z</time>
      </trkpt>
      <trkpt lat="46.04244" lon="4.69976">
        <ele>188</ele>
        <time>2018-03-14T10:04:55Z</time>
      </trkpt>
      <trkpt lat="46.04247" lon="4.69973">
        <ele>188</ele>
        <time>2018-03-14T10:04:56Z</time>
      </trkpt>
      <trkpt lat="46.04254" lon="4.69967">
        <ele>188</ele>
        <time>2018-03-14T10:04:58Z</time>
      </trkpt>
      <trkpt lat="46.04257" lon="4.69963">
        <ele>188</ele>
        <time>2018-03-14T10:04:59Z</time>
      </trkpt>
      <trkpt lat="46.04263" lon="4.69955">
        <ele>188</ele>
        <time>2018-03-14T10:05:01Z</time>
      </trkpt>
      <trkpt lat="46.04267" lon="4.69951">
        <ele>188</ele>
        <time>2018-03-14T10:05:02Z</time>
      </trkpt>
      <trkpt lat="46.04273" lon="4.69944">
        <ele>189</ele>
        <time>2018-03-14T10:05:04Z</time>
      </trkpt>
      <trkpt lat="46.04277" lon="4.69941">
        <ele>189</ele>
        <time>2018-03-14T10:05:05Z</time>
      </trkpt>
      <trkpt lat="46.04284" lon="4.69933">
        <ele>189</ele>
        <time>2018-03-14T10:05:07Z</time>
      </trkpt>
      <trkpt lat="46.04288" lon="4.69926">
        <ele>189</ele>
        <time>2018-03-14T10:05:08Z</time>
      </trkpt>
      <trkpt lat="46.04291" lon="4.69922">
        <ele>189</ele>
        <time>2018-03-14T10:05:09Z</time>
      </trkpt>
      <trkpt lat="46.04295" lon="4.69919">
        <ele>189</ele>
        <time>2018-03-14T10:05:10Z</time>
      </trkpt>
      <trkpt lat="46.04302" lon="4.69911">
        <ele>190</ele>
        <time>2018-03-14T10:05:12Z</time>
      </trkpt>
      <trkpt lat="46.04306" lon="4.69907">
        <ele>190</ele>
        <time>2018-03-14T10:05:13Z</time>
      </trkpt>
      <trkpt lat="46.04311" lon="4.69899">
        <ele>190</ele>
        <time>2018-03-14T10:05:15Z</time>
      </trkpt>
      <trkpt lat="46.04312" lon="4.69896">
        <ele>190</ele>
        <time>2018-03-14T10:05:16Z</time>
      </trkpt>
      <trkpt lat="46.04317" lon="4.69888">
        <ele>190</ele>
        <time>2018-03-14T10:05:18Z</time>
      </trkpt>
      <trkpt lat="46.04319" lon="4.69882">
        <ele>190</ele>
        <time>2018-03-14T10:05:19Z</time>
      </trkpt>
      <trkpt lat="46.04324" lon="4.69873">
        <ele>191</ele>
        <time>2018-03-14T10:05:21Z</time>
      </trkpt>
      <trkpt lat="46.04327" lon="4.69868">
        <ele>191</ele>
        <time>2018-03-14T10:05:22Z</time>
      </trkpt>
      <trkpt lat="46.04332" lon="4.6986">
        <ele>191</ele>
        <time>2018-03-14T10:05:24Z</time>
      </trkpt>
      <trkpt lat="46.04334" lon="4.69855">
        <ele>192</ele>
        <time>2018-03-14T10:05:25Z</time>
      </trkpt>
      <trkpt lat="46.04338" lon="4.69848">
        <ele>192</ele>
        <time>2018-03-14T10:05:28Z</time>
      </trkpt>
      <trkpt lat="46.04341" lon="4.69845">
        <ele>192</ele>
        <time>2018-03-14T10:05:29Z</time>
      </trkpt>
      <trkpt lat="46.04348" lon="4.69838">
        <ele>192</ele>
        <time>2018-03-14T10:05:30Z</time>
      </trkpt>
      <trkpt lat="46.0435" lon="4.69837">
        <ele>193</ele>
        <time>2018-03-14T10:05:31Z</time>
      </trkpt>
      <trkpt lat="46.04357" lon="4.69833">
        <ele>193</ele>
        <time>2018-03-14T10:05:34Z</time>
      </trkpt>
      <trkpt lat="46.0436" lon="4.69832">
        <ele>193</ele>
        <time>2018-03-14T10:05:35Z</time>
      </trkpt>
      <trkpt lat="46.04369" lon="4.69828">
        <ele>193</ele>
        <time>2018-03-14T10:05:36Z</time>
      </trkpt>
      <trkpt lat="46.04375" lon="4.69825">
        <ele>194</ele>
        <time>2018-03-14T10:05:39Z</time>
      </trkpt>
      <trkpt lat="46.04378" lon="4.69824">
        <ele>194</ele>
        <time>2018-03-14T10:05:40Z</time>
      </trkpt>
      <trkpt lat="46.04386" lon="4.69821">
        <ele>194</ele>
        <time>2018-03-14T10:05:43Z</time>
      </trkpt>
      <trkpt lat="46.04389" lon="4.6982">
        <ele>194</ele>
        <time>2018-03-14T10:05:44Z</time>
      </trkpt>
      <trkpt lat="46.04395" lon="4.69819">
        <ele>194</ele>
        <time>2018-03-14T10:05:46Z</time>
      </trkpt>
      <trkpt lat="46.04398" lon="4.69818">
        <ele>194</ele>
        <time>2018-03-14T10:05:47Z</time>
      </trkpt>
      <trkpt lat="46.04404" lon="4.69816">
        <ele>194</ele>
        <time>2018-03-14T10:05:49Z</time>
      </trkpt>
      <trkpt lat="46.04407" lon="4.69815">
        <ele>194</ele>
        <time>2018-03-14T10:05:50Z</time>
      </trkpt>
      <trkpt lat="46.04413" lon="4.69812">
        <ele>194</ele>
        <time>2018-03-14T10:05:52Z</time>
      </trkpt>
      <trkpt lat="46.04416" lon="4.69811">
        <ele>194</ele>
        <time>2018-03-14T10:05:53Z</time>
      </trkpt>
      <trkpt lat="46.04422" lon="4.69809">
        <ele>196</ele>
        <time>2018-03-14T10:05:55Z</time>
      </trkpt>
      <trkpt lat="46.04425" lon="4.69809">
        <ele>196</ele>
        <time>2018-03-14T10:05:56Z</time>
      </trkpt>
      <trkpt lat="46.04431" lon="4.69808">
        <ele>196</ele>
        <time>2018-03-14T10:05:58Z</time>
      </trkpt>
      <trkpt lat="46.04434" lon="4.69807">
        <ele>196</ele>
        <time>2018-03-14T10:05:59Z</time>
      </trkpt>
      <trkpt lat="46.04441" lon="4.69805">
        <ele>196</ele>
        <time>2018-03-14T10:06:01Z</time>
      </trkpt>
      <trkpt lat="46.04445" lon="4.69804">
        <ele>196</ele>
        <time>2018-03-14T10:06:02Z</time>
      </trkpt>
      <trkpt lat="46.04451" lon="4.69803">
        <ele>196</ele>
        <time>2018-03-14T10:06:04Z</time>
      </trkpt>
      <trkpt lat="46.04454" lon="4.69802">
        <ele>196</ele>
        <time>2018-03-14T10:06:05Z</time>
      </trkpt>
      <trkpt lat="46.0446" lon="4.698">
        <ele>197</ele>
        <time>2018-03-14T10:06:07Z</time>
      </trkpt>
      <trkpt lat="46.04463" lon="4.69799">
        <ele>197</ele>
        <time>2018-03-14T10:06:08Z</time>
      </trkpt>
      <trkpt lat="46.0447" lon="4.69797">
        <ele>197</ele>
        <time>2018-03-14T10:06:10Z</time>
      </trkpt>
      <trkpt lat="46.04473" lon="4.69796">
        <ele>197</ele>
        <time>2018-03-14T10:06:11Z</time>
      </trkpt>
      <trkpt lat="46.04479" lon="4.69794">
        <ele>197</ele>
        <time>2018-03-14T10:06:13Z</time>
      </trkpt>
      <trkpt lat="46.04482" lon="4.69793">
        <ele>197</ele>
        <time>2018-03-14T10:06:14Z</time>
      </trkpt>
      <trkpt lat="46.04488" lon="4.69791">
        <ele>197</ele>
        <time>2018-03-14T10:06:16Z</time>
      </trkpt>
      <trkpt lat="46.04491" lon="4.6979">
        <ele>197</ele>
        <time>2018-03-14T10:06:17Z</time>
      </trkpt>
      <trkpt lat="46.04498" lon="4.69789">
        <ele>197</ele>
        <time>2018-03-14T10:06:19Z</time>
      </trkpt>
      <trkpt lat="46.04501" lon="4.69789">
        <ele>199</ele>
        <time>2018-03-14T10:06:20Z</time>
      </trkpt>
      <trkpt lat="46.04507" lon="4.6979">
        <ele>199</ele>
        <time>2018-03-14T10:06:22Z</time>
      </trkpt>
      <trkpt lat="46.0451" lon="4.6979">
        <ele>199</ele>
        <time>2018-03-14T10:06:23Z</time>
      </trkpt>
      <trkpt lat="46.04518" lon="4.69791">
        <ele>199</ele>
        <time>2018-03-14T10:06:26Z</time>
      </trkpt>
      <trkpt lat="46.04521" lon="4.69791">
        <ele>199</ele>
        <time>2018-03-14T10:06:27Z</time>
      </trkpt>
      <trkpt lat="46.04527" lon="4.69792">
        <ele>199</ele>
        <time>2018-03-14T10:06:29Z</time>
      </trkpt>
      <trkpt lat="46.0453" lon="4.69793">
        <ele>199</ele>
        <time>2018-03-14T10:06:30Z</time>
      </trkpt>
      <trkpt lat="46.04536" lon="4.69794">
        <ele>199</ele>
        <time>2018-03-14T10:06:32Z</time>
      </trkpt>
      <trkpt lat="46.04539" lon="4.69795">
        <ele>199</ele>
        <time>2018-03-14T10:06:33Z</time>
      </trkpt>
      <trkpt lat="46.04543" lon="4.69795">
        <ele>199</ele>
        <time>2018-03-14T10:06:34Z</time>
      </trkpt>
      <trkpt lat="46.04553" lon="4.69798">
        <ele>199</ele>
        <time>2018-03-14T10:06:35Z</time>
      </trkpt>
      <trkpt lat="46.04561" lon="4.69799">
        <ele>199</ele>
        <time>2018-03-14T10:06:37Z</time>
      </trkpt>
      <trkpt lat="46.04565" lon="4.698">
        <ele>200</ele>
        <time>2018-03-14T10:06:38Z</time>
      </trkpt>
      <trkpt lat="46.04573" lon="4.69802">
        <ele>200</ele>
        <time>2018-03-14T10:06:40Z</time>
      </trkpt>
      <trkpt lat="46.04576" lon="4.69803">
        <ele>200</ele>
        <time>2018-03-14T10:06:41Z</time>
      </trkpt>
      <trkpt lat="46.04584" lon="4.69805">
        <ele>201</ele>
        <time>2018-03-14T10:06:43Z</time>
      </trkpt>
      <trkpt lat="46.04588" lon="4.69806">
        <ele>201</ele>
        <time>2018-03-14T10:06:44Z</time>
      </trkpt>
      <trkpt lat="46.04595" lon="4.69808">
        <ele>201</ele>
        <time>2018-03-14T10:06:46Z</time>
      </trkpt>
      <trkpt lat="46.04599" lon="4.69809">
        <ele>201</ele>
        <time>2018-03-14T10:06:47Z</time>
      </trkpt>
      <trkpt lat="46.04604" lon="4.69811">
        <ele>201</ele>
        <time>2018-03-14T10:06:49Z</time>
      </trkpt>
      <trkpt lat="46.04609" lon="4.69813">
        <ele>201</ele>
        <time>2018-03-14T10:06:50Z</time>
      </trkpt>
      <trkpt lat="46.04616" lon="4.69817">
        <ele>201</ele>
        <time>2018-03-14T10:06:52Z</time>
      </trkpt>
      <trkpt lat="46.0462" lon="4.69819">
        <ele>202</ele>
        <time>2018-03-14T10:06:53Z</time>
      </trkpt>
      <trkpt lat="46.04627" lon="4.69823">
        <ele>202</ele>
        <time>2018-03-14T10:06:55Z</time>
      </trkpt>
      <trkpt lat="46.04631" lon="4.69824">
        <ele>202</ele>
        <time>2018-03-14T10:06:56Z</time>
      </trkpt>
      <trkpt lat="46.04639" lon="4.69827">
        <ele>202</ele>
        <time>2018-03-14T10:06:58Z</time>
      </trkpt>
      <trkpt lat="46.04642" lon="4.69829">
        <ele>202</ele>
        <time>2018-03-14T10:06:59Z</time>
      </trkpt>
      <trkpt lat="46.0465" lon="4.69832">
        <ele>202</ele>
        <time>2018-03-14T10:07:01Z</time>
      </trkpt>
      <trkpt lat="46.04654" lon="4.69833">
        <ele>202</ele>
        <time>2018-03-14T10:07:02Z</time>
      </trkpt>
      <trkpt lat="46.04661" lon="4.69836">
        <ele>202</ele>
        <time>2018-03-14T10:07:04Z</time>
      </trkpt>
      <trkpt lat="46.04665" lon="4.69837">
        <ele>203</ele>
        <time>2018-03-14T10:07:05Z</time>
      </trkpt>
      <trkpt lat="46.04673" lon="4.69839">
        <ele>203</ele>
        <time>2018-03-14T10:07:07Z</time>
      </trkpt>
      <trkpt lat="46.04677" lon="4.6984">
        <ele>203</ele>
        <time>2018-03-14T10:07:08Z</time>
      </trkpt>
      <trkpt lat="46.04685" lon="4.69843">
        <ele>202</ele>
        <time>2018-03-14T10:07:10Z</time>
      </trkpt>
      <trkpt lat="46.04689" lon="4.69844">
        <ele>202</ele>
        <time>2018-03-14T10:07:11Z</time>
      </trkpt>
      <trkpt lat="46.04697" lon="4.69845">
        <ele>202</ele>
        <time>2018-03-14T10:07:13Z</time>
      </trkpt>
      <trkpt lat="46.04701" lon="4.69845">
        <ele>202</ele>
        <time>2018-03-14T10:07:14Z</time>
      </trkpt>
      <trkpt lat="46.04708" lon="4.69846">
        <ele>202</ele>
        <time>2018-03-14T10:07:16Z</time>
      </trkpt>
      <trkpt lat="46.04712" lon="4.69846">
        <ele>203</ele>
        <time>2018-03-14T10:07:17Z</time>
      </trkpt>
      <trkpt lat="46.04719" lon="4.69846">
        <ele>203</ele>
        <time>2018-03-14T10:07:19Z</time>
      </trkpt>
      <trkpt lat="46.04723" lon="4.69845">
        <ele>203</ele>
        <time>2018-03-14T10:07:20Z</time>
      </trkpt>
      <trkpt lat="46.04732" lon="4.69844">
        <ele>203</ele>
        <time>2018-03-14T10:07:22Z</time>
      </trkpt>
      <trkpt lat="46.04736" lon="4.69843">
        <ele>203</ele>
        <time>2018-03-14T10:07:23Z</time>
      </trkpt>
      <trkpt lat="46.04742" lon="4.69842">
        <ele>204</ele>
        <time>2018-03-14T10:07:25Z</time>
      </trkpt>
      <trkpt lat="46.04747" lon="4.69841">
        <ele>204</ele>
        <time>2018-03-14T10:07:26Z</time>
      </trkpt>
      <trkpt lat="46.04754" lon="4.69842">
        <ele>205</ele>
        <time>2018-03-14T10:07:28Z</time>
      </trkpt>
      <trkpt lat="46.04756" lon="4.69842">
        <ele>205</ele>
        <time>2018-03-14T10:07:29Z</time>
      </trkpt>
      <trkpt lat="46.04765" lon="4.69843">
        <ele>205</ele>
        <time>2018-03-14T10:07:31Z</time>
      </trkpt>
      <trkpt lat="46.04769" lon="4.69844">
        <ele>205</ele>
        <time>2018-03-14T10:07:32Z</time>
      </trkpt>
      <trkpt lat="46.04776" lon="4.69845">
        <ele>204</ele>
        <time>2018-03-14T10:07:34Z</time>
      </trkpt>
      <trkpt lat="46.04778" lon="4.69846">
        <ele>204</ele>
        <time>2018-03-14T10:07:35Z</time>
      </trkpt>
      <trkpt lat="46.04784" lon="4.69847">
        <ele>204</ele>
        <time>2018-03-14T10:07:36Z</time>
      </trkpt>
      <trkpt lat="46.04788" lon="4.69847">
        <ele>205</ele>
        <time>2018-03-14T10:07:37Z</time>
      </trkpt>
      <trkpt lat="46.04795" lon="4.69842">
        <ele>205</ele>
        <time>2018-03-14T10:07:39Z</time>
      </trkpt>
      <trkpt lat="46.04796" lon="4.69837">
        <ele>205</ele>
        <time>2018-03-14T10:07:40Z</time>
      </trkpt>
      <trkpt lat="46.04797" lon="4.69824">
        <ele>206</ele>
        <time>2018-03-14T10:07:43Z</time>
      </trkpt>
      <trkpt lat="46.04797" lon="4.6982">
        <ele>206</ele>
        <time>2018-03-14T10:07:44Z</time>
      </trkpt>
      <trkpt lat="46.04798" lon="4.69817">
        <ele>206</ele>
        <time>2018-03-14T10:07:45Z</time>
      </trkpt>
      <trkpt lat="46.04805" lon="4.69812">
        <ele>206</ele>
        <time>2018-03-14T10:07:46Z</time>
      </trkpt>
      <trkpt lat="46.04811" lon="4.69815">
        <ele>206</ele>
        <time>2018-03-14T10:07:49Z</time>
      </trkpt>
      <trkpt lat="46.04816" lon="4.69816">
        <ele>207</ele>
        <time>2018-03-14T10:07:50Z</time>
      </trkpt>
      <trkpt lat="46.04824" lon="4.69819">
        <ele>207</ele>
        <time>2018-03-14T10:07:52Z</time>
      </trkpt>
      <trkpt lat="46.04827" lon="4.69821">
        <ele>207</ele>
        <time>2018-03-14T10:07:53Z</time>
      </trkpt>
      <trkpt lat="46.04833" lon="4.69823">
        <ele>207</ele>
        <time>2018-03-14T10:07:55Z</time>
      </trkpt>
      <trkpt lat="46.04838" lon="4.69824">
        <ele>207</ele>
        <time>2018-03-14T10:07:56Z</time>
      </trkpt>
      <trkpt lat="46.04845" lon="4.69827">
        <ele>207</ele>
        <time>2018-03-14T10:07:58Z</time>
      </trkpt>
      <trkpt lat="46.04849" lon="4.69829">
        <ele>207</ele>
        <time>2018-03-14T10:07:59Z</time>
      </trkpt>
      <trkpt lat="46.04857" lon="4.69833">
        <ele>207</ele>
        <time>2018-03-14T10:08:01Z</time>
      </trkpt>
      <trkpt lat="46.0486" lon="4.69837">
        <ele>206</ele>
        <time>2018-03-14T10:08:02Z</time>
      </trkpt>
      <trkpt lat="46.04864" lon="4.69839">
        <ele>206</ele>
        <time>2018-03-14T10:08:03Z</time>
      </trkpt>
      <trkpt lat="46.04868" lon="4.69842">
        <ele>206</ele>
        <time>2018-03-14T10:08:04Z</time>
      </trkpt>
      <trkpt lat="46.04873" lon="4.69846">
        <ele>206</ele>
        <time>2018-03-14T10:08:05Z</time>
      </trkpt>
      <trkpt lat="46.04877" lon="4.69849">
        <ele>206</ele>
        <time>2018-03-14T10:08:06Z</time>
      </trkpt>
      <trkpt lat="46.04882" lon="4.69851">
        <ele>206</ele>
        <time>2018-03-14T10:08:07Z</time>
      </trkpt>
      <trkpt lat="46.04886" lon="4.69854">
        <ele>206</ele>
        <time>2018-03-14T10:08:08Z</time>
      </trkpt>
      <trkpt lat="46.04891" lon="4.69858">
        <ele>206</ele>
        <time>2018-03-14T10:08:09Z</time>
      </trkpt>
      <trkpt lat="46.04895" lon="4.6986">
        <ele>206</ele>
        <time>2018-03-14T10:08:10Z</time>
      </trkpt>
      <trkpt lat="46.04899" lon="4.69863">
        <ele>206</ele>
        <time>2018-03-14T10:08:11Z</time>
      </trkpt>
      <trkpt lat="46.04904" lon="4.69865">
        <ele>206</ele>
        <time>2018-03-14T10:08:12Z</time>
      </trkpt>
      <trkpt lat="46.04911" lon="4.69868">
        <ele>206</ele>
        <time>2018-03-14T10:08:14Z</time>
      </trkpt>
      <trkpt lat="46.04916" lon="4.69871">
        <ele>206</ele>
        <time>2018-03-14T10:08:15Z</time>
      </trkpt>
      <trkpt lat="46.04924" lon="4.69874">
        <ele>207</ele>
        <time>2018-03-14T10:08:17Z</time>
      </trkpt>
      <trkpt lat="46.04927" lon="4.69876">
        <ele>207</ele>
        <time>2018-03-14T10:08:18Z</time>
      </trkpt>
      <trkpt lat="46.04935" lon="4.69882">
        <ele>207</ele>
        <time>2018-03-14T10:08:20Z</time>
      </trkpt>
      <trkpt lat="46.04939" lon="4.69886">
        <ele>207</ele>
        <time>2018-03-14T10:08:21Z</time>
      </trkpt>
      <trkpt lat="46.04942" lon="4.6989">
        <ele>207</ele>
        <time>2018-03-14T10:08:22Z</time>
      </trkpt>
      <trkpt lat="46.04946" lon="4.69895">
        <ele>207</ele>
        <time>2018-03-14T10:08:23Z</time>
      </trkpt>
      <trkpt lat="46.04949" lon="4.69899">
        <ele>207</ele>
        <time>2018-03-14T10:08:24Z</time>
      </trkpt>
      <trkpt lat="46.04953" lon="4.69904">
        <ele>207</ele>
        <time>2018-03-14T10:08:25Z</time>
      </trkpt>
      <trkpt lat="46.04956" lon="4.69909">
        <ele>207</ele>
        <time>2018-03-14T10:08:26Z</time>
      </trkpt>
      <trkpt lat="46.0496" lon="4.69914">
        <ele>206</ele>
        <time>2018-03-14T10:08:27Z</time>
      </trkpt>
      <trkpt lat="46.04963" lon="4.69919">
        <ele>206</ele>
        <time>2018-03-14T10:08:28Z</time>
      </trkpt>
      <trkpt lat="46.04967" lon="4.69924">
        <ele>206</ele>
        <time>2018-03-14T10:08:29Z</time>
      </trkpt>
      <trkpt lat="46.0497" lon="4.69931">
        <ele>206</ele>
        <time>2018-03-14T10:08:30Z</time>
      </trkpt>
      <trkpt lat="46.04973" lon="4.69937">
        <ele>206</ele>
        <time>2018-03-14T10:08:31Z</time>
      </trkpt>
      <trkpt lat="46.04977" lon="4.69942">
        <ele>206</ele>
        <time>2018-03-14T10:08:32Z</time>
      </trkpt>
      <trkpt lat="46.04981" lon="4.69947">
        <ele>206</ele>
        <time>2018-03-14T10:08:33Z</time>
      </trkpt>
      <trkpt lat="46.04985" lon="4.69954">
        <ele>206</ele>
        <time>2018-03-14T10:08:34Z</time>
      </trkpt>
      <trkpt lat="46.04988" lon="4.69959">
        <ele>205</ele>
        <time>2018-03-14T10:08:35Z</time>
      </trkpt>
      <trkpt lat="46.04993" lon="4.69969">
        <ele>205</ele>
        <time>2018-03-14T10:08:37Z</time>
      </trkpt>
      <trkpt lat="46.04996" lon="4.69974">
        <ele>205</ele>
        <time>2018-03-14T10:08:38Z</time>
      </trkpt>
      <trkpt lat="46.05001" lon="4.69984">
        <ele>205</ele>
        <time>2018-03-14T10:08:40Z</time>
      </trkpt>
      <trkpt lat="46.05005" lon="4.69989">
        <ele>205</ele>
        <time>2018-03-14T10:08:41Z</time>
      </trkpt>
      <trkpt lat="46.05009" lon="4.69995">
        <ele>205</ele>
        <time>2018-03-14T10:08:42Z</time>
      </trkpt>
      <trkpt lat="46.05013" lon="4.69999">
        <ele>205</ele>
        <time>2018-03-14T10:08:43Z</time>
      </trkpt>
      <trkpt lat="46.05017" lon="4.70004">
        <ele>204</ele>
        <time>2018-03-14T10:08:44Z</time>
      </trkpt>
      <trkpt lat="46.05022" lon="4.70009">
        <ele>204</ele>
        <time>2018-03-14T10:08:45Z</time>
      </trkpt>
      <trkpt lat="46.05027" lon="4.70013">
        <ele>204</ele>
        <time>2018-03-14T10:08:46Z</time>
      </trkpt>
      <trkpt lat="46.05031" lon="4.70016">
        <ele>204</ele>
        <time>2018-03-14T10:08:47Z</time>
      </trkpt>
      <trkpt lat="46.05035" lon="4.7002">
        <ele>204</ele>
        <time>2018-03-14T10:08:48Z</time>
      </trkpt>
      <trkpt lat="46.0504" lon="4.70025">
        <ele>204</ele>
        <time>2018-03-14T10:08:49Z</time>
      </trkpt>
      <trkpt lat="46.05045" lon="4.70028">
        <ele>204</ele>
        <time>2018-03-14T10:08:50Z</time>
      </trkpt>
      <trkpt lat="46.05049" lon="4.7003">
        <ele>204</ele>
        <time>2018-03-14T10:08:51Z</time>
      </trkpt>
      <trkpt lat="46.05054" lon="4.70033">
        <ele>204</ele>
        <time>2018-03-14T10:08:52Z</time>
      </trkpt>
      <trkpt lat="46.05059" lon="4.70037">
        <ele>204</ele>
        <time>2018-03-14T10:08:53Z</time>
      </trkpt>
      <trkpt lat="46.05063" lon="4.70039">
        <ele>204</ele>
        <time>2018-03-14T10:08:54Z</time>
      </trkpt>
      <trkpt lat="46.05068" lon="4.70041">
        <ele>204</ele>
        <time>2018-03-14T10:08:55Z</time>
      </trkpt>
      <trkpt lat="46.05073" lon="4.70041">
        <ele>204</ele>
        <time>2018-03-14T10:08:56Z</time>
      </trkpt>
      <trkpt lat="46.05078" lon="4.70039">
        <ele>204</ele>
        <time>2018-03-14T10:08:57Z</time>
      </trkpt>
      <trkpt lat="46.05082" lon="4.70035">
        <ele>204</ele>
        <time>2018-03-14T10:08:58Z</time>
      </trkpt>
      <trkpt lat="46.05086" lon="4.7003">
        <ele>203</ele>
        <time>2018-03-14T10:08:59Z</time>
      </trkpt>
      <trkpt lat="46.0509" lon="4.70024">
        <ele>203</ele>
        <time>2018-03-14T10:09:00Z</time>
      </trkpt>
      <trkpt lat="46.05093" lon="4.70017">
        <ele>203</ele>
        <time>2018-03-14T10:09:01Z</time>
      </trkpt>
      <trkpt lat="46.05095" lon="4.7001">
        <ele>204</ele>
        <time>2018-03-14T10:09:02Z</time>
      </trkpt>
      <trkpt lat="46.05096" lon="4.70004">
        <ele>204</ele>
        <time>2018-03-14T10:09:03Z</time>
      </trkpt>
      <trkpt lat="46.05099" lon="4.69997">
        <ele>204</ele>
        <time>2018-03-14T10:09:04Z</time>
      </trkpt>
      <trkpt lat="46.05102" lon="4.6999">
        <ele>204</ele>
        <time>2018-03-14T10:09:05Z</time>
      </trkpt>
      <trkpt lat="46.05103" lon="4.69983">
        <ele>203</ele>
        <time>2018-03-14T10:09:06Z</time>
      </trkpt>
      <trkpt lat="46.05104" lon="4.69976">
        <ele>203</ele>
        <time>2018-03-14T10:09:07Z</time>
      </trkpt>
      <trkpt lat="46.05106" lon="4.69969">
        <ele>203</ele>
        <time>2018-03-14T10:09:08Z</time>
      </trkpt>
      <trkpt lat="46.05106" lon="4.6996">
        <ele>203</ele>
        <time>2018-03-14T10:09:09Z</time>
      </trkpt>
      <trkpt lat="46.05108" lon="4.69953">
        <ele>203</ele>
        <time>2018-03-14T10:09:10Z</time>
      </trkpt>
      <trkpt lat="46.05108" lon="4.69946">
        <ele>203</ele>
        <time>2018-03-14T10:09:11Z</time>
      </trkpt>
      <trkpt lat="46.05109" lon="4.6994">
        <ele>203</ele>
        <time>2018-03-14T10:09:12Z</time>
      </trkpt>
      <trkpt lat="46.0511" lon="4.69933">
        <ele>203</ele>
        <time>2018-03-14T10:09:13Z</time>
      </trkpt>
      <trkpt lat="46.05111" lon="4.69927">
        <ele>203</ele>
        <time>2018-03-14T10:09:14Z</time>
      </trkpt>
      <trkpt lat="46.05112" lon="4.6992">
        <ele>203</ele>
        <time>2018-03-14T10:09:15Z</time>
      </trkpt>
      <trkpt lat="46.05113" lon="4.69913">
        <ele>204</ele>
        <time>2018-03-14T10:09:16Z</time>
      </trkpt>
      <trkpt lat="46.05114" lon="4.69906">
        <ele>204</ele>
        <time>2018-03-14T10:09:17Z</time>
      </trkpt>
      <trkpt lat="46.05115" lon="4.699">
        <ele>204</ele>
        <time>2018-03-14T10:09:18Z</time>
      </trkpt>
      <trkpt lat="46.05116" lon="4.69893">
        <ele>204</ele>
        <time>2018-03-14T10:09:19Z</time>
      </trkpt>
      <trkpt lat="46.05117" lon="4.69886">
        <ele>204</ele>
        <time>2018-03-14T10:09:20Z</time>
      </trkpt>
      <trkpt lat="46.05118" lon="4.69879">
        <ele>204</ele>
        <time>2018-03-14T10:09:21Z</time>
      </trkpt>
      <trkpt lat="46.05119" lon="4.69872">
        <ele>204</ele>
        <time>2018-03-14T10:09:22Z</time>
      </trkpt>
      <trkpt lat="46.0512" lon="4.69866">
        <ele>204</ele>
        <time>2018-03-14T10:09:23Z</time>
      </trkpt>
      <trkpt lat="46.05122" lon="4.69855">
        <ele>204</ele>
        <time>2018-03-14T10:09:25Z</time>
      </trkpt>
      <trkpt lat="46.05123" lon="4.69849">
        <ele>204</ele>
        <time>2018-03-14T10:09:26Z</time>
      </trkpt>
      <trkpt lat="46.05126" lon="4.69838">
        <ele>204</ele>
        <time>2018-03-14T10:09:28Z</time>
      </trkpt>
      <trkpt lat="46.05129" lon="4.69834">
        <ele>204</ele>
        <time>2018-03-14T10:09:29Z</time>
      </trkpt>
      <trkpt lat="46.05137" lon="4.69829">
        <ele>204</ele>
        <time>2018-03-14T10:09:31Z</time>
      </trkpt>
      <trkpt lat="46.05143" lon="4.69829">
        <ele>204</ele>
        <time>2018-03-14T10:09:32Z</time>
      </trkpt>
      <trkpt lat="46.05148" lon="4.69832">
        <ele>204</ele>
        <time>2018-03-14T10:09:33Z</time>
      </trkpt>
      <trkpt lat="46.05153" lon="4.69833">
        <ele>204</ele>
        <time>2018-03-14T10:09:34Z</time>
      </trkpt>
      <trkpt lat="46.05158" lon="4.69836">
        <ele>203</ele>
        <time>2018-03-14T10:09:35Z</time>
      </trkpt>
      <trkpt lat="46.05164" lon="4.69837">
        <ele>203</ele>
        <time>2018-03-14T10:09:36Z</time>
      </trkpt>
      <trkpt lat="46.05169" lon="4.69838">
        <ele>203</ele>
        <time>2018-03-14T10:09:37Z</time>
      </trkpt>
      <trkpt lat="46.05174" lon="4.69841">
        <ele>202</ele>
        <time>2018-03-14T10:09:38Z</time>
      </trkpt>
      <trkpt lat="46.0518" lon="4.69842">
        <ele>202</ele>
        <time>2018-03-14T10:09:39Z</time>
      </trkpt>
      <trkpt lat="46.05186" lon="4.69844">
        <ele>202</ele>
        <time>2018-03-14T10:09:40Z</time>
      </trkpt>
      <trkpt lat="46.05192" lon="4.69846">
        <ele>202</ele>
        <time>2018-03-14T10:09:41Z</time>
      </trkpt>
      <trkpt lat="46.05198" lon="4.69848">
        <ele>201</ele>
        <time>2018-03-14T10:09:42Z</time>
      </trkpt>
      <trkpt lat="46.05203" lon="4.69849">
        <ele>201</ele>
        <time>2018-03-14T10:09:43Z</time>
      </trkpt>
      <trkpt lat="46.05209" lon="4.69852">
        <ele>201</ele>
        <time>2018-03-14T10:09:44Z</time>
      </trkpt>
      <trkpt lat="46.05215" lon="4.69854">
        <ele>201</ele>
        <time>2018-03-14T10:09:45Z</time>
      </trkpt>
      <trkpt lat="46.05221" lon="4.69857">
        <ele>201</ele>
        <time>2018-03-14T10:09:46Z</time>
      </trkpt>
      <trkpt lat="46.05227" lon="4.69859">
        <ele>201</ele>
        <time>2018-03-14T10:09:47Z</time>
      </trkpt>
      <trkpt lat="46.05233" lon="4.69861">
        <ele>201</ele>
        <time>2018-03-14T10:09:48Z</time>
      </trkpt>
      <trkpt lat="46.05239" lon="4.69862">
        <ele>201</ele>
        <time>2018-03-14T10:09:49Z</time>
      </trkpt>
      <trkpt lat="46.05245" lon="4.69864">
        <ele>201</ele>
        <time>2018-03-14T10:09:50Z</time>
      </trkpt>
      <trkpt lat="46.05251" lon="4.69866">
        <ele>199</ele>
        <time>2018-03-14T10:09:51Z</time>
      </trkpt>
      <trkpt lat="46.05257" lon="4.69867">
        <ele>199</ele>
        <time>2018-03-14T10:09:52Z</time>
      </trkpt>
      <trkpt lat="46.05263" lon="4.69869">
        <ele>199</ele>
        <time>2018-03-14T10:09:53Z</time>
      </trkpt>
      <trkpt lat="46.05269" lon="4.6987">
        <ele>199</ele>
        <time>2018-03-14T10:09:54Z</time>
      </trkpt>
      <trkpt lat="46.05275" lon="4.69872">
        <ele>199</ele>
        <time>2018-03-14T10:09:55Z</time>
      </trkpt>
      <trkpt lat="46.05281" lon="4.69874">
        <ele>199</ele>
        <time>2018-03-14T10:09:56Z</time>
      </trkpt>
      <trkpt lat="46.05287" lon="4.69875">
        <ele>199</ele>
        <time>2018-03-14T10:09:57Z</time>
      </trkpt>
      <trkpt lat="46.05294" lon="4.69875">
        <ele>199</ele>
        <time>2018-03-14T10:09:58Z</time>
      </trkpt>
      <trkpt lat="46.053" lon="4.69877">
        <ele>199</ele>
        <time>2018-03-14T10:09:59Z</time>
      </trkpt>
      <trkpt lat="46.05306" lon="4.69877">
        <ele>199</ele>
        <time>2018-03-14T10:10:00Z</time>
      </trkpt>
      <trkpt lat="46.05313" lon="4.69878">
        <ele>199</ele>
        <time>2018-03-14T10:10:01Z</time>
      </trkpt>
      <trkpt lat="46.05319" lon="4.69878">
        <ele>199</ele>
        <time>2018-03-14T10:10:02Z</time>
      </trkpt>
      <trkpt lat="46.05325" lon="4.69879">
        <ele>199</ele>
        <time>2018-03-14T10:10:03Z</time>
      </trkpt>
      <trkpt lat="46.0533" lon="4.6988">
        <ele>199</ele>
        <time>2018-03-14T10:10:04Z</time>
      </trkpt>
      <trkpt lat="46.05335" lon="4.69882">
        <ele>199</ele>
        <time>2018-03-14T10:10:05Z</time>
      </trkpt>
      <trkpt lat="46.05341" lon="4.69884">
        <ele>199</ele>
        <time>2018-03-14T10:10:06Z</time>
      </trkpt>
      <trkpt lat="46.05347" lon="4.69886">
        <ele>199</ele>
        <time>2018-03-14T10:10:07Z</time>
      </trkpt>
      <trkpt lat="46.05352" lon="4.69887">
        <ele>199</ele>
        <time>2018-03-14T10:10:08Z</time>
      </trkpt>
      <trkpt lat="46.05358" lon="4.6989">
        <ele>199</ele>
        <time>2018-03-14T10:10:09Z</time>
      </trkpt>
      <trkpt lat="46.05364" lon="4.69893">
        <ele>199</ele>
        <time>2018-03-14T10:10:10Z</time>
      </trkpt>
      <trkpt lat="46.05369" lon="4.69895">
        <ele>199</ele>
        <time>2018-03-14T10:10:11Z</time>
      </trkpt>
      <trkpt lat="46.05374" lon="4.69897">
        <ele>199</ele>
        <time>2018-03-14T10:10:12Z</time>
      </trkpt>
      <trkpt lat="46.0538" lon="4.69899">
        <ele>199</ele>
        <time>2018-03-14T10:10:13Z</time>
      </trkpt>
      <trkpt lat="46.05385" lon="4.69901">
        <ele>199</ele>
        <time>2018-03-14T10:10:14Z</time>
      </trkpt>
      <trkpt lat="46.05391" lon="4.69904">
        <ele>199</ele>
        <time>2018-03-14T10:10:15Z</time>
      </trkpt>
      <trkpt lat="46.05397" lon="4.69906">
        <ele>199</ele>
        <time>2018-03-14T10:10:16Z</time>
      </trkpt>
      <trkpt lat="46.05402" lon="4.69907">
        <ele>199</ele>
        <time>2018-03-14T10:10:17Z</time>
      </trkpt>
      <trkpt lat="46.05408" lon="4.69907">
        <ele>199</ele>
        <time>2018-03-14T10:10:18Z</time>
      </trkpt>
      <trkpt lat="46.05414" lon="4.69905">
        <ele>199</ele>
        <time>2018-03-14T10:10:19Z</time>
      </trkpt>
      <trkpt lat="46.0542" lon="4.69904">
        <ele>199</ele>
        <time>2018-03-14T10:10:20Z</time>
      </trkpt>
      <trkpt lat="46.05425" lon="4.69903">
        <ele>199</ele>
        <time>2018-03-14T10:10:21Z</time>
      </trkpt>
      <trkpt lat="46.0543" lon="4.69901">
        <ele>199</ele>
        <time>2018-03-14T10:10:22Z</time>
      </trkpt>
      <trkpt lat="46.05436" lon="4.69899">
        <ele>199</ele>
        <time>2018-03-14T10:10:23Z</time>
      </trkpt>
      <trkpt lat="46.05441" lon="4.69897">
        <ele>199</ele>
        <time>2018-03-14T10:10:24Z</time>
      </trkpt>
      <trkpt lat="46.05446" lon="4.69896">
        <ele>199</ele>
        <time>2018-03-14T10:10:25Z</time>
      </trkpt>
      <trkpt lat="46.05451" lon="4.69895">
        <ele>199</ele>
        <time>2018-03-14T10:10:26Z</time>
      </trkpt>
      <trkpt lat="46.05456" lon="4.69893">
        <ele>199</ele>
        <time>2018-03-14T10:10:27Z</time>
      </trkpt>
      <trkpt lat="46.05461" lon="4.6989">
        <ele>199</ele>
        <time>2018-03-14T10:10:28Z</time>
      </trkpt>
      <trkpt lat="46.05467" lon="4.69888">
        <ele>199</ele>
        <time>2018-03-14T10:10:29Z</time>
      </trkpt>
      <trkpt lat="46.05473" lon="4.69886">
        <ele>199</ele>
        <time>2018-03-14T10:10:30Z</time>
      </trkpt>
      <trkpt lat="46.05479" lon="4.69884">
        <ele>199</ele>
        <time>2018-03-14T10:10:31Z</time>
      </trkpt>
      <trkpt lat="46.05485" lon="4.69881">
        <ele>199</ele>
        <time>2018-03-14T10:10:32Z</time>
      </trkpt>
      <trkpt lat="46.05491" lon="4.6988">
        <ele>199</ele>
        <time>2018-03-14T10:10:33Z</time>
      </trkpt>
      <trkpt lat="46.05496" lon="4.69877">
        <ele>199</ele>
        <time>2018-03-14T10:10:34Z</time>
      </trkpt>
      <trkpt lat="46.05501" lon="4.69876">
        <ele>199</ele>
        <time>2018-03-14T10:10:35Z</time>
      </trkpt>
      <trkpt lat="46.05508" lon="4.69875">
        <ele>199</ele>
        <time>2018-03-14T10:10:36Z</time>
      </trkpt>
      <trkpt lat="46.05513" lon="4.69872">
        <ele>199</ele>
        <time>2018-03-14T10:10:37Z</time>
      </trkpt>
      <trkpt lat="46.05519" lon="4.6987">
        <ele>199</ele>
        <time>2018-03-14T10:10:38Z</time>
      </trkpt>
      <trkpt lat="46.05525" lon="4.69869">
        <ele>200</ele>
        <time>2018-03-14T10:10:39Z</time>
      </trkpt>
      <trkpt lat="46.0553" lon="4.69867">
        <ele>200</ele>
        <time>2018-03-14T10:10:40Z</time>
      </trkpt>
      <trkpt lat="46.05535" lon="4.69864">
        <ele>200</ele>
        <time>2018-03-14T10:10:41Z</time>
      </trkpt>
      <trkpt lat="46.0554" lon="4.69863">
        <ele>200</ele>
        <time>2018-03-14T10:10:42Z</time>
      </trkpt>
      <trkpt lat="46.05545" lon="4.69862">
        <ele>200</ele>
        <time>2018-03-14T10:10:43Z</time>
      </trkpt>
      <trkpt lat="46.0555" lon="4.69859">
        <ele>200</ele>
        <time>2018-03-14T10:10:44Z</time>
      </trkpt>
      <trkpt lat="46.05558" lon="4.69854">
        <ele>200</ele>
        <time>2018-03-14T10:10:46Z</time>
      </trkpt>
      <trkpt lat="46.05562" lon="4.69854">
        <ele>200</ele>
        <time>2018-03-14T10:10:47Z</time>
      </trkpt>
      <trkpt lat="46.0557" lon="4.69858">
        <ele>200</ele>
        <time>2018-03-14T10:10:49Z</time>
      </trkpt>
      <trkpt lat="46.05573" lon="4.69863">
        <ele>200</ele>
        <time>2018-03-14T10:10:50Z</time>
      </trkpt>
      <trkpt lat="46.05576" lon="4.69868">
        <ele>200</ele>
        <time>2018-03-14T10:10:51Z</time>
      </trkpt>
      <trkpt lat="46.05578" lon="4.69873">
        <ele>200</ele>
        <time>2018-03-14T10:10:52Z</time>
      </trkpt>
      <trkpt lat="46.05581" lon="4.69878">
        <ele>200</ele>
        <time>2018-03-14T10:10:53Z</time>
      </trkpt>
      <trkpt lat="46.05584" lon="4.69885">
        <ele>201</ele>
        <time>2018-03-14T10:10:54Z</time>
      </trkpt>
      <trkpt lat="46.05587" lon="4.69891">
        <ele>201</ele>
        <time>2018-03-14T10:10:55Z</time>
      </trkpt>
      <trkpt lat="46.0559" lon="4.69896">
        <ele>201</ele>
        <time>2018-03-14T10:10:56Z</time>
      </trkpt>
      <trkpt lat="46.05593" lon="4.69902">
        <ele>201</ele>
        <time>2018-03-14T10:10:57Z</time>
      </trkpt>
      <trkpt lat="46.05596" lon="4.69908">
        <ele>201</ele>
        <time>2018-03-14T10:10:58Z</time>
      </trkpt>
      <trkpt lat="46.05599" lon="4.69914">
        <ele>201</ele>
        <time>2018-03-14T10:10:59Z</time>
      </trkpt>
      <trkpt lat="46.05604" lon="4.69923">
        <ele>201</ele>
        <time>2018-03-14T10:11:00Z</time>
      </trkpt>
      <trkpt lat="46.05607" lon="4.6993">
        <ele>201</ele>
        <time>2018-03-14T10:11:01Z</time>
      </trkpt>
      <trkpt lat="46.05611" lon="4.69937">
        <ele>201</ele>
        <time>2018-03-14T10:11:02Z</time>
      </trkpt>
      <trkpt lat="46.05615" lon="4.69943">
        <ele>201</ele>
        <time>2018-03-14T10:11:03Z</time>
      </trkpt>
      <trkpt lat="46.05619" lon="4.6995">
        <ele>201</ele>
        <time>2018-03-14T10:11:04Z</time>
      </trkpt>
      <trkpt lat="46.05622" lon="4.69956">
        <ele>201</ele>
        <time>2018-03-14T10:11:05Z</time>
      </trkpt>
      <trkpt lat="46.05625" lon="4.69962">
        <ele>201</ele>
        <time>2018-03-14T10:11:06Z</time>
      </trkpt>
      <trkpt lat="46.05628" lon="4.69968">
        <ele>201</ele>
        <time>2018-03-14T10:11:07Z</time>
      </trkpt>
      <trkpt lat="46.05631" lon="4.69976">
        <ele>201</ele>
        <time>2018-03-14T10:11:08Z</time>
      </trkpt>
      <trkpt lat="46.05634" lon="4.69982">
        <ele>200</ele>
        <time>2018-03-14T10:11:09Z</time>
      </trkpt>
      <trkpt lat="46.05639" lon="4.69989">
        <ele>200</ele>
        <time>2018-03-14T10:11:10Z</time>
      </trkpt>
      <trkpt lat="46.05642" lon="4.69996">
        <ele>200</ele>
        <time>2018-03-14T10:11:11Z</time>
      </trkpt>
      <trkpt lat="46.05645" lon="4.70002">
        <ele>200</ele>
        <time>2018-03-14T10:11:12Z</time>
      </trkpt>
      <trkpt lat="46.05649" lon="4.70009">
        <ele>200</ele>
        <time>2018-03-14T10:11:13Z</time>
      </trkpt>
      <trkpt lat="46.05652" lon="4.70015">
        <ele>200</ele>
        <time>2018-03-14T10:11:14Z</time>
      </trkpt>
      <trkpt lat="46.05655" lon="4.70022">
        <ele>200</ele>
        <time>2018-03-14T10:11:15Z</time>
      </trkpt>
      <trkpt lat="46.05659" lon="4.70029">
        <ele>200</ele>
        <time>2018-03-14T10:11:16Z</time>
      </trkpt>
      <trkpt lat="46.05663" lon="4.70035">
        <ele>200</ele>
        <time>2018-03-14T10:11:17Z</time>
      </trkpt>
      <trkpt lat="46.05666" lon="4.70042">
        <ele>200</ele>
        <time>2018-03-14T10:11:18Z</time>
      </trkpt>
      <trkpt lat="46.0567" lon="4.70047">
        <ele>199</ele>
        <time>2018-03-14T10:11:19Z</time>
      </trkpt>
      <trkpt lat="46.05674" lon="4.70054">
        <ele>199</ele>
        <time>2018-03-14T10:11:20Z</time>
      </trkpt>
      <trkpt lat="46.05677" lon="4.70061">
        <ele>199</ele>
        <time>2018-03-14T10:11:21Z</time>
      </trkpt>
      <trkpt lat="46.0568" lon="4.70068">
        <ele>199</ele>
        <time>2018-03-14T10:11:22Z</time>
      </trkpt>
      <trkpt lat="46.05683" lon="4.70075">
        <ele>199</ele>
        <time>2018-03-14T10:11:23Z</time>
      </trkpt>
      <trkpt lat="46.05687" lon="4.70081">
        <ele>199</ele>
        <time>2018-03-14T10:11:24Z</time>
      </trkpt>
      <trkpt lat="46.0569" lon="4.70087">
        <ele>198</ele>
        <time>2018-03-14T10:11:25Z</time>
      </trkpt>
      <trkpt lat="46.05693" lon="4.70095">
        <ele>198</ele>
        <time>2018-03-14T10:11:26Z</time>
      </trkpt>
      <trkpt lat="46.05698" lon="4.70103">
        <ele>198</ele>
        <time>2018-03-14T10:11:27Z</time>
      </trkpt>
      <trkpt lat="46.05702" lon="4.7011">
        <ele>198</ele>
        <time>2018-03-14T10:11:28Z</time>
      </trkpt>
      <trkpt lat="46.05705" lon="4.70116">
        <ele>198</ele>
        <time>2018-03-14T10:11:29Z</time>
      </trkpt>
      <trkpt lat="46.05709" lon="4.70122">
        <ele>198</ele>
        <time>2018-03-14T10:11:30Z</time>
      </trkpt>
      <trkpt lat="46.05712" lon="4.7013">
        <ele>198</ele>
        <time>2018-03-14T10:11:31Z</time>
      </trkpt>
      <trkpt lat="46.05716" lon="4.70136">
        <ele>198</ele>
        <time>2018-03-14T10:11:32Z</time>
      </trkpt>
      <trkpt lat="46.0572" lon="4.70143">
        <ele>198</ele>
        <time>2018-03-14T10:11:33Z</time>
      </trkpt>
      <trkpt lat="46.05723" lon="4.7015">
        <ele>198</ele>
        <time>2018-03-14T10:11:34Z</time>
      </trkpt>
      <trkpt lat="46.05726" lon="4.70156">
        <ele>198</ele>
        <time>2018-03-14T10:11:35Z</time>
      </trkpt>
      <trkpt lat="46.05729" lon="4.70162">
        <ele>198</ele>
        <time>2018-03-14T10:11:36Z</time>
      </trkpt>
      <trkpt lat="46.05733" lon="4.7017">
        <ele>198</ele>
        <time>2018-03-14T10:11:37Z</time>
      </trkpt>
      <trkpt lat="46.05736" lon="4.70177">
        <ele>198</ele>
        <time>2018-03-14T10:11:38Z</time>
      </trkpt>
      <trkpt lat="46.05739" lon="4.70183">
        <ele>198</ele>
        <time>2018-03-14T10:11:39Z</time>
      </trkpt>
      <trkpt lat="46.05744" lon="4.70191">
        <ele>198</ele>
        <time>2018-03-14T10:11:40Z</time>
      </trkpt>
      <trkpt lat="46.05748" lon="4.70197">
        <ele>198</ele>
        <time>2018-03-14T10:11:41Z</time>
      </trkpt>
      <trkpt lat="46.05752" lon="4.70205">
        <ele>198</ele>
        <time>2018-03-14T10:11:42Z</time>
      </trkpt>
      <trkpt lat="46.05756" lon="4.70212">
        <ele>198</ele>
        <time>2018-03-14T10:11:43Z</time>
      </trkpt>
      <trkpt lat="46.05761" lon="4.7022">
        <ele>198</ele>
        <time>2018-03-14T10:11:44Z</time>
      </trkpt>
      <trkpt lat="46.05766" lon="4.70228">
        <ele>198</ele>
        <time>2018-03-14T10:11:45Z</time>
      </trkpt>
      <trkpt lat="46.05771" lon="4.70235">
        <ele>198</ele>
        <time>2018-03-14T10:11:46Z</time>
      </trkpt>
      <trkpt lat="46.05771" lon="4.70241">
        <ele>198</ele>
        <time>2018-03-14T10:11:47Z</time>
      </trkpt>
      <trkpt lat="46.05776" lon="4.70249">
        <ele>198</ele>
        <time>2018-03-14T10:11:48Z</time>
      </trkpt>
      <trkpt lat="46.05781" lon="4.70254">
        <ele>198</ele>
        <time>2018-03-14T10:11:49Z</time>
      </trkpt>
      <trkpt lat="46.05785" lon="4.7026">
        <ele>198</ele>
        <time>2018-03-14T10:11:50Z</time>
      </trkpt>
      <trkpt lat="46.05789" lon="4.70267">
        <ele>198</ele>
        <time>2018-03-14T10:11:51Z</time>
      </trkpt>
      <trkpt lat="46.05793" lon="4.70273">
        <ele>197</ele>
        <time>2018-03-14T10:11:52Z</time>
      </trkpt>
      <trkpt lat="46.05797" lon="4.70279">
        <ele>197</ele>
        <time>2018-03-14T10:11:53Z</time>
      </trkpt>
      <trkpt lat="46.05801" lon="4.70285">
        <ele>197</ele>
        <time>2018-03-14T10:11:54Z</time>
      </trkpt>
      <trkpt lat="46.05804" lon="4.70291">
        <ele>197</ele>
        <time>2018-03-14T10:11:55Z</time>
      </trkpt>
      <trkpt lat="46.05808" lon="4.70298">
        <ele>197</ele>
        <time>2018-03-14T10:11:56Z</time>
      </trkpt>
      <trkpt lat="46.05813" lon="4.70304">
        <ele>197</ele>
        <time>2018-03-14T10:11:57Z</time>
      </trkpt>
      <trkpt lat="46.05817" lon="4.7031">
        <ele>197</ele>
        <time>2018-03-14T10:11:58Z</time>
      </trkpt>
      <trkpt lat="46.05822" lon="4.70317">
        <ele>197</ele>
        <time>2018-03-14T10:11:59Z</time>
      </trkpt>
      <trkpt lat="46.05826" lon="4.70324">
        <ele>197</ele>
        <time>2018-03-14T10:12:00Z</time>
      </trkpt>
      <trkpt lat="46.0583" lon="4.7033">
        <ele>197</ele>
        <time>2018-03-14T10:12:01Z</time>
      </trkpt>
      <trkpt lat="46.05834" lon="4.70337">
        <ele>197</ele>
        <time>2018-03-14T10:12:02Z</time>
      </trkpt>
      <trkpt lat="46.05839" lon="4.70343">
        <ele>197</ele>
        <time>2018-03-14T10:12:03Z</time>
      </trkpt>
      <trkpt lat="46.05842" lon="4.70348">
        <ele>197</ele>
        <time>2018-03-14T10:12:04Z</time>
      </trkpt>
      <trkpt lat="46.05846" lon="4.70354">
        <ele>196</ele>
        <time>2018-03-14T10:12:05Z</time>
      </trkpt>
      <trkpt lat="46.0585" lon="4.7036">
        <ele>196</ele>
        <time>2018-03-14T10:12:06Z</time>
      </trkpt>
      <trkpt lat="46.05854" lon="4.70367">
        <ele>196</ele>
        <time>2018-03-14T10:12:07Z</time>
      </trkpt>
      <trkpt lat="46.05858" lon="4.70373">
        <ele>196</ele>
        <time>2018-03-14T10:12:08Z</time>
      </trkpt>
      <trkpt lat="46.05862" lon="4.70379">
        <ele>196</ele>
        <time>2018-03-14T10:12:09Z</time>
      </trkpt>
      <trkpt lat="46.05866" lon="4.70385">
        <ele>196</ele>
        <time>2018-03-14T10:12:10Z</time>
      </trkpt>
      <trkpt lat="46.0587" lon="4.70392">
        <ele>196</ele>
        <time>2018-03-14T10:12:11Z</time>
      </trkpt>
      <trkpt lat="46.05876" lon="4.70397">
        <ele>196</ele>
        <time>2018-03-14T10:12:12Z</time>
      </trkpt>
      <trkpt lat="46.05879" lon="4.70403">
        <ele>196</ele>
        <time>2018-03-14T10:12:13Z</time>
      </trkpt>
      <trkpt lat="46.05884" lon="4.7041">
        <ele>196</ele>
        <time>2018-03-14T10:12:14Z</time>
      </trkpt>
      <trkpt lat="46.05888" lon="4.70416">
        <ele>196</ele>
        <time>2018-03-14T10:12:15Z</time>
      </trkpt>
      <trkpt lat="46.05892" lon="4.70422">
        <ele>195</ele>
        <time>2018-03-14T10:12:16Z</time>
      </trkpt>
      <trkpt lat="46.05896" lon="4.70428">
        <ele>195</ele>
        <time>2018-03-14T10:12:17Z</time>
      </trkpt>
      <trkpt lat="46.05898" lon="4.70435">
        <ele>195</ele>
        <time>2018-03-14T10:12:18Z</time>
      </trkpt>
      <trkpt lat="46.05902" lon="4.70442">
        <ele>195</ele>
        <time>2018-03-14T10:12:19Z</time>
      </trkpt>
      <trkpt lat="46.05906" lon="4.70448">
        <ele>195</ele>
        <time>2018-03-14T10:12:20Z</time>
      </trkpt>
      <trkpt lat="46.05909" lon="4.70454">
        <ele>195</ele>
        <time>2018-03-14T10:12:21Z</time>
      </trkpt>
      <trkpt lat="46.05912" lon="4.70461">
        <ele>195</ele>
        <time>2018-03-14T10:12:22Z</time>
      </trkpt>
      <trkpt lat="46.05915" lon="4.70467">
        <ele>195</ele>
        <time>2018-03-14T10:12:23Z</time>
      </trkpt>
      <trkpt lat="46.05918" lon="4.70476">
        <ele>195</ele>
        <time>2018-03-14T10:12:24Z</time>
      </trkpt>
      <trkpt lat="46.0592" lon="4.70484">
        <ele>195</ele>
        <time>2018-03-14T10:12:25Z</time>
      </trkpt>
      <trkpt lat="46.05923" lon="4.70492">
        <ele>196</ele>
        <time>2018-03-14T10:12:26Z</time>
      </trkpt>
      <trkpt lat="46.05925" lon="4.705">
        <ele>196</ele>
        <time>2018-03-14T10:12:27Z</time>
      </trkpt>
      <trkpt lat="46.05926" lon="4.70507">
        <ele>195</ele>
        <time>2018-03-14T10:12:28Z</time>
      </trkpt>
      <trkpt lat="46.05927" lon="4.70514">
        <ele>195</ele>
        <time>2018-03-14T10:12:29Z</time>
      </trkpt>
      <trkpt lat="46.05927" lon="4.70521">
        <ele>195</ele>
        <time>2018-03-14T10:12:30Z</time>
      </trkpt>
      <trkpt lat="46.05926" lon="4.70529">
        <ele>195</ele>
        <time>2018-03-14T10:12:31Z</time>
      </trkpt>
      <trkpt lat="46.05925" lon="4.70535">
        <ele>195</ele>
        <time>2018-03-14T10:12:32Z</time>
      </trkpt>
      <trkpt lat="46.05923" lon="4.70541">
        <ele>195</ele>
        <time>2018-03-14T10:12:33Z</time>
      </trkpt>
      <trkpt lat="46.05921" lon="4.70547">
        <ele>195</ele>
        <time>2018-03-14T10:12:34Z</time>
      </trkpt>
      <trkpt lat="46.0592" lon="4.70554">
        <ele>195</ele>
        <time>2018-03-14T10:12:35Z</time>
      </trkpt>
      <trkpt lat="46.05918" lon="4.70559">
        <ele>195</ele>
        <time>2018-03-14T10:12:36Z</time>
      </trkpt>
      <trkpt lat="46.05916" lon="4.70567">
        <ele>195</ele>
        <time>2018-03-14T10:12:37Z</time>
      </trkpt>
      <trkpt lat="46.05914" lon="4.70574">
        <ele>195</ele>
        <time>2018-03-14T10:12:38Z</time>
      </trkpt>
      <trkpt lat="46.05913" lon="4.70582">
        <ele>195</ele>
        <time>2018-03-14T10:12:39Z</time>
      </trkpt>
      <trkpt lat="46.05912" lon="4.7059">
        <ele>195</ele>
        <time>2018-03-14T10:12:40Z</time>
      </trkpt>
      <trkpt lat="46.05911" lon="4.70598">
        <ele>194</ele>
        <time>2018-03-14T10:12:41Z</time>
      </trkpt>
      <trkpt lat="46.0591" lon="4.70607">
        <ele>194</ele>
        <time>2018-03-14T10:12:42Z</time>
      </trkpt>
      <trkpt lat="46.05909" lon="4.70615">
        <ele>194</ele>
        <time>2018-03-14T10:12:43Z</time>
      </trkpt>
      <trkpt lat="46.05908" lon="4.70623">
        <ele>194</ele>
        <time>2018-03-14T10:12:44Z</time>
      </trkpt>
      <trkpt lat="46.05907" lon="4.70632">
        <ele>194</ele>
        <time>2018-03-14T10:12:45Z</time>
      </trkpt>
      <trkpt lat="46.05906" lon="4.70638">
        <ele>194</ele>
        <time>2018-03-14T10:12:46Z</time>
      </trkpt>
      <trkpt lat="46.05905" lon="4.70645">
        <ele>194</ele>
        <time>2018-03-14T10:12:47Z</time>
      </trkpt>
      <trkpt lat="46.05905" lon="4.70653">
        <ele>194</ele>
        <time>2018-03-14T10:12:48Z</time>
      </trkpt>
      <trkpt lat="46.05904" lon="4.70665">
        <ele>194</ele>
        <time>2018-03-14T10:12:50Z</time>
      </trkpt>
      <trkpt lat="46.05904" lon="4.70672">
        <ele>194</ele>
        <time>2018-03-14T10:12:51Z</time>
      </trkpt>
      <trkpt lat="46.05905" lon="4.70679">
        <ele>194</ele>
        <time>2018-03-14T10:12:52Z</time>
      </trkpt>
      <trkpt lat="46.05905" lon="4.70687">
        <ele>194</ele>
        <time>2018-03-14T10:12:53Z</time>
      </trkpt>
      <trkpt lat="46.05905" lon="4.70697">
        <ele>194</ele>
        <time>2018-03-14T10:12:54Z</time>
      </trkpt>
      <trkpt lat="46.05907" lon="4.70705">
        <ele>194</ele>
        <time>2018-03-14T10:12:55Z</time>
      </trkpt>
      <trkpt lat="46.05908" lon="4.70713">
        <ele>194</ele>
        <time>2018-03-14T10:12:56Z</time>
      </trkpt>
      <trkpt lat="46.05909" lon="4.70719">
        <ele>194</ele>
        <time>2018-03-14T10:12:57Z</time>
      </trkpt>
      <trkpt lat="46.05911" lon="4.70726">
        <ele>194</ele>
        <time>2018-03-14T10:12:58Z</time>
      </trkpt>
      <trkpt lat="46.05913" lon="4.70735">
        <ele>194</ele>
        <time>2018-03-14T10:12:59Z</time>
      </trkpt>
      <trkpt lat="46.05915" lon="4.70743">
        <ele>194</ele>
        <time>2018-03-14T10:13:00Z</time>
      </trkpt>
      <trkpt lat="46.05916" lon="4.70751">
        <ele>194</ele>
        <time>2018-03-14T10:13:01Z</time>
      </trkpt>
      <trkpt lat="46.05916" lon="4.70761">
        <ele>194</ele>
        <time>2018-03-14T10:13:02Z</time>
      </trkpt>
      <trkpt lat="46.05918" lon="4.7077">
        <ele>194</ele>
        <time>2018-03-14T10:13:03Z</time>
      </trkpt>
      <trkpt lat="46.05919" lon="4.7078">
        <ele>194</ele>
        <time>2018-03-14T10:13:04Z</time>
      </trkpt>
      <trkpt lat="46.05921" lon="4.70789">
        <ele>194</ele>
        <time>2018-03-14T10:13:05Z</time>
      </trkpt>
      <trkpt lat="46.05921" lon="4.70799">
        <ele>194</ele>
        <time>2018-03-14T10:13:06Z</time>
      </trkpt>
      <trkpt lat="46.05922" lon="4.70807">
        <ele>194</ele>
        <time>2018-03-14T10:13:07Z</time>
      </trkpt>
      <trkpt lat="46.05923" lon="4.70815">
        <ele>194</ele>
        <time>2018-03-14T10:13:08Z</time>
      </trkpt>
      <trkpt lat="46.05923" lon="4.70824">
        <ele>195</ele>
        <time>2018-03-14T10:13:09Z</time>
      </trkpt>
      <trkpt lat="46.05924" lon="4.70832">
        <ele>195</ele>
        <time>2018-03-14T10:13:10Z</time>
      </trkpt>
      <trkpt lat="46.05924" lon="4.70839">
        <ele>195</ele>
        <time>2018-03-14T10:13:11Z</time>
      </trkpt>
      <trkpt lat="46.05925" lon="4.70846">
        <ele>194</ele>
        <time>2018-03-14T10:13:12Z</time>
      </trkpt>
      <trkpt lat="46.05926" lon="4.70855">
        <ele>194</ele>
        <time>2018-03-14T10:13:13Z</time>
      </trkpt>
      <trkpt lat="46.05927" lon="4.70862">
        <ele>194</ele>
        <time>2018-03-14T10:13:14Z</time>
      </trkpt>
      <trkpt lat="46.05927" lon="4.70873">
        <ele>194</ele>
        <time>2018-03-14T10:13:15Z</time>
      </trkpt>
      <trkpt lat="46.05927" lon="4.70879">
        <ele>194</ele>
        <time>2018-03-14T10:13:16Z</time>
      </trkpt>
      <trkpt lat="46.05928" lon="4.70887">
        <ele>194</ele>
        <time>2018-03-14T10:13:17Z</time>
      </trkpt>
      <trkpt lat="46.05929" lon="4.70898">
        <ele>194</ele>
        <time>2018-03-14T10:13:18Z</time>
      </trkpt>
      <trkpt lat="46.0593" lon="4.70908">
        <ele>194</ele>
        <time>2018-03-14T10:13:19Z</time>
      </trkpt>
      <trkpt lat="46.05932" lon="4.70915">
        <ele>194</ele>
        <time>2018-03-14T10:13:20Z</time>
      </trkpt>
      <trkpt lat="46.05932" lon="4.70921">
        <ele>194</ele>
        <time>2018-03-14T10:13:21Z</time>
      </trkpt>
      <trkpt lat="46.05934" lon="4.7093">
        <ele>194</ele>
        <time>2018-03-14T10:13:22Z</time>
      </trkpt>
      <trkpt lat="46.05935" lon="4.70938">
        <ele>194</ele>
        <time>2018-03-14T10:13:23Z</time>
      </trkpt>
      <trkpt lat="46.05937" lon="4.70946">
        <ele>193</ele>
        <time>2018-03-14T10:13:24Z</time>
      </trkpt>
      <trkpt lat="46.05939" lon="4.70953">
        <ele>193</ele>
        <time>2018-03-14T10:13:25Z</time>
      </trkpt>
      <trkpt lat="46.05941" lon="4.70961">
        <ele>193</ele>
        <time>2018-03-14T10:13:26Z</time>
      </trkpt>
      <trkpt lat="46.05943" lon="4.70969">
        <ele>193</ele>
        <time>2018-03-14T10:13:27Z</time>
      </trkpt>
      <trkpt lat="46.05945" lon="4.70977">
        <ele>193</ele>
        <time>2018-03-14T10:13:28Z</time>
      </trkpt>
      <trkpt lat="46.05947" lon="4.70984">
        <ele>193</ele>
        <time>2018-03-14T10:13:29Z</time>
      </trkpt>
      <trkpt lat="46.0595" lon="4.70992">
        <ele>193</ele>
        <time>2018-03-14T10:13:30Z</time>
      </trkpt>
      <trkpt lat="46.05952" lon="4.71">
        <ele>193</ele>
        <time>2018-03-14T10:13:31Z</time>
      </trkpt>
      <trkpt lat="46.05955" lon="4.71007">
        <ele>193</ele>
        <time>2018-03-14T10:13:32Z</time>
      </trkpt>
      <trkpt lat="46.05958" lon="4.71015">
        <ele>193</ele>
        <time>2018-03-14T10:13:33Z</time>
      </trkpt>
      <trkpt lat="46.05961" lon="4.71022">
        <ele>193</ele>
        <time>2018-03-14T10:13:34Z</time>
      </trkpt>
      <trkpt lat="46.05964" lon="4.71029">
        <ele>193</ele>
        <time>2018-03-14T10:13:35Z</time>
      </trkpt>
      <trkpt lat="46.05968" lon="4.71038">
        <ele>193</ele>
        <time>2018-03-14T10:13:36Z</time>
      </trkpt>
      <trkpt lat="46.05971" lon="4.71045">
        <ele>192</ele>
        <time>2018-03-14T10:13:37Z</time>
      </trkpt>
      <trkpt lat="46.05974" lon="4.71052">
        <ele>192</ele>
        <time>2018-03-14T10:13:38Z</time>
      </trkpt>
      <trkpt lat="46.05977" lon="4.71058">
        <ele>193</ele>
        <time>2018-03-14T10:13:39Z</time>
      </trkpt>
      <trkpt lat="46.0598" lon="4.71065">
        <ele>193</ele>
        <time>2018-03-14T10:13:40Z</time>
      </trkpt>
      <trkpt lat="46.05983" lon="4.71072">
        <ele>193</ele>
        <time>2018-03-14T10:13:41Z</time>
      </trkpt>
      <trkpt lat="46.05986" lon="4.71079">
        <ele>193</ele>
        <time>2018-03-14T10:13:42Z</time>
      </trkpt>
      <trkpt lat="46.05989" lon="4.71086">
        <ele>193</ele>
        <time>2018-03-14T10:13:43Z</time>
      </trkpt>
      <trkpt lat="46.05992" lon="4.71093">
        <ele>193</ele>
        <time>2018-03-14T10:13:44Z</time>
      </trkpt>
      <trkpt lat="46.05994" lon="4.711">
        <ele>193</ele>
        <time>2018-03-14T10:13:45Z</time>
      </trkpt>
      <trkpt lat="46.05997" lon="4.71107">
        <ele>193</ele>
        <time>2018-03-14T10:13:46Z</time>
      </trkpt>
      <trkpt lat="46.06" lon="4.71113">
        <ele>193</ele>
        <time>2018-03-14T10:13:47Z</time>
      </trkpt>
      <trkpt lat="46.06002" lon="4.71119">
        <ele>193</ele>
        <time>2018-03-14T10:13:48Z</time>
      </trkpt>
      <trkpt lat="46.06005" lon="4.71126">
        <ele>193</ele>
        <time>2018-03-14T10:13:49Z</time>
      </trkpt>
      <trkpt lat="46.06008" lon="4.71135">
        <ele>193</ele>
        <time>2018-03-14T10:13:50Z</time>
      </trkpt>
      <trkpt lat="46.0601" lon="4.71143">
        <ele>193</ele>
        <time>2018-03-14T10:13:51Z</time>
      </trkpt>
      <trkpt lat="46.06012" lon="4.7115">
        <ele>194</ele>
        <time>2018-03-14T10:13:52Z</time>
      </trkpt>
      <trkpt lat="46.06014" lon="4.71157">
        <ele>194</ele>
        <time>2018-03-14T10:13:53Z</time>
      </trkpt>
      <trkpt lat="46.06016" lon="4.71165">
        <ele>194</ele>
        <time>2018-03-14T10:13:54Z</time>
      </trkpt>
      <trkpt lat="46.06019" lon="4.71171">
        <ele>194</ele>
        <time>2018-03-14T10:13:55Z</time>
      </trkpt>
      <trkpt lat="46.06022" lon="4.71178">
        <ele>194</ele>
        <time>2018-03-14T10:13:56Z</time>
      </trkpt>
      <trkpt lat="46.06025" lon="4.71184">
        <ele>193</ele>
        <time>2018-03-14T10:13:57Z</time>
      </trkpt>
      <trkpt lat="46.06027" lon="4.71191">
        <ele>193</ele>
        <time>2018-03-14T10:13:58Z</time>
      </trkpt>
      <trkpt lat="46.0603" lon="4.71198">
        <ele>193</ele>
        <time>2018-03-14T10:13:59Z</time>
      </trkpt>
      <trkpt lat="46.06033" lon="4.71205">
        <ele>193</ele>
        <time>2018-03-14T10:14:00Z</time>
      </trkpt>
      <trkpt lat="46.06035" lon="4.71212">
        <ele>193</ele>
        <time>2018-03-14T10:14:01Z</time>
      </trkpt>
      <trkpt lat="46.06038" lon="4.71219">
        <ele>193</ele>
        <time>2018-03-14T10:14:02Z</time>
      </trkpt>
      <trkpt lat="46.06041" lon="4.71225">
        <ele>193</ele>
        <time>2018-03-14T10:14:03Z</time>
      </trkpt>
      <trkpt lat="46.06043" lon="4.71233">
        <ele>193</ele>
        <time>2018-03-14T10:14:04Z</time>
      </trkpt>
      <trkpt lat="46.06046" lon="4.71239">
        <ele>193</ele>
        <time>2018-03-14T10:14:05Z</time>
      </trkpt>
      <trkpt lat="46.0605" lon="4.71247">
        <ele>193</ele>
        <time>2018-03-14T10:14:06Z</time>
      </trkpt>
      <trkpt lat="46.06052" lon="4.71254">
        <ele>193</ele>
        <time>2018-03-14T10:14:07Z</time>
      </trkpt>
      <trkpt lat="46.06054" lon="4.71262">
        <ele>193</ele>
        <time>2018-03-14T10:14:08Z</time>
      </trkpt>
      <trkpt lat="46.06057" lon="4.71268">
        <ele>193</ele>
        <time>2018-03-14T10:14:09Z</time>
      </trkpt>
      <trkpt lat="46.0606" lon="4.71276">
        <ele>193</ele>
        <time>2018-03-14T10:14:10Z</time>
      </trkpt>
      <trkpt lat="46.06062" lon="4.71282">
        <ele>193</ele>
        <time>2018-03-14T10:14:11Z</time>
      </trkpt>
      <trkpt lat="46.06064" lon="4.71291">
        <ele>193</ele>
        <time>2018-03-14T10:14:12Z</time>
      </trkpt>
      <trkpt lat="46.06066" lon="4.71297">
        <ele>193</ele>
        <time>2018-03-14T10:14:13Z</time>
      </trkpt>
      <trkpt lat="46.06068" lon="4.71303">
        <ele>193</ele>
        <time>2018-03-14T10:14:14Z</time>
      </trkpt>
      <trkpt lat="46.06071" lon="4.71309">
        <ele>193</ele>
        <time>2018-03-14T10:14:15Z</time>
      </trkpt>
      <trkpt lat="46.06073" lon="4.71316">
        <ele>193</ele>
        <time>2018-03-14T10:14:16Z</time>
      </trkpt>
      <trkpt lat="46.06076" lon="4.71322">
        <ele>193</ele>
        <time>2018-03-14T10:14:17Z</time>
      </trkpt>
      <trkpt lat="46.06078" lon="4.71328">
        <ele>193</ele>
        <time>2018-03-14T10:14:18Z</time>
      </trkpt>
      <trkpt lat="46.0608" lon="4.71335">
        <ele>193</ele>
        <time>2018-03-14T10:14:19Z</time>
      </trkpt>
      <trkpt lat="46.06082" lon="4.71342">
        <ele>193</ele>
        <time>2018-03-14T10:14:20Z</time>
      </trkpt>
      <trkpt lat="46.06084" lon="4.71348">
        <ele>193</ele>
        <time>2018-03-14T10:14:21Z</time>
      </trkpt>
      <trkpt lat="46.06087" lon="4.71354">
        <ele>193</ele>
        <time>2018-03-14T10:14:22Z</time>
      </trkpt>
      <trkpt lat="46.06089" lon="4.71361">
        <ele>193</ele>
        <time>2018-03-14T10:14:23Z</time>
      </trkpt>
      <trkpt lat="46.06091" lon="4.71368">
        <ele>193</ele>
        <time>2018-03-14T10:14:24Z</time>
      </trkpt>
      <trkpt lat="46.06093" lon="4.71374">
        <ele>193</ele>
        <time>2018-03-14T10:14:25Z</time>
      </trkpt>
      <trkpt lat="46.06096" lon="4.71381">
        <ele>193</ele>
        <time>2018-03-14T10:14:26Z</time>
      </trkpt>
      <trkpt lat="46.06099" lon="4.71388">
        <ele>193</ele>
        <time>2018-03-14T10:14:27Z</time>
      </trkpt>
      <trkpt lat="46.06101" lon="4.71396">
        <ele>193</ele>
        <time>2018-03-14T10:14:28Z</time>
      </trkpt>
      <trkpt lat="46.06103" lon="4.71403">
        <ele>193</ele>
        <time>2018-03-14T10:14:29Z</time>
      </trkpt>
      <trkpt lat="46.06104" lon="4.7141">
        <ele>193</ele>
        <time>2018-03-14T10:14:30Z</time>
      </trkpt>
      <trkpt lat="46.06106" lon="4.71417">
        <ele>193</ele>
        <time>2018-03-14T10:14:31Z</time>
      </trkpt>
      <trkpt lat="46.06109" lon="4.71424">
        <ele>193</ele>
        <time>2018-03-14T10:14:32Z</time>
      </trkpt>
      <trkpt lat="46.06111" lon="4.71432">
        <ele>193</ele>
        <time>2018-03-14T10:14:33Z</time>
      </trkpt>
      <trkpt lat="46.06113" lon="4.71439">
        <ele>193</ele>
        <time>2018-03-14T10:14:34Z</time>
      </trkpt>
      <trkpt lat="46.06114" lon="4.71446">
        <ele>193</ele>
        <time>2018-03-14T10:14:35Z</time>
      </trkpt>
      <trkpt lat="46.06117" lon="4.71454">
        <ele>193</ele>
        <time>2018-03-14T10:14:36Z</time>
      </trkpt>
      <trkpt lat="46.06118" lon="4.71462">
        <ele>193</ele>
        <time>2018-03-14T10:14:37Z</time>
      </trkpt>
      <trkpt lat="46.0612" lon="4.71471">
        <ele>193</ele>
        <time>2018-03-14T10:14:38Z</time>
      </trkpt>
      <trkpt lat="46.06121" lon="4.71477">
        <ele>193</ele>
        <time>2018-03-14T10:14:39Z</time>
      </trkpt>
      <trkpt lat="46.06123" lon="4.71484">
        <ele>193</ele>
        <time>2018-03-14T10:14:40Z</time>
      </trkpt>
      <trkpt lat="46.06125" lon="4.71491">
        <ele>192</ele>
        <time>2018-03-14T10:14:41Z</time>
      </trkpt>
      <trkpt lat="46.06128" lon="4.71498">
        <ele>192</ele>
        <time>2018-03-14T10:14:42Z</time>
      </trkpt>
      <trkpt lat="46.0613" lon="4.71505">
        <ele>192</ele>
        <time>2018-03-14T10:14:43Z</time>
      </trkpt>
      <trkpt lat="46.06133" lon="4.71511">
        <ele>192</ele>
        <time>2018-03-14T10:14:44Z</time>
      </trkpt>
      <trkpt lat="46.06136" lon="4.71517">
        <ele>192</ele>
        <time>2018-03-14T10:14:45Z</time>
      </trkpt>
      <trkpt lat="46.06139" lon="4.71522">
        <ele>192</ele>
        <time>2018-03-14T10:14:46Z</time>
      </trkpt>
      <trkpt lat="46.06143" lon="4.71529">
        <ele>192</ele>
        <time>2018-03-14T10:14:47Z</time>
      </trkpt>
      <trkpt lat="46.06146" lon="4.71534">
        <ele>192</ele>
        <time>2018-03-14T10:14:48Z</time>
      </trkpt>
      <trkpt lat="46.0615" lon="4.7154">
        <ele>192</ele>
        <time>2018-03-14T10:14:49Z</time>
      </trkpt>
      <trkpt lat="46.06155" lon="4.71546">
        <ele>192</ele>
        <time>2018-03-14T10:14:50Z</time>
      </trkpt>
      <trkpt lat="46.06159" lon="4.71552">
        <ele>192</ele>
        <time>2018-03-14T10:14:51Z</time>
      </trkpt>
      <trkpt lat="46.06164" lon="4.71558">
        <ele>192</ele>
        <time>2018-03-14T10:14:52Z</time>
      </trkpt>
      <trkpt lat="46.06168" lon="4.71564">
        <ele>191</ele>
        <time>2018-03-14T10:14:53Z</time>
      </trkpt>
      <trkpt lat="46.06171" lon="4.71571">
        <ele>191</ele>
        <time>2018-03-14T10:14:54Z</time>
      </trkpt>
      <trkpt lat="46.06175" lon="4.71578">
        <ele>191</ele>
        <time>2018-03-14T10:14:55Z</time>
      </trkpt>
      <trkpt lat="46.0618" lon="4.71583">
        <ele>191</ele>
        <time>2018-03-14T10:14:56Z</time>
      </trkpt>
      <trkpt lat="46.06184" lon="4.7159">
        <ele>191</ele>
        <time>2018-03-14T10:14:57Z</time>
      </trkpt>
      <trkpt lat="46.06188" lon="4.71594">
        <ele>191</ele>
        <time>2018-03-14T10:14:58Z</time>
      </trkpt>
      <trkpt lat="46.06191" lon="4.71601">
        <ele>191</ele>
        <time>2018-03-14T10:14:59Z</time>
      </trkpt>
      <trkpt lat="46.06195" lon="4.71605">
        <ele>191</ele>
        <time>2018-03-14T10:15:00Z</time>
      </trkpt>
      <trkpt lat="46.06199" lon="4.71611">
        <ele>191</ele>
        <time>2018-03-14T10:15:01Z</time>
      </trkpt>
      <trkpt lat="46.06204" lon="4.71619">
        <ele>191</ele>
        <time>2018-03-14T10:15:02Z</time>
      </trkpt>
      <trkpt lat="46.06208" lon="4.71625">
        <ele>191</ele>
        <time>2018-03-14T10:15:03Z</time>
      </trkpt>
      <trkpt lat="46.06212" lon="4.71631">
        <ele>191</ele>
        <time>2018-03-14T10:15:04Z</time>
      </trkpt>
      <trkpt lat="46.06216" lon="4.71636">
        <ele>191</ele>
        <time>2018-03-14T10:15:05Z</time>
      </trkpt>
      <trkpt lat="46.0622" lon="4.71642">
        <ele>191</ele>
        <time>2018-03-14T10:15:06Z</time>
      </trkpt>
      <trkpt lat="46.06223" lon="4.71648">
        <ele>191</ele>
        <time>2018-03-14T10:15:07Z</time>
      </trkpt>
      <trkpt lat="46.06227" lon="4.71655">
        <ele>191</ele>
        <time>2018-03-14T10:15:08Z</time>
      </trkpt>
      <trkpt lat="46.0623" lon="4.71661">
        <ele>191</ele>
        <time>2018-03-14T10:15:09Z</time>
      </trkpt>
      <trkpt lat="46.06233" lon="4.71666">
        <ele>191</ele>
        <time>2018-03-14T10:15:10Z</time>
      </trkpt>
      <trkpt lat="46.06235" lon="4.71673">
        <ele>191</ele>
        <time>2018-03-14T10:15:11Z</time>
      </trkpt>
      <trkpt lat="46.06238" lon="4.7168">
        <ele>191</ele>
        <time>2018-03-14T10:15:12Z</time>
      </trkpt>
      <trkpt lat="46.0624" lon="4.71687">
        <ele>191</ele>
        <time>2018-03-14T10:15:13Z</time>
      </trkpt>
      <trkpt lat="46.06243" lon="4.71694">
        <ele>191</ele>
        <time>2018-03-14T10:15:14Z</time>
      </trkpt>
      <trkpt lat="46.06245" lon="4.71701">
        <ele>191</ele>
        <time>2018-03-14T10:15:15Z</time>
      </trkpt>
      <trkpt lat="46.06247" lon="4.71708">
        <ele>191</ele>
        <time>2018-03-14T10:15:16Z</time>
      </trkpt>
      <trkpt lat="46.06251" lon="4.71717">
        <ele>190</ele>
        <time>2018-03-14T10:15:17Z</time>
      </trkpt>
      <trkpt lat="46.06254" lon="4.71724">
        <ele>190</ele>
        <time>2018-03-14T10:15:18Z</time>
      </trkpt>
      <trkpt lat="46.06256" lon="4.7173">
        <ele>190</ele>
        <time>2018-03-14T10:15:19Z</time>
      </trkpt>
      <trkpt lat="46.06258" lon="4.71737">
        <ele>190</ele>
        <time>2018-03-14T10:15:20Z</time>
      </trkpt>
      <trkpt lat="46.06261" lon="4.71745">
        <ele>190</ele>
        <time>2018-03-14T10:15:21Z</time>
      </trkpt>
      <trkpt lat="46.06264" lon="4.71752">
        <ele>190</ele>
        <time>2018-03-14T10:15:22Z</time>
      </trkpt>
      <trkpt lat="46.06267" lon="4.71761">
        <ele>190</ele>
        <time>2018-03-14T10:15:23Z</time>
      </trkpt>
      <trkpt lat="46.0627" lon="4.71768">
        <ele>190</ele>
        <time>2018-03-14T10:15:24Z</time>
      </trkpt>
      <trkpt lat="46.06271" lon="4.71775">
        <ele>190</ele>
        <time>2018-03-14T10:15:25Z</time>
      </trkpt>
      <trkpt lat="46.06274" lon="4.71781">
        <ele>190</ele>
        <time>2018-03-14T10:15:26Z</time>
      </trkpt>
      <trkpt lat="46.06275" lon="4.71787">
        <ele>190</ele>
        <time>2018-03-14T10:15:27Z</time>
      </trkpt>
      <trkpt lat="46.06277" lon="4.71793">
        <ele>190</ele>
        <time>2018-03-14T10:15:28Z</time>
      </trkpt>
      <trkpt lat="46.06279" lon="4.718">
        <ele>190</ele>
        <time>2018-03-14T10:15:29Z</time>
      </trkpt>
      <trkpt lat="46.0628" lon="4.71806">
        <ele>190</ele>
        <time>2018-03-14T10:15:30Z</time>
      </trkpt>
      <trkpt lat="46.06281" lon="4.71813">
        <ele>190</ele>
        <time>2018-03-14T10:15:31Z</time>
      </trkpt>
      <trkpt lat="46.06283" lon="4.7182">
        <ele>189</ele>
        <time>2018-03-14T10:15:32Z</time>
      </trkpt>
      <trkpt lat="46.06284" lon="4.71827">
        <ele>189</ele>
        <time>2018-03-14T10:15:33Z</time>
      </trkpt>
      <trkpt lat="46.06286" lon="4.71834">
        <ele>189</ele>
        <time>2018-03-14T10:15:34Z</time>
      </trkpt>
      <trkpt lat="46.06288" lon="4.71843">
        <ele>189</ele>
        <time>2018-03-14T10:15:35Z</time>
      </trkpt>
      <trkpt lat="46.0629" lon="4.71851">
        <ele>189</ele>
        <time>2018-03-14T10:15:36Z</time>
      </trkpt>
      <trkpt lat="46.06291" lon="4.71859">
        <ele>189</ele>
        <time>2018-03-14T10:15:37Z</time>
      </trkpt>
      <trkpt lat="46.06293" lon="4.71867">
        <ele>189</ele>
        <time>2018-03-14T10:15:38Z</time>
      </trkpt>
      <trkpt lat="46.06295" lon="4.71875">
        <ele>189</ele>
        <time>2018-03-14T10:15:39Z</time>
      </trkpt>
      <trkpt lat="46.06298" lon="4.71885">
        <ele>189</ele>
        <time>2018-03-14T10:15:41Z</time>
      </trkpt>
      <trkpt lat="46.06299" lon="4.71887">
        <ele>189</ele>
        <time>2018-03-14T10:15:42Z</time>
      </trkpt>
      <trkpt lat="46.06302" lon="4.71901">
        <ele>189</ele>
        <time>2018-03-14T10:15:43Z</time>
      </trkpt>
      <trkpt lat="46.06303" lon="4.71908">
        <ele>189</ele>
        <time>2018-03-14T10:15:44Z</time>
      </trkpt>
      <trkpt lat="46.06304" lon="4.71913">
        <ele>189</ele>
        <time>2018-03-14T10:15:45Z</time>
      </trkpt>
      <trkpt lat="46.06306" lon="4.71925">
        <ele>190</ele>
        <time>2018-03-14T10:15:47Z</time>
      </trkpt>
      <trkpt lat="46.06307" lon="4.71931">
        <ele>190</ele>
        <time>2018-03-14T10:15:48Z</time>
      </trkpt>
      <trkpt lat="46.06311" lon="4.71943">
        <ele>190</ele>
        <time>2018-03-14T10:15:50Z</time>
      </trkpt>
      <trkpt lat="46.06312" lon="4.71948">
        <ele>190</ele>
        <time>2018-03-14T10:15:51Z</time>
      </trkpt>
      <trkpt lat="46.06316" lon="4.71957">
        <ele>190</ele>
        <time>2018-03-14T10:15:54Z</time>
      </trkpt>
      <trkpt lat="46.06318" lon="4.71965">
        <ele>190</ele>
        <time>2018-03-14T10:15:55Z</time>
      </trkpt>
      <trkpt lat="46.06321" lon="4.71976">
        <ele>190</ele>
        <time>2018-03-14T10:15:57Z</time>
      </trkpt>
      <trkpt lat="46.06322" lon="4.71982">
        <ele>190</ele>
        <time>2018-03-14T10:15:58Z</time>
      </trkpt>
      <trkpt lat="46.06324" lon="4.71988">
        <ele>190</ele>
        <time>2018-03-14T10:15:59Z</time>
      </trkpt>
      <trkpt lat="46.06328" lon="4.71995">
        <ele>189</ele>
        <time>2018-03-14T10:16:00Z</time>
      </trkpt>
      <trkpt lat="46.0633" lon="4.72002">
        <ele>189</ele>
        <time>2018-03-14T10:16:01Z</time>
      </trkpt>
      <trkpt lat="46.06333" lon="4.72009">
        <ele>189</ele>
        <time>2018-03-14T10:16:02Z</time>
      </trkpt>
      <trkpt lat="46.06335" lon="4.72016">
        <ele>189</ele>
        <time>2018-03-14T10:16:03Z</time>
      </trkpt>
      <trkpt lat="46.06337" lon="4.72022">
        <ele>189</ele>
        <time>2018-03-14T10:16:04Z</time>
      </trkpt>
      <trkpt lat="46.0634" lon="4.72029">
        <ele>189</ele>
        <time>2018-03-14T10:16:05Z</time>
      </trkpt>
      <trkpt lat="46.06341" lon="4.72035">
        <ele>189</ele>
        <time>2018-03-14T10:16:06Z</time>
      </trkpt>
      <trkpt lat="46.06344" lon="4.72041">
        <ele>189</ele>
        <time>2018-03-14T10:16:07Z</time>
      </trkpt>
      <trkpt lat="46.06346" lon="4.72048">
        <ele>189</ele>
        <time>2018-03-14T10:16:08Z</time>
      </trkpt>
      <trkpt lat="46.06348" lon="4.72054">
        <ele>189</ele>
        <time>2018-03-14T10:16:09Z</time>
      </trkpt>
      <trkpt lat="46.0635" lon="4.72061">
        <ele>189</ele>
        <time>2018-03-14T10:16:10Z</time>
      </trkpt>
      <trkpt lat="46.06353" lon="4.72068">
        <ele>189</ele>
        <time>2018-03-14T10:16:11Z</time>
      </trkpt>
      <trkpt lat="46.06356" lon="4.72074">
        <ele>189</ele>
        <time>2018-03-14T10:16:12Z</time>
      </trkpt>
      <trkpt lat="46.06358" lon="4.7208">
        <ele>189</ele>
        <time>2018-03-14T10:16:13Z</time>
      </trkpt>
      <trkpt lat="46.06359" lon="4.72088">
        <ele>189</ele>
        <time>2018-03-14T10:16:14Z</time>
      </trkpt>
      <trkpt lat="46.06361" lon="4.72095">
        <ele>189</ele>
        <time>2018-03-14T10:16:15Z</time>
      </trkpt>
      <trkpt lat="46.06362" lon="4.72101">
        <ele>189</ele>
        <time>2018-03-14T10:16:16Z</time>
      </trkpt>
      <trkpt lat="46.06364" lon="4.72108">
        <ele>189</ele>
        <time>2018-03-14T10:16:17Z</time>
      </trkpt>
      <trkpt lat="46.06367" lon="4.72113">
        <ele>189</ele>
        <time>2018-03-14T10:16:18Z</time>
      </trkpt>
      <trkpt lat="46.0637" lon="4.72125">
        <ele>189</ele>
        <time>2018-03-14T10:16:20Z</time>
      </trkpt>
      <trkpt lat="46.06372" lon="4.7213">
        <ele>189</ele>
        <time>2018-03-14T10:16:21Z</time>
      </trkpt>
      <trkpt lat="46.06373" lon="4.72137">
        <ele>189</ele>
        <time>2018-03-14T10:16:22Z</time>
      </trkpt>
      <trkpt lat="46.06376" lon="4.72142">
        <ele>189</ele>
        <time>2018-03-14T10:16:23Z</time>
      </trkpt>
      <trkpt lat="46.06379" lon="4.72148">
        <ele>189</ele>
        <time>2018-03-14T10:16:24Z</time>
      </trkpt>
      <trkpt lat="46.06381" lon="4.72154">
        <ele>189</ele>
        <time>2018-03-14T10:16:25Z</time>
      </trkpt>
      <trkpt lat="46.06382" lon="4.72162">
        <ele>189</ele>
        <time>2018-03-14T10:16:26Z</time>
      </trkpt>
      <trkpt lat="46.06384" lon="4.72168">
        <ele>189</ele>
        <time>2018-03-14T10:16:27Z</time>
      </trkpt>
      <trkpt lat="46.06388" lon="4.72179">
        <ele>189</ele>
        <time>2018-03-14T10:16:29Z</time>
      </trkpt>
      <trkpt lat="46.0639" lon="4.72185">
        <ele>189</ele>
        <time>2018-03-14T10:16:30Z</time>
      </trkpt>
      <trkpt lat="46.06392" lon="4.72196">
        <ele>190</ele>
        <time>2018-03-14T10:16:32Z</time>
      </trkpt>
      <trkpt lat="46.06394" lon="4.722">
        <ele>190</ele>
        <time>2018-03-14T10:16:33Z</time>
      </trkpt>
      <trkpt lat="46.06397" lon="4.7221">
        <ele>190</ele>
        <time>2018-03-14T10:16:35Z</time>
      </trkpt>
      <trkpt lat="46.06398" lon="4.72215">
        <ele>190</ele>
        <time>2018-03-14T10:16:36Z</time>
      </trkpt>
      <trkpt lat="46.06402" lon="4.72225">
        <ele>190</ele>
        <time>2018-03-14T10:16:39Z</time>
      </trkpt>
      <trkpt lat="46.06403" lon="4.72228">
        <ele>190</ele>
        <time>2018-03-14T10:16:40Z</time>
      </trkpt>
      <trkpt lat="46.06405" lon="4.72236">
        <ele>190</ele>
        <time>2018-03-14T10:16:42Z</time>
      </trkpt>
      <trkpt lat="46.06407" lon="4.72241">
        <ele>190</ele>
        <time>2018-03-14T10:16:43Z</time>
      </trkpt>
      <trkpt lat="46.06408" lon="4.72245">
        <ele>189</ele>
        <time>2018-03-14T10:16:44Z</time>
      </trkpt>
      <trkpt lat="46.06412" lon="4.72257">
        <ele>190</ele>
        <time>2018-03-14T10:16:45Z</time>
      </trkpt>
      <trkpt lat="46.06412" lon="4.72263">
        <ele>191</ele>
        <time>2018-03-14T10:16:47Z</time>
      </trkpt>
      <trkpt lat="46.06413" lon="4.72272">
        <ele>191</ele>
        <time>2018-03-14T10:16:48Z</time>
      </trkpt>
      <trkpt lat="46.06414" lon="4.72283">
        <ele>192</ele>
        <time>2018-03-14T10:16:50Z</time>
      </trkpt>
      <trkpt lat="46.06417" lon="4.72287">
        <ele>190</ele>
        <time>2018-03-14T10:16:51Z</time>
      </trkpt>
      <trkpt lat="46.06421" lon="4.72291">
        <ele>190</ele>
        <time>2018-03-14T10:16:52Z</time>
      </trkpt>
      <trkpt lat="46.06427" lon="4.72289">
        <ele>190</ele>
        <time>2018-03-14T10:16:53Z</time>
      </trkpt>
      <trkpt lat="46.06435" lon="4.72291">
        <ele>190</ele>
        <time>2018-03-14T10:16:55Z</time>
      </trkpt>
      <trkpt lat="46.0644" lon="4.72292">
        <ele>190</ele>
        <time>2018-03-14T10:16:56Z</time>
      </trkpt>
      <trkpt lat="46.06443" lon="4.72296">
        <ele>190</ele>
        <time>2018-03-14T10:16:57Z</time>
      </trkpt>
      <trkpt lat="46.06446" lon="4.72302">
        <ele>190</ele>
        <time>2018-03-14T10:16:58Z</time>
      </trkpt>
      <trkpt lat="46.06447" lon="4.72308">
        <ele>191</ele>
        <time>2018-03-14T10:16:59Z</time>
      </trkpt>
      <trkpt lat="46.06448" lon="4.72314">
        <ele>191</ele>
        <time>2018-03-14T10:17:00Z</time>
      </trkpt>
      <trkpt lat="46.06447" lon="4.72326">
        <ele>191</ele>
        <time>2018-03-14T10:17:03Z</time>
      </trkpt>
      <trkpt lat="46.06445" lon="4.72327">
        <ele>191</ele>
        <time>2018-03-14T10:17:04Z</time>
      </trkpt>
      <trkpt lat="46.06442" lon="4.72335">
        <ele>194</ele>
        <time>2018-03-14T10:17:07Z</time>
      </trkpt>
      <trkpt lat="46.06441" lon="4.7234">
        <ele>194</ele>
        <time>2018-03-14T10:17:08Z</time>
      </trkpt>
      <trkpt lat="46.06439" lon="4.72347">
        <ele>194</ele>
        <time>2018-03-14T10:17:10Z</time>
      </trkpt>
      <trkpt lat="46.06437" lon="4.72353">
        <ele>194</ele>
        <time>2018-03-14T10:17:11Z</time>
      </trkpt>
      <trkpt lat="46.06436" lon="4.72358">
        <ele>194</ele>
        <time>2018-03-14T10:17:12Z</time>
      </trkpt>
      <trkpt lat="46.06432" lon="4.7237">
        <ele>194</ele>
        <time>2018-03-14T10:17:13Z</time>
      </trkpt>
      <trkpt lat="46.06429" lon="4.72381">
        <ele>195</ele>
        <time>2018-03-14T10:17:17Z</time>
      </trkpt>
      <trkpt lat="46.06427" lon="4.72391">
        <ele>195</ele>
        <time>2018-03-14T10:17:18Z</time>
      </trkpt>
      <trkpt lat="46.06425" lon="4.72404">
        <ele>195</ele>
        <time>2018-03-14T10:17:22Z</time>
      </trkpt>
      <trkpt lat="46.06424" lon="4.72407">
        <ele>195</ele>
        <time>2018-03-14T10:17:23Z</time>
      </trkpt>
      <trkpt lat="46.0642" lon="4.72418">
        <ele>196</ele>
        <time>2018-03-14T10:17:26Z</time>
      </trkpt>
      <trkpt lat="46.06419" lon="4.72421">
        <ele>196</ele>
        <time>2018-03-14T10:17:27Z</time>
      </trkpt>
      <trkpt lat="46.06416" lon="4.72433">
        <ele>197</ele>
        <time>2018-03-14T10:17:30Z</time>
      </trkpt>
      <trkpt lat="46.06414" lon="4.72437">
        <ele>197</ele>
        <time>2018-03-14T10:17:31Z</time>
      </trkpt>
      <trkpt lat="46.0641" lon="4.72448">
        <ele>197</ele>
        <time>2018-03-14T10:17:34Z</time>
      </trkpt>
      <trkpt lat="46.06407" lon="4.72451">
        <ele>197</ele>
        <time>2018-03-14T10:17:35Z</time>
      </trkpt>
      <trkpt lat="46.064" lon="4.72458">
        <ele>197</ele>
        <time>2018-03-14T10:17:38Z</time>
      </trkpt>
      <trkpt lat="46.06398" lon="4.72461">
        <ele>197</ele>
        <time>2018-03-14T10:17:39Z</time>
      </trkpt>
      <trkpt lat="46.06394" lon="4.72469">
        <ele>197</ele>
        <time>2018-03-14T10:17:42Z</time>
      </trkpt>
      <trkpt lat="46.06394" lon="4.72473">
        <ele>198</ele>
        <time>2018-03-14T10:17:43Z</time>
      </trkpt>
      <trkpt lat="46.06396" lon="4.72486">
        <ele>198</ele>
        <time>2018-03-14T10:17:44Z</time>
      </trkpt>
      <trkpt lat="46.064" lon="4.72494">
        <ele>198</ele>
        <time>2018-03-14T10:17:46Z</time>
      </trkpt>
      <trkpt lat="46.06405" lon="4.72504">
        <ele>198</ele>
        <time>2018-03-14T10:17:47Z</time>
      </trkpt>
      <trkpt lat="46.06406" lon="4.72512">
        <ele>198</ele>
        <time>2018-03-14T10:17:48Z</time>
      </trkpt>
      <trkpt lat="46.06407" lon="4.72519">
        <ele>198</ele>
        <time>2018-03-14T10:17:49Z</time>
      </trkpt>
      <trkpt lat="46.06407" lon="4.72528">
        <ele>197</ele>
        <time>2018-03-14T10:17:50Z</time>
      </trkpt>
      <trkpt lat="46.06406" lon="4.72536">
        <ele>197</ele>
        <time>2018-03-14T10:17:51Z</time>
      </trkpt>
      <trkpt lat="46.06409" lon="4.72542">
        <ele>197</ele>
        <time>2018-03-14T10:17:52Z</time>
      </trkpt>
      <trkpt lat="46.0641" lon="4.7255">
        <ele>196</ele>
        <time>2018-03-14T10:17:53Z</time>
      </trkpt>
      <trkpt lat="46.06411" lon="4.7256">
        <ele>196</ele>
        <time>2018-03-14T10:17:55Z</time>
      </trkpt>
      <trkpt lat="46.06412" lon="4.72571">
        <ele>196</ele>
        <time>2018-03-14T10:17:56Z</time>
      </trkpt>
      <trkpt lat="46.06413" lon="4.72579">
        <ele>195</ele>
        <time>2018-03-14T10:17:57Z</time>
      </trkpt>
      <trkpt lat="46.06415" lon="4.72588">
        <ele>195</ele>
        <time>2018-03-14T10:17:58Z</time>
      </trkpt>
      <trkpt lat="46.06416" lon="4.72597">
        <ele>194</ele>
        <time>2018-03-14T10:17:59Z</time>
      </trkpt>
      <trkpt lat="46.06417" lon="4.72605">
        <ele>193</ele>
        <time>2018-03-14T10:18:00Z</time>
      </trkpt>
      <trkpt lat="46.06418" lon="4.72613">
        <ele>193</ele>
        <time>2018-03-14T10:18:01Z</time>
      </trkpt>
      <trkpt lat="46.0642" lon="4.7262">
        <ele>193</ele>
        <time>2018-03-14T10:18:02Z</time>
      </trkpt>
      <trkpt lat="46.06421" lon="4.72629">
        <ele>193</ele>
        <time>2018-03-14T10:18:03Z</time>
      </trkpt>
      <trkpt lat="46.06422" lon="4.72636">
        <ele>192</ele>
        <time>2018-03-14T10:18:04Z</time>
      </trkpt>
      <trkpt lat="46.06423" lon="4.72643">
        <ele>192</ele>
        <time>2018-03-14T10:18:05Z</time>
      </trkpt>
      <trkpt lat="46.06424" lon="4.72651">
        <ele>192</ele>
        <time>2018-03-14T10:18:06Z</time>
      </trkpt>
      <trkpt lat="46.06425" lon="4.72661">
        <ele>192</ele>
        <time>2018-03-14T10:18:07Z</time>
      </trkpt>
      <trkpt lat="46.06427" lon="4.72666">
        <ele>192</ele>
        <time>2018-03-14T10:18:08Z</time>
      </trkpt>
      <trkpt lat="46.0643" lon="4.72678">
        <ele>191</ele>
        <time>2018-03-14T10:18:09Z</time>
      </trkpt>
      <trkpt lat="46.06431" lon="4.72687">
        <ele>191</ele>
        <time>2018-03-14T10:18:10Z</time>
      </trkpt>
      <trkpt lat="46.06432" lon="4.72693">
        <ele>190</ele>
        <time>2018-03-14T10:18:11Z</time>
      </trkpt>
      <trkpt lat="46.06434" lon="4.72701">
        <ele>190</ele>
        <time>2018-03-14T10:18:12Z</time>
      </trkpt>
      <trkpt lat="46.06436" lon="4.72709">
        <ele>190</ele>
        <time>2018-03-14T10:18:13Z</time>
      </trkpt>
      <trkpt lat="46.06438" lon="4.72719">
        <ele>190</ele>
        <time>2018-03-14T10:18:14Z</time>
      </trkpt>
      <trkpt lat="46.06441" lon="4.72728">
        <ele>190</ele>
        <time>2018-03-14T10:18:15Z</time>
      </trkpt>
      <trkpt lat="46.06442" lon="4.72736">
        <ele>189</ele>
        <time>2018-03-14T10:18:16Z</time>
      </trkpt>
      <trkpt lat="46.06445" lon="4.72746">
        <ele>189</ele>
        <time>2018-03-14T10:18:17Z</time>
      </trkpt>
      <trkpt lat="46.06446" lon="4.72753">
        <ele>188</ele>
        <time>2018-03-14T10:18:18Z</time>
      </trkpt>
      <trkpt lat="46.06448" lon="4.72761">
        <ele>188</ele>
        <time>2018-03-14T10:18:19Z</time>
      </trkpt>
      <trkpt lat="46.06449" lon="4.72769">
        <ele>188</ele>
        <time>2018-03-14T10:18:20Z</time>
      </trkpt>
      <trkpt lat="46.0645" lon="4.72779">
        <ele>188</ele>
        <time>2018-03-14T10:18:21Z</time>
      </trkpt>
      <trkpt lat="46.06452" lon="4.72788">
        <ele>188</ele>
        <time>2018-03-14T10:18:22Z</time>
      </trkpt>
      <trkpt lat="46.06452" lon="4.72795">
        <ele>188</ele>
        <time>2018-03-14T10:18:23Z</time>
      </trkpt>
      <trkpt lat="46.06453" lon="4.72803">
        <ele>188</ele>
        <time>2018-03-14T10:18:24Z</time>
      </trkpt>
      <trkpt lat="46.06455" lon="4.72811">
        <ele>188</ele>
        <time>2018-03-14T10:18:25Z</time>
      </trkpt>
      <trkpt lat="46.06457" lon="4.72819">
        <ele>188</ele>
        <time>2018-03-14T10:18:26Z</time>
      </trkpt>
      <trkpt lat="46.06458" lon="4.72828">
        <ele>188</ele>
        <time>2018-03-14T10:18:27Z</time>
      </trkpt>
      <trkpt lat="46.0646" lon="4.72836">
        <ele>188</ele>
        <time>2018-03-14T10:18:28Z</time>
      </trkpt>
      <trkpt lat="46.06461" lon="4.72843">
        <ele>188</ele>
        <time>2018-03-14T10:18:29Z</time>
      </trkpt>
      <trkpt lat="46.06462" lon="4.72849">
        <ele>188</ele>
        <time>2018-03-14T10:18:30Z</time>
      </trkpt>
      <trkpt lat="46.06463" lon="4.72862">
        <ele>188</ele>
        <time>2018-03-14T10:18:45Z</time>
      </trkpt>
      <trkpt lat="46.06463" lon="4.72862">
        <ele>188</ele>
        <time>2018-03-14T10:18:46Z</time>
      </trkpt>
      <trkpt lat="46.06466" lon="4.72873">
        <ele>188</ele>
        <time>2018-03-14T10:18:59Z</time>
      </trkpt>
      <trkpt lat="46.06466" lon="4.72875">
        <ele>188</ele>
        <time>2018-03-14T10:19:00Z</time>
      </trkpt>
      <trkpt lat="46.06466" lon="4.72878">
        <ele>188</ele>
        <time>2018-03-14T10:19:01Z</time>
      </trkpt>
      <trkpt lat="46.06465" lon="4.72889">
        <ele>188</ele>
        <time>2018-03-14T10:19:02Z</time>
      </trkpt>
      <trkpt lat="46.06466" lon="4.72901">
        <ele>188</ele>
        <time>2018-03-14T10:19:04Z</time>
      </trkpt>
      <trkpt lat="46.06468" lon="4.72906">
        <ele>188</ele>
        <time>2018-03-14T10:19:05Z</time>
      </trkpt>
      <trkpt lat="46.0647" lon="4.72918">
        <ele>188</ele>
        <time>2018-03-14T10:19:07Z</time>
      </trkpt>
      <trkpt lat="46.06472" lon="4.72925">
        <ele>188</ele>
        <time>2018-03-14T10:19:08Z</time>
      </trkpt>
      <trkpt lat="46.06474" lon="4.72932">
        <ele>188</ele>
        <time>2018-03-14T10:19:09Z</time>
      </trkpt>
      <trkpt lat="46.06476" lon="4.72941">
        <ele>188</ele>
        <time>2018-03-14T10:19:10Z</time>
      </trkpt>
      <trkpt lat="46.06477" lon="4.7295">
        <ele>188</ele>
        <time>2018-03-14T10:19:11Z</time>
      </trkpt>
      <trkpt lat="46.06478" lon="4.72958">
        <ele>188</ele>
        <time>2018-03-14T10:19:12Z</time>
      </trkpt>
      <trkpt lat="46.06478" lon="4.72969">
        <ele>188</ele>
        <time>2018-03-14T10:19:14Z</time>
      </trkpt>
      <trkpt lat="46.06477" lon="4.72973">
        <ele>188</ele>
        <time>2018-03-14T10:19:15Z</time>
      </trkpt>
      <trkpt lat="46.06475" lon="4.72983">
        <ele>188</ele>
        <time>2018-03-14T10:19:17Z</time>
      </trkpt>
      <trkpt lat="46.06476" lon="4.7299">
        <ele>189</ele>
        <time>2018-03-14T10:19:18Z</time>
      </trkpt>
      <trkpt lat="46.06482" lon="4.72999">
        <ele>189</ele>
        <time>2018-03-14T10:19:20Z</time>
      </trkpt>
      <trkpt lat="46.06486" lon="4.73004">
        <ele>189</ele>
        <time>2018-03-14T10:19:21Z</time>
      </trkpt>
      <trkpt lat="46.06489" lon="4.73009">
        <ele>189</ele>
        <time>2018-03-14T10:19:22Z</time>
      </trkpt>
      <trkpt lat="46.06492" lon="4.73016">
        <ele>189</ele>
        <time>2018-03-14T10:19:23Z</time>
      </trkpt>
      <trkpt lat="46.06495" lon="4.73021">
        <ele>189</ele>
        <time>2018-03-14T10:19:24Z</time>
      </trkpt>
      <trkpt lat="46.06499" lon="4.73028">
        <ele>189</ele>
        <time>2018-03-14T10:19:25Z</time>
      </trkpt>
      <trkpt lat="46.06501" lon="4.73034">
        <ele>189</ele>
        <time>2018-03-14T10:19:26Z</time>
      </trkpt>
      <trkpt lat="46.06505" lon="4.73041">
        <ele>189</ele>
        <time>2018-03-14T10:19:27Z</time>
      </trkpt>
      <trkpt lat="46.06507" lon="4.73048">
        <ele>188</ele>
        <time>2018-03-14T10:19:28Z</time>
      </trkpt>
      <trkpt lat="46.06511" lon="4.73055">
        <ele>188</ele>
        <time>2018-03-14T10:19:29Z</time>
      </trkpt>
      <trkpt lat="46.06513" lon="4.73062">
        <ele>188</ele>
        <time>2018-03-14T10:19:30Z</time>
      </trkpt>
      <trkpt lat="46.06516" lon="4.73069">
        <ele>188</ele>
        <time>2018-03-14T10:19:31Z</time>
      </trkpt>
      <trkpt lat="46.06517" lon="4.73076">
        <ele>189</ele>
        <time>2018-03-14T10:19:32Z</time>
      </trkpt>
      <trkpt lat="46.06519" lon="4.73083">
        <ele>188</ele>
        <time>2018-03-14T10:19:33Z</time>
      </trkpt>
      <trkpt lat="46.06522" lon="4.7309">
        <ele>188</ele>
        <time>2018-03-14T10:19:34Z</time>
      </trkpt>
      <trkpt lat="46.06525" lon="4.73097">
        <ele>188</ele>
        <time>2018-03-14T10:19:35Z</time>
      </trkpt>
      <trkpt lat="46.06527" lon="4.73105">
        <ele>188</ele>
        <time>2018-03-14T10:19:36Z</time>
      </trkpt>
      <trkpt lat="46.0653" lon="4.73112">
        <ele>188</ele>
        <time>2018-03-14T10:19:37Z</time>
      </trkpt>
      <trkpt lat="46.06534" lon="4.7312">
        <ele>188</ele>
        <time>2018-03-14T10:19:38Z</time>
      </trkpt>
      <trkpt lat="46.06537" lon="4.73127">
        <ele>188</ele>
        <time>2018-03-14T10:19:39Z</time>
      </trkpt>
      <trkpt lat="46.06539" lon="4.73135">
        <ele>188</ele>
        <time>2018-03-14T10:19:40Z</time>
      </trkpt>
      <trkpt lat="46.0654" lon="4.73142">
        <ele>188</ele>
        <time>2018-03-14T10:19:41Z</time>
      </trkpt>
      <trkpt lat="46.06541" lon="4.73149">
        <ele>188</ele>
        <time>2018-03-14T10:19:42Z</time>
      </trkpt>
      <trkpt lat="46.06542" lon="4.73156">
        <ele>188</ele>
        <time>2018-03-14T10:19:43Z</time>
      </trkpt>
      <trkpt lat="46.06544" lon="4.73163">
        <ele>187</ele>
        <time>2018-03-14T10:19:44Z</time>
      </trkpt>
      <trkpt lat="46.06544" lon="4.73169">
        <ele>187</ele>
        <time>2018-03-14T10:19:45Z</time>
      </trkpt>
      <trkpt lat="46.06545" lon="4.73176">
        <ele>187</ele>
        <time>2018-03-14T10:19:46Z</time>
      </trkpt>
      <trkpt lat="46.06545" lon="4.73184">
        <ele>187</ele>
        <time>2018-03-14T10:19:47Z</time>
      </trkpt>
      <trkpt lat="46.06546" lon="4.73191">
        <ele>187</ele>
        <time>2018-03-14T10:19:48Z</time>
      </trkpt>
      <trkpt lat="46.06547" lon="4.732">
        <ele>187</ele>
        <time>2018-03-14T10:19:49Z</time>
      </trkpt>
      <trkpt lat="46.06548" lon="4.73206">
        <ele>186</ele>
        <time>2018-03-14T10:19:50Z</time>
      </trkpt>
      <trkpt lat="46.06548" lon="4.73214">
        <ele>186</ele>
        <time>2018-03-14T10:19:51Z</time>
      </trkpt>
      <trkpt lat="46.06549" lon="4.73221">
        <ele>186</ele>
        <time>2018-03-14T10:19:52Z</time>
      </trkpt>
      <trkpt lat="46.06551" lon="4.73228">
        <ele>186</ele>
        <time>2018-03-14T10:19:53Z</time>
      </trkpt>
      <trkpt lat="46.06555" lon="4.73238">
        <ele>186</ele>
        <time>2018-03-14T10:19:55Z</time>
      </trkpt>
      <trkpt lat="46.06559" lon="4.73245">
        <ele>186</ele>
        <time>2018-03-14T10:19:56Z</time>
      </trkpt>
      <trkpt lat="46.06561" lon="4.73253">
        <ele>184</ele>
        <time>2018-03-14T10:19:57Z</time>
      </trkpt>
      <trkpt lat="46.06563" lon="4.7326">
        <ele>184</ele>
        <time>2018-03-14T10:19:58Z</time>
      </trkpt>
      <trkpt lat="46.06566" lon="4.73267">
        <ele>184</ele>
        <time>2018-03-14T10:19:59Z</time>
      </trkpt>
      <trkpt lat="46.06569" lon="4.73275">
        <ele>184</ele>
        <time>2018-03-14T10:20:00Z</time>
      </trkpt>
      <trkpt lat="46.06572" lon="4.73284">
        <ele>184</ele>
        <time>2018-03-14T10:20:01Z</time>
      </trkpt>
      <trkpt lat="46.06575" lon="4.73291">
        <ele>184</ele>
        <time>2018-03-14T10:20:02Z</time>
      </trkpt>
      <trkpt lat="46.06578" lon="4.73299">
        <ele>183</ele>
        <time>2018-03-14T10:20:03Z</time>
      </trkpt>
      <trkpt lat="46.0658" lon="4.73307">
        <ele>183</ele>
        <time>2018-03-14T10:20:04Z</time>
      </trkpt>
      <trkpt lat="46.06582" lon="4.73315">
        <ele>183</ele>
        <time>2018-03-14T10:20:05Z</time>
      </trkpt>
      <trkpt lat="46.06583" lon="4.73321">
        <ele>182</ele>
        <time>2018-03-14T10:20:06Z</time>
      </trkpt>
      <trkpt lat="46.06585" lon="4.7333">
        <ele>182</ele>
        <time>2018-03-14T10:20:07Z</time>
      </trkpt>
      <trkpt lat="46.06588" lon="4.73336">
        <ele>182</ele>
        <time>2018-03-14T10:20:08Z</time>
      </trkpt>
      <trkpt lat="46.06592" lon="4.73341">
        <ele>182</ele>
        <time>2018-03-14T10:20:09Z</time>
      </trkpt>
      <trkpt lat="46.06597" lon="4.73344">
        <ele>182</ele>
        <time>2018-03-14T10:20:10Z</time>
      </trkpt>
      <trkpt lat="46.06602" lon="4.73348">
        <ele>182</ele>
        <time>2018-03-14T10:20:11Z</time>
      </trkpt>
      <trkpt lat="46.06607" lon="4.73352">
        <ele>182</ele>
        <time>2018-03-14T10:20:12Z</time>
      </trkpt>
      <trkpt lat="46.06613" lon="4.73355">
        <ele>182</ele>
        <time>2018-03-14T10:20:13Z</time>
      </trkpt>
      <trkpt lat="46.06618" lon="4.73357">
        <ele>182</ele>
        <time>2018-03-14T10:20:14Z</time>
      </trkpt>
      <trkpt lat="46.06624" lon="4.7336">
        <ele>182</ele>
        <time>2018-03-14T10:20:15Z</time>
      </trkpt>
      <trkpt lat="46.0663" lon="4.73363">
        <ele>182</ele>
        <time>2018-03-14T10:20:16Z</time>
      </trkpt>
      <trkpt lat="46.06635" lon="4.73367">
        <ele>182</ele>
        <time>2018-03-14T10:20:17Z</time>
      </trkpt>
      <trkpt lat="46.0664" lon="4.7337">
        <ele>182</ele>
        <time>2018-03-14T10:20:18Z</time>
      </trkpt>
      <trkpt lat="46.06644" lon="4.73375">
        <ele>182</ele>
        <time>2018-03-14T10:20:19Z</time>
      </trkpt>
      <trkpt lat="46.06649" lon="4.7338">
        <ele>182</ele>
        <time>2018-03-14T10:20:20Z</time>
      </trkpt>
      <trkpt lat="46.06653" lon="4.73386">
        <ele>182</ele>
        <time>2018-03-14T10:20:21Z</time>
      </trkpt>
      <trkpt lat="46.06658" lon="4.73392">
        <ele>182</ele>
        <time>2018-03-14T10:20:22Z</time>
      </trkpt>
      <trkpt lat="46.06662" lon="4.73398">
        <ele>182</ele>
        <time>2018-03-14T10:20:23Z</time>
      </trkpt>
      <trkpt lat="46.06667" lon="4.73404">
        <ele>182</ele>
        <time>2018-03-14T10:20:24Z</time>
      </trkpt>
      <trkpt lat="46.06671" lon="4.7341">
        <ele>182</ele>
        <time>2018-03-14T10:20:25Z</time>
      </trkpt>
      <trkpt lat="46.06674" lon="4.73416">
        <ele>182</ele>
        <time>2018-03-14T10:20:26Z</time>
      </trkpt>
      <trkpt lat="46.06678" lon="4.73422">
        <ele>181</ele>
        <time>2018-03-14T10:20:27Z</time>
      </trkpt>
      <trkpt lat="46.06683" lon="4.73427">
        <ele>181</ele>
        <time>2018-03-14T10:20:28Z</time>
      </trkpt>
      <trkpt lat="46.06687" lon="4.73433">
        <ele>181</ele>
        <time>2018-03-14T10:20:29Z</time>
      </trkpt>
      <trkpt lat="46.0669" lon="4.7344">
        <ele>181</ele>
        <time>2018-03-14T10:20:30Z</time>
      </trkpt>
      <trkpt lat="46.06694" lon="4.73446">
        <ele>181</ele>
        <time>2018-03-14T10:20:31Z</time>
      </trkpt>
      <trkpt lat="46.06697" lon="4.73452">
        <ele>180</ele>
        <time>2018-03-14T10:20:32Z</time>
      </trkpt>
      <trkpt lat="46.06701" lon="4.73457">
        <ele>180</ele>
        <time>2018-03-14T10:20:33Z</time>
      </trkpt>
      <trkpt lat="46.06705" lon="4.73462">
        <ele>180</ele>
        <time>2018-03-14T10:20:34Z</time>
      </trkpt>
      <trkpt lat="46.06709" lon="4.73467">
        <ele>180</ele>
        <time>2018-03-14T10:20:35Z</time>
      </trkpt>
      <trkpt lat="46.06712" lon="4.73471">
        <ele>180</ele>
        <time>2018-03-14T10:20:36Z</time>
      </trkpt>
      <trkpt lat="46.06717" lon="4.73479">
        <ele>180</ele>
        <time>2018-03-14T10:20:39Z</time>
      </trkpt>
      <trkpt lat="46.06718" lon="4.73481">
        <ele>180</ele>
        <time>2018-03-14T10:20:40Z</time>
      </trkpt>
      <trkpt lat="46.06722" lon="4.73488">
        <ele>180</ele>
        <time>2018-03-14T10:37:48Z</time>
      </trkpt>
      <trkpt lat="46.06722" lon="4.73488">
        <ele>180</ele>
        <time>2018-03-14T10:37:49Z</time>
      </trkpt>
      <trkpt lat="46.06723" lon="4.73488">
        <ele>180</ele>
        <time>2018-03-14T10:40:01Z</time>
      </trkpt>
      <trkpt lat="46.06723" lon="4.73488">
        <ele>180</ele>
        <time>2018-03-14T10:40:02Z</time>
      </trkpt>
      <trkpt lat="46.0673" lon="4.73495">
        <ele>180</ele>
        <time>2018-03-14T10:48:39Z</time>
      </trkpt>
      <trkpt lat="46.06731" lon="4.73497">
        <ele>180</ele>
        <time>2018-03-14T10:48:40Z</time>
      </trkpt>
      <trkpt lat="46.06736" lon="4.73504">
        <ele>180</ele>
        <time>2018-03-14T10:48:43Z</time>
      </trkpt>
      <trkpt lat="46.06738" lon="4.73507">
        <ele>180</ele>
        <time>2018-03-14T10:48:44Z</time>
      </trkpt>
      <trkpt lat="46.06742" lon="4.73514">
        <ele>180</ele>
        <time>2018-03-14T10:48:46Z</time>
      </trkpt>
      <trkpt lat="46.06748" lon="4.73525">
        <ele>180</ele>
        <time>2018-03-14T10:48:47Z</time>
      </trkpt>
      <trkpt lat="46.06754" lon="4.73534">
        <ele>179</ele>
        <time>2018-03-14T10:48:49Z</time>
      </trkpt>
      <trkpt lat="46.06759" lon="4.73538">
        <ele>179</ele>
        <time>2018-03-14T10:48:50Z</time>
      </trkpt>
      <trkpt lat="46.06762" lon="4.73544">
        <ele>179</ele>
        <time>2018-03-14T10:48:51Z</time>
      </trkpt>
      <trkpt lat="46.06765" lon="4.73549">
        <ele>179</ele>
        <time>2018-03-14T10:48:52Z</time>
      </trkpt>
      <trkpt lat="46.06769" lon="4.73558">
        <ele>180</ele>
        <time>2018-03-14T10:48:54Z</time>
      </trkpt>
      <trkpt lat="46.06772" lon="4.73565">
        <ele>180</ele>
        <time>2018-03-14T10:48:55Z</time>
      </trkpt>
      <trkpt lat="46.06775" lon="4.73571">
        <ele>180</ele>
        <time>2018-03-14T10:48:56Z</time>
      </trkpt>
      <trkpt lat="46.06779" lon="4.73578">
        <ele>180</ele>
        <time>2018-03-14T10:48:57Z</time>
      </trkpt>
      <trkpt lat="46.06782" lon="4.73583">
        <ele>179</ele>
        <time>2018-03-14T10:48:58Z</time>
      </trkpt>
      <trkpt lat="46.06786" lon="4.7359">
        <ele>179</ele>
        <time>2018-03-14T10:48:59Z</time>
      </trkpt>
      <trkpt lat="46.06791" lon="4.73596">
        <ele>179</ele>
        <time>2018-03-14T10:49:00Z</time>
      </trkpt>
      <trkpt lat="46.06795" lon="4.73602">
        <ele>179</ele>
        <time>2018-03-14T10:49:01Z</time>
      </trkpt>
      <trkpt lat="46.06799" lon="4.73611">
        <ele>178</ele>
        <time>2018-03-14T10:49:02Z</time>
      </trkpt>
      <trkpt lat="46.06804" lon="4.73616">
        <ele>178</ele>
        <time>2018-03-14T10:49:03Z</time>
      </trkpt>
      <trkpt lat="46.06808" lon="4.73621">
        <ele>178</ele>
        <time>2018-03-14T10:49:04Z</time>
      </trkpt>
      <trkpt lat="46.06812" lon="4.73626">
        <ele>178</ele>
        <time>2018-03-14T10:49:05Z</time>
      </trkpt>
      <trkpt lat="46.06817" lon="4.73629">
        <ele>178</ele>
        <time>2018-03-14T10:49:06Z</time>
      </trkpt>
      <trkpt lat="46.06821" lon="4.73635">
        <ele>178</ele>
        <time>2018-03-14T10:49:07Z</time>
      </trkpt>
      <trkpt lat="46.06826" lon="4.73639">
        <ele>177</ele>
        <time>2018-03-14T10:49:08Z</time>
      </trkpt>
      <trkpt lat="46.0683" lon="4.73645">
        <ele>177</ele>
        <time>2018-03-14T10:49:09Z</time>
      </trkpt>
      <trkpt lat="46.06834" lon="4.7365">
        <ele>176</ele>
        <time>2018-03-14T10:49:10Z</time>
      </trkpt>
      <trkpt lat="46.06839" lon="4.73656">
        <ele>176</ele>
        <time>2018-03-14T10:49:11Z</time>
      </trkpt>
      <trkpt lat="46.06843" lon="4.7366">
        <ele>176</ele>
        <time>2018-03-14T10:49:12Z</time>
      </trkpt>
      <trkpt lat="46.06847" lon="4.73666">
        <ele>176</ele>
        <time>2018-03-14T10:49:13Z</time>
      </trkpt>
      <trkpt lat="46.06852" lon="4.7367">
        <ele>176</ele>
        <time>2018-03-14T10:49:14Z</time>
      </trkpt>
      <trkpt lat="46.06857" lon="4.73675">
        <ele>176</ele>
        <time>2018-03-14T10:49:15Z</time>
      </trkpt>
      <trkpt lat="46.06861" lon="4.73679">
        <ele>176</ele>
        <time>2018-03-14T10:49:16Z</time>
      </trkpt>
      <trkpt lat="46.06866" lon="4.73684">
        <ele>176</ele>
        <time>2018-03-14T10:49:17Z</time>
      </trkpt>
      <trkpt lat="46.06871" lon="4.73689">
        <ele>176</ele>
        <time>2018-03-14T10:49:18Z</time>
      </trkpt>
      <trkpt lat="46.06875" lon="4.73694">
        <ele>176</ele>
        <time>2018-03-14T10:49:19Z</time>
      </trkpt>
      <trkpt lat="46.0688" lon="4.73698">
        <ele>176</ele>
        <time>2018-03-14T10:49:20Z</time>
      </trkpt>
      <trkpt lat="46.06884" lon="4.73704">
        <ele>176</ele>
        <time>2018-03-14T10:49:21Z</time>
      </trkpt>
      <trkpt lat="46.06889" lon="4.73709">
        <ele>176</ele>
        <time>2018-03-14T10:49:22Z</time>
      </trkpt>
      <trkpt lat="46.06893" lon="4.73714">
        <ele>176</ele>
        <time>2018-03-14T10:49:23Z</time>
      </trkpt>
      <trkpt lat="46.06896" lon="4.73721">
        <ele>176</ele>
        <time>2018-03-14T10:49:24Z</time>
      </trkpt>
      <trkpt lat="46.069" lon="4.73727">
        <ele>176</ele>
        <time>2018-03-14T10:49:25Z</time>
      </trkpt>
      <trkpt lat="46.06904" lon="4.73733">
        <ele>177</ele>
        <time>2018-03-14T10:49:26Z</time>
      </trkpt>
      <trkpt lat="46.06907" lon="4.73739">
        <ele>177</ele>
        <time>2018-03-14T10:49:27Z</time>
      </trkpt>
      <trkpt lat="46.06911" lon="4.73745">
        <ele>177</ele>
        <time>2018-03-14T10:49:28Z</time>
      </trkpt>
      <trkpt lat="46.06915" lon="4.7375">
        <ele>177</ele>
        <time>2018-03-14T10:49:29Z</time>
      </trkpt>
      <trkpt lat="46.06919" lon="4.73755">
        <ele>177</ele>
        <time>2018-03-14T10:49:30Z</time>
      </trkpt>
      <trkpt lat="46.06923" lon="4.73761">
        <ele>177</ele>
        <time>2018-03-14T10:49:31Z</time>
      </trkpt>
      <trkpt lat="46.06928" lon="4.73766">
        <ele>176</ele>
        <time>2018-03-14T10:49:32Z</time>
      </trkpt>
      <trkpt lat="46.06933" lon="4.73771">
        <ele>176</ele>
        <time>2018-03-14T10:49:33Z</time>
      </trkpt>
      <trkpt lat="46.06938" lon="4.73776">
        <ele>176</ele>
        <time>2018-03-14T10:49:34Z</time>
      </trkpt>
      <trkpt lat="46.06943" lon="4.73779">
        <ele>176</ele>
        <time>2018-03-14T10:49:35Z</time>
      </trkpt>
      <trkpt lat="46.06949" lon="4.73782">
        <ele>176</ele>
        <time>2018-03-14T10:49:36Z</time>
      </trkpt>
      <trkpt lat="46.06954" lon="4.73785">
        <ele>176</ele>
        <time>2018-03-14T10:49:37Z</time>
      </trkpt>
      <trkpt lat="46.0696" lon="4.73788">
        <ele>176</ele>
        <time>2018-03-14T10:49:38Z</time>
      </trkpt>
      <trkpt lat="46.06965" lon="4.73789">
        <ele>176</ele>
        <time>2018-03-14T10:49:39Z</time>
      </trkpt>
      <trkpt lat="46.06972" lon="4.7379">
        <ele>176</ele>
        <time>2018-03-14T10:49:40Z</time>
      </trkpt>
      <trkpt lat="46.06978" lon="4.73791">
        <ele>176</ele>
        <time>2018-03-14T10:49:41Z</time>
      </trkpt>
      <trkpt lat="46.06983" lon="4.73793">
        <ele>176</ele>
        <time>2018-03-14T10:49:42Z</time>
      </trkpt>
      <trkpt lat="46.06989" lon="4.73794">
        <ele>176</ele>
        <time>2018-03-14T10:49:43Z</time>
      </trkpt>
      <trkpt lat="46.06995" lon="4.73795">
        <ele>176</ele>
        <time>2018-03-14T10:49:44Z</time>
      </trkpt>
      <trkpt lat="46.07002" lon="4.73795">
        <ele>177</ele>
        <time>2018-03-14T10:49:45Z</time>
      </trkpt>
      <trkpt lat="46.07007" lon="4.73795">
        <ele>177</ele>
        <time>2018-03-14T10:49:46Z</time>
      </trkpt>
      <trkpt lat="46.07013" lon="4.73797">
        <ele>177</ele>
        <time>2018-03-14T10:49:47Z</time>
      </trkpt>
      <trkpt lat="46.0702" lon="4.73797">
        <ele>177</ele>
        <time>2018-03-14T10:49:48Z</time>
      </trkpt>
      <trkpt lat="46.07025" lon="4.73799">
        <ele>177</ele>
        <time>2018-03-14T10:49:49Z</time>
      </trkpt>
      <trkpt lat="46.07031" lon="4.73799">
        <ele>177</ele>
        <time>2018-03-14T10:49:50Z</time>
      </trkpt>
      <trkpt lat="46.07038" lon="4.738">
        <ele>177</ele>
        <time>2018-03-14T10:49:51Z</time>
      </trkpt>
      <trkpt lat="46.07043" lon="4.738">
        <ele>177</ele>
        <time>2018-03-14T10:49:52Z</time>
      </trkpt>
      <trkpt lat="46.0705" lon="4.73801">
        <ele>177</ele>
        <time>2018-03-14T10:49:53Z</time>
      </trkpt>
      <trkpt lat="46.07056" lon="4.73803">
        <ele>177</ele>
        <time>2018-03-14T10:49:54Z</time>
      </trkpt>
      <trkpt lat="46.07061" lon="4.73804">
        <ele>177</ele>
        <time>2018-03-14T10:49:55Z</time>
      </trkpt>
      <trkpt lat="46.07067" lon="4.73806">
        <ele>178</ele>
        <time>2018-03-14T10:49:56Z</time>
      </trkpt>
      <trkpt lat="46.07073" lon="4.73808">
        <ele>178</ele>
        <time>2018-03-14T10:49:57Z</time>
      </trkpt>
      <trkpt lat="46.07078" lon="4.73811">
        <ele>178</ele>
        <time>2018-03-14T10:49:58Z</time>
      </trkpt>
      <trkpt lat="46.07084" lon="4.73815">
        <ele>178</ele>
        <time>2018-03-14T10:49:59Z</time>
      </trkpt>
      <trkpt lat="46.07089" lon="4.73818">
        <ele>178</ele>
        <time>2018-03-14T10:50:00Z</time>
      </trkpt>
      <trkpt lat="46.07094" lon="4.73822">
        <ele>178</ele>
        <time>2018-03-14T10:50:01Z</time>
      </trkpt>
      <trkpt lat="46.07099" lon="4.73826">
        <ele>178</ele>
        <time>2018-03-14T10:50:02Z</time>
      </trkpt>
      <trkpt lat="46.07104" lon="4.7383">
        <ele>178</ele>
        <time>2018-03-14T10:50:03Z</time>
      </trkpt>
      <trkpt lat="46.07109" lon="4.73835">
        <ele>177</ele>
        <time>2018-03-14T10:50:04Z</time>
      </trkpt>
      <trkpt lat="46.07114" lon="4.7384">
        <ele>177</ele>
        <time>2018-03-14T10:50:05Z</time>
      </trkpt>
      <trkpt lat="46.07118" lon="4.73846">
        <ele>177</ele>
        <time>2018-03-14T10:50:06Z</time>
      </trkpt>
      <trkpt lat="46.07123" lon="4.73852">
        <ele>177</ele>
        <time>2018-03-14T10:50:07Z</time>
      </trkpt>
      <trkpt lat="46.07127" lon="4.73857">
        <ele>176</ele>
        <time>2018-03-14T10:50:08Z</time>
      </trkpt>
      <trkpt lat="46.07131" lon="4.73864">
        <ele>176</ele>
        <time>2018-03-14T10:50:09Z</time>
      </trkpt>
      <trkpt lat="46.07135" lon="4.7387">
        <ele>176</ele>
        <time>2018-03-14T10:50:10Z</time>
      </trkpt>
      <trkpt lat="46.07139" lon="4.73877">
        <ele>176</ele>
        <time>2018-03-14T10:50:11Z</time>
      </trkpt>
      <trkpt lat="46.07143" lon="4.73884">
        <ele>176</ele>
        <time>2018-03-14T10:50:12Z</time>
      </trkpt>
      <trkpt lat="46.07146" lon="4.73891">
        <ele>177</ele>
        <time>2018-03-14T10:50:13Z</time>
      </trkpt>
      <trkpt lat="46.0715" lon="4.73897">
        <ele>177</ele>
        <time>2018-03-14T10:50:14Z</time>
      </trkpt>
      <trkpt lat="46.07153" lon="4.73905">
        <ele>177</ele>
        <time>2018-03-14T10:50:15Z</time>
      </trkpt>
      <trkpt lat="46.07156" lon="4.73914">
        <ele>177</ele>
        <time>2018-03-14T10:50:16Z</time>
      </trkpt>
      <trkpt lat="46.07158" lon="4.73922">
        <ele>177</ele>
        <time>2018-03-14T10:50:17Z</time>
      </trkpt>
      <trkpt lat="46.07161" lon="4.73929">
        <ele>177</ele>
        <time>2018-03-14T10:50:18Z</time>
      </trkpt>
      <trkpt lat="46.07163" lon="4.73937">
        <ele>177</ele>
        <time>2018-03-14T10:50:19Z</time>
      </trkpt>
      <trkpt lat="46.07166" lon="4.73944">
        <ele>177</ele>
        <time>2018-03-14T10:50:20Z</time>
      </trkpt>
      <trkpt lat="46.07168" lon="4.73952">
        <ele>177</ele>
        <time>2018-03-14T10:50:21Z</time>
      </trkpt>
      <trkpt lat="46.07172" lon="4.7396">
        <ele>178</ele>
        <time>2018-03-14T10:50:22Z</time>
      </trkpt>
      <trkpt lat="46.07175" lon="4.73968">
        <ele>178</ele>
        <time>2018-03-14T10:50:23Z</time>
      </trkpt>
      <trkpt lat="46.07177" lon="4.73975">
        <ele>178</ele>
        <time>2018-03-14T10:50:24Z</time>
      </trkpt>
      <trkpt lat="46.07179" lon="4.73982">
        <ele>178</ele>
        <time>2018-03-14T10:50:25Z</time>
      </trkpt>
      <trkpt lat="46.07181" lon="4.73989">
        <ele>178</ele>
        <time>2018-03-14T10:50:26Z</time>
      </trkpt>
      <trkpt lat="46.07183" lon="4.73996">
        <ele>178</ele>
        <time>2018-03-14T10:50:27Z</time>
      </trkpt>
      <trkpt lat="46.07185" lon="4.74002">
        <ele>178</ele>
        <time>2018-03-14T10:50:28Z</time>
      </trkpt>
      <trkpt lat="46.07187" lon="4.74008">
        <ele>178</ele>
        <time>2018-03-14T10:50:29Z</time>
      </trkpt>
      <trkpt lat="46.07189" lon="4.74013">
        <ele>178</ele>
        <time>2018-03-14T10:50:30Z</time>
      </trkpt>
      <trkpt lat="46.07192" lon="4.74019">
        <ele>178</ele>
        <time>2018-03-14T10:50:31Z</time>
      </trkpt>
      <trkpt lat="46.07195" lon="4.7403">
        <ele>178</ele>
        <time>2018-03-14T10:50:33Z</time>
      </trkpt>
      <trkpt lat="46.07196" lon="4.74034">
        <ele>178</ele>
        <time>2018-03-14T10:50:34Z</time>
      </trkpt>
      <trkpt lat="46.07199" lon="4.74043">
        <ele>178</ele>
        <time>2018-03-14T10:50:37Z</time>
      </trkpt>
      <trkpt lat="46.07202" lon="4.74052">
        <ele>178</ele>
        <time>2018-03-14T10:50:38Z</time>
      </trkpt>
      <trkpt lat="46.07204" lon="4.74059">
        <ele>178</ele>
        <time>2018-03-14T10:50:40Z</time>
      </trkpt>
      <trkpt lat="46.07207" lon="4.74066">
        <ele>178</ele>
        <time>2018-03-14T10:50:41Z</time>
      </trkpt>
      <trkpt lat="46.0721" lon="4.74075">
        <ele>177</ele>
        <time>2018-03-14T10:50:43Z</time>
      </trkpt>
      <trkpt lat="46.07211" lon="4.74078">
        <ele>177</ele>
        <time>2018-03-14T10:50:44Z</time>
      </trkpt>
      <trkpt lat="46.07215" lon="4.74089">
        <ele>177</ele>
        <time>2018-03-14T10:50:46Z</time>
      </trkpt>
      <trkpt lat="46.07216" lon="4.74095">
        <ele>177</ele>
        <time>2018-03-14T10:50:47Z</time>
      </trkpt>
      <trkpt lat="46.0722" lon="4.74106">
        <ele>177</ele>
        <time>2018-03-14T10:50:49Z</time>
      </trkpt>
      <trkpt lat="46.07222" lon="4.74111">
        <ele>177</ele>
        <time>2018-03-14T10:50:50Z</time>
      </trkpt>
      <trkpt lat="46.07224" lon="4.74117">
        <ele>177</ele>
        <time>2018-03-14T10:50:51Z</time>
      </trkpt>
      <trkpt lat="46.07226" lon="4.74123">
        <ele>177</ele>
        <time>2018-03-14T10:50:52Z</time>
      </trkpt>
      <trkpt lat="46.07228" lon="4.74128">
        <ele>177</ele>
        <time>2018-03-14T10:50:53Z</time>
      </trkpt>
      <trkpt lat="46.07231" lon="4.74134">
        <ele>177</ele>
        <time>2018-03-14T10:50:54Z</time>
      </trkpt>
      <trkpt lat="46.07233" lon="4.74143">
        <ele>177</ele>
        <time>2018-03-14T10:50:55Z</time>
      </trkpt>
      <trkpt lat="46.07235" lon="4.7415">
        <ele>177</ele>
        <time>2018-03-14T10:50:56Z</time>
      </trkpt>
      <trkpt lat="46.07237" lon="4.74156">
        <ele>177</ele>
        <time>2018-03-14T10:50:57Z</time>
      </trkpt>
      <trkpt lat="46.0724" lon="4.74163">
        <ele>177</ele>
        <time>2018-03-14T10:50:58Z</time>
      </trkpt>
      <trkpt lat="46.07244" lon="4.74171">
        <ele>177</ele>
        <time>2018-03-14T10:50:59Z</time>
      </trkpt>
      <trkpt lat="46.07246" lon="4.74179">
        <ele>176</ele>
        <time>2018-03-14T10:51:00Z</time>
      </trkpt>
      <trkpt lat="46.07248" lon="4.74186">
        <ele>176</ele>
        <time>2018-03-14T10:51:01Z</time>
      </trkpt>
      <trkpt lat="46.07251" lon="4.74194">
        <ele>176</ele>
        <time>2018-03-14T10:51:02Z</time>
      </trkpt>
      <trkpt lat="46.07254" lon="4.74203">
        <ele>176</ele>
        <time>2018-03-14T10:51:03Z</time>
      </trkpt>
      <trkpt lat="46.07257" lon="4.7421">
        <ele>176</ele>
        <time>2018-03-14T10:51:04Z</time>
      </trkpt>
      <trkpt lat="46.07259" lon="4.74219">
        <ele>176</ele>
        <time>2018-03-14T10:51:05Z</time>
      </trkpt>
      <trkpt lat="46.07262" lon="4.74229">
        <ele>176</ele>
        <time>2018-03-14T10:51:06Z</time>
      </trkpt>
      <trkpt lat="46.07265" lon="4.7424">
        <ele>175</ele>
        <time>2018-03-14T10:51:07Z</time>
      </trkpt>
      <trkpt lat="46.07269" lon="4.74251">
        <ele>175</ele>
        <time>2018-03-14T10:51:08Z</time>
      </trkpt>
      <trkpt lat="46.07273" lon="4.74262">
        <ele>175</ele>
        <time>2018-03-14T10:51:09Z</time>
      </trkpt>
      <trkpt lat="46.07275" lon="4.74273">
        <ele>175</ele>
        <time>2018-03-14T10:51:10Z</time>
      </trkpt>
      <trkpt lat="46.07278" lon="4.74284">
        <ele>174</ele>
        <time>2018-03-14T10:51:11Z</time>
      </trkpt>
      <trkpt lat="46.07281" lon="4.74295">
        <ele>174</ele>
        <time>2018-03-14T10:51:12Z</time>
      </trkpt>
      <trkpt lat="46.07284" lon="4.74308">
        <ele>174</ele>
        <time>2018-03-14T10:51:13Z</time>
      </trkpt>
      <trkpt lat="46.07287" lon="4.74319">
        <ele>174</ele>
        <time>2018-03-14T10:51:14Z</time>
      </trkpt>
      <trkpt lat="46.07289" lon="4.74331">
        <ele>174</ele>
        <time>2018-03-14T10:51:15Z</time>
      </trkpt>
      <trkpt lat="46.07291" lon="4.74342">
        <ele>174</ele>
        <time>2018-03-14T10:51:16Z</time>
      </trkpt>
      <trkpt lat="46.07292" lon="4.74354">
        <ele>174</ele>
        <time>2018-03-14T10:51:17Z</time>
      </trkpt>
      <trkpt lat="46.07294" lon="4.74364">
        <ele>174</ele>
        <time>2018-03-14T10:51:18Z</time>
      </trkpt>
      <trkpt lat="46.07296" lon="4.74375">
        <ele>174</ele>
        <time>2018-03-14T10:51:19Z</time>
      </trkpt>
      <trkpt lat="46.07298" lon="4.74387">
        <ele>174</ele>
        <time>2018-03-14T10:51:20Z</time>
      </trkpt>
      <trkpt lat="46.07302" lon="4.74403">
        <ele>174</ele>
        <time>2018-03-14T10:51:21Z</time>
      </trkpt>
      <trkpt lat="46.07303" lon="4.74412">
        <ele>174</ele>
        <time>2018-03-14T10:51:22Z</time>
      </trkpt>
      <trkpt lat="46.07303" lon="4.74422">
        <ele>175</ele>
        <time>2018-03-14T10:51:23Z</time>
      </trkpt>
      <trkpt lat="46.07303" lon="4.74428">
        <ele>175</ele>
        <time>2018-03-14T10:51:24Z</time>
      </trkpt>
      <trkpt lat="46.07304" lon="4.74437">
        <ele>175</ele>
        <time>2018-03-14T10:51:25Z</time>
      </trkpt>
      <trkpt lat="46.07306" lon="4.74446">
        <ele>175</ele>
        <time>2018-03-14T10:51:26Z</time>
      </trkpt>
      <trkpt lat="46.07308" lon="4.74453">
        <ele>175</ele>
        <time>2018-03-14T10:51:27Z</time>
      </trkpt>
      <trkpt lat="46.07311" lon="4.74461">
        <ele>175</ele>
        <time>2018-03-14T10:51:28Z</time>
      </trkpt>
      <trkpt lat="46.07313" lon="4.74468">
        <ele>175</ele>
        <time>2018-03-14T10:51:29Z</time>
      </trkpt>
      <trkpt lat="46.07315" lon="4.74477">
        <ele>175</ele>
        <time>2018-03-14T10:51:30Z</time>
      </trkpt>
      <trkpt lat="46.07318" lon="4.74485">
        <ele>175</ele>
        <time>2018-03-14T10:51:31Z</time>
      </trkpt>
      <trkpt lat="46.0732" lon="4.74494">
        <ele>175</ele>
        <time>2018-03-14T10:51:32Z</time>
      </trkpt>
      <trkpt lat="46.07324" lon="4.74502">
        <ele>176</ele>
        <time>2018-03-14T10:51:33Z</time>
      </trkpt>
      <trkpt lat="46.07327" lon="4.74509">
        <ele>176</ele>
        <time>2018-03-14T10:51:34Z</time>
      </trkpt>
      <trkpt lat="46.07332" lon="4.74516">
        <ele>176</ele>
        <time>2018-03-14T10:51:35Z</time>
      </trkpt>
      <trkpt lat="46.07338" lon="4.74521">
        <ele>175</ele>
        <time>2018-03-14T10:51:36Z</time>
      </trkpt>
      <trkpt lat="46.07343" lon="4.74529">
        <ele>175</ele>
        <time>2018-03-14T10:51:37Z</time>
      </trkpt>
      <trkpt lat="46.07347" lon="4.74534">
        <ele>175</ele>
        <time>2018-03-14T10:51:38Z</time>
      </trkpt>
      <trkpt lat="46.07352" lon="4.74541">
        <ele>175</ele>
        <time>2018-03-14T10:51:39Z</time>
      </trkpt>
      <trkpt lat="46.07357" lon="4.74548">
        <ele>175</ele>
        <time>2018-03-14T10:51:40Z</time>
      </trkpt>
      <trkpt lat="46.07362" lon="4.74556">
        <ele>175</ele>
        <time>2018-03-14T10:51:41Z</time>
      </trkpt>
      <trkpt lat="46.07367" lon="4.74564">
        <ele>175</ele>
        <time>2018-03-14T10:51:42Z</time>
      </trkpt>
      <trkpt lat="46.07371" lon="4.74572">
        <ele>175</ele>
        <time>2018-03-14T10:51:43Z</time>
      </trkpt>
      <trkpt lat="46.07375" lon="4.74579">
        <ele>175</ele>
        <time>2018-03-14T10:51:44Z</time>
      </trkpt>
      <trkpt lat="46.07378" lon="4.74588">
        <ele>174</ele>
        <time>2018-03-14T10:51:45Z</time>
      </trkpt>
      <trkpt lat="46.07381" lon="4.74596">
        <ele>174</ele>
        <time>2018-03-14T10:51:46Z</time>
      </trkpt>
      <trkpt lat="46.07386" lon="4.74602">
        <ele>174</ele>
        <time>2018-03-14T10:51:47Z</time>
      </trkpt>
      <trkpt lat="46.07388" lon="4.7461">
        <ele>174</ele>
        <time>2018-03-14T10:51:48Z</time>
      </trkpt>
      <trkpt lat="46.07391" lon="4.74617">
        <ele>174</ele>
        <time>2018-03-14T10:51:49Z</time>
      </trkpt>
      <trkpt lat="46.07395" lon="4.74625">
        <ele>174</ele>
        <time>2018-03-14T10:51:50Z</time>
      </trkpt>
      <trkpt lat="46.07399" lon="4.74635">
        <ele>174</ele>
        <time>2018-03-14T10:51:51Z</time>
      </trkpt>
      <trkpt lat="46.07402" lon="4.74642">
        <ele>173</ele>
        <time>2018-03-14T10:51:52Z</time>
      </trkpt>
      <trkpt lat="46.07406" lon="4.7465">
        <ele>173</ele>
        <time>2018-03-14T10:51:53Z</time>
      </trkpt>
      <trkpt lat="46.0741" lon="4.74657">
        <ele>173</ele>
        <time>2018-03-14T10:51:54Z</time>
      </trkpt>
      <trkpt lat="46.07414" lon="4.74667">
        <ele>172</ele>
        <time>2018-03-14T10:51:55Z</time>
      </trkpt>
      <trkpt lat="46.07417" lon="4.74677">
        <ele>172</ele>
        <time>2018-03-14T10:51:56Z</time>
      </trkpt>
      <trkpt lat="46.07421" lon="4.74682">
        <ele>172</ele>
        <time>2018-03-14T10:51:57Z</time>
      </trkpt>
      <trkpt lat="46.07424" lon="4.74689">
        <ele>173</ele>
        <time>2018-03-14T10:51:58Z</time>
      </trkpt>
      <trkpt lat="46.07428" lon="4.74696">
        <ele>173</ele>
        <time>2018-03-14T10:51:59Z</time>
      </trkpt>
      <trkpt lat="46.07433" lon="4.74704">
        <ele>173</ele>
        <time>2018-03-14T10:52:00Z</time>
      </trkpt>
      <trkpt lat="46.07436" lon="4.74711">
        <ele>173</ele>
        <time>2018-03-14T10:52:01Z</time>
      </trkpt>
      <trkpt lat="46.07441" lon="4.74719">
        <ele>173</ele>
        <time>2018-03-14T10:52:02Z</time>
      </trkpt>
      <trkpt lat="46.07445" lon="4.74726">
        <ele>173</ele>
        <time>2018-03-14T10:52:03Z</time>
      </trkpt>
      <trkpt lat="46.07449" lon="4.74734">
        <ele>173</ele>
        <time>2018-03-14T10:52:04Z</time>
      </trkpt>
      <trkpt lat="46.07453" lon="4.74741">
        <ele>173</ele>
        <time>2018-03-14T10:52:05Z</time>
      </trkpt>
      <trkpt lat="46.07457" lon="4.74747">
        <ele>173</ele>
        <time>2018-03-14T10:52:06Z</time>
      </trkpt>
      <trkpt lat="46.07461" lon="4.74753">
        <ele>173</ele>
        <time>2018-03-14T10:52:07Z</time>
      </trkpt>
      <trkpt lat="46.07465" lon="4.74759">
        <ele>173</ele>
        <time>2018-03-14T10:52:08Z</time>
      </trkpt>
      <trkpt lat="46.0747" lon="4.74765">
        <ele>173</ele>
        <time>2018-03-14T10:52:09Z</time>
      </trkpt>
      <trkpt lat="46.07474" lon="4.74772">
        <ele>173</ele>
        <time>2018-03-14T10:52:10Z</time>
      </trkpt>
      <trkpt lat="46.0748" lon="4.74775">
        <ele>173</ele>
        <time>2018-03-14T10:52:11Z</time>
      </trkpt>
      <trkpt lat="46.07485" lon="4.74778">
        <ele>173</ele>
        <time>2018-03-14T10:52:12Z</time>
      </trkpt>
      <trkpt lat="46.0749" lon="4.74783">
        <ele>173</ele>
        <time>2018-03-14T10:52:13Z</time>
      </trkpt>
      <trkpt lat="46.07494" lon="4.74788">
        <ele>173</ele>
        <time>2018-03-14T10:52:14Z</time>
      </trkpt>
      <trkpt lat="46.07499" lon="4.74792">
        <ele>173</ele>
        <time>2018-03-14T10:52:15Z</time>
      </trkpt>
      <trkpt lat="46.07504" lon="4.74797">
        <ele>172</ele>
        <time>2018-03-14T10:52:16Z</time>
      </trkpt>
      <trkpt lat="46.0751" lon="4.74801">
        <ele>172</ele>
        <time>2018-03-14T10:52:17Z</time>
      </trkpt>
      <trkpt lat="46.07515" lon="4.74804">
        <ele>172</ele>
        <time>2018-03-14T10:52:18Z</time>
      </trkpt>
      <trkpt lat="46.07521" lon="4.74808">
        <ele>172</ele>
        <time>2018-03-14T10:52:19Z</time>
      </trkpt>
      <trkpt lat="46.07526" lon="4.74813">
        <ele>172</ele>
        <time>2018-03-14T10:52:20Z</time>
      </trkpt>
      <trkpt lat="46.07531" lon="4.74818">
        <ele>172</ele>
        <time>2018-03-14T10:52:21Z</time>
      </trkpt>
      <trkpt lat="46.07537" lon="4.74822">
        <ele>172</ele>
        <time>2018-03-14T10:52:22Z</time>
      </trkpt>
      <trkpt lat="46.07542" lon="4.74827">
        <ele>172</ele>
        <time>2018-03-14T10:52:23Z</time>
      </trkpt>
      <trkpt lat="46.07547" lon="4.74831">
        <ele>172</ele>
        <time>2018-03-14T10:52:24Z</time>
      </trkpt>
      <trkpt lat="46.07552" lon="4.74836">
        <ele>171</ele>
        <time>2018-03-14T10:52:25Z</time>
      </trkpt>
      <trkpt lat="46.07557" lon="4.7484">
        <ele>171</ele>
        <time>2018-03-14T10:52:26Z</time>
      </trkpt>
      <trkpt lat="46.07563" lon="4.74844">
        <ele>171</ele>
        <time>2018-03-14T10:52:27Z</time>
      </trkpt>
      <trkpt lat="46.07568" lon="4.74849">
        <ele>171</ele>
        <time>2018-03-14T10:52:28Z</time>
      </trkpt>
      <trkpt lat="46.07574" lon="4.74853">
        <ele>171</ele>
        <time>2018-03-14T10:52:29Z</time>
      </trkpt>
      <trkpt lat="46.07579" lon="4.74857">
        <ele>171</ele>
        <time>2018-03-14T10:52:30Z</time>
      </trkpt>
      <trkpt lat="46.07584" lon="4.74861">
        <ele>171</ele>
        <time>2018-03-14T10:52:31Z</time>
      </trkpt>
      <trkpt lat="46.0759" lon="4.74865">
        <ele>171</ele>
        <time>2018-03-14T10:52:32Z</time>
      </trkpt>
      <trkpt lat="46.07595" lon="4.74869">
        <ele>171</ele>
        <time>2018-03-14T10:52:33Z</time>
      </trkpt>
      <trkpt lat="46.07601" lon="4.74873">
        <ele>171</ele>
        <time>2018-03-14T10:52:34Z</time>
      </trkpt>
      <trkpt lat="46.07607" lon="4.74878">
        <ele>171</ele>
        <time>2018-03-14T10:52:35Z</time>
      </trkpt>
      <trkpt lat="46.07613" lon="4.74882">
        <ele>171</ele>
        <time>2018-03-14T10:52:36Z</time>
      </trkpt>
      <trkpt lat="46.07618" lon="4.74887">
        <ele>171</ele>
        <time>2018-03-14T10:52:37Z</time>
      </trkpt>
      <trkpt lat="46.07624" lon="4.74891">
        <ele>171</ele>
        <time>2018-03-14T10:52:38Z</time>
      </trkpt>
      <trkpt lat="46.07629" lon="4.74895">
        <ele>171</ele>
        <time>2018-03-14T10:52:39Z</time>
      </trkpt>
      <trkpt lat="46.07634" lon="4.74899">
        <ele>171</ele>
        <time>2018-03-14T10:52:40Z</time>
      </trkpt>
      <trkpt lat="46.0764" lon="4.74904">
        <ele>171</ele>
        <time>2018-03-14T10:52:41Z</time>
      </trkpt>
      <trkpt lat="46.07645" lon="4.74908">
        <ele>171</ele>
        <time>2018-03-14T10:52:42Z</time>
      </trkpt>
      <trkpt lat="46.0765" lon="4.74912">
        <ele>171</ele>
        <time>2018-03-14T10:52:43Z</time>
      </trkpt>
      <trkpt lat="46.07655" lon="4.74917">
        <ele>172</ele>
        <time>2018-03-14T10:52:44Z</time>
      </trkpt>
      <trkpt lat="46.0766" lon="4.74921">
        <ele>172</ele>
        <time>2018-03-14T10:52:45Z</time>
      </trkpt>
      <trkpt lat="46.07665" lon="4.74925">
        <ele>172</ele>
        <time>2018-03-14T10:52:46Z</time>
      </trkpt>
      <trkpt lat="46.0767" lon="4.74929">
        <ele>172</ele>
        <time>2018-03-14T10:52:47Z</time>
      </trkpt>
      <trkpt lat="46.07674" lon="4.74934">
        <ele>172</ele>
        <time>2018-03-14T10:52:48Z</time>
      </trkpt>
      <trkpt lat="46.07679" lon="4.74939">
        <ele>172</ele>
        <time>2018-03-14T10:52:49Z</time>
      </trkpt>
      <trkpt lat="46.07686" lon="4.74942">
        <ele>172</ele>
        <time>2018-03-14T10:52:50Z</time>
      </trkpt>
      <trkpt lat="46.0769" lon="4.74947">
        <ele>172</ele>
        <time>2018-03-14T10:52:51Z</time>
      </trkpt>
      <trkpt lat="46.07695" lon="4.7495">
        <ele>172</ele>
        <time>2018-03-14T10:52:52Z</time>
      </trkpt>
      <trkpt lat="46.077" lon="4.74954">
        <ele>172</ele>
        <time>2018-03-14T10:52:53Z</time>
      </trkpt>
      <trkpt lat="46.07704" lon="4.74957">
        <ele>172</ele>
        <time>2018-03-14T10:52:54Z</time>
      </trkpt>
      <trkpt lat="46.0771" lon="4.74961">
        <ele>172</ele>
        <time>2018-03-14T10:52:55Z</time>
      </trkpt>
      <trkpt lat="46.07715" lon="4.74966">
        <ele>172</ele>
        <time>2018-03-14T10:52:56Z</time>
      </trkpt>
      <trkpt lat="46.0772" lon="4.74971">
        <ele>172</ele>
        <time>2018-03-14T10:52:57Z</time>
      </trkpt>
      <trkpt lat="46.07725" lon="4.74976">
        <ele>172</ele>
        <time>2018-03-14T10:52:58Z</time>
      </trkpt>
      <trkpt lat="46.07731" lon="4.7498">
        <ele>172</ele>
        <time>2018-03-14T10:52:59Z</time>
      </trkpt>
      <trkpt lat="46.07736" lon="4.74984">
        <ele>173</ele>
        <time>2018-03-14T10:53:00Z</time>
      </trkpt>
      <trkpt lat="46.07742" lon="4.74989">
        <ele>173</ele>
        <time>2018-03-14T10:53:01Z</time>
      </trkpt>
      <trkpt lat="46.07748" lon="4.74992">
        <ele>173</ele>
        <time>2018-03-14T10:53:02Z</time>
      </trkpt>
      <trkpt lat="46.07753" lon="4.74996">
        <ele>173</ele>
        <time>2018-03-14T10:53:03Z</time>
      </trkpt>
      <trkpt lat="46.07758" lon="4.75">
        <ele>173</ele>
        <time>2018-03-14T10:53:04Z</time>
      </trkpt>
      <trkpt lat="46.07763" lon="4.75006">
        <ele>172</ele>
        <time>2018-03-14T10:53:05Z</time>
      </trkpt>
      <trkpt lat="46.07769" lon="4.75009">
        <ele>172</ele>
        <time>2018-03-14T10:53:06Z</time>
      </trkpt>
      <trkpt lat="46.07774" lon="4.75012">
        <ele>172</ele>
        <time>2018-03-14T10:53:07Z</time>
      </trkpt>
      <trkpt lat="46.07779" lon="4.75017">
        <ele>172</ele>
        <time>2018-03-14T10:53:08Z</time>
      </trkpt>
      <trkpt lat="46.07784" lon="4.75021">
        <ele>172</ele>
        <time>2018-03-14T10:53:09Z</time>
      </trkpt>
      <trkpt lat="46.07789" lon="4.75025">
        <ele>172</ele>
        <time>2018-03-14T10:53:10Z</time>
      </trkpt>
      <trkpt lat="46.07794" lon="4.7503">
        <ele>171</ele>
        <time>2018-03-14T10:53:11Z</time>
      </trkpt>
      <trkpt lat="46.078" lon="4.75034">
        <ele>171</ele>
        <time>2018-03-14T10:53:12Z</time>
      </trkpt>
      <trkpt lat="46.07805" lon="4.75039">
        <ele>171</ele>
        <time>2018-03-14T10:53:13Z</time>
      </trkpt>
      <trkpt lat="46.0781" lon="4.75043">
        <ele>171</ele>
        <time>2018-03-14T10:53:14Z</time>
      </trkpt>
      <trkpt lat="46.07815" lon="4.75048">
        <ele>171</ele>
        <time>2018-03-14T10:53:15Z</time>
      </trkpt>
      <trkpt lat="46.07819" lon="4.75052">
        <ele>171</ele>
        <time>2018-03-14T10:53:16Z</time>
      </trkpt>
      <trkpt lat="46.07823" lon="4.75056">
        <ele>171</ele>
        <time>2018-03-14T10:53:17Z</time>
      </trkpt>
      <trkpt lat="46.07828" lon="4.75061">
        <ele>171</ele>
        <time>2018-03-14T10:53:18Z</time>
      </trkpt>
      <trkpt lat="46.07832" lon="4.75066">
        <ele>171</ele>
        <time>2018-03-14T10:53:19Z</time>
      </trkpt>
      <trkpt lat="46.07836" lon="4.75072">
        <ele>171</ele>
        <time>2018-03-14T10:53:20Z</time>
      </trkpt>
      <trkpt lat="46.0784" lon="4.75077">
        <ele>171</ele>
        <time>2018-03-14T10:53:21Z</time>
      </trkpt>
      <trkpt lat="46.07845" lon="4.75084">
        <ele>171</ele>
        <time>2018-03-14T10:53:22Z</time>
      </trkpt>
      <trkpt lat="46.07849" lon="4.7509">
        <ele>171</ele>
        <time>2018-03-14T10:53:23Z</time>
      </trkpt>
      <trkpt lat="46.07853" lon="4.75096">
        <ele>171</ele>
        <time>2018-03-14T10:53:24Z</time>
      </trkpt>
      <trkpt lat="46.07856" lon="4.75102">
        <ele>171</ele>
        <time>2018-03-14T10:53:25Z</time>
      </trkpt>
      <trkpt lat="46.0786" lon="4.75108">
        <ele>171</ele>
        <time>2018-03-14T10:53:26Z</time>
      </trkpt>
      <trkpt lat="46.07863" lon="4.75114">
        <ele>171</ele>
        <time>2018-03-14T10:53:27Z</time>
      </trkpt>
      <trkpt lat="46.07867" lon="4.7512">
        <ele>171</ele>
        <time>2018-03-14T10:53:28Z</time>
      </trkpt>
      <trkpt lat="46.07871" lon="4.75127">
        <ele>171</ele>
        <time>2018-03-14T10:53:29Z</time>
      </trkpt>
      <trkpt lat="46.07874" lon="4.75133">
        <ele>171</ele>
        <time>2018-03-14T10:53:30Z</time>
      </trkpt>
      <trkpt lat="46.07878" lon="4.7514">
        <ele>171</ele>
        <time>2018-03-14T10:53:31Z</time>
      </trkpt>
      <trkpt lat="46.07881" lon="4.75146">
        <ele>171</ele>
        <time>2018-03-14T10:53:32Z</time>
      </trkpt>
      <trkpt lat="46.07885" lon="4.75151">
        <ele>171</ele>
        <time>2018-03-14T10:53:33Z</time>
      </trkpt>
      <trkpt lat="46.07889" lon="4.75157">
        <ele>171</ele>
        <time>2018-03-14T10:53:34Z</time>
      </trkpt>
      <trkpt lat="46.07892" lon="4.75163">
        <ele>171</ele>
        <time>2018-03-14T10:53:35Z</time>
      </trkpt>
      <trkpt lat="46.07896" lon="4.7517">
        <ele>171</ele>
        <time>2018-03-14T10:53:36Z</time>
      </trkpt>
      <trkpt lat="46.079" lon="4.75176">
        <ele>171</ele>
        <time>2018-03-14T10:53:37Z</time>
      </trkpt>
      <trkpt lat="46.07903" lon="4.75183">
        <ele>171</ele>
        <time>2018-03-14T10:53:38Z</time>
      </trkpt>
      <trkpt lat="46.07907" lon="4.7519">
        <ele>171</ele>
        <time>2018-03-14T10:53:39Z</time>
      </trkpt>
      <trkpt lat="46.0791" lon="4.75197">
        <ele>171</ele>
        <time>2018-03-14T10:53:40Z</time>
      </trkpt>
      <trkpt lat="46.07914" lon="4.75204">
        <ele>171</ele>
        <time>2018-03-14T10:53:41Z</time>
      </trkpt>
      <trkpt lat="46.07917" lon="4.75211">
        <ele>171</ele>
        <time>2018-03-14T10:53:42Z</time>
      </trkpt>
      <trkpt lat="46.0792" lon="4.75218">
        <ele>171</ele>
        <time>2018-03-14T10:53:43Z</time>
      </trkpt>
      <trkpt lat="46.07923" lon="4.75224">
        <ele>171</ele>
        <time>2018-03-14T10:53:44Z</time>
      </trkpt>
      <trkpt lat="46.07926" lon="4.75233">
        <ele>170</ele>
        <time>2018-03-14T10:53:45Z</time>
      </trkpt>
      <trkpt lat="46.07929" lon="4.7524">
        <ele>170</ele>
        <time>2018-03-14T10:53:46Z</time>
      </trkpt>
      <trkpt lat="46.07932" lon="4.75246">
        <ele>170</ele>
        <time>2018-03-14T10:53:47Z</time>
      </trkpt>
      <trkpt lat="46.07935" lon="4.75253">
        <ele>170</ele>
        <time>2018-03-14T10:53:48Z</time>
      </trkpt>
      <trkpt lat="46.07939" lon="4.75261">
        <ele>170</ele>
        <time>2018-03-14T10:53:49Z</time>
      </trkpt>
      <trkpt lat="46.07943" lon="4.75266">
        <ele>169</ele>
        <time>2018-03-14T10:53:50Z</time>
      </trkpt>
      <trkpt lat="46.07946" lon="4.75275">
        <ele>169</ele>
        <time>2018-03-14T10:53:51Z</time>
      </trkpt>
      <trkpt lat="46.0795" lon="4.75281">
        <ele>169</ele>
        <time>2018-03-14T10:53:52Z</time>
      </trkpt>
      <trkpt lat="46.07953" lon="4.75289">
        <ele>169</ele>
        <time>2018-03-14T10:53:53Z</time>
      </trkpt>
      <trkpt lat="46.07956" lon="4.75298">
        <ele>169</ele>
        <time>2018-03-14T10:53:54Z</time>
      </trkpt>
      <trkpt lat="46.07959" lon="4.75306">
        <ele>169</ele>
        <time>2018-03-14T10:53:55Z</time>
      </trkpt>
      <trkpt lat="46.07963" lon="4.75312">
        <ele>169</ele>
        <time>2018-03-14T10:53:56Z</time>
      </trkpt>
      <trkpt lat="46.07966" lon="4.75319">
        <ele>169</ele>
        <time>2018-03-14T10:53:57Z</time>
      </trkpt>
      <trkpt lat="46.07969" lon="4.75326">
        <ele>169</ele>
        <time>2018-03-14T10:53:58Z</time>
      </trkpt>
      <trkpt lat="46.07973" lon="4.75333">
        <ele>169</ele>
        <time>2018-03-14T10:53:59Z</time>
      </trkpt>
      <trkpt lat="46.07976" lon="4.7534">
        <ele>168</ele>
        <time>2018-03-14T10:54:00Z</time>
      </trkpt>
      <trkpt lat="46.0798" lon="4.75345">
        <ele>168</ele>
        <time>2018-03-14T10:54:01Z</time>
      </trkpt>
      <trkpt lat="46.07983" lon="4.75353">
        <ele>168</ele>
        <time>2018-03-14T10:54:02Z</time>
      </trkpt>
      <trkpt lat="46.07986" lon="4.75359">
        <ele>168</ele>
        <time>2018-03-14T10:54:03Z</time>
      </trkpt>
      <trkpt lat="46.07989" lon="4.75364">
        <ele>168</ele>
        <time>2018-03-14T10:54:04Z</time>
      </trkpt>
      <trkpt lat="46.07992" lon="4.75369">
        <ele>168</ele>
        <time>2018-03-14T10:54:05Z</time>
      </trkpt>
      <trkpt lat="46.07995" lon="4.75376">
        <ele>168</ele>
        <time>2018-03-14T10:54:06Z</time>
      </trkpt>
      <trkpt lat="46.07997" lon="4.75381">
        <ele>168</ele>
        <time>2018-03-14T10:54:07Z</time>
      </trkpt>
      <trkpt lat="46.08" lon="4.75387">
        <ele>167</ele>
        <time>2018-03-14T10:54:08Z</time>
      </trkpt>
      <trkpt lat="46.08001" lon="4.75394">
        <ele>167</ele>
        <time>2018-03-14T10:54:09Z</time>
      </trkpt>
      <trkpt lat="46.08005" lon="4.75402">
        <ele>166</ele>
        <time>2018-03-14T10:54:12Z</time>
      </trkpt>
      <trkpt lat="46.08006" lon="4.75409">
        <ele>166</ele>
        <time>2018-03-14T10:54:13Z</time>
      </trkpt>
      <trkpt lat="46.08012" lon="4.75418">
        <ele>166</ele>
        <time>2018-03-14T10:54:15Z</time>
      </trkpt>
      <trkpt lat="46.08013" lon="4.75421">
        <ele>166</ele>
        <time>2018-03-14T10:54:16Z</time>
      </trkpt>
      <trkpt lat="46.08018" lon="4.75431">
        <ele>166</ele>
        <time>2018-03-14T10:54:19Z</time>
      </trkpt>
      <trkpt lat="46.08022" lon="4.75438">
        <ele>166</ele>
        <time>2018-03-14T10:54:20Z</time>
      </trkpt>
      <trkpt lat="46.08027" lon="4.75448">
        <ele>166</ele>
        <time>2018-03-14T10:54:23Z</time>
      </trkpt>
      <trkpt lat="46.0803" lon="4.75456">
        <ele>166</ele>
        <time>2018-03-14T10:54:24Z</time>
      </trkpt>
      <trkpt lat="46.08034" lon="4.75464">
        <ele>166</ele>
        <time>2018-03-14T10:54:27Z</time>
      </trkpt>
      <trkpt lat="46.08039" lon="4.75474">
        <ele>166</ele>
        <time>2018-03-14T10:54:28Z</time>
      </trkpt>
      <trkpt lat="46.08043" lon="4.75483">
        <ele>166</ele>
        <time>2018-03-14T10:54:30Z</time>
      </trkpt>
      <trkpt lat="46.08045" lon="4.75489">
        <ele>166</ele>
        <time>2018-03-14T10:54:31Z</time>
      </trkpt>
      <trkpt lat="46.08047" lon="4.75493">
        <ele>166</ele>
        <time>2018-03-14T10:54:33Z</time>
      </trkpt>
      <trkpt lat="46.08049" lon="4.755">
        <ele>167</ele>
        <time>2018-03-14T10:54:34Z</time>
      </trkpt>
      <trkpt lat="46.08055" lon="4.75511">
        <ele>167</ele>
        <time>2018-03-14T10:54:35Z</time>
      </trkpt>
      <trkpt lat="46.08057" lon="4.75517">
        <ele>168</ele>
        <time>2018-03-14T10:54:36Z</time>
      </trkpt>
      <trkpt lat="46.08062" lon="4.75524">
        <ele>168</ele>
        <time>2018-03-14T10:54:37Z</time>
      </trkpt>
      <trkpt lat="46.08065" lon="4.75531">
        <ele>168</ele>
        <time>2018-03-14T10:54:38Z</time>
      </trkpt>
      <trkpt lat="46.08068" lon="4.75537">
        <ele>168</ele>
        <time>2018-03-14T10:54:39Z</time>
      </trkpt>
      <trkpt lat="46.0807" lon="4.75543">
        <ele>169</ele>
        <time>2018-03-14T10:54:40Z</time>
      </trkpt>
      <trkpt lat="46.08073" lon="4.75547">
        <ele>169</ele>
        <time>2018-03-14T10:54:41Z</time>
      </trkpt>
      <trkpt lat="46.08075" lon="4.75554">
        <ele>170</ele>
        <time>2018-03-14T10:54:42Z</time>
      </trkpt>
      <trkpt lat="46.08079" lon="4.75561">
        <ele>170</ele>
        <time>2018-03-14T10:54:43Z</time>
      </trkpt>
      <trkpt lat="46.08081" lon="4.75568">
        <ele>171</ele>
        <time>2018-03-14T10:54:45Z</time>
      </trkpt>
      <trkpt lat="46.08084" lon="4.75575">
        <ele>173</ele>
        <time>2018-03-14T10:54:46Z</time>
      </trkpt>
      <trkpt lat="46.08086" lon="4.75583">
        <ele>174</ele>
        <time>2018-03-14T10:54:50Z</time>
      </trkpt>
      <trkpt lat="46.08083" lon="4.7559">
        <ele>174</ele>
        <time>2018-03-14T10:54:51Z</time>
      </trkpt>
      <trkpt lat="46.08079" lon="4.75601">
        <ele>173</ele>
        <time>2018-03-14T10:54:53Z</time>
      </trkpt>
      <trkpt lat="46.08077" lon="4.75603">
        <ele>173</ele>
        <time>2018-03-14T10:54:54Z</time>
      </trkpt>
      <trkpt lat="46.08071" lon="4.75611">
        <ele>173</ele>
        <time>2018-03-14T10:54:58Z</time>
      </trkpt>
      <trkpt lat="46.08069" lon="4.75612">
        <ele>173</ele>
        <time>2018-03-14T10:54:59Z</time>
      </trkpt>
      <trkpt lat="46.08061" lon="4.75615">
        <ele>173</ele>
        <time>2018-03-14T10:55:15Z</time>
      </trkpt>
      <trkpt lat="46.08059" lon="4.75616">
        <ele>173</ele>
        <time>2018-03-14T10:55:16Z</time>
      </trkpt>
      <trkpt lat="46.08051" lon="4.75622">
        <ele>173</ele>
        <time>2018-03-14T10:56:27Z</time>
      </trkpt>
      <trkpt lat="46.08051" lon="4.75622">
        <ele>173</ele>
        <time>2018-03-14T10:56:28Z</time>
      </trkpt>
      <trkpt lat="46.08051" lon="4.75623">
        <ele>173</ele>
        <time>2018-03-14T11:08:28Z</time>
      </trkpt>
      <trkpt lat="46.08051" lon="4.75624">
        <ele>173</ele>
        <time>2018-03-14T11:08:29Z</time>
      </trkpt>
      <trkpt lat="46.08051" lon="4.75629">
        <ele>173</ele>
        <time>2018-03-14T11:09:11Z</time>
      </trkpt>
      <trkpt lat="46.08051" lon="4.75629">
        <ele>173</ele>
        <time>2018-03-14T11:09:12Z</time>
      </trkpt>
      <trkpt lat="46.08043" lon="4.75634">
        <ele>173</ele>
        <time>2018-03-14T11:09:19Z</time>
      </trkpt>
      <trkpt lat="46.08041" lon="4.75635">
        <ele>173</ele>
        <time>2018-03-14T11:09:20Z</time>
      </trkpt>
      <trkpt lat="46.08034" lon="4.75642">
        <ele>173</ele>
        <time>2018-03-14T11:09:25Z</time>
      </trkpt>
      <trkpt lat="46.08032" lon="4.75643">
        <ele>174</ele>
        <time>2018-03-14T11:09:26Z</time>
      </trkpt>
      <trkpt lat="46.08023" lon="4.75647">
        <ele>174</ele>
        <time>2018-03-14T11:09:30Z</time>
      </trkpt>
      <trkpt lat="46.08016" lon="4.75648">
        <ele>174</ele>
        <time>2018-03-14T11:09:31Z</time>
      </trkpt>
      <trkpt lat="46.08009" lon="4.75654">
        <ele>174</ele>
        <time>2018-03-14T11:09:35Z</time>
      </trkpt>
      <trkpt lat="46.08007" lon="4.75656">
        <ele>175</ele>
        <time>2018-03-14T11:09:36Z</time>
      </trkpt>
      <trkpt lat="46.08" lon="4.75663">
        <ele>176</ele>
        <time>2018-03-14T11:09:39Z</time>
      </trkpt>
      <trkpt lat="46.07997" lon="4.75666">
        <ele>175</ele>
        <time>2018-03-14T11:09:40Z</time>
      </trkpt>
      <trkpt lat="46.07994" lon="4.75669">
        <ele>175</ele>
        <time>2018-03-14T11:09:41Z</time>
      </trkpt>
      <trkpt lat="46.07985" lon="4.75678">
        <ele>174</ele>
        <time>2018-03-14T11:09:42Z</time>
      </trkpt>
      <trkpt lat="46.07978" lon="4.75685">
        <ele>174</ele>
        <time>2018-03-14T11:09:44Z</time>
      </trkpt>
      <trkpt lat="46.07975" lon="4.75688">
        <ele>173</ele>
        <time>2018-03-14T11:09:45Z</time>
      </trkpt>
      <trkpt lat="46.07967" lon="4.75695">
        <ele>173</ele>
        <time>2018-03-14T11:09:47Z</time>
      </trkpt>
      <trkpt lat="46.07964" lon="4.75697">
        <ele>173</ele>
        <time>2018-03-14T11:09:48Z</time>
      </trkpt>
      <trkpt lat="46.07957" lon="4.75704">
        <ele>173</ele>
        <time>2018-03-14T11:09:50Z</time>
      </trkpt>
      <trkpt lat="46.07953" lon="4.75707">
        <ele>173</ele>
        <time>2018-03-14T11:09:51Z</time>
      </trkpt>
      <trkpt lat="46.07946" lon="4.75714">
        <ele>173</ele>
        <time>2018-03-14T11:09:53Z</time>
      </trkpt>
      <trkpt lat="46.07942" lon="4.75717">
        <ele>173</ele>
        <time>2018-03-14T11:09:54Z</time>
      </trkpt>
      <trkpt lat="46.07935" lon="4.75723">
        <ele>173</ele>
        <time>2018-03-14T11:09:56Z</time>
      </trkpt>
      <trkpt lat="46.07932" lon="4.75727">
        <ele>173</ele>
        <time>2018-03-14T11:09:57Z</time>
      </trkpt>
      <trkpt lat="46.07924" lon="4.75733">
        <ele>173</ele>
        <time>2018-03-14T11:09:59Z</time>
      </trkpt>
      <trkpt lat="46.0792" lon="4.75736">
        <ele>173</ele>
        <time>2018-03-14T11:10:00Z</time>
      </trkpt>
      <trkpt lat="46.07912" lon="4.75742">
        <ele>171</ele>
        <time>2018-03-14T11:10:02Z</time>
      </trkpt>
      <trkpt lat="46.07909" lon="4.75746">
        <ele>171</ele>
        <time>2018-03-14T11:10:03Z</time>
      </trkpt>
      <trkpt lat="46.07905" lon="4.7575">
        <ele>171</ele>
        <time>2018-03-14T11:10:04Z</time>
      </trkpt>
      <trkpt lat="46.07901" lon="4.75753">
        <ele>172</ele>
        <time>2018-03-14T11:10:05Z</time>
      </trkpt>
      <trkpt lat="46.07897" lon="4.75756">
        <ele>172</ele>
        <time>2018-03-14T11:10:06Z</time>
      </trkpt>
      <trkpt lat="46.07893" lon="4.75759">
        <ele>172</ele>
        <time>2018-03-14T11:10:07Z</time>
      </trkpt>
      <trkpt lat="46.07886" lon="4.75766">
        <ele>171</ele>
        <time>2018-03-14T11:10:09Z</time>
      </trkpt>
      <trkpt lat="46.07882" lon="4.7577">
        <ele>171</ele>
        <time>2018-03-14T11:10:10Z</time>
      </trkpt>
      <trkpt lat="46.07878" lon="4.75773">
        <ele>171</ele>
        <time>2018-03-14T11:10:11Z</time>
      </trkpt>
      <trkpt lat="46.07875" lon="4.75779">
        <ele>171</ele>
        <time>2018-03-14T11:10:12Z</time>
      </trkpt>
      <trkpt lat="46.07869" lon="4.75787">
        <ele>171</ele>
        <time>2018-03-14T11:10:14Z</time>
      </trkpt>
      <trkpt lat="46.07865" lon="4.7579">
        <ele>171</ele>
        <time>2018-03-14T11:10:15Z</time>
      </trkpt>
      <trkpt lat="46.07861" lon="4.75795">
        <ele>171</ele>
        <time>2018-03-14T11:10:16Z</time>
      </trkpt>
      <trkpt lat="46.07858" lon="4.75799">
        <ele>171</ele>
        <time>2018-03-14T11:10:17Z</time>
      </trkpt>
      <trkpt lat="46.07854" lon="4.75803">
        <ele>171</ele>
        <time>2018-03-14T11:10:18Z</time>
      </trkpt>
      <trkpt lat="46.0785" lon="4.75808">
        <ele>172</ele>
        <time>2018-03-14T11:10:19Z</time>
      </trkpt>
      <trkpt lat="46.07846" lon="4.75812">
        <ele>172</ele>
        <time>2018-03-14T11:10:20Z</time>
      </trkpt>
      <trkpt lat="46.07842" lon="4.75814">
        <ele>172</ele>
        <time>2018-03-14T11:10:21Z</time>
      </trkpt>
      <trkpt lat="46.07838" lon="4.75818">
        <ele>172</ele>
        <time>2018-03-14T11:10:22Z</time>
      </trkpt>
      <trkpt lat="46.07834" lon="4.75822">
        <ele>172</ele>
        <time>2018-03-14T11:10:23Z</time>
      </trkpt>
      <trkpt lat="46.07831" lon="4.75826">
        <ele>171</ele>
        <time>2018-03-14T11:10:24Z</time>
      </trkpt>
      <trkpt lat="46.07827" lon="4.7583">
        <ele>172</ele>
        <time>2018-03-14T11:10:25Z</time>
      </trkpt>
      <trkpt lat="46.07823" lon="4.75835">
        <ele>173</ele>
        <time>2018-03-14T11:10:26Z</time>
      </trkpt>
      <trkpt lat="46.0782" lon="4.75839">
        <ele>172</ele>
        <time>2018-03-14T11:10:27Z</time>
      </trkpt>
      <trkpt lat="46.07816" lon="4.75843">
        <ele>172</ele>
        <time>2018-03-14T11:10:28Z</time>
      </trkpt>
      <trkpt lat="46.07812" lon="4.75848">
        <ele>172</ele>
        <time>2018-03-14T11:10:29Z</time>
      </trkpt>
      <trkpt lat="46.07807" lon="4.75851">
        <ele>172</ele>
        <time>2018-03-14T11:10:30Z</time>
      </trkpt>
      <trkpt lat="46.07803" lon="4.75855">
        <ele>172</ele>
        <time>2018-03-14T11:10:31Z</time>
      </trkpt>
      <trkpt lat="46.07799" lon="4.75859">
        <ele>172</ele>
        <time>2018-03-14T11:10:32Z</time>
      </trkpt>
      <trkpt lat="46.07795" lon="4.75863">
        <ele>172</ele>
        <time>2018-03-14T11:10:33Z</time>
      </trkpt>
      <trkpt lat="46.07789" lon="4.75871">
        <ele>172</ele>
        <time>2018-03-14T11:10:35Z</time>
      </trkpt>
      <trkpt lat="46.07784" lon="4.75874">
        <ele>172</ele>
        <time>2018-03-14T11:10:36Z</time>
      </trkpt>
      <trkpt lat="46.0778" lon="4.75878">
        <ele>172</ele>
        <time>2018-03-14T11:10:37Z</time>
      </trkpt>
      <trkpt lat="46.07776" lon="4.75882">
        <ele>172</ele>
        <time>2018-03-14T11:10:38Z</time>
      </trkpt>
      <trkpt lat="46.07773" lon="4.75885">
        <ele>172</ele>
        <time>2018-03-14T11:10:39Z</time>
      </trkpt>
      <trkpt lat="46.07769" lon="4.75889">
        <ele>172</ele>
        <time>2018-03-14T11:10:40Z</time>
      </trkpt>
      <trkpt lat="46.07764" lon="4.75893">
        <ele>173</ele>
        <time>2018-03-14T11:10:41Z</time>
      </trkpt>
      <trkpt lat="46.0776" lon="4.75897">
        <ele>173</ele>
        <time>2018-03-14T11:10:42Z</time>
      </trkpt>
      <trkpt lat="46.07756" lon="4.75901">
        <ele>173</ele>
        <time>2018-03-14T11:10:43Z</time>
      </trkpt>
      <trkpt lat="46.07752" lon="4.75904">
        <ele>173</ele>
        <time>2018-03-14T11:10:44Z</time>
      </trkpt>
      <trkpt lat="46.07745" lon="4.75911">
        <ele>172</ele>
        <time>2018-03-14T11:10:46Z</time>
      </trkpt>
      <trkpt lat="46.07741" lon="4.75915">
        <ele>172</ele>
        <time>2018-03-14T11:10:47Z</time>
      </trkpt>
      <trkpt lat="46.07737" lon="4.75919">
        <ele>173</ele>
        <time>2018-03-14T11:10:48Z</time>
      </trkpt>
      <trkpt lat="46.07733" lon="4.75922">
        <ele>173</ele>
        <time>2018-03-14T11:10:49Z</time>
      </trkpt>
      <trkpt lat="46.07728" lon="4.75925">
        <ele>173</ele>
        <time>2018-03-14T11:10:50Z</time>
      </trkpt>
      <trkpt lat="46.07724" lon="4.75929">
        <ele>173</ele>
        <time>2018-03-14T11:10:51Z</time>
      </trkpt>
      <trkpt lat="46.0772" lon="4.75933">
        <ele>172</ele>
        <time>2018-03-14T11:10:52Z</time>
      </trkpt>
      <trkpt lat="46.07716" lon="4.75936">
        <ele>172</ele>
        <time>2018-03-14T11:10:53Z</time>
      </trkpt>
      <trkpt lat="46.07709" lon="4.75942">
        <ele>172</ele>
        <time>2018-03-14T11:10:55Z</time>
      </trkpt>
      <trkpt lat="46.07705" lon="4.75946">
        <ele>172</ele>
        <time>2018-03-14T11:10:56Z</time>
      </trkpt>
      <trkpt lat="46.07701" lon="4.75949">
        <ele>172</ele>
        <time>2018-03-14T11:10:57Z</time>
      </trkpt>
      <trkpt lat="46.07696" lon="4.75952">
        <ele>172</ele>
        <time>2018-03-14T11:10:58Z</time>
      </trkpt>
      <trkpt lat="46.07691" lon="4.75954">
        <ele>172</ele>
        <time>2018-03-14T11:10:59Z</time>
      </trkpt>
      <trkpt lat="46.07686" lon="4.75958">
        <ele>172</ele>
        <time>2018-03-14T11:11:00Z</time>
      </trkpt>
      <trkpt lat="46.07682" lon="4.75961">
        <ele>172</ele>
        <time>2018-03-14T11:11:01Z</time>
      </trkpt>
      <trkpt lat="46.07677" lon="4.75963">
        <ele>172</ele>
        <time>2018-03-14T11:11:02Z</time>
      </trkpt>
      <trkpt lat="46.07673" lon="4.75967">
        <ele>172</ele>
        <time>2018-03-14T11:11:03Z</time>
      </trkpt>
      <trkpt lat="46.07668" lon="4.75969">
        <ele>172</ele>
        <time>2018-03-14T11:11:04Z</time>
      </trkpt>
      <trkpt lat="46.07664" lon="4.75971">
        <ele>170</ele>
        <time>2018-03-14T11:11:05Z</time>
      </trkpt>
      <trkpt lat="46.0766" lon="4.75974">
        <ele>170</ele>
        <time>2018-03-14T11:11:06Z</time>
      </trkpt>
      <trkpt lat="46.07652" lon="4.7598">
        <ele>170</ele>
        <time>2018-03-14T11:11:08Z</time>
      </trkpt>
      <trkpt lat="46.07649" lon="4.75982">
        <ele>170</ele>
        <time>2018-03-14T11:11:09Z</time>
      </trkpt>
      <trkpt lat="46.07643" lon="4.75992">
        <ele>170</ele>
        <time>2018-03-14T11:11:11Z</time>
      </trkpt>
      <trkpt lat="46.07642" lon="4.75997">
        <ele>170</ele>
        <time>2018-03-14T11:11:12Z</time>
      </trkpt>
      <trkpt lat="46.07643" lon="4.76008">
        <ele>172</ele>
        <time>2018-03-14T11:11:14Z</time>
      </trkpt>
      <trkpt lat="46.07645" lon="4.76015">
        <ele>172</ele>
        <time>2018-03-14T11:11:15Z</time>
      </trkpt>
      <trkpt lat="46.07648" lon="4.76019">
        <ele>172</ele>
        <time>2018-03-14T11:11:17Z</time>
      </trkpt>
      <trkpt lat="46.07652" lon="4.76027">
        <ele>172</ele>
        <time>2018-03-14T11:11:18Z</time>
      </trkpt>
      <trkpt lat="46.07656" lon="4.76038">
        <ele>172</ele>
        <time>2018-03-14T11:11:20Z</time>
      </trkpt>
      <trkpt lat="46.07656" lon="4.7604">
        <ele>172</ele>
        <time>2018-03-14T11:11:21Z</time>
      </trkpt>
      <trkpt lat="46.07659" lon="4.76046">
        <ele>172</ele>
        <time>2018-03-14T11:11:22Z</time>
      </trkpt>
      <trkpt lat="46.07661" lon="4.76051">
        <ele>172</ele>
        <time>2018-03-14T11:11:23Z</time>
      </trkpt>
      <trkpt lat="46.07666" lon="4.76062">
        <ele>172</ele>
        <time>2018-03-14T11:11:25Z</time>
      </trkpt>
      <trkpt lat="46.07667" lon="4.76064">
        <ele>174</ele>
        <time>2018-03-14T11:11:26Z</time>
      </trkpt>
      <trkpt lat="46.07671" lon="4.76074">
        <ele>174</ele>
        <time>2018-03-14T11:11:28Z</time>
      </trkpt>
      <trkpt lat="46.07673" lon="4.76081">
        <ele>173</ele>
        <time>2018-03-14T11:11:29Z</time>
      </trkpt>
      <trkpt lat="46.07675" lon="4.76089">
        <ele>173</ele>
        <time>2018-03-14T11:11:32Z</time>
      </trkpt>
      <trkpt lat="46.07676" lon="4.76093">
        <ele>173</ele>
        <time>2018-03-14T11:11:33Z</time>
      </trkpt>
      <trkpt lat="46.07675" lon="4.76106">
        <ele>173</ele>
        <time>2018-03-14T11:11:36Z</time>
      </trkpt>
      <trkpt lat="46.0767" lon="4.76117">
        <ele>173</ele>
        <time>2018-03-14T11:11:37Z</time>
      </trkpt>
      <trkpt lat="46.07662" lon="4.76122">
        <ele>172</ele>
        <time>2018-03-14T11:11:39Z</time>
      </trkpt>
      <trkpt lat="46.07658" lon="4.76125">
        <ele>172</ele>
        <time>2018-03-14T11:11:40Z</time>
      </trkpt>
      <trkpt lat="46.07652" lon="4.76132">
        <ele>172</ele>
        <time>2018-03-14T11:11:42Z</time>
      </trkpt>
      <trkpt lat="46.07648" lon="4.76136">
        <ele>172</ele>
        <time>2018-03-14T11:11:43Z</time>
      </trkpt>
      <trkpt lat="46.07642" lon="4.76145">
        <ele>172</ele>
        <time>2018-03-14T11:11:45Z</time>
      </trkpt>
      <trkpt lat="46.07638" lon="4.76148">
        <ele>172</ele>
        <time>2018-03-14T11:11:46Z</time>
      </trkpt>
      <trkpt lat="46.0763" lon="4.76155">
        <ele>172</ele>
        <time>2018-03-14T11:11:48Z</time>
      </trkpt>
      <trkpt lat="46.07626" lon="4.76159">
        <ele>172</ele>
        <time>2018-03-14T11:11:49Z</time>
      </trkpt>
      <trkpt lat="46.07623" lon="4.76163">
        <ele>172</ele>
        <time>2018-03-14T11:11:50Z</time>
      </trkpt>
      <trkpt lat="46.07623" lon="4.76173">
        <ele>173</ele>
        <time>2018-03-14T11:11:51Z</time>
      </trkpt>
      <trkpt lat="46.07619" lon="4.76176">
        <ele>173</ele>
        <time>2018-03-14T11:11:52Z</time>
      </trkpt>
      <trkpt lat="46.07615" lon="4.7618">
        <ele>173</ele>
        <time>2018-03-14T11:11:53Z</time>
      </trkpt>
      <trkpt lat="46.07611" lon="4.76184">
        <ele>173</ele>
        <time>2018-03-14T11:11:54Z</time>
      </trkpt>
      <trkpt lat="46.07607" lon="4.76188">
        <ele>173</ele>
        <time>2018-03-14T11:11:55Z</time>
      </trkpt>
      <trkpt lat="46.07602" lon="4.76192">
        <ele>173</ele>
        <time>2018-03-14T11:11:56Z</time>
      </trkpt>
      <trkpt lat="46.07599" lon="4.76197">
        <ele>173</ele>
        <time>2018-03-14T11:11:57Z</time>
      </trkpt>
      <trkpt lat="46.07594" lon="4.76202">
        <ele>173</ele>
        <time>2018-03-14T11:11:58Z</time>
      </trkpt>
      <trkpt lat="46.0759" lon="4.76206">
        <ele>173</ele>
        <time>2018-03-14T11:11:59Z</time>
      </trkpt>
      <trkpt lat="46.07585" lon="4.7621">
        <ele>173</ele>
        <time>2018-03-14T11:12:00Z</time>
      </trkpt>
      <trkpt lat="46.07582" lon="4.76214">
        <ele>173</ele>
        <time>2018-03-14T11:12:01Z</time>
      </trkpt>
      <trkpt lat="46.07578" lon="4.76219">
        <ele>173</ele>
        <time>2018-03-14T11:12:02Z</time>
      </trkpt>
      <trkpt lat="46.07574" lon="4.76223">
        <ele>173</ele>
        <time>2018-03-14T11:12:03Z</time>
      </trkpt>
      <trkpt lat="46.07568" lon="4.76228">
        <ele>173</ele>
        <time>2018-03-14T11:12:04Z</time>
      </trkpt>
      <trkpt lat="46.07565" lon="4.76232">
        <ele>173</ele>
        <time>2018-03-14T11:12:05Z</time>
      </trkpt>
      <trkpt lat="46.0756" lon="4.76235">
        <ele>173</ele>
        <time>2018-03-14T11:12:06Z</time>
      </trkpt>
      <trkpt lat="46.07556" lon="4.7624">
        <ele>173</ele>
        <time>2018-03-14T11:12:07Z</time>
      </trkpt>
      <trkpt lat="46.07551" lon="4.76245">
        <ele>173</ele>
        <time>2018-03-14T11:12:08Z</time>
      </trkpt>
      <trkpt lat="46.07547" lon="4.7625">
        <ele>173</ele>
        <time>2018-03-14T11:12:09Z</time>
      </trkpt>
      <trkpt lat="46.07542" lon="4.76253">
        <ele>174</ele>
        <time>2018-03-14T11:12:10Z</time>
      </trkpt>
      <trkpt lat="46.07538" lon="4.76257">
        <ele>174</ele>
        <time>2018-03-14T11:12:11Z</time>
      </trkpt>
      <trkpt lat="46.07534" lon="4.76261">
        <ele>174</ele>
        <time>2018-03-14T11:12:12Z</time>
      </trkpt>
      <trkpt lat="46.07531" lon="4.76266">
        <ele>174</ele>
        <time>2018-03-14T11:12:13Z</time>
      </trkpt>
      <trkpt lat="46.07527" lon="4.76271">
        <ele>174</ele>
        <time>2018-03-14T11:12:14Z</time>
      </trkpt>
      <trkpt lat="46.07522" lon="4.76276">
        <ele>174</ele>
        <time>2018-03-14T11:12:15Z</time>
      </trkpt>
      <trkpt lat="46.07518" lon="4.7628">
        <ele>174</ele>
        <time>2018-03-14T11:12:16Z</time>
      </trkpt>
      <trkpt lat="46.07513" lon="4.76284">
        <ele>174</ele>
        <time>2018-03-14T11:12:17Z</time>
      </trkpt>
      <trkpt lat="46.07509" lon="4.76289">
        <ele>174</ele>
        <time>2018-03-14T11:12:18Z</time>
      </trkpt>
      <trkpt lat="46.07505" lon="4.76294">
        <ele>174</ele>
        <time>2018-03-14T11:12:19Z</time>
      </trkpt>
      <trkpt lat="46.07501" lon="4.76299">
        <ele>174</ele>
        <time>2018-03-14T11:12:20Z</time>
      </trkpt>
      <trkpt lat="46.07497" lon="4.76303">
        <ele>173</ele>
        <time>2018-03-14T11:12:21Z</time>
      </trkpt>
      <trkpt lat="46.07492" lon="4.76307">
        <ele>173</ele>
        <time>2018-03-14T11:12:22Z</time>
      </trkpt>
      <trkpt lat="46.07486" lon="4.76309">
        <ele>173</ele>
        <time>2018-03-14T11:12:23Z</time>
      </trkpt>
      <trkpt lat="46.07481" lon="4.7631">
        <ele>173</ele>
        <time>2018-03-14T11:12:24Z</time>
      </trkpt>
      <trkpt lat="46.07476" lon="4.76312">
        <ele>172</ele>
        <time>2018-03-14T11:12:25Z</time>
      </trkpt>
      <trkpt lat="46.07471" lon="4.76315">
        <ele>172</ele>
        <time>2018-03-14T11:12:26Z</time>
      </trkpt>
      <trkpt lat="46.07467" lon="4.76321">
        <ele>172</ele>
        <time>2018-03-14T11:12:27Z</time>
      </trkpt>
      <trkpt lat="46.07465" lon="4.76327">
        <ele>172</ele>
        <time>2018-03-14T11:12:28Z</time>
      </trkpt>
      <trkpt lat="46.07462" lon="4.76332">
        <ele>172</ele>
        <time>2018-03-14T11:12:29Z</time>
      </trkpt>
      <trkpt lat="46.07459" lon="4.76338">
        <ele>172</ele>
        <time>2018-03-14T11:12:30Z</time>
      </trkpt>
      <trkpt lat="46.07456" lon="4.76343">
        <ele>172</ele>
        <time>2018-03-14T11:12:31Z</time>
      </trkpt>
      <trkpt lat="46.07452" lon="4.76348">
        <ele>172</ele>
        <time>2018-03-14T11:12:32Z</time>
      </trkpt>
      <trkpt lat="46.07448" lon="4.76352">
        <ele>172</ele>
        <time>2018-03-14T11:12:33Z</time>
      </trkpt>
      <trkpt lat="46.07444" lon="4.76356">
        <ele>171</ele>
        <time>2018-03-14T11:12:34Z</time>
      </trkpt>
      <trkpt lat="46.07439" lon="4.7636">
        <ele>171</ele>
        <time>2018-03-14T11:12:35Z</time>
      </trkpt>
      <trkpt lat="46.07437" lon="4.76367">
        <ele>171</ele>
        <time>2018-03-14T11:12:36Z</time>
      </trkpt>
      <trkpt lat="46.07432" lon="4.76371">
        <ele>171</ele>
        <time>2018-03-14T11:12:37Z</time>
      </trkpt>
      <trkpt lat="46.07428" lon="4.76376">
        <ele>171</ele>
        <time>2018-03-14T11:12:38Z</time>
      </trkpt>
      <trkpt lat="46.07424" lon="4.76381">
        <ele>171</ele>
        <time>2018-03-14T11:12:39Z</time>
      </trkpt>
      <trkpt lat="46.0742" lon="4.76385">
        <ele>171</ele>
        <time>2018-03-14T11:12:40Z</time>
      </trkpt>
      <trkpt lat="46.07415" lon="4.76389">
        <ele>170</ele>
        <time>2018-03-14T11:12:41Z</time>
      </trkpt>
      <trkpt lat="46.07412" lon="4.76393">
        <ele>170</ele>
        <time>2018-03-14T11:12:42Z</time>
      </trkpt>
      <trkpt lat="46.07408" lon="4.76398">
        <ele>170</ele>
        <time>2018-03-14T11:12:43Z</time>
      </trkpt>
      <trkpt lat="46.07403" lon="4.76403">
        <ele>171</ele>
        <time>2018-03-14T11:12:44Z</time>
      </trkpt>
      <trkpt lat="46.07399" lon="4.76408">
        <ele>171</ele>
        <time>2018-03-14T11:12:45Z</time>
      </trkpt>
      <trkpt lat="46.07395" lon="4.76412">
        <ele>170</ele>
        <time>2018-03-14T11:12:46Z</time>
      </trkpt>
      <trkpt lat="46.07391" lon="4.76417">
        <ele>171</ele>
        <time>2018-03-14T11:12:47Z</time>
      </trkpt>
      <trkpt lat="46.07387" lon="4.76422">
        <ele>171</ele>
        <time>2018-03-14T11:12:48Z</time>
      </trkpt>
      <trkpt lat="46.07382" lon="4.76426">
        <ele>171</ele>
        <time>2018-03-14T11:12:49Z</time>
      </trkpt>
      <trkpt lat="46.07378" lon="4.76431">
        <ele>171</ele>
        <time>2018-03-14T11:12:50Z</time>
      </trkpt>
      <trkpt lat="46.07375" lon="4.76436">
        <ele>171</ele>
        <time>2018-03-14T11:12:51Z</time>
      </trkpt>
      <trkpt lat="46.0737" lon="4.76441">
        <ele>171</ele>
        <time>2018-03-14T11:12:52Z</time>
      </trkpt>
      <trkpt lat="46.07366" lon="4.76446">
        <ele>171</ele>
        <time>2018-03-14T11:12:53Z</time>
      </trkpt>
      <trkpt lat="46.07361" lon="4.7645">
        <ele>171</ele>
        <time>2018-03-14T11:12:54Z</time>
      </trkpt>
      <trkpt lat="46.07357" lon="4.76454">
        <ele>171</ele>
        <time>2018-03-14T11:12:55Z</time>
      </trkpt>
      <trkpt lat="46.07352" lon="4.76458">
        <ele>171</ele>
        <time>2018-03-14T11:12:56Z</time>
      </trkpt>
      <trkpt lat="46.07347" lon="4.76462">
        <ele>171</ele>
        <time>2018-03-14T11:12:57Z</time>
      </trkpt>
      <trkpt lat="46.07343" lon="4.76467">
        <ele>171</ele>
        <time>2018-03-14T11:12:58Z</time>
      </trkpt>
      <trkpt lat="46.07339" lon="4.76472">
        <ele>171</ele>
        <time>2018-03-14T11:12:59Z</time>
      </trkpt>
      <trkpt lat="46.07335" lon="4.76476">
        <ele>171</ele>
        <time>2018-03-14T11:13:00Z</time>
      </trkpt>
      <trkpt lat="46.07332" lon="4.76482">
        <ele>170</ele>
        <time>2018-03-14T11:13:01Z</time>
      </trkpt>
      <trkpt lat="46.07328" lon="4.76487">
        <ele>170</ele>
        <time>2018-03-14T11:13:02Z</time>
      </trkpt>
      <trkpt lat="46.07324" lon="4.7649">
        <ele>170</ele>
        <time>2018-03-14T11:13:03Z</time>
      </trkpt>
      <trkpt lat="46.0732" lon="4.76494">
        <ele>170</ele>
        <time>2018-03-14T11:13:04Z</time>
      </trkpt>
      <trkpt lat="46.07315" lon="4.76497">
        <ele>170</ele>
        <time>2018-03-14T11:13:05Z</time>
      </trkpt>
      <trkpt lat="46.07311" lon="4.76501">
        <ele>170</ele>
        <time>2018-03-14T11:13:06Z</time>
      </trkpt>
      <trkpt lat="46.07307" lon="4.76506">
        <ele>170</ele>
        <time>2018-03-14T11:13:07Z</time>
      </trkpt>
      <trkpt lat="46.07302" lon="4.7651">
        <ele>170</ele>
        <time>2018-03-14T11:13:08Z</time>
      </trkpt>
      <trkpt lat="46.07298" lon="4.76514">
        <ele>170</ele>
        <time>2018-03-14T11:13:09Z</time>
      </trkpt>
      <trkpt lat="46.07295" lon="4.76518">
        <ele>170</ele>
        <time>2018-03-14T11:13:10Z</time>
      </trkpt>
      <trkpt lat="46.07289" lon="4.76523">
        <ele>170</ele>
        <time>2018-03-14T11:13:11Z</time>
      </trkpt>
      <trkpt lat="46.07285" lon="4.76527">
        <ele>170</ele>
        <time>2018-03-14T11:13:12Z</time>
      </trkpt>
      <trkpt lat="46.07282" lon="4.7653">
        <ele>170</ele>
        <time>2018-03-14T11:13:13Z</time>
      </trkpt>
      <trkpt lat="46.07278" lon="4.76534">
        <ele>170</ele>
        <time>2018-03-14T11:13:14Z</time>
      </trkpt>
      <trkpt lat="46.07274" lon="4.76539">
        <ele>170</ele>
        <time>2018-03-14T11:13:15Z</time>
      </trkpt>
      <trkpt lat="46.07269" lon="4.76543">
        <ele>170</ele>
        <time>2018-03-14T11:13:16Z</time>
      </trkpt>
      <trkpt lat="46.07265" lon="4.76548">
        <ele>170</ele>
        <time>2018-03-14T11:13:17Z</time>
      </trkpt>
      <trkpt lat="46.07262" lon="4.76553">
        <ele>170</ele>
        <time>2018-03-14T11:13:18Z</time>
      </trkpt>
      <trkpt lat="46.07258" lon="4.76557">
        <ele>170</ele>
        <time>2018-03-14T11:13:19Z</time>
      </trkpt>
      <trkpt lat="46.07255" lon="4.76561">
        <ele>170</ele>
        <time>2018-03-14T11:13:20Z</time>
      </trkpt>
      <trkpt lat="46.07251" lon="4.76566">
        <ele>170</ele>
        <time>2018-03-14T11:13:21Z</time>
      </trkpt>
      <trkpt lat="46.07247" lon="4.7657">
        <ele>170</ele>
        <time>2018-03-14T11:13:22Z</time>
      </trkpt>
      <trkpt lat="46.07243" lon="4.76574">
        <ele>170</ele>
        <time>2018-03-14T11:13:23Z</time>
      </trkpt>
      <trkpt lat="46.0724" lon="4.76578">
        <ele>170</ele>
        <time>2018-03-14T11:13:24Z</time>
      </trkpt>
      <trkpt lat="46.07236" lon="4.76583">
        <ele>170</ele>
        <time>2018-03-14T11:13:25Z</time>
      </trkpt>
      <trkpt lat="46.07233" lon="4.76588">
        <ele>170</ele>
        <time>2018-03-14T11:13:26Z</time>
      </trkpt>
      <trkpt lat="46.0723" lon="4.76594">
        <ele>170</ele>
        <time>2018-03-14T11:13:27Z</time>
      </trkpt>
      <trkpt lat="46.07226" lon="4.766">
        <ele>170</ele>
        <time>2018-03-14T11:13:28Z</time>
      </trkpt>
      <trkpt lat="46.07222" lon="4.76605">
        <ele>170</ele>
        <time>2018-03-14T11:13:29Z</time>
      </trkpt>
      <trkpt lat="46.07219" lon="4.7661">
        <ele>170</ele>
        <time>2018-03-14T11:13:30Z</time>
      </trkpt>
      <trkpt lat="46.07215" lon="4.76615">
        <ele>170</ele>
        <time>2018-03-14T11:13:31Z</time>
      </trkpt>
      <trkpt lat="46.07212" lon="4.76619">
        <ele>170</ele>
        <time>2018-03-14T11:13:32Z</time>
      </trkpt>
      <trkpt lat="46.07208" lon="4.76624">
        <ele>171</ele>
        <time>2018-03-14T11:13:33Z</time>
      </trkpt>
      <trkpt lat="46.07204" lon="4.76629">
        <ele>170</ele>
        <time>2018-03-14T11:13:34Z</time>
      </trkpt>
      <trkpt lat="46.07201" lon="4.76633">
        <ele>170</ele>
        <time>2018-03-14T11:13:35Z</time>
      </trkpt>
      <trkpt lat="46.07197" lon="4.76639">
        <ele>170</ele>
        <time>2018-03-14T11:13:36Z</time>
      </trkpt>
      <trkpt lat="46.07194" lon="4.76644">
        <ele>170</ele>
        <time>2018-03-14T11:13:37Z</time>
      </trkpt>
      <trkpt lat="46.0719" lon="4.7665">
        <ele>170</ele>
        <time>2018-03-14T11:13:38Z</time>
      </trkpt>
      <trkpt lat="46.07189" lon="4.76656">
        <ele>170</ele>
        <time>2018-03-14T11:13:39Z</time>
      </trkpt>
      <trkpt lat="46.07186" lon="4.76662">
        <ele>170</ele>
        <time>2018-03-14T11:13:40Z</time>
      </trkpt>
      <trkpt lat="46.07182" lon="4.76668">
        <ele>170</ele>
        <time>2018-03-14T11:13:41Z</time>
      </trkpt>
      <trkpt lat="46.07178" lon="4.76674">
        <ele>170</ele>
        <time>2018-03-14T11:13:42Z</time>
      </trkpt>
      <trkpt lat="46.07176" lon="4.7668">
        <ele>170</ele>
        <time>2018-03-14T11:13:43Z</time>
      </trkpt>
      <trkpt lat="46.07173" lon="4.76685">
        <ele>170</ele>
        <time>2018-03-14T11:13:44Z</time>
      </trkpt>
      <trkpt lat="46.0717" lon="4.76692">
        <ele>170</ele>
        <time>2018-03-14T11:13:45Z</time>
      </trkpt>
      <trkpt lat="46.07167" lon="4.76697">
        <ele>170</ele>
        <time>2018-03-14T11:13:46Z</time>
      </trkpt>
      <trkpt lat="46.07163" lon="4.76703">
        <ele>170</ele>
        <time>2018-03-14T11:13:47Z</time>
      </trkpt>
      <trkpt lat="46.0716" lon="4.76708">
        <ele>170</ele>
        <time>2018-03-14T11:13:48Z</time>
      </trkpt>
      <trkpt lat="46.07158" lon="4.76714">
        <ele>170</ele>
        <time>2018-03-14T11:13:49Z</time>
      </trkpt>
      <trkpt lat="46.07154" lon="4.76719">
        <ele>170</ele>
        <time>2018-03-14T11:13:50Z</time>
      </trkpt>
      <trkpt lat="46.07151" lon="4.76725">
        <ele>170</ele>
        <time>2018-03-14T11:13:51Z</time>
      </trkpt>
      <trkpt lat="46.07147" lon="4.7673">
        <ele>171</ele>
        <time>2018-03-14T11:13:52Z</time>
      </trkpt>
      <trkpt lat="46.07146" lon="4.76737">
        <ele>171</ele>
        <time>2018-03-14T11:13:53Z</time>
      </trkpt>
      <trkpt lat="46.07142" lon="4.76743">
        <ele>171</ele>
        <time>2018-03-14T11:13:54Z</time>
      </trkpt>
      <trkpt lat="46.07139" lon="4.76749">
        <ele>171</ele>
        <time>2018-03-14T11:13:55Z</time>
      </trkpt>
      <trkpt lat="46.07136" lon="4.76755">
        <ele>171</ele>
        <time>2018-03-14T11:13:56Z</time>
      </trkpt>
      <trkpt lat="46.07133" lon="4.76761">
        <ele>171</ele>
        <time>2018-03-14T11:13:57Z</time>
      </trkpt>
      <trkpt lat="46.0713" lon="4.76767">
        <ele>171</ele>
        <time>2018-03-14T11:13:58Z</time>
      </trkpt>
      <trkpt lat="46.07127" lon="4.76773">
        <ele>171</ele>
        <time>2018-03-14T11:13:59Z</time>
      </trkpt>
      <trkpt lat="46.07123" lon="4.76778">
        <ele>171</ele>
        <time>2018-03-14T11:14:00Z</time>
      </trkpt>
      <trkpt lat="46.0712" lon="4.76784">
        <ele>171</ele>
        <time>2018-03-14T11:14:01Z</time>
      </trkpt>
      <trkpt lat="46.07118" lon="4.76789">
        <ele>171</ele>
        <time>2018-03-14T11:14:02Z</time>
      </trkpt>
      <trkpt lat="46.07116" lon="4.76796">
        <ele>172</ele>
        <time>2018-03-14T11:14:03Z</time>
      </trkpt>
      <trkpt lat="46.07113" lon="4.76802">
        <ele>172</ele>
        <time>2018-03-14T11:14:04Z</time>
      </trkpt>
      <trkpt lat="46.0711" lon="4.76809">
        <ele>172</ele>
        <time>2018-03-14T11:14:05Z</time>
      </trkpt>
      <trkpt lat="46.07107" lon="4.76815">
        <ele>172</ele>
        <time>2018-03-14T11:14:06Z</time>
      </trkpt>
      <trkpt lat="46.07104" lon="4.76821">
        <ele>172</ele>
        <time>2018-03-14T11:14:07Z</time>
      </trkpt>
      <trkpt lat="46.07099" lon="4.76832">
        <ele>172</ele>
        <time>2018-03-14T11:14:09Z</time>
      </trkpt>
      <trkpt lat="46.07096" lon="4.76837">
        <ele>172</ele>
        <time>2018-03-14T11:14:10Z</time>
      </trkpt>
      <trkpt lat="46.07094" lon="4.76843">
        <ele>172</ele>
        <time>2018-03-14T11:14:11Z</time>
      </trkpt>
      <trkpt lat="46.0709" lon="4.76851">
        <ele>172</ele>
        <time>2018-03-14T11:14:12Z</time>
      </trkpt>
      <trkpt lat="46.07087" lon="4.76857">
        <ele>173</ele>
        <time>2018-03-14T11:14:13Z</time>
      </trkpt>
      <trkpt lat="46.07083" lon="4.76863">
        <ele>173</ele>
        <time>2018-03-14T11:14:14Z</time>
      </trkpt>
      <trkpt lat="46.0708" lon="4.76868">
        <ele>172</ele>
        <time>2018-03-14T11:14:15Z</time>
      </trkpt>
      <trkpt lat="46.07077" lon="4.76874">
        <ele>172</ele>
        <time>2018-03-14T11:14:16Z</time>
      </trkpt>
      <trkpt lat="46.07074" lon="4.76881">
        <ele>172</ele>
        <time>2018-03-14T11:14:17Z</time>
      </trkpt>
      <trkpt lat="46.07071" lon="4.76886">
        <ele>172</ele>
        <time>2018-03-14T11:14:18Z</time>
      </trkpt>
      <trkpt lat="46.07067" lon="4.76892">
        <ele>172</ele>
        <time>2018-03-14T11:14:19Z</time>
      </trkpt>
      <trkpt lat="46.07064" lon="4.76898">
        <ele>172</ele>
        <time>2018-03-14T11:14:20Z</time>
      </trkpt>
      <trkpt lat="46.07061" lon="4.76904">
        <ele>172</ele>
        <time>2018-03-14T11:14:21Z</time>
      </trkpt>
      <trkpt lat="46.07058" lon="4.7691">
        <ele>172</ele>
        <time>2018-03-14T11:14:22Z</time>
      </trkpt>
      <trkpt lat="46.07055" lon="4.76916">
        <ele>172</ele>
        <time>2018-03-14T11:14:23Z</time>
      </trkpt>
      <trkpt lat="46.07052" lon="4.76924">
        <ele>173</ele>
        <time>2018-03-14T11:14:24Z</time>
      </trkpt>
      <trkpt lat="46.07049" lon="4.7693">
        <ele>173</ele>
        <time>2018-03-14T11:14:25Z</time>
      </trkpt>
      <trkpt lat="46.07046" lon="4.76936">
        <ele>173</ele>
        <time>2018-03-14T11:14:26Z</time>
      </trkpt>
      <trkpt lat="46.07043" lon="4.76941">
        <ele>173</ele>
        <time>2018-03-14T11:14:27Z</time>
      </trkpt>
      <trkpt lat="46.07041" lon="4.76947">
        <ele>173</ele>
        <time>2018-03-14T11:14:28Z</time>
      </trkpt>
      <trkpt lat="46.07037" lon="4.76952">
        <ele>173</ele>
        <time>2018-03-14T11:14:29Z</time>
      </trkpt>
      <trkpt lat="46.07034" lon="4.76957">
        <ele>173</ele>
        <time>2018-03-14T11:14:30Z</time>
      </trkpt>
      <trkpt lat="46.07031" lon="4.76962">
        <ele>173</ele>
        <time>2018-03-14T11:14:31Z</time>
      </trkpt>
      <trkpt lat="46.07027" lon="4.76967">
        <ele>173</ele>
        <time>2018-03-14T11:14:32Z</time>
      </trkpt>
      <trkpt lat="46.07024" lon="4.76973">
        <ele>173</ele>
        <time>2018-03-14T11:14:33Z</time>
      </trkpt>
      <trkpt lat="46.0702" lon="4.76978">
        <ele>173</ele>
        <time>2018-03-14T11:14:34Z</time>
      </trkpt>
      <trkpt lat="46.07017" lon="4.76984">
        <ele>173</ele>
        <time>2018-03-14T11:14:35Z</time>
      </trkpt>
      <trkpt lat="46.07015" lon="4.7699">
        <ele>173</ele>
        <time>2018-03-14T11:14:36Z</time>
      </trkpt>
      <trkpt lat="46.07012" lon="4.76996">
        <ele>173</ele>
        <time>2018-03-14T11:14:37Z</time>
      </trkpt>
      <trkpt lat="46.07009" lon="4.77002">
        <ele>173</ele>
        <time>2018-03-14T11:14:38Z</time>
      </trkpt>
      <trkpt lat="46.07006" lon="4.77007">
        <ele>173</ele>
        <time>2018-03-14T11:14:39Z</time>
      </trkpt>
      <trkpt lat="46.07005" lon="4.77013">
        <ele>174</ele>
        <time>2018-03-14T11:14:40Z</time>
      </trkpt>
      <trkpt lat="46.07002" lon="4.77019">
        <ele>174</ele>
        <time>2018-03-14T11:14:41Z</time>
      </trkpt>
      <trkpt lat="46.07" lon="4.77024">
        <ele>173</ele>
        <time>2018-03-14T11:14:42Z</time>
      </trkpt>
      <trkpt lat="46.06995" lon="4.77034">
        <ele>173</ele>
        <time>2018-03-14T11:14:44Z</time>
      </trkpt>
      <trkpt lat="46.06992" lon="4.77038">
        <ele>173</ele>
        <time>2018-03-14T11:14:45Z</time>
      </trkpt>
      <trkpt lat="46.06986" lon="4.77047">
        <ele>173</ele>
        <time>2018-03-14T11:14:47Z</time>
      </trkpt>
      <trkpt lat="46.06983" lon="4.77051">
        <ele>173</ele>
        <time>2018-03-14T11:14:48Z</time>
      </trkpt>
      <trkpt lat="46.06981" lon="4.77055">
        <ele>173</ele>
        <time>2018-03-14T11:14:50Z</time>
      </trkpt>
      <trkpt lat="46.06976" lon="4.77063">
        <ele>173</ele>
        <time>2018-03-14T11:14:51Z</time>
      </trkpt>
      <trkpt lat="46.0697" lon="4.77069">
        <ele>173</ele>
        <time>2018-03-14T11:14:53Z</time>
      </trkpt>
      <trkpt lat="46.06966" lon="4.7707">
        <ele>173</ele>
        <time>2018-03-14T11:14:54Z</time>
      </trkpt>
      <trkpt lat="46.06961" lon="4.77069">
        <ele>173</ele>
        <time>2018-03-14T11:14:55Z</time>
      </trkpt>
      <trkpt lat="46.06955" lon="4.77068">
        <ele>173</ele>
        <time>2018-03-14T11:14:56Z</time>
      </trkpt>
      <trkpt lat="46.0695" lon="4.77067">
        <ele>173</ele>
        <time>2018-03-14T11:14:57Z</time>
      </trkpt>
      <trkpt lat="46.06945" lon="4.77066">
        <ele>173</ele>
        <time>2018-03-14T11:14:58Z</time>
      </trkpt>
      <trkpt lat="46.0694" lon="4.77066">
        <ele>173</ele>
        <time>2018-03-14T11:14:59Z</time>
      </trkpt>
      <trkpt lat="46.06934" lon="4.77067">
        <ele>173</ele>
        <time>2018-03-14T11:15:00Z</time>
      </trkpt>
      <trkpt lat="46.06929" lon="4.77067">
        <ele>173</ele>
        <time>2018-03-14T11:15:01Z</time>
      </trkpt>
      <trkpt lat="46.06923" lon="4.77067">
        <ele>173</ele>
        <time>2018-03-14T11:15:02Z</time>
      </trkpt>
      <trkpt lat="46.06918" lon="4.77068">
        <ele>173</ele>
        <time>2018-03-14T11:15:03Z</time>
      </trkpt>
      <trkpt lat="46.06913" lon="4.77068">
        <ele>173</ele>
        <time>2018-03-14T11:15:04Z</time>
      </trkpt>
      <trkpt lat="46.06907" lon="4.77068">
        <ele>173</ele>
        <time>2018-03-14T11:15:05Z</time>
      </trkpt>
      <trkpt lat="46.06901" lon="4.77068">
        <ele>173</ele>
        <time>2018-03-14T11:15:06Z</time>
      </trkpt>
      <trkpt lat="46.06893" lon="4.77069">
        <ele>173</ele>
        <time>2018-03-14T11:15:08Z</time>
      </trkpt>
      <trkpt lat="46.06888" lon="4.77069">
        <ele>173</ele>
        <time>2018-03-14T11:15:09Z</time>
      </trkpt>
      <trkpt lat="46.06883" lon="4.77069">
        <ele>173</ele>
        <time>2018-03-14T11:15:10Z</time>
      </trkpt>
      <trkpt lat="46.06878" lon="4.77071">
        <ele>173</ele>
        <time>2018-03-14T11:15:11Z</time>
      </trkpt>
      <trkpt lat="46.06873" lon="4.77071">
        <ele>173</ele>
        <time>2018-03-14T11:15:12Z</time>
      </trkpt>
      <trkpt lat="46.06868" lon="4.77073">
        <ele>173</ele>
        <time>2018-03-14T11:15:13Z</time>
      </trkpt>
      <trkpt lat="46.06863" lon="4.77073">
        <ele>173</ele>
        <time>2018-03-14T11:15:14Z</time>
      </trkpt>
      <trkpt lat="46.06858" lon="4.77074">
        <ele>173</ele>
        <time>2018-03-14T11:15:15Z</time>
      </trkpt>
      <trkpt lat="46.06853" lon="4.77076">
        <ele>173</ele>
        <time>2018-03-14T11:15:16Z</time>
      </trkpt>
      <trkpt lat="46.06848" lon="4.77079">
        <ele>173</ele>
        <time>2018-03-14T11:15:17Z</time>
      </trkpt>
      <trkpt lat="46.0684" lon="4.77083">
        <ele>173</ele>
        <time>2018-03-14T11:15:19Z</time>
      </trkpt>
      <trkpt lat="46.06835" lon="4.77085">
        <ele>173</ele>
        <time>2018-03-14T11:15:20Z</time>
      </trkpt>
      <trkpt lat="46.06831" lon="4.7709">
        <ele>173</ele>
        <time>2018-03-14T11:15:21Z</time>
      </trkpt>
      <trkpt lat="46.06828" lon="4.77093">
        <ele>173</ele>
        <time>2018-03-14T11:15:22Z</time>
      </trkpt>
      <trkpt lat="46.06823" lon="4.77095">
        <ele>173</ele>
        <time>2018-03-14T11:15:23Z</time>
      </trkpt>
      <trkpt lat="46.06818" lon="4.77098">
        <ele>173</ele>
        <time>2018-03-14T11:15:24Z</time>
      </trkpt>
      <trkpt lat="46.06814" lon="4.77101">
        <ele>172</ele>
        <time>2018-03-14T11:15:25Z</time>
      </trkpt>
      <trkpt lat="46.0681" lon="4.77105">
        <ele>172</ele>
        <time>2018-03-14T11:15:26Z</time>
      </trkpt>
      <trkpt lat="46.06806" lon="4.77109">
        <ele>172</ele>
        <time>2018-03-14T11:15:27Z</time>
      </trkpt>
      <trkpt lat="46.06802" lon="4.77113">
        <ele>172</ele>
        <time>2018-03-14T11:15:28Z</time>
      </trkpt>
      <trkpt lat="46.06797" lon="4.77118">
        <ele>172</ele>
        <time>2018-03-14T11:15:29Z</time>
      </trkpt>
      <trkpt lat="46.06794" lon="4.77121">
        <ele>172</ele>
        <time>2018-03-14T11:15:30Z</time>
      </trkpt>
      <trkpt lat="46.0679" lon="4.77125">
        <ele>172</ele>
        <time>2018-03-14T11:15:31Z</time>
      </trkpt>
      <trkpt lat="46.06786" lon="4.7713">
        <ele>172</ele>
        <time>2018-03-14T11:15:32Z</time>
      </trkpt>
      <trkpt lat="46.06782" lon="4.77134">
        <ele>172</ele>
        <time>2018-03-14T11:15:33Z</time>
      </trkpt>
      <trkpt lat="46.06778" lon="4.77139">
        <ele>172</ele>
        <time>2018-03-14T11:15:34Z</time>
      </trkpt>
      <trkpt lat="46.06773" lon="4.77144">
        <ele>172</ele>
        <time>2018-03-14T11:15:35Z</time>
      </trkpt>
      <trkpt lat="46.06769" lon="4.77148">
        <ele>172</ele>
        <time>2018-03-14T11:15:36Z</time>
      </trkpt>
      <trkpt lat="46.06764" lon="4.77151">
        <ele>172</ele>
        <time>2018-03-14T11:15:37Z</time>
      </trkpt>
      <trkpt lat="46.0676" lon="4.77156">
        <ele>172</ele>
        <time>2018-03-14T11:15:38Z</time>
      </trkpt>
      <trkpt lat="46.06756" lon="4.7716">
        <ele>172</ele>
        <time>2018-03-14T11:15:39Z</time>
      </trkpt>
      <trkpt lat="46.06751" lon="4.77164">
        <ele>172</ele>
        <time>2018-03-14T11:15:40Z</time>
      </trkpt>
      <trkpt lat="46.06747" lon="4.77169">
        <ele>172</ele>
        <time>2018-03-14T11:15:41Z</time>
      </trkpt>
      <trkpt lat="46.06742" lon="4.77173">
        <ele>172</ele>
        <time>2018-03-14T11:15:42Z</time>
      </trkpt>
      <trkpt lat="46.06738" lon="4.77177">
        <ele>172</ele>
        <time>2018-03-14T11:15:43Z</time>
      </trkpt>
      <trkpt lat="46.06734" lon="4.7718">
        <ele>172</ele>
        <time>2018-03-14T11:15:44Z</time>
      </trkpt>
      <trkpt lat="46.06729" lon="4.77183">
        <ele>172</ele>
        <time>2018-03-14T11:15:45Z</time>
      </trkpt>
      <trkpt lat="46.06724" lon="4.77187">
        <ele>172</ele>
        <time>2018-03-14T11:15:46Z</time>
      </trkpt>
      <trkpt lat="46.06719" lon="4.7719">
        <ele>172</ele>
        <time>2018-03-14T11:15:47Z</time>
      </trkpt>
      <trkpt lat="46.06714" lon="4.77192">
        <ele>172</ele>
        <time>2018-03-14T11:15:48Z</time>
      </trkpt>
      <trkpt lat="46.0671" lon="4.77193">
        <ele>172</ele>
        <time>2018-03-14T11:15:49Z</time>
      </trkpt>
      <trkpt lat="46.06705" lon="4.77193">
        <ele>172</ele>
        <time>2018-03-14T11:15:50Z</time>
      </trkpt>
      <trkpt lat="46.06701" lon="4.77194">
        <ele>172</ele>
        <time>2018-03-14T11:15:51Z</time>
      </trkpt>
      <trkpt lat="46.06696" lon="4.77196">
        <ele>172</ele>
        <time>2018-03-14T11:15:52Z</time>
      </trkpt>
      <trkpt lat="46.06691" lon="4.77196">
        <ele>172</ele>
        <time>2018-03-14T11:15:53Z</time>
      </trkpt>
      <trkpt lat="46.06687" lon="4.77199">
        <ele>172</ele>
        <time>2018-03-14T11:15:54Z</time>
      </trkpt>
      <trkpt lat="46.06682" lon="4.77209">
        <ele>172</ele>
        <time>2018-03-14T11:15:56Z</time>
      </trkpt>
      <trkpt lat="46.06681" lon="4.77216">
        <ele>172</ele>
        <time>2018-03-14T11:15:57Z</time>
      </trkpt>
      <trkpt lat="46.06681" lon="4.77223">
        <ele>172</ele>
        <time>2018-03-14T11:15:58Z</time>
      </trkpt>
      <trkpt lat="46.06682" lon="4.7723">
        <ele>172</ele>
        <time>2018-03-14T11:15:59Z</time>
      </trkpt>
      <trkpt lat="46.06682" lon="4.77237">
        <ele>172</ele>
        <time>2018-03-14T11:16:00Z</time>
      </trkpt>
      <trkpt lat="46.0668" lon="4.77242">
        <ele>173</ele>
        <time>2018-03-14T11:16:01Z</time>
      </trkpt>
      <trkpt lat="46.06678" lon="4.77248">
        <ele>173</ele>
        <time>2018-03-14T11:16:02Z</time>
      </trkpt>
      <trkpt lat="46.06675" lon="4.77254">
        <ele>173</ele>
        <time>2018-03-14T11:16:03Z</time>
      </trkpt>
      <trkpt lat="46.06673" lon="4.77261">
        <ele>173</ele>
        <time>2018-03-14T11:16:04Z</time>
      </trkpt>
      <trkpt lat="46.06671" lon="4.77266">
        <ele>173</ele>
        <time>2018-03-14T11:16:05Z</time>
      </trkpt>
      <trkpt lat="46.06667" lon="4.77271">
        <ele>173</ele>
        <time>2018-03-14T11:16:06Z</time>
      </trkpt>
      <trkpt lat="46.06663" lon="4.77276">
        <ele>174</ele>
        <time>2018-03-14T11:16:07Z</time>
      </trkpt>
      <trkpt lat="46.06657" lon="4.77284">
        <ele>174</ele>
        <time>2018-03-14T11:16:09Z</time>
      </trkpt>
      <trkpt lat="46.06654" lon="4.77288">
        <ele>174</ele>
        <time>2018-03-14T11:16:10Z</time>
      </trkpt>
      <trkpt lat="46.0665" lon="4.77297">
        <ele>174</ele>
        <time>2018-03-14T11:16:12Z</time>
      </trkpt>
      <trkpt lat="46.06645" lon="4.77307">
        <ele>174</ele>
        <time>2018-03-14T11:16:13Z</time>
      </trkpt>
      <trkpt lat="46.06644" lon="4.77313">
        <ele>174</ele>
        <time>2018-03-14T11:16:14Z</time>
      </trkpt>
      <trkpt lat="46.06642" lon="4.77319">
        <ele>174</ele>
        <time>2018-03-14T11:16:15Z</time>
      </trkpt>
      <trkpt lat="46.06639" lon="4.7733">
        <ele>174</ele>
        <time>2018-03-14T11:16:17Z</time>
      </trkpt>
      <trkpt lat="46.06636" lon="4.77337">
        <ele>176</ele>
        <time>2018-03-14T11:16:18Z</time>
      </trkpt>
      <trkpt lat="46.06633" lon="4.77342">
        <ele>176</ele>
        <time>2018-03-14T11:16:19Z</time>
      </trkpt>
      <trkpt lat="46.06631" lon="4.77348">
        <ele>176</ele>
        <time>2018-03-14T11:16:20Z</time>
      </trkpt>
      <trkpt lat="46.06628" lon="4.77352">
        <ele>176</ele>
        <time>2018-03-14T11:16:21Z</time>
      </trkpt>
      <trkpt lat="46.06625" lon="4.77358">
        <ele>176</ele>
        <time>2018-03-14T11:16:22Z</time>
      </trkpt>
      <trkpt lat="46.06621" lon="4.77369">
        <ele>176</ele>
        <time>2018-03-14T11:16:24Z</time>
      </trkpt>
      <trkpt lat="46.0662" lon="4.77375">
        <ele>176</ele>
        <time>2018-03-14T11:16:25Z</time>
      </trkpt>
      <trkpt lat="46.06618" lon="4.7738">
        <ele>176</ele>
        <time>2018-03-14T11:16:26Z</time>
      </trkpt>
      <trkpt lat="46.06616" lon="4.77387">
        <ele>177</ele>
        <time>2018-03-14T11:16:27Z</time>
      </trkpt>
      <trkpt lat="46.06611" lon="4.77397">
        <ele>177</ele>
        <time>2018-03-14T11:16:29Z</time>
      </trkpt>
      <trkpt lat="46.0661" lon="4.77399">
        <ele>177</ele>
        <time>2018-03-14T11:16:30Z</time>
      </trkpt>
      <trkpt lat="46.06604" lon="4.77409">
        <ele>177</ele>
        <time>2018-03-14T11:16:32Z</time>
      </trkpt>
      <trkpt lat="46.06601" lon="4.77413">
        <ele>178</ele>
        <time>2018-03-14T11:16:33Z</time>
      </trkpt>
      <trkpt lat="46.06596" lon="4.77423">
        <ele>179</ele>
        <time>2018-03-14T11:16:35Z</time>
      </trkpt>
      <trkpt lat="46.06594" lon="4.77428">
        <ele>179</ele>
        <time>2018-03-14T11:16:36Z</time>
      </trkpt>
      <trkpt lat="46.06591" lon="4.77439">
        <ele>180</ele>
        <time>2018-03-14T11:16:38Z</time>
      </trkpt>
      <trkpt lat="46.0659" lon="4.77444">
        <ele>180</ele>
        <time>2018-03-14T11:16:39Z</time>
      </trkpt>
      <trkpt lat="46.06588" lon="4.77456">
        <ele>180</ele>
        <time>2018-03-14T11:16:41Z</time>
      </trkpt>
      <trkpt lat="46.06588" lon="4.77459">
        <ele>180</ele>
        <time>2018-03-14T11:16:42Z</time>
      </trkpt>
      <trkpt lat="46.06589" lon="4.77467">
        <ele>181</ele>
        <time>2018-03-14T11:16:43Z</time>
      </trkpt>
      <trkpt lat="46.0659" lon="4.77472">
        <ele>181</ele>
        <time>2018-03-14T11:16:44Z</time>
      </trkpt>
      <trkpt lat="46.06594" lon="4.77481">
        <ele>181</ele>
        <time>2018-03-14T11:16:47Z</time>
      </trkpt>
      <trkpt lat="46.06599" lon="4.7749">
        <ele>182</ele>
        <time>2018-03-14T11:16:48Z</time>
      </trkpt>
      <trkpt lat="46.06605" lon="4.775">
        <ele>181</ele>
        <time>2018-03-14T11:16:51Z</time>
      </trkpt>
      <trkpt lat="46.06606" lon="4.77503">
        <ele>183</ele>
        <time>2018-03-14T11:16:52Z</time>
      </trkpt>
      <trkpt lat="46.06611" lon="4.77514">
        <ele>183</ele>
        <time>2018-03-14T11:16:55Z</time>
      </trkpt>
      <trkpt lat="46.06613" lon="4.77517">
        <ele>183</ele>
        <time>2018-03-14T11:16:56Z</time>
      </trkpt>
      <trkpt lat="46.06617" lon="4.77525">
        <ele>183</ele>
        <time>2018-03-14T11:16:58Z</time>
      </trkpt>
      <trkpt lat="46.06618" lon="4.77528">
        <ele>183</ele>
        <time>2018-03-14T11:16:59Z</time>
      </trkpt>
      <trkpt lat="46.06623" lon="4.7754">
        <ele>183</ele>
        <time>2018-03-14T11:17:02Z</time>
      </trkpt>
      <trkpt lat="46.06624" lon="4.77543">
        <ele>183</ele>
        <time>2018-03-14T11:17:03Z</time>
      </trkpt>
      <trkpt lat="46.06626" lon="4.77555">
        <ele>183</ele>
        <time>2018-03-14T11:17:06Z</time>
      </trkpt>
      <trkpt lat="46.06627" lon="4.77559">
        <ele>183</ele>
        <time>2018-03-14T11:17:07Z</time>
      </trkpt>
      <trkpt lat="46.06628" lon="4.77571">
        <ele>183</ele>
        <time>2018-03-14T11:17:10Z</time>
      </trkpt>
      <trkpt lat="46.06628" lon="4.77574">
        <ele>183</ele>
        <time>2018-03-14T11:17:11Z</time>
      </trkpt>
      <trkpt lat="46.06628" lon="4.77586">
        <ele>185</ele>
        <time>2018-03-14T11:17:14Z</time>
      </trkpt>
      <trkpt lat="46.06628" lon="4.77589">
        <ele>185</ele>
        <time>2018-03-14T11:17:15Z</time>
      </trkpt>
      <trkpt lat="46.06628" lon="4.776">
        <ele>185</ele>
        <time>2018-03-14T11:17:18Z</time>
      </trkpt>
      <trkpt lat="46.06628" lon="4.77604">
        <ele>185</ele>
        <time>2018-03-14T11:17:19Z</time>
      </trkpt>
      <trkpt lat="46.06627" lon="4.77615">
        <ele>185</ele>
        <time>2018-03-14T11:17:22Z</time>
      </trkpt>
      <trkpt lat="46.06627" lon="4.77618">
        <ele>185</ele>
        <time>2018-03-14T11:17:23Z</time>
      </trkpt>
      <trkpt lat="46.06626" lon="4.77629">
        <ele>185</ele>
        <time>2018-03-14T11:17:26Z</time>
      </trkpt>
      <trkpt lat="46.06625" lon="4.77633">
        <ele>185</ele>
        <time>2018-03-14T11:17:27Z</time>
      </trkpt>
      <trkpt lat="46.06624" lon="4.77643">
        <ele>185</ele>
        <time>2018-03-14T11:17:30Z</time>
      </trkpt>
      <trkpt lat="46.06624" lon="4.77647">
        <ele>185</ele>
        <time>2018-03-14T11:17:31Z</time>
      </trkpt>
      <trkpt lat="46.06621" lon="4.77657">
        <ele>185</ele>
        <time>2018-03-14T11:17:34Z</time>
      </trkpt>
      <trkpt lat="46.0662" lon="4.77661">
        <ele>185</ele>
        <time>2018-03-14T11:17:35Z</time>
      </trkpt>
      <trkpt lat="46.06616" lon="4.7767">
        <ele>187</ele>
        <time>2018-03-14T11:17:38Z</time>
      </trkpt>
      <trkpt lat="46.06614" lon="4.77673">
        <ele>187</ele>
        <time>2018-03-14T11:17:39Z</time>
      </trkpt>
      <trkpt lat="46.06608" lon="4.7768">
        <ele>187</ele>
        <time>2018-03-14T11:17:42Z</time>
      </trkpt>
      <trkpt lat="46.06605" lon="4.77681">
        <ele>187</ele>
        <time>2018-03-14T11:17:43Z</time>
      </trkpt>
      <trkpt lat="46.06599" lon="4.77685">
        <ele>187</ele>
        <time>2018-03-14T11:17:46Z</time>
      </trkpt>
      <trkpt lat="46.06596" lon="4.77685">
        <ele>187</ele>
        <time>2018-03-14T11:17:47Z</time>
      </trkpt>
      <trkpt lat="46.06589" lon="4.77689">
        <ele>187</ele>
        <time>2018-03-14T11:17:50Z</time>
      </trkpt>
      <trkpt lat="46.06586" lon="4.7769">
        <ele>187</ele>
        <time>2018-03-14T11:17:51Z</time>
      </trkpt>
      <trkpt lat="46.06579" lon="4.77694">
        <ele>188</ele>
        <time>2018-03-14T11:17:54Z</time>
      </trkpt>
      <trkpt lat="46.06577" lon="4.77695">
        <ele>188</ele>
        <time>2018-03-14T11:17:55Z</time>
      </trkpt>
      <trkpt lat="46.06571" lon="4.777">
        <ele>188</ele>
        <time>2018-03-14T11:17:58Z</time>
      </trkpt>
      <trkpt lat="46.06568" lon="4.77702">
        <ele>189</ele>
        <time>2018-03-14T11:17:59Z</time>
      </trkpt>
      <trkpt lat="46.06563" lon="4.77707">
        <ele>189</ele>
        <time>2018-03-14T11:18:01Z</time>
      </trkpt>
      <trkpt lat="46.06561" lon="4.7771">
        <ele>189</ele>
        <time>2018-03-14T11:18:02Z</time>
      </trkpt>
      <trkpt lat="46.06556" lon="4.77716">
        <ele>189</ele>
        <time>2018-03-14T11:18:04Z</time>
      </trkpt>
      <trkpt lat="46.06553" lon="4.77719">
        <ele>189</ele>
        <time>2018-03-14T11:18:05Z</time>
      </trkpt>
      <trkpt lat="46.06548" lon="4.77726">
        <ele>189</ele>
        <time>2018-03-14T11:18:07Z</time>
      </trkpt>
      <trkpt lat="46.06546" lon="4.77729">
        <ele>189</ele>
        <time>2018-03-14T11:18:08Z</time>
      </trkpt>
      <trkpt lat="46.06542" lon="4.77736">
        <ele>190</ele>
        <time>2018-03-14T11:18:10Z</time>
      </trkpt>
      <trkpt lat="46.0654" lon="4.7774">
        <ele>190</ele>
        <time>2018-03-14T11:18:11Z</time>
      </trkpt>
      <trkpt lat="46.06535" lon="4.77746">
        <ele>190</ele>
        <time>2018-03-14T11:18:13Z</time>
      </trkpt>
      <trkpt lat="46.06533" lon="4.7775">
        <ele>190</ele>
        <time>2018-03-14T11:18:14Z</time>
      </trkpt>
      <trkpt lat="46.06528" lon="4.77757">
        <ele>192</ele>
        <time>2018-03-14T11:18:16Z</time>
      </trkpt>
      <trkpt lat="46.06526" lon="4.77761">
        <ele>192</ele>
        <time>2018-03-14T11:18:17Z</time>
      </trkpt>
      <trkpt lat="46.06522" lon="4.77768">
        <ele>192</ele>
        <time>2018-03-14T11:18:19Z</time>
      </trkpt>
      <trkpt lat="46.0652" lon="4.77771">
        <ele>192</ele>
        <time>2018-03-14T11:18:20Z</time>
      </trkpt>
      <trkpt lat="46.06516" lon="4.77778">
        <ele>192</ele>
        <time>2018-03-14T11:18:22Z</time>
      </trkpt>
      <trkpt lat="46.06514" lon="4.77782">
        <ele>192</ele>
        <time>2018-03-14T11:18:23Z</time>
      </trkpt>
      <trkpt lat="46.0651" lon="4.77789">
        <ele>192</ele>
        <time>2018-03-14T11:18:25Z</time>
      </trkpt>
      <trkpt lat="46.06508" lon="4.77793">
        <ele>192</ele>
        <time>2018-03-14T11:18:26Z</time>
      </trkpt>
      <trkpt lat="46.06504" lon="4.778">
        <ele>192</ele>
        <time>2018-03-14T11:18:28Z</time>
      </trkpt>
      <trkpt lat="46.06502" lon="4.77804">
        <ele>192</ele>
        <time>2018-03-14T11:18:29Z</time>
      </trkpt>
      <trkpt lat="46.06499" lon="4.77811">
        <ele>192</ele>
        <time>2018-03-14T11:18:31Z</time>
      </trkpt>
      <trkpt lat="46.06497" lon="4.77815">
        <ele>192</ele>
        <time>2018-03-14T11:18:32Z</time>
      </trkpt>
      <trkpt lat="46.06494" lon="4.77823">
        <ele>192</ele>
        <time>2018-03-14T11:18:34Z</time>
      </trkpt>
      <trkpt lat="46.06493" lon="4.77828">
        <ele>192</ele>
        <time>2018-03-14T11:18:35Z</time>
      </trkpt>
      <trkpt lat="46.0649" lon="4.77836">
        <ele>192</ele>
        <time>2018-03-14T11:18:37Z</time>
      </trkpt>
      <trkpt lat="46.06488" lon="4.7784">
        <ele>192</ele>
        <time>2018-03-14T11:18:38Z</time>
      </trkpt>
      <trkpt lat="46.06485" lon="4.77848">
        <ele>192</ele>
        <time>2018-03-14T11:18:40Z</time>
      </trkpt>
      <trkpt lat="46.06484" lon="4.77852">
        <ele>192</ele>
        <time>2018-03-14T11:18:41Z</time>
      </trkpt>
      <trkpt lat="46.0648" lon="4.77863">
        <ele>192</ele>
        <time>2018-03-14T11:18:44Z</time>
      </trkpt>
      <trkpt lat="46.06479" lon="4.77867">
        <ele>193</ele>
        <time>2018-03-14T11:18:45Z</time>
      </trkpt>
      <trkpt lat="46.06476" lon="4.77877">
        <ele>193</ele>
        <time>2018-03-14T11:18:48Z</time>
      </trkpt>
      <trkpt lat="46.06475" lon="4.7788">
        <ele>193</ele>
        <time>2018-03-14T11:18:49Z</time>
      </trkpt>
      <trkpt lat="46.06471" lon="4.77889">
        <ele>193</ele>
        <time>2018-03-14T11:18:52Z</time>
      </trkpt>
      <trkpt lat="46.0647" lon="4.77892">
        <ele>193</ele>
        <time>2018-03-14T11:18:53Z</time>
      </trkpt>
      <trkpt lat="46.06466" lon="4.77902">
        <ele>193</ele>
        <time>2018-03-14T11:18:56Z</time>
      </trkpt>
      <trkpt lat="46.06465" lon="4.77906">
        <ele>193</ele>
        <time>2018-03-14T11:18:57Z</time>
      </trkpt>
      <trkpt lat="46.06463" lon="4.77916">
        <ele>193</ele>
        <time>2018-03-14T11:19:00Z</time>
      </trkpt>
      <trkpt lat="46.06462" lon="4.77919">
        <ele>194</ele>
        <time>2018-03-14T11:19:01Z</time>
      </trkpt>
      <trkpt lat="46.06458" lon="4.77929">
        <ele>195</ele>
        <time>2018-03-14T11:19:04Z</time>
      </trkpt>
      <trkpt lat="46.06456" lon="4.77933">
        <ele>195</ele>
        <time>2018-03-14T11:19:05Z</time>
      </trkpt>
      <trkpt lat="46.06453" lon="4.77943">
        <ele>195</ele>
        <time>2018-03-14T11:19:08Z</time>
      </trkpt>
      <trkpt lat="46.06452" lon="4.77947">
        <ele>195</ele>
        <time>2018-03-14T11:19:09Z</time>
      </trkpt>
      <trkpt lat="46.0645" lon="4.77959">
        <ele>195</ele>
        <time>2018-03-14T11:19:12Z</time>
      </trkpt>
      <trkpt lat="46.0645" lon="4.77963">
        <ele>195</ele>
        <time>2018-03-14T11:19:13Z</time>
      </trkpt>
      <trkpt lat="46.06447" lon="4.77975">
        <ele>195</ele>
        <time>2018-03-14T11:19:16Z</time>
      </trkpt>
      <trkpt lat="46.06447" lon="4.77979">
        <ele>195</ele>
        <time>2018-03-14T11:19:17Z</time>
      </trkpt>
      <trkpt lat="46.06444" lon="4.77991">
        <ele>195</ele>
        <time>2018-03-14T11:19:20Z</time>
      </trkpt>
      <trkpt lat="46.06443" lon="4.77995">
        <ele>195</ele>
        <time>2018-03-14T11:19:21Z</time>
      </trkpt>
      <trkpt lat="46.0644" lon="4.78007">
        <ele>197</ele>
        <time>2018-03-14T11:19:24Z</time>
      </trkpt>
      <trkpt lat="46.06439" lon="4.78011">
        <ele>197</ele>
        <time>2018-03-14T11:19:25Z</time>
      </trkpt>
      <trkpt lat="46.06436" lon="4.78019">
        <ele>197</ele>
        <time>2018-03-14T11:19:27Z</time>
      </trkpt>
      <trkpt lat="46.06434" lon="4.78023">
        <ele>198</ele>
        <time>2018-03-14T11:19:28Z</time>
      </trkpt>
      <trkpt lat="46.06429" lon="4.78033">
        <ele>198</ele>
        <time>2018-03-14T11:19:31Z</time>
      </trkpt>
      <trkpt lat="46.06427" lon="4.78036">
        <ele>198</ele>
        <time>2018-03-14T11:19:32Z</time>
      </trkpt>
      <trkpt lat="46.0642" lon="4.78043">
        <ele>198</ele>
        <time>2018-03-14T11:19:35Z</time>
      </trkpt>
      <trkpt lat="46.06417" lon="4.78046">
        <ele>198</ele>
        <time>2018-03-14T11:19:36Z</time>
      </trkpt>
      <trkpt lat="46.06412" lon="4.78052">
        <ele>198</ele>
        <time>2018-03-14T11:19:38Z</time>
      </trkpt>
      <trkpt lat="46.06405" lon="4.78062">
        <ele>198</ele>
        <time>2018-03-14T11:19:39Z</time>
      </trkpt>
      <trkpt lat="46.064" lon="4.78071">
        <ele>198</ele>
        <time>2018-03-14T11:19:41Z</time>
      </trkpt>
      <trkpt lat="46.06398" lon="4.78075">
        <ele>198</ele>
        <time>2018-03-14T11:19:42Z</time>
      </trkpt>
      <trkpt lat="46.06395" lon="4.78083">
        <ele>198</ele>
        <time>2018-03-14T11:19:44Z</time>
      </trkpt>
      <trkpt lat="46.06393" lon="4.7809">
        <ele>200</ele>
        <time>2018-03-14T11:19:45Z</time>
      </trkpt>
      <trkpt lat="46.0639" lon="4.781">
        <ele>200</ele>
        <time>2018-03-14T11:19:47Z</time>
      </trkpt>
      <trkpt lat="46.06389" lon="4.78103">
        <ele>200</ele>
        <time>2018-03-14T11:19:48Z</time>
      </trkpt>
      <trkpt lat="46.06387" lon="4.78115">
        <ele>200</ele>
        <time>2018-03-14T11:19:50Z</time>
      </trkpt>
      <trkpt lat="46.06387" lon="4.78118">
        <ele>200</ele>
        <time>2018-03-14T11:19:51Z</time>
      </trkpt>
      <trkpt lat="46.06387" lon="4.78128">
        <ele>201</ele>
        <time>2018-03-14T11:19:53Z</time>
      </trkpt>
      <trkpt lat="46.06387" lon="4.78136">
        <ele>201</ele>
        <time>2018-03-14T11:19:54Z</time>
      </trkpt>
      <trkpt lat="46.06387" lon="4.78146">
        <ele>201</ele>
        <time>2018-03-14T11:19:56Z</time>
      </trkpt>
      <trkpt lat="46.06387" lon="4.78151">
        <ele>201</ele>
        <time>2018-03-14T11:19:57Z</time>
      </trkpt>
      <trkpt lat="46.06387" lon="4.78162">
        <ele>201</ele>
        <time>2018-03-14T11:19:59Z</time>
      </trkpt>
      <trkpt lat="46.06387" lon="4.78167">
        <ele>204</ele>
        <time>2018-03-14T11:20:00Z</time>
      </trkpt>
      <trkpt lat="46.06388" lon="4.78177">
        <ele>204</ele>
        <time>2018-03-14T11:20:03Z</time>
      </trkpt>
      <trkpt lat="46.06388" lon="4.7818">
        <ele>204</ele>
        <time>2018-03-14T11:20:04Z</time>
      </trkpt>
      <trkpt lat="46.06387" lon="4.78192">
        <ele>204</ele>
        <time>2018-03-14T11:20:07Z</time>
      </trkpt>
      <trkpt lat="46.06386" lon="4.78197">
        <ele>204</ele>
        <time>2018-03-14T11:20:08Z</time>
      </trkpt>
      <trkpt lat="46.06382" lon="4.78207">
        <ele>204</ele>
        <time>2018-03-14T11:20:09Z</time>
      </trkpt>
      <trkpt lat="46.06379" lon="4.78211">
        <ele>204</ele>
        <time>2018-03-14T11:20:10Z</time>
      </trkpt>
      <trkpt lat="46.06373" lon="4.78219">
        <ele>204</ele>
        <time>2018-03-14T11:20:14Z</time>
      </trkpt>
      <trkpt lat="46.06371" lon="4.78222">
        <ele>205</ele>
        <time>2018-03-14T11:20:15Z</time>
      </trkpt>
      <trkpt lat="46.06364" lon="4.78229">
        <ele>205</ele>
        <time>2018-03-14T11:20:18Z</time>
      </trkpt>
      <trkpt lat="46.06361" lon="4.78231">
        <ele>205</ele>
        <time>2018-03-14T11:20:19Z</time>
      </trkpt>
      <trkpt lat="46.06356" lon="4.78236">
        <ele>205</ele>
        <time>2018-03-14T11:20:21Z</time>
      </trkpt>
      <trkpt lat="46.06353" lon="4.78239">
        <ele>205</ele>
        <time>2018-03-14T11:20:22Z</time>
      </trkpt>
      <trkpt lat="46.06344" lon="4.78244">
        <ele>205</ele>
        <time>2018-03-14T11:20:23Z</time>
      </trkpt>
      <trkpt lat="46.06336" lon="4.78243">
        <ele>206</ele>
        <time>2018-03-14T11:20:25Z</time>
      </trkpt>
      <trkpt lat="46.06333" lon="4.78241">
        <ele>206</ele>
        <time>2018-03-14T11:20:26Z</time>
      </trkpt>
      <trkpt lat="46.06326" lon="4.78237">
        <ele>206</ele>
        <time>2018-03-14T11:20:28Z</time>
      </trkpt>
      <trkpt lat="46.06323" lon="4.78235">
        <ele>206</ele>
        <time>2018-03-14T11:20:29Z</time>
      </trkpt>
      <trkpt lat="46.06315" lon="4.78232">
        <ele>205</ele>
        <time>2018-03-14T11:20:32Z</time>
      </trkpt>
      <trkpt lat="46.06313" lon="4.7823">
        <ele>205</ele>
        <time>2018-03-14T11:20:33Z</time>
      </trkpt>
      <trkpt lat="46.06305" lon="4.78225">
        <ele>205</ele>
        <time>2018-03-14T11:20:34Z</time>
      </trkpt>
      <trkpt lat="46.06302" lon="4.78222">
        <ele>205</ele>
        <time>2018-03-14T11:20:35Z</time>
      </trkpt>
      <trkpt lat="46.06294" lon="4.78217">
        <ele>205</ele>
        <time>2018-03-14T11:20:38Z</time>
      </trkpt>
      <trkpt lat="46.06291" lon="4.78216">
        <ele>205</ele>
        <time>2018-03-14T11:20:39Z</time>
      </trkpt>
      <trkpt lat="46.06284" lon="4.78211">
        <ele>205</ele>
        <time>2018-03-14T11:20:42Z</time>
      </trkpt>
      <trkpt lat="46.06281" lon="4.78209">
        <ele>205</ele>
        <time>2018-03-14T11:20:43Z</time>
      </trkpt>
      <trkpt lat="46.06278" lon="4.78207">
        <ele>205</ele>
        <time>2018-03-14T11:20:44Z</time>
      </trkpt>
      <trkpt lat="46.06269" lon="4.78201">
        <ele>205</ele>
        <time>2018-03-14T11:20:45Z</time>
      </trkpt>
      <trkpt lat="46.06264" lon="4.78197">
        <ele>205</ele>
        <time>2018-03-14T11:20:46Z</time>
      </trkpt>
      <trkpt lat="46.06261" lon="4.78193">
        <ele>205</ele>
        <time>2018-03-14T11:20:47Z</time>
      </trkpt>
      <trkpt lat="46.06254" lon="4.78188">
        <ele>205</ele>
        <time>2018-03-14T11:20:49Z</time>
      </trkpt>
      <trkpt lat="46.06251" lon="4.78186">
        <ele>205</ele>
        <time>2018-03-14T11:20:50Z</time>
      </trkpt>
      <trkpt lat="46.06244" lon="4.78179">
        <ele>206</ele>
        <time>2018-03-14T11:20:52Z</time>
      </trkpt>
      <trkpt lat="46.06242" lon="4.78178">
        <ele>206</ele>
        <time>2018-03-14T11:20:53Z</time>
      </trkpt>
      <trkpt lat="46.0624" lon="4.78176">
        <ele>206</ele>
        <time>2018-03-14T11:20:54Z</time>
      </trkpt>
      <trkpt lat="46.06234" lon="4.78171">
        <ele>206</ele>
        <time>2018-03-14T11:20:55Z</time>
      </trkpt>
      <trkpt lat="46.06227" lon="4.78167">
        <ele>206</ele>
        <time>2018-03-14T11:20:57Z</time>
      </trkpt>
      <trkpt lat="46.06224" lon="4.78165">
        <ele>205</ele>
        <time>2018-03-14T11:20:58Z</time>
      </trkpt>
      <trkpt lat="46.06217" lon="4.78162">
        <ele>205</ele>
        <time>2018-03-14T11:21:00Z</time>
      </trkpt>
      <trkpt lat="46.06214" lon="4.7816">
        <ele>205</ele>
        <time>2018-03-14T11:21:01Z</time>
      </trkpt>
      <trkpt lat="46.06209" lon="4.78157">
        <ele>205</ele>
        <time>2018-03-14T11:21:03Z</time>
      </trkpt>
      <trkpt lat="46.06204" lon="4.78154">
        <ele>205</ele>
        <time>2018-03-14T11:21:04Z</time>
      </trkpt>
      <trkpt lat="46.06198" lon="4.7815">
        <ele>205</ele>
        <time>2018-03-14T11:21:06Z</time>
      </trkpt>
      <trkpt lat="46.06194" lon="4.78147">
        <ele>205</ele>
        <time>2018-03-14T11:21:07Z</time>
      </trkpt>
      <trkpt lat="46.06187" lon="4.78143">
        <ele>206</ele>
        <time>2018-03-14T11:21:09Z</time>
      </trkpt>
      <trkpt lat="46.06183" lon="4.7814">
        <ele>206</ele>
        <time>2018-03-14T11:21:10Z</time>
      </trkpt>
      <trkpt lat="46.06175" lon="4.78136">
        <ele>206</ele>
        <time>2018-03-14T11:21:14Z</time>
      </trkpt>
      <trkpt lat="46.06173" lon="4.78135">
        <ele>206</ele>
        <time>2018-03-14T11:21:15Z</time>
      </trkpt>
      <trkpt lat="46.06165" lon="4.7813">
        <ele>208</ele>
        <time>2018-03-14T11:21:18Z</time>
      </trkpt>
      <trkpt lat="46.06163" lon="4.78128">
        <ele>208</ele>
        <time>2018-03-14T11:21:19Z</time>
      </trkpt>
      <trkpt lat="46.06155" lon="4.78123">
        <ele>208</ele>
        <time>2018-03-14T11:21:22Z</time>
      </trkpt>
      <trkpt lat="46.06153" lon="4.78121">
        <ele>208</ele>
        <time>2018-03-14T11:21:23Z</time>
      </trkpt>
      <trkpt lat="46.06145" lon="4.78115">
        <ele>208</ele>
        <time>2018-03-14T11:21:26Z</time>
      </trkpt>
      <trkpt lat="46.06143" lon="4.78113">
        <ele>208</ele>
        <time>2018-03-14T11:21:27Z</time>
      </trkpt>
      <trkpt lat="46.06135" lon="4.78107">
        <ele>208</ele>
        <time>2018-03-14T11:21:30Z</time>
      </trkpt>
      <trkpt lat="46.06133" lon="4.78104">
        <ele>209</ele>
        <time>2018-03-14T11:21:31Z</time>
      </trkpt>
      <trkpt lat="46.06126" lon="4.78097">
        <ele>209</ele>
        <time>2018-03-14T11:21:34Z</time>
      </trkpt>
      <trkpt lat="46.06124" lon="4.78095">
        <ele>209</ele>
        <time>2018-03-14T11:21:35Z</time>
      </trkpt>
      <trkpt lat="46.0612" lon="4.78089">
        <ele>209</ele>
        <time>2018-03-14T11:21:37Z</time>
      </trkpt>
      <trkpt lat="46.06118" lon="4.78086">
        <ele>209</ele>
        <time>2018-03-14T11:21:38Z</time>
      </trkpt>
      <trkpt lat="46.06111" lon="4.78078">
        <ele>210</ele>
        <time>2018-03-14T11:21:41Z</time>
      </trkpt>
      <trkpt lat="46.06109" lon="4.78075">
        <ele>210</ele>
        <time>2018-03-14T11:21:42Z</time>
      </trkpt>
      <trkpt lat="46.06104" lon="4.78069">
        <ele>210</ele>
        <time>2018-03-14T11:21:44Z</time>
      </trkpt>
      <trkpt lat="46.06102" lon="4.78066">
        <ele>210</ele>
        <time>2018-03-14T11:21:45Z</time>
      </trkpt>
      <trkpt lat="46.061" lon="4.78063">
        <ele>210</ele>
        <time>2018-03-14T11:21:46Z</time>
      </trkpt>
      <trkpt lat="46.06092" lon="4.78053">
        <ele>210</ele>
        <time>2018-03-14T11:21:47Z</time>
      </trkpt>
      <trkpt lat="46.06088" lon="4.78048">
        <ele>210</ele>
        <time>2018-03-14T11:21:49Z</time>
      </trkpt>
      <trkpt lat="46.06083" lon="4.78044">
        <ele>211</ele>
        <time>2018-03-14T11:21:50Z</time>
      </trkpt>
      <trkpt lat="46.06076" lon="4.78039">
        <ele>211</ele>
        <time>2018-03-14T11:21:52Z</time>
      </trkpt>
      <trkpt lat="46.06072" lon="4.78037">
        <ele>211</ele>
        <time>2018-03-14T11:21:53Z</time>
      </trkpt>
      <trkpt lat="46.06065" lon="4.78033">
        <ele>211</ele>
        <time>2018-03-14T11:21:55Z</time>
      </trkpt>
      <trkpt lat="46.06062" lon="4.7803">
        <ele>211</ele>
        <time>2018-03-14T11:21:56Z</time>
      </trkpt>
      <trkpt lat="46.06056" lon="4.78023">
        <ele>211</ele>
        <time>2018-03-14T11:21:58Z</time>
      </trkpt>
      <trkpt lat="46.06053" lon="4.7802">
        <ele>211</ele>
        <time>2018-03-14T11:21:59Z</time>
      </trkpt>
      <trkpt lat="46.06048" lon="4.78014">
        <ele>211</ele>
        <time>2018-03-14T11:22:01Z</time>
      </trkpt>
      <trkpt lat="46.06044" lon="4.78009">
        <ele>211</ele>
        <time>2018-03-14T11:22:02Z</time>
      </trkpt>
      <trkpt lat="46.06038" lon="4.78001">
        <ele>211</ele>
        <time>2018-03-14T11:22:04Z</time>
      </trkpt>
      <trkpt lat="46.06035" lon="4.77996">
        <ele>211</ele>
        <time>2018-03-14T11:22:05Z</time>
      </trkpt>
      <trkpt lat="46.06029" lon="4.77988">
        <ele>211</ele>
        <time>2018-03-14T11:22:07Z</time>
      </trkpt>
      <trkpt lat="46.06027" lon="4.77984">
        <ele>211</ele>
        <time>2018-03-14T11:22:08Z</time>
      </trkpt>
      <trkpt lat="46.06021" lon="4.77977">
        <ele>211</ele>
        <time>2018-03-14T11:22:10Z</time>
      </trkpt>
      <trkpt lat="46.06018" lon="4.77973">
        <ele>211</ele>
        <time>2018-03-14T11:22:11Z</time>
      </trkpt>
      <trkpt lat="46.06012" lon="4.77967">
        <ele>211</ele>
        <time>2018-03-14T11:22:13Z</time>
      </trkpt>
      <trkpt lat="46.06008" lon="4.77964">
        <ele>211</ele>
        <time>2018-03-14T11:22:14Z</time>
      </trkpt>
      <trkpt lat="46.06001" lon="4.77958">
        <ele>211</ele>
        <time>2018-03-14T11:22:16Z</time>
      </trkpt>
      <trkpt lat="46.05998" lon="4.77955">
        <ele>212</ele>
        <time>2018-03-14T11:22:17Z</time>
      </trkpt>
      <trkpt lat="46.05993" lon="4.77944">
        <ele>212</ele>
        <time>2018-03-14T11:22:20Z</time>
      </trkpt>
      <trkpt lat="46.05992" lon="4.77941">
        <ele>212</ele>
        <time>2018-03-14T11:22:21Z</time>
      </trkpt>
      <trkpt lat="46.0599" lon="4.77932">
        <ele>212</ele>
        <time>2018-03-14T11:22:22Z</time>
      </trkpt>
      <trkpt lat="46.05988" lon="4.77927">
        <ele>212</ele>
        <time>2018-03-14T11:22:23Z</time>
      </trkpt>
      <trkpt lat="46.05986" lon="4.77917">
        <ele>212</ele>
        <time>2018-03-14T11:22:25Z</time>
      </trkpt>
      <trkpt lat="46.05985" lon="4.77912">
        <ele>211</ele>
        <time>2018-03-14T11:22:26Z</time>
      </trkpt>
      <trkpt lat="46.05981" lon="4.77901">
        <ele>211</ele>
        <time>2018-03-14T11:22:28Z</time>
      </trkpt>
      <trkpt lat="46.05979" lon="4.77897">
        <ele>211</ele>
        <time>2018-03-14T11:22:29Z</time>
      </trkpt>
      <trkpt lat="46.05973" lon="4.77889">
        <ele>211</ele>
        <time>2018-03-14T11:22:31Z</time>
      </trkpt>
      <trkpt lat="46.0597" lon="4.77886">
        <ele>211</ele>
        <time>2018-03-14T11:22:32Z</time>
      </trkpt>
      <trkpt lat="46.05965" lon="4.77881">
        <ele>211</ele>
        <time>2018-03-14T11:22:34Z</time>
      </trkpt>
      <trkpt lat="46.05962" lon="4.77874">
        <ele>211</ele>
        <time>2018-03-14T11:22:35Z</time>
      </trkpt>
      <trkpt lat="46.05957" lon="4.77864">
        <ele>211</ele>
        <time>2018-03-14T11:22:37Z</time>
      </trkpt>
      <trkpt lat="46.05954" lon="4.77858">
        <ele>211</ele>
        <time>2018-03-14T11:22:38Z</time>
      </trkpt>
      <trkpt lat="46.05949" lon="4.77849">
        <ele>211</ele>
        <time>2018-03-14T11:22:40Z</time>
      </trkpt>
      <trkpt lat="46.05946" lon="4.77844">
        <ele>211</ele>
        <time>2018-03-14T11:22:41Z</time>
      </trkpt>
      <trkpt lat="46.05941" lon="4.77835">
        <ele>211</ele>
        <time>2018-03-14T11:22:43Z</time>
      </trkpt>
      <trkpt lat="46.05939" lon="4.77831">
        <ele>210</ele>
        <time>2018-03-14T11:22:44Z</time>
      </trkpt>
      <trkpt lat="46.05932" lon="4.77822">
        <ele>210</ele>
        <time>2018-03-14T11:22:46Z</time>
      </trkpt>
      <trkpt lat="46.05928" lon="4.77818">
        <ele>210</ele>
        <time>2018-03-14T11:22:47Z</time>
      </trkpt>
      <trkpt lat="46.05922" lon="4.7781">
        <ele>210</ele>
        <time>2018-03-14T11:22:49Z</time>
      </trkpt>
      <trkpt lat="46.05919" lon="4.77804">
        <ele>210</ele>
        <time>2018-03-14T11:22:50Z</time>
      </trkpt>
      <trkpt lat="46.05916" lon="4.77798">
        <ele>210</ele>
        <time>2018-03-14T11:22:51Z</time>
      </trkpt>
      <trkpt lat="46.05913" lon="4.77793">
        <ele>210</ele>
        <time>2018-03-14T11:22:52Z</time>
      </trkpt>
      <trkpt lat="46.05909" lon="4.77787">
        <ele>210</ele>
        <time>2018-03-14T11:22:53Z</time>
      </trkpt>
      <trkpt lat="46.05906" lon="4.77781">
        <ele>210</ele>
        <time>2018-03-14T11:22:54Z</time>
      </trkpt>
      <trkpt lat="46.05903" lon="4.77775">
        <ele>210</ele>
        <time>2018-03-14T11:22:55Z</time>
      </trkpt>
      <trkpt lat="46.05901" lon="4.77767">
        <ele>209</ele>
        <time>2018-03-14T11:22:56Z</time>
      </trkpt>
      <trkpt lat="46.05899" lon="4.7776">
        <ele>209</ele>
        <time>2018-03-14T11:22:57Z</time>
      </trkpt>
      <trkpt lat="46.05897" lon="4.77753">
        <ele>209</ele>
        <time>2018-03-14T11:22:58Z</time>
      </trkpt>
      <trkpt lat="46.05896" lon="4.77746">
        <ele>209</ele>
        <time>2018-03-14T11:22:59Z</time>
      </trkpt>
      <trkpt lat="46.05895" lon="4.77738">
        <ele>209</ele>
        <time>2018-03-14T11:23:00Z</time>
      </trkpt>
      <trkpt lat="46.05894" lon="4.77729">
        <ele>209</ele>
        <time>2018-03-14T11:23:01Z</time>
      </trkpt>
      <trkpt lat="46.05893" lon="4.7772">
        <ele>209</ele>
        <time>2018-03-14T11:23:02Z</time>
      </trkpt>
      <trkpt lat="46.05892" lon="4.77712">
        <ele>208</ele>
        <time>2018-03-14T11:23:03Z</time>
      </trkpt>
      <trkpt lat="46.0589" lon="4.77704">
        <ele>208</ele>
        <time>2018-03-14T11:23:04Z</time>
      </trkpt>
      <trkpt lat="46.05889" lon="4.77696">
        <ele>208</ele>
        <time>2018-03-14T11:23:05Z</time>
      </trkpt>
      <trkpt lat="46.05887" lon="4.77688">
        <ele>208</ele>
        <time>2018-03-14T11:23:06Z</time>
      </trkpt>
      <trkpt lat="46.05886" lon="4.77681">
        <ele>208</ele>
        <time>2018-03-14T11:23:07Z</time>
      </trkpt>
      <trkpt lat="46.05883" lon="4.77673">
        <ele>208</ele>
        <time>2018-03-14T11:23:08Z</time>
      </trkpt>
      <trkpt lat="46.0588" lon="4.77667">
        <ele>208</ele>
        <time>2018-03-14T11:23:09Z</time>
      </trkpt>
      <trkpt lat="46.05877" lon="4.77661">
        <ele>208</ele>
        <time>2018-03-14T11:23:10Z</time>
      </trkpt>
      <trkpt lat="46.05874" lon="4.77656">
        <ele>208</ele>
        <time>2018-03-14T11:23:11Z</time>
      </trkpt>
      <trkpt lat="46.05871" lon="4.77651">
        <ele>208</ele>
        <time>2018-03-14T11:23:12Z</time>
      </trkpt>
      <trkpt lat="46.05866" lon="4.77646">
        <ele>208</ele>
        <time>2018-03-14T11:23:13Z</time>
      </trkpt>
      <trkpt lat="46.05863" lon="4.77641">
        <ele>208</ele>
        <time>2018-03-14T11:23:14Z</time>
      </trkpt>
      <trkpt lat="46.05858" lon="4.77636">
        <ele>208</ele>
        <time>2018-03-14T11:23:15Z</time>
      </trkpt>
      <trkpt lat="46.05853" lon="4.77631">
        <ele>208</ele>
        <time>2018-03-14T11:23:16Z</time>
      </trkpt>
      <trkpt lat="46.05849" lon="4.77626">
        <ele>208</ele>
        <time>2018-03-14T11:23:17Z</time>
      </trkpt>
      <trkpt lat="46.05845" lon="4.77623">
        <ele>208</ele>
        <time>2018-03-14T11:23:18Z</time>
      </trkpt>
      <trkpt lat="46.05841" lon="4.77619">
        <ele>208</ele>
        <time>2018-03-14T11:23:19Z</time>
      </trkpt>
      <trkpt lat="46.05837" lon="4.77615">
        <ele>208</ele>
        <time>2018-03-14T11:23:20Z</time>
      </trkpt>
      <trkpt lat="46.05833" lon="4.77609">
        <ele>208</ele>
        <time>2018-03-14T11:23:21Z</time>
      </trkpt>
      <trkpt lat="46.05828" lon="4.77605">
        <ele>208</ele>
        <time>2018-03-14T11:23:22Z</time>
      </trkpt>
      <trkpt lat="46.05821" lon="4.77598">
        <ele>208</ele>
        <time>2018-03-14T11:23:24Z</time>
      </trkpt>
      <trkpt lat="46.05817" lon="4.77594">
        <ele>208</ele>
        <time>2018-03-14T11:23:25Z</time>
      </trkpt>
      <trkpt lat="46.05813" lon="4.77589">
        <ele>208</ele>
        <time>2018-03-14T11:23:26Z</time>
      </trkpt>
      <trkpt lat="46.05808" lon="4.77584">
        <ele>208</ele>
        <time>2018-03-14T11:23:27Z</time>
      </trkpt>
      <trkpt lat="46.05804" lon="4.77578">
        <ele>208</ele>
        <time>2018-03-14T11:23:28Z</time>
      </trkpt>
      <trkpt lat="46.05801" lon="4.77574">
        <ele>208</ele>
        <time>2018-03-14T11:23:29Z</time>
      </trkpt>
      <trkpt lat="46.05794" lon="4.77566">
        <ele>208</ele>
        <time>2018-03-14T11:23:31Z</time>
      </trkpt>
      <trkpt lat="46.05791" lon="4.77561">
        <ele>208</ele>
        <time>2018-03-14T11:23:32Z</time>
      </trkpt>
      <trkpt lat="46.05788" lon="4.77555">
        <ele>208</ele>
        <time>2018-03-14T11:23:33Z</time>
      </trkpt>
      <trkpt lat="46.05783" lon="4.77551">
        <ele>208</ele>
        <time>2018-03-14T11:23:34Z</time>
      </trkpt>
      <trkpt lat="46.0578" lon="4.77546">
        <ele>208</ele>
        <time>2018-03-14T11:23:35Z</time>
      </trkpt>
      <trkpt lat="46.05777" lon="4.7754">
        <ele>208</ele>
        <time>2018-03-14T11:23:36Z</time>
      </trkpt>
      <trkpt lat="46.05773" lon="4.77534">
        <ele>208</ele>
        <time>2018-03-14T11:23:37Z</time>
      </trkpt>
      <trkpt lat="46.05769" lon="4.77528">
        <ele>208</ele>
        <time>2018-03-14T11:23:38Z</time>
      </trkpt>
      <trkpt lat="46.05766" lon="4.77522">
        <ele>208</ele>
        <time>2018-03-14T11:23:39Z</time>
      </trkpt>
      <trkpt lat="46.05762" lon="4.77517">
        <ele>208</ele>
        <time>2018-03-14T11:23:40Z</time>
      </trkpt>
      <trkpt lat="46.05756" lon="4.77508">
        <ele>208</ele>
        <time>2018-03-14T11:23:42Z</time>
      </trkpt>
      <trkpt lat="46.05752" lon="4.77502">
        <ele>208</ele>
        <time>2018-03-14T11:23:43Z</time>
      </trkpt>
      <trkpt lat="46.05749" lon="4.77496">
        <ele>208</ele>
        <time>2018-03-14T11:23:44Z</time>
      </trkpt>
      <trkpt lat="46.05744" lon="4.7749">
        <ele>208</ele>
        <time>2018-03-14T11:23:45Z</time>
      </trkpt>
      <trkpt lat="46.0574" lon="4.77485">
        <ele>207</ele>
        <time>2018-03-14T11:23:46Z</time>
      </trkpt>
      <trkpt lat="46.05737" lon="4.77479">
        <ele>207</ele>
        <time>2018-03-14T11:23:47Z</time>
      </trkpt>
      <trkpt lat="46.05735" lon="4.77474">
        <ele>207</ele>
        <time>2018-03-14T11:23:48Z</time>
      </trkpt>
      <trkpt lat="46.0573" lon="4.77469">
        <ele>207</ele>
        <time>2018-03-14T11:23:49Z</time>
      </trkpt>
      <trkpt lat="46.05726" lon="4.77465">
        <ele>207</ele>
        <time>2018-03-14T11:23:50Z</time>
      </trkpt>
      <trkpt lat="46.05722" lon="4.7746">
        <ele>207</ele>
        <time>2018-03-14T11:23:51Z</time>
      </trkpt>
      <trkpt lat="46.05718" lon="4.77456">
        <ele>207</ele>
        <time>2018-03-14T11:23:52Z</time>
      </trkpt>
      <trkpt lat="46.05712" lon="4.77454">
        <ele>207</ele>
        <time>2018-03-14T11:23:53Z</time>
      </trkpt>
      <trkpt lat="46.05707" lon="4.77451">
        <ele>207</ele>
        <time>2018-03-14T11:23:54Z</time>
      </trkpt>
      <trkpt lat="46.05703" lon="4.77449">
        <ele>207</ele>
        <time>2018-03-14T11:23:55Z</time>
      </trkpt>
      <trkpt lat="46.05698" lon="4.77446">
        <ele>207</ele>
        <time>2018-03-14T11:23:56Z</time>
      </trkpt>
      <trkpt lat="46.05694" lon="4.77443">
        <ele>206</ele>
        <time>2018-03-14T11:23:57Z</time>
      </trkpt>
      <trkpt lat="46.0569" lon="4.7744">
        <ele>206</ele>
        <time>2018-03-14T11:23:58Z</time>
      </trkpt>
      <trkpt lat="46.05686" lon="4.77435">
        <ele>206</ele>
        <time>2018-03-14T11:23:59Z</time>
      </trkpt>
      <trkpt lat="46.05682" lon="4.77432">
        <ele>206</ele>
        <time>2018-03-14T11:24:00Z</time>
      </trkpt>
      <trkpt lat="46.05678" lon="4.77428">
        <ele>206</ele>
        <time>2018-03-14T11:24:01Z</time>
      </trkpt>
      <trkpt lat="46.05674" lon="4.77423">
        <ele>206</ele>
        <time>2018-03-14T11:24:02Z</time>
      </trkpt>
      <trkpt lat="46.05669" lon="4.7742">
        <ele>205</ele>
        <time>2018-03-14T11:24:03Z</time>
      </trkpt>
      <trkpt lat="46.05665" lon="4.77415">
        <ele>205</ele>
        <time>2018-03-14T11:24:04Z</time>
      </trkpt>
      <trkpt lat="46.05661" lon="4.7741">
        <ele>204</ele>
        <time>2018-03-14T11:24:05Z</time>
      </trkpt>
      <trkpt lat="46.05656" lon="4.77407">
        <ele>204</ele>
        <time>2018-03-14T11:24:06Z</time>
      </trkpt>
      <trkpt lat="46.05651" lon="4.77402">
        <ele>204</ele>
        <time>2018-03-14T11:24:07Z</time>
      </trkpt>
      <trkpt lat="46.05646" lon="4.77398">
        <ele>203</ele>
        <time>2018-03-14T11:24:08Z</time>
      </trkpt>
      <trkpt lat="46.05641" lon="4.77394">
        <ele>203</ele>
        <time>2018-03-14T11:24:09Z</time>
      </trkpt>
      <trkpt lat="46.05636" lon="4.77389">
        <ele>203</ele>
        <time>2018-03-14T11:24:10Z</time>
      </trkpt>
      <trkpt lat="46.05631" lon="4.77384">
        <ele>203</ele>
        <time>2018-03-14T11:24:11Z</time>
      </trkpt>
      <trkpt lat="46.05625" lon="4.7738">
        <ele>203</ele>
        <time>2018-03-14T11:24:12Z</time>
      </trkpt>
      <trkpt lat="46.0562" lon="4.77375">
        <ele>203</ele>
        <time>2018-03-14T11:24:13Z</time>
      </trkpt>
      <trkpt lat="46.05614" lon="4.77371">
        <ele>203</ele>
        <time>2018-03-14T11:24:14Z</time>
      </trkpt>
      <trkpt lat="46.05608" lon="4.77369">
        <ele>202</ele>
        <time>2018-03-14T11:24:15Z</time>
      </trkpt>
      <trkpt lat="46.05602" lon="4.77365">
        <ele>202</ele>
        <time>2018-03-14T11:24:16Z</time>
      </trkpt>
      <trkpt lat="46.05597" lon="4.77361">
        <ele>202</ele>
        <time>2018-03-14T11:24:17Z</time>
      </trkpt>
      <trkpt lat="46.05591" lon="4.77358">
        <ele>202</ele>
        <time>2018-03-14T11:24:18Z</time>
      </trkpt>
      <trkpt lat="46.05585" lon="4.77354">
        <ele>202</ele>
        <time>2018-03-14T11:24:19Z</time>
      </trkpt>
      <trkpt lat="46.0558" lon="4.77351">
        <ele>201</ele>
        <time>2018-03-14T11:24:20Z</time>
      </trkpt>
      <trkpt lat="46.05575" lon="4.77347">
        <ele>201</ele>
        <time>2018-03-14T11:24:21Z</time>
      </trkpt>
      <trkpt lat="46.0557" lon="4.77343">
        <ele>201</ele>
        <time>2018-03-14T11:24:22Z</time>
      </trkpt>
      <trkpt lat="46.05564" lon="4.7734">
        <ele>201</ele>
        <time>2018-03-14T11:24:23Z</time>
      </trkpt>
      <trkpt lat="46.05558" lon="4.77336">
        <ele>201</ele>
        <time>2018-03-14T11:24:24Z</time>
      </trkpt>
      <trkpt lat="46.05553" lon="4.77334">
        <ele>201</ele>
        <time>2018-03-14T11:24:25Z</time>
      </trkpt>
      <trkpt lat="46.05546" lon="4.77329">
        <ele>200</ele>
        <time>2018-03-14T11:24:26Z</time>
      </trkpt>
      <trkpt lat="46.05541" lon="4.77327">
        <ele>200</ele>
        <time>2018-03-14T11:24:27Z</time>
      </trkpt>
      <trkpt lat="46.05535" lon="4.77323">
        <ele>200</ele>
        <time>2018-03-14T11:24:28Z</time>
      </trkpt>
      <trkpt lat="46.05529" lon="4.7732">
        <ele>200</ele>
        <time>2018-03-14T11:24:29Z</time>
      </trkpt>
      <trkpt lat="46.05522" lon="4.77317">
        <ele>200</ele>
        <time>2018-03-14T11:24:30Z</time>
      </trkpt>
      <trkpt lat="46.05516" lon="4.77314">
        <ele>200</ele>
        <time>2018-03-14T11:24:31Z</time>
      </trkpt>
      <trkpt lat="46.0551" lon="4.77311">
        <ele>200</ele>
        <time>2018-03-14T11:24:32Z</time>
      </trkpt>
      <trkpt lat="46.05506" lon="4.77307">
        <ele>200</ele>
        <time>2018-03-14T11:24:33Z</time>
      </trkpt>
      <trkpt lat="46.05501" lon="4.77303">
        <ele>200</ele>
        <time>2018-03-14T11:24:34Z</time>
      </trkpt>
      <trkpt lat="46.05495" lon="4.773">
        <ele>201</ele>
        <time>2018-03-14T11:24:35Z</time>
      </trkpt>
      <trkpt lat="46.05491" lon="4.77297">
        <ele>201</ele>
        <time>2018-03-14T11:24:36Z</time>
      </trkpt>
      <trkpt lat="46.05485" lon="4.77294">
        <ele>201</ele>
        <time>2018-03-14T11:24:37Z</time>
      </trkpt>
      <trkpt lat="46.05481" lon="4.77291">
        <ele>201</ele>
        <time>2018-03-14T11:24:38Z</time>
      </trkpt>
      <trkpt lat="46.05476" lon="4.77288">
        <ele>201</ele>
        <time>2018-03-14T11:24:39Z</time>
      </trkpt>
      <trkpt lat="46.05471" lon="4.77285">
        <ele>201</ele>
        <time>2018-03-14T11:24:40Z</time>
      </trkpt>
      <trkpt lat="46.05467" lon="4.77282">
        <ele>201</ele>
        <time>2018-03-14T11:24:41Z</time>
      </trkpt>
      <trkpt lat="46.05462" lon="4.7728">
        <ele>201</ele>
        <time>2018-03-14T11:24:42Z</time>
      </trkpt>
      <trkpt lat="46.05457" lon="4.77277">
        <ele>201</ele>
        <time>2018-03-14T11:24:43Z</time>
      </trkpt>
      <trkpt lat="46.05452" lon="4.77276">
        <ele>201</ele>
        <time>2018-03-14T11:24:44Z</time>
      </trkpt>
      <trkpt lat="46.05448" lon="4.77273">
        <ele>201</ele>
        <time>2018-03-14T11:24:45Z</time>
      </trkpt>
      <trkpt lat="46.05444" lon="4.7727">
        <ele>201</ele>
        <time>2018-03-14T11:24:46Z</time>
      </trkpt>
      <trkpt lat="46.05439" lon="4.77268">
        <ele>201</ele>
        <time>2018-03-14T11:24:47Z</time>
      </trkpt>
      <trkpt lat="46.05433" lon="4.77266">
        <ele>201</ele>
        <time>2018-03-14T11:24:48Z</time>
      </trkpt>
      <trkpt lat="46.05429" lon="4.77264">
        <ele>201</ele>
        <time>2018-03-14T11:24:49Z</time>
      </trkpt>
      <trkpt lat="46.05423" lon="4.77261">
        <ele>201</ele>
        <time>2018-03-14T11:24:50Z</time>
      </trkpt>
      <trkpt lat="46.05419" lon="4.77259">
        <ele>201</ele>
        <time>2018-03-14T11:24:51Z</time>
      </trkpt>
      <trkpt lat="46.05413" lon="4.77257">
        <ele>202</ele>
        <time>2018-03-14T11:24:52Z</time>
      </trkpt>
      <trkpt lat="46.05409" lon="4.77254">
        <ele>202</ele>
        <time>2018-03-14T11:24:53Z</time>
      </trkpt>
      <trkpt lat="46.05404" lon="4.77253">
        <ele>202</ele>
        <time>2018-03-14T11:24:54Z</time>
      </trkpt>
      <trkpt lat="46.054" lon="4.77251">
        <ele>203</ele>
        <time>2018-03-14T11:24:55Z</time>
      </trkpt>
      <trkpt lat="46.05395" lon="4.77249">
        <ele>202</ele>
        <time>2018-03-14T11:24:56Z</time>
      </trkpt>
      <trkpt lat="46.05391" lon="4.77246">
        <ele>202</ele>
        <time>2018-03-14T11:24:57Z</time>
      </trkpt>
      <trkpt lat="46.05384" lon="4.77242">
        <ele>202</ele>
        <time>2018-03-14T11:24:59Z</time>
      </trkpt>
      <trkpt lat="46.05381" lon="4.7724">
        <ele>203</ele>
        <time>2018-03-14T11:25:00Z</time>
      </trkpt>
      <trkpt lat="46.05376" lon="4.77237">
        <ele>203</ele>
        <time>2018-03-14T11:25:01Z</time>
      </trkpt>
      <trkpt lat="46.05372" lon="4.77235">
        <ele>203</ele>
        <time>2018-03-14T11:25:02Z</time>
      </trkpt>
      <trkpt lat="46.05364" lon="4.7723">
        <ele>203</ele>
        <time>2018-03-14T11:25:04Z</time>
      </trkpt>
      <trkpt lat="46.0536" lon="4.77228">
        <ele>203</ele>
        <time>2018-03-14T11:25:05Z</time>
      </trkpt>
      <trkpt lat="46.05355" lon="4.77225">
        <ele>203</ele>
        <time>2018-03-14T11:25:06Z</time>
      </trkpt>
      <trkpt lat="46.05351" lon="4.77222">
        <ele>203</ele>
        <time>2018-03-14T11:25:07Z</time>
      </trkpt>
      <trkpt lat="46.05347" lon="4.77219">
        <ele>203</ele>
        <time>2018-03-14T11:25:08Z</time>
      </trkpt>
      <trkpt lat="46.05342" lon="4.77216">
        <ele>204</ele>
        <time>2018-03-14T11:25:09Z</time>
      </trkpt>
      <trkpt lat="46.05338" lon="4.77213">
        <ele>203</ele>
        <time>2018-03-14T11:25:10Z</time>
      </trkpt>
      <trkpt lat="46.05334" lon="4.7721">
        <ele>203</ele>
        <time>2018-03-14T11:25:11Z</time>
      </trkpt>
      <trkpt lat="46.0533" lon="4.77206">
        <ele>205</ele>
        <time>2018-03-14T11:25:12Z</time>
      </trkpt>
      <trkpt lat="46.05326" lon="4.77203">
        <ele>205</ele>
        <time>2018-03-14T11:25:13Z</time>
      </trkpt>
      <trkpt lat="46.0532" lon="4.77196">
        <ele>205</ele>
        <time>2018-03-14T11:25:15Z</time>
      </trkpt>
      <trkpt lat="46.05316" lon="4.77192">
        <ele>205</ele>
        <time>2018-03-14T11:25:16Z</time>
      </trkpt>
      <trkpt lat="46.05312" lon="4.77189">
        <ele>205</ele>
        <time>2018-03-14T11:25:17Z</time>
      </trkpt>
      <trkpt lat="46.05308" lon="4.77186">
        <ele>205</ele>
        <time>2018-03-14T11:25:18Z</time>
      </trkpt>
      <trkpt lat="46.05303" lon="4.77182">
        <ele>205</ele>
        <time>2018-03-14T11:25:19Z</time>
      </trkpt>
      <trkpt lat="46.05299" lon="4.77177">
        <ele>205</ele>
        <time>2018-03-14T11:25:20Z</time>
      </trkpt>
      <trkpt lat="46.05294" lon="4.77172">
        <ele>205</ele>
        <time>2018-03-14T11:25:21Z</time>
      </trkpt>
      <trkpt lat="46.05289" lon="4.77167">
        <ele>206</ele>
        <time>2018-03-14T11:25:22Z</time>
      </trkpt>
      <trkpt lat="46.05285" lon="4.77163">
        <ele>204</ele>
        <time>2018-03-14T11:25:23Z</time>
      </trkpt>
      <trkpt lat="46.05281" lon="4.77159">
        <ele>204</ele>
        <time>2018-03-14T11:25:24Z</time>
      </trkpt>
      <trkpt lat="46.05277" lon="4.77156">
        <ele>204</ele>
        <time>2018-03-14T11:25:25Z</time>
      </trkpt>
      <trkpt lat="46.05273" lon="4.77151">
        <ele>204</ele>
        <time>2018-03-14T11:25:26Z</time>
      </trkpt>
      <trkpt lat="46.05269" lon="4.77147">
        <ele>204</ele>
        <time>2018-03-14T11:25:27Z</time>
      </trkpt>
      <trkpt lat="46.05265" lon="4.77142">
        <ele>204</ele>
        <time>2018-03-14T11:25:28Z</time>
      </trkpt>
      <trkpt lat="46.05261" lon="4.77137">
        <ele>204</ele>
        <time>2018-03-14T11:25:29Z</time>
      </trkpt>
      <trkpt lat="46.05256" lon="4.77132">
        <ele>204</ele>
        <time>2018-03-14T11:25:30Z</time>
      </trkpt>
      <trkpt lat="46.05252" lon="4.77128">
        <ele>204</ele>
        <time>2018-03-14T11:25:31Z</time>
      </trkpt>
      <trkpt lat="46.05248" lon="4.77124">
        <ele>204</ele>
        <time>2018-03-14T11:25:32Z</time>
      </trkpt>
      <trkpt lat="46.05243" lon="4.7712">
        <ele>204</ele>
        <time>2018-03-14T11:25:33Z</time>
      </trkpt>
      <trkpt lat="46.05238" lon="4.77114">
        <ele>203</ele>
        <time>2018-03-14T11:25:34Z</time>
      </trkpt>
      <trkpt lat="46.05232" lon="4.7711">
        <ele>203</ele>
        <time>2018-03-14T11:25:35Z</time>
      </trkpt>
      <trkpt lat="46.05227" lon="4.77104">
        <ele>203</ele>
        <time>2018-03-14T11:25:36Z</time>
      </trkpt>
      <trkpt lat="46.05223" lon="4.77097">
        <ele>203</ele>
        <time>2018-03-14T11:25:37Z</time>
      </trkpt>
      <trkpt lat="46.05221" lon="4.77088">
        <ele>203</ele>
        <time>2018-03-14T11:25:38Z</time>
      </trkpt>
      <trkpt lat="46.05216" lon="4.7708">
        <ele>201</ele>
        <time>2018-03-14T11:25:39Z</time>
      </trkpt>
      <trkpt lat="46.05212" lon="4.7707">
        <ele>201</ele>
        <time>2018-03-14T11:25:40Z</time>
      </trkpt>
      <trkpt lat="46.05209" lon="4.77062">
        <ele>201</ele>
        <time>2018-03-14T11:25:41Z</time>
      </trkpt>
      <trkpt lat="46.05207" lon="4.77054">
        <ele>201</ele>
        <time>2018-03-14T11:25:42Z</time>
      </trkpt>
      <trkpt lat="46.05205" lon="4.77045">
        <ele>201</ele>
        <time>2018-03-14T11:25:43Z</time>
      </trkpt>
      <trkpt lat="46.05202" lon="4.77036">
        <ele>200</ele>
        <time>2018-03-14T11:25:44Z</time>
      </trkpt>
      <trkpt lat="46.05199" lon="4.77026">
        <ele>200</ele>
        <time>2018-03-14T11:25:45Z</time>
      </trkpt>
      <trkpt lat="46.05196" lon="4.77016">
        <ele>200</ele>
        <time>2018-03-14T11:25:46Z</time>
      </trkpt>
      <trkpt lat="46.05194" lon="4.77007">
        <ele>200</ele>
        <time>2018-03-14T11:25:47Z</time>
      </trkpt>
      <trkpt lat="46.05191" lon="4.76999">
        <ele>198</ele>
        <time>2018-03-14T11:25:48Z</time>
      </trkpt>
      <trkpt lat="46.05187" lon="4.76988">
        <ele>198</ele>
        <time>2018-03-14T11:25:49Z</time>
      </trkpt>
      <trkpt lat="46.05184" lon="4.76979">
        <ele>198</ele>
        <time>2018-03-14T11:25:50Z</time>
      </trkpt>
      <trkpt lat="46.05181" lon="4.76969">
        <ele>198</ele>
        <time>2018-03-14T11:25:51Z</time>
      </trkpt>
      <trkpt lat="46.05178" lon="4.7696">
        <ele>198</ele>
        <time>2018-03-14T11:25:52Z</time>
      </trkpt>
      <trkpt lat="46.05174" lon="4.76951">
        <ele>197</ele>
        <time>2018-03-14T11:25:53Z</time>
      </trkpt>
      <trkpt lat="46.05171" lon="4.76942">
        <ele>197</ele>
        <time>2018-03-14T11:25:54Z</time>
      </trkpt>
      <trkpt lat="46.05165" lon="4.76934">
        <ele>196</ele>
        <time>2018-03-14T11:25:55Z</time>
      </trkpt>
      <trkpt lat="46.05161" lon="4.76925">
        <ele>196</ele>
        <time>2018-03-14T11:25:56Z</time>
      </trkpt>
      <trkpt lat="46.05157" lon="4.76917">
        <ele>196</ele>
        <time>2018-03-14T11:25:57Z</time>
      </trkpt>
      <trkpt lat="46.05153" lon="4.7691">
        <ele>195</ele>
        <time>2018-03-14T11:25:58Z</time>
      </trkpt>
      <trkpt lat="46.0515" lon="4.76904">
        <ele>195</ele>
        <time>2018-03-14T11:25:59Z</time>
      </trkpt>
      <trkpt lat="46.05144" lon="4.76895">
        <ele>195</ele>
        <time>2018-03-14T11:26:00Z</time>
      </trkpt>
      <trkpt lat="46.05139" lon="4.76887">
        <ele>195</ele>
        <time>2018-03-14T11:26:01Z</time>
      </trkpt>
      <trkpt lat="46.05135" lon="4.76878">
        <ele>195</ele>
        <time>2018-03-14T11:26:02Z</time>
      </trkpt>
      <trkpt lat="46.05133" lon="4.76869">
        <ele>195</ele>
        <time>2018-03-14T11:26:03Z</time>
      </trkpt>
      <trkpt lat="46.05129" lon="4.76861">
        <ele>195</ele>
        <time>2018-03-14T11:26:04Z</time>
      </trkpt>
      <trkpt lat="46.05126" lon="4.76853">
        <ele>195</ele>
        <time>2018-03-14T11:26:05Z</time>
      </trkpt>
      <trkpt lat="46.05122" lon="4.76845">
        <ele>195</ele>
        <time>2018-03-14T11:26:06Z</time>
      </trkpt>
      <trkpt lat="46.05119" lon="4.76836">
        <ele>195</ele>
        <time>2018-03-14T11:26:07Z</time>
      </trkpt>
      <trkpt lat="46.05116" lon="4.76827">
        <ele>194</ele>
        <time>2018-03-14T11:26:08Z</time>
      </trkpt>
      <trkpt lat="46.05114" lon="4.76818">
        <ele>194</ele>
        <time>2018-03-14T11:26:09Z</time>
      </trkpt>
      <trkpt lat="46.05111" lon="4.7681">
        <ele>194</ele>
        <time>2018-03-14T11:26:10Z</time>
      </trkpt>
      <trkpt lat="46.05109" lon="4.76803">
        <ele>194</ele>
        <time>2018-03-14T11:26:11Z</time>
      </trkpt>
      <trkpt lat="46.05106" lon="4.76794">
        <ele>194</ele>
        <time>2018-03-14T11:26:12Z</time>
      </trkpt>
      <trkpt lat="46.05104" lon="4.76785">
        <ele>194</ele>
        <time>2018-03-14T11:26:13Z</time>
      </trkpt>
      <trkpt lat="46.05101" lon="4.76776">
        <ele>194</ele>
        <time>2018-03-14T11:26:14Z</time>
      </trkpt>
      <trkpt lat="46.051" lon="4.76767">
        <ele>194</ele>
        <time>2018-03-14T11:26:15Z</time>
      </trkpt>
      <trkpt lat="46.05098" lon="4.76758">
        <ele>194</ele>
        <time>2018-03-14T11:26:16Z</time>
      </trkpt>
      <trkpt lat="46.05096" lon="4.76748">
        <ele>193</ele>
        <time>2018-03-14T11:26:17Z</time>
      </trkpt>
      <trkpt lat="46.05095" lon="4.7674">
        <ele>193</ele>
        <time>2018-03-14T11:26:18Z</time>
      </trkpt>
      <trkpt lat="46.05092" lon="4.7673">
        <ele>193</ele>
        <time>2018-03-14T11:26:19Z</time>
      </trkpt>
      <trkpt lat="46.0509" lon="4.76721">
        <ele>193</ele>
        <time>2018-03-14T11:26:20Z</time>
      </trkpt>
      <trkpt lat="46.05088" lon="4.76713">
        <ele>193</ele>
        <time>2018-03-14T11:26:21Z</time>
      </trkpt>
      <trkpt lat="46.05087" lon="4.76704">
        <ele>193</ele>
        <time>2018-03-14T11:26:22Z</time>
      </trkpt>
      <trkpt lat="46.05086" lon="4.76695">
        <ele>193</ele>
        <time>2018-03-14T11:26:23Z</time>
      </trkpt>
      <trkpt lat="46.05084" lon="4.76687">
        <ele>193</ele>
        <time>2018-03-14T11:26:24Z</time>
      </trkpt>
      <trkpt lat="46.05082" lon="4.76678">
        <ele>193</ele>
        <time>2018-03-14T11:26:25Z</time>
      </trkpt>
      <trkpt lat="46.05081" lon="4.76669">
        <ele>193</ele>
        <time>2018-03-14T11:26:26Z</time>
      </trkpt>
      <trkpt lat="46.0508" lon="4.76661">
        <ele>193</ele>
        <time>2018-03-14T11:26:27Z</time>
      </trkpt>
      <trkpt lat="46.05079" lon="4.76653">
        <ele>192</ele>
        <time>2018-03-14T11:26:28Z</time>
      </trkpt>
      <trkpt lat="46.05078" lon="4.76643">
        <ele>192</ele>
        <time>2018-03-14T11:26:30Z</time>
      </trkpt>
      <trkpt lat="46.05078" lon="4.7664">
        <ele>192</ele>
        <time>2018-03-14T11:26:31Z</time>
      </trkpt>
      <trkpt lat="46.05077" lon="4.76628">
        <ele>192</ele>
        <time>2018-03-14T11:26:35Z</time>
      </trkpt>
      <trkpt lat="46.05077" lon="4.76625">
        <ele>192</ele>
        <time>2018-03-14T11:26:36Z</time>
      </trkpt>
      <trkpt lat="46.05079" lon="4.76614">
        <ele>191</ele>
        <time>2018-03-14T11:26:47Z</time>
      </trkpt>
      <trkpt lat="46.0508" lon="4.76612">
        <ele>191</ele>
        <time>2018-03-14T11:26:48Z</time>
      </trkpt>
      <trkpt lat="46.05077" lon="4.76603">
        <ele>191</ele>
        <time>2018-03-14T11:26:52Z</time>
      </trkpt>
      <trkpt lat="46.05075" lon="4.766">
        <ele>191</ele>
        <time>2018-03-14T11:26:53Z</time>
      </trkpt>
      <trkpt lat="46.05069" lon="4.76596">
        <ele>191</ele>
        <time>2018-03-14T11:26:55Z</time>
      </trkpt>
      <trkpt lat="46.05067" lon="4.76594">
        <ele>191</ele>
        <time>2018-03-14T11:26:56Z</time>
      </trkpt>
      <trkpt lat="46.05061" lon="4.7659">
        <ele>191</ele>
        <time>2018-03-14T11:26:58Z</time>
      </trkpt>
      <trkpt lat="46.05057" lon="4.76588">
        <ele>191</ele>
        <time>2018-03-14T11:26:59Z</time>
      </trkpt>
      <trkpt lat="46.05051" lon="4.76583">
        <ele>190</ele>
        <time>2018-03-14T11:27:01Z</time>
      </trkpt>
      <trkpt lat="46.05048" lon="4.76581">
        <ele>190</ele>
        <time>2018-03-14T11:27:02Z</time>
      </trkpt>
      <trkpt lat="46.05045" lon="4.76578">
        <ele>190</ele>
        <time>2018-03-14T11:27:03Z</time>
      </trkpt>
      <trkpt lat="46.05036" lon="4.76571">
        <ele>190</ele>
        <time>2018-03-14T11:27:04Z</time>
      </trkpt>
      <trkpt lat="46.05029" lon="4.76567">
        <ele>190</ele>
        <time>2018-03-14T11:27:06Z</time>
      </trkpt>
      <trkpt lat="46.05025" lon="4.76565">
        <ele>190</ele>
        <time>2018-03-14T11:27:07Z</time>
      </trkpt>
      <trkpt lat="46.05017" lon="4.76563">
        <ele>190</ele>
        <time>2018-03-14T11:27:10Z</time>
      </trkpt>
      <trkpt lat="46.0501" lon="4.76558">
        <ele>190</ele>
        <time>2018-03-14T11:27:11Z</time>
      </trkpt>
      <trkpt lat="46.05008" lon="4.76554">
        <ele>190</ele>
        <time>2018-03-14T11:27:12Z</time>
      </trkpt>
      <trkpt lat="46.05004" lon="4.76548">
        <ele>190</ele>
        <time>2018-03-14T11:27:13Z</time>
      </trkpt>
      <trkpt lat="46.05002" lon="4.76542">
        <ele>190</ele>
        <time>2018-03-14T11:27:14Z</time>
      </trkpt>
      <trkpt lat="46.04999" lon="4.76537">
        <ele>191</ele>
        <time>2018-03-14T11:27:15Z</time>
      </trkpt>
      <trkpt lat="46.04996" lon="4.76531">
        <ele>191</ele>
        <time>2018-03-14T11:27:16Z</time>
      </trkpt>
      <trkpt lat="46.04994" lon="4.76526">
        <ele>191</ele>
        <time>2018-03-14T11:27:17Z</time>
      </trkpt>
      <trkpt lat="46.04989" lon="4.76516">
        <ele>191</ele>
        <time>2018-03-14T11:27:19Z</time>
      </trkpt>
      <trkpt lat="46.04986" lon="4.76511">
        <ele>191</ele>
        <time>2018-03-14T11:27:20Z</time>
      </trkpt>
      <trkpt lat="46.04984" lon="4.76505">
        <ele>191</ele>
        <time>2018-03-14T11:27:21Z</time>
      </trkpt>
      <trkpt lat="46.04982" lon="4.76499">
        <ele>190</ele>
        <time>2018-03-14T11:27:22Z</time>
      </trkpt>
      <trkpt lat="46.0498" lon="4.76493">
        <ele>190</ele>
        <time>2018-03-14T11:27:23Z</time>
      </trkpt>
      <trkpt lat="46.04978" lon="4.76486">
        <ele>191</ele>
        <time>2018-03-14T11:27:24Z</time>
      </trkpt>
      <trkpt lat="46.04977" lon="4.7648">
        <ele>191</ele>
        <time>2018-03-14T11:27:25Z</time>
      </trkpt>
      <trkpt lat="46.04975" lon="4.76473">
        <ele>191</ele>
        <time>2018-03-14T11:27:26Z</time>
      </trkpt>
      <trkpt lat="46.04973" lon="4.76467">
        <ele>191</ele>
        <time>2018-03-14T11:27:27Z</time>
      </trkpt>
      <trkpt lat="46.04971" lon="4.7646">
        <ele>191</ele>
        <time>2018-03-14T11:27:28Z</time>
      </trkpt>
      <trkpt lat="46.04969" lon="4.76455">
        <ele>190</ele>
        <time>2018-03-14T11:27:29Z</time>
      </trkpt>
      <trkpt lat="46.04966" lon="4.76449">
        <ele>190</ele>
        <time>2018-03-14T11:27:30Z</time>
      </trkpt>
      <trkpt lat="46.04963" lon="4.76442">
        <ele>190</ele>
        <time>2018-03-14T11:27:31Z</time>
      </trkpt>
      <trkpt lat="46.0496" lon="4.76438">
        <ele>191</ele>
        <time>2018-03-14T11:27:32Z</time>
      </trkpt>
      <trkpt lat="46.04952" lon="4.76432">
        <ele>191</ele>
        <time>2018-03-14T11:27:34Z</time>
      </trkpt>
      <trkpt lat="46.04948" lon="4.76429">
        <ele>191</ele>
        <time>2018-03-14T11:27:35Z</time>
      </trkpt>
      <trkpt lat="46.04943" lon="4.76428">
        <ele>191</ele>
        <time>2018-03-14T11:27:36Z</time>
      </trkpt>
      <trkpt lat="46.04939" lon="4.76428">
        <ele>191</ele>
        <time>2018-03-14T11:27:37Z</time>
      </trkpt>
      <trkpt lat="46.04932" lon="4.76428">
        <ele>191</ele>
        <time>2018-03-14T11:27:38Z</time>
      </trkpt>
      <trkpt lat="46.04928" lon="4.76428">
        <ele>191</ele>
        <time>2018-03-14T11:27:39Z</time>
      </trkpt>
      <trkpt lat="46.0492" lon="4.76433">
        <ele>191</ele>
        <time>2018-03-14T11:27:41Z</time>
      </trkpt>
      <trkpt lat="46.04916" lon="4.76435">
        <ele>193</ele>
        <time>2018-03-14T11:27:42Z</time>
      </trkpt>
      <trkpt lat="46.04908" lon="4.76441">
        <ele>193</ele>
        <time>2018-03-14T11:27:44Z</time>
      </trkpt>
      <trkpt lat="46.04907" lon="4.76442">
        <ele>193</ele>
        <time>2018-03-14T11:27:45Z</time>
      </trkpt>
      <trkpt lat="46.04905" lon="4.76443">
        <ele>193</ele>
        <time>2018-03-14T11:27:46Z</time>
      </trkpt>
      <trkpt lat="46.04897" lon="4.76445">
        <ele>193</ele>
        <time>2018-03-14T11:27:47Z</time>
      </trkpt>
      <trkpt lat="46.04888" lon="4.76447">
        <ele>193</ele>
        <time>2018-03-14T11:27:50Z</time>
      </trkpt>
      <trkpt lat="46.04887" lon="4.76447">
        <ele>193</ele>
        <time>2018-03-14T11:27:51Z</time>
      </trkpt>
      <trkpt lat="46.04879" lon="4.76448">
        <ele>193</ele>
        <time>2018-03-14T11:27:54Z</time>
      </trkpt>
      <trkpt lat="46.0487" lon="4.76449">
        <ele>193</ele>
        <time>2018-03-14T11:27:55Z</time>
      </trkpt>
      <trkpt lat="46.04863" lon="4.76449">
        <ele>193</ele>
        <time>2018-03-14T11:27:57Z</time>
      </trkpt>
      <trkpt lat="46.04859" lon="4.76448">
        <ele>193</ele>
        <time>2018-03-14T11:27:58Z</time>
      </trkpt>
      <trkpt lat="46.04851" lon="4.76447">
        <ele>193</ele>
        <time>2018-03-14T11:28:00Z</time>
      </trkpt>
      <trkpt lat="46.04844" lon="4.76448">
        <ele>194</ele>
        <time>2018-03-14T11:28:01Z</time>
      </trkpt>
      <trkpt lat="46.04839" lon="4.76449">
        <ele>194</ele>
        <time>2018-03-14T11:28:02Z</time>
      </trkpt>
      <trkpt lat="46.04834" lon="4.76449">
        <ele>194</ele>
        <time>2018-03-14T11:28:03Z</time>
      </trkpt>
      <trkpt lat="46.04828" lon="4.76447">
        <ele>193</ele>
        <time>2018-03-14T11:28:05Z</time>
      </trkpt>
      <trkpt lat="46.04824" lon="4.76445">
        <ele>193</ele>
        <time>2018-03-14T11:28:06Z</time>
      </trkpt>
      <trkpt lat="46.04819" lon="4.76445">
        <ele>193</ele>
        <time>2018-03-14T11:28:07Z</time>
      </trkpt>
      <trkpt lat="46.04814" lon="4.76444">
        <ele>193</ele>
        <time>2018-03-14T11:28:08Z</time>
      </trkpt>
      <trkpt lat="46.04809" lon="4.76442">
        <ele>193</ele>
        <time>2018-03-14T11:28:09Z</time>
      </trkpt>
      <trkpt lat="46.04803" lon="4.76442">
        <ele>193</ele>
        <time>2018-03-14T11:28:10Z</time>
      </trkpt>
      <trkpt lat="46.04798" lon="4.76442">
        <ele>193</ele>
        <time>2018-03-14T11:28:11Z</time>
      </trkpt>
      <trkpt lat="46.04792" lon="4.76442">
        <ele>193</ele>
        <time>2018-03-14T11:28:12Z</time>
      </trkpt>
      <trkpt lat="46.04786" lon="4.76444">
        <ele>192</ele>
        <time>2018-03-14T11:28:13Z</time>
      </trkpt>
      <trkpt lat="46.04783" lon="4.76447">
        <ele>192</ele>
        <time>2018-03-14T11:28:14Z</time>
      </trkpt>
      <trkpt lat="46.04778" lon="4.76449">
        <ele>192</ele>
        <time>2018-03-14T11:28:15Z</time>
      </trkpt>
      <trkpt lat="46.04773" lon="4.76452">
        <ele>192</ele>
        <time>2018-03-14T11:28:16Z</time>
      </trkpt>
      <trkpt lat="46.04768" lon="4.76455">
        <ele>192</ele>
        <time>2018-03-14T11:28:17Z</time>
      </trkpt>
      <trkpt lat="46.04763" lon="4.76459">
        <ele>192</ele>
        <time>2018-03-14T11:28:18Z</time>
      </trkpt>
      <trkpt lat="46.04755" lon="4.76465">
        <ele>192</ele>
        <time>2018-03-14T11:28:20Z</time>
      </trkpt>
      <trkpt lat="46.04751" lon="4.76468">
        <ele>192</ele>
        <time>2018-03-14T11:28:21Z</time>
      </trkpt>
      <trkpt lat="46.04745" lon="4.76471">
        <ele>190</ele>
        <time>2018-03-14T11:28:22Z</time>
      </trkpt>
      <trkpt lat="46.04741" lon="4.76474">
        <ele>190</ele>
        <time>2018-03-14T11:28:23Z</time>
      </trkpt>
      <trkpt lat="46.04735" lon="4.76476">
        <ele>190</ele>
        <time>2018-03-14T11:28:24Z</time>
      </trkpt>
      <trkpt lat="46.0473" lon="4.76478">
        <ele>189</ele>
        <time>2018-03-14T11:28:25Z</time>
      </trkpt>
      <trkpt lat="46.04724" lon="4.76481">
        <ele>189</ele>
        <time>2018-03-14T11:28:26Z</time>
      </trkpt>
      <trkpt lat="46.04719" lon="4.76484">
        <ele>189</ele>
        <time>2018-03-14T11:28:27Z</time>
      </trkpt>
      <trkpt lat="46.04712" lon="4.76486">
        <ele>189</ele>
        <time>2018-03-14T11:28:28Z</time>
      </trkpt>
      <trkpt lat="46.04706" lon="4.76488">
        <ele>189</ele>
        <time>2018-03-14T11:28:29Z</time>
      </trkpt>
      <trkpt lat="46.04699" lon="4.7649">
        <ele>188</ele>
        <time>2018-03-14T11:28:30Z</time>
      </trkpt>
      <trkpt lat="46.04694" lon="4.76494">
        <ele>188</ele>
        <time>2018-03-14T11:28:31Z</time>
      </trkpt>
      <trkpt lat="46.04687" lon="4.76497">
        <ele>188</ele>
        <time>2018-03-14T11:28:32Z</time>
      </trkpt>
      <trkpt lat="46.04682" lon="4.76501">
        <ele>187</ele>
        <time>2018-03-14T11:28:33Z</time>
      </trkpt>
      <trkpt lat="46.04677" lon="4.76504">
        <ele>187</ele>
        <time>2018-03-14T11:28:34Z</time>
      </trkpt>
      <trkpt lat="46.04672" lon="4.76507">
        <ele>186</ele>
        <time>2018-03-14T11:28:35Z</time>
      </trkpt>
      <trkpt lat="46.04666" lon="4.76509">
        <ele>186</ele>
        <time>2018-03-14T11:28:36Z</time>
      </trkpt>
      <trkpt lat="46.0466" lon="4.7651">
        <ele>186</ele>
        <time>2018-03-14T11:28:37Z</time>
      </trkpt>
      <trkpt lat="46.04654" lon="4.7651">
        <ele>186</ele>
        <time>2018-03-14T11:28:38Z</time>
      </trkpt>
      <trkpt lat="46.04647" lon="4.7651">
        <ele>186</ele>
        <time>2018-03-14T11:28:39Z</time>
      </trkpt>
      <trkpt lat="46.04641" lon="4.76512">
        <ele>186</ele>
        <time>2018-03-14T11:28:40Z</time>
      </trkpt>
      <trkpt lat="46.04634" lon="4.76514">
        <ele>186</ele>
        <time>2018-03-14T11:28:41Z</time>
      </trkpt>
      <trkpt lat="46.04629" lon="4.76516">
        <ele>186</ele>
        <time>2018-03-14T11:28:42Z</time>
      </trkpt>
      <trkpt lat="46.04624" lon="4.76519">
        <ele>186</ele>
        <time>2018-03-14T11:28:43Z</time>
      </trkpt>
      <trkpt lat="46.04619" lon="4.76521">
        <ele>186</ele>
        <time>2018-03-14T11:28:44Z</time>
      </trkpt>
      <trkpt lat="46.04613" lon="4.76522">
        <ele>186</ele>
        <time>2018-03-14T11:28:45Z</time>
      </trkpt>
      <trkpt lat="46.04609" lon="4.76526">
        <ele>186</ele>
        <time>2018-03-14T11:28:46Z</time>
      </trkpt>
      <trkpt lat="46.04603" lon="4.76528">
        <ele>186</ele>
        <time>2018-03-14T11:28:47Z</time>
      </trkpt>
      <trkpt lat="46.04598" lon="4.76531">
        <ele>186</ele>
        <time>2018-03-14T11:28:48Z</time>
      </trkpt>
      <trkpt lat="46.04595" lon="4.76533">
        <ele>186</ele>
        <time>2018-03-14T11:28:49Z</time>
      </trkpt>
      <trkpt lat="46.0459" lon="4.76534">
        <ele>186</ele>
        <time>2018-03-14T11:28:50Z</time>
      </trkpt>
      <trkpt lat="46.04584" lon="4.76536">
        <ele>186</ele>
        <time>2018-03-14T11:28:51Z</time>
      </trkpt>
      <trkpt lat="46.04576" lon="4.76539">
        <ele>187</ele>
        <time>2018-03-14T11:28:53Z</time>
      </trkpt>
      <trkpt lat="46.04571" lon="4.7654">
        <ele>187</ele>
        <time>2018-03-14T11:28:54Z</time>
      </trkpt>
      <trkpt lat="46.04567" lon="4.76544">
        <ele>187</ele>
        <time>2018-03-14T11:28:55Z</time>
      </trkpt>
      <trkpt lat="46.04563" lon="4.76547">
        <ele>187</ele>
        <time>2018-03-14T11:28:56Z</time>
      </trkpt>
      <trkpt lat="46.04558" lon="4.76549">
        <ele>188</ele>
        <time>2018-03-14T11:28:57Z</time>
      </trkpt>
      <trkpt lat="46.04553" lon="4.7655">
        <ele>188</ele>
        <time>2018-03-14T11:28:58Z</time>
      </trkpt>
      <trkpt lat="46.04548" lon="4.76551">
        <ele>188</ele>
        <time>2018-03-14T11:28:59Z</time>
      </trkpt>
      <trkpt lat="46.04542" lon="4.76552">
        <ele>188</ele>
        <time>2018-03-14T11:29:00Z</time>
      </trkpt>
      <trkpt lat="46.04536" lon="4.76554">
        <ele>188</ele>
        <time>2018-03-14T11:29:02Z</time>
      </trkpt>
      <trkpt lat="46.04533" lon="4.76554">
        <ele>188</ele>
        <time>2018-03-14T11:29:03Z</time>
      </trkpt>
      <trkpt lat="46.04527" lon="4.76554">
        <ele>189</ele>
        <time>2018-03-14T11:29:04Z</time>
      </trkpt>
      <trkpt lat="46.04523" lon="4.76555">
        <ele>189</ele>
        <time>2018-03-14T11:29:05Z</time>
      </trkpt>
      <trkpt lat="46.04514" lon="4.76557">
        <ele>189</ele>
        <time>2018-03-14T11:29:08Z</time>
      </trkpt>
      <trkpt lat="46.04512" lon="4.76557">
        <ele>189</ele>
        <time>2018-03-14T11:29:09Z</time>
      </trkpt>
      <trkpt lat="46.04504" lon="4.76556">
        <ele>189</ele>
        <time>2018-03-14T11:29:12Z</time>
      </trkpt>
      <trkpt lat="46.04502" lon="4.76556">
        <ele>189</ele>
        <time>2018-03-14T11:29:13Z</time>
      </trkpt>
      <trkpt lat="46.04495" lon="4.76556">
        <ele>192</ele>
        <time>2018-03-14T11:29:16Z</time>
      </trkpt>
      <trkpt lat="46.04492" lon="4.76555">
        <ele>193</ele>
        <time>2018-03-14T11:29:17Z</time>
      </trkpt>
      <trkpt lat="46.04485" lon="4.76554">
        <ele>193</ele>
        <time>2018-03-14T11:29:20Z</time>
      </trkpt>
      <trkpt lat="46.04482" lon="4.76554">
        <ele>193</ele>
        <time>2018-03-14T11:29:21Z</time>
      </trkpt>
      <trkpt lat="46.04475" lon="4.76555">
        <ele>193</ele>
        <time>2018-03-14T11:29:24Z</time>
      </trkpt>
      <trkpt lat="46.04473" lon="4.76555">
        <ele>193</ele>
        <time>2018-03-14T11:29:25Z</time>
      </trkpt>
      <trkpt lat="46.04466" lon="4.76555">
        <ele>193</ele>
        <time>2018-03-14T11:29:28Z</time>
      </trkpt>
      <trkpt lat="46.04457" lon="4.76554">
        <ele>194</ele>
        <time>2018-03-14T11:29:29Z</time>
      </trkpt>
      <trkpt lat="46.0445" lon="4.76554">
        <ele>194</ele>
        <time>2018-03-14T11:29:32Z</time>
      </trkpt>
      <trkpt lat="46.04447" lon="4.76554">
        <ele>194</ele>
        <time>2018-03-14T11:29:33Z</time>
      </trkpt>
      <trkpt lat="46.0444" lon="4.76552">
        <ele>194</ele>
        <time>2018-03-14T11:29:36Z</time>
      </trkpt>
      <trkpt lat="46.04437" lon="4.76552">
        <ele>195</ele>
        <time>2018-03-14T11:29:37Z</time>
      </trkpt>
      <trkpt lat="46.04431" lon="4.76552">
        <ele>195</ele>
        <time>2018-03-14T11:29:39Z</time>
      </trkpt>
      <trkpt lat="46.04428" lon="4.76552">
        <ele>195</ele>
        <time>2018-03-14T11:29:40Z</time>
      </trkpt>
      <trkpt lat="46.04421" lon="4.76553">
        <ele>195</ele>
        <time>2018-03-14T11:29:42Z</time>
      </trkpt>
      <trkpt lat="46.04408" lon="4.76553">
        <ele>197</ele>
        <time>2018-03-14T11:29:43Z</time>
      </trkpt>
      <trkpt lat="46.04403" lon="4.76554">
        <ele>197</ele>
        <time>2018-03-14T11:29:45Z</time>
      </trkpt>
      <trkpt lat="46.04395" lon="4.76556">
        <ele>197</ele>
        <time>2018-03-14T11:29:46Z</time>
      </trkpt>
      <trkpt lat="46.04388" lon="4.76559">
        <ele>197</ele>
        <time>2018-03-14T11:29:49Z</time>
      </trkpt>
      <trkpt lat="46.04385" lon="4.7656">
        <ele>197</ele>
        <time>2018-03-14T11:29:50Z</time>
      </trkpt>
      <trkpt lat="46.04378" lon="4.76563">
        <ele>197</ele>
        <time>2018-03-14T11:29:52Z</time>
      </trkpt>
      <trkpt lat="46.04374" lon="4.76564">
        <ele>197</ele>
        <time>2018-03-14T11:29:53Z</time>
      </trkpt>
      <trkpt lat="46.04367" lon="4.76565">
        <ele>197</ele>
        <time>2018-03-14T11:29:55Z</time>
      </trkpt>
      <trkpt lat="46.04363" lon="4.76566">
        <ele>197</ele>
        <time>2018-03-14T11:29:56Z</time>
      </trkpt>
      <trkpt lat="46.04354" lon="4.76568">
        <ele>197</ele>
        <time>2018-03-14T11:29:58Z</time>
      </trkpt>
      <trkpt lat="46.0435" lon="4.76569">
        <ele>198</ele>
        <time>2018-03-14T11:29:59Z</time>
      </trkpt>
      <trkpt lat="46.04343" lon="4.76571">
        <ele>198</ele>
        <time>2018-03-14T11:30:01Z</time>
      </trkpt>
      <trkpt lat="46.04339" lon="4.76572">
        <ele>198</ele>
        <time>2018-03-14T11:30:02Z</time>
      </trkpt>
      <trkpt lat="46.04331" lon="4.76573">
        <ele>198</ele>
        <time>2018-03-14T11:30:04Z</time>
      </trkpt>
      <trkpt lat="46.04319" lon="4.76575">
        <ele>198</ele>
        <time>2018-03-14T11:30:05Z</time>
      </trkpt>
      <trkpt lat="46.04312" lon="4.76576">
        <ele>197</ele>
        <time>2018-03-14T11:30:08Z</time>
      </trkpt>
      <trkpt lat="46.04304" lon="4.76577">
        <ele>197</ele>
        <time>2018-03-14T11:30:09Z</time>
      </trkpt>
      <trkpt lat="46.04297" lon="4.76577">
        <ele>197</ele>
        <time>2018-03-14T11:30:12Z</time>
      </trkpt>
      <trkpt lat="46.04295" lon="4.76578">
        <ele>197</ele>
        <time>2018-03-14T11:30:13Z</time>
      </trkpt>
      <trkpt lat="46.04287" lon="4.76579">
        <ele>197</ele>
        <time>2018-03-14T11:30:14Z</time>
      </trkpt>
      <trkpt lat="46.04285" lon="4.76579">
        <ele>197</ele>
        <time>2018-03-14T11:30:15Z</time>
      </trkpt>
      <trkpt lat="46.04277" lon="4.7658">
        <ele>197</ele>
        <time>2018-03-14T11:30:18Z</time>
      </trkpt>
      <trkpt lat="46.04269" lon="4.76581">
        <ele>197</ele>
        <time>2018-03-14T11:30:19Z</time>
      </trkpt>
      <trkpt lat="46.04261" lon="4.76583">
        <ele>197</ele>
        <time>2018-03-14T11:30:24Z</time>
      </trkpt>
      <trkpt lat="46.04258" lon="4.76583">
        <ele>197</ele>
        <time>2018-03-14T11:30:25Z</time>
      </trkpt>
      <trkpt lat="46.04251" lon="4.76584">
        <ele>197</ele>
        <time>2018-03-14T11:30:28Z</time>
      </trkpt>
      <trkpt lat="46.04247" lon="4.76584">
        <ele>197</ele>
        <time>2018-03-14T11:30:29Z</time>
      </trkpt>
      <trkpt lat="46.04241" lon="4.76585">
        <ele>197</ele>
        <time>2018-03-14T11:30:31Z</time>
      </trkpt>
      <trkpt lat="46.04238" lon="4.76585">
        <ele>197</ele>
        <time>2018-03-14T11:30:32Z</time>
      </trkpt>
      <trkpt lat="46.04232" lon="4.76586">
        <ele>198</ele>
        <time>2018-03-14T11:30:34Z</time>
      </trkpt>
      <trkpt lat="46.04228" lon="4.76586">
        <ele>198</ele>
        <time>2018-03-14T11:30:35Z</time>
      </trkpt>
      <trkpt lat="46.04222" lon="4.76587">
        <ele>198</ele>
        <time>2018-03-14T11:30:37Z</time>
      </trkpt>
      <trkpt lat="46.04219" lon="4.76587">
        <ele>198</ele>
        <time>2018-03-14T11:30:38Z</time>
      </trkpt>
      <trkpt lat="46.04212" lon="4.76588">
        <ele>198</ele>
        <time>2018-03-14T11:30:40Z</time>
      </trkpt>
      <trkpt lat="46.04209" lon="4.76588">
        <ele>198</ele>
        <time>2018-03-14T11:30:41Z</time>
      </trkpt>
      <trkpt lat="46.04203" lon="4.7659">
        <ele>198</ele>
        <time>2018-03-14T11:30:43Z</time>
      </trkpt>
      <trkpt lat="46.042" lon="4.76592">
        <ele>198</ele>
        <time>2018-03-14T11:30:44Z</time>
      </trkpt>
      <trkpt lat="46.04194" lon="4.76595">
        <ele>198</ele>
        <time>2018-03-14T11:30:46Z</time>
      </trkpt>
      <trkpt lat="46.04191" lon="4.76597">
        <ele>198</ele>
        <time>2018-03-14T11:30:47Z</time>
      </trkpt>
      <trkpt lat="46.04186" lon="4.76601">
        <ele>198</ele>
        <time>2018-03-14T11:30:49Z</time>
      </trkpt>
      <trkpt lat="46.04183" lon="4.76604">
        <ele>198</ele>
        <time>2018-03-14T11:30:50Z</time>
      </trkpt>
      <trkpt lat="46.04177" lon="4.7661">
        <ele>198</ele>
        <time>2018-03-14T11:30:52Z</time>
      </trkpt>
      <trkpt lat="46.04175" lon="4.76612">
        <ele>198</ele>
        <time>2018-03-14T11:30:53Z</time>
      </trkpt>
      <trkpt lat="46.04169" lon="4.76618">
        <ele>198</ele>
        <time>2018-03-14T11:30:55Z</time>
      </trkpt>
      <trkpt lat="46.04166" lon="4.7662">
        <ele>199</ele>
        <time>2018-03-14T11:30:56Z</time>
      </trkpt>
      <trkpt lat="46.0416" lon="4.76625">
        <ele>199</ele>
        <time>2018-03-14T11:30:58Z</time>
      </trkpt>
      <trkpt lat="46.04157" lon="4.76627">
        <ele>200</ele>
        <time>2018-03-14T11:30:59Z</time>
      </trkpt>
      <trkpt lat="46.0415" lon="4.76632">
        <ele>200</ele>
        <time>2018-03-14T11:31:01Z</time>
      </trkpt>
      <trkpt lat="46.04147" lon="4.76634">
        <ele>200</ele>
        <time>2018-03-14T11:31:02Z</time>
      </trkpt>
      <trkpt lat="46.04144" lon="4.76636">
        <ele>200</ele>
        <time>2018-03-14T11:31:03Z</time>
      </trkpt>
      <trkpt lat="46.04135" lon="4.76642">
        <ele>200</ele>
        <time>2018-03-14T11:31:04Z</time>
      </trkpt>
      <trkpt lat="46.04128" lon="4.76644">
        <ele>200</ele>
        <time>2018-03-14T11:31:07Z</time>
      </trkpt>
      <trkpt lat="46.04125" lon="4.76645">
        <ele>200</ele>
        <time>2018-03-14T11:31:08Z</time>
      </trkpt>
      <trkpt lat="46.04117" lon="4.76647">
        <ele>200</ele>
        <time>2018-03-14T11:31:11Z</time>
      </trkpt>
      <trkpt lat="46.04115" lon="4.76647">
        <ele>200</ele>
        <time>2018-03-14T11:31:12Z</time>
      </trkpt>
      <trkpt lat="46.04106" lon="4.76649">
        <ele>200</ele>
        <time>2018-03-14T11:31:15Z</time>
      </trkpt>
      <trkpt lat="46.04103" lon="4.7665">
        <ele>200</ele>
        <time>2018-03-14T11:31:16Z</time>
      </trkpt>
      <trkpt lat="46.04097" lon="4.76651">
        <ele>201</ele>
        <time>2018-03-14T11:31:18Z</time>
      </trkpt>
      <trkpt lat="46.04093" lon="4.76652">
        <ele>201</ele>
        <time>2018-03-14T11:31:19Z</time>
      </trkpt>
      <trkpt lat="46.04087" lon="4.76653">
        <ele>201</ele>
        <time>2018-03-14T11:31:21Z</time>
      </trkpt>
      <trkpt lat="46.04083" lon="4.76654">
        <ele>201</ele>
        <time>2018-03-14T11:31:22Z</time>
      </trkpt>
      <trkpt lat="46.04077" lon="4.76655">
        <ele>201</ele>
        <time>2018-03-14T11:31:24Z</time>
      </trkpt>
      <trkpt lat="46.04074" lon="4.76656">
        <ele>201</ele>
        <time>2018-03-14T11:31:25Z</time>
      </trkpt>
      <trkpt lat="46.04065" lon="4.76657">
        <ele>201</ele>
        <time>2018-03-14T11:31:28Z</time>
      </trkpt>
      <trkpt lat="46.04062" lon="4.76657">
        <ele>201</ele>
        <time>2018-03-14T11:31:29Z</time>
      </trkpt>
      <trkpt lat="46.04055" lon="4.76659">
        <ele>201</ele>
        <time>2018-03-14T11:31:31Z</time>
      </trkpt>
      <trkpt lat="46.04052" lon="4.76659">
        <ele>201</ele>
        <time>2018-03-14T11:31:32Z</time>
      </trkpt>
      <trkpt lat="46.04045" lon="4.76661">
        <ele>201</ele>
        <time>2018-03-14T11:31:34Z</time>
      </trkpt>
      <trkpt lat="46.04042" lon="4.76661">
        <ele>201</ele>
        <time>2018-03-14T11:31:35Z</time>
      </trkpt>
      <trkpt lat="46.04036" lon="4.76662">
        <ele>201</ele>
        <time>2018-03-14T11:31:37Z</time>
      </trkpt>
      <trkpt lat="46.04032" lon="4.76663">
        <ele>201</ele>
        <time>2018-03-14T11:31:38Z</time>
      </trkpt>
      <trkpt lat="46.04026" lon="4.76664">
        <ele>201</ele>
        <time>2018-03-14T11:31:40Z</time>
      </trkpt>
      <trkpt lat="46.04023" lon="4.76664">
        <ele>201</ele>
        <time>2018-03-14T11:31:41Z</time>
      </trkpt>
      <trkpt lat="46.04016" lon="4.76666">
        <ele>201</ele>
        <time>2018-03-14T11:31:43Z</time>
      </trkpt>
      <trkpt lat="46.04005" lon="4.76668">
        <ele>202</ele>
        <time>2018-03-14T11:31:44Z</time>
      </trkpt>
      <trkpt lat="46.04001" lon="4.76669">
        <ele>202</ele>
        <time>2018-03-14T11:31:46Z</time>
      </trkpt>
      <trkpt lat="46.03994" lon="4.76669">
        <ele>202</ele>
        <time>2018-03-14T11:31:47Z</time>
      </trkpt>
      <trkpt lat="46.03987" lon="4.7667">
        <ele>203</ele>
        <time>2018-03-14T11:31:49Z</time>
      </trkpt>
      <trkpt lat="46.03983" lon="4.76671">
        <ele>203</ele>
        <time>2018-03-14T11:31:50Z</time>
      </trkpt>
      <trkpt lat="46.03977" lon="4.76672">
        <ele>203</ele>
        <time>2018-03-14T11:31:52Z</time>
      </trkpt>
      <trkpt lat="46.03972" lon="4.76673">
        <ele>203</ele>
        <time>2018-03-14T11:31:53Z</time>
      </trkpt>
      <trkpt lat="46.03966" lon="4.76674">
        <ele>203</ele>
        <time>2018-03-14T11:31:55Z</time>
      </trkpt>
      <trkpt lat="46.03961" lon="4.76675">
        <ele>203</ele>
        <time>2018-03-14T11:31:56Z</time>
      </trkpt>
      <trkpt lat="46.03953" lon="4.76677">
        <ele>204</ele>
        <time>2018-03-14T11:31:58Z</time>
      </trkpt>
      <trkpt lat="46.03949" lon="4.76678">
        <ele>204</ele>
        <time>2018-03-14T11:31:59Z</time>
      </trkpt>
      <trkpt lat="46.0394" lon="4.7668">
        <ele>204</ele>
        <time>2018-03-14T11:32:01Z</time>
      </trkpt>
      <trkpt lat="46.03936" lon="4.76681">
        <ele>204</ele>
        <time>2018-03-14T11:32:02Z</time>
      </trkpt>
      <trkpt lat="46.03929" lon="4.76684">
        <ele>204</ele>
        <time>2018-03-14T11:32:04Z</time>
      </trkpt>
      <trkpt lat="46.03924" lon="4.76685">
        <ele>204</ele>
        <time>2018-03-14T11:32:05Z</time>
      </trkpt>
      <trkpt lat="46.03916" lon="4.76688">
        <ele>205</ele>
        <time>2018-03-14T11:32:07Z</time>
      </trkpt>
      <trkpt lat="46.03912" lon="4.76689">
        <ele>205</ele>
        <time>2018-03-14T11:32:08Z</time>
      </trkpt>
      <trkpt lat="46.03903" lon="4.76691">
        <ele>205</ele>
        <time>2018-03-14T11:32:10Z</time>
      </trkpt>
      <trkpt lat="46.03898" lon="4.76693">
        <ele>205</ele>
        <time>2018-03-14T11:32:11Z</time>
      </trkpt>
      <trkpt lat="46.03894" lon="4.76694">
        <ele>205</ele>
        <time>2018-03-14T11:32:12Z</time>
      </trkpt>
      <trkpt lat="46.0389" lon="4.76696">
        <ele>205</ele>
        <time>2018-03-14T11:32:13Z</time>
      </trkpt>
      <trkpt lat="46.03882" lon="4.76698">
        <ele>205</ele>
        <time>2018-03-14T11:32:15Z</time>
      </trkpt>
      <trkpt lat="46.03878" lon="4.76699">
        <ele>205</ele>
        <time>2018-03-14T11:32:16Z</time>
      </trkpt>
      <trkpt lat="46.0387" lon="4.76703">
        <ele>205</ele>
        <time>2018-03-14T11:32:18Z</time>
      </trkpt>
      <trkpt lat="46.03868" lon="4.76704">
        <ele>205</ele>
        <time>2018-03-14T11:32:19Z</time>
      </trkpt>
      <trkpt lat="46.03863" lon="4.76705">
        <ele>205</ele>
        <time>2018-03-14T11:32:20Z</time>
      </trkpt>
      <trkpt lat="46.03859" lon="4.76706">
        <ele>205</ele>
        <time>2018-03-14T11:32:21Z</time>
      </trkpt>
      <trkpt lat="46.03852" lon="4.76707">
        <ele>205</ele>
        <time>2018-03-14T11:32:23Z</time>
      </trkpt>
      <trkpt lat="46.03848" lon="4.76708">
        <ele>205</ele>
        <time>2018-03-14T11:32:24Z</time>
      </trkpt>
      <trkpt lat="46.03841" lon="4.76711">
        <ele>205</ele>
        <time>2018-03-14T11:32:26Z</time>
      </trkpt>
      <trkpt lat="46.03838" lon="4.76712">
        <ele>205</ele>
        <time>2018-03-14T11:32:27Z</time>
      </trkpt>
      <trkpt lat="46.03831" lon="4.76711">
        <ele>205</ele>
        <time>2018-03-14T11:32:29Z</time>
      </trkpt>
      <trkpt lat="46.03826" lon="4.76711">
        <ele>205</ele>
        <time>2018-03-14T11:32:30Z</time>
      </trkpt>
      <trkpt lat="46.03817" lon="4.76712">
        <ele>205</ele>
        <time>2018-03-14T11:32:32Z</time>
      </trkpt>
      <trkpt lat="46.03812" lon="4.76712">
        <ele>205</ele>
        <time>2018-03-14T11:32:33Z</time>
      </trkpt>
      <trkpt lat="46.03808" lon="4.76712">
        <ele>205</ele>
        <time>2018-03-14T11:32:34Z</time>
      </trkpt>
      <trkpt lat="46.03803" lon="4.76713">
        <ele>205</ele>
        <time>2018-03-14T11:32:35Z</time>
      </trkpt>
      <trkpt lat="46.03794" lon="4.76712">
        <ele>205</ele>
        <time>2018-03-14T11:32:37Z</time>
      </trkpt>
      <trkpt lat="46.0379" lon="4.76712">
        <ele>205</ele>
        <time>2018-03-14T11:32:38Z</time>
      </trkpt>
      <trkpt lat="46.03782" lon="4.76712">
        <ele>205</ele>
        <time>2018-03-14T11:32:40Z</time>
      </trkpt>
      <trkpt lat="46.03778" lon="4.76712">
        <ele>205</ele>
        <time>2018-03-14T11:32:41Z</time>
      </trkpt>
      <trkpt lat="46.03771" lon="4.7671">
        <ele>205</ele>
        <time>2018-03-14T11:32:43Z</time>
      </trkpt>
      <trkpt lat="46.03766" lon="4.76707">
        <ele>205</ele>
        <time>2018-03-14T11:32:44Z</time>
      </trkpt>
      <trkpt lat="46.03761" lon="4.76704">
        <ele>205</ele>
        <time>2018-03-14T11:32:45Z</time>
      </trkpt>
      <trkpt lat="46.03757" lon="4.76703">
        <ele>205</ele>
        <time>2018-03-14T11:32:46Z</time>
      </trkpt>
      <trkpt lat="46.03752" lon="4.76703">
        <ele>205</ele>
        <time>2018-03-14T11:32:47Z</time>
      </trkpt>
      <trkpt lat="46.03747" lon="4.76701">
        <ele>205</ele>
        <time>2018-03-14T11:32:48Z</time>
      </trkpt>
      <trkpt lat="46.03739" lon="4.767">
        <ele>205</ele>
        <time>2018-03-14T11:32:50Z</time>
      </trkpt>
      <trkpt lat="46.03734" lon="4.76698">
        <ele>205</ele>
        <time>2018-03-14T11:32:51Z</time>
      </trkpt>
      <trkpt lat="46.03728" lon="4.76697">
        <ele>205</ele>
        <time>2018-03-14T11:32:52Z</time>
      </trkpt>
      <trkpt lat="46.03722" lon="4.76693">
        <ele>205</ele>
        <time>2018-03-14T11:32:53Z</time>
      </trkpt>
      <trkpt lat="46.03716" lon="4.7669">
        <ele>205</ele>
        <time>2018-03-14T11:32:54Z</time>
      </trkpt>
      <trkpt lat="46.03711" lon="4.76688">
        <ele>205</ele>
        <time>2018-03-14T11:32:55Z</time>
      </trkpt>
      <trkpt lat="46.03707" lon="4.76684">
        <ele>205</ele>
        <time>2018-03-14T11:32:56Z</time>
      </trkpt>
      <trkpt lat="46.03703" lon="4.76679">
        <ele>205</ele>
        <time>2018-03-14T11:32:57Z</time>
      </trkpt>
      <trkpt lat="46.03698" lon="4.76674">
        <ele>205</ele>
        <time>2018-03-14T11:32:58Z</time>
      </trkpt>
      <trkpt lat="46.03694" lon="4.76669">
        <ele>205</ele>
        <time>2018-03-14T11:32:59Z</time>
      </trkpt>
      <trkpt lat="46.03691" lon="4.76663">
        <ele>204</ele>
        <time>2018-03-14T11:33:00Z</time>
      </trkpt>
      <trkpt lat="46.03689" lon="4.76656">
        <ele>204</ele>
        <time>2018-03-14T11:33:01Z</time>
      </trkpt>
      <trkpt lat="46.03688" lon="4.76648">
        <ele>204</ele>
        <time>2018-03-14T11:33:02Z</time>
      </trkpt>
      <trkpt lat="46.03686" lon="4.7664">
        <ele>204</ele>
        <time>2018-03-14T11:33:03Z</time>
      </trkpt>
      <trkpt lat="46.03684" lon="4.76631">
        <ele>203</ele>
        <time>2018-03-14T11:33:04Z</time>
      </trkpt>
      <trkpt lat="46.03683" lon="4.76623">
        <ele>203</ele>
        <time>2018-03-14T11:33:05Z</time>
      </trkpt>
      <trkpt lat="46.03681" lon="4.76615">
        <ele>203</ele>
        <time>2018-03-14T11:33:06Z</time>
      </trkpt>
      <trkpt lat="46.03678" lon="4.76606">
        <ele>203</ele>
        <time>2018-03-14T11:33:07Z</time>
      </trkpt>
      <trkpt lat="46.03675" lon="4.76599">
        <ele>203</ele>
        <time>2018-03-14T11:33:08Z</time>
      </trkpt>
      <trkpt lat="46.03671" lon="4.76592">
        <ele>202</ele>
        <time>2018-03-14T11:33:09Z</time>
      </trkpt>
      <trkpt lat="46.03666" lon="4.76586">
        <ele>202</ele>
        <time>2018-03-14T11:33:10Z</time>
      </trkpt>
      <trkpt lat="46.03661" lon="4.76581">
        <ele>202</ele>
        <time>2018-03-14T11:33:11Z</time>
      </trkpt>
      <trkpt lat="46.03658" lon="4.76576">
        <ele>201</ele>
        <time>2018-03-14T11:33:12Z</time>
      </trkpt>
      <trkpt lat="46.03654" lon="4.76569">
        <ele>201</ele>
        <time>2018-03-14T11:33:13Z</time>
      </trkpt>
      <trkpt lat="46.03649" lon="4.7656">
        <ele>201</ele>
        <time>2018-03-14T11:33:14Z</time>
      </trkpt>
      <trkpt lat="46.03645" lon="4.76552">
        <ele>201</ele>
        <time>2018-03-14T11:33:15Z</time>
      </trkpt>
      <trkpt lat="46.03641" lon="4.76543">
        <ele>200</ele>
        <time>2018-03-14T11:33:16Z</time>
      </trkpt>
      <trkpt lat="46.03638" lon="4.76534">
        <ele>200</ele>
        <time>2018-03-14T11:33:17Z</time>
      </trkpt>
      <trkpt lat="46.03634" lon="4.76525">
        <ele>200</ele>
        <time>2018-03-14T11:33:18Z</time>
      </trkpt>
      <trkpt lat="46.03631" lon="4.76516">
        <ele>200</ele>
        <time>2018-03-14T11:33:19Z</time>
      </trkpt>
      <trkpt lat="46.03626" lon="4.76508">
        <ele>200</ele>
        <time>2018-03-14T11:33:20Z</time>
      </trkpt>
      <trkpt lat="46.03622" lon="4.765">
        <ele>200</ele>
        <time>2018-03-14T11:33:21Z</time>
      </trkpt>
      <trkpt lat="46.03617" lon="4.76493">
        <ele>199</ele>
        <time>2018-03-14T11:33:22Z</time>
      </trkpt>
      <trkpt lat="46.03612" lon="4.76487">
        <ele>199</ele>
        <time>2018-03-14T11:33:23Z</time>
      </trkpt>
      <trkpt lat="46.03608" lon="4.7648">
        <ele>199</ele>
        <time>2018-03-14T11:33:24Z</time>
      </trkpt>
      <trkpt lat="46.03605" lon="4.76472">
        <ele>199</ele>
        <time>2018-03-14T11:33:25Z</time>
      </trkpt>
      <trkpt lat="46.03602" lon="4.76463">
        <ele>199</ele>
        <time>2018-03-14T11:33:26Z</time>
      </trkpt>
      <trkpt lat="46.03601" lon="4.76454">
        <ele>199</ele>
        <time>2018-03-14T11:33:27Z</time>
      </trkpt>
      <trkpt lat="46.036" lon="4.76445">
        <ele>199</ele>
        <time>2018-03-14T11:33:28Z</time>
      </trkpt>
      <trkpt lat="46.03598" lon="4.76437">
        <ele>199</ele>
        <time>2018-03-14T11:33:29Z</time>
      </trkpt>
      <trkpt lat="46.03599" lon="4.76428">
        <ele>199</ele>
        <time>2018-03-14T11:33:30Z</time>
      </trkpt>
      <trkpt lat="46.03599" lon="4.76419">
        <ele>199</ele>
        <time>2018-03-14T11:33:31Z</time>
      </trkpt>
      <trkpt lat="46.036" lon="4.76408">
        <ele>198</ele>
        <time>2018-03-14T11:33:32Z</time>
      </trkpt>
      <trkpt lat="46.03601" lon="4.764">
        <ele>198</ele>
        <time>2018-03-14T11:33:33Z</time>
      </trkpt>
      <trkpt lat="46.03602" lon="4.76391">
        <ele>197</ele>
        <time>2018-03-14T11:33:34Z</time>
      </trkpt>
      <trkpt lat="46.03603" lon="4.76382">
        <ele>197</ele>
        <time>2018-03-14T11:33:35Z</time>
      </trkpt>
      <trkpt lat="46.03605" lon="4.76372">
        <ele>197</ele>
        <time>2018-03-14T11:33:36Z</time>
      </trkpt>
      <trkpt lat="46.03604" lon="4.76364">
        <ele>197</ele>
        <time>2018-03-14T11:33:37Z</time>
      </trkpt>
      <trkpt lat="46.03606" lon="4.76356">
        <ele>196</ele>
        <time>2018-03-14T11:33:38Z</time>
      </trkpt>
      <trkpt lat="46.03607" lon="4.76343">
        <ele>196</ele>
        <time>2018-03-14T11:33:39Z</time>
      </trkpt>
      <trkpt lat="46.03608" lon="4.76333">
        <ele>195</ele>
        <time>2018-03-14T11:33:40Z</time>
      </trkpt>
      <trkpt lat="46.03609" lon="4.76323">
        <ele>195</ele>
        <time>2018-03-14T11:33:41Z</time>
      </trkpt>
      <trkpt lat="46.03609" lon="4.76314">
        <ele>195</ele>
        <time>2018-03-14T11:33:42Z</time>
      </trkpt>
      <trkpt lat="46.0361" lon="4.76304">
        <ele>195</ele>
        <time>2018-03-14T11:33:43Z</time>
      </trkpt>
      <trkpt lat="46.03611" lon="4.76296">
        <ele>195</ele>
        <time>2018-03-14T11:33:44Z</time>
      </trkpt>
      <trkpt lat="46.03612" lon="4.76287">
        <ele>194</ele>
        <time>2018-03-14T11:33:45Z</time>
      </trkpt>
      <trkpt lat="46.03613" lon="4.76279">
        <ele>194</ele>
        <time>2018-03-14T11:33:46Z</time>
      </trkpt>
      <trkpt lat="46.03614" lon="4.7627">
        <ele>194</ele>
        <time>2018-03-14T11:33:47Z</time>
      </trkpt>
      <trkpt lat="46.03616" lon="4.76262">
        <ele>194</ele>
        <time>2018-03-14T11:33:48Z</time>
      </trkpt>
      <trkpt lat="46.03618" lon="4.76254">
        <ele>194</ele>
        <time>2018-03-14T11:33:49Z</time>
      </trkpt>
      <trkpt lat="46.03619" lon="4.76246">
        <ele>193</ele>
        <time>2018-03-14T11:33:50Z</time>
      </trkpt>
      <trkpt lat="46.0362" lon="4.76238">
        <ele>193</ele>
        <time>2018-03-14T11:33:51Z</time>
      </trkpt>
      <trkpt lat="46.03622" lon="4.76229">
        <ele>193</ele>
        <time>2018-03-14T11:33:52Z</time>
      </trkpt>
      <trkpt lat="46.03623" lon="4.76221">
        <ele>193</ele>
        <time>2018-03-14T11:33:53Z</time>
      </trkpt>
      <trkpt lat="46.03626" lon="4.76213">
        <ele>193</ele>
        <time>2018-03-14T11:33:54Z</time>
      </trkpt>
      <trkpt lat="46.03629" lon="4.76205">
        <ele>193</ele>
        <time>2018-03-14T11:33:55Z</time>
      </trkpt>
      <trkpt lat="46.03625" lon="4.762">
        <ele>193</ele>
        <time>2018-03-14T11:33:56Z</time>
      </trkpt>
      <trkpt lat="46.03623" lon="4.76191">
        <ele>193</ele>
        <time>2018-03-14T11:33:57Z</time>
      </trkpt>
      <trkpt lat="46.03626" lon="4.76182">
        <ele>193</ele>
        <time>2018-03-14T11:33:58Z</time>
      </trkpt>
      <trkpt lat="46.03626" lon="4.76173">
        <ele>192</ele>
        <time>2018-03-14T11:33:59Z</time>
      </trkpt>
      <trkpt lat="46.03627" lon="4.76165">
        <ele>192</ele>
        <time>2018-03-14T11:34:00Z</time>
      </trkpt>
      <trkpt lat="46.03628" lon="4.76157">
        <ele>192</ele>
        <time>2018-03-14T11:34:01Z</time>
      </trkpt>
      <trkpt lat="46.03628" lon="4.76149">
        <ele>192</ele>
        <time>2018-03-14T11:34:02Z</time>
      </trkpt>
      <trkpt lat="46.03629" lon="4.76141">
        <ele>192</ele>
        <time>2018-03-14T11:34:03Z</time>
      </trkpt>
      <trkpt lat="46.03629" lon="4.76132">
        <ele>192</ele>
        <time>2018-03-14T11:34:04Z</time>
      </trkpt>
      <trkpt lat="46.03629" lon="4.76125">
        <ele>192</ele>
        <time>2018-03-14T11:34:05Z</time>
      </trkpt>
      <trkpt lat="46.03629" lon="4.76116">
        <ele>192</ele>
        <time>2018-03-14T11:34:06Z</time>
      </trkpt>
      <trkpt lat="46.03629" lon="4.76108">
        <ele>192</ele>
        <time>2018-03-14T11:34:07Z</time>
      </trkpt>
      <trkpt lat="46.03628" lon="4.761">
        <ele>192</ele>
        <time>2018-03-14T11:34:08Z</time>
      </trkpt>
      <trkpt lat="46.03626" lon="4.76092">
        <ele>192</ele>
        <time>2018-03-14T11:34:09Z</time>
      </trkpt>
      <trkpt lat="46.03625" lon="4.76083">
        <ele>191</ele>
        <time>2018-03-14T11:34:10Z</time>
      </trkpt>
      <trkpt lat="46.03624" lon="4.76075">
        <ele>191</ele>
        <time>2018-03-14T11:34:11Z</time>
      </trkpt>
      <trkpt lat="46.03622" lon="4.76067">
        <ele>191</ele>
        <time>2018-03-14T11:34:12Z</time>
      </trkpt>
      <trkpt lat="46.0362" lon="4.7606">
        <ele>191</ele>
        <time>2018-03-14T11:34:13Z</time>
      </trkpt>
      <trkpt lat="46.03617" lon="4.76053">
        <ele>191</ele>
        <time>2018-03-14T11:34:14Z</time>
      </trkpt>
      <trkpt lat="46.03614" lon="4.76046">
        <ele>191</ele>
        <time>2018-03-14T11:34:15Z</time>
      </trkpt>
      <trkpt lat="46.03612" lon="4.76039">
        <ele>191</ele>
        <time>2018-03-14T11:34:16Z</time>
      </trkpt>
      <trkpt lat="46.03609" lon="4.76034">
        <ele>191</ele>
        <time>2018-03-14T11:34:17Z</time>
      </trkpt>
      <trkpt lat="46.03607" lon="4.76027">
        <ele>191</ele>
        <time>2018-03-14T11:34:18Z</time>
      </trkpt>
      <trkpt lat="46.03606" lon="4.76021">
        <ele>191</ele>
        <time>2018-03-14T11:34:19Z</time>
      </trkpt>
      <trkpt lat="46.03604" lon="4.76014">
        <ele>191</ele>
        <time>2018-03-14T11:34:20Z</time>
      </trkpt>
      <trkpt lat="46.03601" lon="4.76007">
        <ele>191</ele>
        <time>2018-03-14T11:34:21Z</time>
      </trkpt>
      <trkpt lat="46.03599" lon="4.76">
        <ele>190</ele>
        <time>2018-03-14T11:34:22Z</time>
      </trkpt>
      <trkpt lat="46.03596" lon="4.75993">
        <ele>190</ele>
        <time>2018-03-14T11:34:23Z</time>
      </trkpt>
      <trkpt lat="46.03594" lon="4.75986">
        <ele>190</ele>
        <time>2018-03-14T11:34:24Z</time>
      </trkpt>
      <trkpt lat="46.03592" lon="4.7598">
        <ele>190</ele>
        <time>2018-03-14T11:34:25Z</time>
      </trkpt>
      <trkpt lat="46.03589" lon="4.75973">
        <ele>190</ele>
        <time>2018-03-14T11:34:26Z</time>
      </trkpt>
      <trkpt lat="46.03584" lon="4.75966">
        <ele>190</ele>
        <time>2018-03-14T11:34:27Z</time>
      </trkpt>
      <trkpt lat="46.03581" lon="4.7596">
        <ele>190</ele>
        <time>2018-03-14T11:34:28Z</time>
      </trkpt>
      <trkpt lat="46.03579" lon="4.75954">
        <ele>190</ele>
        <time>2018-03-14T11:34:29Z</time>
      </trkpt>
      <trkpt lat="46.03576" lon="4.75947">
        <ele>190</ele>
        <time>2018-03-14T11:34:30Z</time>
      </trkpt>
      <trkpt lat="46.03574" lon="4.75941">
        <ele>190</ele>
        <time>2018-03-14T11:34:31Z</time>
      </trkpt>
      <trkpt lat="46.03571" lon="4.75933">
        <ele>190</ele>
        <time>2018-03-14T11:34:32Z</time>
      </trkpt>
      <trkpt lat="46.03568" lon="4.75927">
        <ele>190</ele>
        <time>2018-03-14T11:34:33Z</time>
      </trkpt>
      <trkpt lat="46.03566" lon="4.7592">
        <ele>190</ele>
        <time>2018-03-14T11:34:34Z</time>
      </trkpt>
      <trkpt lat="46.03563" lon="4.75914">
        <ele>189</ele>
        <time>2018-03-14T11:34:35Z</time>
      </trkpt>
      <trkpt lat="46.03561" lon="4.75908">
        <ele>189</ele>
        <time>2018-03-14T11:34:36Z</time>
      </trkpt>
      <trkpt lat="46.03558" lon="4.75902">
        <ele>189</ele>
        <time>2018-03-14T11:34:37Z</time>
      </trkpt>
      <trkpt lat="46.03555" lon="4.75895">
        <ele>189</ele>
        <time>2018-03-14T11:34:38Z</time>
      </trkpt>
      <trkpt lat="46.03552" lon="4.75889">
        <ele>189</ele>
        <time>2018-03-14T11:34:39Z</time>
      </trkpt>
      <trkpt lat="46.03548" lon="4.75882">
        <ele>189</ele>
        <time>2018-03-14T11:34:40Z</time>
      </trkpt>
      <trkpt lat="46.03544" lon="4.75874">
        <ele>189</ele>
        <time>2018-03-14T11:34:41Z</time>
      </trkpt>
      <trkpt lat="46.03541" lon="4.75867">
        <ele>190</ele>
        <time>2018-03-14T11:34:42Z</time>
      </trkpt>
      <trkpt lat="46.03538" lon="4.75859">
        <ele>190</ele>
        <time>2018-03-14T11:34:43Z</time>
      </trkpt>
      <trkpt lat="46.03535" lon="4.75852">
        <ele>190</ele>
        <time>2018-03-14T11:34:44Z</time>
      </trkpt>
      <trkpt lat="46.03532" lon="4.75846">
        <ele>190</ele>
        <time>2018-03-14T11:34:45Z</time>
      </trkpt>
      <trkpt lat="46.03529" lon="4.75839">
        <ele>190</ele>
        <time>2018-03-14T11:34:46Z</time>
      </trkpt>
      <trkpt lat="46.03526" lon="4.75833">
        <ele>189</ele>
        <time>2018-03-14T11:34:47Z</time>
      </trkpt>
      <trkpt lat="46.03522" lon="4.75827">
        <ele>190</ele>
        <time>2018-03-14T11:34:48Z</time>
      </trkpt>
      <trkpt lat="46.03521" lon="4.75817">
        <ele>189</ele>
        <time>2018-03-14T11:34:49Z</time>
      </trkpt>
      <trkpt lat="46.03517" lon="4.75811">
        <ele>189</ele>
        <time>2018-03-14T11:34:50Z</time>
      </trkpt>
      <trkpt lat="46.03513" lon="4.75804">
        <ele>189</ele>
        <time>2018-03-14T11:34:51Z</time>
      </trkpt>
      <trkpt lat="46.03512" lon="4.75799">
        <ele>189</ele>
        <time>2018-03-14T11:34:52Z</time>
      </trkpt>
      <trkpt lat="46.03508" lon="4.75793">
        <ele>189</ele>
        <time>2018-03-14T11:34:53Z</time>
      </trkpt>
      <trkpt lat="46.03505" lon="4.75786">
        <ele>189</ele>
        <time>2018-03-14T11:34:54Z</time>
      </trkpt>
      <trkpt lat="46.03502" lon="4.75779">
        <ele>189</ele>
        <time>2018-03-14T11:34:55Z</time>
      </trkpt>
      <trkpt lat="46.03499" lon="4.75773">
        <ele>189</ele>
        <time>2018-03-14T11:34:56Z</time>
      </trkpt>
      <trkpt lat="46.03496" lon="4.75766">
        <ele>189</ele>
        <time>2018-03-14T11:34:57Z</time>
      </trkpt>
      <trkpt lat="46.03494" lon="4.75759">
        <ele>189</ele>
        <time>2018-03-14T11:34:58Z</time>
      </trkpt>
      <trkpt lat="46.03491" lon="4.75753">
        <ele>189</ele>
        <time>2018-03-14T11:34:59Z</time>
      </trkpt>
      <trkpt lat="46.03489" lon="4.75746">
        <ele>189</ele>
        <time>2018-03-14T11:35:00Z</time>
      </trkpt>
      <trkpt lat="46.03486" lon="4.75739">
        <ele>189</ele>
        <time>2018-03-14T11:35:01Z</time>
      </trkpt>
      <trkpt lat="46.03484" lon="4.75732">
        <ele>189</ele>
        <time>2018-03-14T11:35:02Z</time>
      </trkpt>
      <trkpt lat="46.03481" lon="4.75725">
        <ele>189</ele>
        <time>2018-03-14T11:35:03Z</time>
      </trkpt>
      <trkpt lat="46.03478" lon="4.75718">
        <ele>189</ele>
        <time>2018-03-14T11:35:04Z</time>
      </trkpt>
      <trkpt lat="46.03475" lon="4.7571">
        <ele>189</ele>
        <time>2018-03-14T11:35:05Z</time>
      </trkpt>
      <trkpt lat="46.03472" lon="4.75702">
        <ele>189</ele>
        <time>2018-03-14T11:35:06Z</time>
      </trkpt>
      <trkpt lat="46.03469" lon="4.75696">
        <ele>189</ele>
        <time>2018-03-14T11:35:07Z</time>
      </trkpt>
      <trkpt lat="46.03466" lon="4.75689">
        <ele>189</ele>
        <time>2018-03-14T11:35:08Z</time>
      </trkpt>
      <trkpt lat="46.03463" lon="4.75682">
        <ele>189</ele>
        <time>2018-03-14T11:35:09Z</time>
      </trkpt>
      <trkpt lat="46.0346" lon="4.75676">
        <ele>189</ele>
        <time>2018-03-14T11:35:10Z</time>
      </trkpt>
      <trkpt lat="46.03457" lon="4.75669">
        <ele>189</ele>
        <time>2018-03-14T11:35:11Z</time>
      </trkpt>
      <trkpt lat="46.03455" lon="4.75662">
        <ele>188</ele>
        <time>2018-03-14T11:35:12Z</time>
      </trkpt>
      <trkpt lat="46.03452" lon="4.75657">
        <ele>188</ele>
        <time>2018-03-14T11:35:13Z</time>
      </trkpt>
      <trkpt lat="46.0345" lon="4.7565">
        <ele>188</ele>
        <time>2018-03-14T11:35:14Z</time>
      </trkpt>
      <trkpt lat="46.03447" lon="4.75645">
        <ele>188</ele>
        <time>2018-03-14T11:35:15Z</time>
      </trkpt>
      <trkpt lat="46.03443" lon="4.75635">
        <ele>188</ele>
        <time>2018-03-14T11:35:18Z</time>
      </trkpt>
      <trkpt lat="46.03443" lon="4.75633">
        <ele>188</ele>
        <time>2018-03-14T11:35:19Z</time>
      </trkpt>
      <trkpt lat="46.0344" lon="4.7562">
        <ele>188</ele>
        <time>2018-03-14T11:35:25Z</time>
      </trkpt>
      <trkpt lat="46.03439" lon="4.75618">
        <ele>188</ele>
        <time>2018-03-14T11:35:26Z</time>
      </trkpt>
      <trkpt lat="46.03432" lon="4.75616">
        <ele>188</ele>
        <time>2018-03-14T11:35:29Z</time>
      </trkpt>
      <trkpt lat="46.03424" lon="4.75616">
        <ele>188</ele>
        <time>2018-03-14T11:35:30Z</time>
      </trkpt>
      <trkpt lat="46.03417" lon="4.75618">
        <ele>188</ele>
        <time>2018-03-14T11:35:32Z</time>
      </trkpt>
      <trkpt lat="46.03413" lon="4.75619">
        <ele>188</ele>
        <time>2018-03-14T11:35:33Z</time>
      </trkpt>
      <trkpt lat="46.03404" lon="4.75622">
        <ele>188</ele>
        <time>2018-03-14T11:35:35Z</time>
      </trkpt>
      <trkpt lat="46.034" lon="4.75624">
        <ele>188</ele>
        <time>2018-03-14T11:35:36Z</time>
      </trkpt>
      <trkpt lat="46.03395" lon="4.75625">
        <ele>188</ele>
        <time>2018-03-14T11:35:37Z</time>
      </trkpt>
      <trkpt lat="46.0339" lon="4.75625">
        <ele>188</ele>
        <time>2018-03-14T11:35:38Z</time>
      </trkpt>
      <trkpt lat="46.03385" lon="4.75625">
        <ele>188</ele>
        <time>2018-03-14T11:35:39Z</time>
      </trkpt>
      <trkpt lat="46.03381" lon="4.75626">
        <ele>188</ele>
        <time>2018-03-14T11:35:40Z</time>
      </trkpt>
      <trkpt lat="46.03376" lon="4.75627">
        <ele>188</ele>
        <time>2018-03-14T11:35:41Z</time>
      </trkpt>
      <trkpt lat="46.0337" lon="4.75629">
        <ele>188</ele>
        <time>2018-03-14T11:35:42Z</time>
      </trkpt>
      <trkpt lat="46.03365" lon="4.75629">
        <ele>188</ele>
        <time>2018-03-14T11:35:43Z</time>
      </trkpt>
      <trkpt lat="46.0336" lon="4.7563">
        <ele>188</ele>
        <time>2018-03-14T11:35:44Z</time>
      </trkpt>
      <trkpt lat="46.03354" lon="4.75629">
        <ele>188</ele>
        <time>2018-03-14T11:35:45Z</time>
      </trkpt>
      <trkpt lat="46.03349" lon="4.7563">
        <ele>188</ele>
        <time>2018-03-14T11:35:46Z</time>
      </trkpt>
      <trkpt lat="46.03344" lon="4.7563">
        <ele>188</ele>
        <time>2018-03-14T11:35:47Z</time>
      </trkpt>
      <trkpt lat="46.03338" lon="4.75631">
        <ele>188</ele>
        <time>2018-03-14T11:35:48Z</time>
      </trkpt>
      <trkpt lat="46.03333" lon="4.75631">
        <ele>189</ele>
        <time>2018-03-14T11:35:49Z</time>
      </trkpt>
      <trkpt lat="46.03328" lon="4.75632">
        <ele>189</ele>
        <time>2018-03-14T11:35:50Z</time>
      </trkpt>
      <trkpt lat="46.03324" lon="4.75632">
        <ele>189</ele>
        <time>2018-03-14T11:35:51Z</time>
      </trkpt>
      <trkpt lat="46.03318" lon="4.75631">
        <ele>189</ele>
        <time>2018-03-14T11:35:52Z</time>
      </trkpt>
      <trkpt lat="46.03313" lon="4.75631">
        <ele>189</ele>
        <time>2018-03-14T11:35:53Z</time>
      </trkpt>
      <trkpt lat="46.03307" lon="4.75633">
        <ele>189</ele>
        <time>2018-03-14T11:35:54Z</time>
      </trkpt>
      <trkpt lat="46.03301" lon="4.75636">
        <ele>189</ele>
        <time>2018-03-14T11:35:55Z</time>
      </trkpt>
      <trkpt lat="46.03296" lon="4.75639">
        <ele>189</ele>
        <time>2018-03-14T11:35:56Z</time>
      </trkpt>
      <trkpt lat="46.03291" lon="4.75643">
        <ele>190</ele>
        <time>2018-03-14T11:35:57Z</time>
      </trkpt>
      <trkpt lat="46.03286" lon="4.75647">
        <ele>190</ele>
        <time>2018-03-14T11:35:58Z</time>
      </trkpt>
      <trkpt lat="46.03281" lon="4.75651">
        <ele>190</ele>
        <time>2018-03-14T11:35:59Z</time>
      </trkpt>
      <trkpt lat="46.03276" lon="4.75654">
        <ele>191</ele>
        <time>2018-03-14T11:36:00Z</time>
      </trkpt>
      <trkpt lat="46.03272" lon="4.75657">
        <ele>191</ele>
        <time>2018-03-14T11:36:01Z</time>
      </trkpt>
      <trkpt lat="46.03266" lon="4.75659">
        <ele>192</ele>
        <time>2018-03-14T11:36:02Z</time>
      </trkpt>
      <trkpt lat="46.03261" lon="4.75661">
        <ele>193</ele>
        <time>2018-03-14T11:36:03Z</time>
      </trkpt>
      <trkpt lat="46.03255" lon="4.75663">
        <ele>194</ele>
        <time>2018-03-14T11:36:04Z</time>
      </trkpt>
      <trkpt lat="46.03247" lon="4.75664">
        <ele>194</ele>
        <time>2018-03-14T11:36:05Z</time>
      </trkpt>
      <trkpt lat="46.03242" lon="4.75664">
        <ele>193</ele>
        <time>2018-03-14T11:36:06Z</time>
      </trkpt>
      <trkpt lat="46.03238" lon="4.75665">
        <ele>193</ele>
        <time>2018-03-14T11:36:07Z</time>
      </trkpt>
      <trkpt lat="46.03231" lon="4.75665">
        <ele>192</ele>
        <time>2018-03-14T11:36:08Z</time>
      </trkpt>
      <trkpt lat="46.03225" lon="4.75666">
        <ele>191</ele>
        <time>2018-03-14T11:36:09Z</time>
      </trkpt>
      <trkpt lat="46.03219" lon="4.75666">
        <ele>190</ele>
        <time>2018-03-14T11:36:10Z</time>
      </trkpt>
      <trkpt lat="46.03212" lon="4.75668">
        <ele>193</ele>
        <time>2018-03-14T11:36:11Z</time>
      </trkpt>
      <trkpt lat="46.03207" lon="4.7567">
        <ele>193</ele>
        <time>2018-03-14T11:36:12Z</time>
      </trkpt>
      <trkpt lat="46.032" lon="4.7567">
        <ele>192</ele>
        <time>2018-03-14T11:36:13Z</time>
      </trkpt>
      <trkpt lat="46.03195" lon="4.7567">
        <ele>192</ele>
        <time>2018-03-14T11:36:14Z</time>
      </trkpt>
      <trkpt lat="46.03189" lon="4.75671">
        <ele>191</ele>
        <time>2018-03-14T11:36:15Z</time>
      </trkpt>
      <trkpt lat="46.03184" lon="4.75672">
        <ele>191</ele>
        <time>2018-03-14T11:36:16Z</time>
      </trkpt>
      <trkpt lat="46.03178" lon="4.75672">
        <ele>190</ele>
        <time>2018-03-14T11:36:17Z</time>
      </trkpt>
      <trkpt lat="46.03172" lon="4.75672">
        <ele>189</ele>
        <time>2018-03-14T11:36:18Z</time>
      </trkpt>
      <trkpt lat="46.03167" lon="4.75672">
        <ele>189</ele>
        <time>2018-03-14T11:36:19Z</time>
      </trkpt>
      <trkpt lat="46.03162" lon="4.75671">
        <ele>188</ele>
        <time>2018-03-14T11:36:20Z</time>
      </trkpt>
      <trkpt lat="46.03157" lon="4.75671">
        <ele>188</ele>
        <time>2018-03-14T11:36:21Z</time>
      </trkpt>
      <trkpt lat="46.03152" lon="4.75672">
        <ele>187</ele>
        <time>2018-03-14T11:36:22Z</time>
      </trkpt>
      <trkpt lat="46.03147" lon="4.75673">
        <ele>187</ele>
        <time>2018-03-14T11:36:23Z</time>
      </trkpt>
      <trkpt lat="46.03143" lon="4.75673">
        <ele>187</ele>
        <time>2018-03-14T11:36:24Z</time>
      </trkpt>
      <trkpt lat="46.03134" lon="4.75673">
        <ele>187</ele>
        <time>2018-03-14T11:36:26Z</time>
      </trkpt>
      <trkpt lat="46.03129" lon="4.75673">
        <ele>187</ele>
        <time>2018-03-14T11:36:27Z</time>
      </trkpt>
      <trkpt lat="46.0312" lon="4.75675">
        <ele>186</ele>
        <time>2018-03-14T11:36:29Z</time>
      </trkpt>
      <trkpt lat="46.03116" lon="4.75676">
        <ele>186</ele>
        <time>2018-03-14T11:36:30Z</time>
      </trkpt>
      <trkpt lat="46.03111" lon="4.75677">
        <ele>186</ele>
        <time>2018-03-14T11:36:31Z</time>
      </trkpt>
      <trkpt lat="46.03107" lon="4.75677">
        <ele>186</ele>
        <time>2018-03-14T11:36:32Z</time>
      </trkpt>
      <trkpt lat="46.03102" lon="4.75677">
        <ele>186</ele>
        <time>2018-03-14T11:36:33Z</time>
      </trkpt>
      <trkpt lat="46.03097" lon="4.75677">
        <ele>185</ele>
        <time>2018-03-14T11:36:34Z</time>
      </trkpt>
      <trkpt lat="46.03092" lon="4.75678">
        <ele>185</ele>
        <time>2018-03-14T11:36:35Z</time>
      </trkpt>
      <trkpt lat="46.03087" lon="4.75679">
        <ele>185</ele>
        <time>2018-03-14T11:36:36Z</time>
      </trkpt>
      <trkpt lat="46.03081" lon="4.7568">
        <ele>184</ele>
        <time>2018-03-14T11:36:37Z</time>
      </trkpt>
      <trkpt lat="46.03076" lon="4.75681">
        <ele>184</ele>
        <time>2018-03-14T11:36:38Z</time>
      </trkpt>
      <trkpt lat="46.0307" lon="4.75682">
        <ele>184</ele>
        <time>2018-03-14T11:36:39Z</time>
      </trkpt>
      <trkpt lat="46.03065" lon="4.75682">
        <ele>184</ele>
        <time>2018-03-14T11:36:40Z</time>
      </trkpt>
      <trkpt lat="46.03059" lon="4.75683">
        <ele>184</ele>
        <time>2018-03-14T11:36:41Z</time>
      </trkpt>
      <trkpt lat="46.03054" lon="4.75683">
        <ele>184</ele>
        <time>2018-03-14T11:36:42Z</time>
      </trkpt>
      <trkpt lat="46.03049" lon="4.75684">
        <ele>184</ele>
        <time>2018-03-14T11:36:43Z</time>
      </trkpt>
      <trkpt lat="46.03044" lon="4.75684">
        <ele>184</ele>
        <time>2018-03-14T11:36:44Z</time>
      </trkpt>
      <trkpt lat="46.0304" lon="4.75686">
        <ele>184</ele>
        <time>2018-03-14T11:36:45Z</time>
      </trkpt>
      <trkpt lat="46.03034" lon="4.75689">
        <ele>184</ele>
        <time>2018-03-14T11:36:46Z</time>
      </trkpt>
      <trkpt lat="46.0303" lon="4.7569">
        <ele>183</ele>
        <time>2018-03-14T11:36:47Z</time>
      </trkpt>
      <trkpt lat="46.03024" lon="4.75692">
        <ele>183</ele>
        <time>2018-03-14T11:36:48Z</time>
      </trkpt>
      <trkpt lat="46.03018" lon="4.75694">
        <ele>183</ele>
        <time>2018-03-14T11:36:49Z</time>
      </trkpt>
      <trkpt lat="46.03013" lon="4.75697">
        <ele>183</ele>
        <time>2018-03-14T11:36:50Z</time>
      </trkpt>
      <trkpt lat="46.03007" lon="4.75698">
        <ele>183</ele>
        <time>2018-03-14T11:36:51Z</time>
      </trkpt>
      <trkpt lat="46.03002" lon="4.757">
        <ele>183</ele>
        <time>2018-03-14T11:36:52Z</time>
      </trkpt>
      <trkpt lat="46.02996" lon="4.75702">
        <ele>183</ele>
        <time>2018-03-14T11:36:53Z</time>
      </trkpt>
      <trkpt lat="46.02991" lon="4.75705">
        <ele>183</ele>
        <time>2018-03-14T11:36:54Z</time>
      </trkpt>
      <trkpt lat="46.02985" lon="4.75706">
        <ele>183</ele>
        <time>2018-03-14T11:36:55Z</time>
      </trkpt>
      <trkpt lat="46.02981" lon="4.75708">
        <ele>183</ele>
        <time>2018-03-14T11:36:56Z</time>
      </trkpt>
      <trkpt lat="46.02975" lon="4.75709">
        <ele>183</ele>
        <time>2018-03-14T11:36:57Z</time>
      </trkpt>
      <trkpt lat="46.02969" lon="4.75711">
        <ele>183</ele>
        <time>2018-03-14T11:36:58Z</time>
      </trkpt>
      <trkpt lat="46.02965" lon="4.75713">
        <ele>183</ele>
        <time>2018-03-14T11:36:59Z</time>
      </trkpt>
      <trkpt lat="46.02959" lon="4.75715">
        <ele>183</ele>
        <time>2018-03-14T11:37:00Z</time>
      </trkpt>
      <trkpt lat="46.02953" lon="4.75717">
        <ele>183</ele>
        <time>2018-03-14T11:37:01Z</time>
      </trkpt>
      <trkpt lat="46.02946" lon="4.75718">
        <ele>183</ele>
        <time>2018-03-14T11:37:02Z</time>
      </trkpt>
      <trkpt lat="46.0294" lon="4.7572">
        <ele>183</ele>
        <time>2018-03-14T11:37:03Z</time>
      </trkpt>
      <trkpt lat="46.02934" lon="4.75721">
        <ele>183</ele>
        <time>2018-03-14T11:37:04Z</time>
      </trkpt>
      <trkpt lat="46.02928" lon="4.75723">
        <ele>183</ele>
        <time>2018-03-14T11:37:05Z</time>
      </trkpt>
      <trkpt lat="46.02922" lon="4.75724">
        <ele>183</ele>
        <time>2018-03-14T11:37:06Z</time>
      </trkpt>
      <trkpt lat="46.02915" lon="4.75724">
        <ele>183</ele>
        <time>2018-03-14T11:37:07Z</time>
      </trkpt>
      <trkpt lat="46.02909" lon="4.75725">
        <ele>183</ele>
        <time>2018-03-14T11:37:08Z</time>
      </trkpt>
      <trkpt lat="46.02903" lon="4.75726">
        <ele>183</ele>
        <time>2018-03-14T11:37:09Z</time>
      </trkpt>
      <trkpt lat="46.02896" lon="4.75726">
        <ele>183</ele>
        <time>2018-03-14T11:37:10Z</time>
      </trkpt>
      <trkpt lat="46.0289" lon="4.75726">
        <ele>183</ele>
        <time>2018-03-14T11:37:11Z</time>
      </trkpt>
      <trkpt lat="46.02884" lon="4.75726">
        <ele>183</ele>
        <time>2018-03-14T11:37:12Z</time>
      </trkpt>
      <trkpt lat="46.02877" lon="4.75727">
        <ele>183</ele>
        <time>2018-03-14T11:37:13Z</time>
      </trkpt>
      <trkpt lat="46.02871" lon="4.75726">
        <ele>183</ele>
        <time>2018-03-14T11:37:14Z</time>
      </trkpt>
      <trkpt lat="46.02865" lon="4.75726">
        <ele>183</ele>
        <time>2018-03-14T11:37:15Z</time>
      </trkpt>
      <trkpt lat="46.02858" lon="4.75726">
        <ele>184</ele>
        <time>2018-03-14T11:37:16Z</time>
      </trkpt>
      <trkpt lat="46.02852" lon="4.75726">
        <ele>184</ele>
        <time>2018-03-14T11:37:17Z</time>
      </trkpt>
      <trkpt lat="46.02845" lon="4.75726">
        <ele>184</ele>
        <time>2018-03-14T11:37:18Z</time>
      </trkpt>
      <trkpt lat="46.0284" lon="4.75725">
        <ele>184</ele>
        <time>2018-03-14T11:37:19Z</time>
      </trkpt>
      <trkpt lat="46.02834" lon="4.75724">
        <ele>184</ele>
        <time>2018-03-14T11:37:20Z</time>
      </trkpt>
      <trkpt lat="46.02828" lon="4.75723">
        <ele>184</ele>
        <time>2018-03-14T11:37:21Z</time>
      </trkpt>
      <trkpt lat="46.02822" lon="4.75722">
        <ele>184</ele>
        <time>2018-03-14T11:37:22Z</time>
      </trkpt>
      <trkpt lat="46.02816" lon="4.75722">
        <ele>184</ele>
        <time>2018-03-14T11:37:23Z</time>
      </trkpt>
      <trkpt lat="46.0281" lon="4.7572">
        <ele>183</ele>
        <time>2018-03-14T11:37:24Z</time>
      </trkpt>
      <trkpt lat="46.02804" lon="4.75719">
        <ele>183</ele>
        <time>2018-03-14T11:37:25Z</time>
      </trkpt>
      <trkpt lat="46.02798" lon="4.75718">
        <ele>183</ele>
        <time>2018-03-14T11:37:26Z</time>
      </trkpt>
      <trkpt lat="46.02792" lon="4.75717">
        <ele>183</ele>
        <time>2018-03-14T11:37:27Z</time>
      </trkpt>
      <trkpt lat="46.02785" lon="4.75717">
        <ele>183</ele>
        <time>2018-03-14T11:37:28Z</time>
      </trkpt>
      <trkpt lat="46.02778" lon="4.75717">
        <ele>183</ele>
        <time>2018-03-14T11:37:29Z</time>
      </trkpt>
      <trkpt lat="46.02772" lon="4.75717">
        <ele>183</ele>
        <time>2018-03-14T11:37:30Z</time>
      </trkpt>
      <trkpt lat="46.02766" lon="4.75716">
        <ele>183</ele>
        <time>2018-03-14T11:37:31Z</time>
      </trkpt>
      <trkpt lat="46.02759" lon="4.75715">
        <ele>183</ele>
        <time>2018-03-14T11:37:32Z</time>
      </trkpt>
      <trkpt lat="46.02753" lon="4.75715">
        <ele>183</ele>
        <time>2018-03-14T11:37:33Z</time>
      </trkpt>
      <trkpt lat="46.02747" lon="4.75716">
        <ele>182</ele>
        <time>2018-03-14T11:37:34Z</time>
      </trkpt>
      <trkpt lat="46.02741" lon="4.75716">
        <ele>182</ele>
        <time>2018-03-14T11:37:35Z</time>
      </trkpt>
      <trkpt lat="46.02736" lon="4.75718">
        <ele>182</ele>
        <time>2018-03-14T11:37:36Z</time>
      </trkpt>
      <trkpt lat="46.02732" lon="4.7572">
        <ele>182</ele>
        <time>2018-03-14T11:37:37Z</time>
      </trkpt>
      <trkpt lat="46.02727" lon="4.75722">
        <ele>182</ele>
        <time>2018-03-14T11:37:38Z</time>
      </trkpt>
      <trkpt lat="46.02723" lon="4.75725">
        <ele>182</ele>
        <time>2018-03-14T11:37:39Z</time>
      </trkpt>
      <trkpt lat="46.02719" lon="4.75728">
        <ele>182</ele>
        <time>2018-03-14T11:37:40Z</time>
      </trkpt>
      <trkpt lat="46.02711" lon="4.75732">
        <ele>182</ele>
        <time>2018-03-14T11:37:42Z</time>
      </trkpt>
      <trkpt lat="46.02707" lon="4.75734">
        <ele>182</ele>
        <time>2018-03-14T11:37:43Z</time>
      </trkpt>
      <trkpt lat="46.02703" lon="4.75736">
        <ele>182</ele>
        <time>2018-03-14T11:37:44Z</time>
      </trkpt>
      <trkpt lat="46.02698" lon="4.75738">
        <ele>182</ele>
        <time>2018-03-14T11:37:45Z</time>
      </trkpt>
      <trkpt lat="46.02691" lon="4.75741">
        <ele>182</ele>
        <time>2018-03-14T11:37:47Z</time>
      </trkpt>
      <trkpt lat="46.02687" lon="4.75741">
        <ele>182</ele>
        <time>2018-03-14T11:37:48Z</time>
      </trkpt>
      <trkpt lat="46.02679" lon="4.75743">
        <ele>181</ele>
        <time>2018-03-14T11:37:50Z</time>
      </trkpt>
      <trkpt lat="46.02675" lon="4.75743">
        <ele>181</ele>
        <time>2018-03-14T11:37:51Z</time>
      </trkpt>
      <trkpt lat="46.02667" lon="4.75747">
        <ele>181</ele>
        <time>2018-03-14T11:37:53Z</time>
      </trkpt>
      <trkpt lat="46.02665" lon="4.75747">
        <ele>181</ele>
        <time>2018-03-14T11:37:54Z</time>
      </trkpt>
      <trkpt lat="46.02657" lon="4.75746">
        <ele>181</ele>
        <time>2018-03-14T11:37:57Z</time>
      </trkpt>
      <trkpt lat="46.02654" lon="4.75746">
        <ele>181</ele>
        <time>2018-03-14T11:37:58Z</time>
      </trkpt>
      <trkpt lat="46.02646" lon="4.75746">
        <ele>182</ele>
        <time>2018-03-14T11:38:01Z</time>
      </trkpt>
      <trkpt lat="46.02643" lon="4.75746">
        <ele>182</ele>
        <time>2018-03-14T11:38:02Z</time>
      </trkpt>
      <trkpt lat="46.02635" lon="4.75746">
        <ele>182</ele>
        <time>2018-03-14T11:38:05Z</time>
      </trkpt>
      <trkpt lat="46.02633" lon="4.75746">
        <ele>182</ele>
        <time>2018-03-14T11:38:06Z</time>
      </trkpt>
      <trkpt lat="46.02626" lon="4.75746">
        <ele>182</ele>
        <time>2018-03-14T11:38:09Z</time>
      </trkpt>
      <trkpt lat="46.02623" lon="4.75745">
        <ele>182</ele>
        <time>2018-03-14T11:38:10Z</time>
      </trkpt>
      <trkpt lat="46.02616" lon="4.75744">
        <ele>182</ele>
        <time>2018-03-14T11:38:13Z</time>
      </trkpt>
      <trkpt lat="46.02614" lon="4.75743">
        <ele>182</ele>
        <time>2018-03-14T11:38:14Z</time>
      </trkpt>
      <trkpt lat="46.02607" lon="4.75741">
        <ele>183</ele>
        <time>2018-03-14T11:38:17Z</time>
      </trkpt>
      <trkpt lat="46.02604" lon="4.75741">
        <ele>183</ele>
        <time>2018-03-14T11:38:18Z</time>
      </trkpt>
      <trkpt lat="46.02596" lon="4.7574">
        <ele>183</ele>
        <time>2018-03-14T11:38:22Z</time>
      </trkpt>
      <trkpt lat="46.02594" lon="4.7574">
        <ele>183</ele>
        <time>2018-03-14T11:38:23Z</time>
      </trkpt>
      <trkpt lat="46.02585" lon="4.75739">
        <ele>183</ele>
        <time>2018-03-14T11:38:28Z</time>
      </trkpt>
      <trkpt lat="46.02583" lon="4.75739">
        <ele>184</ele>
        <time>2018-03-14T11:38:29Z</time>
      </trkpt>
      <trkpt lat="46.02575" lon="4.75739">
        <ele>184</ele>
        <time>2018-03-14T11:38:33Z</time>
      </trkpt>
      <trkpt lat="46.02573" lon="4.75739">
        <ele>185</ele>
        <time>2018-03-14T11:38:34Z</time>
      </trkpt>
      <trkpt lat="46.02564" lon="4.75737">
        <ele>185</ele>
        <time>2018-03-14T11:38:39Z</time>
      </trkpt>
      <trkpt lat="46.02562" lon="4.75737">
        <ele>185</ele>
        <time>2018-03-14T11:38:40Z</time>
      </trkpt>
      <trkpt lat="46.02555" lon="4.75738">
        <ele>186</ele>
        <time>2018-03-14T11:38:44Z</time>
      </trkpt>
      <trkpt lat="46.02553" lon="4.75739">
        <ele>186</ele>
        <time>2018-03-14T11:38:45Z</time>
      </trkpt>
      <trkpt lat="46.02545" lon="4.75739">
        <ele>186</ele>
        <time>2018-03-14T11:38:49Z</time>
      </trkpt>
      <trkpt lat="46.02543" lon="4.75739">
        <ele>186</ele>
        <time>2018-03-14T11:38:50Z</time>
      </trkpt>
      <trkpt lat="46.02534" lon="4.75739">
        <ele>187</ele>
        <time>2018-03-14T11:38:54Z</time>
      </trkpt>
      <trkpt lat="46.02532" lon="4.7574">
        <ele>187</ele>
        <time>2018-03-14T11:38:55Z</time>
      </trkpt>
      <trkpt lat="46.02525" lon="4.75742">
        <ele>187</ele>
        <time>2018-03-14T11:38:59Z</time>
      </trkpt>
      <trkpt lat="46.02523" lon="4.75743">
        <ele>187</ele>
        <time>2018-03-14T11:39:00Z</time>
      </trkpt>
      <trkpt lat="46.02514" lon="4.75745">
        <ele>188</ele>
        <time>2018-03-14T11:39:05Z</time>
      </trkpt>
      <trkpt lat="46.02513" lon="4.75746">
        <ele>188</ele>
        <time>2018-03-14T11:39:06Z</time>
      </trkpt>
      <trkpt lat="46.02504" lon="4.75749">
        <ele>189</ele>
        <time>2018-03-14T11:39:10Z</time>
      </trkpt>
      <trkpt lat="46.02502" lon="4.75751">
        <ele>190</ele>
        <time>2018-03-14T11:39:11Z</time>
      </trkpt>
      <trkpt lat="46.02494" lon="4.75755">
        <ele>190</ele>
        <time>2018-03-14T11:39:15Z</time>
      </trkpt>
      <trkpt lat="46.02492" lon="4.75756">
        <ele>190</ele>
        <time>2018-03-14T11:39:16Z</time>
      </trkpt>
      <trkpt lat="46.02484" lon="4.7576">
        <ele>190</ele>
        <time>2018-03-14T11:39:20Z</time>
      </trkpt>
      <trkpt lat="46.02483" lon="4.75761">
        <ele>191</ele>
        <time>2018-03-14T11:39:21Z</time>
      </trkpt>
      <trkpt lat="46.02475" lon="4.75765">
        <ele>191</ele>
        <time>2018-03-14T11:39:25Z</time>
      </trkpt>
      <trkpt lat="46.02473" lon="4.75766">
        <ele>191</ele>
        <time>2018-03-14T11:39:26Z</time>
      </trkpt>
      <trkpt lat="46.02466" lon="4.7577">
        <ele>191</ele>
        <time>2018-03-14T11:39:30Z</time>
      </trkpt>
      <trkpt lat="46.02464" lon="4.75771">
        <ele>191</ele>
        <time>2018-03-14T11:39:31Z</time>
      </trkpt>
      <trkpt lat="46.02456" lon="4.75774">
        <ele>191</ele>
        <time>2018-03-14T11:39:36Z</time>
      </trkpt>
      <trkpt lat="46.02454" lon="4.75775">
        <ele>191</ele>
        <time>2018-03-14T11:39:37Z</time>
      </trkpt>
      <trkpt lat="46.02446" lon="4.7578">
        <ele>191</ele>
        <time>2018-03-14T11:39:41Z</time>
      </trkpt>
      <trkpt lat="46.02444" lon="4.75781">
        <ele>191</ele>
        <time>2018-03-14T11:39:42Z</time>
      </trkpt>
      <trkpt lat="46.02436" lon="4.75784">
        <ele>191</ele>
        <time>2018-03-14T11:39:46Z</time>
      </trkpt>
      <trkpt lat="46.02434" lon="4.75785">
        <ele>191</ele>
        <time>2018-03-14T11:39:47Z</time>
      </trkpt>
      <trkpt lat="46.02428" lon="4.75789">
        <ele>191</ele>
        <time>2018-03-14T11:39:50Z</time>
      </trkpt>
      <trkpt lat="46.02425" lon="4.7579">
        <ele>191</ele>
        <time>2018-03-14T11:39:51Z</time>
      </trkpt>
      <trkpt lat="46.02419" lon="4.75794">
        <ele>192</ele>
        <time>2018-03-14T11:39:54Z</time>
      </trkpt>
      <trkpt lat="46.02416" lon="4.75796">
        <ele>192</ele>
        <time>2018-03-14T11:39:55Z</time>
      </trkpt>
      <trkpt lat="46.02408" lon="4.758">
        <ele>192</ele>
        <time>2018-03-14T11:39:58Z</time>
      </trkpt>
      <trkpt lat="46.02406" lon="4.75801">
        <ele>192</ele>
        <time>2018-03-14T11:39:59Z</time>
      </trkpt>
      <trkpt lat="46.02398" lon="4.75806">
        <ele>192</ele>
        <time>2018-03-14T11:40:02Z</time>
      </trkpt>
      <trkpt lat="46.02396" lon="4.75807">
        <ele>192</ele>
        <time>2018-03-14T11:40:03Z</time>
      </trkpt>
      <trkpt lat="46.02389" lon="4.75813">
        <ele>192</ele>
        <time>2018-03-14T11:40:06Z</time>
      </trkpt>
      <trkpt lat="46.02386" lon="4.75815">
        <ele>192</ele>
        <time>2018-03-14T11:40:07Z</time>
      </trkpt>
      <trkpt lat="46.02378" lon="4.75821">
        <ele>192</ele>
        <time>2018-03-14T11:40:10Z</time>
      </trkpt>
      <trkpt lat="46.02376" lon="4.75824">
        <ele>192</ele>
        <time>2018-03-14T11:40:11Z</time>
      </trkpt>
      <trkpt lat="46.0237" lon="4.75829">
        <ele>192</ele>
        <time>2018-03-14T11:40:13Z</time>
      </trkpt>
      <trkpt lat="46.02366" lon="4.75832">
        <ele>192</ele>
        <time>2018-03-14T11:40:14Z</time>
      </trkpt>
      <trkpt lat="46.02363" lon="4.75835">
        <ele>193</ele>
        <time>2018-03-14T11:40:15Z</time>
      </trkpt>
      <trkpt lat="46.02354" lon="4.75842">
        <ele>193</ele>
        <time>2018-03-14T11:40:16Z</time>
      </trkpt>
      <trkpt lat="46.02347" lon="4.75848">
        <ele>193</ele>
        <time>2018-03-14T11:40:18Z</time>
      </trkpt>
      <trkpt lat="46.02344" lon="4.75851">
        <ele>193</ele>
        <time>2018-03-14T11:40:19Z</time>
      </trkpt>
      <trkpt lat="46.02337" lon="4.75858">
        <ele>193</ele>
        <time>2018-03-14T11:40:21Z</time>
      </trkpt>
      <trkpt lat="46.02333" lon="4.75861">
        <ele>193</ele>
        <time>2018-03-14T11:40:22Z</time>
      </trkpt>
      <trkpt lat="46.02328" lon="4.75868">
        <ele>193</ele>
        <time>2018-03-14T11:40:24Z</time>
      </trkpt>
      <trkpt lat="46.02325" lon="4.75872">
        <ele>193</ele>
        <time>2018-03-14T11:40:25Z</time>
      </trkpt>
      <trkpt lat="46.02319" lon="4.75878">
        <ele>193</ele>
        <time>2018-03-14T11:40:27Z</time>
      </trkpt>
      <trkpt lat="46.02317" lon="4.75879">
        <ele>193</ele>
        <time>2018-03-14T11:40:28Z</time>
      </trkpt>
      <trkpt lat="46.02312" lon="4.75883">
        <ele>193</ele>
        <time>2018-03-14T11:40:29Z</time>
      </trkpt>
      <trkpt lat="46.02309" lon="4.75886">
        <ele>193</ele>
        <time>2018-03-14T11:40:30Z</time>
      </trkpt>
      <trkpt lat="46.02301" lon="4.75893">
        <ele>193</ele>
        <time>2018-03-14T11:40:32Z</time>
      </trkpt>
      <trkpt lat="46.02297" lon="4.75896">
        <ele>193</ele>
        <time>2018-03-14T11:40:33Z</time>
      </trkpt>
      <trkpt lat="46.02293" lon="4.75901">
        <ele>193</ele>
        <time>2018-03-14T11:40:34Z</time>
      </trkpt>
      <trkpt lat="46.02289" lon="4.75905">
        <ele>193</ele>
        <time>2018-03-14T11:40:35Z</time>
      </trkpt>
      <trkpt lat="46.02285" lon="4.75909">
        <ele>193</ele>
        <time>2018-03-14T11:40:36Z</time>
      </trkpt>
      <trkpt lat="46.02281" lon="4.75913">
        <ele>193</ele>
        <time>2018-03-14T11:40:37Z</time>
      </trkpt>
      <trkpt lat="46.02273" lon="4.7592">
        <ele>193</ele>
        <time>2018-03-14T11:40:39Z</time>
      </trkpt>
      <trkpt lat="46.02269" lon="4.75922">
        <ele>193</ele>
        <time>2018-03-14T11:40:40Z</time>
      </trkpt>
      <trkpt lat="46.02264" lon="4.75926">
        <ele>193</ele>
        <time>2018-03-14T11:40:41Z</time>
      </trkpt>
      <trkpt lat="46.0226" lon="4.75929">
        <ele>193</ele>
        <time>2018-03-14T11:40:42Z</time>
      </trkpt>
      <trkpt lat="46.02256" lon="4.75932">
        <ele>193</ele>
        <time>2018-03-14T11:40:43Z</time>
      </trkpt>
      <trkpt lat="46.02252" lon="4.75936">
        <ele>193</ele>
        <time>2018-03-14T11:40:44Z</time>
      </trkpt>
      <trkpt lat="46.02247" lon="4.7594">
        <ele>193</ele>
        <time>2018-03-14T11:40:45Z</time>
      </trkpt>
      <trkpt lat="46.02244" lon="4.75943">
        <ele>193</ele>
        <time>2018-03-14T11:40:46Z</time>
      </trkpt>
      <trkpt lat="46.02239" lon="4.75948">
        <ele>193</ele>
        <time>2018-03-14T11:40:47Z</time>
      </trkpt>
      <trkpt lat="46.02237" lon="4.75953">
        <ele>193</ele>
        <time>2018-03-14T11:40:48Z</time>
      </trkpt>
      <trkpt lat="46.02232" lon="4.75957">
        <ele>193</ele>
        <time>2018-03-14T11:40:49Z</time>
      </trkpt>
      <trkpt lat="46.02227" lon="4.75962">
        <ele>193</ele>
        <time>2018-03-14T11:40:50Z</time>
      </trkpt>
      <trkpt lat="46.02221" lon="4.75966">
        <ele>193</ele>
        <time>2018-03-14T11:40:51Z</time>
      </trkpt>
      <trkpt lat="46.02216" lon="4.7597">
        <ele>193</ele>
        <time>2018-03-14T11:40:52Z</time>
      </trkpt>
      <trkpt lat="46.02211" lon="4.75974">
        <ele>193</ele>
        <time>2018-03-14T11:40:53Z</time>
      </trkpt>
      <trkpt lat="46.02206" lon="4.75979">
        <ele>192</ele>
        <time>2018-03-14T11:40:54Z</time>
      </trkpt>
      <trkpt lat="46.02201" lon="4.75983">
        <ele>192</ele>
        <time>2018-03-14T11:40:55Z</time>
      </trkpt>
      <trkpt lat="46.02196" lon="4.75987">
        <ele>192</ele>
        <time>2018-03-14T11:40:56Z</time>
      </trkpt>
      <trkpt lat="46.02191" lon="4.7599">
        <ele>192</ele>
        <time>2018-03-14T11:40:57Z</time>
      </trkpt>
      <trkpt lat="46.02186" lon="4.75994">
        <ele>192</ele>
        <time>2018-03-14T11:40:58Z</time>
      </trkpt>
      <trkpt lat="46.02182" lon="4.75997">
        <ele>192</ele>
        <time>2018-03-14T11:40:59Z</time>
      </trkpt>
      <trkpt lat="46.02178" lon="4.76005">
        <ele>193</ele>
        <time>2018-03-14T11:41:00Z</time>
      </trkpt>
      <trkpt lat="46.02174" lon="4.76008">
        <ele>193</ele>
        <time>2018-03-14T11:41:01Z</time>
      </trkpt>
      <trkpt lat="46.0217" lon="4.7601">
        <ele>193</ele>
        <time>2018-03-14T11:41:02Z</time>
      </trkpt>
      <trkpt lat="46.02165" lon="4.76013">
        <ele>193</ele>
        <time>2018-03-14T11:41:03Z</time>
      </trkpt>
      <trkpt lat="46.0216" lon="4.76018">
        <ele>193</ele>
        <time>2018-03-14T11:41:04Z</time>
      </trkpt>
      <trkpt lat="46.02155" lon="4.76028">
        <ele>193</ele>
        <time>2018-03-14T11:41:06Z</time>
      </trkpt>
      <trkpt lat="46.02151" lon="4.76031">
        <ele>193</ele>
        <time>2018-03-14T11:41:07Z</time>
      </trkpt>
      <trkpt lat="46.02144" lon="4.76038">
        <ele>193</ele>
        <time>2018-03-14T11:41:09Z</time>
      </trkpt>
      <trkpt lat="46.0214" lon="4.7604">
        <ele>193</ele>
        <time>2018-03-14T11:41:10Z</time>
      </trkpt>
      <trkpt lat="46.02133" lon="4.76044">
        <ele>193</ele>
        <time>2018-03-14T11:41:12Z</time>
      </trkpt>
      <trkpt lat="46.02129" lon="4.76047">
        <ele>194</ele>
        <time>2018-03-14T11:41:13Z</time>
      </trkpt>
      <trkpt lat="46.02123" lon="4.76053">
        <ele>194</ele>
        <time>2018-03-14T11:41:15Z</time>
      </trkpt>
      <trkpt lat="46.02119" lon="4.76057">
        <ele>194</ele>
        <time>2018-03-14T11:41:16Z</time>
      </trkpt>
      <trkpt lat="46.02112" lon="4.76063">
        <ele>194</ele>
        <time>2018-03-14T11:41:18Z</time>
      </trkpt>
      <trkpt lat="46.02108" lon="4.76067">
        <ele>194</ele>
        <time>2018-03-14T11:41:19Z</time>
      </trkpt>
      <trkpt lat="46.02101" lon="4.76074">
        <ele>195</ele>
        <time>2018-03-14T11:41:21Z</time>
      </trkpt>
      <trkpt lat="46.02098" lon="4.76076">
        <ele>195</ele>
        <time>2018-03-14T11:41:22Z</time>
      </trkpt>
      <trkpt lat="46.02091" lon="4.76081">
        <ele>195</ele>
        <time>2018-03-14T11:41:24Z</time>
      </trkpt>
      <trkpt lat="46.02087" lon="4.76083">
        <ele>196</ele>
        <time>2018-03-14T11:41:25Z</time>
      </trkpt>
      <trkpt lat="46.02079" lon="4.76086">
        <ele>196</ele>
        <time>2018-03-14T11:41:27Z</time>
      </trkpt>
      <trkpt lat="46.02076" lon="4.76088">
        <ele>196</ele>
        <time>2018-03-14T11:41:28Z</time>
      </trkpt>
      <trkpt lat="46.02069" lon="4.76091">
        <ele>197</ele>
        <time>2018-03-14T11:41:31Z</time>
      </trkpt>
      <trkpt lat="46.02067" lon="4.76091">
        <ele>197</ele>
        <time>2018-03-14T11:41:32Z</time>
      </trkpt>
      <trkpt lat="46.02064" lon="4.76092">
        <ele>197</ele>
        <time>2018-03-14T11:41:33Z</time>
      </trkpt>
      <trkpt lat="46.02056" lon="4.76093">
        <ele>197</ele>
        <time>2018-03-14T11:41:34Z</time>
      </trkpt>
      <trkpt lat="46.02048" lon="4.76094">
        <ele>197</ele>
        <time>2018-03-14T11:41:36Z</time>
      </trkpt>
      <trkpt lat="46.02046" lon="4.76094">
        <ele>197</ele>
        <time>2018-03-14T11:41:37Z</time>
      </trkpt>
      <trkpt lat="46.02037" lon="4.76096">
        <ele>197</ele>
        <time>2018-03-14T11:41:39Z</time>
      </trkpt>
      <trkpt lat="46.02034" lon="4.76096">
        <ele>197</ele>
        <time>2018-03-14T11:41:40Z</time>
      </trkpt>
      <trkpt lat="46.02027" lon="4.76097">
        <ele>197</ele>
        <time>2018-03-14T11:41:43Z</time>
      </trkpt>
      <trkpt lat="46.02025" lon="4.76098">
        <ele>197</ele>
        <time>2018-03-14T11:41:44Z</time>
      </trkpt>
      <trkpt lat="46.02022" lon="4.76098">
        <ele>197</ele>
        <time>2018-03-14T11:41:45Z</time>
      </trkpt>
      <trkpt lat="46.02012" lon="4.761">
        <ele>197</ele>
        <time>2018-03-14T11:41:46Z</time>
      </trkpt>
      <trkpt lat="46.02006" lon="4.76101">
        <ele>197</ele>
        <time>2018-03-14T11:41:49Z</time>
      </trkpt>
      <trkpt lat="46.01998" lon="4.76103">
        <ele>198</ele>
        <time>2018-03-14T11:41:50Z</time>
      </trkpt>
      <trkpt lat="46.0199" lon="4.76104">
        <ele>198</ele>
        <time>2018-03-14T11:41:52Z</time>
      </trkpt>
      <trkpt lat="46.01987" lon="4.76105">
        <ele>198</ele>
        <time>2018-03-14T11:41:53Z</time>
      </trkpt>
      <trkpt lat="46.01979" lon="4.76107">
        <ele>198</ele>
        <time>2018-03-14T11:41:55Z</time>
      </trkpt>
      <trkpt lat="46.01975" lon="4.76108">
        <ele>198</ele>
        <time>2018-03-14T11:41:56Z</time>
      </trkpt>
      <trkpt lat="46.01967" lon="4.7611">
        <ele>198</ele>
        <time>2018-03-14T11:41:58Z</time>
      </trkpt>
      <trkpt lat="46.01962" lon="4.76111">
        <ele>198</ele>
        <time>2018-03-14T11:41:59Z</time>
      </trkpt>
      <trkpt lat="46.01955" lon="4.76113">
        <ele>198</ele>
        <time>2018-03-14T11:42:00Z</time>
      </trkpt>
      <trkpt lat="46.01952" lon="4.76115">
        <ele>198</ele>
        <time>2018-03-14T11:42:01Z</time>
      </trkpt>
      <trkpt lat="46.01945" lon="4.76118">
        <ele>198</ele>
        <time>2018-03-14T11:42:03Z</time>
      </trkpt>
      <trkpt lat="46.0194" lon="4.76118">
        <ele>198</ele>
        <time>2018-03-14T11:42:04Z</time>
      </trkpt>
      <trkpt lat="46.01932" lon="4.76122">
        <ele>198</ele>
        <time>2018-03-14T11:42:06Z</time>
      </trkpt>
      <trkpt lat="46.01927" lon="4.76124">
        <ele>198</ele>
        <time>2018-03-14T11:42:07Z</time>
      </trkpt>
      <trkpt lat="46.01923" lon="4.76125">
        <ele>199</ele>
        <time>2018-03-14T11:42:08Z</time>
      </trkpt>
      <trkpt lat="46.01918" lon="4.76126">
        <ele>199</ele>
        <time>2018-03-14T11:42:09Z</time>
      </trkpt>
      <trkpt lat="46.0191" lon="4.76128">
        <ele>199</ele>
        <time>2018-03-14T11:42:11Z</time>
      </trkpt>
      <trkpt lat="46.01906" lon="4.76128">
        <ele>199</ele>
        <time>2018-03-14T11:42:12Z</time>
      </trkpt>
      <trkpt lat="46.01898" lon="4.7613">
        <ele>199</ele>
        <time>2018-03-14T11:42:14Z</time>
      </trkpt>
      <trkpt lat="46.01895" lon="4.76131">
        <ele>199</ele>
        <time>2018-03-14T11:42:15Z</time>
      </trkpt>
      <trkpt lat="46.01887" lon="4.76132">
        <ele>199</ele>
        <time>2018-03-14T11:42:18Z</time>
      </trkpt>
      <trkpt lat="46.01885" lon="4.76132">
        <ele>199</ele>
        <time>2018-03-14T11:42:19Z</time>
      </trkpt>
      <trkpt lat="46.01876" lon="4.76134">
        <ele>199</ele>
        <time>2018-03-14T11:42:22Z</time>
      </trkpt>
      <trkpt lat="46.01867" lon="4.76136">
        <ele>199</ele>
        <time>2018-03-14T11:42:23Z</time>
      </trkpt>
      <trkpt lat="46.01859" lon="4.76134">
        <ele>199</ele>
        <time>2018-03-14T11:42:25Z</time>
      </trkpt>
      <trkpt lat="46.01857" lon="4.76134">
        <ele>199</ele>
        <time>2018-03-14T11:42:26Z</time>
      </trkpt>
      <trkpt lat="46.01853" lon="4.76134">
        <ele>199</ele>
        <time>2018-03-14T11:42:28Z</time>
      </trkpt>
      <trkpt lat="46.01845" lon="4.76133">
        <ele>199</ele>
        <time>2018-03-14T11:42:29Z</time>
      </trkpt>
      <trkpt lat="46.01837" lon="4.76133">
        <ele>199</ele>
        <time>2018-03-14T11:42:32Z</time>
      </trkpt>
      <trkpt lat="46.01835" lon="4.76133">
        <ele>199</ele>
        <time>2018-03-14T11:42:33Z</time>
      </trkpt>
      <trkpt lat="46.01833" lon="4.76133">
        <ele>198</ele>
        <time>2018-03-14T11:42:34Z</time>
      </trkpt>
      <trkpt lat="46.01824" lon="4.76132">
        <ele>198</ele>
        <time>2018-03-14T11:42:35Z</time>
      </trkpt>
      <trkpt lat="46.01816" lon="4.76132">
        <ele>198</ele>
        <time>2018-03-14T11:42:37Z</time>
      </trkpt>
      <trkpt lat="46.01811" lon="4.76132">
        <ele>198</ele>
        <time>2018-03-14T11:42:38Z</time>
      </trkpt>
      <trkpt lat="46.01803" lon="4.76131">
        <ele>198</ele>
        <time>2018-03-14T11:42:40Z</time>
      </trkpt>
      <trkpt lat="46.01799" lon="4.76131">
        <ele>198</ele>
        <time>2018-03-14T11:42:41Z</time>
      </trkpt>
      <trkpt lat="46.0179" lon="4.76129">
        <ele>198</ele>
        <time>2018-03-14T11:42:44Z</time>
      </trkpt>
      <trkpt lat="46.01788" lon="4.76129">
        <ele>198</ele>
        <time>2018-03-14T11:42:45Z</time>
      </trkpt>
      <trkpt lat="46.01781" lon="4.7613">
        <ele>198</ele>
        <time>2018-03-14T11:42:48Z</time>
      </trkpt>
      <trkpt lat="46.01773" lon="4.76129">
        <ele>198</ele>
        <time>2018-03-14T11:42:49Z</time>
      </trkpt>
      <trkpt lat="46.01764" lon="4.76128">
        <ele>198</ele>
        <time>2018-03-14T11:42:51Z</time>
      </trkpt>
      <trkpt lat="46.0176" lon="4.76128">
        <ele>198</ele>
        <time>2018-03-14T11:42:52Z</time>
      </trkpt>
      <trkpt lat="46.01752" lon="4.76127">
        <ele>198</ele>
        <time>2018-03-14T11:42:54Z</time>
      </trkpt>
      <trkpt lat="46.01748" lon="4.76126">
        <ele>197</ele>
        <time>2018-03-14T11:42:55Z</time>
      </trkpt>
      <trkpt lat="46.0174" lon="4.76126">
        <ele>197</ele>
        <time>2018-03-14T11:42:57Z</time>
      </trkpt>
      <trkpt lat="46.01736" lon="4.76125">
        <ele>197</ele>
        <time>2018-03-14T11:42:58Z</time>
      </trkpt>
      <trkpt lat="46.01728" lon="4.76124">
        <ele>197</ele>
        <time>2018-03-14T11:43:00Z</time>
      </trkpt>
      <trkpt lat="46.01724" lon="4.76124">
        <ele>197</ele>
        <time>2018-03-14T11:43:01Z</time>
      </trkpt>
      <trkpt lat="46.01715" lon="4.76124">
        <ele>197</ele>
        <time>2018-03-14T11:43:03Z</time>
      </trkpt>
      <trkpt lat="46.01711" lon="4.76124">
        <ele>197</ele>
        <time>2018-03-14T11:43:04Z</time>
      </trkpt>
      <trkpt lat="46.01703" lon="4.76122">
        <ele>198</ele>
        <time>2018-03-14T11:43:06Z</time>
      </trkpt>
      <trkpt lat="46.017" lon="4.76121">
        <ele>198</ele>
        <time>2018-03-14T11:43:07Z</time>
      </trkpt>
      <trkpt lat="46.01692" lon="4.76121">
        <ele>198</ele>
        <time>2018-03-14T11:43:09Z</time>
      </trkpt>
      <trkpt lat="46.01688" lon="4.76121">
        <ele>198</ele>
        <time>2018-03-14T11:43:10Z</time>
      </trkpt>
      <trkpt lat="46.0168" lon="4.7612">
        <ele>198</ele>
        <time>2018-03-14T11:43:12Z</time>
      </trkpt>
      <trkpt lat="46.01676" lon="4.76119">
        <ele>198</ele>
        <time>2018-03-14T11:43:13Z</time>
      </trkpt>
      <trkpt lat="46.01668" lon="4.76117">
        <ele>198</ele>
        <time>2018-03-14T11:43:15Z</time>
      </trkpt>
      <trkpt lat="46.01664" lon="4.76117">
        <ele>199</ele>
        <time>2018-03-14T11:43:16Z</time>
      </trkpt>
      <trkpt lat="46.01656" lon="4.76116">
        <ele>199</ele>
        <time>2018-03-14T11:43:18Z</time>
      </trkpt>
      <trkpt lat="46.01652" lon="4.76116">
        <ele>199</ele>
        <time>2018-03-14T11:43:19Z</time>
      </trkpt>
      <trkpt lat="46.01645" lon="4.76116">
        <ele>199</ele>
        <time>2018-03-14T11:43:21Z</time>
      </trkpt>
      <trkpt lat="46.01641" lon="4.76116">
        <ele>199</ele>
        <time>2018-03-14T11:43:22Z</time>
      </trkpt>
      <trkpt lat="46.01633" lon="4.76115">
        <ele>199</ele>
        <time>2018-03-14T11:43:24Z</time>
      </trkpt>
      <trkpt lat="46.01629" lon="4.76115">
        <ele>199</ele>
        <time>2018-03-14T11:43:25Z</time>
      </trkpt>
      <trkpt lat="46.01621" lon="4.76114">
        <ele>200</ele>
        <time>2018-03-14T11:43:27Z</time>
      </trkpt>
      <trkpt lat="46.01617" lon="4.76114">
        <ele>200</ele>
        <time>2018-03-14T11:43:28Z</time>
      </trkpt>
      <trkpt lat="46.01609" lon="4.76112">
        <ele>200</ele>
        <time>2018-03-14T11:43:30Z</time>
      </trkpt>
      <trkpt lat="46.01606" lon="4.76111">
        <ele>200</ele>
        <time>2018-03-14T11:43:31Z</time>
      </trkpt>
      <trkpt lat="46.01598" lon="4.7611">
        <ele>200</ele>
        <time>2018-03-14T11:43:34Z</time>
      </trkpt>
      <trkpt lat="46.01595" lon="4.7611">
        <ele>200</ele>
        <time>2018-03-14T11:43:35Z</time>
      </trkpt>
      <trkpt lat="46.01586" lon="4.76109">
        <ele>200</ele>
        <time>2018-03-14T11:43:37Z</time>
      </trkpt>
      <trkpt lat="46.01584" lon="4.76109">
        <ele>200</ele>
        <time>2018-03-14T11:43:38Z</time>
      </trkpt>
      <trkpt lat="46.01582" lon="4.76109">
        <ele>202</ele>
        <time>2018-03-14T11:43:39Z</time>
      </trkpt>
      <trkpt lat="46.01575" lon="4.76107">
        <ele>202</ele>
        <time>2018-03-14T11:43:40Z</time>
      </trkpt>
      <trkpt lat="46.01568" lon="4.76105">
        <ele>202</ele>
        <time>2018-03-14T11:43:42Z</time>
      </trkpt>
      <trkpt lat="46.01564" lon="4.76104">
        <ele>202</ele>
        <time>2018-03-14T11:43:43Z</time>
      </trkpt>
      <trkpt lat="46.01557" lon="4.76099">
        <ele>202</ele>
        <time>2018-03-14T11:43:46Z</time>
      </trkpt>
      <trkpt lat="46.01553" lon="4.76094">
        <ele>202</ele>
        <time>2018-03-14T11:43:47Z</time>
      </trkpt>
      <trkpt lat="46.01544" lon="4.76091">
        <ele>202</ele>
        <time>2018-03-14T11:43:49Z</time>
      </trkpt>
      <trkpt lat="46.0154" lon="4.7609">
        <ele>202</ele>
        <time>2018-03-14T11:43:50Z</time>
      </trkpt>
      <trkpt lat="46.01532" lon="4.76086">
        <ele>202</ele>
        <time>2018-03-14T11:43:52Z</time>
      </trkpt>
      <trkpt lat="46.01528" lon="4.76085">
        <ele>202</ele>
        <time>2018-03-14T11:43:53Z</time>
      </trkpt>
      <trkpt lat="46.0152" lon="4.76084">
        <ele>203</ele>
        <time>2018-03-14T11:43:55Z</time>
      </trkpt>
      <trkpt lat="46.01516" lon="4.76084">
        <ele>203</ele>
        <time>2018-03-14T11:43:56Z</time>
      </trkpt>
      <trkpt lat="46.01508" lon="4.76082">
        <ele>203</ele>
        <time>2018-03-14T11:43:58Z</time>
      </trkpt>
      <trkpt lat="46.01504" lon="4.76081">
        <ele>203</ele>
        <time>2018-03-14T11:43:59Z</time>
      </trkpt>
      <trkpt lat="46.01496" lon="4.76079">
        <ele>203</ele>
        <time>2018-03-14T11:44:01Z</time>
      </trkpt>
      <trkpt lat="46.01492" lon="4.76079">
        <ele>203</ele>
        <time>2018-03-14T11:44:02Z</time>
      </trkpt>
      <trkpt lat="46.01487" lon="4.76078">
        <ele>203</ele>
        <time>2018-03-14T11:44:04Z</time>
      </trkpt>
      <trkpt lat="46.01481" lon="4.76077">
        <ele>203</ele>
        <time>2018-03-14T11:44:05Z</time>
      </trkpt>
      <trkpt lat="46.01473" lon="4.76076">
        <ele>203</ele>
        <time>2018-03-14T11:44:07Z</time>
      </trkpt>
      <trkpt lat="46.01469" lon="4.76075">
        <ele>203</ele>
        <time>2018-03-14T11:44:08Z</time>
      </trkpt>
      <trkpt lat="46.01461" lon="4.76073">
        <ele>203</ele>
        <time>2018-03-14T11:44:10Z</time>
      </trkpt>
      <trkpt lat="46.01457" lon="4.76072">
        <ele>203</ele>
        <time>2018-03-14T11:44:11Z</time>
      </trkpt>
      <trkpt lat="46.0145" lon="4.76068">
        <ele>203</ele>
        <time>2018-03-14T11:44:13Z</time>
      </trkpt>
      <trkpt lat="46.01447" lon="4.76066">
        <ele>203</ele>
        <time>2018-03-14T11:44:14Z</time>
      </trkpt>
      <trkpt lat="46.01439" lon="4.76062">
        <ele>203</ele>
        <time>2018-03-14T11:44:16Z</time>
      </trkpt>
      <trkpt lat="46.01435" lon="4.7606">
        <ele>203</ele>
        <time>2018-03-14T11:44:17Z</time>
      </trkpt>
      <trkpt lat="46.01429" lon="4.76055">
        <ele>203</ele>
        <time>2018-03-14T11:44:19Z</time>
      </trkpt>
      <trkpt lat="46.01425" lon="4.76053">
        <ele>204</ele>
        <time>2018-03-14T11:44:20Z</time>
      </trkpt>
      <trkpt lat="46.0142" lon="4.76048">
        <ele>204</ele>
        <time>2018-03-14T11:44:22Z</time>
      </trkpt>
      <trkpt lat="46.01417" lon="4.76045">
        <ele>204</ele>
        <time>2018-03-14T11:44:23Z</time>
      </trkpt>
      <trkpt lat="46.0141" lon="4.76041">
        <ele>204</ele>
        <time>2018-03-14T11:44:25Z</time>
      </trkpt>
      <trkpt lat="46.01406" lon="4.76039">
        <ele>204</ele>
        <time>2018-03-14T11:44:26Z</time>
      </trkpt>
      <trkpt lat="46.01398" lon="4.76037">
        <ele>204</ele>
        <time>2018-03-14T11:44:28Z</time>
      </trkpt>
      <trkpt lat="46.01394" lon="4.76037">
        <ele>203</ele>
        <time>2018-03-14T11:44:29Z</time>
      </trkpt>
      <trkpt lat="46.01386" lon="4.76038">
        <ele>203</ele>
        <time>2018-03-14T11:44:31Z</time>
      </trkpt>
      <trkpt lat="46.01382" lon="4.76039">
        <ele>203</ele>
        <time>2018-03-14T11:44:32Z</time>
      </trkpt>
      <trkpt lat="46.01373" lon="4.76041">
        <ele>203</ele>
        <time>2018-03-14T11:44:34Z</time>
      </trkpt>
      <trkpt lat="46.01369" lon="4.76042">
        <ele>203</ele>
        <time>2018-03-14T11:44:35Z</time>
      </trkpt>
      <trkpt lat="46.01361" lon="4.76045">
        <ele>203</ele>
        <time>2018-03-14T11:44:37Z</time>
      </trkpt>
      <trkpt lat="46.01357" lon="4.76046">
        <ele>203</ele>
        <time>2018-03-14T11:44:38Z</time>
      </trkpt>
      <trkpt lat="46.01349" lon="4.76048">
        <ele>203</ele>
        <time>2018-03-14T11:44:40Z</time>
      </trkpt>
      <trkpt lat="46.01345" lon="4.7605">
        <ele>203</ele>
        <time>2018-03-14T11:44:41Z</time>
      </trkpt>
      <trkpt lat="46.01337" lon="4.76053">
        <ele>203</ele>
        <time>2018-03-14T11:44:44Z</time>
      </trkpt>
      <trkpt lat="46.01334" lon="4.76054">
        <ele>203</ele>
        <time>2018-03-14T11:44:45Z</time>
      </trkpt>
      <trkpt lat="46.01327" lon="4.76056">
        <ele>203</ele>
        <time>2018-03-14T11:44:46Z</time>
      </trkpt>
      <trkpt lat="46.01325" lon="4.76056">
        <ele>203</ele>
        <time>2018-03-14T11:44:47Z</time>
      </trkpt>
      <trkpt lat="46.01317" lon="4.76059">
        <ele>203</ele>
        <time>2018-03-14T11:44:49Z</time>
      </trkpt>
      <trkpt lat="46.01315" lon="4.76059">
        <ele>203</ele>
        <time>2018-03-14T11:44:50Z</time>
      </trkpt>
      <trkpt lat="46.01306" lon="4.76062">
        <ele>203</ele>
        <time>2018-03-14T11:44:52Z</time>
      </trkpt>
      <trkpt lat="46.01304" lon="4.76062">
        <ele>203</ele>
        <time>2018-03-14T11:44:53Z</time>
      </trkpt>
      <trkpt lat="46.01299" lon="4.76064">
        <ele>203</ele>
        <time>2018-03-14T11:44:54Z</time>
      </trkpt>
      <trkpt lat="46.01295" lon="4.76065">
        <ele>204</ele>
        <time>2018-03-14T11:44:55Z</time>
      </trkpt>
      <trkpt lat="46.01287" lon="4.76066">
        <ele>204</ele>
        <time>2018-03-14T11:44:58Z</time>
      </trkpt>
      <trkpt lat="46.01284" lon="4.76066">
        <ele>204</ele>
        <time>2018-03-14T11:44:59Z</time>
      </trkpt>
      <trkpt lat="46.01276" lon="4.76068">
        <ele>204</ele>
        <time>2018-03-14T11:45:02Z</time>
      </trkpt>
      <trkpt lat="46.01267" lon="4.76069">
        <ele>204</ele>
        <time>2018-03-14T11:45:03Z</time>
      </trkpt>
      <trkpt lat="46.01259" lon="4.7607">
        <ele>204</ele>
        <time>2018-03-14T11:45:05Z</time>
      </trkpt>
      <trkpt lat="46.01257" lon="4.7607">
        <ele>204</ele>
        <time>2018-03-14T11:45:06Z</time>
      </trkpt>
      <trkpt lat="46.0125" lon="4.7607">
        <ele>205</ele>
        <time>2018-03-14T11:45:09Z</time>
      </trkpt>
      <trkpt lat="46.01247" lon="4.7607">
        <ele>205</ele>
        <time>2018-03-14T11:45:10Z</time>
      </trkpt>
      <trkpt lat="46.0124" lon="4.76069">
        <ele>205</ele>
        <time>2018-03-14T11:45:12Z</time>
      </trkpt>
      <trkpt lat="46.01237" lon="4.76069">
        <ele>205</ele>
        <time>2018-03-14T11:45:13Z</time>
      </trkpt>
      <trkpt lat="46.01227" lon="4.76067">
        <ele>206</ele>
        <time>2018-03-14T11:45:14Z</time>
      </trkpt>
      <trkpt lat="46.01221" lon="4.76066">
        <ele>206</ele>
        <time>2018-03-14T11:45:17Z</time>
      </trkpt>
      <trkpt lat="46.01218" lon="4.76065">
        <ele>206</ele>
        <time>2018-03-14T11:45:18Z</time>
      </trkpt>
      <trkpt lat="46.0121" lon="4.76063">
        <ele>206</ele>
        <time>2018-03-14T11:45:19Z</time>
      </trkpt>
      <trkpt lat="46.01208" lon="4.76063">
        <ele>206</ele>
        <time>2018-03-14T11:45:20Z</time>
      </trkpt>
      <trkpt lat="46.012" lon="4.76061">
        <ele>206</ele>
        <time>2018-03-14T11:45:24Z</time>
      </trkpt>
      <trkpt lat="46.01197" lon="4.7606">
        <ele>206</ele>
        <time>2018-03-14T11:45:25Z</time>
      </trkpt>
      <trkpt lat="46.01189" lon="4.76057">
        <ele>206</ele>
        <time>2018-03-14T11:45:28Z</time>
      </trkpt>
      <trkpt lat="46.0118" lon="4.76055">
        <ele>207</ele>
        <time>2018-03-14T11:45:29Z</time>
      </trkpt>
      <trkpt lat="46.01172" lon="4.76051">
        <ele>207</ele>
        <time>2018-03-14T11:45:33Z</time>
      </trkpt>
      <trkpt lat="46.01169" lon="4.76051">
        <ele>207</ele>
        <time>2018-03-14T11:45:34Z</time>
      </trkpt>
      <trkpt lat="46.01161" lon="4.76049">
        <ele>208</ele>
        <time>2018-03-14T11:45:38Z</time>
      </trkpt>
      <trkpt lat="46.01159" lon="4.76048">
        <ele>208</ele>
        <time>2018-03-14T11:45:39Z</time>
      </trkpt>
      <trkpt lat="46.01152" lon="4.76045">
        <ele>208</ele>
        <time>2018-03-14T11:45:42Z</time>
      </trkpt>
      <trkpt lat="46.01144" lon="4.76043">
        <ele>208</ele>
        <time>2018-03-14T11:45:43Z</time>
      </trkpt>
      <trkpt lat="46.01139" lon="4.76045">
        <ele>208</ele>
        <time>2018-03-14T11:45:46Z</time>
      </trkpt>
      <trkpt lat="46.01131" lon="4.76047">
        <ele>208</ele>
        <time>2018-03-14T11:45:47Z</time>
      </trkpt>
      <trkpt lat="46.01124" lon="4.76048">
        <ele>208</ele>
        <time>2018-03-14T11:45:50Z</time>
      </trkpt>
      <trkpt lat="46.01122" lon="4.76049">
        <ele>208</ele>
        <time>2018-03-14T11:45:51Z</time>
      </trkpt>
      <trkpt lat="46.01116" lon="4.7605">
        <ele>208</ele>
        <time>2018-03-14T11:45:53Z</time>
      </trkpt>
      <trkpt lat="46.01113" lon="4.76051">
        <ele>208</ele>
        <time>2018-03-14T11:45:54Z</time>
      </trkpt>
      <trkpt lat="46.01109" lon="4.76051">
        <ele>208</ele>
        <time>2018-03-14T11:45:55Z</time>
      </trkpt>
      <trkpt lat="46.01099" lon="4.76052">
        <ele>208</ele>
        <time>2018-03-14T11:45:56Z</time>
      </trkpt>
      <trkpt lat="46.01091" lon="4.76054">
        <ele>208</ele>
        <time>2018-03-14T11:45:59Z</time>
      </trkpt>
      <trkpt lat="46.01089" lon="4.76054">
        <ele>208</ele>
        <time>2018-03-14T11:46:00Z</time>
      </trkpt>
      <trkpt lat="46.01082" lon="4.76055">
        <ele>209</ele>
        <time>2018-03-14T11:46:03Z</time>
      </trkpt>
      <trkpt lat="46.01079" lon="4.76056">
        <ele>209</ele>
        <time>2018-03-14T11:46:04Z</time>
      </trkpt>
      <trkpt lat="46.01071" lon="4.76058">
        <ele>209</ele>
        <time>2018-03-14T11:46:07Z</time>
      </trkpt>
      <trkpt lat="46.01068" lon="4.76058">
        <ele>209</ele>
        <time>2018-03-14T11:46:08Z</time>
      </trkpt>
      <trkpt lat="46.0106" lon="4.7606">
        <ele>209</ele>
        <time>2018-03-14T11:46:11Z</time>
      </trkpt>
      <trkpt lat="46.01057" lon="4.76061">
        <ele>209</ele>
        <time>2018-03-14T11:46:12Z</time>
      </trkpt>
      <trkpt lat="46.01048" lon="4.76063">
        <ele>210</ele>
        <time>2018-03-14T11:46:15Z</time>
      </trkpt>
      <trkpt lat="46.01045" lon="4.76063">
        <ele>210</ele>
        <time>2018-03-14T11:46:16Z</time>
      </trkpt>
      <trkpt lat="46.01036" lon="4.76064">
        <ele>210</ele>
        <time>2018-03-14T11:46:19Z</time>
      </trkpt>
      <trkpt lat="46.01034" lon="4.76064">
        <ele>210</ele>
        <time>2018-03-14T11:46:20Z</time>
      </trkpt>
      <trkpt lat="46.01026" lon="4.76065">
        <ele>210</ele>
        <time>2018-03-14T11:46:23Z</time>
      </trkpt>
      <trkpt lat="46.01023" lon="4.76065">
        <ele>210</ele>
        <time>2018-03-14T11:46:24Z</time>
      </trkpt>
      <trkpt lat="46.01014" lon="4.76065">
        <ele>210</ele>
        <time>2018-03-14T11:46:27Z</time>
      </trkpt>
      <trkpt lat="46.01011" lon="4.76065">
        <ele>211</ele>
        <time>2018-03-14T11:46:28Z</time>
      </trkpt>
      <trkpt lat="46.01003" lon="4.76067">
        <ele>211</ele>
        <time>2018-03-14T11:46:31Z</time>
      </trkpt>
      <trkpt lat="46.01" lon="4.76067">
        <ele>212</ele>
        <time>2018-03-14T11:46:32Z</time>
      </trkpt>
      <trkpt lat="46.00994" lon="4.76067">
        <ele>212</ele>
        <time>2018-03-14T11:46:34Z</time>
      </trkpt>
      <trkpt lat="46.00991" lon="4.76068">
        <ele>212</ele>
        <time>2018-03-14T11:46:35Z</time>
      </trkpt>
      <trkpt lat="46.00984" lon="4.76069">
        <ele>212</ele>
        <time>2018-03-14T11:46:37Z</time>
      </trkpt>
      <trkpt lat="46.00981" lon="4.7607">
        <ele>212</ele>
        <time>2018-03-14T11:46:38Z</time>
      </trkpt>
      <trkpt lat="46.00975" lon="4.76071">
        <ele>212</ele>
        <time>2018-03-14T11:46:40Z</time>
      </trkpt>
      <trkpt lat="46.00971" lon="4.76072">
        <ele>212</ele>
        <time>2018-03-14T11:46:41Z</time>
      </trkpt>
      <trkpt lat="46.00964" lon="4.76073">
        <ele>212</ele>
        <time>2018-03-14T11:46:43Z</time>
      </trkpt>
      <trkpt lat="46.00954" lon="4.76076">
        <ele>212</ele>
        <time>2018-03-14T11:46:44Z</time>
      </trkpt>
      <trkpt lat="46.00948" lon="4.76077">
        <ele>212</ele>
        <time>2018-03-14T11:46:47Z</time>
      </trkpt>
      <trkpt lat="46.00945" lon="4.76078">
        <ele>212</ele>
        <time>2018-03-14T11:46:48Z</time>
      </trkpt>
      <trkpt lat="46.00939" lon="4.76079">
        <ele>212</ele>
        <time>2018-03-14T11:46:50Z</time>
      </trkpt>
      <trkpt lat="46.00936" lon="4.7608">
        <ele>212</ele>
        <time>2018-03-14T11:46:51Z</time>
      </trkpt>
      <trkpt lat="46.0093" lon="4.76081">
        <ele>213</ele>
        <time>2018-03-14T11:46:53Z</time>
      </trkpt>
      <trkpt lat="46.00927" lon="4.76081">
        <ele>213</ele>
        <time>2018-03-14T11:46:54Z</time>
      </trkpt>
      <trkpt lat="46.00921" lon="4.76083">
        <ele>213</ele>
        <time>2018-03-14T11:46:56Z</time>
      </trkpt>
      <trkpt lat="46.00918" lon="4.76084">
        <ele>213</ele>
        <time>2018-03-14T11:46:57Z</time>
      </trkpt>
      <trkpt lat="46.00909" lon="4.76086">
        <ele>214</ele>
        <time>2018-03-14T11:47:00Z</time>
      </trkpt>
      <trkpt lat="46.00906" lon="4.76087">
        <ele>214</ele>
        <time>2018-03-14T11:47:01Z</time>
      </trkpt>
      <trkpt lat="46.00897" lon="4.76089">
        <ele>214</ele>
        <time>2018-03-14T11:47:04Z</time>
      </trkpt>
      <trkpt lat="46.00895" lon="4.7609">
        <ele>214</ele>
        <time>2018-03-14T11:47:05Z</time>
      </trkpt>
      <trkpt lat="46.00886" lon="4.76093">
        <ele>215</ele>
        <time>2018-03-14T11:47:08Z</time>
      </trkpt>
      <trkpt lat="46.00883" lon="4.76094">
        <ele>215</ele>
        <time>2018-03-14T11:47:09Z</time>
      </trkpt>
      <trkpt lat="46.00875" lon="4.76096">
        <ele>215</ele>
        <time>2018-03-14T11:47:12Z</time>
      </trkpt>
      <trkpt lat="46.00872" lon="4.76097">
        <ele>215</ele>
        <time>2018-03-14T11:47:13Z</time>
      </trkpt>
      <trkpt lat="46.00863" lon="4.761">
        <ele>215</ele>
        <time>2018-03-14T11:47:16Z</time>
      </trkpt>
      <trkpt lat="46.0086" lon="4.761">
        <ele>215</ele>
        <time>2018-03-14T11:47:17Z</time>
      </trkpt>
      <trkpt lat="46.00852" lon="4.76102">
        <ele>215</ele>
        <time>2018-03-14T11:47:20Z</time>
      </trkpt>
      <trkpt lat="46.00849" lon="4.76102">
        <ele>216</ele>
        <time>2018-03-14T11:47:21Z</time>
      </trkpt>
      <trkpt lat="46.00842" lon="4.76105">
        <ele>216</ele>
        <time>2018-03-14T11:47:24Z</time>
      </trkpt>
      <trkpt lat="46.00839" lon="4.76106">
        <ele>216</ele>
        <time>2018-03-14T11:47:25Z</time>
      </trkpt>
      <trkpt lat="46.00831" lon="4.76107">
        <ele>218</ele>
        <time>2018-03-14T11:47:28Z</time>
      </trkpt>
      <trkpt lat="46.00829" lon="4.76107">
        <ele>218</ele>
        <time>2018-03-14T11:47:29Z</time>
      </trkpt>
      <trkpt lat="46.00822" lon="4.76109">
        <ele>218</ele>
        <time>2018-03-14T11:47:32Z</time>
      </trkpt>
      <trkpt lat="46.00819" lon="4.76109">
        <ele>218</ele>
        <time>2018-03-14T11:47:33Z</time>
      </trkpt>
      <trkpt lat="46.0081" lon="4.7611">
        <ele>218</ele>
        <time>2018-03-14T11:47:37Z</time>
      </trkpt>
      <trkpt lat="46.00808" lon="4.7611">
        <ele>218</ele>
        <time>2018-03-14T11:47:38Z</time>
      </trkpt>
      <trkpt lat="46.00801" lon="4.76112">
        <ele>218</ele>
        <time>2018-03-14T11:47:41Z</time>
      </trkpt>
      <trkpt lat="46.00799" lon="4.76112">
        <ele>218</ele>
        <time>2018-03-14T11:47:42Z</time>
      </trkpt>
      <trkpt lat="46.00792" lon="4.76112">
        <ele>219</ele>
        <time>2018-03-14T11:47:45Z</time>
      </trkpt>
      <trkpt lat="46.00789" lon="4.76112">
        <ele>219</ele>
        <time>2018-03-14T11:47:46Z</time>
      </trkpt>
      <trkpt lat="46.00781" lon="4.76113">
        <ele>219</ele>
        <time>2018-03-14T11:47:50Z</time>
      </trkpt>
      <trkpt lat="46.00778" lon="4.76114">
        <ele>219</ele>
        <time>2018-03-14T11:47:51Z</time>
      </trkpt>
      <trkpt lat="46.0077" lon="4.76113">
        <ele>219</ele>
        <time>2018-03-14T11:47:55Z</time>
      </trkpt>
      <trkpt lat="46.00768" lon="4.76114">
        <ele>219</ele>
        <time>2018-03-14T11:47:56Z</time>
      </trkpt>
      <trkpt lat="46.00759" lon="4.76114">
        <ele>219</ele>
        <time>2018-03-14T11:48:00Z</time>
      </trkpt>
      <trkpt lat="46.00757" lon="4.76114">
        <ele>219</ele>
        <time>2018-03-14T11:48:01Z</time>
      </trkpt>
      <trkpt lat="46.0075" lon="4.76113">
        <ele>219</ele>
        <time>2018-03-14T11:48:05Z</time>
      </trkpt>
      <trkpt lat="46.00748" lon="4.76113">
        <ele>223</ele>
        <time>2018-03-14T11:48:06Z</time>
      </trkpt>
      <trkpt lat="46.00741" lon="4.76112">
        <ele>223</ele>
        <time>2018-03-14T11:48:10Z</time>
      </trkpt>
      <trkpt lat="46.00739" lon="4.76113">
        <ele>223</ele>
        <time>2018-03-14T11:48:11Z</time>
      </trkpt>
      <trkpt lat="46.00731" lon="4.76114">
        <ele>223</ele>
        <time>2018-03-14T11:48:15Z</time>
      </trkpt>
      <trkpt lat="46.00729" lon="4.76114">
        <ele>223</ele>
        <time>2018-03-14T11:48:16Z</time>
      </trkpt>
      <trkpt lat="46.00721" lon="4.76115">
        <ele>224</ele>
        <time>2018-03-14T11:48:20Z</time>
      </trkpt>
      <trkpt lat="46.00719" lon="4.76115">
        <ele>224</ele>
        <time>2018-03-14T11:48:21Z</time>
      </trkpt>
      <trkpt lat="46.00711" lon="4.76115">
        <ele>224</ele>
        <time>2018-03-14T11:48:26Z</time>
      </trkpt>
      <trkpt lat="46.00709" lon="4.76116">
        <ele>224</ele>
        <time>2018-03-14T11:48:27Z</time>
      </trkpt>
      <trkpt lat="46.00702" lon="4.76117">
        <ele>225</ele>
        <time>2018-03-14T11:48:32Z</time>
      </trkpt>
      <trkpt lat="46.007" lon="4.76117">
        <ele>225</ele>
        <time>2018-03-14T11:48:33Z</time>
      </trkpt>
      <trkpt lat="46.00691" lon="4.76119">
        <ele>225</ele>
        <time>2018-03-14T11:48:39Z</time>
      </trkpt>
      <trkpt lat="46.0069" lon="4.76119">
        <ele>225</ele>
        <time>2018-03-14T11:48:40Z</time>
      </trkpt>
      <trkpt lat="46.00682" lon="4.76122">
        <ele>225</ele>
        <time>2018-03-14T11:48:46Z</time>
      </trkpt>
      <trkpt lat="46.0068" lon="4.76122">
        <ele>225</ele>
        <time>2018-03-14T11:48:47Z</time>
      </trkpt>
      <trkpt lat="46.00673" lon="4.76124">
        <ele>226</ele>
        <time>2018-03-14T11:48:53Z</time>
      </trkpt>
      <trkpt lat="46.00671" lon="4.76124">
        <ele>226</ele>
        <time>2018-03-14T11:48:54Z</time>
      </trkpt>
      <trkpt lat="46.00663" lon="4.76123">
        <ele>228</ele>
        <time>2018-03-14T11:48:59Z</time>
      </trkpt>
      <trkpt lat="46.00661" lon="4.76123">
        <ele>228</ele>
        <time>2018-03-14T11:49:00Z</time>
      </trkpt>
      <trkpt lat="46.00653" lon="4.76123">
        <ele>228</ele>
        <time>2018-03-14T11:49:05Z</time>
      </trkpt>
      <trkpt lat="46.00651" lon="4.76122">
        <ele>228</ele>
        <time>2018-03-14T11:49:06Z</time>
      </trkpt>
      <trkpt lat="46.00644" lon="4.76117">
        <ele>228</ele>
        <time>2018-03-14T11:49:11Z</time>
      </trkpt>
      <trkpt lat="46.00642" lon="4.76115">
        <ele>228</ele>
        <time>2018-03-14T11:49:12Z</time>
      </trkpt>
      <trkpt lat="46.00635" lon="4.76111">
        <ele>228</ele>
        <time>2018-03-14T11:49:16Z</time>
      </trkpt>
      <trkpt lat="46.00633" lon="4.76111">
        <ele>228</ele>
        <time>2018-03-14T11:49:17Z</time>
      </trkpt>
      <trkpt lat="46.00626" lon="4.76116">
        <ele>228</ele>
        <time>2018-03-14T11:49:21Z</time>
      </trkpt>
      <trkpt lat="46.00625" lon="4.76119">
        <ele>228</ele>
        <time>2018-03-14T11:49:22Z</time>
      </trkpt>
      <trkpt lat="46.00624" lon="4.76131">
        <ele>228</ele>
        <time>2018-03-14T11:49:25Z</time>
      </trkpt>
      <trkpt lat="46.00625" lon="4.76134">
        <ele>228</ele>
        <time>2018-03-14T11:49:26Z</time>
      </trkpt>
      <trkpt lat="46.00626" lon="4.76145">
        <ele>228</ele>
        <time>2018-03-14T11:49:29Z</time>
      </trkpt>
      <trkpt lat="46.00626" lon="4.76148">
        <ele>228</ele>
        <time>2018-03-14T11:49:30Z</time>
      </trkpt>
      <trkpt lat="46.00627" lon="4.76159">
        <ele>228</ele>
        <time>2018-03-14T11:49:33Z</time>
      </trkpt>
      <trkpt lat="46.00627" lon="4.76163">
        <ele>228</ele>
        <time>2018-03-14T11:49:34Z</time>
      </trkpt>
      <trkpt lat="46.00626" lon="4.76175">
        <ele>230</ele>
        <time>2018-03-14T11:49:38Z</time>
      </trkpt>
      <trkpt lat="46.00626" lon="4.76178">
        <ele>230</ele>
        <time>2018-03-14T11:49:39Z</time>
      </trkpt>
      <trkpt lat="46.00624" lon="4.76191">
        <ele>230</ele>
        <time>2018-03-14T11:49:43Z</time>
      </trkpt>
      <trkpt lat="46.00623" lon="4.76193">
        <ele>230</ele>
        <time>2018-03-14T11:49:44Z</time>
      </trkpt>
      <trkpt lat="46.00618" lon="4.762">
        <ele>230</ele>
        <time>2018-03-14T11:49:47Z</time>
      </trkpt>
      <trkpt lat="46.00616" lon="4.76201">
        <ele>230</ele>
        <time>2018-03-14T11:49:48Z</time>
      </trkpt>
      <trkpt lat="46.00613" lon="4.76202">
        <ele>230</ele>
        <time>2018-03-14T11:49:49Z</time>
      </trkpt>
      <trkpt lat="46.00605" lon="4.76201">
        <ele>230</ele>
        <time>2018-03-14T11:49:50Z</time>
      </trkpt>
      <trkpt lat="46.00597" lon="4.76196">
        <ele>230</ele>
        <time>2018-03-14T11:49:52Z</time>
      </trkpt>
      <trkpt lat="46.00591" lon="4.76193">
        <ele>230</ele>
        <time>2018-03-14T11:49:53Z</time>
      </trkpt>
      <trkpt lat="46.00587" lon="4.76191">
        <ele>230</ele>
        <time>2018-03-14T11:49:54Z</time>
      </trkpt>
      <trkpt lat="46.00582" lon="4.76189">
        <ele>230</ele>
        <time>2018-03-14T11:49:55Z</time>
      </trkpt>
      <trkpt lat="46.00577" lon="4.76187">
        <ele>230</ele>
        <time>2018-03-14T11:49:56Z</time>
      </trkpt>
      <trkpt lat="46.00571" lon="4.76186">
        <ele>230</ele>
        <time>2018-03-14T11:49:57Z</time>
      </trkpt>
      <trkpt lat="46.00565" lon="4.76185">
        <ele>230</ele>
        <time>2018-03-14T11:49:58Z</time>
      </trkpt>
      <trkpt lat="46.00559" lon="4.76184">
        <ele>230</ele>
        <time>2018-03-14T11:49:59Z</time>
      </trkpt>
      <trkpt lat="46.00554" lon="4.76179">
        <ele>230</ele>
        <time>2018-03-14T11:50:00Z</time>
      </trkpt>
      <trkpt lat="46.00548" lon="4.76176">
        <ele>230</ele>
        <time>2018-03-14T11:50:01Z</time>
      </trkpt>
      <trkpt lat="46.00541" lon="4.76173">
        <ele>230</ele>
        <time>2018-03-14T11:50:02Z</time>
      </trkpt>
      <trkpt lat="46.00535" lon="4.7617">
        <ele>230</ele>
        <time>2018-03-14T11:50:03Z</time>
      </trkpt>
      <trkpt lat="46.00529" lon="4.76166">
        <ele>228</ele>
        <time>2018-03-14T11:50:04Z</time>
      </trkpt>
      <trkpt lat="46.00523" lon="4.76161">
        <ele>228</ele>
        <time>2018-03-14T11:50:05Z</time>
      </trkpt>
      <trkpt lat="46.00518" lon="4.76155">
        <ele>228</ele>
        <time>2018-03-14T11:50:06Z</time>
      </trkpt>
      <trkpt lat="46.00512" lon="4.76149">
        <ele>228</ele>
        <time>2018-03-14T11:50:07Z</time>
      </trkpt>
      <trkpt lat="46.00506" lon="4.76142">
        <ele>228</ele>
        <time>2018-03-14T11:50:08Z</time>
      </trkpt>
      <trkpt lat="46.005" lon="4.76136">
        <ele>228</ele>
        <time>2018-03-14T11:50:09Z</time>
      </trkpt>
      <trkpt lat="46.00493" lon="4.7613">
        <ele>228</ele>
        <time>2018-03-14T11:50:10Z</time>
      </trkpt>
      <trkpt lat="46.00488" lon="4.76123">
        <ele>227</ele>
        <time>2018-03-14T11:50:11Z</time>
      </trkpt>
      <trkpt lat="46.00481" lon="4.76115">
        <ele>227</ele>
        <time>2018-03-14T11:50:12Z</time>
      </trkpt>
      <trkpt lat="46.00475" lon="4.76107">
        <ele>227</ele>
        <time>2018-03-14T11:50:13Z</time>
      </trkpt>
      <trkpt lat="46.00468" lon="4.76102">
        <ele>227</ele>
        <time>2018-03-14T11:50:14Z</time>
      </trkpt>
      <trkpt lat="46.00461" lon="4.76095">
        <ele>227</ele>
        <time>2018-03-14T11:50:15Z</time>
      </trkpt>
      <trkpt lat="46.00453" lon="4.7609">
        <ele>227</ele>
        <time>2018-03-14T11:50:16Z</time>
      </trkpt>
      <trkpt lat="46.00446" lon="4.76084">
        <ele>227</ele>
        <time>2018-03-14T11:50:17Z</time>
      </trkpt>
      <trkpt lat="46.00438" lon="4.7608">
        <ele>224</ele>
        <time>2018-03-14T11:50:18Z</time>
      </trkpt>
      <trkpt lat="46.00429" lon="4.76077">
        <ele>225</ele>
        <time>2018-03-14T11:50:19Z</time>
      </trkpt>
      <trkpt lat="46.00421" lon="4.76074">
        <ele>225</ele>
        <time>2018-03-14T11:50:20Z</time>
      </trkpt>
      <trkpt lat="46.00413" lon="4.76072">
        <ele>226</ele>
        <time>2018-03-14T11:50:21Z</time>
      </trkpt>
      <trkpt lat="46.00404" lon="4.76071">
        <ele>226</ele>
        <time>2018-03-14T11:50:22Z</time>
      </trkpt>
      <trkpt lat="46.00395" lon="4.76071">
        <ele>226</ele>
        <time>2018-03-14T11:50:23Z</time>
      </trkpt>
      <trkpt lat="46.00388" lon="4.76072">
        <ele>226</ele>
        <time>2018-03-14T11:50:24Z</time>
      </trkpt>
      <trkpt lat="46.00382" lon="4.76072">
        <ele>226</ele>
        <time>2018-03-14T11:50:25Z</time>
      </trkpt>
      <trkpt lat="46.00376" lon="4.7607">
        <ele>226</ele>
        <time>2018-03-14T11:50:26Z</time>
      </trkpt>
      <trkpt lat="46.00374" lon="4.76064">
        <ele>226</ele>
        <time>2018-03-14T11:50:27Z</time>
      </trkpt>
      <trkpt lat="46.00374" lon="4.76058">
        <ele>226</ele>
        <time>2018-03-14T11:50:28Z</time>
      </trkpt>
      <trkpt lat="46.00374" lon="4.76051">
        <ele>225</ele>
        <time>2018-03-14T11:50:29Z</time>
      </trkpt>
      <trkpt lat="46.00377" lon="4.76044">
        <ele>225</ele>
        <time>2018-03-14T11:50:30Z</time>
      </trkpt>
      <trkpt lat="46.0038" lon="4.76039">
        <ele>225</ele>
        <time>2018-03-14T11:50:31Z</time>
      </trkpt>
      <trkpt lat="46.00384" lon="4.76035">
        <ele>225</ele>
        <time>2018-03-14T11:50:32Z</time>
      </trkpt>
      <trkpt lat="46.00391" lon="4.76031">
        <ele>225</ele>
        <time>2018-03-14T11:50:33Z</time>
      </trkpt>
      <trkpt lat="46.00397" lon="4.76026">
        <ele>224</ele>
        <time>2018-03-14T11:50:34Z</time>
      </trkpt>
      <trkpt lat="46.00402" lon="4.76021">
        <ele>224</ele>
        <time>2018-03-14T11:50:35Z</time>
      </trkpt>
      <trkpt lat="46.00407" lon="4.76015">
        <ele>223</ele>
        <time>2018-03-14T11:50:36Z</time>
      </trkpt>
      <trkpt lat="46.00413" lon="4.76011">
        <ele>223</ele>
        <time>2018-03-14T11:50:37Z</time>
      </trkpt>
      <trkpt lat="46.0042" lon="4.76007">
        <ele>221</ele>
        <time>2018-03-14T11:50:38Z</time>
      </trkpt>
      <trkpt lat="46.00426" lon="4.76002">
        <ele>222</ele>
        <time>2018-03-14T11:50:39Z</time>
      </trkpt>
      <trkpt lat="46.00433" lon="4.75997">
        <ele>220</ele>
        <time>2018-03-14T11:50:40Z</time>
      </trkpt>
      <trkpt lat="46.0044" lon="4.75991">
        <ele>220</ele>
        <time>2018-03-14T11:50:41Z</time>
      </trkpt>
      <trkpt lat="46.00445" lon="4.75982">
        <ele>219</ele>
        <time>2018-03-14T11:50:42Z</time>
      </trkpt>
      <trkpt lat="46.00449" lon="4.75972">
        <ele>219</ele>
        <time>2018-03-14T11:50:43Z</time>
      </trkpt>
      <trkpt lat="46.00452" lon="4.7596">
        <ele>219</ele>
        <time>2018-03-14T11:50:44Z</time>
      </trkpt>
      <trkpt lat="46.00453" lon="4.75947">
        <ele>219</ele>
        <time>2018-03-14T11:50:45Z</time>
      </trkpt>
      <trkpt lat="46.00452" lon="4.75936">
        <ele>218</ele>
        <time>2018-03-14T11:50:46Z</time>
      </trkpt>
      <trkpt lat="46.00448" lon="4.75923">
        <ele>218</ele>
        <time>2018-03-14T11:50:47Z</time>
      </trkpt>
      <trkpt lat="46.00446" lon="4.75913">
        <ele>217</ele>
        <time>2018-03-14T11:50:48Z</time>
      </trkpt>
      <trkpt lat="46.00443" lon="4.75902">
        <ele>217</ele>
        <time>2018-03-14T11:50:49Z</time>
      </trkpt>
      <trkpt lat="46.00438" lon="4.75892">
        <ele>217</ele>
        <time>2018-03-14T11:50:50Z</time>
      </trkpt>
      <trkpt lat="46.00433" lon="4.75882">
        <ele>217</ele>
        <time>2018-03-14T11:50:51Z</time>
      </trkpt>
      <trkpt lat="46.00429" lon="4.75873">
        <ele>217</ele>
        <time>2018-03-14T11:50:52Z</time>
      </trkpt>
      <trkpt lat="46.00423" lon="4.75862">
        <ele>216</ele>
        <time>2018-03-14T11:50:53Z</time>
      </trkpt>
      <trkpt lat="46.00417" lon="4.75852">
        <ele>214</ele>
        <time>2018-03-14T11:50:54Z</time>
      </trkpt>
      <trkpt lat="46.00411" lon="4.75842">
        <ele>214</ele>
        <time>2018-03-14T11:50:55Z</time>
      </trkpt>
      <trkpt lat="46.00405" lon="4.75832">
        <ele>213</ele>
        <time>2018-03-14T11:50:56Z</time>
      </trkpt>
      <trkpt lat="46.00399" lon="4.75821">
        <ele>213</ele>
        <time>2018-03-14T11:50:57Z</time>
      </trkpt>
      <trkpt lat="46.00393" lon="4.75812">
        <ele>213</ele>
        <time>2018-03-14T11:50:58Z</time>
      </trkpt>
      <trkpt lat="46.00388" lon="4.75803">
        <ele>213</ele>
        <time>2018-03-14T11:50:59Z</time>
      </trkpt>
      <trkpt lat="46.00382" lon="4.75794">
        <ele>213</ele>
        <time>2018-03-14T11:51:00Z</time>
      </trkpt>
      <trkpt lat="46.00376" lon="4.75786">
        <ele>213</ele>
        <time>2018-03-14T11:51:01Z</time>
      </trkpt>
      <trkpt lat="46.0037" lon="4.75777">
        <ele>213</ele>
        <time>2018-03-14T11:51:02Z</time>
      </trkpt>
      <trkpt lat="46.00364" lon="4.75768">
        <ele>212</ele>
        <time>2018-03-14T11:51:03Z</time>
      </trkpt>
      <trkpt lat="46.00357" lon="4.7576">
        <ele>212</ele>
        <time>2018-03-14T11:51:04Z</time>
      </trkpt>
      <trkpt lat="46.00351" lon="4.7575">
        <ele>210</ele>
        <time>2018-03-14T11:51:05Z</time>
      </trkpt>
      <trkpt lat="46.00345" lon="4.7574">
        <ele>210</ele>
        <time>2018-03-14T11:51:06Z</time>
      </trkpt>
      <trkpt lat="46.00339" lon="4.7573">
        <ele>210</ele>
        <time>2018-03-14T11:51:07Z</time>
      </trkpt>
      <trkpt lat="46.00332" lon="4.75718">
        <ele>208</ele>
        <time>2018-03-14T11:51:08Z</time>
      </trkpt>
      <trkpt lat="46.00325" lon="4.75707">
        <ele>208</ele>
        <time>2018-03-14T11:51:09Z</time>
      </trkpt>
      <trkpt lat="46.00319" lon="4.75696">
        <ele>208</ele>
        <time>2018-03-14T11:51:10Z</time>
      </trkpt>
      <trkpt lat="46.00312" lon="4.75685">
        <ele>207</ele>
        <time>2018-03-14T11:51:11Z</time>
      </trkpt>
      <trkpt lat="46.00306" lon="4.75675">
        <ele>208</ele>
        <time>2018-03-14T11:51:12Z</time>
      </trkpt>
      <trkpt lat="46.003" lon="4.75665">
        <ele>206</ele>
        <time>2018-03-14T11:51:13Z</time>
      </trkpt>
      <trkpt lat="46.00293" lon="4.75655">
        <ele>206</ele>
        <time>2018-03-14T11:51:14Z</time>
      </trkpt>
      <trkpt lat="46.00285" lon="4.75645">
        <ele>206</ele>
        <time>2018-03-14T11:51:15Z</time>
      </trkpt>
      <trkpt lat="46.00279" lon="4.75634">
        <ele>206</ele>
        <time>2018-03-14T11:51:16Z</time>
      </trkpt>
      <trkpt lat="46.00272" lon="4.75623">
        <ele>206</ele>
        <time>2018-03-14T11:51:17Z</time>
      </trkpt>
      <trkpt lat="46.00265" lon="4.75613">
        <ele>206</ele>
        <time>2018-03-14T11:51:18Z</time>
      </trkpt>
      <trkpt lat="46.00258" lon="4.75602">
        <ele>205</ele>
        <time>2018-03-14T11:51:19Z</time>
      </trkpt>
      <trkpt lat="46.00252" lon="4.75591">
        <ele>205</ele>
        <time>2018-03-14T11:51:20Z</time>
      </trkpt>
      <trkpt lat="46.00245" lon="4.75579">
        <ele>205</ele>
        <time>2018-03-14T11:51:21Z</time>
      </trkpt>
      <trkpt lat="46.00238" lon="4.75567">
        <ele>205</ele>
        <time>2018-03-14T11:51:22Z</time>
      </trkpt>
      <trkpt lat="46.00232" lon="4.75555">
        <ele>205</ele>
        <time>2018-03-14T11:51:23Z</time>
      </trkpt>
      <trkpt lat="46.00227" lon="4.75543">
        <ele>205</ele>
        <time>2018-03-14T11:51:24Z</time>
      </trkpt>
      <trkpt lat="46.00224" lon="4.75529">
        <ele>204</ele>
        <time>2018-03-14T11:51:25Z</time>
      </trkpt>
      <trkpt lat="46.00224" lon="4.75514">
        <ele>203</ele>
        <time>2018-03-14T11:51:26Z</time>
      </trkpt>
      <trkpt lat="46.00223" lon="4.75499">
        <ele>198</ele>
        <time>2018-03-14T11:51:27Z</time>
      </trkpt>
      <trkpt lat="46.00223" lon="4.75484">
        <ele>198</ele>
        <time>2018-03-14T11:51:28Z</time>
      </trkpt>
      <trkpt lat="46.00223" lon="4.75469">
        <ele>197</ele>
        <time>2018-03-14T11:51:29Z</time>
      </trkpt>
      <trkpt lat="46.00223" lon="4.75454">
        <ele>197</ele>
        <time>2018-03-14T11:51:30Z</time>
      </trkpt>
      <trkpt lat="46.00222" lon="4.7544">
        <ele>196</ele>
        <time>2018-03-14T11:51:31Z</time>
      </trkpt>
      <trkpt lat="46.00223" lon="4.75424">
        <ele>196</ele>
        <time>2018-03-14T11:51:32Z</time>
      </trkpt>
      <trkpt lat="46.00223" lon="4.7541">
        <ele>192</ele>
        <time>2018-03-14T11:51:33Z</time>
      </trkpt>
      <trkpt lat="46.00223" lon="4.75395">
        <ele>192</ele>
        <time>2018-03-14T11:51:34Z</time>
      </trkpt>
      <trkpt lat="46.00223" lon="4.75378">
        <ele>191</ele>
        <time>2018-03-14T11:51:35Z</time>
      </trkpt>
      <trkpt lat="46.00223" lon="4.75362">
        <ele>191</ele>
        <time>2018-03-14T11:51:36Z</time>
      </trkpt>
      <trkpt lat="46.00226" lon="4.75347">
        <ele>190</ele>
        <time>2018-03-14T11:51:37Z</time>
      </trkpt>
      <trkpt lat="46.00225" lon="4.75331">
        <ele>186</ele>
        <time>2018-03-14T11:51:38Z</time>
      </trkpt>
      <trkpt lat="46.00224" lon="4.75313">
        <ele>186</ele>
        <time>2018-03-14T11:51:39Z</time>
      </trkpt>
      <trkpt lat="46.00222" lon="4.75299">
        <ele>185</ele>
        <time>2018-03-14T11:51:40Z</time>
      </trkpt>
      <trkpt lat="46.0022" lon="4.75284">
        <ele>185</ele>
        <time>2018-03-14T11:51:41Z</time>
      </trkpt>
      <trkpt lat="46.0022" lon="4.75267">
        <ele>184</ele>
        <time>2018-03-14T11:51:42Z</time>
      </trkpt>
      <trkpt lat="46.0022" lon="4.75252">
        <ele>184</ele>
        <time>2018-03-14T11:51:43Z</time>
      </trkpt>
      <trkpt lat="46.0022" lon="4.75237">
        <ele>180</ele>
        <time>2018-03-14T11:51:44Z</time>
      </trkpt>
      <trkpt lat="46.00219" lon="4.75224">
        <ele>180</ele>
        <time>2018-03-14T11:51:45Z</time>
      </trkpt>
      <trkpt lat="46.00219" lon="4.75212">
        <ele>180</ele>
        <time>2018-03-14T11:51:46Z</time>
      </trkpt>
      <trkpt lat="46.00219" lon="4.75199">
        <ele>179</ele>
        <time>2018-03-14T11:51:47Z</time>
      </trkpt>
      <trkpt lat="46.00219" lon="4.75187">
        <ele>179</ele>
        <time>2018-03-14T11:51:48Z</time>
      </trkpt>
      <trkpt lat="46.00218" lon="4.75176">
        <ele>179</ele>
        <time>2018-03-14T11:51:49Z</time>
      </trkpt>
      <trkpt lat="46.00218" lon="4.75165">
        <ele>177</ele>
        <time>2018-03-14T11:51:50Z</time>
      </trkpt>
      <trkpt lat="46.00218" lon="4.75155">
        <ele>177</ele>
        <time>2018-03-14T11:51:51Z</time>
      </trkpt>
      <trkpt lat="46.00218" lon="4.75147">
        <ele>177</ele>
        <time>2018-03-14T11:51:52Z</time>
      </trkpt>
      <trkpt lat="46.00218" lon="4.75138">
        <ele>176</ele>
        <time>2018-03-14T11:51:53Z</time>
      </trkpt>
      <trkpt lat="46.00219" lon="4.75128">
        <ele>176</ele>
        <time>2018-03-14T11:51:55Z</time>
      </trkpt>
      <trkpt lat="46.00219" lon="4.75125">
        <ele>176</ele>
        <time>2018-03-14T11:51:56Z</time>
      </trkpt>
      <trkpt lat="46.00218" lon="4.75114">
        <ele>176</ele>
        <time>2018-03-14T11:52:00Z</time>
      </trkpt>
      <trkpt lat="46.00217" lon="4.75112">
        <ele>176</ele>
        <time>2018-03-14T11:52:01Z</time>
      </trkpt>
      <trkpt lat="46.00211" lon="4.75107">
        <ele>176</ele>
        <time>2018-03-14T11:52:04Z</time>
      </trkpt>
      <trkpt lat="46.00203" lon="4.75105">
        <ele>176</ele>
        <time>2018-03-14T11:52:05Z</time>
      </trkpt>
      <trkpt lat="46.00196" lon="4.75105">
        <ele>176</ele>
        <time>2018-03-14T11:52:07Z</time>
      </trkpt>
      <trkpt lat="46.00191" lon="4.75106">
        <ele>176</ele>
        <time>2018-03-14T11:52:08Z</time>
      </trkpt>
      <trkpt lat="46.00183" lon="4.75106">
        <ele>176</ele>
        <time>2018-03-14T11:52:10Z</time>
      </trkpt>
      <trkpt lat="46.00179" lon="4.75106">
        <ele>176</ele>
        <time>2018-03-14T11:52:11Z</time>
      </trkpt>
      <trkpt lat="46.00174" lon="4.75106">
        <ele>176</ele>
        <time>2018-03-14T11:52:12Z</time>
      </trkpt>
      <trkpt lat="46.00169" lon="4.75105">
        <ele>176</ele>
        <time>2018-03-14T11:52:13Z</time>
      </trkpt>
      <trkpt lat="46.0016" lon="4.75104">
        <ele>175</ele>
        <time>2018-03-14T11:52:15Z</time>
      </trkpt>
      <trkpt lat="46.00156" lon="4.75105">
        <ele>175</ele>
        <time>2018-03-14T11:52:16Z</time>
      </trkpt>
      <trkpt lat="46.00147" lon="4.75104">
        <ele>175</ele>
        <time>2018-03-14T11:52:18Z</time>
      </trkpt>
      <trkpt lat="46.00144" lon="4.75104">
        <ele>175</ele>
        <time>2018-03-14T11:52:19Z</time>
      </trkpt>
      <trkpt lat="46.00139" lon="4.75104">
        <ele>175</ele>
        <time>2018-03-14T11:52:20Z</time>
      </trkpt>
      <trkpt lat="46.00134" lon="4.75105">
        <ele>175</ele>
        <time>2018-03-14T11:52:21Z</time>
      </trkpt>
      <trkpt lat="46.0013" lon="4.75106">
        <ele>175</ele>
        <time>2018-03-14T11:52:22Z</time>
      </trkpt>
      <trkpt lat="46.00124" lon="4.75108">
        <ele>175</ele>
        <time>2018-03-14T11:52:23Z</time>
      </trkpt>
      <trkpt lat="46.00116" lon="4.75108">
        <ele>175</ele>
        <time>2018-03-14T11:52:25Z</time>
      </trkpt>
      <trkpt lat="46.0011" lon="4.75108">
        <ele>175</ele>
        <time>2018-03-14T11:52:26Z</time>
      </trkpt>
      <trkpt lat="46.00105" lon="4.75107">
        <ele>175</ele>
        <time>2018-03-14T11:52:27Z</time>
      </trkpt>
      <trkpt lat="46.00099" lon="4.75106">
        <ele>175</ele>
        <time>2018-03-14T11:52:28Z</time>
      </trkpt>
      <trkpt lat="46.00094" lon="4.75106">
        <ele>174</ele>
        <time>2018-03-14T11:52:29Z</time>
      </trkpt>
      <trkpt lat="46.00089" lon="4.75105">
        <ele>174</ele>
        <time>2018-03-14T11:52:30Z</time>
      </trkpt>
      <trkpt lat="46.00084" lon="4.75105">
        <ele>174</ele>
        <time>2018-03-14T11:52:31Z</time>
      </trkpt>
      <trkpt lat="46.0008" lon="4.75105">
        <ele>174</ele>
        <time>2018-03-14T11:52:32Z</time>
      </trkpt>
      <trkpt lat="46.00074" lon="4.75105">
        <ele>174</ele>
        <time>2018-03-14T11:52:33Z</time>
      </trkpt>
      <trkpt lat="46.00067" lon="4.75105">
        <ele>174</ele>
        <time>2018-03-14T11:52:34Z</time>
      </trkpt>
      <trkpt lat="46.00062" lon="4.75105">
        <ele>174</ele>
        <time>2018-03-14T11:52:35Z</time>
      </trkpt>
      <trkpt lat="46.00057" lon="4.75105">
        <ele>174</ele>
        <time>2018-03-14T11:52:36Z</time>
      </trkpt>
      <trkpt lat="46.00052" lon="4.75105">
        <ele>174</ele>
        <time>2018-03-14T11:52:37Z</time>
      </trkpt>
      <trkpt lat="46.00047" lon="4.75106">
        <ele>174</ele>
        <time>2018-03-14T11:52:38Z</time>
      </trkpt>
      <trkpt lat="46.00039" lon="4.75107">
        <ele>174</ele>
        <time>2018-03-14T11:52:40Z</time>
      </trkpt>
      <trkpt lat="46.00033" lon="4.75108">
        <ele>174</ele>
        <time>2018-03-14T11:52:41Z</time>
      </trkpt>
      <trkpt lat="46.00028" lon="4.75109">
        <ele>174</ele>
        <time>2018-03-14T11:52:42Z</time>
      </trkpt>
      <trkpt lat="46.00023" lon="4.75108">
        <ele>174</ele>
        <time>2018-03-14T11:52:43Z</time>
      </trkpt>
      <trkpt lat="46.00018" lon="4.75108">
        <ele>174</ele>
        <time>2018-03-14T11:52:44Z</time>
      </trkpt>
      <trkpt lat="46.00012" lon="4.75109">
        <ele>174</ele>
        <time>2018-03-14T11:52:45Z</time>
      </trkpt>
      <trkpt lat="46.00007" lon="4.7511">
        <ele>174</ele>
        <time>2018-03-14T11:52:46Z</time>
      </trkpt>
      <trkpt lat="46.00002" lon="4.75112">
        <ele>174</ele>
        <time>2018-03-14T11:52:47Z</time>
      </trkpt>
      <trkpt lat="45.99994" lon="4.75116">
        <ele>173</ele>
        <time>2018-03-14T11:52:49Z</time>
      </trkpt>
      <trkpt lat="45.99989" lon="4.75118">
        <ele>173</ele>
        <time>2018-03-14T11:52:50Z</time>
      </trkpt>
      <trkpt lat="45.99981" lon="4.75122">
        <ele>173</ele>
        <time>2018-03-14T11:52:52Z</time>
      </trkpt>
      <trkpt lat="45.99976" lon="4.75124">
        <ele>173</ele>
        <time>2018-03-14T11:52:53Z</time>
      </trkpt>
      <trkpt lat="45.99968" lon="4.75128">
        <ele>173</ele>
        <time>2018-03-14T11:52:55Z</time>
      </trkpt>
      <trkpt lat="45.99962" lon="4.7513">
        <ele>173</ele>
        <time>2018-03-14T11:52:56Z</time>
      </trkpt>
      <trkpt lat="45.99958" lon="4.75133">
        <ele>173</ele>
        <time>2018-03-14T11:52:57Z</time>
      </trkpt>
      <trkpt lat="45.99954" lon="4.75135">
        <ele>173</ele>
        <time>2018-03-14T11:52:58Z</time>
      </trkpt>
      <trkpt lat="45.99949" lon="4.75137">
        <ele>173</ele>
        <time>2018-03-14T11:52:59Z</time>
      </trkpt>
      <trkpt lat="45.99944" lon="4.75139">
        <ele>173</ele>
        <time>2018-03-14T11:53:00Z</time>
      </trkpt>
      <trkpt lat="45.99939" lon="4.75141">
        <ele>173</ele>
        <time>2018-03-14T11:53:01Z</time>
      </trkpt>
      <trkpt lat="45.99935" lon="4.75144">
        <ele>173</ele>
        <time>2018-03-14T11:53:02Z</time>
      </trkpt>
      <trkpt lat="45.99928" lon="4.75147">
        <ele>173</ele>
        <time>2018-03-14T11:53:04Z</time>
      </trkpt>
      <trkpt lat="45.99922" lon="4.75149">
        <ele>173</ele>
        <time>2018-03-14T11:53:05Z</time>
      </trkpt>
      <trkpt lat="45.99918" lon="4.75151">
        <ele>173</ele>
        <time>2018-03-14T11:53:06Z</time>
      </trkpt>
      <trkpt lat="45.99913" lon="4.75153">
        <ele>172</ele>
        <time>2018-03-14T11:53:07Z</time>
      </trkpt>
      <trkpt lat="45.99908" lon="4.75155">
        <ele>172</ele>
        <time>2018-03-14T11:53:08Z</time>
      </trkpt>
      <trkpt lat="45.99903" lon="4.75157">
        <ele>172</ele>
        <time>2018-03-14T11:53:09Z</time>
      </trkpt>
      <trkpt lat="45.99898" lon="4.75159">
        <ele>172</ele>
        <time>2018-03-14T11:53:10Z</time>
      </trkpt>
      <trkpt lat="45.99895" lon="4.75163">
        <ele>172</ele>
        <time>2018-03-14T11:53:11Z</time>
      </trkpt>
      <trkpt lat="45.99889" lon="4.75165">
        <ele>172</ele>
        <time>2018-03-14T11:53:12Z</time>
      </trkpt>
      <trkpt lat="45.99885" lon="4.75167">
        <ele>174</ele>
        <time>2018-03-14T11:53:13Z</time>
      </trkpt>
      <trkpt lat="45.99881" lon="4.7517">
        <ele>174</ele>
        <time>2018-03-14T11:53:14Z</time>
      </trkpt>
      <trkpt lat="45.99877" lon="4.75172">
        <ele>174</ele>
        <time>2018-03-14T11:53:15Z</time>
      </trkpt>
      <trkpt lat="45.99872" lon="4.75175">
        <ele>174</ele>
        <time>2018-03-14T11:53:16Z</time>
      </trkpt>
      <trkpt lat="45.99866" lon="4.75176">
        <ele>174</ele>
        <time>2018-03-14T11:53:17Z</time>
      </trkpt>
      <trkpt lat="45.99861" lon="4.75178">
        <ele>174</ele>
        <time>2018-03-14T11:53:18Z</time>
      </trkpt>
      <trkpt lat="45.99857" lon="4.75179">
        <ele>174</ele>
        <time>2018-03-14T11:53:19Z</time>
      </trkpt>
      <trkpt lat="45.99848" lon="4.75182">
        <ele>174</ele>
        <time>2018-03-14T11:53:21Z</time>
      </trkpt>
      <trkpt lat="45.99844" lon="4.75184">
        <ele>174</ele>
        <time>2018-03-14T11:53:22Z</time>
      </trkpt>
      <trkpt lat="45.99836" lon="4.75187">
        <ele>174</ele>
        <time>2018-03-14T11:53:24Z</time>
      </trkpt>
      <trkpt lat="45.99831" lon="4.75189">
        <ele>173</ele>
        <time>2018-03-14T11:53:25Z</time>
      </trkpt>
      <trkpt lat="45.99826" lon="4.75191">
        <ele>174</ele>
        <time>2018-03-14T11:53:26Z</time>
      </trkpt>
      <trkpt lat="45.99822" lon="4.75194">
        <ele>174</ele>
        <time>2018-03-14T11:53:27Z</time>
      </trkpt>
      <trkpt lat="45.99817" lon="4.75196">
        <ele>174</ele>
        <time>2018-03-14T11:53:28Z</time>
      </trkpt>
      <trkpt lat="45.99812" lon="4.75198">
        <ele>174</ele>
        <time>2018-03-14T11:53:29Z</time>
      </trkpt>
      <trkpt lat="45.99808" lon="4.75201">
        <ele>174</ele>
        <time>2018-03-14T11:53:30Z</time>
      </trkpt>
      <trkpt lat="45.99804" lon="4.75203">
        <ele>174</ele>
        <time>2018-03-14T11:53:31Z</time>
      </trkpt>
      <trkpt lat="45.99799" lon="4.75207">
        <ele>174</ele>
        <time>2018-03-14T11:53:32Z</time>
      </trkpt>
      <trkpt lat="45.99795" lon="4.75209">
        <ele>174</ele>
        <time>2018-03-14T11:53:33Z</time>
      </trkpt>
      <trkpt lat="45.99789" lon="4.75211">
        <ele>174</ele>
        <time>2018-03-14T11:53:34Z</time>
      </trkpt>
      <trkpt lat="45.99785" lon="4.75213">
        <ele>174</ele>
        <time>2018-03-14T11:53:35Z</time>
      </trkpt>
      <trkpt lat="45.9978" lon="4.75215">
        <ele>174</ele>
        <time>2018-03-14T11:53:36Z</time>
      </trkpt>
      <trkpt lat="45.99775" lon="4.75217">
        <ele>175</ele>
        <time>2018-03-14T11:53:37Z</time>
      </trkpt>
      <trkpt lat="45.99771" lon="4.7522">
        <ele>175</ele>
        <time>2018-03-14T11:53:38Z</time>
      </trkpt>
      <trkpt lat="45.99766" lon="4.75222">
        <ele>175</ele>
        <time>2018-03-14T11:53:39Z</time>
      </trkpt>
      <trkpt lat="45.9976" lon="4.75223">
        <ele>175</ele>
        <time>2018-03-14T11:53:40Z</time>
      </trkpt>
      <trkpt lat="45.99755" lon="4.75225">
        <ele>175</ele>
        <time>2018-03-14T11:53:41Z</time>
      </trkpt>
      <trkpt lat="45.99747" lon="4.75229">
        <ele>175</ele>
        <time>2018-03-14T11:53:43Z</time>
      </trkpt>
      <trkpt lat="45.99743" lon="4.75232">
        <ele>175</ele>
        <time>2018-03-14T11:53:44Z</time>
      </trkpt>
      <trkpt lat="45.99738" lon="4.75236">
        <ele>175</ele>
        <time>2018-03-14T11:53:45Z</time>
      </trkpt>
      <trkpt lat="45.99734" lon="4.75239">
        <ele>175</ele>
        <time>2018-03-14T11:53:46Z</time>
      </trkpt>
      <trkpt lat="45.99729" lon="4.75241">
        <ele>175</ele>
        <time>2018-03-14T11:53:47Z</time>
      </trkpt>
      <trkpt lat="45.99724" lon="4.75243">
        <ele>175</ele>
        <time>2018-03-14T11:53:48Z</time>
      </trkpt>
      <trkpt lat="45.99715" lon="4.75247">
        <ele>174</ele>
        <time>2018-03-14T11:53:50Z</time>
      </trkpt>
      <trkpt lat="45.99711" lon="4.75249">
        <ele>174</ele>
        <time>2018-03-14T11:53:51Z</time>
      </trkpt>
      <trkpt lat="45.99706" lon="4.75253">
        <ele>176</ele>
        <time>2018-03-14T11:53:52Z</time>
      </trkpt>
      <trkpt lat="45.99702" lon="4.75254">
        <ele>176</ele>
        <time>2018-03-14T11:53:53Z</time>
      </trkpt>
      <trkpt lat="45.99694" lon="4.75257">
        <ele>176</ele>
        <time>2018-03-14T11:53:55Z</time>
      </trkpt>
      <trkpt lat="45.9969" lon="4.75259">
        <ele>176</ele>
        <time>2018-03-14T11:53:56Z</time>
      </trkpt>
      <trkpt lat="45.99682" lon="4.75265">
        <ele>175</ele>
        <time>2018-03-14T11:53:58Z</time>
      </trkpt>
      <trkpt lat="45.99678" lon="4.75267">
        <ele>175</ele>
        <time>2018-03-14T11:53:59Z</time>
      </trkpt>
      <trkpt lat="45.99674" lon="4.75268">
        <ele>175</ele>
        <time>2018-03-14T11:54:00Z</time>
      </trkpt>
      <trkpt lat="45.99669" lon="4.75271">
        <ele>175</ele>
        <time>2018-03-14T11:54:01Z</time>
      </trkpt>
      <trkpt lat="45.99661" lon="4.75273">
        <ele>174</ele>
        <time>2018-03-14T11:54:03Z</time>
      </trkpt>
      <trkpt lat="45.99656" lon="4.75273">
        <ele>174</ele>
        <time>2018-03-14T11:54:04Z</time>
      </trkpt>
      <trkpt lat="45.99649" lon="4.75275">
        <ele>174</ele>
        <time>2018-03-14T11:54:06Z</time>
      </trkpt>
      <trkpt lat="45.99644" lon="4.75275">
        <ele>174</ele>
        <time>2018-03-14T11:54:07Z</time>
      </trkpt>
      <trkpt lat="45.99636" lon="4.75275">
        <ele>174</ele>
        <time>2018-03-14T11:54:09Z</time>
      </trkpt>
      <trkpt lat="45.99635" lon="4.75275">
        <ele>174</ele>
        <time>2018-03-14T11:54:10Z</time>
      </trkpt>
      <trkpt lat="45.99628" lon="4.75272">
        <ele>174</ele>
        <time>2018-03-14T11:54:13Z</time>
      </trkpt>
      <trkpt lat="45.99626" lon="4.75272">
        <ele>174</ele>
        <time>2018-03-14T11:54:14Z</time>
      </trkpt>
      <trkpt lat="45.99619" lon="4.75272">
        <ele>174</ele>
        <time>2018-03-14T11:54:16Z</time>
      </trkpt>
      <trkpt lat="45.99616" lon="4.75272">
        <ele>174</ele>
        <time>2018-03-14T11:54:17Z</time>
      </trkpt>
      <trkpt lat="45.9961" lon="4.75273">
        <ele>173</ele>
        <time>2018-03-14T11:54:19Z</time>
      </trkpt>
      <trkpt lat="45.99607" lon="4.75274">
        <ele>173</ele>
        <time>2018-03-14T11:54:20Z</time>
      </trkpt>
      <trkpt lat="45.99598" lon="4.75275">
        <ele>173</ele>
        <time>2018-03-14T11:54:23Z</time>
      </trkpt>
      <trkpt lat="45.99596" lon="4.75275">
        <ele>173</ele>
        <time>2018-03-14T11:54:24Z</time>
      </trkpt>
      <trkpt lat="45.99587" lon="4.75271">
        <ele>173</ele>
        <time>2018-03-14T11:54:27Z</time>
      </trkpt>
      <trkpt lat="45.99584" lon="4.75269">
        <ele>173</ele>
        <time>2018-03-14T11:54:28Z</time>
      </trkpt>
      <trkpt lat="45.99575" lon="4.75264">
        <ele>172</ele>
        <time>2018-03-14T11:54:29Z</time>
      </trkpt>
      <trkpt lat="45.99567" lon="4.75262">
        <ele>172</ele>
        <time>2018-03-14T11:54:31Z</time>
      </trkpt>
      <trkpt lat="45.99563" lon="4.75264">
        <ele>172</ele>
        <time>2018-03-14T11:54:32Z</time>
      </trkpt>
      <trkpt lat="45.99556" lon="4.7527">
        <ele>172</ele>
        <time>2018-03-14T11:54:34Z</time>
      </trkpt>
      <trkpt lat="45.99553" lon="4.75274">
        <ele>172</ele>
        <time>2018-03-14T11:54:35Z</time>
      </trkpt>
      <trkpt lat="45.9955" lon="4.75279">
        <ele>172</ele>
        <time>2018-03-14T11:54:36Z</time>
      </trkpt>
      <trkpt lat="45.99547" lon="4.75285">
        <ele>172</ele>
        <time>2018-03-14T11:54:37Z</time>
      </trkpt>
      <trkpt lat="45.9954" lon="4.75292">
        <ele>172</ele>
        <time>2018-03-14T11:54:39Z</time>
      </trkpt>
      <trkpt lat="45.99535" lon="4.75294">
        <ele>172</ele>
        <time>2018-03-14T11:54:40Z</time>
      </trkpt>
      <trkpt lat="45.9953" lon="4.75296">
        <ele>172</ele>
        <time>2018-03-14T11:54:41Z</time>
      </trkpt>
      <trkpt lat="45.99526" lon="4.75297">
        <ele>172</ele>
        <time>2018-03-14T11:54:42Z</time>
      </trkpt>
      <trkpt lat="45.99522" lon="4.75298">
        <ele>172</ele>
        <time>2018-03-14T11:54:43Z</time>
      </trkpt>
      <trkpt lat="45.99517" lon="4.75298">
        <ele>172</ele>
        <time>2018-03-14T11:54:44Z</time>
      </trkpt>
      <trkpt lat="45.99512" lon="4.75299">
        <ele>172</ele>
        <time>2018-03-14T11:54:45Z</time>
      </trkpt>
      <trkpt lat="45.99507" lon="4.753">
        <ele>172</ele>
        <time>2018-03-14T11:54:46Z</time>
      </trkpt>
      <trkpt lat="45.99502" lon="4.75301">
        <ele>172</ele>
        <time>2018-03-14T11:54:47Z</time>
      </trkpt>
      <trkpt lat="45.99498" lon="4.75303">
        <ele>171</ele>
        <time>2018-03-14T11:54:48Z</time>
      </trkpt>
      <trkpt lat="45.99493" lon="4.75304">
        <ele>171</ele>
        <time>2018-03-14T11:54:49Z</time>
      </trkpt>
      <trkpt lat="45.99488" lon="4.75304">
        <ele>171</ele>
        <time>2018-03-14T11:54:50Z</time>
      </trkpt>
      <trkpt lat="45.99484" lon="4.75305">
        <ele>171</ele>
        <time>2018-03-14T11:54:51Z</time>
      </trkpt>
      <trkpt lat="45.99479" lon="4.75306">
        <ele>171</ele>
        <time>2018-03-14T11:54:52Z</time>
      </trkpt>
      <trkpt lat="45.99474" lon="4.75306">
        <ele>171</ele>
        <time>2018-03-14T11:54:53Z</time>
      </trkpt>
      <trkpt lat="45.99469" lon="4.75306">
        <ele>171</ele>
        <time>2018-03-14T11:54:54Z</time>
      </trkpt>
      <trkpt lat="45.99461" lon="4.75308">
        <ele>171</ele>
        <time>2018-03-14T11:54:56Z</time>
      </trkpt>
      <trkpt lat="45.99456" lon="4.75309">
        <ele>171</ele>
        <time>2018-03-14T11:54:57Z</time>
      </trkpt>
      <trkpt lat="45.9945" lon="4.75309">
        <ele>171</ele>
        <time>2018-03-14T11:54:58Z</time>
      </trkpt>
      <trkpt lat="45.99445" lon="4.7531">
        <ele>171</ele>
        <time>2018-03-14T11:54:59Z</time>
      </trkpt>
      <trkpt lat="45.99439" lon="4.7531">
        <ele>171</ele>
        <time>2018-03-14T11:55:00Z</time>
      </trkpt>
      <trkpt lat="45.99434" lon="4.75311">
        <ele>171</ele>
        <time>2018-03-14T11:55:01Z</time>
      </trkpt>
      <trkpt lat="45.99429" lon="4.75312">
        <ele>171</ele>
        <time>2018-03-14T11:55:02Z</time>
      </trkpt>
      <trkpt lat="45.99424" lon="4.75313">
        <ele>171</ele>
        <time>2018-03-14T11:55:03Z</time>
      </trkpt>
      <trkpt lat="45.99415" lon="4.75316">
        <ele>170</ele>
        <time>2018-03-14T11:55:05Z</time>
      </trkpt>
      <trkpt lat="45.99411" lon="4.75317">
        <ele>170</ele>
        <time>2018-03-14T11:55:06Z</time>
      </trkpt>
      <trkpt lat="45.99406" lon="4.75319">
        <ele>170</ele>
        <time>2018-03-14T11:55:07Z</time>
      </trkpt>
      <trkpt lat="45.99401" lon="4.7532">
        <ele>170</ele>
        <time>2018-03-14T11:55:08Z</time>
      </trkpt>
      <trkpt lat="45.99397" lon="4.75324">
        <ele>170</ele>
        <time>2018-03-14T11:55:09Z</time>
      </trkpt>
      <trkpt lat="45.99393" lon="4.75328">
        <ele>170</ele>
        <time>2018-03-14T11:55:10Z</time>
      </trkpt>
      <trkpt lat="45.99389" lon="4.75331">
        <ele>170</ele>
        <time>2018-03-14T11:55:11Z</time>
      </trkpt>
      <trkpt lat="45.99384" lon="4.75336">
        <ele>171</ele>
        <time>2018-03-14T11:55:12Z</time>
      </trkpt>
      <trkpt lat="45.9938" lon="4.7534">
        <ele>171</ele>
        <time>2018-03-14T11:55:13Z</time>
      </trkpt>
      <trkpt lat="45.99376" lon="4.75345">
        <ele>172</ele>
        <time>2018-03-14T11:55:14Z</time>
      </trkpt>
      <trkpt lat="45.99372" lon="4.75351">
        <ele>172</ele>
        <time>2018-03-14T11:55:15Z</time>
      </trkpt>
      <trkpt lat="45.99368" lon="4.75357">
        <ele>172</ele>
        <time>2018-03-14T11:55:16Z</time>
      </trkpt>
      <trkpt lat="45.99365" lon="4.75364">
        <ele>172</ele>
        <time>2018-03-14T11:55:17Z</time>
      </trkpt>
      <trkpt lat="45.99361" lon="4.7537">
        <ele>172</ele>
        <time>2018-03-14T11:55:18Z</time>
      </trkpt>
      <trkpt lat="45.99358" lon="4.75376">
        <ele>172</ele>
        <time>2018-03-14T11:55:19Z</time>
      </trkpt>
      <trkpt lat="45.99356" lon="4.75382">
        <ele>172</ele>
        <time>2018-03-14T11:55:20Z</time>
      </trkpt>
      <trkpt lat="45.99351" lon="4.75392">
        <ele>172</ele>
        <time>2018-03-14T11:55:22Z</time>
      </trkpt>
      <trkpt lat="45.9935" lon="4.75397">
        <ele>173</ele>
        <time>2018-03-14T11:55:23Z</time>
      </trkpt>
      <trkpt lat="45.99346" lon="4.75402">
        <ele>173</ele>
        <time>2018-03-14T11:55:24Z</time>
      </trkpt>
      <trkpt lat="45.99343" lon="4.75407">
        <ele>173</ele>
        <time>2018-03-14T11:55:25Z</time>
      </trkpt>
      <trkpt lat="45.99341" lon="4.75414">
        <ele>173</ele>
        <time>2018-03-14T11:55:26Z</time>
      </trkpt>
      <trkpt lat="45.99337" lon="4.7542">
        <ele>174</ele>
        <time>2018-03-14T11:55:27Z</time>
      </trkpt>
      <trkpt lat="45.99335" lon="4.75427">
        <ele>175</ele>
        <time>2018-03-14T11:55:28Z</time>
      </trkpt>
      <trkpt lat="45.99336" lon="4.75434">
        <ele>175</ele>
        <time>2018-03-14T11:55:29Z</time>
      </trkpt>
      <trkpt lat="45.99334" lon="4.75441">
        <ele>176</ele>
        <time>2018-03-14T11:55:30Z</time>
      </trkpt>
      <trkpt lat="45.99333" lon="4.75448">
        <ele>173</ele>
        <time>2018-03-14T11:55:31Z</time>
      </trkpt>
      <trkpt lat="45.99329" lon="4.7546">
        <ele>174</ele>
        <time>2018-03-14T11:55:33Z</time>
      </trkpt>
      <trkpt lat="45.99327" lon="4.75466">
        <ele>174</ele>
        <time>2018-03-14T11:55:34Z</time>
      </trkpt>
      <trkpt lat="45.99325" lon="4.75473">
        <ele>174</ele>
        <time>2018-03-14T11:55:35Z</time>
      </trkpt>
      <trkpt lat="45.99323" lon="4.75479">
        <ele>175</ele>
        <time>2018-03-14T11:55:36Z</time>
      </trkpt>
      <trkpt lat="45.99318" lon="4.7549">
        <ele>175</ele>
        <time>2018-03-14T11:55:38Z</time>
      </trkpt>
      <trkpt lat="45.99314" lon="4.75496">
        <ele>175</ele>
        <time>2018-03-14T11:55:39Z</time>
      </trkpt>
      <trkpt lat="45.99311" lon="4.755">
        <ele>175</ele>
        <time>2018-03-14T11:55:40Z</time>
      </trkpt>
      <trkpt lat="45.99308" lon="4.75504">
        <ele>177</ele>
        <time>2018-03-14T11:55:41Z</time>
      </trkpt>
      <trkpt lat="45.99305" lon="4.75508">
        <ele>177</ele>
        <time>2018-03-14T11:55:42Z</time>
      </trkpt>
      <trkpt lat="45.99301" lon="4.75514">
        <ele>177</ele>
        <time>2018-03-14T11:55:43Z</time>
      </trkpt>
      <trkpt lat="45.99297" lon="4.75518">
        <ele>177</ele>
        <time>2018-03-14T11:55:44Z</time>
      </trkpt>
      <trkpt lat="45.99293" lon="4.75522">
        <ele>177</ele>
        <time>2018-03-14T11:55:45Z</time>
      </trkpt>
      <trkpt lat="45.99289" lon="4.75525">
        <ele>177</ele>
        <time>2018-03-14T11:55:46Z</time>
      </trkpt>
      <trkpt lat="45.99284" lon="4.75527">
        <ele>176</ele>
        <time>2018-03-14T11:55:47Z</time>
      </trkpt>
      <trkpt lat="45.99277" lon="4.75534">
        <ele>176</ele>
        <time>2018-03-14T11:55:49Z</time>
      </trkpt>
      <trkpt lat="45.99273" lon="4.7554">
        <ele>177</ele>
        <time>2018-03-14T11:55:50Z</time>
      </trkpt>
      <trkpt lat="45.99269" lon="4.75543">
        <ele>177</ele>
        <time>2018-03-14T11:55:51Z</time>
      </trkpt>
      <trkpt lat="45.99265" lon="4.75546">
        <ele>177</ele>
        <time>2018-03-14T11:55:52Z</time>
      </trkpt>
      <trkpt lat="45.99261" lon="4.75548">
        <ele>177</ele>
        <time>2018-03-14T11:55:53Z</time>
      </trkpt>
      <trkpt lat="45.99256" lon="4.7555">
        <ele>177</ele>
        <time>2018-03-14T11:55:54Z</time>
      </trkpt>
      <trkpt lat="45.99253" lon="4.75554">
        <ele>177</ele>
        <time>2018-03-14T11:55:55Z</time>
      </trkpt>
      <trkpt lat="45.99247" lon="4.75558">
        <ele>175</ele>
        <time>2018-03-14T11:55:56Z</time>
      </trkpt>
      <trkpt lat="45.99243" lon="4.75561">
        <ele>175</ele>
        <time>2018-03-14T11:55:57Z</time>
      </trkpt>
      <trkpt lat="45.99239" lon="4.75565">
        <ele>175</ele>
        <time>2018-03-14T11:55:58Z</time>
      </trkpt>
      <trkpt lat="45.99234" lon="4.75567">
        <ele>175</ele>
        <time>2018-03-14T11:55:59Z</time>
      </trkpt>
      <trkpt lat="45.9923" lon="4.7557">
        <ele>175</ele>
        <time>2018-03-14T11:56:00Z</time>
      </trkpt>
      <trkpt lat="45.99226" lon="4.75573">
        <ele>175</ele>
        <time>2018-03-14T11:56:01Z</time>
      </trkpt>
      <trkpt lat="45.99221" lon="4.75575">
        <ele>175</ele>
        <time>2018-03-14T11:56:02Z</time>
      </trkpt>
      <trkpt lat="45.99217" lon="4.75578">
        <ele>175</ele>
        <time>2018-03-14T11:56:03Z</time>
      </trkpt>
      <trkpt lat="45.99213" lon="4.75581">
        <ele>175</ele>
        <time>2018-03-14T11:56:04Z</time>
      </trkpt>
      <trkpt lat="45.99205" lon="4.75585">
        <ele>178</ele>
        <time>2018-03-14T11:56:06Z</time>
      </trkpt>
      <trkpt lat="45.99201" lon="4.75586">
        <ele>178</ele>
        <time>2018-03-14T11:56:07Z</time>
      </trkpt>
      <trkpt lat="45.99193" lon="4.75591">
        <ele>178</ele>
        <time>2018-03-14T11:56:09Z</time>
      </trkpt>
      <trkpt lat="45.99189" lon="4.75593">
        <ele>178</ele>
        <time>2018-03-14T11:56:10Z</time>
      </trkpt>
      <trkpt lat="45.99181" lon="4.75597">
        <ele>177</ele>
        <time>2018-03-14T11:56:12Z</time>
      </trkpt>
      <trkpt lat="45.99177" lon="4.75599">
        <ele>177</ele>
        <time>2018-03-14T11:56:13Z</time>
      </trkpt>
      <trkpt lat="45.99169" lon="4.75603">
        <ele>177</ele>
        <time>2018-03-14T11:56:15Z</time>
      </trkpt>
      <trkpt lat="45.99165" lon="4.75604">
        <ele>176</ele>
        <time>2018-03-14T11:56:16Z</time>
      </trkpt>
      <trkpt lat="45.99157" lon="4.75607">
        <ele>176</ele>
        <time>2018-03-14T11:56:18Z</time>
      </trkpt>
      <trkpt lat="45.99153" lon="4.75609">
        <ele>176</ele>
        <time>2018-03-14T11:56:19Z</time>
      </trkpt>
      <trkpt lat="45.99146" lon="4.75612">
        <ele>177</ele>
        <time>2018-03-14T11:56:21Z</time>
      </trkpt>
      <trkpt lat="45.99142" lon="4.75612">
        <ele>177</ele>
        <time>2018-03-14T11:56:22Z</time>
      </trkpt>
      <trkpt lat="45.99137" lon="4.75611">
        <ele>177</ele>
        <time>2018-03-14T11:56:23Z</time>
      </trkpt>
      <trkpt lat="45.99132" lon="4.75611">
        <ele>177</ele>
        <time>2018-03-14T11:56:24Z</time>
      </trkpt>
      <trkpt lat="45.99128" lon="4.75613">
        <ele>177</ele>
        <time>2018-03-14T11:56:25Z</time>
      </trkpt>
      <trkpt lat="45.99123" lon="4.75617">
        <ele>177</ele>
        <time>2018-03-14T11:56:26Z</time>
      </trkpt>
      <trkpt lat="45.99118" lon="4.75626">
        <ele>177</ele>
        <time>2018-03-14T11:56:28Z</time>
      </trkpt>
      <trkpt lat="45.99117" lon="4.75633">
        <ele>177</ele>
        <time>2018-03-14T11:56:29Z</time>
      </trkpt>
      <trkpt lat="45.99112" lon="4.75643">
        <ele>178</ele>
        <time>2018-03-14T11:56:31Z</time>
      </trkpt>
      <trkpt lat="45.99109" lon="4.75647">
        <ele>178</ele>
        <time>2018-03-14T11:56:32Z</time>
      </trkpt>
      <trkpt lat="45.99101" lon="4.75654">
        <ele>178</ele>
        <time>2018-03-14T11:56:34Z</time>
      </trkpt>
      <trkpt lat="45.99098" lon="4.75657">
        <ele>179</ele>
        <time>2018-03-14T11:56:35Z</time>
      </trkpt>
      <trkpt lat="45.99089" lon="4.7566">
        <ele>179</ele>
        <time>2018-03-14T11:56:37Z</time>
      </trkpt>
      <trkpt lat="45.99085" lon="4.7566">
        <ele>179</ele>
        <time>2018-03-14T11:56:38Z</time>
      </trkpt>
      <trkpt lat="45.99076" lon="4.75661">
        <ele>179</ele>
        <time>2018-03-14T11:56:40Z</time>
      </trkpt>
      <trkpt lat="45.99071" lon="4.75661">
        <ele>179</ele>
        <time>2018-03-14T11:56:41Z</time>
      </trkpt>
      <trkpt lat="45.99063" lon="4.7566">
        <ele>178</ele>
        <time>2018-03-14T11:56:43Z</time>
      </trkpt>
      <trkpt lat="45.99058" lon="4.7566">
        <ele>178</ele>
        <time>2018-03-14T11:56:44Z</time>
      </trkpt>
      <trkpt lat="45.9905" lon="4.75661">
        <ele>178</ele>
        <time>2018-03-14T11:56:46Z</time>
      </trkpt>
      <trkpt lat="45.99043" lon="4.7566">
        <ele>178</ele>
        <time>2018-03-14T11:56:47Z</time>
      </trkpt>
      <trkpt lat="45.99036" lon="4.75658">
        <ele>178</ele>
        <time>2018-03-14T11:56:48Z</time>
      </trkpt>
      <trkpt lat="45.99027" lon="4.75657">
        <ele>178</ele>
        <time>2018-03-14T11:56:49Z</time>
      </trkpt>
      <trkpt lat="45.99023" lon="4.75657">
        <ele>178</ele>
        <time>2018-03-14T11:56:50Z</time>
      </trkpt>
      <trkpt lat="45.99018" lon="4.75659">
        <ele>178</ele>
        <time>2018-03-14T11:56:51Z</time>
      </trkpt>
      <trkpt lat="45.99013" lon="4.75658">
        <ele>178</ele>
        <time>2018-03-14T11:56:52Z</time>
      </trkpt>
      <trkpt lat="45.99008" lon="4.75658">
        <ele>179</ele>
        <time>2018-03-14T11:56:53Z</time>
      </trkpt>
      <trkpt lat="45.99003" lon="4.75658">
        <ele>179</ele>
        <time>2018-03-14T11:56:54Z</time>
      </trkpt>
      <trkpt lat="45.98998" lon="4.75658">
        <ele>179</ele>
        <time>2018-03-14T11:56:55Z</time>
      </trkpt>
      <trkpt lat="45.98994" lon="4.75659">
        <ele>179</ele>
        <time>2018-03-14T11:56:56Z</time>
      </trkpt>
      <trkpt lat="45.98989" lon="4.75659">
        <ele>178</ele>
        <time>2018-03-14T11:56:57Z</time>
      </trkpt>
      <trkpt lat="45.98984" lon="4.7566">
        <ele>178</ele>
        <time>2018-03-14T11:56:58Z</time>
      </trkpt>
      <trkpt lat="45.98979" lon="4.75661">
        <ele>178</ele>
        <time>2018-03-14T11:56:59Z</time>
      </trkpt>
      <trkpt lat="45.98974" lon="4.75662">
        <ele>177</ele>
        <time>2018-03-14T11:57:00Z</time>
      </trkpt>
      <trkpt lat="45.98969" lon="4.75665">
        <ele>177</ele>
        <time>2018-03-14T11:57:01Z</time>
      </trkpt>
      <trkpt lat="45.98964" lon="4.75666">
        <ele>177</ele>
        <time>2018-03-14T11:57:02Z</time>
      </trkpt>
      <trkpt lat="45.98959" lon="4.75666">
        <ele>177</ele>
        <time>2018-03-14T11:57:03Z</time>
      </trkpt>
      <trkpt lat="45.98951" lon="4.75669">
        <ele>181</ele>
        <time>2018-03-14T11:57:05Z</time>
      </trkpt>
      <trkpt lat="45.98947" lon="4.7567">
        <ele>181</ele>
        <time>2018-03-14T11:57:06Z</time>
      </trkpt>
      <trkpt lat="45.98941" lon="4.75672">
        <ele>180</ele>
        <time>2018-03-14T11:57:07Z</time>
      </trkpt>
      <trkpt lat="45.98936" lon="4.75671">
        <ele>180</ele>
        <time>2018-03-14T11:57:08Z</time>
      </trkpt>
      <trkpt lat="45.98932" lon="4.75674">
        <ele>180</ele>
        <time>2018-03-14T11:57:09Z</time>
      </trkpt>
      <trkpt lat="45.98927" lon="4.75677">
        <ele>179</ele>
        <time>2018-03-14T11:57:10Z</time>
      </trkpt>
      <trkpt lat="45.98922" lon="4.75679">
        <ele>179</ele>
        <time>2018-03-14T11:57:11Z</time>
      </trkpt>
      <trkpt lat="45.98917" lon="4.75681">
        <ele>179</ele>
        <time>2018-03-14T11:57:12Z</time>
      </trkpt>
      <trkpt lat="45.98912" lon="4.75684">
        <ele>179</ele>
        <time>2018-03-14T11:57:13Z</time>
      </trkpt>
      <trkpt lat="45.98908" lon="4.75684">
        <ele>179</ele>
        <time>2018-03-14T11:57:14Z</time>
      </trkpt>
      <trkpt lat="45.98903" lon="4.75688">
        <ele>179</ele>
        <time>2018-03-14T11:57:15Z</time>
      </trkpt>
      <trkpt lat="45.98898" lon="4.75691">
        <ele>179</ele>
        <time>2018-03-14T11:57:16Z</time>
      </trkpt>
      <trkpt lat="45.98894" lon="4.75692">
        <ele>179</ele>
        <time>2018-03-14T11:57:17Z</time>
      </trkpt>
      <trkpt lat="45.98889" lon="4.75695">
        <ele>180</ele>
        <time>2018-03-14T11:57:18Z</time>
      </trkpt>
      <trkpt lat="45.98884" lon="4.75697">
        <ele>180</ele>
        <time>2018-03-14T11:57:19Z</time>
      </trkpt>
      <trkpt lat="45.98879" lon="4.757">
        <ele>180</ele>
        <time>2018-03-14T11:57:20Z</time>
      </trkpt>
      <trkpt lat="45.98873" lon="4.75702">
        <ele>180</ele>
        <time>2018-03-14T11:57:21Z</time>
      </trkpt>
      <trkpt lat="45.98868" lon="4.75703">
        <ele>180</ele>
        <time>2018-03-14T11:57:22Z</time>
      </trkpt>
      <trkpt lat="45.98863" lon="4.75704">
        <ele>180</ele>
        <time>2018-03-14T11:57:23Z</time>
      </trkpt>
      <trkpt lat="45.98858" lon="4.75704">
        <ele>180</ele>
        <time>2018-03-14T11:57:24Z</time>
      </trkpt>
      <trkpt lat="45.98853" lon="4.75707">
        <ele>180</ele>
        <time>2018-03-14T11:57:25Z</time>
      </trkpt>
      <trkpt lat="45.98849" lon="4.75709">
        <ele>180</ele>
        <time>2018-03-14T11:57:26Z</time>
      </trkpt>
      <trkpt lat="45.98843" lon="4.75709">
        <ele>180</ele>
        <time>2018-03-14T11:57:27Z</time>
      </trkpt>
      <trkpt lat="45.98839" lon="4.75711">
        <ele>180</ele>
        <time>2018-03-14T11:57:28Z</time>
      </trkpt>
      <trkpt lat="45.98835" lon="4.75712">
        <ele>180</ele>
        <time>2018-03-14T11:57:29Z</time>
      </trkpt>
      <trkpt lat="45.9883" lon="4.75714">
        <ele>179</ele>
        <time>2018-03-14T11:57:30Z</time>
      </trkpt>
      <trkpt lat="45.98825" lon="4.75717">
        <ele>179</ele>
        <time>2018-03-14T11:57:31Z</time>
      </trkpt>
      <trkpt lat="45.9882" lon="4.75717">
        <ele>179</ele>
        <time>2018-03-14T11:57:32Z</time>
      </trkpt>
      <trkpt lat="45.98812" lon="4.75719">
        <ele>179</ele>
        <time>2018-03-14T11:57:34Z</time>
      </trkpt>
      <trkpt lat="45.98807" lon="4.7572">
        <ele>179</ele>
        <time>2018-03-14T11:57:35Z</time>
      </trkpt>
      <trkpt lat="45.98798" lon="4.75719">
        <ele>179</ele>
        <time>2018-03-14T11:57:37Z</time>
      </trkpt>
      <trkpt lat="45.98794" lon="4.7572">
        <ele>178</ele>
        <time>2018-03-14T11:57:38Z</time>
      </trkpt>
      <trkpt lat="45.98785" lon="4.7572">
        <ele>178</ele>
        <time>2018-03-14T11:57:40Z</time>
      </trkpt>
      <trkpt lat="45.98782" lon="4.7572">
        <ele>178</ele>
        <time>2018-03-14T11:57:41Z</time>
      </trkpt>
      <trkpt lat="45.98773" lon="4.75715">
        <ele>178</ele>
        <time>2018-03-14T11:57:43Z</time>
      </trkpt>
      <trkpt lat="45.98768" lon="4.75715">
        <ele>178</ele>
        <time>2018-03-14T11:57:44Z</time>
      </trkpt>
      <trkpt lat="45.98763" lon="4.75716">
        <ele>178</ele>
        <time>2018-03-14T11:57:45Z</time>
      </trkpt>
      <trkpt lat="45.98759" lon="4.75719">
        <ele>178</ele>
        <time>2018-03-14T11:57:46Z</time>
      </trkpt>
      <trkpt lat="45.9875" lon="4.75723">
        <ele>178</ele>
        <time>2018-03-14T11:57:48Z</time>
      </trkpt>
      <trkpt lat="45.98745" lon="4.75724">
        <ele>177</ele>
        <time>2018-03-14T11:57:49Z</time>
      </trkpt>
      <trkpt lat="45.9874" lon="4.75725">
        <ele>177</ele>
        <time>2018-03-14T11:57:50Z</time>
      </trkpt>
      <trkpt lat="45.98734" lon="4.75725">
        <ele>177</ele>
        <time>2018-03-14T11:57:51Z</time>
      </trkpt>
      <trkpt lat="45.9873" lon="4.75726">
        <ele>177</ele>
        <time>2018-03-14T11:57:52Z</time>
      </trkpt>
      <trkpt lat="45.98725" lon="4.75726">
        <ele>177</ele>
        <time>2018-03-14T11:57:53Z</time>
      </trkpt>
      <trkpt lat="45.9872" lon="4.75726">
        <ele>177</ele>
        <time>2018-03-14T11:57:54Z</time>
      </trkpt>
      <trkpt lat="45.98714" lon="4.75727">
        <ele>177</ele>
        <time>2018-03-14T11:57:55Z</time>
      </trkpt>
      <trkpt lat="45.98706" lon="4.75728">
        <ele>177</ele>
        <time>2018-03-14T11:57:57Z</time>
      </trkpt>
      <trkpt lat="45.98701" lon="4.75729">
        <ele>177</ele>
        <time>2018-03-14T11:57:58Z</time>
      </trkpt>
      <trkpt lat="45.98697" lon="4.75728">
        <ele>177</ele>
        <time>2018-03-14T11:57:59Z</time>
      </trkpt>
      <trkpt lat="45.98691" lon="4.75728">
        <ele>177</ele>
        <time>2018-03-14T11:58:00Z</time>
      </trkpt>
      <trkpt lat="45.98686" lon="4.75727">
        <ele>177</ele>
        <time>2018-03-14T11:58:01Z</time>
      </trkpt>
      <trkpt lat="45.9868" lon="4.75726">
        <ele>177</ele>
        <time>2018-03-14T11:58:02Z</time>
      </trkpt>
      <trkpt lat="45.98675" lon="4.75727">
        <ele>177</ele>
        <time>2018-03-14T11:58:03Z</time>
      </trkpt>
      <trkpt lat="45.98671" lon="4.75728">
        <ele>177</ele>
        <time>2018-03-14T11:58:04Z</time>
      </trkpt>
      <trkpt lat="45.98667" lon="4.7573">
        <ele>177</ele>
        <time>2018-03-14T11:58:06Z</time>
      </trkpt>
      <trkpt lat="45.9866" lon="4.75729">
        <ele>176</ele>
        <time>2018-03-14T11:58:07Z</time>
      </trkpt>
      <trkpt lat="45.98653" lon="4.75727">
        <ele>176</ele>
        <time>2018-03-14T11:58:08Z</time>
      </trkpt>
      <trkpt lat="45.98646" lon="4.75727">
        <ele>176</ele>
        <time>2018-03-14T11:58:09Z</time>
      </trkpt>
      <trkpt lat="45.98641" lon="4.75727">
        <ele>175</ele>
        <time>2018-03-14T11:58:10Z</time>
      </trkpt>
      <trkpt lat="45.98635" lon="4.75726">
        <ele>175</ele>
        <time>2018-03-14T11:58:11Z</time>
      </trkpt>
      <trkpt lat="45.9863" lon="4.75726">
        <ele>175</ele>
        <time>2018-03-14T11:58:12Z</time>
      </trkpt>
      <trkpt lat="45.98624" lon="4.75728">
        <ele>175</ele>
        <time>2018-03-14T11:58:13Z</time>
      </trkpt>
      <trkpt lat="45.98615" lon="4.75728">
        <ele>175</ele>
        <time>2018-03-14T11:58:15Z</time>
      </trkpt>
      <trkpt lat="45.98611" lon="4.75728">
        <ele>175</ele>
        <time>2018-03-14T11:58:16Z</time>
      </trkpt>
      <trkpt lat="45.98605" lon="4.75727">
        <ele>175</ele>
        <time>2018-03-14T11:58:18Z</time>
      </trkpt>
      <trkpt lat="45.98602" lon="4.75726">
        <ele>174</ele>
        <time>2018-03-14T11:58:19Z</time>
      </trkpt>
      <trkpt lat="45.98594" lon="4.75722">
        <ele>174</ele>
        <time>2018-03-14T11:58:29Z</time>
      </trkpt>
      <trkpt lat="45.98592" lon="4.75721">
        <ele>174</ele>
        <time>2018-03-14T11:58:30Z</time>
      </trkpt>
      <trkpt lat="45.98586" lon="4.75719">
        <ele>174</ele>
        <time>2018-03-14T11:58:33Z</time>
      </trkpt>
      <trkpt lat="45.98583" lon="4.75719">
        <ele>174</ele>
        <time>2018-03-14T11:58:34Z</time>
      </trkpt>
      <trkpt lat="45.98572" lon="4.75718">
        <ele>174</ele>
        <time>2018-03-14T11:58:35Z</time>
      </trkpt>
      <trkpt lat="45.98563" lon="4.75717">
        <ele>174</ele>
        <time>2018-03-14T11:58:37Z</time>
      </trkpt>
      <trkpt lat="45.98559" lon="4.75717">
        <ele>174</ele>
        <time>2018-03-14T11:58:38Z</time>
      </trkpt>
      <trkpt lat="45.9855" lon="4.75718">
        <ele>174</ele>
        <time>2018-03-14T11:58:41Z</time>
      </trkpt>
      <trkpt lat="45.98543" lon="4.75718">
        <ele>174</ele>
        <time>2018-03-14T11:58:42Z</time>
      </trkpt>
      <trkpt lat="45.98535" lon="4.75718">
        <ele>174</ele>
        <time>2018-03-14T11:58:44Z</time>
      </trkpt>
      <trkpt lat="45.98531" lon="4.75717">
        <ele>174</ele>
        <time>2018-03-14T11:58:45Z</time>
      </trkpt>
      <trkpt lat="45.98527" lon="4.75716">
        <ele>174</ele>
        <time>2018-03-14T11:58:47Z</time>
      </trkpt>
      <trkpt lat="45.9852" lon="4.75713">
        <ele>174</ele>
        <time>2018-03-14T11:58:48Z</time>
      </trkpt>
      <trkpt lat="45.98515" lon="4.75712">
        <ele>174</ele>
        <time>2018-03-14T11:58:49Z</time>
      </trkpt>
      <trkpt lat="45.9851" lon="4.7571">
        <ele>174</ele>
        <time>2018-03-14T11:58:50Z</time>
      </trkpt>
      <trkpt lat="45.98505" lon="4.7571">
        <ele>174</ele>
        <time>2018-03-14T11:58:51Z</time>
      </trkpt>
      <trkpt lat="45.985" lon="4.75708">
        <ele>174</ele>
        <time>2018-03-14T11:58:52Z</time>
      </trkpt>
      <trkpt lat="45.98492" lon="4.75707">
        <ele>174</ele>
        <time>2018-03-14T11:58:54Z</time>
      </trkpt>
      <trkpt lat="45.98487" lon="4.75707">
        <ele>174</ele>
        <time>2018-03-14T11:58:55Z</time>
      </trkpt>
      <trkpt lat="45.9848" lon="4.75706">
        <ele>174</ele>
        <time>2018-03-14T11:58:57Z</time>
      </trkpt>
      <trkpt lat="45.98476" lon="4.75706">
        <ele>174</ele>
        <time>2018-03-14T11:58:58Z</time>
      </trkpt>
      <trkpt lat="45.98468" lon="4.75706">
        <ele>174</ele>
        <time>2018-03-14T11:59:00Z</time>
      </trkpt>
      <trkpt lat="45.98463" lon="4.75705">
        <ele>174</ele>
        <time>2018-03-14T11:59:01Z</time>
      </trkpt>
      <trkpt lat="45.98458" lon="4.75704">
        <ele>175</ele>
        <time>2018-03-14T11:59:02Z</time>
      </trkpt>
      <trkpt lat="45.98453" lon="4.75702">
        <ele>175</ele>
        <time>2018-03-14T11:59:03Z</time>
      </trkpt>
      <trkpt lat="45.98449" lon="4.75702">
        <ele>175</ele>
        <time>2018-03-14T11:59:04Z</time>
      </trkpt>
      <trkpt lat="45.98444" lon="4.75701">
        <ele>175</ele>
        <time>2018-03-14T11:59:05Z</time>
      </trkpt>
      <trkpt lat="45.98438" lon="4.75699">
        <ele>175</ele>
        <time>2018-03-14T11:59:06Z</time>
      </trkpt>
      <trkpt lat="45.98432" lon="4.75699">
        <ele>175</ele>
        <time>2018-03-14T11:59:07Z</time>
      </trkpt>
      <trkpt lat="45.98428" lon="4.75698">
        <ele>175</ele>
        <time>2018-03-14T11:59:08Z</time>
      </trkpt>
      <trkpt lat="45.98423" lon="4.75697">
        <ele>175</ele>
        <time>2018-03-14T11:59:09Z</time>
      </trkpt>
      <trkpt lat="45.98418" lon="4.75695">
        <ele>175</ele>
        <time>2018-03-14T11:59:10Z</time>
      </trkpt>
      <trkpt lat="45.98413" lon="4.75695">
        <ele>174</ele>
        <time>2018-03-14T11:59:11Z</time>
      </trkpt>
      <trkpt lat="45.98411" lon="4.75694">
        <ele>174</ele>
        <time>2018-03-14T11:59:12Z</time>
      </trkpt>
      <trkpt lat="45.98404" lon="4.75691">
        <ele>174</ele>
        <time>2018-03-14T11:59:13Z</time>
      </trkpt>
      <trkpt lat="45.98396" lon="4.75687">
        <ele>174</ele>
        <time>2018-03-14T11:59:15Z</time>
      </trkpt>
      <trkpt lat="45.98392" lon="4.75686">
        <ele>174</ele>
        <time>2018-03-14T11:59:16Z</time>
      </trkpt>
      <trkpt lat="45.98383" lon="4.75683">
        <ele>174</ele>
        <time>2018-03-14T11:59:18Z</time>
      </trkpt>
      <trkpt lat="45.98379" lon="4.75684">
        <ele>174</ele>
        <time>2018-03-14T11:59:19Z</time>
      </trkpt>
      <trkpt lat="45.98375" lon="4.75685">
        <ele>174</ele>
        <time>2018-03-14T11:59:20Z</time>
      </trkpt>
      <trkpt lat="45.9837" lon="4.75685">
        <ele>174</ele>
        <time>2018-03-14T11:59:21Z</time>
      </trkpt>
      <trkpt lat="45.98364" lon="4.75685">
        <ele>174</ele>
        <time>2018-03-14T11:59:22Z</time>
      </trkpt>
      <trkpt lat="45.98358" lon="4.75685">
        <ele>174</ele>
        <time>2018-03-14T11:59:23Z</time>
      </trkpt>
      <trkpt lat="45.98352" lon="4.75684">
        <ele>174</ele>
        <time>2018-03-14T11:59:24Z</time>
      </trkpt>
      <trkpt lat="45.98347" lon="4.75683">
        <ele>174</ele>
        <time>2018-03-14T11:59:25Z</time>
      </trkpt>
      <trkpt lat="45.98342" lon="4.75683">
        <ele>174</ele>
        <time>2018-03-14T11:59:26Z</time>
      </trkpt>
      <trkpt lat="45.98337" lon="4.75682">
        <ele>174</ele>
        <time>2018-03-14T11:59:27Z</time>
      </trkpt>
      <trkpt lat="45.98332" lon="4.75682">
        <ele>174</ele>
        <time>2018-03-14T11:59:28Z</time>
      </trkpt>
      <trkpt lat="45.98327" lon="4.7568">
        <ele>174</ele>
        <time>2018-03-14T11:59:29Z</time>
      </trkpt>
      <trkpt lat="45.98322" lon="4.75679">
        <ele>174</ele>
        <time>2018-03-14T11:59:30Z</time>
      </trkpt>
      <trkpt lat="45.98317" lon="4.75678">
        <ele>174</ele>
        <time>2018-03-14T11:59:31Z</time>
      </trkpt>
      <trkpt lat="45.98312" lon="4.75679">
        <ele>174</ele>
        <time>2018-03-14T11:59:32Z</time>
      </trkpt>
      <trkpt lat="45.98308" lon="4.75679">
        <ele>174</ele>
        <time>2018-03-14T11:59:33Z</time>
      </trkpt>
      <trkpt lat="45.98303" lon="4.75678">
        <ele>174</ele>
        <time>2018-03-14T11:59:34Z</time>
      </trkpt>
      <trkpt lat="45.98298" lon="4.75677">
        <ele>174</ele>
        <time>2018-03-14T11:59:35Z</time>
      </trkpt>
      <trkpt lat="45.98294" lon="4.75678">
        <ele>174</ele>
        <time>2018-03-14T11:59:36Z</time>
      </trkpt>
      <trkpt lat="45.98289" lon="4.75677">
        <ele>174</ele>
        <time>2018-03-14T11:59:37Z</time>
      </trkpt>
      <trkpt lat="45.98284" lon="4.75678">
        <ele>174</ele>
        <time>2018-03-14T11:59:38Z</time>
      </trkpt>
      <trkpt lat="45.9828" lon="4.75678">
        <ele>174</ele>
        <time>2018-03-14T11:59:39Z</time>
      </trkpt>
      <trkpt lat="45.98275" lon="4.75678">
        <ele>174</ele>
        <time>2018-03-14T11:59:40Z</time>
      </trkpt>
      <trkpt lat="45.9827" lon="4.75678">
        <ele>173</ele>
        <time>2018-03-14T11:59:41Z</time>
      </trkpt>
      <trkpt lat="45.98264" lon="4.75678">
        <ele>173</ele>
        <time>2018-03-14T11:59:42Z</time>
      </trkpt>
      <trkpt lat="45.9826" lon="4.75678">
        <ele>173</ele>
        <time>2018-03-14T11:59:43Z</time>
      </trkpt>
      <trkpt lat="45.98255" lon="4.75679">
        <ele>173</ele>
        <time>2018-03-14T11:59:44Z</time>
      </trkpt>
      <trkpt lat="45.9825" lon="4.75679">
        <ele>173</ele>
        <time>2018-03-14T11:59:45Z</time>
      </trkpt>
      <trkpt lat="45.98241" lon="4.7568">
        <ele>173</ele>
        <time>2018-03-14T11:59:47Z</time>
      </trkpt>
      <trkpt lat="45.98236" lon="4.75681">
        <ele>174</ele>
        <time>2018-03-14T11:59:48Z</time>
      </trkpt>
      <trkpt lat="45.9823" lon="4.75683">
        <ele>174</ele>
        <time>2018-03-14T11:59:49Z</time>
      </trkpt>
      <trkpt lat="45.98225" lon="4.75683">
        <ele>174</ele>
        <time>2018-03-14T11:59:50Z</time>
      </trkpt>
      <trkpt lat="45.98216" lon="4.75684">
        <ele>174</ele>
        <time>2018-03-14T11:59:52Z</time>
      </trkpt>
      <trkpt lat="45.98212" lon="4.75686">
        <ele>174</ele>
        <time>2018-03-14T11:59:53Z</time>
      </trkpt>
      <trkpt lat="45.98203" lon="4.75688">
        <ele>174</ele>
        <time>2018-03-14T11:59:55Z</time>
      </trkpt>
      <trkpt lat="45.98199" lon="4.75688">
        <ele>174</ele>
        <time>2018-03-14T11:59:56Z</time>
      </trkpt>
      <trkpt lat="45.98192" lon="4.75688">
        <ele>174</ele>
        <time>2018-03-14T11:59:58Z</time>
      </trkpt>
      <trkpt lat="45.98188" lon="4.75688">
        <ele>174</ele>
        <time>2018-03-14T11:59:59Z</time>
      </trkpt>
      <trkpt lat="45.98182" lon="4.75689">
        <ele>174</ele>
        <time>2018-03-14T12:00:01Z</time>
      </trkpt>
      <trkpt lat="45.98177" lon="4.75689">
        <ele>174</ele>
        <time>2018-03-14T12:00:02Z</time>
      </trkpt>
      <trkpt lat="45.9817" lon="4.75689">
        <ele>174</ele>
        <time>2018-03-14T12:00:04Z</time>
      </trkpt>
      <trkpt lat="45.98165" lon="4.75689">
        <ele>174</ele>
        <time>2018-03-14T12:00:05Z</time>
      </trkpt>
      <trkpt lat="45.9816" lon="4.7569">
        <ele>174</ele>
        <time>2018-03-14T12:00:06Z</time>
      </trkpt>
      <trkpt lat="45.98156" lon="4.75691">
        <ele>174</ele>
        <time>2018-03-14T12:00:07Z</time>
      </trkpt>
      <trkpt lat="45.9815" lon="4.7569">
        <ele>174</ele>
        <time>2018-03-14T12:00:08Z</time>
      </trkpt>
      <trkpt lat="45.98145" lon="4.75691">
        <ele>174</ele>
        <time>2018-03-14T12:00:09Z</time>
      </trkpt>
      <trkpt lat="45.98139" lon="4.75691">
        <ele>174</ele>
        <time>2018-03-14T12:00:10Z</time>
      </trkpt>
      <trkpt lat="45.98134" lon="4.75692">
        <ele>174</ele>
        <time>2018-03-14T12:00:11Z</time>
      </trkpt>
      <trkpt lat="45.98129" lon="4.75693">
        <ele>174</ele>
        <time>2018-03-14T12:00:12Z</time>
      </trkpt>
      <trkpt lat="45.98124" lon="4.75693">
        <ele>174</ele>
        <time>2018-03-14T12:00:13Z</time>
      </trkpt>
      <trkpt lat="45.98119" lon="4.75692">
        <ele>174</ele>
        <time>2018-03-14T12:00:14Z</time>
      </trkpt>
      <trkpt lat="45.98114" lon="4.75693">
        <ele>174</ele>
        <time>2018-03-14T12:00:15Z</time>
      </trkpt>
      <trkpt lat="45.98105" lon="4.75695">
        <ele>174</ele>
        <time>2018-03-14T12:00:17Z</time>
      </trkpt>
      <trkpt lat="45.981" lon="4.75695">
        <ele>174</ele>
        <time>2018-03-14T12:00:18Z</time>
      </trkpt>
      <trkpt lat="45.98095" lon="4.75695">
        <ele>174</ele>
        <time>2018-03-14T12:00:19Z</time>
      </trkpt>
      <trkpt lat="45.9809" lon="4.75696">
        <ele>174</ele>
        <time>2018-03-14T12:00:20Z</time>
      </trkpt>
      <trkpt lat="45.98085" lon="4.75696">
        <ele>174</ele>
        <time>2018-03-14T12:00:21Z</time>
      </trkpt>
      <trkpt lat="45.9808" lon="4.75698">
        <ele>174</ele>
        <time>2018-03-14T12:00:22Z</time>
      </trkpt>
      <trkpt lat="45.98074" lon="4.75698">
        <ele>174</ele>
        <time>2018-03-14T12:00:23Z</time>
      </trkpt>
      <trkpt lat="45.98071" lon="4.757">
        <ele>174</ele>
        <time>2018-03-14T12:00:24Z</time>
      </trkpt>
      <trkpt lat="45.98066" lon="4.75701">
        <ele>174</ele>
        <time>2018-03-14T12:00:25Z</time>
      </trkpt>
      <trkpt lat="45.98061" lon="4.75701">
        <ele>174</ele>
        <time>2018-03-14T12:00:26Z</time>
      </trkpt>
      <trkpt lat="45.98056" lon="4.75701">
        <ele>174</ele>
        <time>2018-03-14T12:00:27Z</time>
      </trkpt>
      <trkpt lat="45.9805" lon="4.75701">
        <ele>174</ele>
        <time>2018-03-14T12:00:28Z</time>
      </trkpt>
      <trkpt lat="45.98045" lon="4.75702">
        <ele>174</ele>
        <time>2018-03-14T12:00:29Z</time>
      </trkpt>
      <trkpt lat="45.9804" lon="4.75703">
        <ele>174</ele>
        <time>2018-03-14T12:00:30Z</time>
      </trkpt>
      <trkpt lat="45.98035" lon="4.75704">
        <ele>174</ele>
        <time>2018-03-14T12:00:31Z</time>
      </trkpt>
      <trkpt lat="45.9803" lon="4.75705">
        <ele>174</ele>
        <time>2018-03-14T12:00:32Z</time>
      </trkpt>
      <trkpt lat="45.98026" lon="4.75707">
        <ele>174</ele>
        <time>2018-03-14T12:00:33Z</time>
      </trkpt>
      <trkpt lat="45.98021" lon="4.75708">
        <ele>174</ele>
        <time>2018-03-14T12:00:34Z</time>
      </trkpt>
      <trkpt lat="45.98017" lon="4.75708">
        <ele>174</ele>
        <time>2018-03-14T12:00:35Z</time>
      </trkpt>
      <trkpt lat="45.98012" lon="4.75709">
        <ele>174</ele>
        <time>2018-03-14T12:00:36Z</time>
      </trkpt>
      <trkpt lat="45.98007" lon="4.7571">
        <ele>174</ele>
        <time>2018-03-14T12:00:37Z</time>
      </trkpt>
      <trkpt lat="45.98002" lon="4.75712">
        <ele>174</ele>
        <time>2018-03-14T12:00:38Z</time>
      </trkpt>
      <trkpt lat="45.97994" lon="4.75717">
        <ele>174</ele>
        <time>2018-03-14T12:00:40Z</time>
      </trkpt>
      <trkpt lat="45.9799" lon="4.75718">
        <ele>174</ele>
        <time>2018-03-14T12:00:41Z</time>
      </trkpt>
      <trkpt lat="45.97982" lon="4.75722">
        <ele>174</ele>
        <time>2018-03-14T12:00:43Z</time>
      </trkpt>
      <trkpt lat="45.97977" lon="4.75723">
        <ele>174</ele>
        <time>2018-03-14T12:00:44Z</time>
      </trkpt>
      <trkpt lat="45.97969" lon="4.75728">
        <ele>174</ele>
        <time>2018-03-14T12:00:46Z</time>
      </trkpt>
      <trkpt lat="45.97966" lon="4.7573">
        <ele>174</ele>
        <time>2018-03-14T12:00:47Z</time>
      </trkpt>
      <trkpt lat="45.97958" lon="4.75732">
        <ele>174</ele>
        <time>2018-03-14T12:00:49Z</time>
      </trkpt>
      <trkpt lat="45.97954" lon="4.7573">
        <ele>174</ele>
        <time>2018-03-14T12:00:50Z</time>
      </trkpt>
      <trkpt lat="45.97945" lon="4.75728">
        <ele>174</ele>
        <time>2018-03-14T12:00:52Z</time>
      </trkpt>
      <trkpt lat="45.97942" lon="4.75727">
        <ele>174</ele>
        <time>2018-03-14T12:00:53Z</time>
      </trkpt>
      <trkpt lat="45.97934" lon="4.75722">
        <ele>174</ele>
        <time>2018-03-14T12:00:55Z</time>
      </trkpt>
      <trkpt lat="45.9793" lon="4.75719">
        <ele>174</ele>
        <time>2018-03-14T12:00:56Z</time>
      </trkpt>
      <trkpt lat="45.97926" lon="4.75717">
        <ele>174</ele>
        <time>2018-03-14T12:00:57Z</time>
      </trkpt>
      <trkpt lat="45.97922" lon="4.75714">
        <ele>174</ele>
        <time>2018-03-14T12:00:58Z</time>
      </trkpt>
      <trkpt lat="45.97917" lon="4.7571">
        <ele>174</ele>
        <time>2018-03-14T12:00:59Z</time>
      </trkpt>
      <trkpt lat="45.97913" lon="4.75707">
        <ele>175</ele>
        <time>2018-03-14T12:01:00Z</time>
      </trkpt>
      <trkpt lat="45.97908" lon="4.75705">
        <ele>175</ele>
        <time>2018-03-14T12:01:01Z</time>
      </trkpt>
      <trkpt lat="45.97903" lon="4.75702">
        <ele>175</ele>
        <time>2018-03-14T12:01:02Z</time>
      </trkpt>
      <trkpt lat="45.97897" lon="4.75699">
        <ele>175</ele>
        <time>2018-03-14T12:01:03Z</time>
      </trkpt>
      <trkpt lat="45.97893" lon="4.75696">
        <ele>175</ele>
        <time>2018-03-14T12:01:04Z</time>
      </trkpt>
      <trkpt lat="45.97887" lon="4.75693">
        <ele>175</ele>
        <time>2018-03-14T12:01:05Z</time>
      </trkpt>
      <trkpt lat="45.97882" lon="4.7569">
        <ele>175</ele>
        <time>2018-03-14T12:01:06Z</time>
      </trkpt>
      <trkpt lat="45.97877" lon="4.75688">
        <ele>175</ele>
        <time>2018-03-14T12:01:07Z</time>
      </trkpt>
      <trkpt lat="45.97872" lon="4.75685">
        <ele>175</ele>
        <time>2018-03-14T12:01:08Z</time>
      </trkpt>
      <trkpt lat="45.97868" lon="4.75682">
        <ele>175</ele>
        <time>2018-03-14T12:01:09Z</time>
      </trkpt>
      <trkpt lat="45.97864" lon="4.75681">
        <ele>175</ele>
        <time>2018-03-14T12:01:10Z</time>
      </trkpt>
      <trkpt lat="45.97859" lon="4.75679">
        <ele>175</ele>
        <time>2018-03-14T12:01:11Z</time>
      </trkpt>
      <trkpt lat="45.97854" lon="4.75677">
        <ele>175</ele>
        <time>2018-03-14T12:01:12Z</time>
      </trkpt>
      <trkpt lat="45.97848" lon="4.75676">
        <ele>175</ele>
        <time>2018-03-14T12:01:13Z</time>
      </trkpt>
      <trkpt lat="45.97842" lon="4.75676">
        <ele>175</ele>
        <time>2018-03-14T12:01:14Z</time>
      </trkpt>
      <trkpt lat="45.97836" lon="4.75675">
        <ele>175</ele>
        <time>2018-03-14T12:01:15Z</time>
      </trkpt>
      <trkpt lat="45.9783" lon="4.75674">
        <ele>175</ele>
        <time>2018-03-14T12:01:16Z</time>
      </trkpt>
      <trkpt lat="45.97824" lon="4.75673">
        <ele>175</ele>
        <time>2018-03-14T12:01:17Z</time>
      </trkpt>
      <trkpt lat="45.97819" lon="4.75671">
        <ele>175</ele>
        <time>2018-03-14T12:01:18Z</time>
      </trkpt>
      <trkpt lat="45.97813" lon="4.75671">
        <ele>175</ele>
        <time>2018-03-14T12:01:19Z</time>
      </trkpt>
      <trkpt lat="45.97807" lon="4.75671">
        <ele>175</ele>
        <time>2018-03-14T12:01:20Z</time>
      </trkpt>
      <trkpt lat="45.97801" lon="4.75671">
        <ele>175</ele>
        <time>2018-03-14T12:01:21Z</time>
      </trkpt>
      <trkpt lat="45.97795" lon="4.75671">
        <ele>174</ele>
        <time>2018-03-14T12:01:22Z</time>
      </trkpt>
      <trkpt lat="45.97788" lon="4.75671">
        <ele>174</ele>
        <time>2018-03-14T12:01:23Z</time>
      </trkpt>
      <trkpt lat="45.97782" lon="4.7567">
        <ele>174</ele>
        <time>2018-03-14T12:01:24Z</time>
      </trkpt>
      <trkpt lat="45.97775" lon="4.7567">
        <ele>174</ele>
        <time>2018-03-14T12:01:25Z</time>
      </trkpt>
      <trkpt lat="45.9777" lon="4.75671">
        <ele>174</ele>
        <time>2018-03-14T12:01:26Z</time>
      </trkpt>
      <trkpt lat="45.97763" lon="4.75672">
        <ele>173</ele>
        <time>2018-03-14T12:01:27Z</time>
      </trkpt>
      <trkpt lat="45.97757" lon="4.75671">
        <ele>173</ele>
        <time>2018-03-14T12:01:28Z</time>
      </trkpt>
      <trkpt lat="45.97752" lon="4.75671">
        <ele>172</ele>
        <time>2018-03-14T12:01:29Z</time>
      </trkpt>
      <trkpt lat="45.97746" lon="4.7567">
        <ele>172</ele>
        <time>2018-03-14T12:01:30Z</time>
      </trkpt>
      <trkpt lat="45.97741" lon="4.7567">
        <ele>172</ele>
        <time>2018-03-14T12:01:31Z</time>
      </trkpt>
      <trkpt lat="45.97736" lon="4.7567">
        <ele>172</ele>
        <time>2018-03-14T12:01:32Z</time>
      </trkpt>
      <trkpt lat="45.9773" lon="4.75669">
        <ele>172</ele>
        <time>2018-03-14T12:01:33Z</time>
      </trkpt>
      <trkpt lat="45.97726" lon="4.75668">
        <ele>172</ele>
        <time>2018-03-14T12:01:34Z</time>
      </trkpt>
      <trkpt lat="45.97721" lon="4.75668">
        <ele>171</ele>
        <time>2018-03-14T12:01:35Z</time>
      </trkpt>
      <trkpt lat="45.97716" lon="4.75668">
        <ele>171</ele>
        <time>2018-03-14T12:01:36Z</time>
      </trkpt>
      <trkpt lat="45.97711" lon="4.75668">
        <ele>171</ele>
        <time>2018-03-14T12:01:37Z</time>
      </trkpt>
      <trkpt lat="45.97706" lon="4.75667">
        <ele>171</ele>
        <time>2018-03-14T12:01:38Z</time>
      </trkpt>
      <trkpt lat="45.977" lon="4.75666">
        <ele>170</ele>
        <time>2018-03-14T12:01:39Z</time>
      </trkpt>
      <trkpt lat="45.97694" lon="4.75665">
        <ele>170</ele>
        <time>2018-03-14T12:01:40Z</time>
      </trkpt>
      <trkpt lat="45.97689" lon="4.75665">
        <ele>170</ele>
        <time>2018-03-14T12:01:41Z</time>
      </trkpt>
      <trkpt lat="45.97685" lon="4.75666">
        <ele>170</ele>
        <time>2018-03-14T12:01:42Z</time>
      </trkpt>
      <trkpt lat="45.97679" lon="4.75666">
        <ele>170</ele>
        <time>2018-03-14T12:01:43Z</time>
      </trkpt>
      <trkpt lat="45.97674" lon="4.75666">
        <ele>170</ele>
        <time>2018-03-14T12:01:44Z</time>
      </trkpt>
      <trkpt lat="45.97669" lon="4.75666">
        <ele>169</ele>
        <time>2018-03-14T12:01:45Z</time>
      </trkpt>
      <trkpt lat="45.97664" lon="4.75665">
        <ele>169</ele>
        <time>2018-03-14T12:01:46Z</time>
      </trkpt>
      <trkpt lat="45.97655" lon="4.75665">
        <ele>169</ele>
        <time>2018-03-14T12:01:48Z</time>
      </trkpt>
      <trkpt lat="45.9765" lon="4.75666">
        <ele>169</ele>
        <time>2018-03-14T12:01:49Z</time>
      </trkpt>
      <trkpt lat="45.97645" lon="4.75666">
        <ele>169</ele>
        <time>2018-03-14T12:01:50Z</time>
      </trkpt>
      <trkpt lat="45.9764" lon="4.75666">
        <ele>170</ele>
        <time>2018-03-14T12:01:51Z</time>
      </trkpt>
      <trkpt lat="45.97635" lon="4.75666">
        <ele>170</ele>
        <time>2018-03-14T12:01:52Z</time>
      </trkpt>
      <trkpt lat="45.97631" lon="4.75666">
        <ele>170</ele>
        <time>2018-03-14T12:01:53Z</time>
      </trkpt>
      <trkpt lat="45.97626" lon="4.75667">
        <ele>171</ele>
        <time>2018-03-14T12:01:54Z</time>
      </trkpt>
      <trkpt lat="45.97621" lon="4.75668">
        <ele>171</ele>
        <time>2018-03-14T12:01:55Z</time>
      </trkpt>
      <trkpt lat="45.97614" lon="4.7567">
        <ele>171</ele>
        <time>2018-03-14T12:01:57Z</time>
      </trkpt>
      <trkpt lat="45.9761" lon="4.75671">
        <ele>171</ele>
        <time>2018-03-14T12:01:58Z</time>
      </trkpt>
      <trkpt lat="45.97602" lon="4.75675">
        <ele>171</ele>
        <time>2018-03-14T12:02:00Z</time>
      </trkpt>
      <trkpt lat="45.97598" lon="4.75678">
        <ele>171</ele>
        <time>2018-03-14T12:02:01Z</time>
      </trkpt>
      <trkpt lat="45.97593" lon="4.75682">
        <ele>171</ele>
        <time>2018-03-14T12:02:02Z</time>
      </trkpt>
      <trkpt lat="45.97589" lon="4.75684">
        <ele>171</ele>
        <time>2018-03-14T12:02:03Z</time>
      </trkpt>
      <trkpt lat="45.97584" lon="4.75685">
        <ele>171</ele>
        <time>2018-03-14T12:02:04Z</time>
      </trkpt>
      <trkpt lat="45.97579" lon="4.75682">
        <ele>171</ele>
        <time>2018-03-14T12:02:05Z</time>
      </trkpt>
      <trkpt lat="45.97573" lon="4.75673">
        <ele>171</ele>
        <time>2018-03-14T12:02:07Z</time>
      </trkpt>
      <trkpt lat="45.97569" lon="4.75669">
        <ele>171</ele>
        <time>2018-03-14T12:02:08Z</time>
      </trkpt>
      <trkpt lat="45.97566" lon="4.75667">
        <ele>170</ele>
        <time>2018-03-14T12:02:09Z</time>
      </trkpt>
      <trkpt lat="45.97561" lon="4.75665">
        <ele>169</ele>
        <time>2018-03-14T12:02:10Z</time>
      </trkpt>
      <trkpt lat="45.97557" lon="4.75665">
        <ele>169</ele>
        <time>2018-03-14T12:02:11Z</time>
      </trkpt>
      <trkpt lat="45.97552" lon="4.75664">
        <ele>169</ele>
        <time>2018-03-14T12:02:12Z</time>
      </trkpt>
      <trkpt lat="45.97546" lon="4.75662">
        <ele>169</ele>
        <time>2018-03-14T12:02:13Z</time>
      </trkpt>
      <trkpt lat="45.97542" lon="4.75662">
        <ele>169</ele>
        <time>2018-03-14T12:02:14Z</time>
      </trkpt>
      <trkpt lat="45.97536" lon="4.75661">
        <ele>169</ele>
        <time>2018-03-14T12:02:15Z</time>
      </trkpt>
      <trkpt lat="45.97531" lon="4.75661">
        <ele>169</ele>
        <time>2018-03-14T12:02:16Z</time>
      </trkpt>
      <trkpt lat="45.97525" lon="4.75662">
        <ele>169</ele>
        <time>2018-03-14T12:02:17Z</time>
      </trkpt>
      <trkpt lat="45.9752" lon="4.75664">
        <ele>169</ele>
        <time>2018-03-14T12:02:18Z</time>
      </trkpt>
      <trkpt lat="45.97514" lon="4.75667">
        <ele>171</ele>
        <time>2018-03-14T12:02:19Z</time>
      </trkpt>
      <trkpt lat="45.97509" lon="4.75669">
        <ele>171</ele>
        <time>2018-03-14T12:02:20Z</time>
      </trkpt>
      <trkpt lat="45.97503" lon="4.75672">
        <ele>170</ele>
        <time>2018-03-14T12:02:21Z</time>
      </trkpt>
      <trkpt lat="45.97498" lon="4.75673">
        <ele>170</ele>
        <time>2018-03-14T12:02:22Z</time>
      </trkpt>
      <trkpt lat="45.97494" lon="4.75675">
        <ele>170</ele>
        <time>2018-03-14T12:02:23Z</time>
      </trkpt>
      <trkpt lat="45.9749" lon="4.75677">
        <ele>170</ele>
        <time>2018-03-14T12:02:24Z</time>
      </trkpt>
      <trkpt lat="45.97485" lon="4.75678">
        <ele>171</ele>
        <time>2018-03-14T12:02:25Z</time>
      </trkpt>
      <trkpt lat="45.9748" lon="4.75678">
        <ele>171</ele>
        <time>2018-03-14T12:02:26Z</time>
      </trkpt>
      <trkpt lat="45.97472" lon="4.75679">
        <ele>171</ele>
        <time>2018-03-14T12:02:28Z</time>
      </trkpt>
      <trkpt lat="45.97468" lon="4.7568">
        <ele>171</ele>
        <time>2018-03-14T12:02:29Z</time>
      </trkpt>
      <trkpt lat="45.9746" lon="4.75679">
        <ele>171</ele>
        <time>2018-03-14T12:02:31Z</time>
      </trkpt>
      <trkpt lat="45.97455" lon="4.75678">
        <ele>170</ele>
        <time>2018-03-14T12:02:32Z</time>
      </trkpt>
      <trkpt lat="45.97447" lon="4.75679">
        <ele>170</ele>
        <time>2018-03-14T12:02:34Z</time>
      </trkpt>
      <trkpt lat="45.97442" lon="4.7568">
        <ele>170</ele>
        <time>2018-03-14T12:02:35Z</time>
      </trkpt>
      <trkpt lat="45.97438" lon="4.7568">
        <ele>170</ele>
        <time>2018-03-14T12:02:36Z</time>
      </trkpt>
      <trkpt lat="45.97433" lon="4.7568">
        <ele>170</ele>
        <time>2018-03-14T12:02:37Z</time>
      </trkpt>
      <trkpt lat="45.97424" lon="4.75681">
        <ele>170</ele>
        <time>2018-03-14T12:02:39Z</time>
      </trkpt>
      <trkpt lat="45.9742" lon="4.75681">
        <ele>170</ele>
        <time>2018-03-14T12:02:40Z</time>
      </trkpt>
      <trkpt lat="45.97415" lon="4.7568">
        <ele>171</ele>
        <time>2018-03-14T12:02:41Z</time>
      </trkpt>
      <trkpt lat="45.97409" lon="4.7568">
        <ele>171</ele>
        <time>2018-03-14T12:02:42Z</time>
      </trkpt>
      <trkpt lat="45.97405" lon="4.7568">
        <ele>172</ele>
        <time>2018-03-14T12:02:43Z</time>
      </trkpt>
      <trkpt lat="45.97399" lon="4.75682">
        <ele>172</ele>
        <time>2018-03-14T12:02:44Z</time>
      </trkpt>
      <trkpt lat="45.97395" lon="4.75682">
        <ele>172</ele>
        <time>2018-03-14T12:02:45Z</time>
      </trkpt>
      <trkpt lat="45.97389" lon="4.75681">
        <ele>173</ele>
        <time>2018-03-14T12:02:46Z</time>
      </trkpt>
      <trkpt lat="45.9738" lon="4.75681">
        <ele>173</ele>
        <time>2018-03-14T12:02:48Z</time>
      </trkpt>
      <trkpt lat="45.97376" lon="4.75681">
        <ele>174</ele>
        <time>2018-03-14T12:02:49Z</time>
      </trkpt>
      <trkpt lat="45.97368" lon="4.75683">
        <ele>174</ele>
        <time>2018-03-14T12:02:51Z</time>
      </trkpt>
      <trkpt lat="45.97364" lon="4.75683">
        <ele>174</ele>
        <time>2018-03-14T12:02:52Z</time>
      </trkpt>
      <trkpt lat="45.97359" lon="4.75684">
        <ele>174</ele>
        <time>2018-03-14T12:02:53Z</time>
      </trkpt>
      <trkpt lat="45.97354" lon="4.75682">
        <ele>175</ele>
        <time>2018-03-14T12:02:54Z</time>
      </trkpt>
      <trkpt lat="45.97349" lon="4.75682">
        <ele>175</ele>
        <time>2018-03-14T12:02:55Z</time>
      </trkpt>
      <trkpt lat="45.97343" lon="4.7568">
        <ele>175</ele>
        <time>2018-03-14T12:02:56Z</time>
      </trkpt>
      <trkpt lat="45.97339" lon="4.75679">
        <ele>175</ele>
        <time>2018-03-14T12:02:57Z</time>
      </trkpt>
      <trkpt lat="45.97334" lon="4.75679">
        <ele>175</ele>
        <time>2018-03-14T12:02:58Z</time>
      </trkpt>
      <trkpt lat="45.97329" lon="4.75679">
        <ele>176</ele>
        <time>2018-03-14T12:02:59Z</time>
      </trkpt>
      <trkpt lat="45.97325" lon="4.75677">
        <ele>176</ele>
        <time>2018-03-14T12:03:00Z</time>
      </trkpt>
      <trkpt lat="45.97319" lon="4.75676">
        <ele>176</ele>
        <time>2018-03-14T12:03:01Z</time>
      </trkpt>
      <trkpt lat="45.97314" lon="4.75676">
        <ele>176</ele>
        <time>2018-03-14T12:03:02Z</time>
      </trkpt>
      <trkpt lat="45.97309" lon="4.75676">
        <ele>176</ele>
        <time>2018-03-14T12:03:03Z</time>
      </trkpt>
      <trkpt lat="45.97304" lon="4.75675">
        <ele>176</ele>
        <time>2018-03-14T12:03:04Z</time>
      </trkpt>
      <trkpt lat="45.97299" lon="4.75674">
        <ele>176</ele>
        <time>2018-03-14T12:03:05Z</time>
      </trkpt>
      <trkpt lat="45.97294" lon="4.75673">
        <ele>176</ele>
        <time>2018-03-14T12:03:06Z</time>
      </trkpt>
      <trkpt lat="45.97289" lon="4.75671">
        <ele>176</ele>
        <time>2018-03-14T12:03:07Z</time>
      </trkpt>
      <trkpt lat="45.97282" lon="4.7567">
        <ele>176</ele>
        <time>2018-03-14T12:03:08Z</time>
      </trkpt>
      <trkpt lat="45.97277" lon="4.75669">
        <ele>176</ele>
        <time>2018-03-14T12:03:09Z</time>
      </trkpt>
      <trkpt lat="45.97272" lon="4.75667">
        <ele>176</ele>
        <time>2018-03-14T12:03:10Z</time>
      </trkpt>
      <trkpt lat="45.97267" lon="4.75666">
        <ele>173</ele>
        <time>2018-03-14T12:03:11Z</time>
      </trkpt>
      <trkpt lat="45.97262" lon="4.75665">
        <ele>173</ele>
        <time>2018-03-14T12:03:12Z</time>
      </trkpt>
      <trkpt lat="45.97257" lon="4.75663">
        <ele>173</ele>
        <time>2018-03-14T12:03:13Z</time>
      </trkpt>
      <trkpt lat="45.9725" lon="4.7566">
        <ele>173</ele>
        <time>2018-03-14T12:03:14Z</time>
      </trkpt>
      <trkpt lat="45.97245" lon="4.75658">
        <ele>173</ele>
        <time>2018-03-14T12:03:15Z</time>
      </trkpt>
      <trkpt lat="45.97239" lon="4.75655">
        <ele>173</ele>
        <time>2018-03-14T12:03:16Z</time>
      </trkpt>
      <trkpt lat="45.97234" lon="4.75654">
        <ele>173</ele>
        <time>2018-03-14T12:03:17Z</time>
      </trkpt>
      <trkpt lat="45.97229" lon="4.75654">
        <ele>173</ele>
        <time>2018-03-14T12:03:18Z</time>
      </trkpt>
      <trkpt lat="45.97224" lon="4.75653">
        <ele>173</ele>
        <time>2018-03-14T12:03:19Z</time>
      </trkpt>
      <trkpt lat="45.97219" lon="4.75652">
        <ele>173</ele>
        <time>2018-03-14T12:03:20Z</time>
      </trkpt>
      <trkpt lat="45.97214" lon="4.75651">
        <ele>173</ele>
        <time>2018-03-14T12:03:21Z</time>
      </trkpt>
      <trkpt lat="45.9721" lon="4.75649">
        <ele>173</ele>
        <time>2018-03-14T12:03:22Z</time>
      </trkpt>
      <trkpt lat="45.97201" lon="4.75646">
        <ele>173</ele>
        <time>2018-03-14T12:03:24Z</time>
      </trkpt>
      <trkpt lat="45.97197" lon="4.75645">
        <ele>174</ele>
        <time>2018-03-14T12:03:25Z</time>
      </trkpt>
      <trkpt lat="45.97192" lon="4.75643">
        <ele>174</ele>
        <time>2018-03-14T12:03:26Z</time>
      </trkpt>
      <trkpt lat="45.97187" lon="4.7564">
        <ele>174</ele>
        <time>2018-03-14T12:03:27Z</time>
      </trkpt>
      <trkpt lat="45.97182" lon="4.75638">
        <ele>174</ele>
        <time>2018-03-14T12:03:28Z</time>
      </trkpt>
      <trkpt lat="45.97178" lon="4.75636">
        <ele>174</ele>
        <time>2018-03-14T12:03:29Z</time>
      </trkpt>
      <trkpt lat="45.97174" lon="4.75634">
        <ele>174</ele>
        <time>2018-03-14T12:03:30Z</time>
      </trkpt>
      <trkpt lat="45.97169" lon="4.75632">
        <ele>174</ele>
        <time>2018-03-14T12:03:31Z</time>
      </trkpt>
      <trkpt lat="45.97165" lon="4.75631">
        <ele>176</ele>
        <time>2018-03-14T12:03:32Z</time>
      </trkpt>
      <trkpt lat="45.9716" lon="4.75629">
        <ele>176</ele>
        <time>2018-03-14T12:03:33Z</time>
      </trkpt>
      <trkpt lat="45.97152" lon="4.75627">
        <ele>176</ele>
        <time>2018-03-14T12:03:35Z</time>
      </trkpt>
      <trkpt lat="45.97147" lon="4.75624">
        <ele>176</ele>
        <time>2018-03-14T12:03:36Z</time>
      </trkpt>
      <trkpt lat="45.97142" lon="4.75621">
        <ele>176</ele>
        <time>2018-03-14T12:03:37Z</time>
      </trkpt>
      <trkpt lat="45.97137" lon="4.75618">
        <ele>176</ele>
        <time>2018-03-14T12:03:38Z</time>
      </trkpt>
      <trkpt lat="45.97133" lon="4.75616">
        <ele>176</ele>
        <time>2018-03-14T12:03:39Z</time>
      </trkpt>
      <trkpt lat="45.97129" lon="4.75613">
        <ele>176</ele>
        <time>2018-03-14T12:03:40Z</time>
      </trkpt>
      <trkpt lat="45.97121" lon="4.75608">
        <ele>176</ele>
        <time>2018-03-14T12:03:42Z</time>
      </trkpt>
      <trkpt lat="45.97117" lon="4.75605">
        <ele>176</ele>
        <time>2018-03-14T12:03:43Z</time>
      </trkpt>
      <trkpt lat="45.97112" lon="4.75604">
        <ele>176</ele>
        <time>2018-03-14T12:03:44Z</time>
      </trkpt>
      <trkpt lat="45.97108" lon="4.75602">
        <ele>176</ele>
        <time>2018-03-14T12:03:45Z</time>
      </trkpt>
      <trkpt lat="45.97102" lon="4.756">
        <ele>176</ele>
        <time>2018-03-14T12:03:46Z</time>
      </trkpt>
      <trkpt lat="45.97098" lon="4.75598">
        <ele>176</ele>
        <time>2018-03-14T12:03:47Z</time>
      </trkpt>
      <trkpt lat="45.97093" lon="4.75595">
        <ele>176</ele>
        <time>2018-03-14T12:03:48Z</time>
      </trkpt>
      <trkpt lat="45.97088" lon="4.75593">
        <ele>176</ele>
        <time>2018-03-14T12:03:49Z</time>
      </trkpt>
      <trkpt lat="45.97084" lon="4.75591">
        <ele>176</ele>
        <time>2018-03-14T12:03:50Z</time>
      </trkpt>
      <trkpt lat="45.97079" lon="4.7559">
        <ele>177</ele>
        <time>2018-03-14T12:03:51Z</time>
      </trkpt>
      <trkpt lat="45.97074" lon="4.75587">
        <ele>178</ele>
        <time>2018-03-14T12:03:52Z</time>
      </trkpt>
      <trkpt lat="45.97069" lon="4.75586">
        <ele>178</ele>
        <time>2018-03-14T12:03:53Z</time>
      </trkpt>
      <trkpt lat="45.97064" lon="4.75583">
        <ele>174</ele>
        <time>2018-03-14T12:03:54Z</time>
      </trkpt>
      <trkpt lat="45.97059" lon="4.75581">
        <ele>174</ele>
        <time>2018-03-14T12:03:55Z</time>
      </trkpt>
      <trkpt lat="45.97054" lon="4.75579">
        <ele>174</ele>
        <time>2018-03-14T12:03:56Z</time>
      </trkpt>
      <trkpt lat="45.97049" lon="4.75577">
        <ele>174</ele>
        <time>2018-03-14T12:03:57Z</time>
      </trkpt>
      <trkpt lat="45.97045" lon="4.75575">
        <ele>174</ele>
        <time>2018-03-14T12:03:58Z</time>
      </trkpt>
      <trkpt lat="45.97041" lon="4.75573">
        <ele>174</ele>
        <time>2018-03-14T12:03:59Z</time>
      </trkpt>
      <trkpt lat="45.97036" lon="4.7557">
        <ele>174</ele>
        <time>2018-03-14T12:04:00Z</time>
      </trkpt>
      <trkpt lat="45.97032" lon="4.75567">
        <ele>174</ele>
        <time>2018-03-14T12:04:01Z</time>
      </trkpt>
      <trkpt lat="45.97027" lon="4.75565">
        <ele>174</ele>
        <time>2018-03-14T12:04:02Z</time>
      </trkpt>
      <trkpt lat="45.97021" lon="4.75562">
        <ele>174</ele>
        <time>2018-03-14T12:04:03Z</time>
      </trkpt>
      <trkpt lat="45.97017" lon="4.75561">
        <ele>174</ele>
        <time>2018-03-14T12:04:04Z</time>
      </trkpt>
      <trkpt lat="45.97011" lon="4.75559">
        <ele>174</ele>
        <time>2018-03-14T12:04:05Z</time>
      </trkpt>
      <trkpt lat="45.97006" lon="4.75556">
        <ele>174</ele>
        <time>2018-03-14T12:04:06Z</time>
      </trkpt>
      <trkpt lat="45.97001" lon="4.75555">
        <ele>174</ele>
        <time>2018-03-14T12:04:07Z</time>
      </trkpt>
      <trkpt lat="45.96996" lon="4.75553">
        <ele>176</ele>
        <time>2018-03-14T12:04:08Z</time>
      </trkpt>
      <trkpt lat="45.96991" lon="4.7555">
        <ele>175</ele>
        <time>2018-03-14T12:04:09Z</time>
      </trkpt>
      <trkpt lat="45.96986" lon="4.75549">
        <ele>175</ele>
        <time>2018-03-14T12:04:10Z</time>
      </trkpt>
      <trkpt lat="45.96981" lon="4.75547">
        <ele>175</ele>
        <time>2018-03-14T12:04:11Z</time>
      </trkpt>
      <trkpt lat="45.96975" lon="4.75545">
        <ele>175</ele>
        <time>2018-03-14T12:04:12Z</time>
      </trkpt>
      <trkpt lat="45.9697" lon="4.75543">
        <ele>175</ele>
        <time>2018-03-14T12:04:13Z</time>
      </trkpt>
      <trkpt lat="45.96965" lon="4.75539">
        <ele>175</ele>
        <time>2018-03-14T12:04:14Z</time>
      </trkpt>
      <trkpt lat="45.96961" lon="4.75537">
        <ele>175</ele>
        <time>2018-03-14T12:04:15Z</time>
      </trkpt>
      <trkpt lat="45.96952" lon="4.75535">
        <ele>175</ele>
        <time>2018-03-14T12:04:17Z</time>
      </trkpt>
      <trkpt lat="45.96948" lon="4.75533">
        <ele>175</ele>
        <time>2018-03-14T12:04:18Z</time>
      </trkpt>
      <trkpt lat="45.96944" lon="4.75531">
        <ele>175</ele>
        <time>2018-03-14T12:04:19Z</time>
      </trkpt>
      <trkpt lat="45.96939" lon="4.75529">
        <ele>175</ele>
        <time>2018-03-14T12:04:20Z</time>
      </trkpt>
      <trkpt lat="45.96934" lon="4.75528">
        <ele>175</ele>
        <time>2018-03-14T12:04:21Z</time>
      </trkpt>
      <trkpt lat="45.9693" lon="4.75525">
        <ele>175</ele>
        <time>2018-03-14T12:04:22Z</time>
      </trkpt>
      <trkpt lat="45.96925" lon="4.75524">
        <ele>174</ele>
        <time>2018-03-14T12:04:23Z</time>
      </trkpt>
      <trkpt lat="45.9692" lon="4.75522">
        <ele>174</ele>
        <time>2018-03-14T12:04:24Z</time>
      </trkpt>
      <trkpt lat="45.96915" lon="4.7552">
        <ele>177</ele>
        <time>2018-03-14T12:04:25Z</time>
      </trkpt>
      <trkpt lat="45.96909" lon="4.75517">
        <ele>177</ele>
        <time>2018-03-14T12:04:26Z</time>
      </trkpt>
      <trkpt lat="45.96904" lon="4.75515">
        <ele>177</ele>
        <time>2018-03-14T12:04:27Z</time>
      </trkpt>
      <trkpt lat="45.96899" lon="4.75513">
        <ele>177</ele>
        <time>2018-03-14T12:04:28Z</time>
      </trkpt>
      <trkpt lat="45.96894" lon="4.75512">
        <ele>178</ele>
        <time>2018-03-14T12:04:29Z</time>
      </trkpt>
      <trkpt lat="45.96889" lon="4.7551">
        <ele>178</ele>
        <time>2018-03-14T12:04:30Z</time>
      </trkpt>
      <trkpt lat="45.96881" lon="4.75507">
        <ele>178</ele>
        <time>2018-03-14T12:04:32Z</time>
      </trkpt>
      <trkpt lat="45.96877" lon="4.75506">
        <ele>178</ele>
        <time>2018-03-14T12:04:33Z</time>
      </trkpt>
      <trkpt lat="45.96869" lon="4.75505">
        <ele>179</ele>
        <time>2018-03-14T12:04:35Z</time>
      </trkpt>
      <trkpt lat="45.96865" lon="4.75504">
        <ele>178</ele>
        <time>2018-03-14T12:04:36Z</time>
      </trkpt>
      <trkpt lat="45.96859" lon="4.75501">
        <ele>178</ele>
        <time>2018-03-14T12:04:39Z</time>
      </trkpt>
      <trkpt lat="45.96855" lon="4.755">
        <ele>178</ele>
        <time>2018-03-14T12:04:40Z</time>
      </trkpt>
      <trkpt lat="45.96853" lon="4.755">
        <ele>172</ele>
        <time>2018-03-14T12:04:41Z</time>
      </trkpt>
      <trkpt lat="45.96845" lon="4.75497">
        <ele>172</ele>
        <time>2018-03-14T12:04:42Z</time>
      </trkpt>
      <trkpt lat="45.96837" lon="4.75493">
        <ele>173</ele>
        <time>2018-03-14T12:04:44Z</time>
      </trkpt>
      <trkpt lat="45.96833" lon="4.75492">
        <ele>174</ele>
        <time>2018-03-14T12:04:45Z</time>
      </trkpt>
      <trkpt lat="45.96825" lon="4.75489">
        <ele>174</ele>
        <time>2018-03-14T12:04:47Z</time>
      </trkpt>
      <trkpt lat="45.9682" lon="4.75487">
        <ele>174</ele>
        <time>2018-03-14T12:04:48Z</time>
      </trkpt>
      <trkpt lat="45.96811" lon="4.75484">
        <ele>174</ele>
        <time>2018-03-14T12:04:50Z</time>
      </trkpt>
      <trkpt lat="45.96807" lon="4.75485">
        <ele>174</ele>
        <time>2018-03-14T12:04:51Z</time>
      </trkpt>
      <trkpt lat="45.96802" lon="4.75483">
        <ele>174</ele>
        <time>2018-03-14T12:04:52Z</time>
      </trkpt>
      <trkpt lat="45.96797" lon="4.7548">
        <ele>174</ele>
        <time>2018-03-14T12:04:53Z</time>
      </trkpt>
      <trkpt lat="45.96792" lon="4.75479">
        <ele>174</ele>
        <time>2018-03-14T12:04:54Z</time>
      </trkpt>
      <trkpt lat="45.96788" lon="4.75476">
        <ele>175</ele>
        <time>2018-03-14T12:04:55Z</time>
      </trkpt>
      <trkpt lat="45.96783" lon="4.75474">
        <ele>175</ele>
        <time>2018-03-14T12:04:56Z</time>
      </trkpt>
      <trkpt lat="45.96778" lon="4.7547">
        <ele>175</ele>
        <time>2018-03-14T12:04:57Z</time>
      </trkpt>
      <trkpt lat="45.96773" lon="4.75468">
        <ele>175</ele>
        <time>2018-03-14T12:04:58Z</time>
      </trkpt>
      <trkpt lat="45.96768" lon="4.75466">
        <ele>175</ele>
        <time>2018-03-14T12:04:59Z</time>
      </trkpt>
      <trkpt lat="45.96764" lon="4.75464">
        <ele>175</ele>
        <time>2018-03-14T12:05:00Z</time>
      </trkpt>
      <trkpt lat="45.96759" lon="4.75462">
        <ele>174</ele>
        <time>2018-03-14T12:05:01Z</time>
      </trkpt>
      <trkpt lat="45.96755" lon="4.75458">
        <ele>174</ele>
        <time>2018-03-14T12:05:02Z</time>
      </trkpt>
      <trkpt lat="45.9675" lon="4.75456">
        <ele>174</ele>
        <time>2018-03-14T12:05:03Z</time>
      </trkpt>
      <trkpt lat="45.96746" lon="4.75453">
        <ele>179</ele>
        <time>2018-03-14T12:05:04Z</time>
      </trkpt>
      <trkpt lat="45.96741" lon="4.75451">
        <ele>179</ele>
        <time>2018-03-14T12:05:05Z</time>
      </trkpt>
      <trkpt lat="45.96737" lon="4.75449">
        <ele>179</ele>
        <time>2018-03-14T12:05:06Z</time>
      </trkpt>
      <trkpt lat="45.96732" lon="4.75445">
        <ele>178</ele>
        <time>2018-03-14T12:05:07Z</time>
      </trkpt>
      <trkpt lat="45.96727" lon="4.75442">
        <ele>178</ele>
        <time>2018-03-14T12:05:08Z</time>
      </trkpt>
      <trkpt lat="45.96722" lon="4.7544">
        <ele>179</ele>
        <time>2018-03-14T12:05:09Z</time>
      </trkpt>
      <trkpt lat="45.96717" lon="4.75437">
        <ele>179</ele>
        <time>2018-03-14T12:05:10Z</time>
      </trkpt>
      <trkpt lat="45.96713" lon="4.75435">
        <ele>179</ele>
        <time>2018-03-14T12:05:11Z</time>
      </trkpt>
      <trkpt lat="45.96705" lon="4.75428">
        <ele>179</ele>
        <time>2018-03-14T12:05:13Z</time>
      </trkpt>
      <trkpt lat="45.96701" lon="4.75426">
        <ele>179</ele>
        <time>2018-03-14T12:05:14Z</time>
      </trkpt>
      <trkpt lat="45.96696" lon="4.75424">
        <ele>179</ele>
        <time>2018-03-14T12:05:15Z</time>
      </trkpt>
      <trkpt lat="45.96692" lon="4.75421">
        <ele>179</ele>
        <time>2018-03-14T12:05:16Z</time>
      </trkpt>
      <trkpt lat="45.96684" lon="4.75415">
        <ele>172</ele>
        <time>2018-03-14T12:05:19Z</time>
      </trkpt>
      <trkpt lat="45.96677" lon="4.75413">
        <ele>173</ele>
        <time>2018-03-14T12:05:20Z</time>
      </trkpt>
      <trkpt lat="45.96669" lon="4.75408">
        <ele>174</ele>
        <time>2018-03-14T12:05:22Z</time>
      </trkpt>
      <trkpt lat="45.96664" lon="4.75406">
        <ele>177</ele>
        <time>2018-03-14T12:05:23Z</time>
      </trkpt>
      <trkpt lat="45.96656" lon="4.75401">
        <ele>178</ele>
        <time>2018-03-14T12:05:25Z</time>
      </trkpt>
      <trkpt lat="45.96655" lon="4.754">
        <ele>178</ele>
        <time>2018-03-14T12:05:26Z</time>
      </trkpt>
      <trkpt lat="45.96648" lon="4.75397">
        <ele>179</ele>
        <time>2018-03-14T12:05:27Z</time>
      </trkpt>
      <trkpt lat="45.96644" lon="4.75395">
        <ele>179</ele>
        <time>2018-03-14T12:05:28Z</time>
      </trkpt>
      <trkpt lat="45.96639" lon="4.75391">
        <ele>179</ele>
        <time>2018-03-14T12:05:29Z</time>
      </trkpt>
      <trkpt lat="45.96634" lon="4.75388">
        <ele>179</ele>
        <time>2018-03-14T12:05:30Z</time>
      </trkpt>
      <trkpt lat="45.96627" lon="4.75384">
        <ele>180</ele>
        <time>2018-03-14T12:05:32Z</time>
      </trkpt>
      <trkpt lat="45.96624" lon="4.75383">
        <ele>180</ele>
        <time>2018-03-14T12:05:33Z</time>
      </trkpt>
      <trkpt lat="45.96617" lon="4.75381">
        <ele>181</ele>
        <time>2018-03-14T12:05:34Z</time>
      </trkpt>
      <trkpt lat="45.96614" lon="4.7538">
        <ele>181</ele>
        <time>2018-03-14T12:05:35Z</time>
      </trkpt>
      <trkpt lat="45.96606" lon="4.75376">
        <ele>181</ele>
        <time>2018-03-14T12:05:37Z</time>
      </trkpt>
      <trkpt lat="45.96603" lon="4.75373">
        <ele>181</ele>
        <time>2018-03-14T12:05:38Z</time>
      </trkpt>
      <trkpt lat="45.96595" lon="4.75368">
        <ele>181</ele>
        <time>2018-03-14T12:05:40Z</time>
      </trkpt>
      <trkpt lat="45.96594" lon="4.75367">
        <ele>180</ele>
        <time>2018-03-14T12:05:41Z</time>
      </trkpt>
      <trkpt lat="45.96587" lon="4.75364">
        <ele>180</ele>
        <time>2018-03-14T12:05:42Z</time>
      </trkpt>
      <trkpt lat="45.96582" lon="4.75361">
        <ele>188</ele>
        <time>2018-03-14T12:05:43Z</time>
      </trkpt>
      <trkpt lat="45.96578" lon="4.75358">
        <ele>188</ele>
        <time>2018-03-14T12:05:44Z</time>
      </trkpt>
      <trkpt lat="45.96573" lon="4.75356">
        <ele>187</ele>
        <time>2018-03-14T12:05:45Z</time>
      </trkpt>
      <trkpt lat="45.96566" lon="4.75351">
        <ele>187</ele>
        <time>2018-03-14T12:05:47Z</time>
      </trkpt>
      <trkpt lat="45.96562" lon="4.75349">
        <ele>188</ele>
        <time>2018-03-14T12:05:48Z</time>
      </trkpt>
      <trkpt lat="45.96553" lon="4.75343">
        <ele>188</ele>
        <time>2018-03-14T12:05:50Z</time>
      </trkpt>
      <trkpt lat="45.96549" lon="4.75341">
        <ele>189</ele>
        <time>2018-03-14T12:05:51Z</time>
      </trkpt>
      <trkpt lat="45.96542" lon="4.75336">
        <ele>189</ele>
        <time>2018-03-14T12:05:53Z</time>
      </trkpt>
      <trkpt lat="45.96538" lon="4.75334">
        <ele>190</ele>
        <time>2018-03-14T12:05:54Z</time>
      </trkpt>
      <trkpt lat="45.96533" lon="4.75331">
        <ele>178</ele>
        <time>2018-03-14T12:05:56Z</time>
      </trkpt>
      <trkpt lat="45.96527" lon="4.75328">
        <ele>179</ele>
        <time>2018-03-14T12:05:57Z</time>
      </trkpt>
      <trkpt lat="45.9652" lon="4.75324">
        <ele>180</ele>
        <time>2018-03-14T12:05:59Z</time>
      </trkpt>
      <trkpt lat="45.96517" lon="4.75322">
        <ele>180</ele>
        <time>2018-03-14T12:06:00Z</time>
      </trkpt>
      <trkpt lat="45.96509" lon="4.75318">
        <ele>181</ele>
        <time>2018-03-14T12:06:02Z</time>
      </trkpt>
      <trkpt lat="45.96504" lon="4.75315">
        <ele>181</ele>
        <time>2018-03-14T12:06:03Z</time>
      </trkpt>
      <trkpt lat="45.965" lon="4.75312">
        <ele>180</ele>
        <time>2018-03-14T12:06:04Z</time>
      </trkpt>
      <trkpt lat="45.96496" lon="4.7531">
        <ele>186</ele>
        <time>2018-03-14T12:06:05Z</time>
      </trkpt>
      <trkpt lat="45.96488" lon="4.75305">
        <ele>186</ele>
        <time>2018-03-14T12:06:07Z</time>
      </trkpt>
      <trkpt lat="45.96484" lon="4.75302">
        <ele>186</ele>
        <time>2018-03-14T12:06:08Z</time>
      </trkpt>
      <trkpt lat="45.96477" lon="4.75295">
        <ele>185</ele>
        <time>2018-03-14T12:06:10Z</time>
      </trkpt>
      <trkpt lat="45.96472" lon="4.75292">
        <ele>185</ele>
        <time>2018-03-14T12:06:11Z</time>
      </trkpt>
      <trkpt lat="45.96464" lon="4.75287">
        <ele>185</ele>
        <time>2018-03-14T12:06:13Z</time>
      </trkpt>
      <trkpt lat="45.9646" lon="4.75284">
        <ele>185</ele>
        <time>2018-03-14T12:06:14Z</time>
      </trkpt>
      <trkpt lat="45.96452" lon="4.75281">
        <ele>185</ele>
        <time>2018-03-14T12:06:16Z</time>
      </trkpt>
      <trkpt lat="45.96451" lon="4.7528">
        <ele>186</ele>
        <time>2018-03-14T12:06:17Z</time>
      </trkpt>
      <trkpt lat="45.96448" lon="4.75279">
        <ele>186</ele>
        <time>2018-03-14T12:06:18Z</time>
      </trkpt>
      <trkpt lat="45.96441" lon="4.75274">
        <ele>185</ele>
        <time>2018-03-14T12:06:19Z</time>
      </trkpt>
      <trkpt lat="45.96437" lon="4.75272">
        <ele>185</ele>
        <time>2018-03-14T12:06:20Z</time>
      </trkpt>
      <trkpt lat="45.96433" lon="4.75269">
        <ele>185</ele>
        <time>2018-03-14T12:06:21Z</time>
      </trkpt>
      <trkpt lat="45.96428" lon="4.75265">
        <ele>184</ele>
        <time>2018-03-14T12:06:22Z</time>
      </trkpt>
      <trkpt lat="45.96424" lon="4.75262">
        <ele>184</ele>
        <time>2018-03-14T12:06:23Z</time>
      </trkpt>
      <trkpt lat="45.96416" lon="4.75261">
        <ele>187</ele>
        <time>2018-03-14T12:06:25Z</time>
      </trkpt>
      <trkpt lat="45.96413" lon="4.75259">
        <ele>187</ele>
        <time>2018-03-14T12:06:26Z</time>
      </trkpt>
      <trkpt lat="45.96406" lon="4.75255">
        <ele>188</ele>
        <time>2018-03-14T12:06:28Z</time>
      </trkpt>
      <trkpt lat="45.96402" lon="4.75253">
        <ele>188</ele>
        <time>2018-03-14T12:06:29Z</time>
      </trkpt>
      <trkpt lat="45.96398" lon="4.75251">
        <ele>189</ele>
        <time>2018-03-14T12:06:31Z</time>
      </trkpt>
      <trkpt lat="45.96392" lon="4.75249">
        <ele>180</ele>
        <time>2018-03-14T12:06:32Z</time>
      </trkpt>
      <trkpt lat="45.96385" lon="4.75245">
        <ele>180</ele>
        <time>2018-03-14T12:06:35Z</time>
      </trkpt>
      <trkpt lat="45.96379" lon="4.75243">
        <ele>180</ele>
        <time>2018-03-14T12:06:36Z</time>
      </trkpt>
      <trkpt lat="45.96375" lon="4.75241">
        <ele>180</ele>
        <time>2018-03-14T12:06:38Z</time>
      </trkpt>
      <trkpt lat="45.9637" lon="4.75238">
        <ele>180</ele>
        <time>2018-03-14T12:06:39Z</time>
      </trkpt>
      <trkpt lat="45.96362" lon="4.75234">
        <ele>180</ele>
        <time>2018-03-14T12:06:43Z</time>
      </trkpt>
      <trkpt lat="45.96359" lon="4.75233">
        <ele>181</ele>
        <time>2018-03-14T12:06:44Z</time>
      </trkpt>
      <trkpt lat="45.96351" lon="4.75229">
        <ele>181</ele>
        <time>2018-03-14T12:06:45Z</time>
      </trkpt>
      <trkpt lat="45.96348" lon="4.75229">
        <ele>181</ele>
        <time>2018-03-14T12:06:46Z</time>
      </trkpt>
      <trkpt lat="45.9634" lon="4.75228">
        <ele>182</ele>
        <time>2018-03-14T12:06:48Z</time>
      </trkpt>
      <trkpt lat="45.96336" lon="4.75228">
        <ele>182</ele>
        <time>2018-03-14T12:06:49Z</time>
      </trkpt>
      <trkpt lat="45.96329" lon="4.75225">
        <ele>185</ele>
        <time>2018-03-14T12:06:51Z</time>
      </trkpt>
      <trkpt lat="45.96327" lon="4.75225">
        <ele>185</ele>
        <time>2018-03-14T12:06:52Z</time>
      </trkpt>
      <trkpt lat="45.96318" lon="4.75222">
        <ele>185</ele>
        <time>2018-03-14T12:06:54Z</time>
      </trkpt>
      <trkpt lat="45.96315" lon="4.75221">
        <ele>185</ele>
        <time>2018-03-14T12:06:55Z</time>
      </trkpt>
      <trkpt lat="45.96307" lon="4.75218">
        <ele>185</ele>
        <time>2018-03-14T12:06:57Z</time>
      </trkpt>
      <trkpt lat="45.96305" lon="4.75217">
        <ele>185</ele>
        <time>2018-03-14T12:06:58Z</time>
      </trkpt>
      <trkpt lat="45.96297" lon="4.75212">
        <ele>185</ele>
        <time>2018-03-14T12:07:00Z</time>
      </trkpt>
      <trkpt lat="45.96293" lon="4.7521">
        <ele>185</ele>
        <time>2018-03-14T12:07:01Z</time>
      </trkpt>
      <trkpt lat="45.96285" lon="4.75209">
        <ele>185</ele>
        <time>2018-03-14T12:07:03Z</time>
      </trkpt>
      <trkpt lat="45.96279" lon="4.75206">
        <ele>185</ele>
        <time>2018-03-14T12:07:04Z</time>
      </trkpt>
      <trkpt lat="45.96271" lon="4.75202">
        <ele>185</ele>
        <time>2018-03-14T12:07:06Z</time>
      </trkpt>
      <trkpt lat="45.96268" lon="4.75201">
        <ele>185</ele>
        <time>2018-03-14T12:07:07Z</time>
      </trkpt>
      <trkpt lat="45.96261" lon="4.75198">
        <ele>185</ele>
        <time>2018-03-14T12:07:09Z</time>
      </trkpt>
      <trkpt lat="45.96257" lon="4.75196">
        <ele>185</ele>
        <time>2018-03-14T12:07:10Z</time>
      </trkpt>
      <trkpt lat="45.96253" lon="4.75194">
        <ele>185</ele>
        <time>2018-03-14T12:07:12Z</time>
      </trkpt>
      <trkpt lat="45.96246" lon="4.7519">
        <ele>190</ele>
        <time>2018-03-14T12:07:13Z</time>
      </trkpt>
      <trkpt lat="45.96239" lon="4.75185">
        <ele>190</ele>
        <time>2018-03-14T12:07:15Z</time>
      </trkpt>
      <trkpt lat="45.96235" lon="4.75184">
        <ele>190</ele>
        <time>2018-03-14T12:07:16Z</time>
      </trkpt>
      <trkpt lat="45.96227" lon="4.7518">
        <ele>191</ele>
        <time>2018-03-14T12:07:21Z</time>
      </trkpt>
      <trkpt lat="45.96224" lon="4.75179">
        <ele>191</ele>
        <time>2018-03-14T12:07:22Z</time>
      </trkpt>
      <trkpt lat="45.96216" lon="4.75174">
        <ele>192</ele>
        <time>2018-03-14T12:07:23Z</time>
      </trkpt>
      <trkpt lat="45.96208" lon="4.7517">
        <ele>193</ele>
        <time>2018-03-14T12:07:25Z</time>
      </trkpt>
      <trkpt lat="45.96205" lon="4.75167">
        <ele>194</ele>
        <time>2018-03-14T12:07:26Z</time>
      </trkpt>
      <trkpt lat="45.96199" lon="4.75161">
        <ele>186</ele>
        <time>2018-03-14T12:07:28Z</time>
      </trkpt>
      <trkpt lat="45.96197" lon="4.7516">
        <ele>186</ele>
        <time>2018-03-14T12:07:29Z</time>
      </trkpt>
      <trkpt lat="45.96193" lon="4.75156">
        <ele>186</ele>
        <time>2018-03-14T12:07:31Z</time>
      </trkpt>
      <trkpt lat="45.96187" lon="4.75151">
        <ele>187</ele>
        <time>2018-03-14T12:07:32Z</time>
      </trkpt>
      <trkpt lat="45.96181" lon="4.75145">
        <ele>186</ele>
        <time>2018-03-14T12:07:34Z</time>
      </trkpt>
      <trkpt lat="45.9618" lon="4.75143">
        <ele>186</ele>
        <time>2018-03-14T12:07:35Z</time>
      </trkpt>
      <trkpt lat="45.96173" lon="4.75137">
        <ele>186</ele>
        <time>2018-03-14T12:07:38Z</time>
      </trkpt>
      <trkpt lat="45.96171" lon="4.75135">
        <ele>185</ele>
        <time>2018-03-14T12:07:39Z</time>
      </trkpt>
      <trkpt lat="45.96165" lon="4.7513">
        <ele>190</ele>
        <time>2018-03-14T12:07:41Z</time>
      </trkpt>
      <trkpt lat="45.96163" lon="4.75127">
        <ele>190</ele>
        <time>2018-03-14T12:07:42Z</time>
      </trkpt>
      <trkpt lat="45.96157" lon="4.75121">
        <ele>189</ele>
        <time>2018-03-14T12:07:44Z</time>
      </trkpt>
      <trkpt lat="45.96154" lon="4.75118">
        <ele>189</ele>
        <time>2018-03-14T12:07:45Z</time>
      </trkpt>
      <trkpt lat="45.96148" lon="4.75112">
        <ele>188</ele>
        <time>2018-03-14T12:07:47Z</time>
      </trkpt>
      <trkpt lat="45.96145" lon="4.75109">
        <ele>188</ele>
        <time>2018-03-14T12:07:48Z</time>
      </trkpt>
      <trkpt lat="45.9614" lon="4.75103">
        <ele>188</ele>
        <time>2018-03-14T12:07:50Z</time>
      </trkpt>
      <trkpt lat="45.96137" lon="4.751">
        <ele>188</ele>
        <time>2018-03-14T12:07:51Z</time>
      </trkpt>
      <trkpt lat="45.96131" lon="4.75094">
        <ele>188</ele>
        <time>2018-03-14T12:07:53Z</time>
      </trkpt>
      <trkpt lat="45.96128" lon="4.75091">
        <ele>188</ele>
        <time>2018-03-14T12:07:54Z</time>
      </trkpt>
      <trkpt lat="45.96123" lon="4.75085">
        <ele>189</ele>
        <time>2018-03-14T12:07:56Z</time>
      </trkpt>
      <trkpt lat="45.9612" lon="4.75082">
        <ele>183</ele>
        <time>2018-03-14T12:07:57Z</time>
      </trkpt>
      <trkpt lat="45.96114" lon="4.75076">
        <ele>183</ele>
        <time>2018-03-14T12:07:59Z</time>
      </trkpt>
      <trkpt lat="45.96105" lon="4.75067">
        <ele>184</ele>
        <time>2018-03-14T12:08:00Z</time>
      </trkpt>
      <trkpt lat="45.96099" lon="4.75062">
        <ele>184</ele>
        <time>2018-03-14T12:08:02Z</time>
      </trkpt>
      <trkpt lat="45.96097" lon="4.75061">
        <ele>184</ele>
        <time>2018-03-14T12:08:03Z</time>
      </trkpt>
      <trkpt lat="45.96089" lon="4.75055">
        <ele>184</ele>
        <time>2018-03-14T12:08:05Z</time>
      </trkpt>
      <trkpt lat="45.96086" lon="4.75052">
        <ele>184</ele>
        <time>2018-03-14T12:08:06Z</time>
      </trkpt>
      <trkpt lat="45.96079" lon="4.75048">
        <ele>188</ele>
        <time>2018-03-14T12:08:08Z</time>
      </trkpt>
      <trkpt lat="45.96077" lon="4.75047">
        <ele>188</ele>
        <time>2018-03-14T12:08:09Z</time>
      </trkpt>
      <trkpt lat="45.96072" lon="4.75045">
        <ele>188</ele>
        <time>2018-03-14T12:08:10Z</time>
      </trkpt>
      <trkpt lat="45.96069" lon="4.75044">
        <ele>188</ele>
        <time>2018-03-14T12:08:11Z</time>
      </trkpt>
      <trkpt lat="45.96061" lon="4.75044">
        <ele>188</ele>
        <time>2018-03-14T12:08:13Z</time>
      </trkpt>
      <trkpt lat="45.96057" lon="4.75043">
        <ele>188</ele>
        <time>2018-03-14T12:08:14Z</time>
      </trkpt>
      <trkpt lat="45.9605" lon="4.75043">
        <ele>188</ele>
        <time>2018-03-14T12:08:16Z</time>
      </trkpt>
      <trkpt lat="45.96046" lon="4.75044">
        <ele>188</ele>
        <time>2018-03-14T12:08:17Z</time>
      </trkpt>
      <trkpt lat="45.96038" lon="4.75044">
        <ele>189</ele>
        <time>2018-03-14T12:08:19Z</time>
      </trkpt>
      <trkpt lat="45.96033" lon="4.75045">
        <ele>189</ele>
        <time>2018-03-14T12:08:20Z</time>
      </trkpt>
      <trkpt lat="45.96025" lon="4.75048">
        <ele>189</ele>
        <time>2018-03-14T12:08:22Z</time>
      </trkpt>
      <trkpt lat="45.96023" lon="4.75048">
        <ele>189</ele>
        <time>2018-03-14T12:08:23Z</time>
      </trkpt>
      <trkpt lat="45.96016" lon="4.75052">
        <ele>190</ele>
        <time>2018-03-14T12:08:25Z</time>
      </trkpt>
      <trkpt lat="45.96014" lon="4.75053">
        <ele>190</ele>
        <time>2018-03-14T12:08:26Z</time>
      </trkpt>
      <trkpt lat="45.96006" lon="4.75056">
        <ele>191</ele>
        <time>2018-03-14T12:08:28Z</time>
      </trkpt>
      <trkpt lat="45.96001" lon="4.75058">
        <ele>191</ele>
        <time>2018-03-14T12:08:29Z</time>
      </trkpt>
      <trkpt lat="45.95996" lon="4.7506">
        <ele>192</ele>
        <time>2018-03-14T12:08:31Z</time>
      </trkpt>
      <trkpt lat="45.95991" lon="4.75062">
        <ele>192</ele>
        <time>2018-03-14T12:08:32Z</time>
      </trkpt>
      <trkpt lat="45.95987" lon="4.75063">
        <ele>191</ele>
        <time>2018-03-14T12:08:34Z</time>
      </trkpt>
      <trkpt lat="45.9598" lon="4.75064">
        <ele>191</ele>
        <time>2018-03-14T12:08:35Z</time>
      </trkpt>
      <trkpt lat="45.95975" lon="4.75065">
        <ele>191</ele>
        <time>2018-03-14T12:08:37Z</time>
      </trkpt>
      <trkpt lat="45.95968" lon="4.75067">
        <ele>191</ele>
        <time>2018-03-14T12:08:38Z</time>
      </trkpt>
      <trkpt lat="45.9596" lon="4.75071">
        <ele>190</ele>
        <time>2018-03-14T12:08:41Z</time>
      </trkpt>
      <trkpt lat="45.95957" lon="4.75073">
        <ele>190</ele>
        <time>2018-03-14T12:08:42Z</time>
      </trkpt>
      <trkpt lat="45.9595" lon="4.75077">
        <ele>190</ele>
        <time>2018-03-14T12:08:43Z</time>
      </trkpt>
      <trkpt lat="45.95948" lon="4.75078">
        <ele>190</ele>
        <time>2018-03-14T12:08:44Z</time>
      </trkpt>
      <trkpt lat="45.95941" lon="4.7508">
        <ele>190</ele>
        <time>2018-03-14T12:08:47Z</time>
      </trkpt>
      <trkpt lat="45.95938" lon="4.75082">
        <ele>190</ele>
        <time>2018-03-14T12:08:48Z</time>
      </trkpt>
      <trkpt lat="45.95932" lon="4.75085">
        <ele>192</ele>
        <time>2018-03-14T12:08:50Z</time>
      </trkpt>
      <trkpt lat="45.95929" lon="4.75087">
        <ele>191</ele>
        <time>2018-03-14T12:08:51Z</time>
      </trkpt>
      <trkpt lat="45.95923" lon="4.7509">
        <ele>191</ele>
        <time>2018-03-14T12:08:53Z</time>
      </trkpt>
      <trkpt lat="45.9592" lon="4.75092">
        <ele>191</ele>
        <time>2018-03-14T12:08:54Z</time>
      </trkpt>
      <trkpt lat="45.95914" lon="4.75096">
        <ele>190</ele>
        <time>2018-03-14T12:08:56Z</time>
      </trkpt>
      <trkpt lat="45.95911" lon="4.75097">
        <ele>190</ele>
        <time>2018-03-14T12:08:57Z</time>
      </trkpt>
      <trkpt lat="45.95904" lon="4.75101">
        <ele>190</ele>
        <time>2018-03-14T12:08:59Z</time>
      </trkpt>
      <trkpt lat="45.95901" lon="4.75102">
        <ele>190</ele>
        <time>2018-03-14T12:09:00Z</time>
      </trkpt>
      <trkpt lat="45.95896" lon="4.75105">
        <ele>191</ele>
        <time>2018-03-14T12:09:02Z</time>
      </trkpt>
      <trkpt lat="45.95893" lon="4.75107">
        <ele>191</ele>
        <time>2018-03-14T12:09:03Z</time>
      </trkpt>
      <trkpt lat="45.95887" lon="4.75111">
        <ele>191</ele>
        <time>2018-03-14T12:09:05Z</time>
      </trkpt>
      <trkpt lat="45.95885" lon="4.75113">
        <ele>191</ele>
        <time>2018-03-14T12:09:06Z</time>
      </trkpt>
      <trkpt lat="45.95879" lon="4.75118">
        <ele>191</ele>
        <time>2018-03-14T12:09:08Z</time>
      </trkpt>
      <trkpt lat="45.95876" lon="4.75121">
        <ele>191</ele>
        <time>2018-03-14T12:09:09Z</time>
      </trkpt>
      <trkpt lat="45.9587" lon="4.75126">
        <ele>191</ele>
        <time>2018-03-14T12:09:11Z</time>
      </trkpt>
      <trkpt lat="45.95867" lon="4.75129">
        <ele>191</ele>
        <time>2018-03-14T12:09:12Z</time>
      </trkpt>
      <trkpt lat="45.95862" lon="4.75136">
        <ele>191</ele>
        <time>2018-03-14T12:09:14Z</time>
      </trkpt>
      <trkpt lat="45.95859" lon="4.75139">
        <ele>191</ele>
        <time>2018-03-14T12:09:15Z</time>
      </trkpt>
      <trkpt lat="45.95852" lon="4.75148">
        <ele>191</ele>
        <time>2018-03-14T12:09:16Z</time>
      </trkpt>
      <trkpt lat="45.95848" lon="4.75153">
        <ele>191</ele>
        <time>2018-03-14T12:09:18Z</time>
      </trkpt>
      <trkpt lat="45.95845" lon="4.75159">
        <ele>191</ele>
        <time>2018-03-14T12:09:19Z</time>
      </trkpt>
      <trkpt lat="45.9584" lon="4.75166">
        <ele>192</ele>
        <time>2018-03-14T12:09:21Z</time>
      </trkpt>
      <trkpt lat="45.95837" lon="4.7517">
        <ele>192</ele>
        <time>2018-03-14T12:09:22Z</time>
      </trkpt>
      <trkpt lat="45.95833" lon="4.75177">
        <ele>192</ele>
        <time>2018-03-14T12:09:25Z</time>
      </trkpt>
      <trkpt lat="45.95831" lon="4.7518">
        <ele>192</ele>
        <time>2018-03-14T12:09:26Z</time>
      </trkpt>
      <trkpt lat="45.95826" lon="4.75186">
        <ele>192</ele>
        <time>2018-03-14T12:09:28Z</time>
      </trkpt>
      <trkpt lat="45.95824" lon="4.75189">
        <ele>192</ele>
        <time>2018-03-14T12:09:29Z</time>
      </trkpt>
      <trkpt lat="45.9582" lon="4.75196">
        <ele>193</ele>
        <time>2018-03-14T12:09:31Z</time>
      </trkpt>
      <trkpt lat="45.95818" lon="4.75199">
        <ele>193</ele>
        <time>2018-03-14T12:09:32Z</time>
      </trkpt>
      <trkpt lat="45.95813" lon="4.75206">
        <ele>193</ele>
        <time>2018-03-14T12:09:34Z</time>
      </trkpt>
      <trkpt lat="45.95811" lon="4.75209">
        <ele>193</ele>
        <time>2018-03-14T12:09:35Z</time>
      </trkpt>
      <trkpt lat="45.95806" lon="4.75216">
        <ele>193</ele>
        <time>2018-03-14T12:09:37Z</time>
      </trkpt>
      <trkpt lat="45.95803" lon="4.75219">
        <ele>193</ele>
        <time>2018-03-14T12:09:38Z</time>
      </trkpt>
      <trkpt lat="45.95798" lon="4.75226">
        <ele>193</ele>
        <time>2018-03-14T12:09:40Z</time>
      </trkpt>
      <trkpt lat="45.95795" lon="4.75229">
        <ele>193</ele>
        <time>2018-03-14T12:09:41Z</time>
      </trkpt>
      <trkpt lat="45.95791" lon="4.75236">
        <ele>193</ele>
        <time>2018-03-14T12:09:43Z</time>
      </trkpt>
      <trkpt lat="45.95789" lon="4.75238">
        <ele>193</ele>
        <time>2018-03-14T12:09:44Z</time>
      </trkpt>
      <trkpt lat="45.95782" lon="4.75246">
        <ele>193</ele>
        <time>2018-03-14T12:09:47Z</time>
      </trkpt>
      <trkpt lat="45.95779" lon="4.75249">
        <ele>193</ele>
        <time>2018-03-14T12:09:48Z</time>
      </trkpt>
      <trkpt lat="45.95772" lon="4.75258">
        <ele>193</ele>
        <time>2018-03-14T12:09:49Z</time>
      </trkpt>
      <trkpt lat="45.95766" lon="4.75265">
        <ele>193</ele>
        <time>2018-03-14T12:09:52Z</time>
      </trkpt>
      <trkpt lat="45.95765" lon="4.75268">
        <ele>193</ele>
        <time>2018-03-14T12:09:53Z</time>
      </trkpt>
      <trkpt lat="45.95761" lon="4.75273">
        <ele>193</ele>
        <time>2018-03-14T12:09:55Z</time>
      </trkpt>
      <trkpt lat="45.95756" lon="4.75279">
        <ele>193</ele>
        <time>2018-03-14T12:09:56Z</time>
      </trkpt>
      <trkpt lat="45.9575" lon="4.75285">
        <ele>193</ele>
        <time>2018-03-14T12:09:58Z</time>
      </trkpt>
      <trkpt lat="45.95746" lon="4.75289">
        <ele>193</ele>
        <time>2018-03-14T12:09:59Z</time>
      </trkpt>
      <trkpt lat="45.9574" lon="4.75295">
        <ele>193</ele>
        <time>2018-03-14T12:10:01Z</time>
      </trkpt>
      <trkpt lat="45.95737" lon="4.75299">
        <ele>193</ele>
        <time>2018-03-14T12:10:02Z</time>
      </trkpt>
      <trkpt lat="45.9573" lon="4.75307">
        <ele>193</ele>
        <time>2018-03-14T12:10:04Z</time>
      </trkpt>
      <trkpt lat="45.95727" lon="4.75311">
        <ele>193</ele>
        <time>2018-03-14T12:10:05Z</time>
      </trkpt>
      <trkpt lat="45.9572" lon="4.75319">
        <ele>193</ele>
        <time>2018-03-14T12:10:07Z</time>
      </trkpt>
      <trkpt lat="45.95716" lon="4.75323">
        <ele>193</ele>
        <time>2018-03-14T12:10:08Z</time>
      </trkpt>
      <trkpt lat="45.9571" lon="4.75331">
        <ele>193</ele>
        <time>2018-03-14T12:10:10Z</time>
      </trkpt>
      <trkpt lat="45.95707" lon="4.75334">
        <ele>193</ele>
        <time>2018-03-14T12:10:11Z</time>
      </trkpt>
      <trkpt lat="45.957" lon="4.75341">
        <ele>193</ele>
        <time>2018-03-14T12:10:13Z</time>
      </trkpt>
      <trkpt lat="45.95697" lon="4.75344">
        <ele>193</ele>
        <time>2018-03-14T12:10:14Z</time>
      </trkpt>
      <trkpt lat="45.9569" lon="4.7535">
        <ele>193</ele>
        <time>2018-03-14T12:10:16Z</time>
      </trkpt>
      <trkpt lat="45.95686" lon="4.75354">
        <ele>193</ele>
        <time>2018-03-14T12:10:17Z</time>
      </trkpt>
      <trkpt lat="45.95682" lon="4.75359">
        <ele>193</ele>
        <time>2018-03-14T12:10:18Z</time>
      </trkpt>
      <trkpt lat="45.95677" lon="4.75362">
        <ele>193</ele>
        <time>2018-03-14T12:10:19Z</time>
      </trkpt>
      <trkpt lat="45.95673" lon="4.75367">
        <ele>193</ele>
        <time>2018-03-14T12:10:20Z</time>
      </trkpt>
      <trkpt lat="45.95669" lon="4.7537">
        <ele>193</ele>
        <time>2018-03-14T12:10:21Z</time>
      </trkpt>
      <trkpt lat="45.95664" lon="4.75373">
        <ele>193</ele>
        <time>2018-03-14T12:10:22Z</time>
      </trkpt>
      <trkpt lat="45.95659" lon="4.75376">
        <ele>193</ele>
        <time>2018-03-14T12:10:23Z</time>
      </trkpt>
      <trkpt lat="45.95654" lon="4.75381">
        <ele>193</ele>
        <time>2018-03-14T12:10:24Z</time>
      </trkpt>
      <trkpt lat="45.95649" lon="4.75387">
        <ele>193</ele>
        <time>2018-03-14T12:10:25Z</time>
      </trkpt>
      <trkpt lat="45.95644" lon="4.75391">
        <ele>193</ele>
        <time>2018-03-14T12:10:26Z</time>
      </trkpt>
      <trkpt lat="45.95639" lon="4.75394">
        <ele>193</ele>
        <time>2018-03-14T12:10:27Z</time>
      </trkpt>
      <trkpt lat="45.95634" lon="4.75399">
        <ele>193</ele>
        <time>2018-03-14T12:10:28Z</time>
      </trkpt>
      <trkpt lat="45.95629" lon="4.75402">
        <ele>193</ele>
        <time>2018-03-14T12:10:29Z</time>
      </trkpt>
      <trkpt lat="45.95623" lon="4.75406">
        <ele>193</ele>
        <time>2018-03-14T12:10:30Z</time>
      </trkpt>
      <trkpt lat="45.95618" lon="4.75409">
        <ele>193</ele>
        <time>2018-03-14T12:10:31Z</time>
      </trkpt>
      <trkpt lat="45.95612" lon="4.75413">
        <ele>193</ele>
        <time>2018-03-14T12:10:32Z</time>
      </trkpt>
      <trkpt lat="45.95607" lon="4.75416">
        <ele>193</ele>
        <time>2018-03-14T12:10:33Z</time>
      </trkpt>
      <trkpt lat="45.95601" lon="4.7542">
        <ele>192</ele>
        <time>2018-03-14T12:10:34Z</time>
      </trkpt>
      <trkpt lat="45.95595" lon="4.75423">
        <ele>192</ele>
        <time>2018-03-14T12:10:35Z</time>
      </trkpt>
      <trkpt lat="45.9559" lon="4.75428">
        <ele>192</ele>
        <time>2018-03-14T12:10:36Z</time>
      </trkpt>
      <trkpt lat="45.95584" lon="4.75432">
        <ele>192</ele>
        <time>2018-03-14T12:10:37Z</time>
      </trkpt>
      <trkpt lat="45.95578" lon="4.75436">
        <ele>190</ele>
        <time>2018-03-14T12:10:38Z</time>
      </trkpt>
      <trkpt lat="45.95572" lon="4.7544">
        <ele>189</ele>
        <time>2018-03-14T12:10:39Z</time>
      </trkpt>
      <trkpt lat="45.95566" lon="4.75443">
        <ele>189</ele>
        <time>2018-03-14T12:10:40Z</time>
      </trkpt>
      <trkpt lat="45.9556" lon="4.75446">
        <ele>188</ele>
        <time>2018-03-14T12:10:41Z</time>
      </trkpt>
      <trkpt lat="45.95554" lon="4.75452">
        <ele>188</ele>
        <time>2018-03-14T12:10:42Z</time>
      </trkpt>
      <trkpt lat="45.95547" lon="4.75454">
        <ele>188</ele>
        <time>2018-03-14T12:10:43Z</time>
      </trkpt>
      <trkpt lat="45.95541" lon="4.75455">
        <ele>188</ele>
        <time>2018-03-14T12:10:44Z</time>
      </trkpt>
      <trkpt lat="45.95534" lon="4.75455">
        <ele>187</ele>
        <time>2018-03-14T12:10:45Z</time>
      </trkpt>
      <trkpt lat="45.95529" lon="4.75454">
        <ele>187</ele>
        <time>2018-03-14T12:10:46Z</time>
      </trkpt>
      <trkpt lat="45.95524" lon="4.75449">
        <ele>187</ele>
        <time>2018-03-14T12:10:47Z</time>
      </trkpt>
      <trkpt lat="45.9552" lon="4.75442">
        <ele>187</ele>
        <time>2018-03-14T12:10:48Z</time>
      </trkpt>
      <trkpt lat="45.95517" lon="4.75433">
        <ele>187</ele>
        <time>2018-03-14T12:10:49Z</time>
      </trkpt>
      <trkpt lat="45.95516" lon="4.75426">
        <ele>186</ele>
        <time>2018-03-14T12:10:50Z</time>
      </trkpt>
      <trkpt lat="45.95514" lon="4.75419">
        <ele>186</ele>
        <time>2018-03-14T12:10:51Z</time>
      </trkpt>
      <trkpt lat="45.95511" lon="4.75407">
        <ele>187</ele>
        <time>2018-03-14T12:10:53Z</time>
      </trkpt>
      <trkpt lat="45.9551" lon="4.75402">
        <ele>187</ele>
        <time>2018-03-14T12:10:54Z</time>
      </trkpt>
      <trkpt lat="45.95507" lon="4.75391">
        <ele>188</ele>
        <time>2018-03-14T12:10:56Z</time>
      </trkpt>
      <trkpt lat="45.95504" lon="4.75386">
        <ele>188</ele>
        <time>2018-03-14T12:10:57Z</time>
      </trkpt>
      <trkpt lat="45.95498" lon="4.75376">
        <ele>185</ele>
        <time>2018-03-14T12:10:59Z</time>
      </trkpt>
      <trkpt lat="45.95495" lon="4.75371">
        <ele>186</ele>
        <time>2018-03-14T12:11:00Z</time>
      </trkpt>
      <trkpt lat="45.9549" lon="4.75362">
        <ele>186</ele>
        <time>2018-03-14T12:11:02Z</time>
      </trkpt>
      <trkpt lat="45.95487" lon="4.75356">
        <ele>186</ele>
        <time>2018-03-14T12:11:03Z</time>
      </trkpt>
      <trkpt lat="45.95485" lon="4.75347">
        <ele>186</ele>
        <time>2018-03-14T12:11:05Z</time>
      </trkpt>
      <trkpt lat="45.95482" lon="4.75341">
        <ele>187</ele>
        <time>2018-03-14T12:11:06Z</time>
      </trkpt>
      <trkpt lat="45.95477" lon="4.75333">
        <ele>188</ele>
        <time>2018-03-14T12:11:08Z</time>
      </trkpt>
      <trkpt lat="45.95475" lon="4.75328">
        <ele>188</ele>
        <time>2018-03-14T12:11:09Z</time>
      </trkpt>
      <trkpt lat="45.95469" lon="4.75318">
        <ele>188</ele>
        <time>2018-03-14T12:11:11Z</time>
      </trkpt>
      <trkpt lat="45.95467" lon="4.75312">
        <ele>188</ele>
        <time>2018-03-14T12:11:12Z</time>
      </trkpt>
      <trkpt lat="45.95462" lon="4.75303">
        <ele>188</ele>
        <time>2018-03-14T12:11:14Z</time>
      </trkpt>
      <trkpt lat="45.95459" lon="4.75297">
        <ele>188</ele>
        <time>2018-03-14T12:11:15Z</time>
      </trkpt>
      <trkpt lat="45.95455" lon="4.75292">
        <ele>188</ele>
        <time>2018-03-14T12:11:16Z</time>
      </trkpt>
      <trkpt lat="45.95452" lon="4.75287">
        <ele>188</ele>
        <time>2018-03-14T12:11:17Z</time>
      </trkpt>
      <trkpt lat="45.95447" lon="4.75277">
        <ele>189</ele>
        <time>2018-03-14T12:11:19Z</time>
      </trkpt>
      <trkpt lat="45.95444" lon="4.75273">
        <ele>189</ele>
        <time>2018-03-14T12:11:20Z</time>
      </trkpt>
      <trkpt lat="45.95439" lon="4.75262">
        <ele>189</ele>
        <time>2018-03-14T12:11:22Z</time>
      </trkpt>
      <trkpt lat="45.95435" lon="4.75256">
        <ele>189</ele>
        <time>2018-03-14T12:11:23Z</time>
      </trkpt>
      <trkpt lat="45.9543" lon="4.75246">
        <ele>190</ele>
        <time>2018-03-14T12:11:25Z</time>
      </trkpt>
      <trkpt lat="45.95428" lon="4.75241">
        <ele>190</ele>
        <time>2018-03-14T12:11:26Z</time>
      </trkpt>
      <trkpt lat="45.95426" lon="4.75234">
        <ele>190</ele>
        <time>2018-03-14T12:11:27Z</time>
      </trkpt>
      <trkpt lat="45.95422" lon="4.75229">
        <ele>191</ele>
        <time>2018-03-14T12:11:28Z</time>
      </trkpt>
      <trkpt lat="45.95417" lon="4.75221">
        <ele>191</ele>
        <time>2018-03-14T12:11:30Z</time>
      </trkpt>
      <trkpt lat="45.95414" lon="4.75216">
        <ele>189</ele>
        <time>2018-03-14T12:11:31Z</time>
      </trkpt>
      <trkpt lat="45.9541" lon="4.7521">
        <ele>189</ele>
        <time>2018-03-14T12:11:32Z</time>
      </trkpt>
      <trkpt lat="45.95407" lon="4.75205">
        <ele>189</ele>
        <time>2018-03-14T12:11:33Z</time>
      </trkpt>
      <trkpt lat="45.95404" lon="4.752">
        <ele>189</ele>
        <time>2018-03-14T12:11:34Z</time>
      </trkpt>
      <trkpt lat="45.95401" lon="4.75195">
        <ele>189</ele>
        <time>2018-03-14T12:11:35Z</time>
      </trkpt>
      <trkpt lat="45.95395" lon="4.75186">
        <ele>189</ele>
        <time>2018-03-14T12:11:37Z</time>
      </trkpt>
      <trkpt lat="45.95392" lon="4.75181">
        <ele>189</ele>
        <time>2018-03-14T12:11:38Z</time>
      </trkpt>
      <trkpt lat="45.95389" lon="4.75176">
        <ele>189</ele>
        <time>2018-03-14T12:11:39Z</time>
      </trkpt>
      <trkpt lat="45.95386" lon="4.7517">
        <ele>189</ele>
        <time>2018-03-14T12:11:40Z</time>
      </trkpt>
      <trkpt lat="45.9538" lon="4.75161">
        <ele>191</ele>
        <time>2018-03-14T12:11:42Z</time>
      </trkpt>
      <trkpt lat="45.95377" lon="4.75156">
        <ele>191</ele>
        <time>2018-03-14T12:11:43Z</time>
      </trkpt>
      <trkpt lat="45.95374" lon="4.75151">
        <ele>191</ele>
        <time>2018-03-14T12:11:44Z</time>
      </trkpt>
      <trkpt lat="45.9537" lon="4.75145">
        <ele>191</ele>
        <time>2018-03-14T12:11:45Z</time>
      </trkpt>
      <trkpt lat="45.95367" lon="4.7514">
        <ele>191</ele>
        <time>2018-03-14T12:11:46Z</time>
      </trkpt>
      <trkpt lat="45.95364" lon="4.75135">
        <ele>191</ele>
        <time>2018-03-14T12:11:47Z</time>
      </trkpt>
      <trkpt lat="45.95361" lon="4.7513">
        <ele>191</ele>
        <time>2018-03-14T12:11:48Z</time>
      </trkpt>
      <trkpt lat="45.95358" lon="4.75124">
        <ele>191</ele>
        <time>2018-03-14T12:11:49Z</time>
      </trkpt>
      <trkpt lat="45.95355" lon="4.75119">
        <ele>191</ele>
        <time>2018-03-14T12:11:50Z</time>
      </trkpt>
      <trkpt lat="45.95352" lon="4.75114">
        <ele>192</ele>
        <time>2018-03-14T12:11:51Z</time>
      </trkpt>
      <trkpt lat="45.95346" lon="4.75106">
        <ele>192</ele>
        <time>2018-03-14T12:11:53Z</time>
      </trkpt>
      <trkpt lat="45.95342" lon="4.75101">
        <ele>192</ele>
        <time>2018-03-14T12:11:54Z</time>
      </trkpt>
      <trkpt lat="45.95337" lon="4.75093">
        <ele>192</ele>
        <time>2018-03-14T12:11:56Z</time>
      </trkpt>
      <trkpt lat="45.95333" lon="4.75089">
        <ele>193</ele>
        <time>2018-03-14T12:11:57Z</time>
      </trkpt>
      <trkpt lat="45.9533" lon="4.75083">
        <ele>193</ele>
        <time>2018-03-14T12:11:58Z</time>
      </trkpt>
      <trkpt lat="45.95327" lon="4.75077">
        <ele>192</ele>
        <time>2018-03-14T12:11:59Z</time>
      </trkpt>
      <trkpt lat="45.95323" lon="4.7507">
        <ele>192</ele>
        <time>2018-03-14T12:12:00Z</time>
      </trkpt>
      <trkpt lat="45.9532" lon="4.75065">
        <ele>192</ele>
        <time>2018-03-14T12:12:01Z</time>
      </trkpt>
      <trkpt lat="45.95313" lon="4.75057">
        <ele>192</ele>
        <time>2018-03-14T12:12:03Z</time>
      </trkpt>
      <trkpt lat="45.9531" lon="4.75052">
        <ele>192</ele>
        <time>2018-03-14T12:12:04Z</time>
      </trkpt>
      <trkpt lat="45.95306" lon="4.75044">
        <ele>192</ele>
        <time>2018-03-14T12:12:06Z</time>
      </trkpt>
      <trkpt lat="45.95304" lon="4.75041">
        <ele>192</ele>
        <time>2018-03-14T12:12:07Z</time>
      </trkpt>
      <trkpt lat="45.95299" lon="4.75032">
        <ele>191</ele>
        <time>2018-03-14T12:12:09Z</time>
      </trkpt>
      <trkpt lat="45.95297" lon="4.75028">
        <ele>191</ele>
        <time>2018-03-14T12:12:10Z</time>
      </trkpt>
      <trkpt lat="45.95291" lon="4.7502">
        <ele>191</ele>
        <time>2018-03-14T12:12:12Z</time>
      </trkpt>
      <trkpt lat="45.95288" lon="4.75015">
        <ele>191</ele>
        <time>2018-03-14T12:12:13Z</time>
      </trkpt>
      <trkpt lat="45.95284" lon="4.75005">
        <ele>191</ele>
        <time>2018-03-14T12:12:15Z</time>
      </trkpt>
      <trkpt lat="45.95279" lon="4.74999">
        <ele>192</ele>
        <time>2018-03-14T12:12:16Z</time>
      </trkpt>
      <trkpt lat="45.95275" lon="4.7499">
        <ele>192</ele>
        <time>2018-03-14T12:12:18Z</time>
      </trkpt>
      <trkpt lat="45.95273" lon="4.74986">
        <ele>192</ele>
        <time>2018-03-14T12:12:19Z</time>
      </trkpt>
      <trkpt lat="45.95267" lon="4.74978">
        <ele>192</ele>
        <time>2018-03-14T12:12:21Z</time>
      </trkpt>
      <trkpt lat="45.95265" lon="4.74976">
        <ele>192</ele>
        <time>2018-03-14T12:12:22Z</time>
      </trkpt>
      <trkpt lat="45.9526" lon="4.74967">
        <ele>192</ele>
        <time>2018-03-14T12:12:24Z</time>
      </trkpt>
      <trkpt lat="45.95257" lon="4.74962">
        <ele>192</ele>
        <time>2018-03-14T12:12:25Z</time>
      </trkpt>
      <trkpt lat="45.95251" lon="4.74953">
        <ele>192</ele>
        <time>2018-03-14T12:12:27Z</time>
      </trkpt>
      <trkpt lat="45.95248" lon="4.74949">
        <ele>192</ele>
        <time>2018-03-14T12:12:28Z</time>
      </trkpt>
      <trkpt lat="45.95242" lon="4.7494">
        <ele>192</ele>
        <time>2018-03-14T12:12:30Z</time>
      </trkpt>
      <trkpt lat="45.9524" lon="4.74936">
        <ele>192</ele>
        <time>2018-03-14T12:12:31Z</time>
      </trkpt>
      <trkpt lat="45.95234" lon="4.74928">
        <ele>192</ele>
        <time>2018-03-14T12:12:33Z</time>
      </trkpt>
      <trkpt lat="45.95232" lon="4.74924">
        <ele>192</ele>
        <time>2018-03-14T12:12:34Z</time>
      </trkpt>
      <trkpt lat="45.95227" lon="4.74916">
        <ele>193</ele>
        <time>2018-03-14T12:12:36Z</time>
      </trkpt>
      <trkpt lat="45.95225" lon="4.74912">
        <ele>193</ele>
        <time>2018-03-14T12:12:37Z</time>
      </trkpt>
      <trkpt lat="45.9522" lon="4.74903">
        <ele>193</ele>
        <time>2018-03-14T12:12:39Z</time>
      </trkpt>
      <trkpt lat="45.95218" lon="4.74898">
        <ele>193</ele>
        <time>2018-03-14T12:12:40Z</time>
      </trkpt>
      <trkpt lat="45.95213" lon="4.7489">
        <ele>193</ele>
        <time>2018-03-14T12:12:42Z</time>
      </trkpt>
      <trkpt lat="45.9521" lon="4.74885">
        <ele>193</ele>
        <time>2018-03-14T12:12:43Z</time>
      </trkpt>
      <trkpt lat="45.95205" lon="4.7488">
        <ele>194</ele>
        <time>2018-03-14T12:12:44Z</time>
      </trkpt>
      <trkpt lat="45.95202" lon="4.74875">
        <ele>194</ele>
        <time>2018-03-14T12:12:45Z</time>
      </trkpt>
      <trkpt lat="45.95197" lon="4.74868">
        <ele>194</ele>
        <time>2018-03-14T12:12:47Z</time>
      </trkpt>
      <trkpt lat="45.95193" lon="4.74862">
        <ele>194</ele>
        <time>2018-03-14T12:12:48Z</time>
      </trkpt>
      <trkpt lat="45.95188" lon="4.74854">
        <ele>194</ele>
        <time>2018-03-14T12:12:50Z</time>
      </trkpt>
      <trkpt lat="45.95185" lon="4.74849">
        <ele>194</ele>
        <time>2018-03-14T12:12:51Z</time>
      </trkpt>
      <trkpt lat="45.95179" lon="4.7484">
        <ele>194</ele>
        <time>2018-03-14T12:12:53Z</time>
      </trkpt>
      <trkpt lat="45.95175" lon="4.74835">
        <ele>194</ele>
        <time>2018-03-14T12:12:54Z</time>
      </trkpt>
      <trkpt lat="45.95172" lon="4.7483">
        <ele>194</ele>
        <time>2018-03-14T12:12:55Z</time>
      </trkpt>
      <trkpt lat="45.95168" lon="4.74825">
        <ele>194</ele>
        <time>2018-03-14T12:12:56Z</time>
      </trkpt>
      <trkpt lat="45.95164" lon="4.7482">
        <ele>194</ele>
        <time>2018-03-14T12:12:57Z</time>
      </trkpt>
      <trkpt lat="45.95161" lon="4.74814">
        <ele>194</ele>
        <time>2018-03-14T12:12:58Z</time>
      </trkpt>
      <trkpt lat="45.95158" lon="4.74809">
        <ele>194</ele>
        <time>2018-03-14T12:12:59Z</time>
      </trkpt>
      <trkpt lat="45.95155" lon="4.74803">
        <ele>194</ele>
        <time>2018-03-14T12:13:00Z</time>
      </trkpt>
      <trkpt lat="45.95152" lon="4.74798">
        <ele>194</ele>
        <time>2018-03-14T12:13:01Z</time>
      </trkpt>
      <trkpt lat="45.95149" lon="4.74793">
        <ele>194</ele>
        <time>2018-03-14T12:13:02Z</time>
      </trkpt>
      <trkpt lat="45.95146" lon="4.74788">
        <ele>194</ele>
        <time>2018-03-14T12:13:03Z</time>
      </trkpt>
      <trkpt lat="45.95144" lon="4.74782">
        <ele>194</ele>
        <time>2018-03-14T12:13:04Z</time>
      </trkpt>
      <trkpt lat="45.95139" lon="4.74772">
        <ele>194</ele>
        <time>2018-03-14T12:13:06Z</time>
      </trkpt>
      <trkpt lat="45.95136" lon="4.74765">
        <ele>194</ele>
        <time>2018-03-14T12:13:07Z</time>
      </trkpt>
      <trkpt lat="45.95133" lon="4.7476">
        <ele>194</ele>
        <time>2018-03-14T12:13:08Z</time>
      </trkpt>
      <trkpt lat="45.95129" lon="4.74756">
        <ele>194</ele>
        <time>2018-03-14T12:13:09Z</time>
      </trkpt>
      <trkpt lat="45.95124" lon="4.74746">
        <ele>194</ele>
        <time>2018-03-14T12:13:11Z</time>
      </trkpt>
      <trkpt lat="45.95122" lon="4.74742">
        <ele>194</ele>
        <time>2018-03-14T12:13:12Z</time>
      </trkpt>
      <trkpt lat="45.95119" lon="4.74737">
        <ele>194</ele>
        <time>2018-03-14T12:13:13Z</time>
      </trkpt>
      <trkpt lat="45.95115" lon="4.74731">
        <ele>194</ele>
        <time>2018-03-14T12:13:14Z</time>
      </trkpt>
      <trkpt lat="45.95112" lon="4.74725">
        <ele>194</ele>
        <time>2018-03-14T12:13:15Z</time>
      </trkpt>
      <trkpt lat="45.9511" lon="4.74718">
        <ele>194</ele>
        <time>2018-03-14T12:13:16Z</time>
      </trkpt>
      <trkpt lat="45.95108" lon="4.74713">
        <ele>194</ele>
        <time>2018-03-14T12:13:17Z</time>
      </trkpt>
      <trkpt lat="45.95104" lon="4.74707">
        <ele>194</ele>
        <time>2018-03-14T12:13:18Z</time>
      </trkpt>
      <trkpt lat="45.95099" lon="4.747">
        <ele>194</ele>
        <time>2018-03-14T12:13:19Z</time>
      </trkpt>
      <trkpt lat="45.95094" lon="4.74695">
        <ele>194</ele>
        <time>2018-03-14T12:13:20Z</time>
      </trkpt>
      <trkpt lat="45.95091" lon="4.7469">
        <ele>195</ele>
        <time>2018-03-14T12:13:21Z</time>
      </trkpt>
      <trkpt lat="45.95086" lon="4.74685">
        <ele>195</ele>
        <time>2018-03-14T12:13:22Z</time>
      </trkpt>
      <trkpt lat="45.95083" lon="4.74679">
        <ele>194</ele>
        <time>2018-03-14T12:13:23Z</time>
      </trkpt>
      <trkpt lat="45.95081" lon="4.74673">
        <ele>195</ele>
        <time>2018-03-14T12:13:24Z</time>
      </trkpt>
      <trkpt lat="45.95078" lon="4.74667">
        <ele>195</ele>
        <time>2018-03-14T12:13:25Z</time>
      </trkpt>
      <trkpt lat="45.95075" lon="4.74662">
        <ele>195</ele>
        <time>2018-03-14T12:13:26Z</time>
      </trkpt>
      <trkpt lat="45.95072" lon="4.74657">
        <ele>195</ele>
        <time>2018-03-14T12:13:27Z</time>
      </trkpt>
      <trkpt lat="45.95069" lon="4.74652">
        <ele>195</ele>
        <time>2018-03-14T12:13:28Z</time>
      </trkpt>
      <trkpt lat="45.95066" lon="4.74646">
        <ele>195</ele>
        <time>2018-03-14T12:13:29Z</time>
      </trkpt>
      <trkpt lat="45.95063" lon="4.7464">
        <ele>195</ele>
        <time>2018-03-14T12:13:30Z</time>
      </trkpt>
      <trkpt lat="45.9506" lon="4.74635">
        <ele>194</ele>
        <time>2018-03-14T12:13:31Z</time>
      </trkpt>
      <trkpt lat="45.95057" lon="4.74629">
        <ele>194</ele>
        <time>2018-03-14T12:13:32Z</time>
      </trkpt>
      <trkpt lat="45.95054" lon="4.74624">
        <ele>194</ele>
        <time>2018-03-14T12:13:33Z</time>
      </trkpt>
      <trkpt lat="45.95051" lon="4.74617">
        <ele>194</ele>
        <time>2018-03-14T12:13:34Z</time>
      </trkpt>
      <trkpt lat="45.95047" lon="4.7461">
        <ele>194</ele>
        <time>2018-03-14T12:13:35Z</time>
      </trkpt>
      <trkpt lat="45.95044" lon="4.74605">
        <ele>194</ele>
        <time>2018-03-14T12:13:36Z</time>
      </trkpt>
      <trkpt lat="45.9504" lon="4.74599">
        <ele>194</ele>
        <time>2018-03-14T12:13:37Z</time>
      </trkpt>
      <trkpt lat="45.95037" lon="4.74594">
        <ele>194</ele>
        <time>2018-03-14T12:13:38Z</time>
      </trkpt>
      <trkpt lat="45.95033" lon="4.74587">
        <ele>194</ele>
        <time>2018-03-14T12:13:39Z</time>
      </trkpt>
      <trkpt lat="45.9503" lon="4.74582">
        <ele>194</ele>
        <time>2018-03-14T12:13:40Z</time>
      </trkpt>
      <trkpt lat="45.95027" lon="4.74576">
        <ele>194</ele>
        <time>2018-03-14T12:13:41Z</time>
      </trkpt>
      <trkpt lat="45.95024" lon="4.74571">
        <ele>194</ele>
        <time>2018-03-14T12:13:42Z</time>
      </trkpt>
      <trkpt lat="45.95022" lon="4.74566">
        <ele>194</ele>
        <time>2018-03-14T12:13:43Z</time>
      </trkpt>
      <trkpt lat="45.95018" lon="4.7456">
        <ele>194</ele>
        <time>2018-03-14T12:13:44Z</time>
      </trkpt>
      <trkpt lat="45.95016" lon="4.74554">
        <ele>194</ele>
        <time>2018-03-14T12:13:45Z</time>
      </trkpt>
      <trkpt lat="45.95013" lon="4.74549">
        <ele>194</ele>
        <time>2018-03-14T12:13:46Z</time>
      </trkpt>
      <trkpt lat="45.9501" lon="4.74543">
        <ele>194</ele>
        <time>2018-03-14T12:13:47Z</time>
      </trkpt>
      <trkpt lat="45.95007" lon="4.74537">
        <ele>194</ele>
        <time>2018-03-14T12:13:48Z</time>
      </trkpt>
      <trkpt lat="45.95004" lon="4.74531">
        <ele>194</ele>
        <time>2018-03-14T12:13:49Z</time>
      </trkpt>
      <trkpt lat="45.95" lon="4.74524">
        <ele>193</ele>
        <time>2018-03-14T12:13:50Z</time>
      </trkpt>
      <trkpt lat="45.94995" lon="4.74515">
        <ele>193</ele>
        <time>2018-03-14T12:13:51Z</time>
      </trkpt>
      <trkpt lat="45.94992" lon="4.74509">
        <ele>193</ele>
        <time>2018-03-14T12:13:52Z</time>
      </trkpt>
      <trkpt lat="45.94988" lon="4.74502">
        <ele>193</ele>
        <time>2018-03-14T12:13:53Z</time>
      </trkpt>
      <trkpt lat="45.94984" lon="4.74493">
        <ele>193</ele>
        <time>2018-03-14T12:13:54Z</time>
      </trkpt>
      <trkpt lat="45.9498" lon="4.74487">
        <ele>193</ele>
        <time>2018-03-14T12:13:55Z</time>
      </trkpt>
      <trkpt lat="45.94976" lon="4.74479">
        <ele>193</ele>
        <time>2018-03-14T12:13:56Z</time>
      </trkpt>
      <trkpt lat="45.94973" lon="4.74473">
        <ele>193</ele>
        <time>2018-03-14T12:13:57Z</time>
      </trkpt>
      <trkpt lat="45.94968" lon="4.74466">
        <ele>193</ele>
        <time>2018-03-14T12:13:58Z</time>
      </trkpt>
      <trkpt lat="45.94965" lon="4.74459">
        <ele>193</ele>
        <time>2018-03-14T12:13:59Z</time>
      </trkpt>
      <trkpt lat="45.94962" lon="4.74453">
        <ele>192</ele>
        <time>2018-03-14T12:14:00Z</time>
      </trkpt>
      <trkpt lat="45.94958" lon="4.74447">
        <ele>192</ele>
        <time>2018-03-14T12:14:01Z</time>
      </trkpt>
      <trkpt lat="45.94954" lon="4.74439">
        <ele>192</ele>
        <time>2018-03-14T12:14:02Z</time>
      </trkpt>
      <trkpt lat="45.9495" lon="4.74432">
        <ele>192</ele>
        <time>2018-03-14T12:14:03Z</time>
      </trkpt>
      <trkpt lat="45.94947" lon="4.74424">
        <ele>192</ele>
        <time>2018-03-14T12:14:04Z</time>
      </trkpt>
      <trkpt lat="45.94943" lon="4.74417">
        <ele>192</ele>
        <time>2018-03-14T12:14:05Z</time>
      </trkpt>
      <trkpt lat="45.94939" lon="4.74409">
        <ele>192</ele>
        <time>2018-03-14T12:14:06Z</time>
      </trkpt>
      <trkpt lat="45.94935" lon="4.74401">
        <ele>192</ele>
        <time>2018-03-14T12:14:07Z</time>
      </trkpt>
      <trkpt lat="45.94931" lon="4.74394">
        <ele>192</ele>
        <time>2018-03-14T12:14:08Z</time>
      </trkpt>
      <trkpt lat="45.94928" lon="4.74387">
        <ele>192</ele>
        <time>2018-03-14T12:14:09Z</time>
      </trkpt>
      <trkpt lat="45.94923" lon="4.7438">
        <ele>192</ele>
        <time>2018-03-14T12:14:10Z</time>
      </trkpt>
      <trkpt lat="45.94919" lon="4.74374">
        <ele>192</ele>
        <time>2018-03-14T12:14:11Z</time>
      </trkpt>
      <trkpt lat="45.94916" lon="4.74367">
        <ele>191</ele>
        <time>2018-03-14T12:14:12Z</time>
      </trkpt>
      <trkpt lat="45.94912" lon="4.74359">
        <ele>191</ele>
        <time>2018-03-14T12:14:13Z</time>
      </trkpt>
      <trkpt lat="45.94909" lon="4.74352">
        <ele>191</ele>
        <time>2018-03-14T12:14:14Z</time>
      </trkpt>
      <trkpt lat="45.94906" lon="4.74344">
        <ele>191</ele>
        <time>2018-03-14T12:14:15Z</time>
      </trkpt>
      <trkpt lat="45.94903" lon="4.74339">
        <ele>191</ele>
        <time>2018-03-14T12:14:16Z</time>
      </trkpt>
      <trkpt lat="45.949" lon="4.74334">
        <ele>191</ele>
        <time>2018-03-14T12:14:17Z</time>
      </trkpt>
      <trkpt lat="45.94897" lon="4.74329">
        <ele>191</ele>
        <time>2018-03-14T12:14:18Z</time>
      </trkpt>
      <trkpt lat="45.94896" lon="4.74323">
        <ele>191</ele>
        <time>2018-03-14T12:14:19Z</time>
      </trkpt>
      <trkpt lat="45.94892" lon="4.74316">
        <ele>191</ele>
        <time>2018-03-14T12:14:20Z</time>
      </trkpt>
      <trkpt lat="45.94889" lon="4.7431">
        <ele>191</ele>
        <time>2018-03-14T12:14:21Z</time>
      </trkpt>
      <trkpt lat="45.94885" lon="4.74304">
        <ele>191</ele>
        <time>2018-03-14T12:14:22Z</time>
      </trkpt>
      <trkpt lat="45.94883" lon="4.74298">
        <ele>191</ele>
        <time>2018-03-14T12:14:23Z</time>
      </trkpt>
      <trkpt lat="45.94879" lon="4.74291">
        <ele>191</ele>
        <time>2018-03-14T12:14:24Z</time>
      </trkpt>
      <trkpt lat="45.94875" lon="4.74286">
        <ele>191</ele>
        <time>2018-03-14T12:14:25Z</time>
      </trkpt>
      <trkpt lat="45.94871" lon="4.74278">
        <ele>191</ele>
        <time>2018-03-14T12:14:26Z</time>
      </trkpt>
      <trkpt lat="45.94867" lon="4.74272">
        <ele>191</ele>
        <time>2018-03-14T12:14:27Z</time>
      </trkpt>
      <trkpt lat="45.94863" lon="4.74265">
        <ele>190</ele>
        <time>2018-03-14T12:14:28Z</time>
      </trkpt>
      <trkpt lat="45.94859" lon="4.74258">
        <ele>190</ele>
        <time>2018-03-14T12:14:29Z</time>
      </trkpt>
      <trkpt lat="45.94856" lon="4.74251">
        <ele>190</ele>
        <time>2018-03-14T12:14:30Z</time>
      </trkpt>
      <trkpt lat="45.94853" lon="4.74245">
        <ele>190</ele>
        <time>2018-03-14T12:14:31Z</time>
      </trkpt>
      <trkpt lat="45.9485" lon="4.74239">
        <ele>190</ele>
        <time>2018-03-14T12:14:32Z</time>
      </trkpt>
      <trkpt lat="45.94847" lon="4.74232">
        <ele>190</ele>
        <time>2018-03-14T12:14:33Z</time>
      </trkpt>
      <trkpt lat="45.94844" lon="4.74226">
        <ele>190</ele>
        <time>2018-03-14T12:14:34Z</time>
      </trkpt>
      <trkpt lat="45.9484" lon="4.74221">
        <ele>190</ele>
        <time>2018-03-14T12:14:35Z</time>
      </trkpt>
      <trkpt lat="45.94837" lon="4.74214">
        <ele>190</ele>
        <time>2018-03-14T12:14:36Z</time>
      </trkpt>
      <trkpt lat="45.94833" lon="4.74208">
        <ele>189</ele>
        <time>2018-03-14T12:14:37Z</time>
      </trkpt>
      <trkpt lat="45.9483" lon="4.74201">
        <ele>189</ele>
        <time>2018-03-14T12:14:38Z</time>
      </trkpt>
      <trkpt lat="45.94826" lon="4.74196">
        <ele>189</ele>
        <time>2018-03-14T12:14:39Z</time>
      </trkpt>
      <trkpt lat="45.94822" lon="4.74191">
        <ele>189</ele>
        <time>2018-03-14T12:14:40Z</time>
      </trkpt>
      <trkpt lat="45.94818" lon="4.74182">
        <ele>189</ele>
        <time>2018-03-14T12:14:42Z</time>
      </trkpt>
      <trkpt lat="45.94815" lon="4.74176">
        <ele>189</ele>
        <time>2018-03-14T12:14:43Z</time>
      </trkpt>
      <trkpt lat="45.94811" lon="4.74171">
        <ele>189</ele>
        <time>2018-03-14T12:14:44Z</time>
      </trkpt>
      <trkpt lat="45.94808" lon="4.74166">
        <ele>189</ele>
        <time>2018-03-14T12:14:45Z</time>
      </trkpt>
      <trkpt lat="45.94805" lon="4.7416">
        <ele>189</ele>
        <time>2018-03-14T12:14:46Z</time>
      </trkpt>
      <trkpt lat="45.94801" lon="4.74154">
        <ele>189</ele>
        <time>2018-03-14T12:14:47Z</time>
      </trkpt>
      <trkpt lat="45.94799" lon="4.74149">
        <ele>189</ele>
        <time>2018-03-14T12:14:48Z</time>
      </trkpt>
      <trkpt lat="45.94795" lon="4.74144">
        <ele>189</ele>
        <time>2018-03-14T12:14:49Z</time>
      </trkpt>
      <trkpt lat="45.94792" lon="4.74138">
        <ele>189</ele>
        <time>2018-03-14T12:14:50Z</time>
      </trkpt>
      <trkpt lat="45.94788" lon="4.74132">
        <ele>189</ele>
        <time>2018-03-14T12:14:51Z</time>
      </trkpt>
      <trkpt lat="45.94785" lon="4.74126">
        <ele>189</ele>
        <time>2018-03-14T12:14:52Z</time>
      </trkpt>
      <trkpt lat="45.94781" lon="4.74122">
        <ele>189</ele>
        <time>2018-03-14T12:14:53Z</time>
      </trkpt>
      <trkpt lat="45.94777" lon="4.74116">
        <ele>189</ele>
        <time>2018-03-14T12:14:54Z</time>
      </trkpt>
      <trkpt lat="45.94773" lon="4.74111">
        <ele>189</ele>
        <time>2018-03-14T12:14:55Z</time>
      </trkpt>
      <trkpt lat="45.94768" lon="4.74106">
        <ele>189</ele>
        <time>2018-03-14T12:14:56Z</time>
      </trkpt>
      <trkpt lat="45.94764" lon="4.74099">
        <ele>189</ele>
        <time>2018-03-14T12:14:57Z</time>
      </trkpt>
      <trkpt lat="45.9476" lon="4.74094">
        <ele>189</ele>
        <time>2018-03-14T12:14:58Z</time>
      </trkpt>
      <trkpt lat="45.94757" lon="4.74088">
        <ele>189</ele>
        <time>2018-03-14T12:14:59Z</time>
      </trkpt>
      <trkpt lat="45.94753" lon="4.74082">
        <ele>189</ele>
        <time>2018-03-14T12:15:00Z</time>
      </trkpt>
      <trkpt lat="45.94748" lon="4.74077">
        <ele>189</ele>
        <time>2018-03-14T12:15:01Z</time>
      </trkpt>
      <trkpt lat="45.94744" lon="4.74071">
        <ele>188</ele>
        <time>2018-03-14T12:15:02Z</time>
      </trkpt>
      <trkpt lat="45.9474" lon="4.74066">
        <ele>188</ele>
        <time>2018-03-14T12:15:03Z</time>
      </trkpt>
      <trkpt lat="45.94736" lon="4.74061">
        <ele>188</ele>
        <time>2018-03-14T12:15:04Z</time>
      </trkpt>
      <trkpt lat="45.94732" lon="4.74055">
        <ele>188</ele>
        <time>2018-03-14T12:15:05Z</time>
      </trkpt>
      <trkpt lat="45.94729" lon="4.74051">
        <ele>188</ele>
        <time>2018-03-14T12:15:06Z</time>
      </trkpt>
      <trkpt lat="45.94725" lon="4.74046">
        <ele>187</ele>
        <time>2018-03-14T12:15:07Z</time>
      </trkpt>
      <trkpt lat="45.94721" lon="4.74043">
        <ele>187</ele>
        <time>2018-03-14T12:15:08Z</time>
      </trkpt>
      <trkpt lat="45.94718" lon="4.74037">
        <ele>187</ele>
        <time>2018-03-14T12:15:09Z</time>
      </trkpt>
      <trkpt lat="45.94712" lon="4.74029">
        <ele>187</ele>
        <time>2018-03-14T12:15:11Z</time>
      </trkpt>
      <trkpt lat="45.94708" lon="4.74024">
        <ele>187</ele>
        <time>2018-03-14T12:15:12Z</time>
      </trkpt>
      <trkpt lat="45.94705" lon="4.74019">
        <ele>187</ele>
        <time>2018-03-14T12:15:13Z</time>
      </trkpt>
      <trkpt lat="45.94701" lon="4.74014">
        <ele>187</ele>
        <time>2018-03-14T12:15:14Z</time>
      </trkpt>
      <trkpt lat="45.94698" lon="4.74009">
        <ele>187</ele>
        <time>2018-03-14T12:15:15Z</time>
      </trkpt>
      <trkpt lat="45.94695" lon="4.74005">
        <ele>187</ele>
        <time>2018-03-14T12:15:16Z</time>
      </trkpt>
      <trkpt lat="45.94688" lon="4.73997">
        <ele>187</ele>
        <time>2018-03-14T12:15:18Z</time>
      </trkpt>
      <trkpt lat="45.94684" lon="4.73992">
        <ele>187</ele>
        <time>2018-03-14T12:15:19Z</time>
      </trkpt>
      <trkpt lat="45.94681" lon="4.73985">
        <ele>187</ele>
        <time>2018-03-14T12:15:20Z</time>
      </trkpt>
      <trkpt lat="45.94679" lon="4.73981">
        <ele>187</ele>
        <time>2018-03-14T12:15:21Z</time>
      </trkpt>
      <trkpt lat="45.94675" lon="4.73976">
        <ele>187</ele>
        <time>2018-03-14T12:15:22Z</time>
      </trkpt>
      <trkpt lat="45.94671" lon="4.73971">
        <ele>187</ele>
        <time>2018-03-14T12:15:23Z</time>
      </trkpt>
      <trkpt lat="45.94668" lon="4.73966">
        <ele>187</ele>
        <time>2018-03-14T12:15:24Z</time>
      </trkpt>
      <trkpt lat="45.94663" lon="4.73961">
        <ele>187</ele>
        <time>2018-03-14T12:15:25Z</time>
      </trkpt>
      <trkpt lat="45.94659" lon="4.73956">
        <ele>187</ele>
        <time>2018-03-14T12:15:26Z</time>
      </trkpt>
      <trkpt lat="45.94654" lon="4.7395">
        <ele>187</ele>
        <time>2018-03-14T12:15:27Z</time>
      </trkpt>
      <trkpt lat="45.9465" lon="4.73945">
        <ele>187</ele>
        <time>2018-03-14T12:15:28Z</time>
      </trkpt>
      <trkpt lat="45.94646" lon="4.73939">
        <ele>187</ele>
        <time>2018-03-14T12:15:29Z</time>
      </trkpt>
      <trkpt lat="45.94642" lon="4.73933">
        <ele>187</ele>
        <time>2018-03-14T12:15:30Z</time>
      </trkpt>
      <trkpt lat="45.94638" lon="4.73928">
        <ele>187</ele>
        <time>2018-03-14T12:15:31Z</time>
      </trkpt>
      <trkpt lat="45.94634" lon="4.73922">
        <ele>187</ele>
        <time>2018-03-14T12:15:32Z</time>
      </trkpt>
      <trkpt lat="45.9463" lon="4.73917">
        <ele>187</ele>
        <time>2018-03-14T12:15:33Z</time>
      </trkpt>
      <trkpt lat="45.94626" lon="4.73912">
        <ele>187</ele>
        <time>2018-03-14T12:15:34Z</time>
      </trkpt>
      <trkpt lat="45.94622" lon="4.73907">
        <ele>187</ele>
        <time>2018-03-14T12:15:35Z</time>
      </trkpt>
      <trkpt lat="45.94618" lon="4.73901">
        <ele>187</ele>
        <time>2018-03-14T12:15:36Z</time>
      </trkpt>
      <trkpt lat="45.94613" lon="4.73897">
        <ele>187</ele>
        <time>2018-03-14T12:15:37Z</time>
      </trkpt>
      <trkpt lat="45.94609" lon="4.73891">
        <ele>187</ele>
        <time>2018-03-14T12:15:38Z</time>
      </trkpt>
      <trkpt lat="45.94605" lon="4.73886">
        <ele>187</ele>
        <time>2018-03-14T12:15:39Z</time>
      </trkpt>
      <trkpt lat="45.946" lon="4.73881">
        <ele>187</ele>
        <time>2018-03-14T12:15:40Z</time>
      </trkpt>
      <trkpt lat="45.94596" lon="4.73876">
        <ele>187</ele>
        <time>2018-03-14T12:15:41Z</time>
      </trkpt>
      <trkpt lat="45.94593" lon="4.73871">
        <ele>187</ele>
        <time>2018-03-14T12:15:42Z</time>
      </trkpt>
      <trkpt lat="45.94588" lon="4.73865">
        <ele>187</ele>
        <time>2018-03-14T12:15:43Z</time>
      </trkpt>
      <trkpt lat="45.94584" lon="4.73861">
        <ele>187</ele>
        <time>2018-03-14T12:15:44Z</time>
      </trkpt>
      <trkpt lat="45.9458" lon="4.73857">
        <ele>186</ele>
        <time>2018-03-14T12:15:45Z</time>
      </trkpt>
      <trkpt lat="45.94576" lon="4.73853">
        <ele>186</ele>
        <time>2018-03-14T12:15:46Z</time>
      </trkpt>
      <trkpt lat="45.94572" lon="4.73849">
        <ele>186</ele>
        <time>2018-03-14T12:15:47Z</time>
      </trkpt>
      <trkpt lat="45.94568" lon="4.73845">
        <ele>186</ele>
        <time>2018-03-14T12:15:48Z</time>
      </trkpt>
      <trkpt lat="45.94564" lon="4.73841">
        <ele>186</ele>
        <time>2018-03-14T12:15:49Z</time>
      </trkpt>
      <trkpt lat="45.9456" lon="4.73837">
        <ele>186</ele>
        <time>2018-03-14T12:15:50Z</time>
      </trkpt>
      <trkpt lat="45.94555" lon="4.73832">
        <ele>186</ele>
        <time>2018-03-14T12:15:51Z</time>
      </trkpt>
      <trkpt lat="45.9455" lon="4.73828">
        <ele>186</ele>
        <time>2018-03-14T12:15:52Z</time>
      </trkpt>
      <trkpt lat="45.94546" lon="4.73824">
        <ele>186</ele>
        <time>2018-03-14T12:15:53Z</time>
      </trkpt>
      <trkpt lat="45.94541" lon="4.7382">
        <ele>186</ele>
        <time>2018-03-14T12:15:54Z</time>
      </trkpt>
      <trkpt lat="45.94538" lon="4.73815">
        <ele>186</ele>
        <time>2018-03-14T12:15:55Z</time>
      </trkpt>
      <trkpt lat="45.94534" lon="4.73811">
        <ele>186</ele>
        <time>2018-03-14T12:15:56Z</time>
      </trkpt>
      <trkpt lat="45.94529" lon="4.73807">
        <ele>186</ele>
        <time>2018-03-14T12:15:57Z</time>
      </trkpt>
      <trkpt lat="45.94525" lon="4.73803">
        <ele>186</ele>
        <time>2018-03-14T12:15:58Z</time>
      </trkpt>
      <trkpt lat="45.94521" lon="4.738">
        <ele>186</ele>
        <time>2018-03-14T12:15:59Z</time>
      </trkpt>
      <trkpt lat="45.94517" lon="4.73795">
        <ele>186</ele>
        <time>2018-03-14T12:16:00Z</time>
      </trkpt>
      <trkpt lat="45.94512" lon="4.7379">
        <ele>186</ele>
        <time>2018-03-14T12:16:01Z</time>
      </trkpt>
      <trkpt lat="45.94508" lon="4.73786">
        <ele>186</ele>
        <time>2018-03-14T12:16:02Z</time>
      </trkpt>
      <trkpt lat="45.94504" lon="4.73781">
        <ele>186</ele>
        <time>2018-03-14T12:16:03Z</time>
      </trkpt>
      <trkpt lat="45.94501" lon="4.73776">
        <ele>186</ele>
        <time>2018-03-14T12:16:04Z</time>
      </trkpt>
      <trkpt lat="45.94497" lon="4.73772">
        <ele>186</ele>
        <time>2018-03-14T12:16:05Z</time>
      </trkpt>
      <trkpt lat="45.94493" lon="4.73767">
        <ele>186</ele>
        <time>2018-03-14T12:16:06Z</time>
      </trkpt>
      <trkpt lat="45.9449" lon="4.73761">
        <ele>186</ele>
        <time>2018-03-14T12:16:07Z</time>
      </trkpt>
      <trkpt lat="45.94488" lon="4.73755">
        <ele>186</ele>
        <time>2018-03-14T12:16:08Z</time>
      </trkpt>
      <trkpt lat="45.94487" lon="4.73749">
        <ele>186</ele>
        <time>2018-03-14T12:16:09Z</time>
      </trkpt>
      <trkpt lat="45.94488" lon="4.73742">
        <ele>186</ele>
        <time>2018-03-14T12:16:10Z</time>
      </trkpt>
      <trkpt lat="45.94488" lon="4.73735">
        <ele>186</ele>
        <time>2018-03-14T12:16:11Z</time>
      </trkpt>
      <trkpt lat="45.9449" lon="4.73728">
        <ele>186</ele>
        <time>2018-03-14T12:16:12Z</time>
      </trkpt>
      <trkpt lat="45.9449" lon="4.73721">
        <ele>186</ele>
        <time>2018-03-14T12:16:13Z</time>
      </trkpt>
      <trkpt lat="45.94492" lon="4.73715">
        <ele>186</ele>
        <time>2018-03-14T12:16:14Z</time>
      </trkpt>
      <trkpt lat="45.94493" lon="4.73707">
        <ele>186</ele>
        <time>2018-03-14T12:16:15Z</time>
      </trkpt>
      <trkpt lat="45.94495" lon="4.73699">
        <ele>186</ele>
        <time>2018-03-14T12:16:16Z</time>
      </trkpt>
      <trkpt lat="45.94498" lon="4.73692">
        <ele>186</ele>
        <time>2018-03-14T12:16:17Z</time>
      </trkpt>
      <trkpt lat="45.945" lon="4.73682">
        <ele>185</ele>
        <time>2018-03-14T12:16:18Z</time>
      </trkpt>
      <trkpt lat="45.94502" lon="4.73674">
        <ele>185</ele>
        <time>2018-03-14T12:16:19Z</time>
      </trkpt>
      <trkpt lat="45.94503" lon="4.73666">
        <ele>185</ele>
        <time>2018-03-14T12:16:20Z</time>
      </trkpt>
      <trkpt lat="45.94504" lon="4.73657">
        <ele>185</ele>
        <time>2018-03-14T12:16:21Z</time>
      </trkpt>
      <trkpt lat="45.94504" lon="4.73648">
        <ele>184</ele>
        <time>2018-03-14T12:16:22Z</time>
      </trkpt>
      <trkpt lat="45.94505" lon="4.7364">
        <ele>184</ele>
        <time>2018-03-14T12:16:23Z</time>
      </trkpt>
      <trkpt lat="45.94506" lon="4.73632">
        <ele>184</ele>
        <time>2018-03-14T12:16:24Z</time>
      </trkpt>
      <trkpt lat="45.94506" lon="4.73625">
        <ele>184</ele>
        <time>2018-03-14T12:16:25Z</time>
      </trkpt>
      <trkpt lat="45.94507" lon="4.73617">
        <ele>184</ele>
        <time>2018-03-14T12:16:26Z</time>
      </trkpt>
      <trkpt lat="45.94508" lon="4.7361">
        <ele>184</ele>
        <time>2018-03-14T12:16:27Z</time>
      </trkpt>
      <trkpt lat="45.94509" lon="4.73602">
        <ele>184</ele>
        <time>2018-03-14T12:16:28Z</time>
      </trkpt>
      <trkpt lat="45.94509" lon="4.73594">
        <ele>184</ele>
        <time>2018-03-14T12:16:29Z</time>
      </trkpt>
      <trkpt lat="45.9451" lon="4.73586">
        <ele>184</ele>
        <time>2018-03-14T12:16:30Z</time>
      </trkpt>
      <trkpt lat="45.94511" lon="4.73576">
        <ele>184</ele>
        <time>2018-03-14T12:16:31Z</time>
      </trkpt>
      <trkpt lat="45.94511" lon="4.73568">
        <ele>184</ele>
        <time>2018-03-14T12:16:32Z</time>
      </trkpt>
      <trkpt lat="45.94511" lon="4.7356">
        <ele>184</ele>
        <time>2018-03-14T12:16:33Z</time>
      </trkpt>
      <trkpt lat="45.94511" lon="4.73552">
        <ele>183</ele>
        <time>2018-03-14T12:16:34Z</time>
      </trkpt>
      <trkpt lat="45.94512" lon="4.73544">
        <ele>183</ele>
        <time>2018-03-14T12:16:35Z</time>
      </trkpt>
      <trkpt lat="45.94512" lon="4.73535">
        <ele>183</ele>
        <time>2018-03-14T12:16:36Z</time>
      </trkpt>
      <trkpt lat="45.94512" lon="4.73526">
        <ele>183</ele>
        <time>2018-03-14T12:16:37Z</time>
      </trkpt>
      <trkpt lat="45.94512" lon="4.73517">
        <ele>183</ele>
        <time>2018-03-14T12:16:38Z</time>
      </trkpt>
      <trkpt lat="45.94512" lon="4.73509">
        <ele>183</ele>
        <time>2018-03-14T12:16:39Z</time>
      </trkpt>
      <trkpt lat="45.94513" lon="4.73498">
        <ele>182</ele>
        <time>2018-03-14T12:16:40Z</time>
      </trkpt>
      <trkpt lat="45.94514" lon="4.73488">
        <ele>182</ele>
        <time>2018-03-14T12:16:41Z</time>
      </trkpt>
      <trkpt lat="45.94514" lon="4.73478">
        <ele>182</ele>
        <time>2018-03-14T12:16:42Z</time>
      </trkpt>
      <trkpt lat="45.94514" lon="4.73469">
        <ele>181</ele>
        <time>2018-03-14T12:16:43Z</time>
      </trkpt>
      <trkpt lat="45.94513" lon="4.73459">
        <ele>181</ele>
        <time>2018-03-14T12:16:44Z</time>
      </trkpt>
      <trkpt lat="45.94513" lon="4.73448">
        <ele>181</ele>
        <time>2018-03-14T12:16:45Z</time>
      </trkpt>
      <trkpt lat="45.94511" lon="4.73436">
        <ele>181</ele>
        <time>2018-03-14T12:16:46Z</time>
      </trkpt>
      <trkpt lat="45.9451" lon="4.73425">
        <ele>180</ele>
        <time>2018-03-14T12:16:47Z</time>
      </trkpt>
      <trkpt lat="45.94509" lon="4.73415">
        <ele>179</ele>
        <time>2018-03-14T12:16:48Z</time>
      </trkpt>
      <trkpt lat="45.94508" lon="4.73405">
        <ele>179</ele>
        <time>2018-03-14T12:16:49Z</time>
      </trkpt>
      <trkpt lat="45.94507" lon="4.73395">
        <ele>179</ele>
        <time>2018-03-14T12:16:50Z</time>
      </trkpt>
      <trkpt lat="45.94509" lon="4.73385">
        <ele>179</ele>
        <time>2018-03-14T12:16:51Z</time>
      </trkpt>
      <trkpt lat="45.94508" lon="4.73374">
        <ele>178</ele>
        <time>2018-03-14T12:16:52Z</time>
      </trkpt>
      <trkpt lat="45.94505" lon="4.73363">
        <ele>178</ele>
        <time>2018-03-14T12:16:53Z</time>
      </trkpt>
      <trkpt lat="45.94503" lon="4.73351">
        <ele>178</ele>
        <time>2018-03-14T12:16:54Z</time>
      </trkpt>
      <trkpt lat="45.94502" lon="4.7334">
        <ele>177</ele>
        <time>2018-03-14T12:16:55Z</time>
      </trkpt>
      <trkpt lat="45.945" lon="4.73328">
        <ele>177</ele>
        <time>2018-03-14T12:16:56Z</time>
      </trkpt>
      <trkpt lat="45.94498" lon="4.73316">
        <ele>177</ele>
        <time>2018-03-14T12:16:57Z</time>
      </trkpt>
      <trkpt lat="45.94497" lon="4.73305">
        <ele>177</ele>
        <time>2018-03-14T12:16:58Z</time>
      </trkpt>
      <trkpt lat="45.94496" lon="4.73294">
        <ele>177</ele>
        <time>2018-03-14T12:16:59Z</time>
      </trkpt>
      <trkpt lat="45.94494" lon="4.73283">
        <ele>177</ele>
        <time>2018-03-14T12:17:00Z</time>
      </trkpt>
      <trkpt lat="45.94492" lon="4.73272">
        <ele>177</ele>
        <time>2018-03-14T12:17:01Z</time>
      </trkpt>
      <trkpt lat="45.94491" lon="4.7326">
        <ele>176</ele>
        <time>2018-03-14T12:17:02Z</time>
      </trkpt>
      <trkpt lat="45.94489" lon="4.73249">
        <ele>176</ele>
        <time>2018-03-14T12:17:03Z</time>
      </trkpt>
      <trkpt lat="45.94488" lon="4.73238">
        <ele>175</ele>
        <time>2018-03-14T12:17:04Z</time>
      </trkpt>
      <trkpt lat="45.94487" lon="4.73226">
        <ele>175</ele>
        <time>2018-03-14T12:17:05Z</time>
      </trkpt>
      <trkpt lat="45.94485" lon="4.73215">
        <ele>175</ele>
        <time>2018-03-14T12:17:06Z</time>
      </trkpt>
      <trkpt lat="45.94483" lon="4.73203">
        <ele>175</ele>
        <time>2018-03-14T12:17:07Z</time>
      </trkpt>
      <trkpt lat="45.94481" lon="4.73191">
        <ele>174</ele>
        <time>2018-03-14T12:17:08Z</time>
      </trkpt>
      <trkpt lat="45.94481" lon="4.7318">
        <ele>174</ele>
        <time>2018-03-14T12:17:09Z</time>
      </trkpt>
      <trkpt lat="45.9448" lon="4.7317">
        <ele>174</ele>
        <time>2018-03-14T12:17:10Z</time>
      </trkpt>
      <trkpt lat="45.94479" lon="4.73158">
        <ele>173</ele>
        <time>2018-03-14T12:17:11Z</time>
      </trkpt>
      <trkpt lat="45.94479" lon="4.73148">
        <ele>172</ele>
        <time>2018-03-14T12:17:12Z</time>
      </trkpt>
      <trkpt lat="45.94477" lon="4.73138">
        <ele>172</ele>
        <time>2018-03-14T12:17:13Z</time>
      </trkpt>
      <trkpt lat="45.94475" lon="4.73128">
        <ele>172</ele>
        <time>2018-03-14T12:17:14Z</time>
      </trkpt>
      <trkpt lat="45.94474" lon="4.73118">
        <ele>172</ele>
        <time>2018-03-14T12:17:15Z</time>
      </trkpt>
      <trkpt lat="45.94474" lon="4.73108">
        <ele>172</ele>
        <time>2018-03-14T12:17:16Z</time>
      </trkpt>
      <trkpt lat="45.94472" lon="4.73099">
        <ele>172</ele>
        <time>2018-03-14T12:17:17Z</time>
      </trkpt>
      <trkpt lat="45.9447" lon="4.73089">
        <ele>172</ele>
        <time>2018-03-14T12:17:18Z</time>
      </trkpt>
      <trkpt lat="45.94466" lon="4.73079">
        <ele>170</ele>
        <time>2018-03-14T12:17:19Z</time>
      </trkpt>
      <trkpt lat="45.94465" lon="4.73069">
        <ele>170</ele>
        <time>2018-03-14T12:17:20Z</time>
      </trkpt>
      <trkpt lat="45.94465" lon="4.7306">
        <ele>170</ele>
        <time>2018-03-14T12:17:21Z</time>
      </trkpt>
      <trkpt lat="45.94464" lon="4.73051">
        <ele>170</ele>
        <time>2018-03-14T12:17:22Z</time>
      </trkpt>
      <trkpt lat="45.9446" lon="4.73042">
        <ele>170</ele>
        <time>2018-03-14T12:17:23Z</time>
      </trkpt>
      <trkpt lat="45.94458" lon="4.73029">
        <ele>169</ele>
        <time>2018-03-14T12:17:25Z</time>
      </trkpt>
      <trkpt lat="45.94459" lon="4.73025">
        <ele>169</ele>
        <time>2018-03-14T12:17:26Z</time>
      </trkpt>
      <trkpt lat="45.94458" lon="4.73013">
        <ele>169</ele>
        <time>2018-03-14T12:17:28Z</time>
      </trkpt>
      <trkpt lat="45.94457" lon="4.73008">
        <ele>169</ele>
        <time>2018-03-14T12:17:29Z</time>
      </trkpt>
      <trkpt lat="45.94455" lon="4.72997">
        <ele>168</ele>
        <time>2018-03-14T12:17:31Z</time>
      </trkpt>
      <trkpt lat="45.94454" lon="4.72992">
        <ele>168</ele>
        <time>2018-03-14T12:17:32Z</time>
      </trkpt>
      <trkpt lat="45.94453" lon="4.72983">
        <ele>167</ele>
        <time>2018-03-14T12:17:34Z</time>
      </trkpt>
      <trkpt lat="45.94453" lon="4.72977">
        <ele>167</ele>
        <time>2018-03-14T12:17:35Z</time>
      </trkpt>
      <trkpt lat="45.94452" lon="4.72966">
        <ele>167</ele>
        <time>2018-03-14T12:17:37Z</time>
      </trkpt>
      <trkpt lat="45.94451" lon="4.7296">
        <ele>167</ele>
        <time>2018-03-14T12:17:38Z</time>
      </trkpt>
      <trkpt lat="45.94449" lon="4.72949">
        <ele>167</ele>
        <time>2018-03-14T12:17:40Z</time>
      </trkpt>
      <trkpt lat="45.94449" lon="4.72944">
        <ele>167</ele>
        <time>2018-03-14T12:17:41Z</time>
      </trkpt>
      <trkpt lat="45.94447" lon="4.72933">
        <ele>167</ele>
        <time>2018-03-14T12:17:43Z</time>
      </trkpt>
      <trkpt lat="45.94446" lon="4.72927">
        <ele>167</ele>
        <time>2018-03-14T12:17:44Z</time>
      </trkpt>
      <trkpt lat="45.94444" lon="4.72916">
        <ele>166</ele>
        <time>2018-03-14T12:17:46Z</time>
      </trkpt>
      <trkpt lat="45.94444" lon="4.7291">
        <ele>166</ele>
        <time>2018-03-14T12:17:47Z</time>
      </trkpt>
      <trkpt lat="45.94443" lon="4.72904">
        <ele>166</ele>
        <time>2018-03-14T12:17:48Z</time>
      </trkpt>
      <trkpt lat="45.94442" lon="4.72897">
        <ele>166</ele>
        <time>2018-03-14T12:17:49Z</time>
      </trkpt>
      <trkpt lat="45.94441" lon="4.72889">
        <ele>166</ele>
        <time>2018-03-14T12:17:50Z</time>
      </trkpt>
      <trkpt lat="45.9444" lon="4.72882">
        <ele>166</ele>
        <time>2018-03-14T12:17:51Z</time>
      </trkpt>
      <trkpt lat="45.94439" lon="4.72874">
        <ele>166</ele>
        <time>2018-03-14T12:17:52Z</time>
      </trkpt>
      <trkpt lat="45.94437" lon="4.72865">
        <ele>166</ele>
        <time>2018-03-14T12:17:53Z</time>
      </trkpt>
      <trkpt lat="45.94435" lon="4.72857">
        <ele>166</ele>
        <time>2018-03-14T12:17:54Z</time>
      </trkpt>
      <trkpt lat="45.94435" lon="4.72848">
        <ele>166</ele>
        <time>2018-03-14T12:17:55Z</time>
      </trkpt>
      <trkpt lat="45.94434" lon="4.7284">
        <ele>166</ele>
        <time>2018-03-14T12:17:56Z</time>
      </trkpt>
      <trkpt lat="45.94432" lon="4.7283">
        <ele>167</ele>
        <time>2018-03-14T12:17:57Z</time>
      </trkpt>
      <trkpt lat="45.9443" lon="4.7282">
        <ele>167</ele>
        <time>2018-03-14T12:17:58Z</time>
      </trkpt>
      <trkpt lat="45.94428" lon="4.7281">
        <ele>167</ele>
        <time>2018-03-14T12:17:59Z</time>
      </trkpt>
      <trkpt lat="45.94427" lon="4.728">
        <ele>167</ele>
        <time>2018-03-14T12:18:00Z</time>
      </trkpt>
      <trkpt lat="45.94426" lon="4.72789">
        <ele>168</ele>
        <time>2018-03-14T12:18:01Z</time>
      </trkpt>
      <trkpt lat="45.94424" lon="4.72779">
        <ele>168</ele>
        <time>2018-03-14T12:18:02Z</time>
      </trkpt>
      <trkpt lat="45.94423" lon="4.72768">
        <ele>169</ele>
        <time>2018-03-14T12:18:03Z</time>
      </trkpt>
      <trkpt lat="45.94422" lon="4.72758">
        <ele>170</ele>
        <time>2018-03-14T12:18:04Z</time>
      </trkpt>
      <trkpt lat="45.94422" lon="4.72747">
        <ele>171</ele>
        <time>2018-03-14T12:18:05Z</time>
      </trkpt>
      <trkpt lat="45.94421" lon="4.72737">
        <ele>171</ele>
        <time>2018-03-14T12:18:06Z</time>
      </trkpt>
      <trkpt lat="45.9442" lon="4.72727">
        <ele>171</ele>
        <time>2018-03-14T12:18:07Z</time>
      </trkpt>
      <trkpt lat="45.94418" lon="4.72717">
        <ele>171</ele>
        <time>2018-03-14T12:18:08Z</time>
      </trkpt>
      <trkpt lat="45.94418" lon="4.72707">
        <ele>172</ele>
        <time>2018-03-14T12:18:09Z</time>
      </trkpt>
      <trkpt lat="45.94416" lon="4.72697">
        <ele>173</ele>
        <time>2018-03-14T12:18:10Z</time>
      </trkpt>
      <trkpt lat="45.94414" lon="4.72686">
        <ele>173</ele>
        <time>2018-03-14T12:18:11Z</time>
      </trkpt>
      <trkpt lat="45.94413" lon="4.72677">
        <ele>173</ele>
        <time>2018-03-14T12:18:12Z</time>
      </trkpt>
      <trkpt lat="45.94413" lon="4.72668">
        <ele>174</ele>
        <time>2018-03-14T12:18:13Z</time>
      </trkpt>
      <trkpt lat="45.94411" lon="4.72658">
        <ele>174</ele>
        <time>2018-03-14T12:18:14Z</time>
      </trkpt>
      <trkpt lat="45.94409" lon="4.72648">
        <ele>174</ele>
        <time>2018-03-14T12:18:15Z</time>
      </trkpt>
      <trkpt lat="45.94408" lon="4.72639">
        <ele>174</ele>
        <time>2018-03-14T12:18:16Z</time>
      </trkpt>
      <trkpt lat="45.94407" lon="4.72629">
        <ele>174</ele>
        <time>2018-03-14T12:18:17Z</time>
      </trkpt>
      <trkpt lat="45.94406" lon="4.72619">
        <ele>173</ele>
        <time>2018-03-14T12:18:18Z</time>
      </trkpt>
      <trkpt lat="45.94406" lon="4.7261">
        <ele>173</ele>
        <time>2018-03-14T12:18:19Z</time>
      </trkpt>
      <trkpt lat="45.94402" lon="4.726">
        <ele>173</ele>
        <time>2018-03-14T12:18:20Z</time>
      </trkpt>
      <trkpt lat="45.94401" lon="4.72591">
        <ele>173</ele>
        <time>2018-03-14T12:18:21Z</time>
      </trkpt>
      <trkpt lat="45.94399" lon="4.72583">
        <ele>173</ele>
        <time>2018-03-14T12:18:22Z</time>
      </trkpt>
      <trkpt lat="45.94398" lon="4.72575">
        <ele>173</ele>
        <time>2018-03-14T12:18:23Z</time>
      </trkpt>
      <trkpt lat="45.94397" lon="4.72566">
        <ele>173</ele>
        <time>2018-03-14T12:18:24Z</time>
      </trkpt>
      <trkpt lat="45.94395" lon="4.72558">
        <ele>173</ele>
        <time>2018-03-14T12:18:25Z</time>
      </trkpt>
      <trkpt lat="45.94393" lon="4.7255">
        <ele>173</ele>
        <time>2018-03-14T12:18:26Z</time>
      </trkpt>
      <trkpt lat="45.94392" lon="4.72543">
        <ele>173</ele>
        <time>2018-03-14T12:18:27Z</time>
      </trkpt>
      <trkpt lat="45.9439" lon="4.72534">
        <ele>174</ele>
        <time>2018-03-14T12:18:28Z</time>
      </trkpt>
      <trkpt lat="45.9439" lon="4.72527">
        <ele>174</ele>
        <time>2018-03-14T12:18:29Z</time>
      </trkpt>
      <trkpt lat="45.94388" lon="4.7252">
        <ele>174</ele>
        <time>2018-03-14T12:18:30Z</time>
      </trkpt>
      <trkpt lat="45.94386" lon="4.7251">
        <ele>174</ele>
        <time>2018-03-14T12:18:31Z</time>
      </trkpt>
      <trkpt lat="45.94384" lon="4.72502">
        <ele>174</ele>
        <time>2018-03-14T12:18:32Z</time>
      </trkpt>
      <trkpt lat="45.94381" lon="4.72493">
        <ele>173</ele>
        <time>2018-03-14T12:18:33Z</time>
      </trkpt>
      <trkpt lat="45.94378" lon="4.72485">
        <ele>173</ele>
        <time>2018-03-14T12:18:34Z</time>
      </trkpt>
      <trkpt lat="45.94375" lon="4.72478">
        <ele>173</ele>
        <time>2018-03-14T12:18:35Z</time>
      </trkpt>
      <trkpt lat="45.94372" lon="4.7247">
        <ele>173</ele>
        <time>2018-03-14T12:18:36Z</time>
      </trkpt>
      <trkpt lat="45.94369" lon="4.72463">
        <ele>173</ele>
        <time>2018-03-14T12:18:37Z</time>
      </trkpt>
      <trkpt lat="45.94364" lon="4.72454">
        <ele>173</ele>
        <time>2018-03-14T12:18:38Z</time>
      </trkpt>
      <trkpt lat="45.94361" lon="4.72446">
        <ele>173</ele>
        <time>2018-03-14T12:18:39Z</time>
      </trkpt>
      <trkpt lat="45.94358" lon="4.7244">
        <ele>173</ele>
        <time>2018-03-14T12:18:40Z</time>
      </trkpt>
      <trkpt lat="45.94356" lon="4.72434">
        <ele>173</ele>
        <time>2018-03-14T12:18:41Z</time>
      </trkpt>
      <trkpt lat="45.94353" lon="4.72428">
        <ele>173</ele>
        <time>2018-03-14T12:18:42Z</time>
      </trkpt>
      <trkpt lat="45.94349" lon="4.72421">
        <ele>173</ele>
        <time>2018-03-14T12:18:43Z</time>
      </trkpt>
      <trkpt lat="45.94347" lon="4.72415">
        <ele>173</ele>
        <time>2018-03-14T12:18:44Z</time>
      </trkpt>
      <trkpt lat="45.94344" lon="4.72409">
        <ele>173</ele>
        <time>2018-03-14T12:18:45Z</time>
      </trkpt>
      <trkpt lat="45.94342" lon="4.72402">
        <ele>173</ele>
        <time>2018-03-14T12:18:46Z</time>
      </trkpt>
      <trkpt lat="45.94339" lon="4.72395">
        <ele>172</ele>
        <time>2018-03-14T12:18:47Z</time>
      </trkpt>
      <trkpt lat="45.94337" lon="4.7239">
        <ele>172</ele>
        <time>2018-03-14T12:18:48Z</time>
      </trkpt>
      <trkpt lat="45.94333" lon="4.72382">
        <ele>172</ele>
        <time>2018-03-14T12:18:49Z</time>
      </trkpt>
      <trkpt lat="45.9433" lon="4.72377">
        <ele>172</ele>
        <time>2018-03-14T12:18:50Z</time>
      </trkpt>
      <trkpt lat="45.94328" lon="4.7237">
        <ele>172</ele>
        <time>2018-03-14T12:18:51Z</time>
      </trkpt>
      <trkpt lat="45.94324" lon="4.72363">
        <ele>172</ele>
        <time>2018-03-14T12:18:52Z</time>
      </trkpt>
      <trkpt lat="45.94321" lon="4.72357">
        <ele>172</ele>
        <time>2018-03-14T12:18:53Z</time>
      </trkpt>
      <trkpt lat="45.94318" lon="4.72351">
        <ele>172</ele>
        <time>2018-03-14T12:18:54Z</time>
      </trkpt>
      <trkpt lat="45.94315" lon="4.72344">
        <ele>172</ele>
        <time>2018-03-14T12:18:55Z</time>
      </trkpt>
      <trkpt lat="45.94311" lon="4.72339">
        <ele>172</ele>
        <time>2018-03-14T12:18:56Z</time>
      </trkpt>
      <trkpt lat="45.94307" lon="4.72332">
        <ele>171</ele>
        <time>2018-03-14T12:18:57Z</time>
      </trkpt>
      <trkpt lat="45.94304" lon="4.72325">
        <ele>171</ele>
        <time>2018-03-14T12:18:58Z</time>
      </trkpt>
      <trkpt lat="45.94302" lon="4.72318">
        <ele>171</ele>
        <time>2018-03-14T12:18:59Z</time>
      </trkpt>
      <trkpt lat="45.94299" lon="4.72311">
        <ele>171</ele>
        <time>2018-03-14T12:19:00Z</time>
      </trkpt>
      <trkpt lat="45.94295" lon="4.72304">
        <ele>171</ele>
        <time>2018-03-14T12:19:01Z</time>
      </trkpt>
      <trkpt lat="45.94293" lon="4.72296">
        <ele>171</ele>
        <time>2018-03-14T12:19:02Z</time>
      </trkpt>
      <trkpt lat="45.94291" lon="4.72289">
        <ele>171</ele>
        <time>2018-03-14T12:19:03Z</time>
      </trkpt>
      <trkpt lat="45.94288" lon="4.72282">
        <ele>171</ele>
        <time>2018-03-14T12:19:04Z</time>
      </trkpt>
      <trkpt lat="45.94286" lon="4.72276">
        <ele>171</ele>
        <time>2018-03-14T12:19:05Z</time>
      </trkpt>
      <trkpt lat="45.94283" lon="4.7227">
        <ele>171</ele>
        <time>2018-03-14T12:19:06Z</time>
      </trkpt>
      <trkpt lat="45.94278" lon="4.72268">
        <ele>171</ele>
        <time>2018-03-14T12:19:07Z</time>
      </trkpt>
      <trkpt lat="45.94269" lon="4.72267">
        <ele>171</ele>
        <time>2018-03-14T12:19:09Z</time>
      </trkpt>
      <trkpt lat="45.94264" lon="4.7227">
        <ele>171</ele>
        <time>2018-03-14T12:19:10Z</time>
      </trkpt>
      <trkpt lat="45.94259" lon="4.72273">
        <ele>171</ele>
        <time>2018-03-14T12:19:11Z</time>
      </trkpt>
      <trkpt lat="45.94255" lon="4.72275">
        <ele>171</ele>
        <time>2018-03-14T12:19:12Z</time>
      </trkpt>
      <trkpt lat="45.9425" lon="4.72276">
        <ele>171</ele>
        <time>2018-03-14T12:19:13Z</time>
      </trkpt>
      <trkpt lat="45.94245" lon="4.72277">
        <ele>171</ele>
        <time>2018-03-14T12:19:14Z</time>
      </trkpt>
      <trkpt lat="45.94239" lon="4.72278">
        <ele>171</ele>
        <time>2018-03-14T12:19:15Z</time>
      </trkpt>
      <trkpt lat="45.94235" lon="4.72279">
        <ele>171</ele>
        <time>2018-03-14T12:19:16Z</time>
      </trkpt>
      <trkpt lat="45.94226" lon="4.7228">
        <ele>171</ele>
        <time>2018-03-14T12:19:18Z</time>
      </trkpt>
      <trkpt lat="45.94222" lon="4.7228">
        <ele>171</ele>
        <time>2018-03-14T12:19:19Z</time>
      </trkpt>
      <trkpt lat="45.94213" lon="4.72281">
        <ele>171</ele>
        <time>2018-03-14T12:19:21Z</time>
      </trkpt>
      <trkpt lat="45.94209" lon="4.72281">
        <ele>171</ele>
        <time>2018-03-14T12:19:22Z</time>
      </trkpt>
      <trkpt lat="45.94204" lon="4.72283">
        <ele>171</ele>
        <time>2018-03-14T12:19:23Z</time>
      </trkpt>
      <trkpt lat="45.942" lon="4.72285">
        <ele>171</ele>
        <time>2018-03-14T12:19:24Z</time>
      </trkpt>
      <trkpt lat="45.94191" lon="4.72285">
        <ele>171</ele>
        <time>2018-03-14T12:19:26Z</time>
      </trkpt>
      <trkpt lat="45.94186" lon="4.72285">
        <ele>171</ele>
        <time>2018-03-14T12:19:27Z</time>
      </trkpt>
      <trkpt lat="45.94178" lon="4.72284">
        <ele>171</ele>
        <time>2018-03-14T12:19:29Z</time>
      </trkpt>
      <trkpt lat="45.94174" lon="4.72284">
        <ele>171</ele>
        <time>2018-03-14T12:19:30Z</time>
      </trkpt>
      <trkpt lat="45.94165" lon="4.72283">
        <ele>171</ele>
        <time>2018-03-14T12:19:32Z</time>
      </trkpt>
      <trkpt lat="45.94161" lon="4.72284">
        <ele>171</ele>
        <time>2018-03-14T12:19:33Z</time>
      </trkpt>
      <trkpt lat="45.94152" lon="4.72281">
        <ele>171</ele>
        <time>2018-03-14T12:19:35Z</time>
      </trkpt>
      <trkpt lat="45.94149" lon="4.7228">
        <ele>171</ele>
        <time>2018-03-14T12:19:36Z</time>
      </trkpt>
      <trkpt lat="45.9414" lon="4.72279">
        <ele>171</ele>
        <time>2018-03-14T12:19:38Z</time>
      </trkpt>
      <trkpt lat="45.94136" lon="4.72277">
        <ele>171</ele>
        <time>2018-03-14T12:19:39Z</time>
      </trkpt>
      <trkpt lat="45.94132" lon="4.72274">
        <ele>171</ele>
        <time>2018-03-14T12:19:40Z</time>
      </trkpt>
      <trkpt lat="45.94128" lon="4.72271">
        <ele>171</ele>
        <time>2018-03-14T12:19:41Z</time>
      </trkpt>
      <trkpt lat="45.94123" lon="4.72268">
        <ele>171</ele>
        <time>2018-03-14T12:19:42Z</time>
      </trkpt>
      <trkpt lat="45.94119" lon="4.72266">
        <ele>171</ele>
        <time>2018-03-14T12:19:43Z</time>
      </trkpt>
      <trkpt lat="45.94114" lon="4.72263">
        <ele>171</ele>
        <time>2018-03-14T12:19:44Z</time>
      </trkpt>
      <trkpt lat="45.9411" lon="4.72261">
        <ele>171</ele>
        <time>2018-03-14T12:19:45Z</time>
      </trkpt>
      <trkpt lat="45.94105" lon="4.72261">
        <ele>171</ele>
        <time>2018-03-14T12:19:46Z</time>
      </trkpt>
      <trkpt lat="45.941" lon="4.7226">
        <ele>171</ele>
        <time>2018-03-14T12:19:47Z</time>
      </trkpt>
      <trkpt lat="45.94095" lon="4.72261">
        <ele>171</ele>
        <time>2018-03-14T12:19:48Z</time>
      </trkpt>
      <trkpt lat="45.94089" lon="4.72262">
        <ele>171</ele>
        <time>2018-03-14T12:19:49Z</time>
      </trkpt>
      <trkpt lat="45.94084" lon="4.72264">
        <ele>171</ele>
        <time>2018-03-14T12:19:50Z</time>
      </trkpt>
      <trkpt lat="45.94079" lon="4.72266">
        <ele>171</ele>
        <time>2018-03-14T12:19:51Z</time>
      </trkpt>
      <trkpt lat="45.94075" lon="4.72268">
        <ele>171</ele>
        <time>2018-03-14T12:19:52Z</time>
      </trkpt>
      <trkpt lat="45.94071" lon="4.72272">
        <ele>171</ele>
        <time>2018-03-14T12:19:53Z</time>
      </trkpt>
      <trkpt lat="45.94066" lon="4.72277">
        <ele>171</ele>
        <time>2018-03-14T12:19:54Z</time>
      </trkpt>
      <trkpt lat="45.94063" lon="4.72281">
        <ele>171</ele>
        <time>2018-03-14T12:19:55Z</time>
      </trkpt>
      <trkpt lat="45.94058" lon="4.72286">
        <ele>171</ele>
        <time>2018-03-14T12:19:56Z</time>
      </trkpt>
      <trkpt lat="45.94054" lon="4.72291">
        <ele>171</ele>
        <time>2018-03-14T12:19:57Z</time>
      </trkpt>
      <trkpt lat="45.94051" lon="4.72296">
        <ele>171</ele>
        <time>2018-03-14T12:19:58Z</time>
      </trkpt>
      <trkpt lat="45.94046" lon="4.72302">
        <ele>171</ele>
        <time>2018-03-14T12:19:59Z</time>
      </trkpt>
      <trkpt lat="45.94042" lon="4.72306">
        <ele>171</ele>
        <time>2018-03-14T12:20:00Z</time>
      </trkpt>
      <trkpt lat="45.94038" lon="4.72311">
        <ele>171</ele>
        <time>2018-03-14T12:20:01Z</time>
      </trkpt>
      <trkpt lat="45.94035" lon="4.72318">
        <ele>171</ele>
        <time>2018-03-14T12:20:02Z</time>
      </trkpt>
      <trkpt lat="45.94032" lon="4.72322">
        <ele>171</ele>
        <time>2018-03-14T12:20:03Z</time>
      </trkpt>
      <trkpt lat="45.94028" lon="4.72326">
        <ele>171</ele>
        <time>2018-03-14T12:20:04Z</time>
      </trkpt>
      <trkpt lat="45.94024" lon="4.72331">
        <ele>171</ele>
        <time>2018-03-14T12:20:05Z</time>
      </trkpt>
      <trkpt lat="45.9402" lon="4.72336">
        <ele>171</ele>
        <time>2018-03-14T12:20:06Z</time>
      </trkpt>
      <trkpt lat="45.94017" lon="4.72341">
        <ele>171</ele>
        <time>2018-03-14T12:20:07Z</time>
      </trkpt>
      <trkpt lat="45.94013" lon="4.72345">
        <ele>171</ele>
        <time>2018-03-14T12:20:08Z</time>
      </trkpt>
      <trkpt lat="45.94009" lon="4.72349">
        <ele>171</ele>
        <time>2018-03-14T12:20:09Z</time>
      </trkpt>
      <trkpt lat="45.94005" lon="4.72354">
        <ele>171</ele>
        <time>2018-03-14T12:20:10Z</time>
      </trkpt>
      <trkpt lat="45.94" lon="4.72359">
        <ele>171</ele>
        <time>2018-03-14T12:20:11Z</time>
      </trkpt>
      <trkpt lat="45.93997" lon="4.72365">
        <ele>171</ele>
        <time>2018-03-14T12:20:12Z</time>
      </trkpt>
      <trkpt lat="45.93993" lon="4.72369">
        <ele>171</ele>
        <time>2018-03-14T12:20:13Z</time>
      </trkpt>
      <trkpt lat="45.9399" lon="4.72374">
        <ele>171</ele>
        <time>2018-03-14T12:20:14Z</time>
      </trkpt>
      <trkpt lat="45.93987" lon="4.72379">
        <ele>171</ele>
        <time>2018-03-14T12:20:15Z</time>
      </trkpt>
      <trkpt lat="45.93984" lon="4.72383">
        <ele>171</ele>
        <time>2018-03-14T12:20:16Z</time>
      </trkpt>
      <trkpt lat="45.9398" lon="4.72388">
        <ele>171</ele>
        <time>2018-03-14T12:20:17Z</time>
      </trkpt>
      <trkpt lat="45.93977" lon="4.72392">
        <ele>171</ele>
        <time>2018-03-14T12:20:18Z</time>
      </trkpt>
      <trkpt lat="45.93974" lon="4.72397">
        <ele>171</ele>
        <time>2018-03-14T12:20:19Z</time>
      </trkpt>
      <trkpt lat="45.93967" lon="4.72405">
        <ele>171</ele>
        <time>2018-03-14T12:20:21Z</time>
      </trkpt>
      <trkpt lat="45.93963" lon="4.72408">
        <ele>171</ele>
        <time>2018-03-14T12:20:22Z</time>
      </trkpt>
      <trkpt lat="45.93956" lon="4.72415">
        <ele>171</ele>
        <time>2018-03-14T12:20:24Z</time>
      </trkpt>
      <trkpt lat="45.93952" lon="4.7242">
        <ele>171</ele>
        <time>2018-03-14T12:20:25Z</time>
      </trkpt>
      <trkpt lat="45.93946" lon="4.72427">
        <ele>171</ele>
        <time>2018-03-14T12:20:27Z</time>
      </trkpt>
      <trkpt lat="45.93942" lon="4.72431">
        <ele>171</ele>
        <time>2018-03-14T12:20:28Z</time>
      </trkpt>
      <trkpt lat="45.93939" lon="4.72436">
        <ele>171</ele>
        <time>2018-03-14T12:20:29Z</time>
      </trkpt>
      <trkpt lat="45.93936" lon="4.7244">
        <ele>171</ele>
        <time>2018-03-14T12:20:30Z</time>
      </trkpt>
      <trkpt lat="45.93932" lon="4.72445">
        <ele>171</ele>
        <time>2018-03-14T12:20:31Z</time>
      </trkpt>
      <trkpt lat="45.93929" lon="4.72449">
        <ele>171</ele>
        <time>2018-03-14T12:20:32Z</time>
      </trkpt>
      <trkpt lat="45.93923" lon="4.72458">
        <ele>171</ele>
        <time>2018-03-14T12:20:34Z</time>
      </trkpt>
      <trkpt lat="45.93919" lon="4.72462">
        <ele>171</ele>
        <time>2018-03-14T12:20:35Z</time>
      </trkpt>
      <trkpt lat="45.93912" lon="4.7247">
        <ele>172</ele>
        <time>2018-03-14T12:20:37Z</time>
      </trkpt>
      <trkpt lat="45.93909" lon="4.72474">
        <ele>172</ele>
        <time>2018-03-14T12:20:38Z</time>
      </trkpt>
      <trkpt lat="45.93903" lon="4.72481">
        <ele>172</ele>
        <time>2018-03-14T12:20:40Z</time>
      </trkpt>
      <trkpt lat="45.939" lon="4.72485">
        <ele>172</ele>
        <time>2018-03-14T12:20:41Z</time>
      </trkpt>
      <trkpt lat="45.93894" lon="4.72492">
        <ele>172</ele>
        <time>2018-03-14T12:20:43Z</time>
      </trkpt>
      <trkpt lat="45.93891" lon="4.72496">
        <ele>172</ele>
        <time>2018-03-14T12:20:44Z</time>
      </trkpt>
      <trkpt lat="45.93884" lon="4.72504">
        <ele>173</ele>
        <time>2018-03-14T12:20:46Z</time>
      </trkpt>
      <trkpt lat="45.93881" lon="4.72508">
        <ele>173</ele>
        <time>2018-03-14T12:20:47Z</time>
      </trkpt>
      <trkpt lat="45.93875" lon="4.72515">
        <ele>173</ele>
        <time>2018-03-14T12:20:49Z</time>
      </trkpt>
      <trkpt lat="45.93871" lon="4.72517">
        <ele>173</ele>
        <time>2018-03-14T12:20:50Z</time>
      </trkpt>
      <trkpt lat="45.93863" lon="4.72517">
        <ele>173</ele>
        <time>2018-03-14T12:20:52Z</time>
      </trkpt>
      <trkpt lat="45.93859" lon="4.72515">
        <ele>173</ele>
        <time>2018-03-14T12:20:53Z</time>
      </trkpt>
      <trkpt lat="45.93853" lon="4.72508">
        <ele>173</ele>
        <time>2018-03-14T12:20:55Z</time>
      </trkpt>
      <trkpt lat="45.9385" lon="4.72504">
        <ele>174</ele>
        <time>2018-03-14T12:20:56Z</time>
      </trkpt>
      <trkpt lat="45.93843" lon="4.72498">
        <ele>173</ele>
        <time>2018-03-14T12:20:58Z</time>
      </trkpt>
      <trkpt lat="45.93839" lon="4.72496">
        <ele>174</ele>
        <time>2018-03-14T12:20:59Z</time>
      </trkpt>
      <trkpt lat="45.93836" lon="4.72493">
        <ele>174</ele>
        <time>2018-03-14T12:21:00Z</time>
      </trkpt>
      <trkpt lat="45.93825" lon="4.72479">
        <ele>173</ele>
        <time>2018-03-14T12:21:01Z</time>
      </trkpt>
      <trkpt lat="45.93821" lon="4.72475">
        <ele>172</ele>
        <time>2018-03-14T12:21:02Z</time>
      </trkpt>
      <trkpt lat="45.93819" lon="4.72467">
        <ele>172</ele>
        <time>2018-03-14T12:21:03Z</time>
      </trkpt>
      <trkpt lat="45.93813" lon="4.7246">
        <ele>172</ele>
        <time>2018-03-14T12:21:05Z</time>
      </trkpt>
      <trkpt lat="45.93809" lon="4.72459">
        <ele>172</ele>
        <time>2018-03-14T12:21:06Z</time>
      </trkpt>
      <trkpt lat="45.93804" lon="4.72453">
        <ele>172</ele>
        <time>2018-03-14T12:21:08Z</time>
      </trkpt>
      <trkpt lat="45.938" lon="4.72451">
        <ele>172</ele>
        <time>2018-03-14T12:21:09Z</time>
      </trkpt>
      <trkpt lat="45.93793" lon="4.72443">
        <ele>172</ele>
        <time>2018-03-14T12:21:11Z</time>
      </trkpt>
      <trkpt lat="45.9379" lon="4.72439">
        <ele>172</ele>
        <time>2018-03-14T12:21:12Z</time>
      </trkpt>
      <trkpt lat="45.93786" lon="4.72436">
        <ele>172</ele>
        <time>2018-03-14T12:21:13Z</time>
      </trkpt>
      <trkpt lat="45.93782" lon="4.72431">
        <ele>172</ele>
        <time>2018-03-14T12:21:14Z</time>
      </trkpt>
      <trkpt lat="45.93778" lon="4.72425">
        <ele>171</ele>
        <time>2018-03-14T12:21:16Z</time>
      </trkpt>
      <trkpt lat="45.93774" lon="4.72421">
        <ele>171</ele>
        <time>2018-03-14T12:21:17Z</time>
      </trkpt>
      <trkpt lat="45.93767" lon="4.72415">
        <ele>171</ele>
        <time>2018-03-14T12:21:19Z</time>
      </trkpt>
      <trkpt lat="45.93763" lon="4.72412">
        <ele>171</ele>
        <time>2018-03-14T12:21:20Z</time>
      </trkpt>
      <trkpt lat="45.93757" lon="4.72407">
        <ele>171</ele>
        <time>2018-03-14T12:21:22Z</time>
      </trkpt>
      <trkpt lat="45.93753" lon="4.72403">
        <ele>171</ele>
        <time>2018-03-14T12:21:23Z</time>
      </trkpt>
      <trkpt lat="45.93747" lon="4.72395">
        <ele>171</ele>
        <time>2018-03-14T12:21:25Z</time>
      </trkpt>
      <trkpt lat="45.93744" lon="4.72391">
        <ele>171</ele>
        <time>2018-03-14T12:21:26Z</time>
      </trkpt>
      <trkpt lat="45.93739" lon="4.72385">
        <ele>171</ele>
        <time>2018-03-14T12:21:28Z</time>
      </trkpt>
      <trkpt lat="45.93735" lon="4.72382">
        <ele>171</ele>
        <time>2018-03-14T12:21:29Z</time>
      </trkpt>
      <trkpt lat="45.93728" lon="4.72376">
        <ele>171</ele>
        <time>2018-03-14T12:21:31Z</time>
      </trkpt>
      <trkpt lat="45.93725" lon="4.72372">
        <ele>172</ele>
        <time>2018-03-14T12:21:32Z</time>
      </trkpt>
      <trkpt lat="45.93718" lon="4.72365">
        <ele>172</ele>
        <time>2018-03-14T12:21:34Z</time>
      </trkpt>
      <trkpt lat="45.93714" lon="4.72362">
        <ele>172</ele>
        <time>2018-03-14T12:21:35Z</time>
      </trkpt>
      <trkpt lat="45.9371" lon="4.72359">
        <ele>172</ele>
        <time>2018-03-14T12:21:36Z</time>
      </trkpt>
      <trkpt lat="45.93706" lon="4.72356">
        <ele>171</ele>
        <time>2018-03-14T12:21:37Z</time>
      </trkpt>
      <trkpt lat="45.93702" lon="4.72354">
        <ele>171</ele>
        <time>2018-03-14T12:21:38Z</time>
      </trkpt>
      <trkpt lat="45.93697" lon="4.72349">
        <ele>171</ele>
        <time>2018-03-14T12:21:39Z</time>
      </trkpt>
      <trkpt lat="45.9369" lon="4.72343">
        <ele>171</ele>
        <time>2018-03-14T12:21:42Z</time>
      </trkpt>
      <trkpt lat="45.93685" lon="4.72338">
        <ele>171</ele>
        <time>2018-03-14T12:21:43Z</time>
      </trkpt>
      <trkpt lat="45.93677" lon="4.72332">
        <ele>171</ele>
        <time>2018-03-14T12:21:45Z</time>
      </trkpt>
      <trkpt lat="45.93674" lon="4.72328">
        <ele>171</ele>
        <time>2018-03-14T12:21:46Z</time>
      </trkpt>
      <trkpt lat="45.93668" lon="4.72323">
        <ele>171</ele>
        <time>2018-03-14T12:21:49Z</time>
      </trkpt>
      <trkpt lat="45.93666" lon="4.72321">
        <ele>171</ele>
        <time>2018-03-14T12:21:50Z</time>
      </trkpt>
      <trkpt lat="45.93664" lon="4.72318">
        <ele>172</ele>
        <time>2018-03-14T12:21:51Z</time>
      </trkpt>
      <trkpt lat="45.93657" lon="4.72311">
        <ele>172</ele>
        <time>2018-03-14T12:21:52Z</time>
      </trkpt>
      <trkpt lat="45.9365" lon="4.72304">
        <ele>172</ele>
        <time>2018-03-14T12:21:54Z</time>
      </trkpt>
      <trkpt lat="45.93647" lon="4.72301">
        <ele>172</ele>
        <time>2018-03-14T12:21:55Z</time>
      </trkpt>
      <trkpt lat="45.9364" lon="4.72296">
        <ele>172</ele>
        <time>2018-03-14T12:21:57Z</time>
      </trkpt>
      <trkpt lat="45.93637" lon="4.72294">
        <ele>172</ele>
        <time>2018-03-14T12:21:58Z</time>
      </trkpt>
      <trkpt lat="45.9363" lon="4.72288">
        <ele>172</ele>
        <time>2018-03-14T12:22:00Z</time>
      </trkpt>
      <trkpt lat="45.93626" lon="4.72284">
        <ele>172</ele>
        <time>2018-03-14T12:22:01Z</time>
      </trkpt>
      <trkpt lat="45.93621" lon="4.72279">
        <ele>172</ele>
        <time>2018-03-14T12:22:03Z</time>
      </trkpt>
      <trkpt lat="45.93617" lon="4.72275">
        <ele>172</ele>
        <time>2018-03-14T12:22:04Z</time>
      </trkpt>
      <trkpt lat="45.9361" lon="4.72267">
        <ele>172</ele>
        <time>2018-03-14T12:22:06Z</time>
      </trkpt>
      <trkpt lat="45.93606" lon="4.72263">
        <ele>173</ele>
        <time>2018-03-14T12:22:07Z</time>
      </trkpt>
      <trkpt lat="45.93599" lon="4.72255">
        <ele>173</ele>
        <time>2018-03-14T12:22:09Z</time>
      </trkpt>
      <trkpt lat="45.93595" lon="4.72251">
        <ele>173</ele>
        <time>2018-03-14T12:22:10Z</time>
      </trkpt>
      <trkpt lat="45.93588" lon="4.72244">
        <ele>173</ele>
        <time>2018-03-14T12:22:12Z</time>
      </trkpt>
      <trkpt lat="45.93585" lon="4.72241">
        <ele>173</ele>
        <time>2018-03-14T12:22:13Z</time>
      </trkpt>
      <trkpt lat="45.93578" lon="4.72234">
        <ele>173</ele>
        <time>2018-03-14T12:22:15Z</time>
      </trkpt>
      <trkpt lat="45.93577" lon="4.72232">
        <ele>173</ele>
        <time>2018-03-14T12:22:16Z</time>
      </trkpt>
      <trkpt lat="45.93571" lon="4.72226">
        <ele>173</ele>
        <time>2018-03-14T12:22:18Z</time>
      </trkpt>
      <trkpt lat="45.93569" lon="4.72225">
        <ele>173</ele>
        <time>2018-03-14T12:22:19Z</time>
      </trkpt>
      <trkpt lat="45.93564" lon="4.72221">
        <ele>173</ele>
        <time>2018-03-14T12:22:22Z</time>
      </trkpt>
      <trkpt lat="45.93564" lon="4.7222">
        <ele>173</ele>
        <time>2018-03-14T12:22:23Z</time>
      </trkpt>
      <trkpt lat="45.93563" lon="4.72218">
        <ele>173</ele>
        <time>2018-03-14T12:22:28Z</time>
      </trkpt>
      <trkpt lat="45.93562" lon="4.72218">
        <ele>173</ele>
        <time>2018-03-14T12:22:29Z</time>
      </trkpt>
      <trkpt lat="45.93554" lon="4.72214">
        <ele>173</ele>
        <time>2018-03-14T12:22:37Z</time>
      </trkpt>
      <trkpt lat="45.93552" lon="4.72216">
        <ele>173</ele>
        <time>2018-03-14T12:22:38Z</time>
      </trkpt>
      <trkpt lat="45.93548" lon="4.72224">
        <ele>172</ele>
        <time>2018-03-14T12:22:41Z</time>
      </trkpt>
      <trkpt lat="45.93546" lon="4.72227">
        <ele>172</ele>
        <time>2018-03-14T12:22:42Z</time>
      </trkpt>
      <trkpt lat="45.93543" lon="4.72234">
        <ele>172</ele>
        <time>2018-03-14T12:22:44Z</time>
      </trkpt>
      <trkpt lat="45.93542" lon="4.72238">
        <ele>172</ele>
        <time>2018-03-14T12:22:45Z</time>
      </trkpt>
      <trkpt lat="45.93539" lon="4.72246">
        <ele>172</ele>
        <time>2018-03-14T12:22:47Z</time>
      </trkpt>
      <trkpt lat="45.93538" lon="4.7225">
        <ele>172</ele>
        <time>2018-03-14T12:22:48Z</time>
      </trkpt>
      <trkpt lat="45.93535" lon="4.72257">
        <ele>172</ele>
        <time>2018-03-14T12:22:50Z</time>
      </trkpt>
      <trkpt lat="45.9353" lon="4.72268">
        <ele>172</ele>
        <time>2018-03-14T12:22:51Z</time>
      </trkpt>
      <trkpt lat="45.93526" lon="4.72277">
        <ele>172</ele>
        <time>2018-03-14T12:22:53Z</time>
      </trkpt>
      <trkpt lat="45.93524" lon="4.72282">
        <ele>172</ele>
        <time>2018-03-14T12:22:54Z</time>
      </trkpt>
      <trkpt lat="45.93518" lon="4.72292">
        <ele>172</ele>
        <time>2018-03-14T12:22:56Z</time>
      </trkpt>
      <trkpt lat="45.93515" lon="4.72298">
        <ele>172</ele>
        <time>2018-03-14T12:22:57Z</time>
      </trkpt>
      <trkpt lat="45.93512" lon="4.72304">
        <ele>173</ele>
        <time>2018-03-14T12:22:58Z</time>
      </trkpt>
      <trkpt lat="45.93507" lon="4.7231">
        <ele>173</ele>
        <time>2018-03-14T12:22:59Z</time>
      </trkpt>
      <trkpt lat="45.93503" lon="4.72316">
        <ele>173</ele>
        <time>2018-03-14T12:23:00Z</time>
      </trkpt>
      <trkpt lat="45.93499" lon="4.72321">
        <ele>173</ele>
        <time>2018-03-14T12:23:01Z</time>
      </trkpt>
      <trkpt lat="45.93495" lon="4.72326">
        <ele>173</ele>
        <time>2018-03-14T12:23:02Z</time>
      </trkpt>
      <trkpt lat="45.93492" lon="4.72332">
        <ele>173</ele>
        <time>2018-03-14T12:23:03Z</time>
      </trkpt>
      <trkpt lat="45.93489" lon="4.72337">
        <ele>173</ele>
        <time>2018-03-14T12:23:04Z</time>
      </trkpt>
      <trkpt lat="45.93485" lon="4.72342">
        <ele>173</ele>
        <time>2018-03-14T12:23:05Z</time>
      </trkpt>
      <trkpt lat="45.93481" lon="4.72347">
        <ele>173</ele>
        <time>2018-03-14T12:23:06Z</time>
      </trkpt>
      <trkpt lat="45.93478" lon="4.72352">
        <ele>173</ele>
        <time>2018-03-14T12:23:07Z</time>
      </trkpt>
      <trkpt lat="45.93471" lon="4.7236">
        <ele>173</ele>
        <time>2018-03-14T12:23:09Z</time>
      </trkpt>
      <trkpt lat="45.93468" lon="4.72364">
        <ele>173</ele>
        <time>2018-03-14T12:23:10Z</time>
      </trkpt>
      <trkpt lat="45.93464" lon="4.72369">
        <ele>173</ele>
        <time>2018-03-14T12:23:11Z</time>
      </trkpt>
      <trkpt lat="45.93459" lon="4.72372">
        <ele>173</ele>
        <time>2018-03-14T12:23:12Z</time>
      </trkpt>
      <trkpt lat="45.93457" lon="4.72377">
        <ele>173</ele>
        <time>2018-03-14T12:23:13Z</time>
      </trkpt>
      <trkpt lat="45.93452" lon="4.72381">
        <ele>173</ele>
        <time>2018-03-14T12:23:14Z</time>
      </trkpt>
      <trkpt lat="45.93447" lon="4.72385">
        <ele>173</ele>
        <time>2018-03-14T12:23:15Z</time>
      </trkpt>
      <trkpt lat="45.93442" lon="4.7239">
        <ele>173</ele>
        <time>2018-03-14T12:23:16Z</time>
      </trkpt>
      <trkpt lat="45.93438" lon="4.72393">
        <ele>173</ele>
        <time>2018-03-14T12:23:17Z</time>
      </trkpt>
      <trkpt lat="45.93433" lon="4.72398">
        <ele>174</ele>
        <time>2018-03-14T12:23:18Z</time>
      </trkpt>
      <trkpt lat="45.9343" lon="4.724">
        <ele>174</ele>
        <time>2018-03-14T12:23:19Z</time>
      </trkpt>
      <trkpt lat="45.93424" lon="4.72403">
        <ele>174</ele>
        <time>2018-03-14T12:23:20Z</time>
      </trkpt>
      <trkpt lat="45.9342" lon="4.72405">
        <ele>174</ele>
        <time>2018-03-14T12:23:21Z</time>
      </trkpt>
      <trkpt lat="45.93416" lon="4.72407">
        <ele>174</ele>
        <time>2018-03-14T12:23:22Z</time>
      </trkpt>
      <trkpt lat="45.9341" lon="4.72409">
        <ele>174</ele>
        <time>2018-03-14T12:23:23Z</time>
      </trkpt>
      <trkpt lat="45.93405" lon="4.7241">
        <ele>174</ele>
        <time>2018-03-14T12:23:24Z</time>
      </trkpt>
      <trkpt lat="45.93396" lon="4.72408">
        <ele>174</ele>
        <time>2018-03-14T12:23:26Z</time>
      </trkpt>
      <trkpt lat="45.93391" lon="4.72408">
        <ele>174</ele>
        <time>2018-03-14T12:23:27Z</time>
      </trkpt>
      <trkpt lat="45.93385" lon="4.72415">
        <ele>174</ele>
        <time>2018-03-14T12:23:29Z</time>
      </trkpt>
      <trkpt lat="45.93383" lon="4.72421">
        <ele>173</ele>
        <time>2018-03-14T12:23:30Z</time>
      </trkpt>
      <trkpt lat="45.93384" lon="4.72428">
        <ele>173</ele>
        <time>2018-03-14T12:23:31Z</time>
      </trkpt>
      <trkpt lat="45.93386" lon="4.72434">
        <ele>173</ele>
        <time>2018-03-14T12:23:32Z</time>
      </trkpt>
      <trkpt lat="45.9339" lon="4.72445">
        <ele>173</ele>
        <time>2018-03-14T12:23:34Z</time>
      </trkpt>
      <trkpt lat="45.9339" lon="4.72451">
        <ele>173</ele>
        <time>2018-03-14T12:23:35Z</time>
      </trkpt>
      <trkpt lat="45.93387" lon="4.72462">
        <ele>173</ele>
        <time>2018-03-14T12:23:37Z</time>
      </trkpt>
      <trkpt lat="45.93384" lon="4.72467">
        <ele>173</ele>
        <time>2018-03-14T12:23:38Z</time>
      </trkpt>
      <trkpt lat="45.93377" lon="4.72473">
        <ele>173</ele>
        <time>2018-03-14T12:23:40Z</time>
      </trkpt>
      <trkpt lat="45.93374" lon="4.72478">
        <ele>173</ele>
        <time>2018-03-14T12:23:41Z</time>
      </trkpt>
      <trkpt lat="45.93367" lon="4.72486">
        <ele>173</ele>
        <time>2018-03-14T12:23:43Z</time>
      </trkpt>
      <trkpt lat="45.93364" lon="4.7249">
        <ele>173</ele>
        <time>2018-03-14T12:23:44Z</time>
      </trkpt>
      <trkpt lat="45.9336" lon="4.72494">
        <ele>173</ele>
        <time>2018-03-14T12:23:45Z</time>
      </trkpt>
      <trkpt lat="45.93357" lon="4.72499">
        <ele>173</ele>
        <time>2018-03-14T12:23:46Z</time>
      </trkpt>
      <trkpt lat="45.93353" lon="4.72502">
        <ele>172</ele>
        <time>2018-03-14T12:23:47Z</time>
      </trkpt>
      <trkpt lat="45.93349" lon="4.72507">
        <ele>172</ele>
        <time>2018-03-14T12:23:48Z</time>
      </trkpt>
      <trkpt lat="45.93347" lon="4.72513">
        <ele>172</ele>
        <time>2018-03-14T12:23:49Z</time>
      </trkpt>
      <trkpt lat="45.93343" lon="4.72518">
        <ele>172</ele>
        <time>2018-03-14T12:23:50Z</time>
      </trkpt>
      <trkpt lat="45.93339" lon="4.72521">
        <ele>172</ele>
        <time>2018-03-14T12:23:51Z</time>
      </trkpt>
      <trkpt lat="45.93335" lon="4.72526">
        <ele>172</ele>
        <time>2018-03-14T12:23:52Z</time>
      </trkpt>
      <trkpt lat="45.93331" lon="4.7253">
        <ele>172</ele>
        <time>2018-03-14T12:23:53Z</time>
      </trkpt>
      <trkpt lat="45.93327" lon="4.72534">
        <ele>172</ele>
        <time>2018-03-14T12:23:54Z</time>
      </trkpt>
      <trkpt lat="45.93323" lon="4.72539">
        <ele>172</ele>
        <time>2018-03-14T12:23:55Z</time>
      </trkpt>
      <trkpt lat="45.93319" lon="4.72544">
        <ele>172</ele>
        <time>2018-03-14T12:23:56Z</time>
      </trkpt>
      <trkpt lat="45.93315" lon="4.72549">
        <ele>172</ele>
        <time>2018-03-14T12:23:57Z</time>
      </trkpt>
      <trkpt lat="45.93311" lon="4.72554">
        <ele>172</ele>
        <time>2018-03-14T12:23:58Z</time>
      </trkpt>
      <trkpt lat="45.93307" lon="4.72559">
        <ele>172</ele>
        <time>2018-03-14T12:23:59Z</time>
      </trkpt>
      <trkpt lat="45.93302" lon="4.72564">
        <ele>172</ele>
        <time>2018-03-14T12:24:00Z</time>
      </trkpt>
      <trkpt lat="45.93298" lon="4.72568">
        <ele>172</ele>
        <time>2018-03-14T12:24:01Z</time>
      </trkpt>
      <trkpt lat="45.93294" lon="4.72575">
        <ele>171</ele>
        <time>2018-03-14T12:24:02Z</time>
      </trkpt>
      <trkpt lat="45.9329" lon="4.7258">
        <ele>171</ele>
        <time>2018-03-14T12:24:03Z</time>
      </trkpt>
      <trkpt lat="45.93285" lon="4.72584">
        <ele>170</ele>
        <time>2018-03-14T12:24:04Z</time>
      </trkpt>
      <trkpt lat="45.93281" lon="4.72587">
        <ele>170</ele>
        <time>2018-03-14T12:24:05Z</time>
      </trkpt>
      <trkpt lat="45.93276" lon="4.72591">
        <ele>170</ele>
        <time>2018-03-14T12:24:06Z</time>
      </trkpt>
      <trkpt lat="45.93273" lon="4.72596">
        <ele>170</ele>
        <time>2018-03-14T12:24:07Z</time>
      </trkpt>
      <trkpt lat="45.93269" lon="4.72601">
        <ele>170</ele>
        <time>2018-03-14T12:24:08Z</time>
      </trkpt>
      <trkpt lat="45.93265" lon="4.72605">
        <ele>170</ele>
        <time>2018-03-14T12:24:09Z</time>
      </trkpt>
      <trkpt lat="45.93261" lon="4.72609">
        <ele>170</ele>
        <time>2018-03-14T12:24:10Z</time>
      </trkpt>
      <trkpt lat="45.93257" lon="4.72614">
        <ele>170</ele>
        <time>2018-03-14T12:24:11Z</time>
      </trkpt>
      <trkpt lat="45.93253" lon="4.72621">
        <ele>170</ele>
        <time>2018-03-14T12:24:12Z</time>
      </trkpt>
      <trkpt lat="45.9325" lon="4.72625">
        <ele>170</ele>
        <time>2018-03-14T12:24:13Z</time>
      </trkpt>
      <trkpt lat="45.93247" lon="4.72632">
        <ele>170</ele>
        <time>2018-03-14T12:24:14Z</time>
      </trkpt>
      <trkpt lat="45.93244" lon="4.72637">
        <ele>170</ele>
        <time>2018-03-14T12:24:15Z</time>
      </trkpt>
      <trkpt lat="45.93241" lon="4.72642">
        <ele>170</ele>
        <time>2018-03-14T12:24:16Z</time>
      </trkpt>
      <trkpt lat="45.93237" lon="4.72646">
        <ele>170</ele>
        <time>2018-03-14T12:24:17Z</time>
      </trkpt>
      <trkpt lat="45.93234" lon="4.7265">
        <ele>170</ele>
        <time>2018-03-14T12:24:18Z</time>
      </trkpt>
      <trkpt lat="45.9323" lon="4.72654">
        <ele>170</ele>
        <time>2018-03-14T12:24:19Z</time>
      </trkpt>
      <trkpt lat="45.93227" lon="4.72659">
        <ele>170</ele>
        <time>2018-03-14T12:24:20Z</time>
      </trkpt>
      <trkpt lat="45.93223" lon="4.72662">
        <ele>170</ele>
        <time>2018-03-14T12:24:21Z</time>
      </trkpt>
      <trkpt lat="45.93219" lon="4.72666">
        <ele>170</ele>
        <time>2018-03-14T12:24:22Z</time>
      </trkpt>
      <trkpt lat="45.93215" lon="4.7267">
        <ele>169</ele>
        <time>2018-03-14T12:24:23Z</time>
      </trkpt>
      <trkpt lat="45.93211" lon="4.72675">
        <ele>169</ele>
        <time>2018-03-14T12:24:24Z</time>
      </trkpt>
      <trkpt lat="45.93204" lon="4.72682">
        <ele>169</ele>
        <time>2018-03-14T12:24:26Z</time>
      </trkpt>
      <trkpt lat="45.932" lon="4.72686">
        <ele>169</ele>
        <time>2018-03-14T12:24:27Z</time>
      </trkpt>
      <trkpt lat="45.93197" lon="4.72692">
        <ele>169</ele>
        <time>2018-03-14T12:24:28Z</time>
      </trkpt>
      <trkpt lat="45.93192" lon="4.72695">
        <ele>169</ele>
        <time>2018-03-14T12:24:29Z</time>
      </trkpt>
      <trkpt lat="45.93188" lon="4.72699">
        <ele>169</ele>
        <time>2018-03-14T12:24:30Z</time>
      </trkpt>
      <trkpt lat="45.93184" lon="4.72704">
        <ele>169</ele>
        <time>2018-03-14T12:24:31Z</time>
      </trkpt>
      <trkpt lat="45.93181" lon="4.72709">
        <ele>169</ele>
        <time>2018-03-14T12:24:32Z</time>
      </trkpt>
      <trkpt lat="45.93178" lon="4.72714">
        <ele>169</ele>
        <time>2018-03-14T12:24:33Z</time>
      </trkpt>
      <trkpt lat="45.93174" lon="4.72718">
        <ele>170</ele>
        <time>2018-03-14T12:24:34Z</time>
      </trkpt>
      <trkpt lat="45.9317" lon="4.72723">
        <ele>170</ele>
        <time>2018-03-14T12:24:35Z</time>
      </trkpt>
      <trkpt lat="45.93167" lon="4.72728">
        <ele>170</ele>
        <time>2018-03-14T12:24:36Z</time>
      </trkpt>
      <trkpt lat="45.93163" lon="4.72732">
        <ele>170</ele>
        <time>2018-03-14T12:24:37Z</time>
      </trkpt>
      <trkpt lat="45.93155" lon="4.72738">
        <ele>170</ele>
        <time>2018-03-14T12:24:39Z</time>
      </trkpt>
      <trkpt lat="45.93152" lon="4.72743">
        <ele>170</ele>
        <time>2018-03-14T12:24:40Z</time>
      </trkpt>
      <trkpt lat="45.93148" lon="4.72748">
        <ele>170</ele>
        <time>2018-03-14T12:24:41Z</time>
      </trkpt>
      <trkpt lat="45.93144" lon="4.72751">
        <ele>171</ele>
        <time>2018-03-14T12:24:42Z</time>
      </trkpt>
      <trkpt lat="45.9314" lon="4.72756">
        <ele>171</ele>
        <time>2018-03-14T12:24:43Z</time>
      </trkpt>
      <trkpt lat="45.93137" lon="4.72761">
        <ele>171</ele>
        <time>2018-03-14T12:24:44Z</time>
      </trkpt>
      <trkpt lat="45.93133" lon="4.72766">
        <ele>171</ele>
        <time>2018-03-14T12:24:45Z</time>
      </trkpt>
      <trkpt lat="45.93129" lon="4.72771">
        <ele>171</ele>
        <time>2018-03-14T12:24:46Z</time>
      </trkpt>
      <trkpt lat="45.93125" lon="4.72775">
        <ele>171</ele>
        <time>2018-03-14T12:24:47Z</time>
      </trkpt>
      <trkpt lat="45.93121" lon="4.7278">
        <ele>171</ele>
        <time>2018-03-14T12:24:48Z</time>
      </trkpt>
      <trkpt lat="45.93117" lon="4.72784">
        <ele>171</ele>
        <time>2018-03-14T12:24:49Z</time>
      </trkpt>
      <trkpt lat="45.93113" lon="4.72788">
        <ele>171</ele>
        <time>2018-03-14T12:24:50Z</time>
      </trkpt>
      <trkpt lat="45.93109" lon="4.72793">
        <ele>171</ele>
        <time>2018-03-14T12:24:51Z</time>
      </trkpt>
      <trkpt lat="45.93105" lon="4.72797">
        <ele>171</ele>
        <time>2018-03-14T12:24:52Z</time>
      </trkpt>
      <trkpt lat="45.93101" lon="4.72802">
        <ele>171</ele>
        <time>2018-03-14T12:24:53Z</time>
      </trkpt>
      <trkpt lat="45.93097" lon="4.72806">
        <ele>171</ele>
        <time>2018-03-14T12:24:54Z</time>
      </trkpt>
      <trkpt lat="45.93093" lon="4.7281">
        <ele>172</ele>
        <time>2018-03-14T12:24:55Z</time>
      </trkpt>
      <trkpt lat="45.93089" lon="4.72814">
        <ele>172</ele>
        <time>2018-03-14T12:24:56Z</time>
      </trkpt>
      <trkpt lat="45.93081" lon="4.7282">
        <ele>173</ele>
        <time>2018-03-14T12:24:58Z</time>
      </trkpt>
      <trkpt lat="45.93078" lon="4.72824">
        <ele>173</ele>
        <time>2018-03-14T12:24:59Z</time>
      </trkpt>
      <trkpt lat="45.93071" lon="4.72829">
        <ele>173</ele>
        <time>2018-03-14T12:25:01Z</time>
      </trkpt>
      <trkpt lat="45.93068" lon="4.72832">
        <ele>173</ele>
        <time>2018-03-14T12:25:02Z</time>
      </trkpt>
      <trkpt lat="45.93064" lon="4.72836">
        <ele>173</ele>
        <time>2018-03-14T12:25:03Z</time>
      </trkpt>
      <trkpt lat="45.93065" lon="4.72855">
        <ele>172</ele>
        <time>2018-03-14T12:25:04Z</time>
      </trkpt>
      <trkpt lat="45.93054" lon="4.72855">
        <ele>172</ele>
        <time>2018-03-14T12:25:05Z</time>
      </trkpt>
      <trkpt lat="45.9305" lon="4.72863">
        <ele>172</ele>
        <time>2018-03-14T12:25:07Z</time>
      </trkpt>
      <trkpt lat="45.93045" lon="4.72867">
        <ele>172</ele>
        <time>2018-03-14T12:25:08Z</time>
      </trkpt>
      <trkpt lat="45.93039" lon="4.72875">
        <ele>172</ele>
        <time>2018-03-14T12:25:10Z</time>
      </trkpt>
      <trkpt lat="45.93034" lon="4.72878">
        <ele>172</ele>
        <time>2018-03-14T12:25:11Z</time>
      </trkpt>
      <trkpt lat="45.93028" lon="4.72886">
        <ele>172</ele>
        <time>2018-03-14T12:25:13Z</time>
      </trkpt>
      <trkpt lat="45.93024" lon="4.7289">
        <ele>172</ele>
        <time>2018-03-14T12:25:14Z</time>
      </trkpt>
      <trkpt lat="45.93017" lon="4.72898">
        <ele>172</ele>
        <time>2018-03-14T12:25:16Z</time>
      </trkpt>
      <trkpt lat="45.93014" lon="4.72902">
        <ele>172</ele>
        <time>2018-03-14T12:25:17Z</time>
      </trkpt>
      <trkpt lat="45.93006" lon="4.72909">
        <ele>171</ele>
        <time>2018-03-14T12:25:19Z</time>
      </trkpt>
      <trkpt lat="45.93003" lon="4.72913">
        <ele>171</ele>
        <time>2018-03-14T12:25:20Z</time>
      </trkpt>
      <trkpt lat="45.92999" lon="4.72917">
        <ele>171</ele>
        <time>2018-03-14T12:25:21Z</time>
      </trkpt>
      <trkpt lat="45.92995" lon="4.72922">
        <ele>171</ele>
        <time>2018-03-14T12:25:22Z</time>
      </trkpt>
      <trkpt lat="45.92992" lon="4.72926">
        <ele>171</ele>
        <time>2018-03-14T12:25:23Z</time>
      </trkpt>
      <trkpt lat="45.92989" lon="4.72932">
        <ele>171</ele>
        <time>2018-03-14T12:25:24Z</time>
      </trkpt>
      <trkpt lat="45.92982" lon="4.72938">
        <ele>171</ele>
        <time>2018-03-14T12:25:26Z</time>
      </trkpt>
      <trkpt lat="45.92979" lon="4.72943">
        <ele>171</ele>
        <time>2018-03-14T12:25:27Z</time>
      </trkpt>
      <trkpt lat="45.92973" lon="4.72951">
        <ele>171</ele>
        <time>2018-03-14T12:25:29Z</time>
      </trkpt>
      <trkpt lat="45.9297" lon="4.72955">
        <ele>171</ele>
        <time>2018-03-14T12:25:30Z</time>
      </trkpt>
      <trkpt lat="45.92963" lon="4.72963">
        <ele>171</ele>
        <time>2018-03-14T12:25:32Z</time>
      </trkpt>
      <trkpt lat="45.92959" lon="4.72967">
        <ele>171</ele>
        <time>2018-03-14T12:25:33Z</time>
      </trkpt>
      <trkpt lat="45.92954" lon="4.72975">
        <ele>171</ele>
        <time>2018-03-14T12:25:35Z</time>
      </trkpt>
      <trkpt lat="45.92951" lon="4.72978">
        <ele>171</ele>
        <time>2018-03-14T12:25:36Z</time>
      </trkpt>
      <trkpt lat="45.92944" lon="4.72985">
        <ele>171</ele>
        <time>2018-03-14T12:25:39Z</time>
      </trkpt>
      <trkpt lat="45.92942" lon="4.72988">
        <ele>171</ele>
        <time>2018-03-14T12:25:40Z</time>
      </trkpt>
      <trkpt lat="45.92936" lon="4.72996">
        <ele>172</ele>
        <time>2018-03-14T12:25:43Z</time>
      </trkpt>
      <trkpt lat="45.92934" lon="4.72998">
        <ele>172</ele>
        <time>2018-03-14T12:25:44Z</time>
      </trkpt>
      <trkpt lat="45.92927" lon="4.73006">
        <ele>172</ele>
        <time>2018-03-14T12:25:47Z</time>
      </trkpt>
      <trkpt lat="45.92924" lon="4.73009">
        <ele>172</ele>
        <time>2018-03-14T12:25:48Z</time>
      </trkpt>
      <trkpt lat="45.92917" lon="4.73018">
        <ele>172</ele>
        <time>2018-03-14T12:25:49Z</time>
      </trkpt>
      <trkpt lat="45.92911" lon="4.73025">
        <ele>172</ele>
        <time>2018-03-14T12:25:51Z</time>
      </trkpt>
      <trkpt lat="45.9291" lon="4.73027">
        <ele>172</ele>
        <time>2018-03-14T12:25:52Z</time>
      </trkpt>
      <trkpt lat="45.92904" lon="4.73034">
        <ele>172</ele>
        <time>2018-03-14T12:25:54Z</time>
      </trkpt>
      <trkpt lat="45.92901" lon="4.73039">
        <ele>172</ele>
        <time>2018-03-14T12:25:55Z</time>
      </trkpt>
      <trkpt lat="45.92897" lon="4.73046">
        <ele>172</ele>
        <time>2018-03-14T12:25:57Z</time>
      </trkpt>
      <trkpt lat="45.92893" lon="4.73052">
        <ele>172</ele>
        <time>2018-03-14T12:25:58Z</time>
      </trkpt>
      <trkpt lat="45.92888" lon="4.73061">
        <ele>172</ele>
        <time>2018-03-14T12:26:00Z</time>
      </trkpt>
      <trkpt lat="45.92885" lon="4.73065">
        <ele>172</ele>
        <time>2018-03-14T12:26:01Z</time>
      </trkpt>
      <trkpt lat="45.92879" lon="4.73074">
        <ele>172</ele>
        <time>2018-03-14T12:26:03Z</time>
      </trkpt>
      <trkpt lat="45.92876" lon="4.73078">
        <ele>172</ele>
        <time>2018-03-14T12:26:04Z</time>
      </trkpt>
      <trkpt lat="45.9287" lon="4.73085">
        <ele>172</ele>
        <time>2018-03-14T12:26:06Z</time>
      </trkpt>
      <trkpt lat="45.92867" lon="4.73089">
        <ele>172</ele>
        <time>2018-03-14T12:26:07Z</time>
      </trkpt>
      <trkpt lat="45.92861" lon="4.73097">
        <ele>171</ele>
        <time>2018-03-14T12:26:09Z</time>
      </trkpt>
      <trkpt lat="45.92858" lon="4.73101">
        <ele>171</ele>
        <time>2018-03-14T12:26:10Z</time>
      </trkpt>
      <trkpt lat="45.92851" lon="4.73105">
        <ele>171</ele>
        <time>2018-03-14T12:26:12Z</time>
      </trkpt>
      <trkpt lat="45.92848" lon="4.73103">
        <ele>171</ele>
        <time>2018-03-14T12:26:13Z</time>
      </trkpt>
      <trkpt lat="45.92844" lon="4.73093">
        <ele>171</ele>
        <time>2018-03-14T12:26:15Z</time>
      </trkpt>
      <trkpt lat="45.92846" lon="4.7308">
        <ele>171</ele>
        <time>2018-03-14T12:26:16Z</time>
      </trkpt>
      <trkpt lat="45.92847" lon="4.73074">
        <ele>171</ele>
        <time>2018-03-14T12:26:17Z</time>
      </trkpt>
      <trkpt lat="45.92845" lon="4.73066">
        <ele>171</ele>
        <time>2018-03-14T12:26:18Z</time>
      </trkpt>
      <trkpt lat="45.92843" lon="4.73059">
        <ele>171</ele>
        <time>2018-03-14T12:26:19Z</time>
      </trkpt>
      <trkpt lat="45.92842" lon="4.73052">
        <ele>171</ele>
        <time>2018-03-14T12:26:20Z</time>
      </trkpt>
      <trkpt lat="45.92841" lon="4.73045">
        <ele>171</ele>
        <time>2018-03-14T12:26:21Z</time>
      </trkpt>
      <trkpt lat="45.92838" lon="4.73038">
        <ele>171</ele>
        <time>2018-03-14T12:26:22Z</time>
      </trkpt>
      <trkpt lat="45.92836" lon="4.73032">
        <ele>171</ele>
        <time>2018-03-14T12:26:23Z</time>
      </trkpt>
      <trkpt lat="45.92835" lon="4.73025">
        <ele>171</ele>
        <time>2018-03-14T12:26:24Z</time>
      </trkpt>
      <trkpt lat="45.92834" lon="4.73018">
        <ele>171</ele>
        <time>2018-03-14T12:26:25Z</time>
      </trkpt>
      <trkpt lat="45.92833" lon="4.73011">
        <ele>170</ele>
        <time>2018-03-14T12:26:26Z</time>
      </trkpt>
      <trkpt lat="45.9283" lon="4.73005">
        <ele>170</ele>
        <time>2018-03-14T12:26:27Z</time>
      </trkpt>
      <trkpt lat="45.92829" lon="4.72998">
        <ele>170</ele>
        <time>2018-03-14T12:26:28Z</time>
      </trkpt>
      <trkpt lat="45.92828" lon="4.72986">
        <ele>170</ele>
        <time>2018-03-14T12:26:30Z</time>
      </trkpt>
      <trkpt lat="45.92827" lon="4.7298">
        <ele>170</ele>
        <time>2018-03-14T12:26:31Z</time>
      </trkpt>
      <trkpt lat="45.92827" lon="4.72974">
        <ele>170</ele>
        <time>2018-03-14T12:26:32Z</time>
      </trkpt>
      <trkpt lat="45.92827" lon="4.72967">
        <ele>170</ele>
        <time>2018-03-14T12:26:33Z</time>
      </trkpt>
      <trkpt lat="45.92826" lon="4.7296">
        <ele>170</ele>
        <time>2018-03-14T12:26:34Z</time>
      </trkpt>
      <trkpt lat="45.92825" lon="4.72954">
        <ele>170</ele>
        <time>2018-03-14T12:26:35Z</time>
      </trkpt>
      <trkpt lat="45.92824" lon="4.72941">
        <ele>170</ele>
        <time>2018-03-14T12:26:37Z</time>
      </trkpt>
      <trkpt lat="45.92823" lon="4.72934">
        <ele>170</ele>
        <time>2018-03-14T12:26:38Z</time>
      </trkpt>
      <trkpt lat="45.92821" lon="4.72928">
        <ele>170</ele>
        <time>2018-03-14T12:26:39Z</time>
      </trkpt>
      <trkpt lat="45.9282" lon="4.72921">
        <ele>170</ele>
        <time>2018-03-14T12:26:40Z</time>
      </trkpt>
      <trkpt lat="45.92821" lon="4.72909">
        <ele>170</ele>
        <time>2018-03-14T12:26:42Z</time>
      </trkpt>
      <trkpt lat="45.92821" lon="4.72903">
        <ele>170</ele>
        <time>2018-03-14T12:26:43Z</time>
      </trkpt>
      <trkpt lat="45.92821" lon="4.72896">
        <ele>170</ele>
        <time>2018-03-14T12:26:44Z</time>
      </trkpt>
      <trkpt lat="45.9282" lon="4.7289">
        <ele>170</ele>
        <time>2018-03-14T12:26:45Z</time>
      </trkpt>
      <trkpt lat="45.92818" lon="4.72883">
        <ele>170</ele>
        <time>2018-03-14T12:26:46Z</time>
      </trkpt>
      <trkpt lat="45.92816" lon="4.72876">
        <ele>170</ele>
        <time>2018-03-14T12:26:47Z</time>
      </trkpt>
      <trkpt lat="45.92814" lon="4.72869">
        <ele>170</ele>
        <time>2018-03-14T12:26:48Z</time>
      </trkpt>
      <trkpt lat="45.92813" lon="4.7286">
        <ele>170</ele>
        <time>2018-03-14T12:26:49Z</time>
      </trkpt>
      <trkpt lat="45.92811" lon="4.72851">
        <ele>170</ele>
        <time>2018-03-14T12:26:50Z</time>
      </trkpt>
      <trkpt lat="45.9281" lon="4.72844">
        <ele>170</ele>
        <time>2018-03-14T12:26:51Z</time>
      </trkpt>
      <trkpt lat="45.92809" lon="4.72836">
        <ele>170</ele>
        <time>2018-03-14T12:26:52Z</time>
      </trkpt>
      <trkpt lat="45.92808" lon="4.7283">
        <ele>171</ele>
        <time>2018-03-14T12:26:53Z</time>
      </trkpt>
      <trkpt lat="45.92807" lon="4.72823">
        <ele>171</ele>
        <time>2018-03-14T12:26:54Z</time>
      </trkpt>
      <trkpt lat="45.92806" lon="4.72816">
        <ele>171</ele>
        <time>2018-03-14T12:26:55Z</time>
      </trkpt>
      <trkpt lat="45.92805" lon="4.72809">
        <ele>171</ele>
        <time>2018-03-14T12:26:56Z</time>
      </trkpt>
      <trkpt lat="45.92803" lon="4.72803">
        <ele>171</ele>
        <time>2018-03-14T12:26:57Z</time>
      </trkpt>
      <trkpt lat="45.92801" lon="4.72792">
        <ele>171</ele>
        <time>2018-03-14T12:26:59Z</time>
      </trkpt>
      <trkpt lat="45.92797" lon="4.72787">
        <ele>171</ele>
        <time>2018-03-14T12:27:00Z</time>
      </trkpt>
      <trkpt lat="45.92791" lon="4.72788">
        <ele>171</ele>
        <time>2018-03-14T12:27:02Z</time>
      </trkpt>
      <trkpt lat="45.92789" lon="4.72792">
        <ele>170</ele>
        <time>2018-03-14T12:27:03Z</time>
      </trkpt>
      <trkpt lat="45.92785" lon="4.72795">
        <ele>170</ele>
        <time>2018-03-14T12:27:04Z</time>
      </trkpt>
      <trkpt lat="45.9278" lon="4.72798">
        <ele>170</ele>
        <time>2018-03-14T12:27:05Z</time>
      </trkpt>
      <trkpt lat="45.92776" lon="4.72801">
        <ele>170</ele>
        <time>2018-03-14T12:27:06Z</time>
      </trkpt>
      <trkpt lat="45.92773" lon="4.72805">
        <ele>170</ele>
        <time>2018-03-14T12:27:07Z</time>
      </trkpt>
      <trkpt lat="45.92765" lon="4.7281">
        <ele>170</ele>
        <time>2018-03-14T12:27:09Z</time>
      </trkpt>
      <trkpt lat="45.92761" lon="4.72812">
        <ele>170</ele>
        <time>2018-03-14T12:27:10Z</time>
      </trkpt>
      <trkpt lat="45.92753" lon="4.72818">
        <ele>170</ele>
        <time>2018-03-14T12:27:12Z</time>
      </trkpt>
      <trkpt lat="45.9275" lon="4.7282">
        <ele>169</ele>
        <time>2018-03-14T12:27:13Z</time>
      </trkpt>
      <trkpt lat="45.92742" lon="4.72826">
        <ele>169</ele>
        <time>2018-03-14T12:27:15Z</time>
      </trkpt>
      <trkpt lat="45.92738" lon="4.72829">
        <ele>169</ele>
        <time>2018-03-14T12:27:16Z</time>
      </trkpt>
      <trkpt lat="45.92731" lon="4.72835">
        <ele>169</ele>
        <time>2018-03-14T12:27:18Z</time>
      </trkpt>
      <trkpt lat="45.92727" lon="4.72837">
        <ele>169</ele>
        <time>2018-03-14T12:27:19Z</time>
      </trkpt>
      <trkpt lat="45.92719" lon="4.72843">
        <ele>169</ele>
        <time>2018-03-14T12:27:21Z</time>
      </trkpt>
      <trkpt lat="45.92715" lon="4.72846">
        <ele>169</ele>
        <time>2018-03-14T12:27:22Z</time>
      </trkpt>
      <trkpt lat="45.92708" lon="4.72853">
        <ele>169</ele>
        <time>2018-03-14T12:27:24Z</time>
      </trkpt>
      <trkpt lat="45.92704" lon="4.72857">
        <ele>169</ele>
        <time>2018-03-14T12:27:25Z</time>
      </trkpt>
      <trkpt lat="45.92697" lon="4.72862">
        <ele>169</ele>
        <time>2018-03-14T12:27:27Z</time>
      </trkpt>
      <trkpt lat="45.92694" lon="4.72865">
        <ele>169</ele>
        <time>2018-03-14T12:27:28Z</time>
      </trkpt>
      <trkpt lat="45.92687" lon="4.72871">
        <ele>169</ele>
        <time>2018-03-14T12:27:30Z</time>
      </trkpt>
      <trkpt lat="45.92683" lon="4.72874">
        <ele>169</ele>
        <time>2018-03-14T12:27:31Z</time>
      </trkpt>
      <trkpt lat="45.92675" lon="4.72879">
        <ele>170</ele>
        <time>2018-03-14T12:27:33Z</time>
      </trkpt>
      <trkpt lat="45.92671" lon="4.72882">
        <ele>170</ele>
        <time>2018-03-14T12:27:34Z</time>
      </trkpt>
      <trkpt lat="45.92663" lon="4.72887">
        <ele>169</ele>
        <time>2018-03-14T12:27:36Z</time>
      </trkpt>
      <trkpt lat="45.92659" lon="4.7289">
        <ele>169</ele>
        <time>2018-03-14T12:27:37Z</time>
      </trkpt>
      <trkpt lat="45.92652" lon="4.72897">
        <ele>170</ele>
        <time>2018-03-14T12:27:39Z</time>
      </trkpt>
      <trkpt lat="45.92648" lon="4.729">
        <ele>169</ele>
        <time>2018-03-14T12:27:40Z</time>
      </trkpt>
      <trkpt lat="45.92644" lon="4.72902">
        <ele>169</ele>
        <time>2018-03-14T12:27:41Z</time>
      </trkpt>
      <trkpt lat="45.9264" lon="4.72906">
        <ele>169</ele>
        <time>2018-03-14T12:27:42Z</time>
      </trkpt>
      <trkpt lat="45.92636" lon="4.72909">
        <ele>169</ele>
        <time>2018-03-14T12:27:43Z</time>
      </trkpt>
      <trkpt lat="45.92632" lon="4.72913">
        <ele>169</ele>
        <time>2018-03-14T12:27:44Z</time>
      </trkpt>
      <trkpt lat="45.92628" lon="4.72916">
        <ele>169</ele>
        <time>2018-03-14T12:27:45Z</time>
      </trkpt>
      <trkpt lat="45.92624" lon="4.72919">
        <ele>169</ele>
        <time>2018-03-14T12:27:46Z</time>
      </trkpt>
      <trkpt lat="45.92619" lon="4.72922">
        <ele>169</ele>
        <time>2018-03-14T12:27:47Z</time>
      </trkpt>
      <trkpt lat="45.92614" lon="4.72925">
        <ele>169</ele>
        <time>2018-03-14T12:27:48Z</time>
      </trkpt>
      <trkpt lat="45.9261" lon="4.72928">
        <ele>169</ele>
        <time>2018-03-14T12:27:49Z</time>
      </trkpt>
      <trkpt lat="45.92606" lon="4.72933">
        <ele>169</ele>
        <time>2018-03-14T12:27:50Z</time>
      </trkpt>
      <trkpt lat="45.92603" lon="4.72938">
        <ele>169</ele>
        <time>2018-03-14T12:27:51Z</time>
      </trkpt>
      <trkpt lat="45.926" lon="4.72943">
        <ele>169</ele>
        <time>2018-03-14T12:27:52Z</time>
      </trkpt>
      <trkpt lat="45.92596" lon="4.72948">
        <ele>169</ele>
        <time>2018-03-14T12:27:53Z</time>
      </trkpt>
      <trkpt lat="45.92592" lon="4.72954">
        <ele>169</ele>
        <time>2018-03-14T12:27:54Z</time>
      </trkpt>
      <trkpt lat="45.92589" lon="4.72959">
        <ele>169</ele>
        <time>2018-03-14T12:27:55Z</time>
      </trkpt>
      <trkpt lat="45.92586" lon="4.72964">
        <ele>169</ele>
        <time>2018-03-14T12:27:56Z</time>
      </trkpt>
      <trkpt lat="45.9258" lon="4.72973">
        <ele>169</ele>
        <time>2018-03-14T12:27:58Z</time>
      </trkpt>
      <trkpt lat="45.92576" lon="4.72976">
        <ele>169</ele>
        <time>2018-03-14T12:27:59Z</time>
      </trkpt>
      <trkpt lat="45.92573" lon="4.72979">
        <ele>169</ele>
        <time>2018-03-14T12:28:00Z</time>
      </trkpt>
      <trkpt lat="45.92569" lon="4.72984">
        <ele>169</ele>
        <time>2018-03-14T12:28:01Z</time>
      </trkpt>
      <trkpt lat="45.92566" lon="4.72988">
        <ele>169</ele>
        <time>2018-03-14T12:28:02Z</time>
      </trkpt>
      <trkpt lat="45.92562" lon="4.72993">
        <ele>169</ele>
        <time>2018-03-14T12:28:03Z</time>
      </trkpt>
      <trkpt lat="45.92554" lon="4.72998">
        <ele>169</ele>
        <time>2018-03-14T12:28:05Z</time>
      </trkpt>
      <trkpt lat="45.92551" lon="4.73001">
        <ele>169</ele>
        <time>2018-03-14T12:28:06Z</time>
      </trkpt>
      <trkpt lat="45.92545" lon="4.73007">
        <ele>169</ele>
        <time>2018-03-14T12:28:08Z</time>
      </trkpt>
      <trkpt lat="45.92542" lon="4.73011">
        <ele>169</ele>
        <time>2018-03-14T12:28:09Z</time>
      </trkpt>
      <trkpt lat="45.92536" lon="4.73017">
        <ele>169</ele>
        <time>2018-03-14T12:28:11Z</time>
      </trkpt>
      <trkpt lat="45.92533" lon="4.7302">
        <ele>169</ele>
        <time>2018-03-14T12:28:12Z</time>
      </trkpt>
      <trkpt lat="45.92526" lon="4.73025">
        <ele>169</ele>
        <time>2018-03-14T12:28:14Z</time>
      </trkpt>
      <trkpt lat="45.92524" lon="4.73026">
        <ele>169</ele>
        <time>2018-03-14T12:28:15Z</time>
      </trkpt>
      <trkpt lat="45.92518" lon="4.73031">
        <ele>169</ele>
        <time>2018-03-14T12:28:18Z</time>
      </trkpt>
      <trkpt lat="45.92516" lon="4.73033">
        <ele>169</ele>
        <time>2018-03-14T12:28:19Z</time>
      </trkpt>
      <trkpt lat="45.92511" lon="4.73037">
        <ele>169</ele>
        <time>2018-03-14T12:28:21Z</time>
      </trkpt>
      <trkpt lat="45.92503" lon="4.73044">
        <ele>170</ele>
        <time>2018-03-14T12:28:22Z</time>
      </trkpt>
      <trkpt lat="45.92496" lon="4.7305">
        <ele>170</ele>
        <time>2018-03-14T12:28:24Z</time>
      </trkpt>
      <trkpt lat="45.92492" lon="4.73053">
        <ele>170</ele>
        <time>2018-03-14T12:28:25Z</time>
      </trkpt>
      <trkpt lat="45.92485" lon="4.7306">
        <ele>170</ele>
        <time>2018-03-14T12:28:27Z</time>
      </trkpt>
      <trkpt lat="45.92481" lon="4.73063">
        <ele>170</ele>
        <time>2018-03-14T12:28:28Z</time>
      </trkpt>
      <trkpt lat="45.92474" lon="4.73069">
        <ele>170</ele>
        <time>2018-03-14T12:28:30Z</time>
      </trkpt>
      <trkpt lat="45.9247" lon="4.73071">
        <ele>170</ele>
        <time>2018-03-14T12:28:31Z</time>
      </trkpt>
      <trkpt lat="45.92467" lon="4.73074">
        <ele>170</ele>
        <time>2018-03-14T12:28:33Z</time>
      </trkpt>
      <trkpt lat="45.92461" lon="4.73079">
        <ele>170</ele>
        <time>2018-03-14T12:28:34Z</time>
      </trkpt>
      <trkpt lat="45.92455" lon="4.73085">
        <ele>170</ele>
        <time>2018-03-14T12:28:36Z</time>
      </trkpt>
      <trkpt lat="45.92452" lon="4.73088">
        <ele>170</ele>
        <time>2018-03-14T12:28:37Z</time>
      </trkpt>
      <trkpt lat="45.92448" lon="4.73092">
        <ele>170</ele>
        <time>2018-03-14T12:28:39Z</time>
      </trkpt>
      <trkpt lat="45.92442" lon="4.73097">
        <ele>170</ele>
        <time>2018-03-14T12:28:40Z</time>
      </trkpt>
      <trkpt lat="45.92438" lon="4.73101">
        <ele>170</ele>
        <time>2018-03-14T12:28:42Z</time>
      </trkpt>
      <trkpt lat="45.92433" lon="4.73105">
        <ele>170</ele>
        <time>2018-03-14T12:28:43Z</time>
      </trkpt>
      <trkpt lat="45.92427" lon="4.73111">
        <ele>170</ele>
        <time>2018-03-14T12:28:45Z</time>
      </trkpt>
      <trkpt lat="45.92424" lon="4.73114">
        <ele>170</ele>
        <time>2018-03-14T12:28:46Z</time>
      </trkpt>
      <trkpt lat="45.92419" lon="4.73118">
        <ele>170</ele>
        <time>2018-03-14T12:28:48Z</time>
      </trkpt>
      <trkpt lat="45.92415" lon="4.73123">
        <ele>171</ele>
        <time>2018-03-14T12:28:49Z</time>
      </trkpt>
      <trkpt lat="45.92409" lon="4.73131">
        <ele>171</ele>
        <time>2018-03-14T12:28:51Z</time>
      </trkpt>
      <trkpt lat="45.92408" lon="4.73136">
        <ele>171</ele>
        <time>2018-03-14T12:28:52Z</time>
      </trkpt>
      <trkpt lat="45.92407" lon="4.73147">
        <ele>171</ele>
        <time>2018-03-14T12:28:54Z</time>
      </trkpt>
      <trkpt lat="45.92407" lon="4.73152">
        <ele>171</ele>
        <time>2018-03-14T12:28:55Z</time>
      </trkpt>
      <trkpt lat="45.92408" lon="4.73163">
        <ele>170</ele>
        <time>2018-03-14T12:28:57Z</time>
      </trkpt>
      <trkpt lat="45.92409" lon="4.73169">
        <ele>170</ele>
        <time>2018-03-14T12:28:58Z</time>
      </trkpt>
      <trkpt lat="45.92409" lon="4.73179">
        <ele>171</ele>
        <time>2018-03-14T12:29:00Z</time>
      </trkpt>
      <trkpt lat="45.9241" lon="4.73182">
        <ele>171</ele>
        <time>2018-03-14T12:29:01Z</time>
      </trkpt>
      <trkpt lat="45.9241" lon="4.73192">
        <ele>171</ele>
        <time>2018-03-14T12:29:04Z</time>
      </trkpt>
      <trkpt lat="45.92411" lon="4.73196">
        <ele>171</ele>
        <time>2018-03-14T12:29:05Z</time>
      </trkpt>
      <trkpt lat="45.92412" lon="4.73208">
        <ele>171</ele>
        <time>2018-03-14T12:29:06Z</time>
      </trkpt>
      <trkpt lat="45.92412" lon="4.73211">
        <ele>171</ele>
        <time>2018-03-14T12:29:07Z</time>
      </trkpt>
      <trkpt lat="45.92412" lon="4.73214">
        <ele>171</ele>
        <time>2018-03-14T12:29:08Z</time>
      </trkpt>
      <trkpt lat="45.92412" lon="4.73223">
        <ele>171</ele>
        <time>2018-03-14T12:29:09Z</time>
      </trkpt>
      <trkpt lat="45.92413" lon="4.73234">
        <ele>171</ele>
        <time>2018-03-14T12:29:11Z</time>
      </trkpt>
      <trkpt lat="45.92413" lon="4.7324">
        <ele>171</ele>
        <time>2018-03-14T12:29:12Z</time>
      </trkpt>
      <trkpt lat="45.92414" lon="4.73251">
        <ele>171</ele>
        <time>2018-03-14T12:29:14Z</time>
      </trkpt>
      <trkpt lat="45.92414" lon="4.73257">
        <ele>171</ele>
        <time>2018-03-14T12:29:15Z</time>
      </trkpt>
      <trkpt lat="45.92415" lon="4.73267">
        <ele>171</ele>
        <time>2018-03-14T12:29:17Z</time>
      </trkpt>
      <trkpt lat="45.92415" lon="4.73273">
        <ele>171</ele>
        <time>2018-03-14T12:29:18Z</time>
      </trkpt>
      <trkpt lat="45.92416" lon="4.73284">
        <ele>171</ele>
        <time>2018-03-14T12:29:20Z</time>
      </trkpt>
      <trkpt lat="45.92417" lon="4.7329">
        <ele>171</ele>
        <time>2018-03-14T12:29:21Z</time>
      </trkpt>
      <trkpt lat="45.92418" lon="4.73302">
        <ele>171</ele>
        <time>2018-03-14T12:29:23Z</time>
      </trkpt>
      <trkpt lat="45.92418" lon="4.73308">
        <ele>171</ele>
        <time>2018-03-14T12:29:24Z</time>
      </trkpt>
      <trkpt lat="45.92419" lon="4.7332">
        <ele>171</ele>
        <time>2018-03-14T12:29:26Z</time>
      </trkpt>
      <trkpt lat="45.9242" lon="4.73326">
        <ele>171</ele>
        <time>2018-03-14T12:29:27Z</time>
      </trkpt>
      <trkpt lat="45.92421" lon="4.73338">
        <ele>171</ele>
        <time>2018-03-14T12:29:29Z</time>
      </trkpt>
      <trkpt lat="45.92422" lon="4.73343">
        <ele>171</ele>
        <time>2018-03-14T12:29:30Z</time>
      </trkpt>
      <trkpt lat="45.92424" lon="4.73356">
        <ele>171</ele>
        <time>2018-03-14T12:29:32Z</time>
      </trkpt>
      <trkpt lat="45.92425" lon="4.73362">
        <ele>172</ele>
        <time>2018-03-14T12:29:33Z</time>
      </trkpt>
      <trkpt lat="45.92426" lon="4.73373">
        <ele>172</ele>
        <time>2018-03-14T12:29:35Z</time>
      </trkpt>
      <trkpt lat="45.92428" lon="4.7338">
        <ele>172</ele>
        <time>2018-03-14T12:29:36Z</time>
      </trkpt>
      <trkpt lat="45.92429" lon="4.73392">
        <ele>172</ele>
        <time>2018-03-14T12:29:38Z</time>
      </trkpt>
      <trkpt lat="45.92431" lon="4.73398">
        <ele>172</ele>
        <time>2018-03-14T12:29:39Z</time>
      </trkpt>
      <trkpt lat="45.92434" lon="4.73407">
        <ele>172</ele>
        <time>2018-03-14T12:29:41Z</time>
      </trkpt>
      <trkpt lat="45.92437" lon="4.73411">
        <ele>172</ele>
        <time>2018-03-14T12:29:42Z</time>
      </trkpt>
      <trkpt lat="45.92442" lon="4.73415">
        <ele>172</ele>
        <time>2018-03-14T12:29:44Z</time>
      </trkpt>
      <trkpt lat="45.92446" lon="4.73418">
        <ele>173</ele>
        <time>2018-03-14T12:29:45Z</time>
      </trkpt>
      <trkpt lat="45.92454" lon="4.73423">
        <ele>173</ele>
        <time>2018-03-14T12:29:49Z</time>
      </trkpt>
      <trkpt lat="45.92457" lon="4.73425">
        <ele>173</ele>
        <time>2018-03-14T12:29:50Z</time>
      </trkpt>
      <trkpt lat="45.92464" lon="4.73431">
        <ele>173</ele>
        <time>2018-03-14T12:29:51Z</time>
      </trkpt>
      <trkpt lat="45.92467" lon="4.73434">
        <ele>173</ele>
        <time>2018-03-14T12:29:52Z</time>
      </trkpt>
      <trkpt lat="45.92471" lon="4.73445">
        <ele>173</ele>
        <time>2018-03-14T12:29:54Z</time>
      </trkpt>
      <trkpt lat="45.92472" lon="4.73451">
        <ele>173</ele>
        <time>2018-03-14T12:29:55Z</time>
      </trkpt>
      <trkpt lat="45.92473" lon="4.73457">
        <ele>173</ele>
        <time>2018-03-14T12:29:56Z</time>
      </trkpt>
      <trkpt lat="45.92473" lon="4.73464">
        <ele>173</ele>
        <time>2018-03-14T12:29:57Z</time>
      </trkpt>
      <trkpt lat="45.92473" lon="4.73471">
        <ele>173</ele>
        <time>2018-03-14T12:29:58Z</time>
      </trkpt>
      <trkpt lat="45.92472" lon="4.73477">
        <ele>173</ele>
        <time>2018-03-14T12:29:59Z</time>
      </trkpt>
      <trkpt lat="45.92472" lon="4.73483">
        <ele>173</ele>
        <time>2018-03-14T12:30:00Z</time>
      </trkpt>
      <trkpt lat="45.9247" lon="4.73491">
        <ele>173</ele>
        <time>2018-03-14T12:30:01Z</time>
      </trkpt>
      <trkpt lat="45.9247" lon="4.73503">
        <ele>174</ele>
        <time>2018-03-14T12:30:03Z</time>
      </trkpt>
      <trkpt lat="45.9247" lon="4.7351">
        <ele>174</ele>
        <time>2018-03-14T12:30:04Z</time>
      </trkpt>
      <trkpt lat="45.9247" lon="4.7352">
        <ele>174</ele>
        <time>2018-03-14T12:30:07Z</time>
      </trkpt>
      <trkpt lat="45.9247" lon="4.73524">
        <ele>174</ele>
        <time>2018-03-14T12:30:08Z</time>
      </trkpt>
      <trkpt lat="45.9247" lon="4.73534">
        <ele>174</ele>
        <time>2018-03-14T12:30:11Z</time>
      </trkpt>
      <trkpt lat="45.9247" lon="4.73538">
        <ele>174</ele>
        <time>2018-03-14T12:30:12Z</time>
      </trkpt>
      <trkpt lat="45.9247" lon="4.73543">
        <ele>173</ele>
        <time>2018-03-14T12:30:13Z</time>
      </trkpt>
      <trkpt lat="45.9247" lon="4.73556">
        <ele>173</ele>
        <time>2018-03-14T12:30:14Z</time>
      </trkpt>
      <trkpt lat="45.92471" lon="4.73567">
        <ele>173</ele>
        <time>2018-03-14T12:30:16Z</time>
      </trkpt>
      <trkpt lat="45.92471" lon="4.73573">
        <ele>173</ele>
        <time>2018-03-14T12:30:17Z</time>
      </trkpt>
      <trkpt lat="45.92471" lon="4.73585">
        <ele>174</ele>
        <time>2018-03-14T12:30:19Z</time>
      </trkpt>
      <trkpt lat="45.92471" lon="4.73592">
        <ele>174</ele>
        <time>2018-03-14T12:30:20Z</time>
      </trkpt>
      <trkpt lat="45.92471" lon="4.73604">
        <ele>174</ele>
        <time>2018-03-14T12:30:22Z</time>
      </trkpt>
      <trkpt lat="45.92471" lon="4.73611">
        <ele>174</ele>
        <time>2018-03-14T12:30:23Z</time>
      </trkpt>
      <trkpt lat="45.92471" lon="4.73618">
        <ele>174</ele>
        <time>2018-03-14T12:30:24Z</time>
      </trkpt>
      <trkpt lat="45.92472" lon="4.73625">
        <ele>174</ele>
        <time>2018-03-14T12:30:25Z</time>
      </trkpt>
      <trkpt lat="45.92472" lon="4.73636">
        <ele>174</ele>
        <time>2018-03-14T12:30:27Z</time>
      </trkpt>
      <trkpt lat="45.92471" lon="4.73641">
        <ele>174</ele>
        <time>2018-03-14T12:30:28Z</time>
      </trkpt>
      <trkpt lat="45.92471" lon="4.73653">
        <ele>174</ele>
        <time>2018-03-14T12:30:30Z</time>
      </trkpt>
      <trkpt lat="45.92471" lon="4.73658">
        <ele>174</ele>
        <time>2018-03-14T12:30:31Z</time>
      </trkpt>
      <trkpt lat="45.92469" lon="4.7367">
        <ele>174</ele>
        <time>2018-03-14T12:30:33Z</time>
      </trkpt>
      <trkpt lat="45.92469" lon="4.73675">
        <ele>174</ele>
        <time>2018-03-14T12:30:34Z</time>
      </trkpt>
      <trkpt lat="45.92467" lon="4.73685">
        <ele>174</ele>
        <time>2018-03-14T12:30:36Z</time>
      </trkpt>
      <trkpt lat="45.92466" lon="4.73688">
        <ele>174</ele>
        <time>2018-03-14T12:30:37Z</time>
      </trkpt>
      <trkpt lat="45.92466" lon="4.73698">
        <ele>174</ele>
        <time>2018-03-14T12:30:40Z</time>
      </trkpt>
      <trkpt lat="45.92465" lon="4.73701">
        <ele>174</ele>
        <time>2018-03-14T12:30:41Z</time>
      </trkpt>
      <trkpt lat="45.92463" lon="4.73714">
        <ele>174</ele>
        <time>2018-03-14T12:31:03Z</time>
      </trkpt>
      <trkpt lat="45.92463" lon="4.73714">
        <ele>174</ele>
        <time>2018-03-14T12:31:04Z</time>
      </trkpt>
      <trkpt lat="45.92458" lon="4.73715">
        <ele>174</ele>
        <time>2018-03-14T12:31:26.188Z</time>
      </trkpt>
    </trkseg>
  </trk>
</gpx>